<?xml version='1.0' encoding='UTF-8'?><gpx version="1.1" creator="JPX - https://github.com/jenetics/jpx" xmlns="http://www.topografix.com/GPX/1/1"><trk><trkseg><trkpt lat="43.54571003359793" lon="11.227578259471521"><ele>352.0</ele><time>2026-04-30T12:21:44.999Z</time></trkpt><trkpt lat="43.54572379370937" lon="11.227685723233265"><ele>352.0</ele><time>2026-04-30T12:21:48.999Z</time></trkpt><trkpt lat="43.5456837167387" lon="11.227762192956398"><ele>352.0</ele><time>2026-04-30T12:21:51.999Z</time></trkpt><trkpt lat="43.54563360434755" lon="11.227827654855647"><ele>352.0</ele><time>2026-04-30T12:21:54Z</time></trkpt><trkpt lat="43.54556542737869" lon="11.227870104649435"><ele>352.0</ele><time>2026-04-30T12:21:55Z</time></trkpt><trkpt lat="43.54549018065597" lon="11.227933702586665"><ele>352.0</ele><time>2026-04-30T12:21:56Z</time></trkpt><trkpt lat="43.545420229006346" lon="11.227986067251393"><ele>351.6</ele><time>2026-04-30T12:21:57Z</time></trkpt><trkpt lat="43.54535271577849" lon="11.22803894181281"><ele>351.20000000000005</ele><time>2026-04-30T12:21:58Z</time></trkpt><trkpt lat="43.54528029883703" lon="11.228088319708633"><ele>350.8</ele><time>2026-04-30T12:21:59Z</time></trkpt><trkpt lat="43.54519822074556" lon="11.228146330698054"><ele>350.4</ele><time>2026-04-30T12:22:00Z</time></trkpt><trkpt lat="43.54508335795341" lon="11.228236014001668"><ele>350.0</ele><time>2026-04-30T12:22:01Z</time></trkpt><trkpt lat="43.544973606342566" lon="11.228328830673195"><ele>351.75</ele><time>2026-04-30T12:22:02Z</time></trkpt><trkpt lat="43.54486305428724" lon="11.228420877740113"><ele>353.5</ele><time>2026-04-30T12:22:03Z</time></trkpt><trkpt lat="43.54474371044232" lon="11.228504213840864"><ele>355.25</ele><time>2026-04-30T12:22:04Z</time></trkpt><trkpt lat="43.5446222325125" lon="11.228596306456591"><ele>357.0</ele><time>2026-04-30T12:22:05Z</time></trkpt><trkpt lat="43.54449992753703" lon="11.228688035880277"><ele>357.25</ele><time>2026-04-30T12:22:06Z</time></trkpt><trkpt lat="43.544379108465826" lon="11.228780153093421"><ele>357.5</ele><time>2026-04-30T12:22:07Z</time></trkpt><trkpt lat="43.54426154413363" lon="11.228877052767526"><ele>357.75</ele><time>2026-04-30T12:22:08Z</time></trkpt><trkpt lat="43.544141337652384" lon="11.228975933101689"><ele>358.0</ele><time>2026-04-30T12:22:09Z</time></trkpt><trkpt lat="43.544020886790705" lon="11.229072477887092"><ele>359.25</ele><time>2026-04-30T12:22:10Z</time></trkpt><trkpt lat="43.543905587263794" lon="11.229169562955605"><ele>360.5</ele><time>2026-04-30T12:22:11Z</time></trkpt><trkpt lat="43.54379447225175" lon="11.229263867619657"><ele>361.75</ele><time>2026-04-30T12:22:12Z</time></trkpt><trkpt lat="43.543686741941606" lon="11.229358244496442"><ele>363.0</ele><time>2026-04-30T12:22:13Z</time></trkpt><trkpt lat="43.54357726416357" lon="11.229447535306562"><ele>363.5</ele><time>2026-04-30T12:22:14Z</time></trkpt><trkpt lat="43.54347010337613" lon="11.229543423607376"><ele>364.0</ele><time>2026-04-30T12:22:15Z</time></trkpt><trkpt lat="43.543345654173926" lon="11.229636361729478"><ele>364.5</ele><time>2026-04-30T12:22:16Z</time></trkpt><trkpt lat="43.543178251772325" lon="11.229719619767923"><ele>365.0</ele><time>2026-04-30T12:22:17Z</time></trkpt><trkpt lat="43.54300174350778" lon="11.22980393926194"><ele>365.0</ele><time>2026-04-30T12:22:18Z</time></trkpt><trkpt lat="43.54283413289866" lon="11.229869272515648"><ele>365.0</ele><time>2026-04-30T12:22:19Z</time></trkpt><trkpt lat="43.54265847868788" lon="11.229933841557145"><ele>365.0</ele><time>2026-04-30T12:22:20Z</time></trkpt><trkpt lat="43.54249638917471" lon="11.229991532192885"><ele>365.0</ele><time>2026-04-30T12:22:21Z</time></trkpt><trkpt lat="43.54235449656516" lon="11.230052689365028"><ele>365.0</ele><time>2026-04-30T12:22:22Z</time></trkpt><trkpt lat="43.542229376662036" lon="11.230095208070038"><ele>365.0</ele><time>2026-04-30T12:22:23Z</time></trkpt><trkpt lat="43.54210929439819" lon="11.230135872464468"><ele>365.0</ele><time>2026-04-30T12:22:24Z</time></trkpt><trkpt lat="43.54198977633724" lon="11.230185721856245"><ele>365.33333333333337</ele><time>2026-04-30T12:22:25Z</time></trkpt><trkpt lat="43.54184601505993" lon="11.230241122362605"><ele>365.6666666666667</ele><time>2026-04-30T12:22:26Z</time></trkpt><trkpt lat="43.541679340190846" lon="11.2302980842552"><ele>366.0</ele><time>2026-04-30T12:22:27Z</time></trkpt><trkpt lat="43.54151054231531" lon="11.230359277388851"><ele>366.0</ele><time>2026-04-30T12:22:28Z</time></trkpt><trkpt lat="43.5413407029912" lon="11.23041918608738"><ele>366.0</ele><time>2026-04-30T12:22:29Z</time></trkpt><trkpt lat="43.54118071974033" lon="11.230480934651252"><ele>366.0</ele><time>2026-04-30T12:22:30Z</time></trkpt><trkpt lat="43.54101445671245" lon="11.23053635001844"><ele>366.6666666666667</ele><time>2026-04-30T12:22:31Z</time></trkpt><trkpt lat="43.54086245024368" lon="11.230598234215465"><ele>367.33333333333337</ele><time>2026-04-30T12:22:32Z</time></trkpt><trkpt lat="43.540703982377906" lon="11.230659513350144"><ele>368.0</ele><time>2026-04-30T12:22:33Z</time></trkpt><trkpt lat="43.54055114656468" lon="11.230730402998057"><ele>368.6666666666667</ele><time>2026-04-30T12:22:34Z</time></trkpt><trkpt lat="43.540399554825335" lon="11.230813408683586"><ele>369.3333333333333</ele><time>2026-04-30T12:22:35Z</time></trkpt><trkpt lat="43.540256884152384" lon="11.230893923935433"><ele>370.0</ele><time>2026-04-30T12:22:36Z</time></trkpt><trkpt lat="43.54010166313361" lon="11.230970275503683"><ele>371.0</ele><time>2026-04-30T12:22:37Z</time></trkpt><trkpt lat="43.53995124190222" lon="11.231038484414626"><ele>372.0</ele><time>2026-04-30T12:22:38Z</time></trkpt><trkpt lat="43.53980935716772" lon="11.231130741198985"><ele>373.0</ele><time>2026-04-30T12:22:39Z</time></trkpt><trkpt lat="43.539660883710326" lon="11.231213083465379"><ele>375.0</ele><time>2026-04-30T12:22:40Z</time></trkpt><trkpt lat="43.539508481687974" lon="11.231288586082803"><ele>377.0</ele><time>2026-04-30T12:22:41Z</time></trkpt><trkpt lat="43.53935818094885" lon="11.231362451029783"><ele>379.0</ele><time>2026-04-30T12:22:42Z</time></trkpt><trkpt lat="43.53921879772912" lon="11.231436997454031"><ele>377.0</ele><time>2026-04-30T12:22:43Z</time></trkpt><trkpt lat="43.539070380484155" lon="11.231522932490309"><ele>375.0</ele><time>2026-04-30T12:22:44Z</time></trkpt><trkpt lat="43.538921982561234" lon="11.231626460421612"><ele>373.0</ele><time>2026-04-30T12:22:45Z</time></trkpt><trkpt lat="43.538792276432154" lon="11.231719650105509"><ele>374.0</ele><time>2026-04-30T12:22:46Z</time></trkpt><trkpt lat="43.53868490310729" lon="11.231826608996196"><ele>375.0</ele><time>2026-04-30T12:22:47Z</time></trkpt><trkpt lat="43.53858868249029" lon="11.23196105133676"><ele>376.0</ele><time>2026-04-30T12:22:48Z</time></trkpt><trkpt lat="43.538513566864445" lon="11.232130042913667"><ele>377.0</ele><time>2026-04-30T12:22:49Z</time></trkpt><trkpt lat="43.538459336603616" lon="11.232317225473796"><ele>377.0</ele><time>2026-04-30T12:22:50Z</time></trkpt><trkpt lat="43.538405485513614" lon="11.232534256657782"><ele>377.0</ele><time>2026-04-30T12:22:51Z</time></trkpt><trkpt lat="43.53837024656407" lon="11.232770878449806"><ele>377.0</ele><time>2026-04-30T12:22:52Z</time></trkpt><trkpt lat="43.538359237203046" lon="11.233010716053823"><ele>377.33333333333337</ele><time>2026-04-30T12:22:53Z</time></trkpt><trkpt lat="43.538354245802665" lon="11.233254050882307"><ele>377.6666666666667</ele><time>2026-04-30T12:22:54Z</time></trkpt><trkpt lat="43.53834864457189" lon="11.233491850097073"><ele>378.0</ele><time>2026-04-30T12:22:55Z</time></trkpt><trkpt lat="43.53834571525473" lon="11.233724753084795"><ele>378.0</ele><time>2026-04-30T12:22:56Z</time></trkpt><trkpt lat="43.53834309168267" lon="11.233956605642206"><ele>378.0</ele><time>2026-04-30T12:22:57Z</time></trkpt><trkpt lat="43.538333383377164" lon="11.234177217290968"><ele>378.0</ele><time>2026-04-30T12:22:58Z</time></trkpt><trkpt lat="43.538324876200335" lon="11.234390862552438"><ele>380.33333333333337</ele><time>2026-04-30T12:22:59Z</time></trkpt><trkpt lat="43.53831603784573" lon="11.234607836994316"><ele>382.6666666666667</ele><time>2026-04-30T12:23:00Z</time></trkpt><trkpt lat="43.53830714118125" lon="11.234824424493816"><ele>385.0</ele><time>2026-04-30T12:23:01Z</time></trkpt><trkpt lat="43.53830150809473" lon="11.235028381367812"><ele>386.75</ele><time>2026-04-30T12:23:02Z</time></trkpt><trkpt lat="43.53829667925449" lon="11.23521848642441"><ele>388.5</ele><time>2026-04-30T12:23:03Z</time></trkpt><trkpt lat="43.53828329173966" lon="11.235396753340993"><ele>390.25</ele><time>2026-04-30T12:23:04Z</time></trkpt><trkpt lat="43.53826162066284" lon="11.235578406327487"><ele>392.0</ele><time>2026-04-30T12:23:05Z</time></trkpt><trkpt lat="43.53822341921428" lon="11.23575693033462"><ele>392.75</ele><time>2026-04-30T12:23:06Z</time></trkpt><trkpt lat="43.538172804258494" lon="11.2359224524229"><ele>393.5</ele><time>2026-04-30T12:23:07Z</time></trkpt><trkpt lat="43.538106953069956" lon="11.236083489018629"><ele>394.25</ele><time>2026-04-30T12:23:08Z</time></trkpt><trkpt lat="43.53802121205516" lon="11.236229212083098"><ele>395.0</ele><time>2026-04-30T12:23:09Z</time></trkpt><trkpt lat="43.53791775026688" lon="11.236362075565056"><ele>395.0</ele><time>2026-04-30T12:23:10Z</time></trkpt><trkpt lat="43.53779826810514" lon="11.236470170860356"><ele>395.0</ele><time>2026-04-30T12:23:11Z</time></trkpt><trkpt lat="43.53767400785834" lon="11.236568832450603"><ele>395.0</ele><time>2026-04-30T12:23:12Z</time></trkpt><trkpt lat="43.53755164009707" lon="11.236673434080833"><ele>395.0</ele><time>2026-04-30T12:23:13Z</time></trkpt><trkpt lat="43.53742965712758" lon="11.236782745215898"><ele>395.0</ele><time>2026-04-30T12:23:14Z</time></trkpt><trkpt lat="43.53729963650116" lon="11.236891344994705"><ele>395.0</ele><time>2026-04-30T12:23:15Z</time></trkpt><trkpt lat="43.537172865877494" lon="11.23700356390766"><ele>395.0</ele><time>2026-04-30T12:23:16Z</time></trkpt><trkpt lat="43.537042771692136" lon="11.237133855233296"><ele>396.66666666666663</ele><time>2026-04-30T12:23:17Z</time></trkpt><trkpt lat="43.53691655489415" lon="11.237262572835775"><ele>398.33333333333337</ele><time>2026-04-30T12:23:18Z</time></trkpt><trkpt lat="43.536794033582076" lon="11.237415790106681"><ele>400.0</ele><time>2026-04-30T12:23:19Z</time></trkpt><trkpt lat="43.536684639894965" lon="11.237597261355267"><ele>400.0</ele><time>2026-04-30T12:23:20Z</time></trkpt><trkpt lat="43.53659781748475" lon="11.237803430326888"><ele>400.0</ele><time>2026-04-30T12:23:21Z</time></trkpt><trkpt lat="43.53653168391079" lon="11.238017892374843"><ele>400.0</ele><time>2026-04-30T12:23:22Z</time></trkpt><trkpt lat="43.53647719381159" lon="11.23821846848191"><ele>399.33333333333337</ele><time>2026-04-30T12:23:23Z</time></trkpt><trkpt lat="43.53642538237982" lon="11.238407544415582"><ele>398.66666666666663</ele><time>2026-04-30T12:23:24Z</time></trkpt><trkpt lat="43.53636257460018" lon="11.238603731692017"><ele>398.0</ele><time>2026-04-30T12:23:25Z</time></trkpt><trkpt lat="43.536292403479" lon="11.238811919521774"><ele>399.0</ele><time>2026-04-30T12:23:26Z</time></trkpt><trkpt lat="43.53621676401177" lon="11.239033217373185"><ele>400.0</ele><time>2026-04-30T12:23:27Z</time></trkpt><trkpt lat="43.536153846643224" lon="11.239235760984277"><ele>401.0</ele><time>2026-04-30T12:23:28Z</time></trkpt><trkpt lat="43.53609420140489" lon="11.239421043351937"><ele>401.0</ele><time>2026-04-30T12:23:29Z</time></trkpt><trkpt lat="43.536020849563656" lon="11.239599069898597"><ele>401.0</ele><time>2026-04-30T12:23:30Z</time></trkpt><trkpt lat="43.53592512556054" lon="11.239768213529105"><ele>401.0</ele><time>2026-04-30T12:23:31Z</time></trkpt><trkpt lat="43.53581172554358" lon="11.23995807231622"><ele>399.3333333333333</ele><time>2026-04-30T12:23:32Z</time></trkpt><trkpt lat="43.53570099148005" lon="11.240148310446813"><ele>397.66666666666663</ele><time>2026-04-30T12:23:33Z</time></trkpt><trkpt lat="43.53559306904814" lon="11.240322751236356"><ele>396.0</ele><time>2026-04-30T12:23:33.998Z</time></trkpt><trkpt lat="43.53547970982501" lon="11.240486689166305"><ele>395.0</ele><time>2026-04-30T12:23:34.998Z</time></trkpt><trkpt lat="43.535363078249574" lon="11.240629174993748"><ele>394.0</ele><time>2026-04-30T12:23:35.998Z</time></trkpt><trkpt lat="43.535240130195675" lon="11.240760461003674"><ele>393.0</ele><time>2026-04-30T12:23:36.998Z</time></trkpt><trkpt lat="43.53511353587315" lon="11.240887081451337"><ele>392.0</ele><time>2026-04-30T12:23:37.998Z</time></trkpt><trkpt lat="43.534976693710774" lon="11.24101844396311"><ele>391.0</ele><time>2026-04-30T12:23:38.998Z</time></trkpt><trkpt lat="43.53483219427626" lon="11.241147586478615"><ele>390.0</ele><time>2026-04-30T12:23:39.998Z</time></trkpt><trkpt lat="43.53469102596975" lon="11.241256258870218"><ele>390.0</ele><time>2026-04-30T12:23:40.998Z</time></trkpt><trkpt lat="43.53455674073115" lon="11.241348347213641"><ele>390.0</ele><time>2026-04-30T12:23:41.998Z</time></trkpt><trkpt lat="43.53443055126796" lon="11.241429354395947"><ele>390.0</ele><time>2026-04-30T12:23:42.998Z</time></trkpt><trkpt lat="43.53430430630933" lon="11.24150623818634"><ele>390.0</ele><time>2026-04-30T12:23:43.999Z</time></trkpt><trkpt lat="43.53417133143925" lon="11.241577486293856"><ele>389.5</ele><time>2026-04-30T12:23:44.999Z</time></trkpt><trkpt lat="43.53403773748292" lon="11.241631097520207"><ele>389.0</ele><time>2026-04-30T12:23:45.999Z</time></trkpt><trkpt lat="43.533907895577855" lon="11.24168810143165"><ele>388.5</ele><time>2026-04-30T12:23:46.999Z</time></trkpt><trkpt lat="43.5337913825542" lon="11.24173579795118"><ele>388.0</ele><time>2026-04-30T12:23:47.999Z</time></trkpt><trkpt lat="43.533683292491936" lon="11.241777583696832"><ele>387.6666666666667</ele><time>2026-04-30T12:23:48.999Z</time></trkpt><trkpt lat="43.5335952795738" lon="11.24180951510475"><ele>387.33333333333337</ele><time>2026-04-30T12:23:49.999Z</time></trkpt><trkpt lat="43.533525251639446" lon="11.241844237234563"><ele>387.0</ele><time>2026-04-30T12:23:50.999Z</time></trkpt><trkpt lat="43.533449177267826" lon="11.241869726424436"><ele>386.66666666666663</ele><time>2026-04-30T12:23:52.999Z</time></trkpt><trkpt lat="43.533355949934474" lon="11.241879887439396"><ele>386.3333333333333</ele><time>2026-04-30T12:24:11.999Z</time></trkpt><trkpt lat="43.53329433343029" lon="11.241914776263574"><ele>386.0</ele><time>2026-04-30T12:24:15Z</time></trkpt><trkpt lat="43.5333651893294" lon="11.241884328378065"><ele>386.0</ele><time>2026-04-30T12:24:19Z</time></trkpt><trkpt lat="43.53350301314445" lon="11.241865939047937"><ele>386.0</ele><time>2026-04-30T12:24:21Z</time></trkpt><trkpt lat="43.533623803695335" lon="11.24181296486506"><ele>386.0</ele><time>2026-04-30T12:24:22Z</time></trkpt><trkpt lat="43.533754281348166" lon="11.241769773860195"><ele>386.0</ele><time>2026-04-30T12:24:23Z</time></trkpt><trkpt lat="43.53388736841377" lon="11.24172463806566"><ele>386.5</ele><time>2026-04-30T12:24:24Z</time></trkpt><trkpt lat="43.534024647114535" lon="11.241670136815243"><ele>387.0</ele><time>2026-04-30T12:24:25Z</time></trkpt><trkpt lat="43.53415832079401" lon="11.241614060020389"><ele>387.5</ele><time>2026-04-30T12:24:26Z</time></trkpt><trkpt lat="43.53428077909534" lon="11.241554157609285"><ele>388.0</ele><time>2026-04-30T12:24:27Z</time></trkpt><trkpt lat="43.53440253595773" lon="11.241476579519746"><ele>388.5</ele><time>2026-04-30T12:24:28Z</time></trkpt><trkpt lat="43.53451502685065" lon="11.241395166445464"><ele>389.0</ele><time>2026-04-30T12:24:29Z</time></trkpt><trkpt lat="43.534622884278605" lon="11.241319044871046"><ele>389.5</ele><time>2026-04-30T12:24:30Z</time></trkpt><trkpt lat="43.534728422330545" lon="11.241246710958956"><ele>390.0</ele><time>2026-04-30T12:24:31Z</time></trkpt><trkpt lat="43.53483158164574" lon="11.241168866210883"><ele>390.0</ele><time>2026-04-30T12:24:32Z</time></trkpt><trkpt lat="43.53494338357189" lon="11.24107975631508"><ele>390.0</ele><time>2026-04-30T12:24:33Z</time></trkpt><trkpt lat="43.53505743045037" lon="11.240983354443957"><ele>390.0</ele><time>2026-04-30T12:24:34Z</time></trkpt><trkpt lat="43.535168050039154" lon="11.24088408794804"><ele>390.0</ele><time>2026-04-30T12:24:35Z</time></trkpt><trkpt lat="43.535269839559156" lon="11.240777977017261"><ele>390.0</ele><time>2026-04-30T12:24:36Z</time></trkpt><trkpt lat="43.53536719313382" lon="11.240669412467554"><ele>390.0</ele><time>2026-04-30T12:24:37Z</time></trkpt><trkpt lat="43.53545999132989" lon="11.240552042650409"><ele>390.0</ele><time>2026-04-30T12:24:38Z</time></trkpt><trkpt lat="43.53554554978214" lon="11.240432867758186"><ele>390.0</ele><time>2026-04-30T12:24:39Z</time></trkpt><trkpt lat="43.5356308272283" lon="11.24031207180769"><ele>391.5</ele><time>2026-04-30T12:24:40Z</time></trkpt><trkpt lat="43.535711114387546" lon="11.240190686239785"><ele>393.0</ele><time>2026-04-30T12:24:41Z</time></trkpt><trkpt lat="43.53578558992042" lon="11.240059620760983"><ele>394.5</ele><time>2026-04-30T12:24:42Z</time></trkpt><trkpt lat="43.53585213094865" lon="11.239935298638068"><ele>396.0</ele><time>2026-04-30T12:24:43Z</time></trkpt><trkpt lat="43.535923174197926" lon="11.239804174294902"><ele>396.4</ele><time>2026-04-30T12:24:44Z</time></trkpt><trkpt lat="43.5359971239542" lon="11.23967481827034"><ele>396.8</ele><time>2026-04-30T12:24:45Z</time></trkpt><trkpt lat="43.53605653904782" lon="11.239560495853423"><ele>397.2</ele><time>2026-04-30T12:24:46Z</time></trkpt><trkpt lat="43.53609740456923" lon="11.239461728865777"><ele>397.59999999999997</ele><time>2026-04-30T12:24:47Z</time></trkpt><trkpt lat="43.53614205802247" lon="11.239393526528895"><ele>398.0</ele><time>2026-04-30T12:24:48Z</time></trkpt><trkpt lat="43.53624387118419" lon="11.239353752300453"><ele>397.99999999999994</ele><time>2026-04-30T12:24:50Z</time></trkpt><trkpt lat="43.53632319497203" lon="11.239418421080536"><ele>398.0</ele><time>2026-04-30T12:24:52Z</time></trkpt><trkpt lat="43.53634594275694" lon="11.239511770867821"><ele>398.0</ele><time>2026-04-30T12:24:53Z</time></trkpt><trkpt lat="43.53638476642715" lon="11.2395971495088"><ele>398.0</ele><time>2026-04-30T12:24:54Z</time></trkpt><trkpt lat="43.5364254222382" lon="11.239693506074833"><ele>397.99999999999994</ele><time>2026-04-30T12:24:55Z</time></trkpt><trkpt lat="43.53647545937894" lon="11.239801236625008"><ele>398.0</ele><time>2026-04-30T12:24:56Z</time></trkpt><trkpt lat="43.53652409034141" lon="11.239909635137385"><ele>398.0</ele><time>2026-04-30T12:24:57Z</time></trkpt><trkpt lat="43.536570704567055" lon="11.240012252816712"><ele>398.0</ele><time>2026-04-30T12:24:58Z</time></trkpt><trkpt lat="43.536616329239976" lon="11.240143743040742"><ele>398.0</ele><time>2026-04-30T12:24:59Z</time></trkpt><trkpt lat="43.53665027594899" lon="11.240268434582402"><ele>398.0</ele><time>2026-04-30T12:25:00Z</time></trkpt><trkpt lat="43.53667208666755" lon="11.240405808532492"><ele>398.0</ele><time>2026-04-30T12:25:01Z</time></trkpt><trkpt lat="43.53668071740955" lon="11.240543064672956"><ele>398.2</ele><time>2026-04-30T12:25:02Z</time></trkpt><trkpt lat="43.53667585299276" lon="11.240673849953756"><ele>398.4</ele><time>2026-04-30T12:25:03Z</time></trkpt><trkpt lat="43.536666306745275" lon="11.240796475618794"><ele>398.59999999999997</ele><time>2026-04-30T12:25:04Z</time></trkpt><trkpt lat="43.53665683957669" lon="11.24089318857123"><ele>398.79999999999995</ele><time>2026-04-30T12:25:05Z</time></trkpt><trkpt lat="43.53664169896346" lon="11.24105209245495"><ele>399.0</ele><time>2026-04-30T12:25:07Z</time></trkpt><trkpt lat="43.53663033476983" lon="11.241188080738494"><ele>399.0</ele><time>2026-04-30T12:25:09Z</time></trkpt><trkpt lat="43.536600703939584" lon="11.24129252072212"><ele>399.0</ele><time>2026-04-30T12:25:46.999Z</time></trkpt><trkpt lat="43.536571065067626" lon="11.24138069631209"><ele>399.0</ele><time>2026-04-30T12:25:49.999Z</time></trkpt><trkpt lat="43.536522827573386" lon="11.241444799101496"><ele>399.0</ele><time>2026-04-30T12:25:52.999Z</time></trkpt><trkpt lat="43.53644852178705" lon="11.241551408619861"><ele>399.0</ele><time>2026-04-30T12:26:44Z</time></trkpt><trkpt lat="43.5364055135242" lon="11.24162895610378"><ele>399.0</ele><time>2026-04-30T12:26:45Z</time></trkpt><trkpt lat="43.53635292400306" lon="11.241713661566934"><ele>399.3333333333333</ele><time>2026-04-30T12:26:46Z</time></trkpt><trkpt lat="43.536296695953986" lon="11.24180537670402"><ele>399.66666666666663</ele><time>2026-04-30T12:26:47Z</time></trkpt><trkpt lat="43.536249122462564" lon="11.24187773766338"><ele>400.0</ele><time>2026-04-30T12:26:48Z</time></trkpt><trkpt lat="43.536176727062376" lon="11.241977388943976"><ele>400.3333333333333</ele><time>2026-04-30T12:26:50Z</time></trkpt><trkpt lat="43.53613474102376" lon="11.24204676209948"><ele>400.66666666666663</ele><time>2026-04-30T12:26:51Z</time></trkpt><trkpt lat="43.53608452913583" lon="11.242125063612091"><ele>401.0</ele><time>2026-04-30T12:26:52Z</time></trkpt><trkpt lat="43.53602976734413" lon="11.242210420178667"><ele>402.16666666666663</ele><time>2026-04-30T12:26:53Z</time></trkpt><trkpt lat="43.5359727942007" lon="11.24230960203832"><ele>403.3333333333333</ele><time>2026-04-30T12:26:54Z</time></trkpt><trkpt lat="43.535926803141635" lon="11.242401801185782"><ele>404.5</ele><time>2026-04-30T12:26:55Z</time></trkpt><trkpt lat="43.53586654789679" lon="11.24248045538301"><ele>405.66666666666663</ele><time>2026-04-30T12:26:56Z</time></trkpt><trkpt lat="43.535826584302136" lon="11.242556340778671"><ele>406.8333333333333</ele><time>2026-04-30T12:26:57Z</time></trkpt><trkpt lat="43.53579405198882" lon="11.242665220445856"><ele>408.0</ele><time>2026-04-30T12:26:58Z</time></trkpt><trkpt lat="43.535735286148295" lon="11.242773993940633"><ele>408.0</ele><time>2026-04-30T12:26:59Z</time></trkpt><trkpt lat="43.53568388327288" lon="11.242888074769334"><ele>408.0</ele><time>2026-04-30T12:27:00.001Z</time></trkpt><trkpt lat="43.53565355208438" lon="11.242986567905309"><ele>408.0</ele><time>2026-04-30T12:27:01.001Z</time></trkpt><trkpt lat="43.53562472615841" lon="11.24309672314955"><ele>408.0</ele><time>2026-04-30T12:27:02.001Z</time></trkpt><trkpt lat="43.5355856868283" lon="11.243214588132929"><ele>408.0</ele><time>2026-04-30T12:27:03.001Z</time></trkpt><trkpt lat="43.53553859128394" lon="11.24336661001525"><ele>408.0</ele><time>2026-04-30T12:27:04.001Z</time></trkpt><trkpt lat="43.53548508900749" lon="11.243537121406558"><ele>408.0</ele><time>2026-04-30T12:27:05.001Z</time></trkpt><trkpt lat="43.53542847565264" lon="11.243696123222685"><ele>408.0</ele><time>2026-04-30T12:27:06.001Z</time></trkpt><trkpt lat="43.535383808144815" lon="11.243828788576213"><ele>408.0</ele><time>2026-04-30T12:27:07.001Z</time></trkpt><trkpt lat="43.535337329412556" lon="11.24396478100215"><ele>408.0</ele><time>2026-04-30T12:27:08.001Z</time></trkpt><trkpt lat="43.53529677249368" lon="11.24408184348418"><ele>408.0</ele><time>2026-04-30T12:27:09.001Z</time></trkpt><trkpt lat="43.535272504166294" lon="11.24417424416205"><ele>408.0</ele><time>2026-04-30T12:27:10.001Z</time></trkpt><trkpt lat="43.535230293571864" lon="11.24431056069335"><ele>408.0</ele><time>2026-04-30T12:27:12.001Z</time></trkpt><trkpt lat="43.5351912297218" lon="11.244426269228125"><ele>408.0</ele><time>2026-04-30T12:27:14.001Z</time></trkpt><trkpt lat="43.535287399785155" lon="11.244544953446752"><ele>408.0</ele><time>2026-04-30T12:27:16.001Z</time></trkpt><trkpt lat="43.535351236028205" lon="11.24465100406968"><ele>408.0</ele><time>2026-04-30T12:27:18.001Z</time></trkpt><trkpt lat="43.53544873064569" lon="11.244757843620727"><ele>408.0</ele><time>2026-04-30T12:27:20.001Z</time></trkpt><trkpt lat="43.535486702112244" lon="11.24489494373782"><ele>408.0</ele><time>2026-04-30T12:27:22.001Z</time></trkpt><trkpt lat="43.53544928149612" lon="11.245012993939566"><ele>408.0</ele><time>2026-04-30T12:27:24.001Z</time></trkpt><trkpt lat="43.535405972214306" lon="11.245085990590516"><ele>409.0</ele><time>2026-04-30T12:27:25.001Z</time></trkpt><trkpt lat="43.53538410267039" lon="11.245228017492343"><ele>410.0</ele><time>2026-04-30T12:27:26.001Z</time></trkpt><trkpt lat="43.53533340514364" lon="11.245380439084702"><ele>411.0</ele><time>2026-04-30T12:27:27.001Z</time></trkpt><trkpt lat="43.53528551037698" lon="11.245526594618317"><ele>412.0</ele><time>2026-04-30T12:27:28.001Z</time></trkpt><trkpt lat="43.53523498096162" lon="11.245668819699683"><ele>412.25</ele><time>2026-04-30T12:27:29.001Z</time></trkpt><trkpt lat="43.53518576365116" lon="11.245809340249858"><ele>412.5</ele><time>2026-04-30T12:27:30.001Z</time></trkpt><trkpt lat="43.53513915261777" lon="11.245957182635086"><ele>412.75</ele><time>2026-04-30T12:27:31.001Z</time></trkpt><trkpt lat="43.53509513395147" lon="11.2461083222003"><ele>413.0</ele><time>2026-04-30T12:27:32.001Z</time></trkpt><trkpt lat="43.53504810539582" lon="11.246263886559285"><ele>413.0</ele><time>2026-04-30T12:27:33.001Z</time></trkpt><trkpt lat="43.53499070831017" lon="11.2464200570402"><ele>413.0</ele><time>2026-04-30T12:27:34.001Z</time></trkpt><trkpt lat="43.53494884647866" lon="11.246572304691394"><ele>413.0</ele><time>2026-04-30T12:27:35.001Z</time></trkpt><trkpt lat="43.534908144561115" lon="11.246717682334209"><ele>413.0</ele><time>2026-04-30T12:27:36.001Z</time></trkpt><trkpt lat="43.53487246431399" lon="11.246843754793586"><ele>412.79999999999995</ele><time>2026-04-30T12:27:37.001Z</time></trkpt><trkpt lat="43.53484745849953" lon="11.246951458029757"><ele>412.6</ele><time>2026-04-30T12:27:38.001Z</time></trkpt><trkpt lat="43.53483652940992" lon="11.247077910557902"><ele>412.4</ele><time>2026-04-30T12:27:39.001Z</time></trkpt><trkpt lat="43.534839462805756" lon="11.247214816785363"><ele>412.20000000000005</ele><time>2026-04-30T12:27:40.001Z</time></trkpt><trkpt lat="43.53487241859693" lon="11.24735907397851"><ele>412.0</ele><time>2026-04-30T12:27:41.001Z</time></trkpt><trkpt lat="43.53490331077638" lon="11.247466015120912"><ele>411.8</ele><time>2026-04-30T12:27:42.001Z</time></trkpt><trkpt lat="43.53488502868265" lon="11.247642064296784"><ele>411.6</ele><time>2026-04-30T12:27:44.001Z</time></trkpt><trkpt lat="43.534838103308594" lon="11.247740653889299"><ele>411.40000000000003</ele><time>2026-04-30T12:27:45.001Z</time></trkpt><trkpt lat="43.53477180325217" lon="11.247799099529118"><ele>411.20000000000005</ele><time>2026-04-30T12:27:46Z</time></trkpt><trkpt lat="43.53469133117762" lon="11.247857616200083"><ele>411.0</ele><time>2026-04-30T12:27:47Z</time></trkpt><trkpt lat="43.534616666357984" lon="11.247919920360696"><ele>411.4</ele><time>2026-04-30T12:27:48Z</time></trkpt><trkpt lat="43.53454067724081" lon="11.248004980127597"><ele>411.8</ele><time>2026-04-30T12:27:49Z</time></trkpt><trkpt lat="43.53448138337054" lon="11.24810916785048"><ele>412.2</ele><time>2026-04-30T12:27:50Z</time></trkpt><trkpt lat="43.534436451624074" lon="11.24823616409926"><ele>412.59999999999997</ele><time>2026-04-30T12:27:51Z</time></trkpt><trkpt lat="43.53439968251222" lon="11.248358028487178"><ele>413.0</ele><time>2026-04-30T12:27:52Z</time></trkpt><trkpt lat="43.534363910698936" lon="11.24848948580056"><ele>411.0</ele><time>2026-04-30T12:27:53Z</time></trkpt><trkpt lat="43.5343261905613" lon="11.248640410113198"><ele>409.0</ele><time>2026-04-30T12:27:54Z</time></trkpt><trkpt lat="43.534292521471414" lon="11.248801254467505"><ele>407.0</ele><time>2026-04-30T12:27:55Z</time></trkpt><trkpt lat="43.534263640669224" lon="11.24895347300049"><ele>405.0</ele><time>2026-04-30T12:27:56Z</time></trkpt><trkpt lat="43.53423060990391" lon="11.249127564194467"><ele>403.8</ele><time>2026-04-30T12:27:57Z</time></trkpt><trkpt lat="43.53421506805737" lon="11.249293115415057"><ele>402.6</ele><time>2026-04-30T12:27:58Z</time></trkpt><trkpt lat="43.53417426359702" lon="11.249431503790149"><ele>401.4</ele><time>2026-04-30T12:27:59Z</time></trkpt><trkpt lat="43.53415315166658" lon="11.249550164474828"><ele>400.2</ele><time>2026-04-30T12:28:00Z</time></trkpt><trkpt lat="43.534143690653224" lon="11.249661461019413"><ele>399.0</ele><time>2026-04-30T12:28:01Z</time></trkpt><trkpt lat="43.534126106924795" lon="11.249773356460642"><ele>398.0</ele><time>2026-04-30T12:28:02Z</time></trkpt><trkpt lat="43.53410991344273" lon="11.249891479835496"><ele>397.0</ele><time>2026-04-30T12:28:03Z</time></trkpt><trkpt lat="43.53409862870156" lon="11.249989414043872"><ele>396.0</ele><time>2026-04-30T12:28:04Z</time></trkpt><trkpt lat="43.53408951441053" lon="11.250126762233055"><ele>395.0</ele><time>2026-04-30T12:28:06Z</time></trkpt><trkpt lat="43.53409110589027" lon="11.250270909330574"><ele>394.0</ele><time>2026-04-30T12:28:08Z</time></trkpt><trkpt lat="43.534101396425406" lon="11.250385352525822"><ele>393.0</ele><time>2026-04-30T12:28:10Z</time></trkpt><trkpt lat="43.53409654137346" lon="11.250477629349795"><ele>393.0</ele><time>2026-04-30T12:28:12Z</time></trkpt><trkpt lat="43.533953485756676" lon="11.250431183877769"><ele>393.0</ele><time>2026-04-30T12:28:20Z</time></trkpt><trkpt lat="43.53388690314017" lon="11.250402710326329"><ele>393.0</ele><time>2026-04-30T12:28:23Z</time></trkpt><trkpt lat="43.53380170139554" lon="11.250384813058123"><ele>393.0</ele><time>2026-04-30T12:28:26Z</time></trkpt><trkpt lat="43.533721074043186" lon="11.250364414806288"><ele>393.0</ele><time>2026-04-30T12:28:28Z</time></trkpt><trkpt lat="43.53361843944914" lon="11.250390018434102"><ele>392.3333333333333</ele><time>2026-04-30T12:28:30Z</time></trkpt><trkpt lat="43.533555610468134" lon="11.250384166864853"><ele>391.66666666666663</ele><time>2026-04-30T12:28:31Z</time></trkpt><trkpt lat="43.533490887936885" lon="11.25038041728974"><ele>391.0</ele><time>2026-04-30T12:28:32Z</time></trkpt><trkpt lat="43.5333933709442" lon="11.250401476231973"><ele>390.3333333333333</ele><time>2026-04-30T12:28:34Z</time></trkpt><trkpt lat="43.5333039406057" lon="11.25044611142973"><ele>389.66666666666663</ele><time>2026-04-30T12:28:36.001Z</time></trkpt><trkpt lat="43.53319154510316" lon="11.2504858019047"><ele>389.0</ele><time>2026-04-30T12:28:38.001Z</time></trkpt><trkpt lat="43.533077779624385" lon="11.250445972903986"><ele>388.99999999999994</ele><time>2026-04-30T12:28:40.001Z</time></trkpt><trkpt lat="43.53299858418905" lon="11.250429844163788"><ele>389.0</ele><time>2026-04-30T12:28:42.001Z</time></trkpt><trkpt lat="43.53290484287443" lon="11.250407491252698"><ele>389.0</ele><time>2026-04-30T12:29:10.001Z</time></trkpt><trkpt lat="43.532841607624555" lon="11.250400551853307"><ele>389.0</ele><time>2026-04-30T12:29:12.001Z</time></trkpt><trkpt lat="43.532764458599864" lon="11.250393118240225"><ele>388.99999999999994</ele><time>2026-04-30T12:29:14.001Z</time></trkpt><trkpt lat="43.53268989848226" lon="11.250386049093398"><ele>389.0</ele><time>2026-04-30T12:29:16.001Z</time></trkpt><trkpt lat="43.5326001147558" lon="11.250377606762585"><ele>386.79999999999995</ele><time>2026-04-30T12:29:18.001Z</time></trkpt><trkpt lat="43.53251425983365" lon="11.25038748511441"><ele>384.59999999999997</ele><time>2026-04-30T12:29:20.001Z</time></trkpt><trkpt lat="43.53243613703459" lon="11.250374128950682"><ele>382.4</ele><time>2026-04-30T12:29:22.001Z</time></trkpt><trkpt lat="43.53233905151217" lon="11.250343454579136"><ele>380.2</ele><time>2026-04-30T12:29:24.001Z</time></trkpt><trkpt lat="43.532239643605564" lon="11.250385074486545"><ele>378.0</ele><time>2026-04-30T12:29:26.001Z</time></trkpt><trkpt lat="43.53208991283508" lon="11.250549974758673"><ele>375.4</ele><time>2026-04-30T12:29:27.001Z</time></trkpt><trkpt lat="43.53202903295004" lon="11.250520229710851"><ele>372.79999999999995</ele><time>2026-04-30T12:29:28.001Z</time></trkpt><trkpt lat="43.5319582813163" lon="11.250485661382983"><ele>370.2</ele><time>2026-04-30T12:29:29.001Z</time></trkpt><trkpt lat="43.531893994855686" lon="11.250454251856985"><ele>367.6</ele><time>2026-04-30T12:29:30.001Z</time></trkpt><trkpt lat="43.53182950119032" lon="11.25042274109231"><ele>365.0</ele><time>2026-04-30T12:29:31.001Z</time></trkpt><trkpt lat="43.53185997556407" lon="11.250047460668625"><ele>365.0</ele><time>2026-04-30T12:29:32.001Z</time></trkpt><trkpt lat="43.531761329015005" lon="11.249972048281139"><ele>365.0</ele><time>2026-04-30T12:29:34.001Z</time></trkpt><trkpt lat="43.53167201249805" lon="11.249896607933255"><ele>365.0</ele><time>2026-04-30T12:29:36.001Z</time></trkpt><trkpt lat="43.5315663761378" lon="11.249816307392223"><ele>365.0</ele><time>2026-04-30T12:29:38.001Z</time></trkpt><trkpt lat="43.53147850987066" lon="11.249738133489501"><ele>365.0</ele><time>2026-04-30T12:29:40.001Z</time></trkpt><trkpt lat="43.531388093248644" lon="11.249662276308227"><ele>366.33333333333337</ele><time>2026-04-30T12:29:42.001Z</time></trkpt><trkpt lat="43.531327460634294" lon="11.249592042661956"><ele>367.6666666666667</ele><time>2026-04-30T12:29:44.001Z</time></trkpt><trkpt lat="43.53127108877334" lon="11.249546929782372"><ele>369.0</ele><time>2026-04-30T12:30:42.001Z</time></trkpt><trkpt lat="43.53121734500724" lon="11.249461248989633"><ele>370.3333333333333</ele><time>2026-04-30T12:30:45.001Z</time></trkpt><trkpt lat="43.531211216265376" lon="11.249362745057008"><ele>371.66666666666663</ele><time>2026-04-30T12:30:48.001Z</time></trkpt><trkpt lat="43.53124762718675" lon="11.24926216417392"><ele>373.0</ele><time>2026-04-30T12:30:50.001Z</time></trkpt><trkpt lat="43.53128916187206" lon="11.249166039628635"><ele>373.0</ele><time>2026-04-30T12:30:52.001Z</time></trkpt><trkpt lat="43.53132133916146" lon="11.249055235818656"><ele>373.0</ele><time>2026-04-30T12:30:54.001Z</time></trkpt><trkpt lat="43.53135025064283" lon="11.248930662871892"><ele>373.0</ele><time>2026-04-30T12:30:56.001Z</time></trkpt><trkpt lat="43.53137052379852" lon="11.248812131672443"><ele>373.0</ele><time>2026-04-30T12:30:58.001Z</time></trkpt><trkpt lat="43.53141307985121" lon="11.248660095605155"><ele>373.0</ele><time>2026-04-30T12:31:00.001Z</time></trkpt><trkpt lat="43.53146235931512" lon="11.248544218802234"><ele>375.2</ele><time>2026-04-30T12:31:02.001Z</time></trkpt><trkpt lat="43.53147985089397" lon="11.248426611143213"><ele>377.4</ele><time>2026-04-30T12:31:04.001Z</time></trkpt><trkpt lat="43.53150879056986" lon="11.248314185496902"><ele>379.59999999999997</ele><time>2026-04-30T12:31:06.001Z</time></trkpt><trkpt lat="43.5315461105751" lon="11.248210845132716"><ele>381.79999999999995</ele><time>2026-04-30T12:31:08.001Z</time></trkpt><trkpt lat="43.53158431468774" lon="11.248090847864615"><ele>384.0</ele><time>2026-04-30T12:31:10.001Z</time></trkpt><trkpt lat="43.531625210094866" lon="11.247938741154911"><ele>385.6666666666667</ele><time>2026-04-30T12:31:12.001Z</time></trkpt><trkpt lat="43.5316268433374" lon="11.247830837591922"><ele>387.33333333333337</ele><time>2026-04-30T12:31:14.001Z</time></trkpt><trkpt lat="43.5316000071005" lon="11.247723498061658"><ele>389.0</ele><time>2026-04-30T12:31:17.001Z</time></trkpt><trkpt lat="43.531569379391264" lon="11.247617793284778"><ele>390.6666666666667</ele><time>2026-04-30T12:31:19.001Z</time></trkpt><trkpt lat="43.53154220921964" lon="11.247500271228581"><ele>392.33333333333337</ele><time>2026-04-30T12:31:22.001Z</time></trkpt><trkpt lat="43.531532462550594" lon="11.247394872187867"><ele>394.0</ele><time>2026-04-30T12:31:24.001Z</time></trkpt><trkpt lat="43.531555376204174" lon="11.247298117932454"><ele>396.0</ele><time>2026-04-30T12:31:26.001Z</time></trkpt><trkpt lat="43.5316214214082" lon="11.247221781915064"><ele>398.0</ele><time>2026-04-30T12:31:28.001Z</time></trkpt><trkpt lat="43.53170978425733" lon="11.247203908847899"><ele>400.0</ele><time>2026-04-30T12:31:30.001Z</time></trkpt><trkpt lat="43.531811406026065" lon="11.247211815858751"><ele>402.0</ele><time>2026-04-30T12:31:32.001Z</time></trkpt><trkpt lat="43.53191920411455" lon="11.247182008340298"><ele>404.0</ele><time>2026-04-30T12:31:34.001Z</time></trkpt><trkpt lat="43.53201486368006" lon="11.247139415840737"><ele>406.66666666666663</ele><time>2026-04-30T12:31:36.001Z</time></trkpt><trkpt lat="43.532091515044634" lon="11.247084610317193"><ele>409.3333333333333</ele><time>2026-04-30T12:31:38.001Z</time></trkpt><trkpt lat="43.532146410156344" lon="11.2469895597089"><ele>412.0</ele><time>2026-04-30T12:31:40.001Z</time></trkpt><trkpt lat="43.53221909593919" lon="11.246998588234604"><ele>414.66666666666663</ele><time>2026-04-30T12:31:43.001Z</time></trkpt><trkpt lat="43.53227883240852" lon="11.247067047004377"><ele>417.3333333333333</ele><time>2026-04-30T12:32:21Z</time></trkpt><trkpt lat="43.53223736688698" lon="11.24698726522458"><ele>420.0</ele><time>2026-04-30T12:32:43.001Z</time></trkpt><trkpt lat="43.53217182102831" lon="11.246988943623876"><ele>420.0</ele><time>2026-04-30T12:32:45.001Z</time></trkpt><trkpt lat="43.53210241342995" lon="11.247039285580925"><ele>420.0</ele><time>2026-04-30T12:32:48.001Z</time></trkpt><trkpt lat="43.53205131507004" lon="11.247113246655925"><ele>420.0</ele><time>2026-04-30T12:32:50.001Z</time></trkpt><trkpt lat="43.53200197648631" lon="11.247168177680244"><ele>420.0</ele><time>2026-04-30T12:32:52.001Z</time></trkpt><trkpt lat="43.53194363418871" lon="11.247209553499797"><ele>420.0</ele><time>2026-04-30T12:32:54.001Z</time></trkpt><trkpt lat="43.53187960652468" lon="11.24722596480661"><ele>420.0</ele><time>2026-04-30T12:32:56.001Z</time></trkpt><trkpt lat="43.531809937235316" lon="11.247202486180951"><ele>420.0</ele><time>2026-04-30T12:32:58.001Z</time></trkpt><trkpt lat="43.531717937111246" lon="11.247206309504442"><ele>417.3333333333333</ele><time>2026-04-30T12:33:01.001Z</time></trkpt><trkpt lat="43.531649287264806" lon="11.247219838404321"><ele>414.66666666666663</ele><time>2026-04-30T12:33:03.001Z</time></trkpt><trkpt lat="43.531569733471486" lon="11.247310402871733"><ele>412.0</ele><time>2026-04-30T12:33:06.001Z</time></trkpt><trkpt lat="43.53154712488918" lon="11.247443560237347"><ele>409.3333333333333</ele><time>2026-04-30T12:33:09.001Z</time></trkpt><trkpt lat="43.531557411326034" lon="11.247560940953873"><ele>406.66666666666663</ele><time>2026-04-30T12:33:11.001Z</time></trkpt><trkpt lat="43.53157554840027" lon="11.247666255312105"><ele>404.0</ele><time>2026-04-30T12:33:13.001Z</time></trkpt><trkpt lat="43.53161097421635" lon="11.247749313021794"><ele>402.3333333333333</ele><time>2026-04-30T12:33:15.001Z</time></trkpt><trkpt lat="43.53164069083256" lon="11.24784069930287"><ele>400.66666666666663</ele><time>2026-04-30T12:33:17.001Z</time></trkpt><trkpt lat="43.531636457943186" lon="11.24794134695775"><ele>399.0</ele><time>2026-04-30T12:33:20.001Z</time></trkpt><trkpt lat="43.53161350713066" lon="11.248038264688894"><ele>397.33333333333337</ele><time>2026-04-30T12:33:22.001Z</time></trkpt><trkpt lat="43.53158628345795" lon="11.248118325964164"><ele>395.6666666666667</ele><time>2026-04-30T12:33:24.001Z</time></trkpt><trkpt lat="43.53155227427098" lon="11.248242340441188"><ele>394.0</ele><time>2026-04-30T12:33:27.001Z</time></trkpt><trkpt lat="43.53151138496087" lon="11.248371874777666"><ele>392.33333333333337</ele><time>2026-04-30T12:33:30.001Z</time></trkpt><trkpt lat="43.53147659111167" lon="11.248476538922532"><ele>390.6666666666667</ele><time>2026-04-30T12:33:32.001Z</time></trkpt><trkpt lat="43.53143764353707" lon="11.248587770904024"><ele>389.0</ele><time>2026-04-30T12:33:34.001Z</time></trkpt><trkpt lat="43.531419592307685" lon="11.248685120132665"><ele>387.33333333333337</ele><time>2026-04-30T12:33:36.001Z</time></trkpt><trkpt lat="43.53140056449421" lon="11.24878032675292"><ele>385.6666666666667</ele><time>2026-04-30T12:33:38.001Z</time></trkpt><trkpt lat="43.53137477428283" lon="11.248888067963897"><ele>384.0</ele><time>2026-04-30T12:33:40.001Z</time></trkpt><trkpt lat="43.53135090668317" lon="11.248977976193851"><ele>382.1666666666667</ele><time>2026-04-30T12:33:42.001Z</time></trkpt><trkpt lat="43.531329997861576" lon="11.249078914022999"><ele>380.3333333333333</ele><time>2026-04-30T12:33:44.001Z</time></trkpt><trkpt lat="43.53129879403184" lon="11.249186741030016"><ele>378.5</ele><time>2026-04-30T12:33:46.001Z</time></trkpt><trkpt lat="43.53126336753225" lon="11.249301637830232"><ele>376.66666666666663</ele><time>2026-04-30T12:33:48.001Z</time></trkpt><trkpt lat="43.53123011891128" lon="11.24938432501088"><ele>374.8333333333333</ele><time>2026-04-30T12:33:50.001Z</time></trkpt><trkpt lat="43.53121417080208" lon="11.249489259774464"><ele>373.0</ele><time>2026-04-30T12:33:53.001Z</time></trkpt><trkpt lat="43.53125884871849" lon="11.249558526499545"><ele>373.0</ele><time>2026-04-30T12:33:59.002Z</time></trkpt><trkpt lat="43.53132722935391" lon="11.24963592240154"><ele>373.0</ele><time>2026-04-30T12:34:01.002Z</time></trkpt><trkpt lat="43.531423283861415" lon="11.24970673103148"><ele>373.0</ele><time>2026-04-30T12:34:03.002Z</time></trkpt><trkpt lat="43.531485787211224" lon="11.24975448428673"><ele>373.0</ele><time>2026-04-30T12:34:04Z</time></trkpt><trkpt lat="43.531587784726995" lon="11.24983556128863"><ele>373.0</ele><time>2026-04-30T12:34:06Z</time></trkpt><trkpt lat="43.53164534332917" lon="11.249885846400439"><ele>373.7142857142857</ele><time>2026-04-30T12:34:07Z</time></trkpt><trkpt lat="43.531701072500766" lon="11.249936135191549"><ele>374.42857142857144</ele><time>2026-04-30T12:34:08Z</time></trkpt><trkpt lat="43.531763131739666" lon="11.249986773889432"><ele>375.1428571428571</ele><time>2026-04-30T12:34:09Z</time></trkpt><trkpt lat="43.53183318241348" lon="11.250036404091386"><ele>375.8571428571429</ele><time>2026-04-30T12:34:10Z</time></trkpt><trkpt lat="43.53189281489097" lon="11.250083301402487"><ele>376.57142857142856</ele><time>2026-04-30T12:34:11Z</time></trkpt><trkpt lat="43.53195310322602" lon="11.25012455505846"><ele>377.2857142857143</ele><time>2026-04-30T12:34:12Z</time></trkpt><trkpt lat="43.5320179260104" lon="11.250165247913218"><ele>378.0</ele><time>2026-04-30T12:34:13Z</time></trkpt><trkpt lat="43.53207435033864" lon="11.250213745480947"><ele>378.0</ele><time>2026-04-30T12:34:14Z</time></trkpt><trkpt lat="43.53213146550986" lon="11.25025276254832"><ele>378.0</ele><time>2026-04-30T12:34:15Z</time></trkpt><trkpt lat="43.532252113817705" lon="11.25030302528689"><ele>378.0</ele><time>2026-04-30T12:34:17Z</time></trkpt><trkpt lat="43.53231430307081" lon="11.250346057295898"><ele>378.0</ele><time>2026-04-30T12:34:18Z</time></trkpt><trkpt lat="43.53238841744503" lon="11.250371436784917"><ele>378.0</ele><time>2026-04-30T12:34:19Z</time></trkpt><trkpt lat="43.532451706184425" lon="11.250383504432309"><ele>378.0</ele><time>2026-04-30T12:34:20Z</time></trkpt><trkpt lat="43.532522580049076" lon="11.2503875835309"><ele>378.0</ele><time>2026-04-30T12:34:21Z</time></trkpt><trkpt lat="43.532597321340454" lon="11.250394234136504"><ele>378.0</ele><time>2026-04-30T12:34:22Z</time></trkpt><trkpt lat="43.53266308872344" lon="11.250429387535906"><ele>378.0</ele><time>2026-04-30T12:34:23Z</time></trkpt><trkpt lat="43.53274164893989" lon="11.250436835926994"><ele>378.0</ele><time>2026-04-30T12:34:24Z</time></trkpt><trkpt lat="43.53282240285535" lon="11.250422591859206"><ele>378.0</ele><time>2026-04-30T12:34:25Z</time></trkpt><trkpt lat="43.53295086303343" lon="11.250443745821169"><ele>378.0</ele><time>2026-04-30T12:34:27Z</time></trkpt><trkpt lat="43.53301014110639" lon="11.250476277837775"><ele>380.2</ele><time>2026-04-30T12:34:28Z</time></trkpt><trkpt lat="43.53312311912135" lon="11.250481468522167"><ele>382.4</ele><time>2026-04-30T12:34:30Z</time></trkpt><trkpt lat="43.53321739046752" lon="11.2505081585877"><ele>384.59999999999997</ele><time>2026-04-30T12:34:32Z</time></trkpt><trkpt lat="43.533316708670924" lon="11.250451492647054"><ele>386.79999999999995</ele><time>2026-04-30T12:34:34Z</time></trkpt><trkpt lat="43.53340399360078" lon="11.250390555082857"><ele>389.0</ele><time>2026-04-30T12:34:36Z</time></trkpt><trkpt lat="43.53346621628535" lon="11.250406187232075"><ele>388.99999999999994</ele><time>2026-04-30T12:34:37Z</time></trkpt><trkpt lat="43.533529731611075" lon="11.250417878079935"><ele>389.0</ele><time>2026-04-30T12:34:38Z</time></trkpt><trkpt lat="43.53361111707513" lon="11.250418703129315"><ele>389.0</ele><time>2026-04-30T12:34:39Z</time></trkpt><trkpt lat="43.533728318287274" lon="11.250400773844502"><ele>389.0</ele><time>2026-04-30T12:34:41Z</time></trkpt><trkpt lat="43.53379517539017" lon="11.250394538127502"><ele>388.99999999999994</ele><time>2026-04-30T12:34:42Z</time></trkpt><trkpt lat="43.53385534214132" lon="11.250427013193319"><ele>389.0</ele><time>2026-04-30T12:34:43Z</time></trkpt><trkpt lat="43.53393752891172" lon="11.250480288635387"><ele>389.79999999999995</ele><time>2026-04-30T12:34:45Z</time></trkpt><trkpt lat="43.53399329307004" lon="11.250527536260423"><ele>390.59999999999997</ele><time>2026-04-30T12:34:47Z</time></trkpt><trkpt lat="43.534104492793276" lon="11.250378327854872"><ele>391.4</ele><time>2026-04-30T12:34:52Z</time></trkpt><trkpt lat="43.534118693265704" lon="11.250276211186062"><ele>392.2</ele><time>2026-04-30T12:34:53Z</time></trkpt><trkpt lat="43.53411789007475" lon="11.250150556958829"><ele>393.0</ele><time>2026-04-30T12:34:54Z</time></trkpt><trkpt lat="43.53412257866641" lon="11.250042171358801"><ele>393.0</ele><time>2026-04-30T12:34:55Z</time></trkpt><trkpt lat="43.53413276930712" lon="11.249890092125112"><ele>393.0</ele><time>2026-04-30T12:34:57Z</time></trkpt><trkpt lat="43.53414626278287" lon="11.249775932567845"><ele>393.0</ele><time>2026-04-30T12:34:59.001Z</time></trkpt><trkpt lat="43.534162671949474" lon="11.249654932763963"><ele>393.0</ele><time>2026-04-30T12:35:01.001Z</time></trkpt><trkpt lat="43.5341970215968" lon="11.24948494914482"><ele>393.0</ele><time>2026-04-30T12:35:03.001Z</time></trkpt><trkpt lat="43.53421641689715" lon="11.249295470370186"><ele>394.2</ele><time>2026-04-30T12:35:05.001Z</time></trkpt><trkpt lat="43.53424448258574" lon="11.249172332773993"><ele>395.4</ele><time>2026-04-30T12:35:06.001Z</time></trkpt><trkpt lat="43.53427400206438" lon="11.249067708864528"><ele>396.59999999999997</ele><time>2026-04-30T12:35:07.001Z</time></trkpt><trkpt lat="43.534298501065834" lon="11.248948075945318"><ele>397.79999999999995</ele><time>2026-04-30T12:35:08.001Z</time></trkpt><trkpt lat="43.53431833927225" lon="11.248824708462621"><ele>399.0</ele><time>2026-04-30T12:35:09.001Z</time></trkpt><trkpt lat="43.53434907233941" lon="11.24867919454948"><ele>400.2</ele><time>2026-04-30T12:35:10.001Z</time></trkpt><trkpt lat="43.534380952009684" lon="11.248514103369857"><ele>401.4</ele><time>2026-04-30T12:35:11.001Z</time></trkpt><trkpt lat="43.53442484934626" lon="11.24839821547175"><ele>402.6</ele><time>2026-04-30T12:35:12.001Z</time></trkpt><trkpt lat="43.53444657122972" lon="11.248277756501034"><ele>403.8</ele><time>2026-04-30T12:35:13.001Z</time></trkpt><trkpt lat="43.53449237410181" lon="11.248176865884883"><ele>405.0</ele><time>2026-04-30T12:35:14.001Z</time></trkpt><trkpt lat="43.53453673989501" lon="11.248081744136213"><ele>406.0</ele><time>2026-04-30T12:35:15.001Z</time></trkpt><trkpt lat="43.53458537149871" lon="11.247994910132634"><ele>407.0</ele><time>2026-04-30T12:35:16.001Z</time></trkpt><trkpt lat="43.53466804650044" lon="11.247934015200457"><ele>408.0</ele><time>2026-04-30T12:35:17.001Z</time></trkpt><trkpt lat="43.53475400310497" lon="11.24785697067633"><ele>409.0</ele><time>2026-04-30T12:35:18.001Z</time></trkpt><trkpt lat="43.53482415912999" lon="11.247789576438297"><ele>410.0</ele><time>2026-04-30T12:35:19.001Z</time></trkpt><trkpt lat="43.53488855941388" lon="11.247739606296387"><ele>411.0</ele><time>2026-04-30T12:35:20.001Z</time></trkpt><trkpt lat="43.53492997771492" lon="11.24759403071974"><ele>411.0</ele><time>2026-04-30T12:35:22.001Z</time></trkpt><trkpt lat="43.53492473038274" lon="11.247492939766559"><ele>411.0</ele><time>2026-04-30T12:35:23.001Z</time></trkpt><trkpt lat="43.53489852635732" lon="11.247388928770665"><ele>411.0</ele><time>2026-04-30T12:35:24.001Z</time></trkpt><trkpt lat="43.534880633576876" lon="11.247257124642157"><ele>411.0</ele><time>2026-04-30T12:35:25.001Z</time></trkpt><trkpt lat="43.534846985924716" lon="11.247134124668381"><ele>411.0</ele><time>2026-04-30T12:35:26.001Z</time></trkpt><trkpt lat="43.53484860088608" lon="11.247015580047579"><ele>411.0</ele><time>2026-04-30T12:35:27.001Z</time></trkpt><trkpt lat="43.534895486914095" lon="11.246894404200624"><ele>411.25</ele><time>2026-04-30T12:35:28.001Z</time></trkpt><trkpt lat="43.53493656064179" lon="11.246727493165244"><ele>411.5</ele><time>2026-04-30T12:35:29.001Z</time></trkpt><trkpt lat="43.534965087969944" lon="11.246570534888598"><ele>411.75</ele><time>2026-04-30T12:35:30.001Z</time></trkpt><trkpt lat="43.53500456155069" lon="11.246429483779645"><ele>412.0</ele><time>2026-04-30T12:35:31.001Z</time></trkpt><trkpt lat="43.535048848025454" lon="11.246300077997057"><ele>412.20000000000005</ele><time>2026-04-30T12:35:32.001Z</time></trkpt><trkpt lat="43.535097445788715" lon="11.246159874116914"><ele>412.4</ele><time>2026-04-30T12:35:33.001Z</time></trkpt><trkpt lat="43.53514385708829" lon="11.246018546280514"><ele>412.6</ele><time>2026-04-30T12:35:34.001Z</time></trkpt><trkpt lat="43.535187480204485" lon="11.245874589362694"><ele>412.79999999999995</ele><time>2026-04-30T12:35:35.001Z</time></trkpt><trkpt lat="43.53522966216369" lon="11.245744491349015"><ele>413.0</ele><time>2026-04-30T12:35:36.001Z</time></trkpt><trkpt lat="43.535267854953005" lon="11.245646484801972"><ele>412.8333333333333</ele><time>2026-04-30T12:35:37.001Z</time></trkpt><trkpt lat="43.53530004381969" lon="11.24554027843872"><ele>412.66666666666663</ele><time>2026-04-30T12:35:38.001Z</time></trkpt><trkpt lat="43.53533123967677" lon="11.245432896388747"><ele>412.5</ele><time>2026-04-30T12:35:39.001Z</time></trkpt><trkpt lat="43.535384495772746" lon="11.245335381250914"><ele>412.33333333333337</ele><time>2026-04-30T12:35:40.001Z</time></trkpt><trkpt lat="43.53541899912815" lon="11.245238532243132"><ele>412.1666666666667</ele><time>2026-04-30T12:35:41.001Z</time></trkpt><trkpt lat="43.53544332220258" lon="11.2451121701476"><ele>412.0</ele><time>2026-04-30T12:35:42.001Z</time></trkpt><trkpt lat="43.53546992196356" lon="11.245020469129733"><ele>412.1666666666667</ele><time>2026-04-30T12:35:43.001Z</time></trkpt><trkpt lat="43.535488025767094" lon="11.244931238650647"><ele>412.33333333333337</ele><time>2026-04-30T12:35:44.001Z</time></trkpt><trkpt lat="43.535487977011016" lon="11.24477413395047"><ele>412.5</ele><time>2026-04-30T12:35:46.001Z</time></trkpt><trkpt lat="43.53544605547358" lon="11.244707448334974"><ele>412.66666666666663</ele><time>2026-04-30T12:35:47.001Z</time></trkpt><trkpt lat="43.53538108809167" lon="11.244649839343865"><ele>412.8333333333333</ele><time>2026-04-30T12:35:48.001Z</time></trkpt><trkpt lat="43.53533340935622" lon="11.244562519139606"><ele>413.0</ele><time>2026-04-30T12:35:49.001Z</time></trkpt><trkpt lat="43.53525507400507" lon="11.244423678089241"><ele>412.4</ele><time>2026-04-30T12:35:51.001Z</time></trkpt><trkpt lat="43.53520945898166" lon="11.244315778703832"><ele>411.79999999999995</ele><time>2026-04-30T12:35:53.001Z</time></trkpt><trkpt lat="43.53527061968764" lon="11.244181018886989"><ele>411.2</ele><time>2026-04-30T12:35:54.001Z</time></trkpt><trkpt lat="43.535321599950095" lon="11.244037023066586"><ele>410.6</ele><time>2026-04-30T12:35:55.001Z</time></trkpt><trkpt lat="43.535379099088885" lon="11.243918674508626"><ele>410.0</ele><time>2026-04-30T12:35:56.001Z</time></trkpt><trkpt lat="43.535418290713324" lon="11.243783141163943"><ele>410.0</ele><time>2026-04-30T12:35:57.001Z</time></trkpt><trkpt lat="43.535466828050126" lon="11.243640334428633"><ele>410.0</ele><time>2026-04-30T12:35:58.001Z</time></trkpt><trkpt lat="43.53551618418936" lon="11.243502160704185"><ele>410.0</ele><time>2026-04-30T12:35:59.001Z</time></trkpt><trkpt lat="43.535563478035215" lon="11.243362894979684"><ele>410.0</ele><time>2026-04-30T12:36:00.001Z</time></trkpt><trkpt lat="43.53560879132566" lon="11.24322083899625"><ele>409.6</ele><time>2026-04-30T12:36:01.001Z</time></trkpt><trkpt lat="43.53565595512816" lon="11.243084242215343"><ele>409.2</ele><time>2026-04-30T12:36:02.001Z</time></trkpt><trkpt lat="43.53569697864202" lon="11.242945659547784"><ele>408.79999999999995</ele><time>2026-04-30T12:36:03.001Z</time></trkpt><trkpt lat="43.53573612928317" lon="11.242820909822687"><ele>408.4</ele><time>2026-04-30T12:36:04.001Z</time></trkpt><trkpt lat="43.53579034531383" lon="11.24269465882931"><ele>408.0</ele><time>2026-04-30T12:36:05.001Z</time></trkpt><trkpt lat="43.53585554861672" lon="11.242581872907277"><ele>408.0</ele><time>2026-04-30T12:36:06.001Z</time></trkpt><trkpt lat="43.53592024608076" lon="11.242479281516323"><ele>408.0</ele><time>2026-04-30T12:36:07.001Z</time></trkpt><trkpt lat="43.53596458121933" lon="11.242383532683062"><ele>408.0</ele><time>2026-04-30T12:36:08.001Z</time></trkpt><trkpt lat="43.53601019271655" lon="11.242279704813035"><ele>408.0</ele><time>2026-04-30T12:36:09.001Z</time></trkpt><trkpt lat="43.53607464182899" lon="11.242178279677177"><ele>408.0</ele><time>2026-04-30T12:36:10Z</time></trkpt><trkpt lat="43.53615595477499" lon="11.24206289653625"><ele>406.59999999999997</ele><time>2026-04-30T12:36:11Z</time></trkpt><trkpt lat="43.5362300224132" lon="11.241929097516367"><ele>405.2</ele><time>2026-04-30T12:36:12Z</time></trkpt><trkpt lat="43.53631666323261" lon="11.241804722030636"><ele>403.8</ele><time>2026-04-30T12:36:13Z</time></trkpt><trkpt lat="43.53639169763801" lon="11.241701997217113"><ele>402.4</ele><time>2026-04-30T12:36:14Z</time></trkpt><trkpt lat="43.53644796666574" lon="11.241615045263488"><ele>401.0</ele><time>2026-04-30T12:36:15Z</time></trkpt><trkpt lat="43.536503818844935" lon="11.241538885069794"><ele>400.66666666666663</ele><time>2026-04-30T12:36:16Z</time></trkpt><trkpt lat="43.53655729654804" lon="11.241454933392655"><ele>400.3333333333333</ele><time>2026-04-30T12:36:17Z</time></trkpt><trkpt lat="43.53660509881504" lon="11.241361673999616"><ele>400.0</ele><time>2026-04-30T12:36:18Z</time></trkpt><trkpt lat="43.536637187832" lon="11.24127153410398"><ele>399.66666666666663</ele><time>2026-04-30T12:36:19Z</time></trkpt><trkpt lat="43.536649219572" lon="11.24118510294278"><ele>399.3333333333333</ele><time>2026-04-30T12:36:20Z</time></trkpt><trkpt lat="43.536661944072456" lon="11.241065662511748"><ele>399.0</ele><time>2026-04-30T12:36:21Z</time></trkpt><trkpt lat="43.53667675583245" lon="11.240910766676983"><ele>399.0</ele><time>2026-04-30T12:36:22Z</time></trkpt><trkpt lat="43.53668279306077" lon="11.240762381918524"><ele>399.0</ele><time>2026-04-30T12:36:23Z</time></trkpt><trkpt lat="43.53668945261254" lon="11.240627178242253"><ele>399.0</ele><time>2026-04-30T12:36:24Z</time></trkpt><trkpt lat="43.536695949585386" lon="11.24048768316471"><ele>399.0</ele><time>2026-04-30T12:36:25Z</time></trkpt><trkpt lat="43.53667941480693" lon="11.24035466620097"><ele>399.0</ele><time>2026-04-30T12:36:26Z</time></trkpt><trkpt lat="43.53665614241259" lon="11.240233148513164"><ele>398.8333333333333</ele><time>2026-04-30T12:36:27Z</time></trkpt><trkpt lat="43.53662538322531" lon="11.240134376044004"><ele>398.66666666666663</ele><time>2026-04-30T12:36:28Z</time></trkpt><trkpt lat="43.53659033948732" lon="11.240027261960668"><ele>398.5</ele><time>2026-04-30T12:36:29Z</time></trkpt><trkpt lat="43.53654781574852" lon="11.239918217170986"><ele>398.3333333333333</ele><time>2026-04-30T12:36:30Z</time></trkpt><trkpt lat="43.536503669772934" lon="11.239815201522322"><ele>398.16666666666663</ele><time>2026-04-30T12:36:31Z</time></trkpt><trkpt lat="43.53645723347353" lon="11.239700387753821"><ele>398.0</ele><time>2026-04-30T12:36:32Z</time></trkpt><trkpt lat="43.53641717306844" lon="11.239609238879353"><ele>398.0</ele><time>2026-04-30T12:36:33Z</time></trkpt><trkpt lat="43.53637667255422" lon="11.2395289262586"><ele>398.0</ele><time>2026-04-30T12:36:34Z</time></trkpt><trkpt lat="43.53635104859669" lon="11.239444833342723"><ele>398.0</ele><time>2026-04-30T12:36:35Z</time></trkpt><trkpt lat="43.536287620314525" lon="11.239317147117452"><ele>398.0</ele><time>2026-04-30T12:36:37Z</time></trkpt><trkpt lat="43.536248272329715" lon="11.239237695514197"><ele>398.0</ele><time>2026-04-30T12:36:40Z</time></trkpt><trkpt lat="43.536100317947756" lon="11.239393720662017"><ele>397.59999999999997</ele><time>2026-04-30T12:36:52Z</time></trkpt><trkpt lat="43.53605423361029" lon="11.23950436792813"><ele>397.2</ele><time>2026-04-30T12:36:53Z</time></trkpt><trkpt lat="43.53599733575338" lon="11.239629926257898"><ele>396.8</ele><time>2026-04-30T12:36:54Z</time></trkpt><trkpt lat="43.53593149291927" lon="11.239764955984349"><ele>396.4</ele><time>2026-04-30T12:36:55Z</time></trkpt><trkpt lat="43.53586314703944" lon="11.239894709316912"><ele>396.0</ele><time>2026-04-30T12:36:56Z</time></trkpt><trkpt lat="43.53580240206697" lon="11.23999745717542"><ele>396.0</ele><time>2026-04-30T12:36:57Z</time></trkpt><trkpt lat="43.535728623725184" lon="11.240129971597273"><ele>396.0</ele><time>2026-04-30T12:36:58Z</time></trkpt><trkpt lat="43.535636160910364" lon="11.240277489028648"><ele>396.0</ele><time>2026-04-30T12:36:59Z</time></trkpt><trkpt lat="43.53554594319584" lon="11.240415415267668"><ele>396.0</ele><time>2026-04-30T12:37:00Z</time></trkpt><trkpt lat="43.53542622661732" lon="11.24057424971852"><ele>394.5</ele><time>2026-04-30T12:37:01Z</time></trkpt><trkpt lat="43.535312754018584" lon="11.240705442521946"><ele>393.0</ele><time>2026-04-30T12:37:02Z</time></trkpt><trkpt lat="43.535192640041245" lon="11.240802495549579"><ele>391.5</ele><time>2026-04-30T12:37:03Z</time></trkpt><trkpt lat="43.53509715192647" lon="11.240920306956875"><ele>390.0</ele><time>2026-04-30T12:37:04Z</time></trkpt><trkpt lat="43.534994170314995" lon="11.24100980801496"><ele>390.0</ele><time>2026-04-30T12:37:05Z</time></trkpt><trkpt lat="43.53489698955829" lon="11.24110073506674"><ele>390.0</ele><time>2026-04-30T12:37:06Z</time></trkpt><trkpt lat="43.53480302641403" lon="11.241184890910583"><ele>390.0</ele><time>2026-04-30T12:37:07Z</time></trkpt><trkpt lat="43.534706250008156" lon="11.241252707982557"><ele>390.0</ele><time>2026-04-30T12:37:08Z</time></trkpt><trkpt lat="43.534608429183095" lon="11.241312133536729"><ele>390.0</ele><time>2026-04-30T12:37:09Z</time></trkpt><trkpt lat="43.534503567598435" lon="11.241380848832232"><ele>389.6</ele><time>2026-04-30T12:37:10.001Z</time></trkpt><trkpt lat="43.53440396262826" lon="11.241441693200846"><ele>389.2</ele><time>2026-04-30T12:37:11.001Z</time></trkpt><trkpt lat="43.53430446396719" lon="11.241504426779546"><ele>388.79999999999995</ele><time>2026-04-30T12:37:12.001Z</time></trkpt><trkpt lat="43.534200716737665" lon="11.24156154325699"><ele>388.4</ele><time>2026-04-30T12:37:13.001Z</time></trkpt><trkpt lat="43.534087260299074" lon="11.241609350326533"><ele>388.0</ele><time>2026-04-30T12:37:14.001Z</time></trkpt><trkpt lat="43.533985470585705" lon="11.24164813105896"><ele>388.00000000000006</ele><time>2026-04-30T12:37:15.001Z</time></trkpt><trkpt lat="43.5339097730606" lon="11.241698544667846"><ele>388.0</ele><time>2026-04-30T12:37:16.001Z</time></trkpt><trkpt lat="43.53382265402986" lon="11.241725958840528"><ele>388.0</ele><time>2026-04-30T12:37:17.001Z</time></trkpt><trkpt lat="43.53373841237916" lon="11.241754876977883"><ele>388.0</ele><time>2026-04-30T12:37:18.001Z</time></trkpt><trkpt lat="43.533655621163135" lon="11.241782074539632"><ele>388.00000000000006</ele><time>2026-04-30T12:37:19.001Z</time></trkpt><trkpt lat="43.53357468945638" lon="11.241808661235552"><ele>388.0</ele><time>2026-04-30T12:37:20.001Z</time></trkpt><trkpt lat="43.53349818147126" lon="11.241834390860115"><ele>387.6666666666667</ele><time>2026-04-30T12:37:21.001Z</time></trkpt><trkpt lat="43.53340326211348" lon="11.241870032353882"><ele>387.33333333333337</ele><time>2026-04-30T12:37:23.001Z</time></trkpt><trkpt lat="43.53333369035236" lon="11.241896156018488"><ele>387.0</ele><time>2026-04-30T12:37:25.001Z</time></trkpt><trkpt lat="43.53324698599168" lon="11.241930202915968"><ele>386.66666666666663</ele><time>2026-04-30T12:37:58.001Z</time></trkpt><trkpt lat="43.533185459409886" lon="11.241960539129956"><ele>386.3333333333333</ele><time>2026-04-30T12:37:59.001Z</time></trkpt><trkpt lat="43.5330911915124" lon="11.24196692026983"><ele>386.0</ele><time>2026-04-30T12:38:00.001Z</time></trkpt><trkpt lat="43.53301348368273" lon="11.241977644673522"><ele>386.0</ele><time>2026-04-30T12:38:01.001Z</time></trkpt><trkpt lat="43.53293538446958" lon="11.241983801081384"><ele>386.0</ele><time>2026-04-30T12:38:02.001Z</time></trkpt><trkpt lat="43.53285546416244" lon="11.241987170340108"><ele>386.0</ele><time>2026-04-30T12:38:03.001Z</time></trkpt><trkpt lat="43.53277006525608" lon="11.241989752320391"><ele>386.0</ele><time>2026-04-30T12:38:04.001Z</time></trkpt><trkpt lat="43.532671401382444" lon="11.241988962372346"><ele>386.0</ele><time>2026-04-30T12:38:05.001Z</time></trkpt><trkpt lat="43.53256298493256" lon="11.242009194577017"><ele>386.4</ele><time>2026-04-30T12:38:06.001Z</time></trkpt><trkpt lat="43.532455025228145" lon="11.241985176940648"><ele>386.8</ele><time>2026-04-30T12:38:07.001Z</time></trkpt><trkpt lat="43.5323668626156" lon="11.241983513675853"><ele>387.2</ele><time>2026-04-30T12:38:08.001Z</time></trkpt><trkpt lat="43.53229178851588" lon="11.241976472829668"><ele>387.59999999999997</ele><time>2026-04-30T12:38:09.001Z</time></trkpt><trkpt lat="43.53222729117136" lon="11.24198738571144"><ele>388.0</ele><time>2026-04-30T12:38:10.001Z</time></trkpt><trkpt lat="43.53211167189513" lon="11.241984254395472"><ele>389.25</ele><time>2026-04-30T12:38:12.001Z</time></trkpt><trkpt lat="43.53201471043297" lon="11.241979993237434"><ele>390.5</ele><time>2026-04-30T12:38:14.001Z</time></trkpt><trkpt lat="43.53197877128093" lon="11.242207476130615"><ele>391.75</ele><time>2026-04-30T12:38:15.001Z</time></trkpt><trkpt lat="43.531954026262326" lon="11.242346561911468"><ele>393.0</ele><time>2026-04-30T12:38:16Z</time></trkpt><trkpt lat="43.5319086637826" lon="11.242476126664737"><ele>393.0</ele><time>2026-04-30T12:38:17Z</time></trkpt><trkpt lat="43.53185418699485" lon="11.242591687893924"><ele>393.0</ele><time>2026-04-30T12:38:18Z</time></trkpt><trkpt lat="43.53180368109787" lon="11.242711433118824"><ele>393.0</ele><time>2026-04-30T12:38:19Z</time></trkpt><trkpt lat="43.531729629013526" lon="11.242821757531422"><ele>393.0</ele><time>2026-04-30T12:38:20Z</time></trkpt><trkpt lat="43.531649383315845" lon="11.242938700858888"><ele>393.0</ele><time>2026-04-30T12:38:21Z</time></trkpt><trkpt lat="43.53153651387178" lon="11.243035236136704"><ele>390.0</ele><time>2026-04-30T12:38:22Z</time></trkpt><trkpt lat="43.53138567380845" lon="11.243138790616847"><ele>387.0</ele><time>2026-04-30T12:38:23Z</time></trkpt><trkpt lat="43.53123337210935" lon="11.2432468681169"><ele>384.0</ele><time>2026-04-30T12:38:24Z</time></trkpt><trkpt lat="43.53110487594773" lon="11.243361105588066"><ele>384.0</ele><time>2026-04-30T12:38:25Z</time></trkpt><trkpt lat="43.53100770925463" lon="11.243517118559978"><ele>384.0</ele><time>2026-04-30T12:38:26Z</time></trkpt><trkpt lat="43.53091041189843" lon="11.24369642365476"><ele>384.0</ele><time>2026-04-30T12:38:27Z</time></trkpt><trkpt lat="43.53082073244237" lon="11.243922546203017"><ele>381.3333333333333</ele><time>2026-04-30T12:38:28Z</time></trkpt><trkpt lat="43.53072368026825" lon="11.244121410184016"><ele>378.66666666666663</ele><time>2026-04-30T12:38:29Z</time></trkpt><trkpt lat="43.53064397447952" lon="11.244313907920814"><ele>376.0</ele><time>2026-04-30T12:38:30Z</time></trkpt><trkpt lat="43.53056632062784" lon="11.244495244556093"><ele>376.0</ele><time>2026-04-30T12:38:31Z</time></trkpt><trkpt lat="43.53049292654097" lon="11.2446638286244"><ele>376.0</ele><time>2026-04-30T12:38:32Z</time></trkpt><trkpt lat="43.5304272187608" lon="11.244838661776049"><ele>376.0</ele><time>2026-04-30T12:38:33Z</time></trkpt><trkpt lat="43.53034243518011" lon="11.244998979138558"><ele>376.0</ele><time>2026-04-30T12:38:34Z</time></trkpt><trkpt lat="43.5302866269891" lon="11.245186920564182"><ele>373.5</ele><time>2026-04-30T12:38:35Z</time></trkpt><trkpt lat="43.53024322342781" lon="11.245382764771783"><ele>371.0</ele><time>2026-04-30T12:38:36Z</time></trkpt><trkpt lat="43.53025456039432" lon="11.245579780030495"><ele>368.5</ele><time>2026-04-30T12:38:37Z</time></trkpt><trkpt lat="43.53028448539657" lon="11.24577087459582"><ele>366.0</ele><time>2026-04-30T12:38:38Z</time></trkpt><trkpt lat="43.530334097475055" lon="11.24596802999278"><ele>366.0</ele><time>2026-04-30T12:38:39Z</time></trkpt><trkpt lat="43.53037486437268" lon="11.246163512997114"><ele>366.0</ele><time>2026-04-30T12:38:40Z</time></trkpt><trkpt lat="43.53040479163025" lon="11.246371607064976"><ele>366.0</ele><time>2026-04-30T12:38:41Z</time></trkpt><trkpt lat="43.53042345212901" lon="11.24658746858549"><ele>369.3333333333333</ele><time>2026-04-30T12:38:42Z</time></trkpt><trkpt lat="43.530442193100875" lon="11.246813210559106"><ele>372.66666666666663</ele><time>2026-04-30T12:38:43Z</time></trkpt><trkpt lat="43.53046310215303" lon="11.247037218183273"><ele>376.0</ele><time>2026-04-30T12:38:44Z</time></trkpt><trkpt lat="43.53047968972405" lon="11.247259241127795"><ele>374.5</ele><time>2026-04-30T12:38:45Z</time></trkpt><trkpt lat="43.53049787890834" lon="11.247464387698136"><ele>373.0</ele><time>2026-04-30T12:38:46Z</time></trkpt><trkpt lat="43.53050959092821" lon="11.247656228731515"><ele>371.5</ele><time>2026-04-30T12:38:47Z</time></trkpt><trkpt lat="43.53051994435768" lon="11.247833760485827"><ele>370.0</ele><time>2026-04-30T12:38:48Z</time></trkpt><trkpt lat="43.53053207657411" lon="11.248009878405567"><ele>368.25</ele><time>2026-04-30T12:38:49Z</time></trkpt><trkpt lat="43.530541376051815" lon="11.24818358819188"><ele>366.5</ele><time>2026-04-30T12:38:50Z</time></trkpt><trkpt lat="43.530565255121004" lon="11.24834767768947"><ele>364.75</ele><time>2026-04-30T12:38:51Z</time></trkpt><trkpt lat="43.53058191776945" lon="11.24851765598239"><ele>363.0</ele><time>2026-04-30T12:38:52Z</time></trkpt><trkpt lat="43.53059538999204" lon="11.24868451840993"><ele>363.0</ele><time>2026-04-30T12:38:53Z</time></trkpt><trkpt lat="43.53059030669723" lon="11.248858802705238"><ele>363.0</ele><time>2026-04-30T12:38:54Z</time></trkpt><trkpt lat="43.530593316285575" lon="11.249045377620853"><ele>363.0</ele><time>2026-04-30T12:38:55Z</time></trkpt><trkpt lat="43.530593211383454" lon="11.249240074548174"><ele>363.0</ele><time>2026-04-30T12:38:56Z</time></trkpt><trkpt lat="43.5305892417094" lon="11.249428862199865"><ele>361.0</ele><time>2026-04-30T12:38:57Z</time></trkpt><trkpt lat="43.53058275704061" lon="11.24964067145182"><ele>359.0</ele><time>2026-04-30T12:38:58Z</time></trkpt><trkpt lat="43.5306048884868" lon="11.249866602251624"><ele>357.0</ele><time>2026-04-30T12:38:59Z</time></trkpt><trkpt lat="43.530690429476884" lon="11.25013015042581"><ele>354.3333333333333</ele><time>2026-04-30T12:39:00Z</time></trkpt><trkpt lat="43.5308016780038" lon="11.25038035931698"><ele>351.66666666666663</ele><time>2026-04-30T12:39:01Z</time></trkpt><trkpt lat="43.53087976465669" lon="11.2506335488311"><ele>349.0</ele><time>2026-04-30T12:39:02.001Z</time></trkpt><trkpt lat="43.53083233042038" lon="11.250555125175808"><ele>347.3333333333333</ele><time>2026-04-30T12:39:03.001Z</time></trkpt><trkpt lat="43.53091422815694" lon="11.25082148759431"><ele>345.6666666666667</ele><time>2026-04-30T12:39:04.001Z</time></trkpt><trkpt lat="43.53096736076954" lon="11.251102204545923"><ele>344.0</ele><time>2026-04-30T12:39:05.001Z</time></trkpt><trkpt lat="43.531021400217774" lon="11.251362356069567"><ele>343.0</ele><time>2026-04-30T12:39:06.001Z</time></trkpt><trkpt lat="43.53109278117346" lon="11.251601190904218"><ele>342.0</ele><time>2026-04-30T12:39:07.001Z</time></trkpt><trkpt lat="43.531150921217254" lon="11.251836239010254"><ele>341.0</ele><time>2026-04-30T12:39:08.001Z</time></trkpt><trkpt lat="43.53121385355209" lon="11.252059277554377"><ele>341.5</ele><time>2026-04-30T12:39:09.001Z</time></trkpt><trkpt lat="43.531271469303014" lon="11.252236250967936"><ele>342.0</ele><time>2026-04-30T12:39:10.001Z</time></trkpt><trkpt lat="43.531325116107276" lon="11.252376660295429"><ele>342.5</ele><time>2026-04-30T12:39:11.001Z</time></trkpt><trkpt lat="43.531321271543064" lon="11.252514775840648"><ele>343.0</ele><time>2026-04-30T12:39:12.001Z</time></trkpt><trkpt lat="43.53128636979406" lon="11.25265102213823"><ele>342.0</ele><time>2026-04-30T12:39:13.001Z</time></trkpt><trkpt lat="43.53121457707326" lon="11.252716944275218"><ele>341.0</ele><time>2026-04-30T12:39:14.001Z</time></trkpt><trkpt lat="43.53111193660797" lon="11.252872055484502"><ele>340.0</ele><time>2026-04-30T12:39:15.001Z</time></trkpt><trkpt lat="43.53105538179086" lon="11.252957688576686"><ele>339.0</ele><time>2026-04-30T12:39:16.001Z</time></trkpt><trkpt lat="43.5310987764359" lon="11.25317447586797"><ele>338.5</ele><time>2026-04-30T12:39:17.001Z</time></trkpt><trkpt lat="43.53112835675879" lon="11.253384282744284"><ele>338.0</ele><time>2026-04-30T12:39:18.001Z</time></trkpt><trkpt lat="43.531186380236015" lon="11.253577155004868"><ele>337.5</ele><time>2026-04-30T12:39:19.001Z</time></trkpt><trkpt lat="43.53120189580442" lon="11.253753906490166"><ele>337.0</ele><time>2026-04-30T12:39:20.001Z</time></trkpt><trkpt lat="43.531183452333494" lon="11.253931705299726"><ele>335.0</ele><time>2026-04-30T12:39:21.001Z</time></trkpt><trkpt lat="43.531136934148535" lon="11.254102763279707"><ele>333.0</ele><time>2026-04-30T12:39:22.001Z</time></trkpt><trkpt lat="43.531078246708326" lon="11.25427486186555"><ele>331.0</ele><time>2026-04-30T12:39:23.001Z</time></trkpt><trkpt lat="43.53101795865549" lon="11.25443213591438"><ele>329.0</ele><time>2026-04-30T12:39:24.001Z</time></trkpt><trkpt lat="43.530951632277215" lon="11.254557113568254"><ele>329.0</ele><time>2026-04-30T12:39:25.001Z</time></trkpt><trkpt lat="43.530838539162644" lon="11.254629156474243"><ele>329.0</ele><time>2026-04-30T12:39:26.001Z</time></trkpt><trkpt lat="43.53070329057946" lon="11.254661210157904"><ele>329.0</ele><time>2026-04-30T12:39:27.001Z</time></trkpt><trkpt lat="43.53062975575424" lon="11.254718278516778"><ele>329.0</ele><time>2026-04-30T12:39:28.001Z</time></trkpt><trkpt lat="43.530539740072534" lon="11.254836185812508"><ele>326.4</ele><time>2026-04-30T12:39:30.001Z</time></trkpt><trkpt lat="43.5305329665982" lon="11.254956586261432"><ele>323.79999999999995</ele><time>2026-04-30T12:39:31.001Z</time></trkpt><trkpt lat="43.53059228103652" lon="11.255096840368685"><ele>321.20000000000005</ele><time>2026-04-30T12:39:32.001Z</time></trkpt><trkpt lat="43.53062840715877" lon="11.255248230611251"><ele>318.6</ele><time>2026-04-30T12:39:33.001Z</time></trkpt><trkpt lat="43.530658647606984" lon="11.255381894749885"><ele>316.0</ele><time>2026-04-30T12:39:34.001Z</time></trkpt><trkpt lat="43.53070689797143" lon="11.255493837925268"><ele>316.0</ele><time>2026-04-30T12:39:35.001Z</time></trkpt><trkpt lat="43.5307459392217" lon="11.255609199837227"><ele>316.0</ele><time>2026-04-30T12:39:36.001Z</time></trkpt><trkpt lat="43.53079995044546" lon="11.255702071582972"><ele>316.0</ele><time>2026-04-30T12:39:37.001Z</time></trkpt><trkpt lat="43.53089603309192" lon="11.255767123117836"><ele>316.0</ele><time>2026-04-30T12:39:38.001Z</time></trkpt><trkpt lat="43.53101776777418" lon="11.255799569469678"><ele>316.0</ele><time>2026-04-30T12:39:39.001Z</time></trkpt><trkpt lat="43.531134646605025" lon="11.255829650353778"><ele>314.0</ele><time>2026-04-30T12:39:40.001Z</time></trkpt><trkpt lat="43.53125119965395" lon="11.255896557157744"><ele>312.0</ele><time>2026-04-30T12:39:41.001Z</time></trkpt><trkpt lat="43.53135569388597" lon="11.25599872581396"><ele>310.0</ele><time>2026-04-30T12:39:42.001Z</time></trkpt><trkpt lat="43.53145124445191" lon="11.256132380014527"><ele>308.0</ele><time>2026-04-30T12:39:43.001Z</time></trkpt><trkpt lat="43.53154520271378" lon="11.256283008586163"><ele>308.0</ele><time>2026-04-30T12:39:44.001Z</time></trkpt><trkpt lat="43.53163368633937" lon="11.25644003521098"><ele>308.0</ele><time>2026-04-30T12:39:45.001Z</time></trkpt><trkpt lat="43.53171536149023" lon="11.256578812258184"><ele>308.0</ele><time>2026-04-30T12:39:46.001Z</time></trkpt><trkpt lat="43.531769861072135" lon="11.256699558219186"><ele>308.0</ele><time>2026-04-30T12:39:47.001Z</time></trkpt><trkpt lat="43.531791186204906" lon="11.256847055310892"><ele>311.0</ele><time>2026-04-30T12:39:48.001Z</time></trkpt><trkpt lat="43.53172100263091" lon="11.256979181438716"><ele>314.0</ele><time>2026-04-30T12:39:49.001Z</time></trkpt><trkpt lat="43.53165724159833" lon="11.25715085880941"><ele>317.0</ele><time>2026-04-30T12:39:50.001Z</time></trkpt><trkpt lat="43.53160658990195" lon="11.257361400583639"><ele>320.0</ele><time>2026-04-30T12:39:51.001Z</time></trkpt><trkpt lat="43.531591847658525" lon="11.25756438758031"><ele>322.6666666666667</ele><time>2026-04-30T12:39:52.001Z</time></trkpt><trkpt lat="43.53159835585941" lon="11.25779110421206"><ele>325.3333333333333</ele><time>2026-04-30T12:39:53.001Z</time></trkpt><trkpt lat="43.531611818009516" lon="11.258032027153483"><ele>328.0</ele><time>2026-04-30T12:39:54.001Z</time></trkpt><trkpt lat="43.531623381354414" lon="11.258248886148982"><ele>329.5</ele><time>2026-04-30T12:39:55.001Z</time></trkpt><trkpt lat="43.53162962721426" lon="11.258414568815917"><ele>331.0</ele><time>2026-04-30T12:39:56.001Z</time></trkpt><trkpt lat="43.53163963349579" lon="11.258566748318026"><ele>332.5</ele><time>2026-04-30T12:39:57.001Z</time></trkpt><trkpt lat="43.53168043223245" lon="11.25873977632117"><ele>334.0</ele><time>2026-04-30T12:39:58.001Z</time></trkpt><trkpt lat="43.53174961883166" lon="11.25892668198332"><ele>337.0</ele><time>2026-04-30T12:39:59.001Z</time></trkpt><trkpt lat="43.53182918506933" lon="11.259097027144975"><ele>340.0</ele><time>2026-04-30T12:40:00.001Z</time></trkpt><trkpt lat="43.53191951599688" lon="11.259241245581679"><ele>343.0</ele><time>2026-04-30T12:40:01.001Z</time></trkpt><trkpt lat="43.53196203681867" lon="11.259402830940417"><ele>346.0</ele><time>2026-04-30T12:40:02.001Z</time></trkpt><trkpt lat="43.53201056981782" lon="11.259575480838594"><ele>341.8</ele><time>2026-04-30T12:40:03.001Z</time></trkpt><trkpt lat="43.53206275106941" lon="11.259742019117402"><ele>337.6</ele><time>2026-04-30T12:40:04.001Z</time></trkpt><trkpt lat="43.53208921145033" lon="11.259898658053116"><ele>333.4</ele><time>2026-04-30T12:40:05.001Z</time></trkpt><trkpt lat="43.532116969156974" lon="11.260025775274075"><ele>329.2</ele><time>2026-04-30T12:40:06.001Z</time></trkpt><trkpt lat="43.53211849958286" lon="11.26011601703879"><ele>325.0</ele><time>2026-04-30T12:40:07.001Z</time></trkpt><trkpt lat="43.53211968191588" lon="11.260269524169038"><ele>325.0</ele><time>2026-04-30T12:40:10.001Z</time></trkpt><trkpt lat="43.53207826976814" lon="11.260350636356966"><ele>325.0</ele><time>2026-04-30T12:40:11.001Z</time></trkpt><trkpt lat="43.531985848552026" lon="11.260419351046355"><ele>325.0</ele><time>2026-04-30T12:40:12.001Z</time></trkpt><trkpt lat="43.531890961452085" lon="11.260497486969015"><ele>325.0</ele><time>2026-04-30T12:40:13.001Z</time></trkpt><trkpt lat="43.531777813771235" lon="11.26056866855954"><ele>325.0</ele><time>2026-04-30T12:40:14.001Z</time></trkpt><trkpt lat="43.53166427672708" lon="11.260620354645159"><ele>328.6</ele><time>2026-04-30T12:40:15.001Z</time></trkpt><trkpt lat="43.53155992167876" lon="11.2606685976051"><ele>332.2</ele><time>2026-04-30T12:40:16.001Z</time></trkpt><trkpt lat="43.53148285011149" lon="11.26075498238226"><ele>335.79999999999995</ele><time>2026-04-30T12:40:17.001Z</time></trkpt><trkpt lat="43.53140271402228" lon="11.26085729710487"><ele>339.4</ele><time>2026-04-30T12:40:18.002Z</time></trkpt><trkpt lat="43.5313578920935" lon="11.261000279429366"><ele>343.0</ele><time>2026-04-30T12:40:19.002Z</time></trkpt><trkpt lat="43.53133147560982" lon="11.261171387844591"><ele>343.0</ele><time>2026-04-30T12:40:20.002Z</time></trkpt><trkpt lat="43.53128729937117" lon="11.261329078877303"><ele>343.0</ele><time>2026-04-30T12:40:21.002Z</time></trkpt><trkpt lat="43.53123286437367" lon="11.261455297039523"><ele>343.0</ele><time>2026-04-30T12:40:22Z</time></trkpt><trkpt lat="43.531128076917874" lon="11.26155441148457"><ele>343.0</ele><time>2026-04-30T12:40:23Z</time></trkpt><trkpt lat="43.531020683999" lon="11.261683838595433"><ele>352.3333333333333</ele><time>2026-04-30T12:40:24Z</time></trkpt><trkpt lat="43.53091567610685" lon="11.261823041868775"><ele>361.6666666666667</ele><time>2026-04-30T12:40:25Z</time></trkpt><trkpt lat="43.530845282526904" lon="11.262009289638945"><ele>371.0</ele><time>2026-04-30T12:40:26Z</time></trkpt><trkpt lat="43.53079565780692" lon="11.26220874958759"><ele>369.0</ele><time>2026-04-30T12:40:27Z</time></trkpt><trkpt lat="43.53074440844416" lon="11.26239550921058"><ele>367.0</ele><time>2026-04-30T12:40:28Z</time></trkpt><trkpt lat="43.53071558414425" lon="11.26255906603929"><ele>365.0</ele><time>2026-04-30T12:40:29Z</time></trkpt><trkpt lat="43.530694992819036" lon="11.262725440959995"><ele>363.0</ele><time>2026-04-30T12:40:30Z</time></trkpt><trkpt lat="43.530679212072705" lon="11.262894842610272"><ele>363.0</ele><time>2026-04-30T12:40:31Z</time></trkpt><trkpt lat="43.53068163052079" lon="11.263059208133605"><ele>363.0</ele><time>2026-04-30T12:40:32Z</time></trkpt><trkpt lat="43.53073864585646" lon="11.26322845754313"><ele>363.0</ele><time>2026-04-30T12:40:33Z</time></trkpt><trkpt lat="43.530808862010026" lon="11.263411741306388"><ele>363.0</ele><time>2026-04-30T12:40:34Z</time></trkpt><trkpt lat="43.530887467071125" lon="11.263567889535029"><ele>362.4</ele><time>2026-04-30T12:40:35Z</time></trkpt><trkpt lat="43.53096013239277" lon="11.263699641088447"><ele>361.79999999999995</ele><time>2026-04-30T12:40:36Z</time></trkpt><trkpt lat="43.53100828579686" lon="11.26383006311763"><ele>361.2</ele><time>2026-04-30T12:40:37Z</time></trkpt><trkpt lat="43.5310322747003" lon="11.263928425488043"><ele>360.6</ele><time>2026-04-30T12:40:38Z</time></trkpt><trkpt lat="43.53103360584234" lon="11.264048813407918"><ele>360.0</ele><time>2026-04-30T12:40:39Z</time></trkpt><trkpt lat="43.530949198879895" lon="11.26415685864106"><ele>359.75</ele><time>2026-04-30T12:40:40Z</time></trkpt><trkpt lat="43.53088723281211" lon="11.264287847500324"><ele>359.5</ele><time>2026-04-30T12:40:41Z</time></trkpt><trkpt lat="43.53080132019603" lon="11.264418816522557"><ele>359.25</ele><time>2026-04-30T12:40:42Z</time></trkpt><trkpt lat="43.53072355057832" lon="11.264561740519207"><ele>359.0</ele><time>2026-04-30T12:40:43Z</time></trkpt><trkpt lat="43.530645423948314" lon="11.264705256688604"><ele>357.75</ele><time>2026-04-30T12:40:44Z</time></trkpt><trkpt lat="43.530557335666415" lon="11.264837547580989"><ele>356.5</ele><time>2026-04-30T12:40:45Z</time></trkpt><trkpt lat="43.53045968024353" lon="11.264962809609845"><ele>355.25</ele><time>2026-04-30T12:40:46Z</time></trkpt><trkpt lat="43.53035938448629" lon="11.265077011962674"><ele>354.0</ele><time>2026-04-30T12:40:47Z</time></trkpt><trkpt lat="43.5302638937614" lon="11.265199150351126"><ele>356.0</ele><time>2026-04-30T12:40:48Z</time></trkpt><trkpt lat="43.53016796751748" lon="11.265312492229375"><ele>358.0</ele><time>2026-04-30T12:40:49Z</time></trkpt><trkpt lat="43.530083124842854" lon="11.265415231004368"><ele>360.0</ele><time>2026-04-30T12:40:50Z</time></trkpt><trkpt lat="43.530016542081626" lon="11.265547562434062"><ele>362.0</ele><time>2026-04-30T12:40:51Z</time></trkpt><trkpt lat="43.52995959720473" lon="11.26570530750597"><ele>362.0</ele><time>2026-04-30T12:40:52Z</time></trkpt><trkpt lat="43.529908179579266" lon="11.265852380078073"><ele>362.0</ele><time>2026-04-30T12:40:53Z</time></trkpt><trkpt lat="43.52983359528789" lon="11.265982433987505"><ele>362.0</ele><time>2026-04-30T12:40:54Z</time></trkpt><trkpt lat="43.52974589750637" lon="11.266040761834779"><ele>362.0</ele><time>2026-04-30T12:40:55Z</time></trkpt><trkpt lat="43.52966345107441" lon="11.266114735752875"><ele>362.0</ele><time>2026-04-30T12:40:56Z</time></trkpt><trkpt lat="43.52959203967799" lon="11.266185818055726"><ele>364.20000000000005</ele><time>2026-04-30T12:40:57Z</time></trkpt><trkpt lat="43.529534029722505" lon="11.26627375641411"><ele>366.4</ele><time>2026-04-30T12:40:58Z</time></trkpt><trkpt lat="43.52951557305634" lon="11.266399779167122"><ele>368.6</ele><time>2026-04-30T12:40:59Z</time></trkpt><trkpt lat="43.529509549761336" lon="11.266539613178699"><ele>370.79999999999995</ele><time>2026-04-30T12:41:00Z</time></trkpt><trkpt lat="43.52953021095613" lon="11.266659852913271"><ele>373.0</ele><time>2026-04-30T12:41:01Z</time></trkpt><trkpt lat="43.529536534355714" lon="11.266801432727275"><ele>371.0</ele><time>2026-04-30T12:41:02Z</time></trkpt><trkpt lat="43.52957315458454" lon="11.266955050208454"><ele>369.0</ele><time>2026-04-30T12:41:03Z</time></trkpt><trkpt lat="43.52962893491079" lon="11.267106181232519"><ele>367.0</ele><time>2026-04-30T12:41:04Z</time></trkpt><trkpt lat="43.529687376425734" lon="11.267228813905719"><ele>365.0</ele><time>2026-04-30T12:41:05Z</time></trkpt><trkpt lat="43.52971121663917" lon="11.267342919220527"><ele>363.0</ele><time>2026-04-30T12:41:06Z</time></trkpt><trkpt lat="43.52972257521024" lon="11.267478439873257"><ele>363.0</ele><time>2026-04-30T12:41:07Z</time></trkpt><trkpt lat="43.529695249771144" lon="11.26762561957454"><ele>363.0</ele><time>2026-04-30T12:41:08Z</time></trkpt><trkpt lat="43.52970921049056" lon="11.267789319464942"><ele>363.0</ele><time>2026-04-30T12:41:09.001Z</time></trkpt><trkpt lat="43.52974297964735" lon="11.267936812151754"><ele>363.0</ele><time>2026-04-30T12:41:10.001Z</time></trkpt><trkpt lat="43.52982323780449" lon="11.26808201541357"><ele>365.6666666666667</ele><time>2026-04-30T12:41:11.001Z</time></trkpt><trkpt lat="43.52992264626279" lon="11.268243046898036"><ele>368.33333333333337</ele><time>2026-04-30T12:41:12.001Z</time></trkpt><trkpt lat="43.530029874687536" lon="11.268410942935603"><ele>371.0</ele><time>2026-04-30T12:41:13.001Z</time></trkpt><trkpt lat="43.53012751255639" lon="11.26856667494484"><ele>371.0</ele><time>2026-04-30T12:41:14.001Z</time></trkpt><trkpt lat="43.530232668504496" lon="11.268715043682091"><ele>371.0</ele><time>2026-04-30T12:41:15.001Z</time></trkpt><trkpt lat="43.530347247076584" lon="11.268843295223416"><ele>371.0</ele><time>2026-04-30T12:41:16.001Z</time></trkpt><trkpt lat="43.530465566811266" lon="11.268949307771067"><ele>371.0</ele><time>2026-04-30T12:41:17.001Z</time></trkpt><trkpt lat="43.53057505303258" lon="11.269041456675842"><ele>371.0</ele><time>2026-04-30T12:41:18.001Z</time></trkpt><trkpt lat="43.53065873068564" lon="11.269166944580034"><ele>371.0</ele><time>2026-04-30T12:41:19.001Z</time></trkpt><trkpt lat="43.53072269378528" lon="11.269319584363219"><ele>371.0</ele><time>2026-04-30T12:41:20.001Z</time></trkpt><trkpt lat="43.53078613933116" lon="11.269493689101974"><ele>371.0</ele><time>2026-04-30T12:41:21.001Z</time></trkpt><trkpt lat="43.53083986127927" lon="11.269685065961296"><ele>373.25</ele><time>2026-04-30T12:41:22.001Z</time></trkpt><trkpt lat="43.5308675178173" lon="11.26987766781433"><ele>375.5</ele><time>2026-04-30T12:41:23.001Z</time></trkpt><trkpt lat="43.53092445069755" lon="11.27006071774632"><ele>377.75</ele><time>2026-04-30T12:41:24.001Z</time></trkpt><trkpt lat="43.53100116423888" lon="11.27023599379811"><ele>380.0</ele><time>2026-04-30T12:41:25.001Z</time></trkpt><trkpt lat="43.531098531303755" lon="11.270377351140413"><ele>380.0</ele><time>2026-04-30T12:41:26.001Z</time></trkpt><trkpt lat="43.531194793518566" lon="11.270493856800702"><ele>380.0</ele><time>2026-04-30T12:41:27.001Z</time></trkpt><trkpt lat="43.53127993732922" lon="11.270596591180878"><ele>380.0</ele><time>2026-04-30T12:41:28.001Z</time></trkpt><trkpt lat="43.53138307122995" lon="11.270693264425379"><ele>380.0</ele><time>2026-04-30T12:41:29.001Z</time></trkpt><trkpt lat="43.5315072153963" lon="11.270754570006584"><ele>380.75</ele><time>2026-04-30T12:41:30.001Z</time></trkpt><trkpt lat="43.531627230609516" lon="11.270748508836187"><ele>381.5</ele><time>2026-04-30T12:41:31.001Z</time></trkpt><trkpt lat="43.53176987907155" lon="11.270715666068485"><ele>382.25</ele><time>2026-04-30T12:41:32.001Z</time></trkpt><trkpt lat="43.53190772918983" lon="11.270674083641213"><ele>383.0</ele><time>2026-04-30T12:41:33.001Z</time></trkpt><trkpt lat="43.53204665519243" lon="11.270600933415057"><ele>379.59999999999997</ele><time>2026-04-30T12:41:34.001Z</time></trkpt><trkpt lat="43.5321559062197" lon="11.270506412204634"><ele>376.2</ele><time>2026-04-30T12:41:35.001Z</time></trkpt><trkpt lat="43.53224441793896" lon="11.270426882972671"><ele>372.8</ele><time>2026-04-30T12:41:36.001Z</time></trkpt><trkpt lat="43.532326589204345" lon="11.270404366692947"><ele>369.4</ele><time>2026-04-30T12:41:37.001Z</time></trkpt><trkpt lat="43.532416903705354" lon="11.270466036591717"><ele>366.0</ele><time>2026-04-30T12:41:38.001Z</time></trkpt><trkpt lat="43.53248960847226" lon="11.270558933005454"><ele>370.5</ele><time>2026-04-30T12:41:39.001Z</time></trkpt><trkpt lat="43.53256769290615" lon="11.270700055218327"><ele>375.0</ele><time>2026-04-30T12:41:40.001Z</time></trkpt><trkpt lat="43.53265892834704" lon="11.270879398493898"><ele>379.5</ele><time>2026-04-30T12:41:41.001Z</time></trkpt><trkpt lat="43.53276147303387" lon="11.271048545399324"><ele>384.0</ele><time>2026-04-30T12:41:42.001Z</time></trkpt><trkpt lat="43.53287256899534" lon="11.271187242042872"><ele>382.25</ele><time>2026-04-30T12:41:43.001Z</time></trkpt><trkpt lat="43.532994424690045" lon="11.271300627932092"><ele>380.5</ele><time>2026-04-30T12:41:44.001Z</time></trkpt><trkpt lat="43.5331224374196" lon="11.271391039268824"><ele>378.75</ele><time>2026-04-30T12:41:45.001Z</time></trkpt><trkpt lat="43.53324959690972" lon="11.27144476041837"><ele>377.0</ele><time>2026-04-30T12:41:46.001Z</time></trkpt><trkpt lat="43.533378163596474" lon="11.271460844451356"><ele>377.0</ele><time>2026-04-30T12:41:47.001Z</time></trkpt><trkpt lat="43.53352873468045" lon="11.271430142296857"><ele>377.0</ele><time>2026-04-30T12:41:48.001Z</time></trkpt><trkpt lat="43.533645146335225" lon="11.271359759721854"><ele>377.0</ele><time>2026-04-30T12:41:49.001Z</time></trkpt><trkpt lat="43.5337555242018" lon="11.27133842411676"><ele>377.0</ele><time>2026-04-30T12:41:50.001Z</time></trkpt><trkpt lat="43.5338569313088" lon="11.271316349120312"><ele>377.0</ele><time>2026-04-30T12:41:51.001Z</time></trkpt><trkpt lat="43.53397802878205" lon="11.271345611841063"><ele>377.0</ele><time>2026-04-30T12:41:52.001Z</time></trkpt><trkpt lat="43.534112839031685" lon="11.27143690628496"><ele>377.0</ele><time>2026-04-30T12:41:53.001Z</time></trkpt><trkpt lat="43.53425595659709" lon="11.27153671026332"><ele>377.0</ele><time>2026-04-30T12:41:54.001Z</time></trkpt><trkpt lat="43.5343998094653" lon="11.271618638160538"><ele>379.25</ele><time>2026-04-30T12:41:55.001Z</time></trkpt><trkpt lat="43.53453401650897" lon="11.271687870694377"><ele>381.5</ele><time>2026-04-30T12:41:56.001Z</time></trkpt><trkpt lat="43.53466214597803" lon="11.271712850003915"><ele>383.75</ele><time>2026-04-30T12:41:57.001Z</time></trkpt><trkpt lat="43.534769735153965" lon="11.27177785610326"><ele>386.0</ele><time>2026-04-30T12:41:58.001Z</time></trkpt><trkpt lat="43.53484727172466" lon="11.271789601298583"><ele>385.99999999999994</ele><time>2026-04-30T12:41:59.001Z</time></trkpt><trkpt lat="43.534940263009574" lon="11.271802896069788"><ele>386.0</ele><time>2026-04-30T12:42:00.001Z</time></trkpt><trkpt lat="43.53500980979036" lon="11.27182853844168"><ele>386.0</ele><time>2026-04-30T12:42:01.001Z</time></trkpt><trkpt lat="43.535075296176615" lon="11.271846370329918"><ele>386.0</ele><time>2026-04-30T12:42:02.001Z</time></trkpt><trkpt lat="43.53513050046197" lon="11.271974712477018"><ele>385.99999999999994</ele><time>2026-04-30T12:42:04.001Z</time></trkpt><trkpt lat="43.53514226193426" lon="11.27208928540533"><ele>386.0</ele><time>2026-04-30T12:42:06.001Z</time></trkpt><trkpt lat="43.53509332806054" lon="11.272257638877134"><ele>387.0</ele><time>2026-04-30T12:42:08.001Z</time></trkpt><trkpt lat="43.535076494205974" lon="11.272404940586428"><ele>388.0</ele><time>2026-04-30T12:42:09.001Z</time></trkpt><trkpt lat="43.53508731999528" lon="11.272540551771698"><ele>389.0</ele><time>2026-04-30T12:42:10.001Z</time></trkpt><trkpt lat="43.53507984685837" lon="11.272680345576076"><ele>390.0</ele><time>2026-04-30T12:42:11.001Z</time></trkpt><trkpt lat="43.535101014930106" lon="11.272822253695436"><ele>391.0</ele><time>2026-04-30T12:42:12.001Z</time></trkpt><trkpt lat="43.53512480568421" lon="11.27296303310281"><ele>391.0</ele><time>2026-04-30T12:42:13.001Z</time></trkpt><trkpt lat="43.53514691879999" lon="11.273091107313286"><ele>391.0</ele><time>2026-04-30T12:42:14.001Z</time></trkpt><trkpt lat="43.53516461237657" lon="11.273220182994278"><ele>391.0</ele><time>2026-04-30T12:42:15.001Z</time></trkpt><trkpt lat="43.535186903684796" lon="11.273347355388417"><ele>391.0</ele><time>2026-04-30T12:42:16.001Z</time></trkpt><trkpt lat="43.53517734636838" lon="11.273488039855815"><ele>391.0</ele><time>2026-04-30T12:42:17.001Z</time></trkpt><trkpt lat="43.53514147188553" lon="11.273613408717878"><ele>390.0</ele><time>2026-04-30T12:42:18.001Z</time></trkpt><trkpt lat="43.53509266835303" lon="11.273740314580333"><ele>389.0</ele><time>2026-04-30T12:42:19.001Z</time></trkpt><trkpt lat="43.53503453213948" lon="11.273865176275619"><ele>388.0</ele><time>2026-04-30T12:42:20.001Z</time></trkpt><trkpt lat="43.534985036746086" lon="11.274006398609336"><ele>387.0</ele><time>2026-04-30T12:42:21.001Z</time></trkpt><trkpt lat="43.53496373007316" lon="11.274188011213"><ele>385.0</ele><time>2026-04-30T12:42:22.001Z</time></trkpt><trkpt lat="43.53497419703522" lon="11.274359489094767"><ele>383.0</ele><time>2026-04-30T12:42:23.001Z</time></trkpt><trkpt lat="43.535001038127845" lon="11.27451737289972"><ele>381.0</ele><time>2026-04-30T12:42:24.001Z</time></trkpt><trkpt lat="43.53500841196959" lon="11.274673174655161"><ele>379.0</ele><time>2026-04-30T12:42:25.001Z</time></trkpt><trkpt lat="43.53499338204675" lon="11.274830810261383"><ele>378.25</ele><time>2026-04-30T12:42:26.002Z</time></trkpt><trkpt lat="43.53495999991821" lon="11.274999493817027"><ele>377.5</ele><time>2026-04-30T12:42:27.002Z</time></trkpt><trkpt lat="43.534926375780195" lon="11.275160065772695"><ele>376.75</ele><time>2026-04-30T12:42:28Z</time></trkpt><trkpt lat="43.53488205421849" lon="11.275319309350829"><ele>376.0</ele><time>2026-04-30T12:42:29Z</time></trkpt><trkpt lat="43.53481698144337" lon="11.275472277809396"><ele>373.0</ele><time>2026-04-30T12:42:30Z</time></trkpt><trkpt lat="43.5347180485777" lon="11.275648715370256"><ele>370.0</ele><time>2026-04-30T12:42:31Z</time></trkpt><trkpt lat="43.53461601495245" lon="11.275824505385215"><ele>367.0</ele><time>2026-04-30T12:42:32Z</time></trkpt><trkpt lat="43.53451487221515" lon="11.27600743852425"><ele>368.0</ele><time>2026-04-30T12:42:33Z</time></trkpt><trkpt lat="43.534405506860864" lon="11.27617954541551"><ele>369.0</ele><time>2026-04-30T12:42:34Z</time></trkpt><trkpt lat="43.5342996675188" lon="11.276326424666719"><ele>370.0</ele><time>2026-04-30T12:42:35Z</time></trkpt><trkpt lat="43.53419131500557" lon="11.276463424978045"><ele>370.0</ele><time>2026-04-30T12:42:36Z</time></trkpt><trkpt lat="43.534084545878386" lon="11.276613996201934"><ele>370.0</ele><time>2026-04-30T12:42:37Z</time></trkpt><trkpt lat="43.5339792341566" lon="11.276748956255705"><ele>370.0</ele><time>2026-04-30T12:42:38Z</time></trkpt><trkpt lat="43.53389212332121" lon="11.27689241459727"><ele>370.0</ele><time>2026-04-30T12:42:39Z</time></trkpt><trkpt lat="43.53382958762755" lon="11.277074783214944"><ele>371.0</ele><time>2026-04-30T12:42:40Z</time></trkpt><trkpt lat="43.53378102950871" lon="11.27727933918594"><ele>372.0</ele><time>2026-04-30T12:42:41Z</time></trkpt><trkpt lat="43.53374117644797" lon="11.277472585220986"><ele>373.0</ele><time>2026-04-30T12:42:42Z</time></trkpt><trkpt lat="43.53369311984896" lon="11.277629540107332"><ele>374.0</ele><time>2026-04-30T12:42:43Z</time></trkpt><trkpt lat="43.53361675775021" lon="11.277759171323432"><ele>374.0</ele><time>2026-04-30T12:42:44Z</time></trkpt><trkpt lat="43.5335103585415" lon="11.277856248633903"><ele>374.0</ele><time>2026-04-30T12:42:45Z</time></trkpt><trkpt lat="43.53338247461793" lon="11.277911560685105"><ele>374.0</ele><time>2026-04-30T12:42:46Z</time></trkpt><trkpt lat="43.53323767775488" lon="11.277955506834966"><ele>374.0</ele><time>2026-04-30T12:42:47Z</time></trkpt><trkpt lat="43.53312767472223" lon="11.278017168454644"><ele>371.75</ele><time>2026-04-30T12:42:48Z</time></trkpt><trkpt lat="43.533031282900424" lon="11.278109488616602"><ele>369.5</ele><time>2026-04-30T12:42:49Z</time></trkpt><trkpt lat="43.53297007976705" lon="11.2782468940599"><ele>367.25</ele><time>2026-04-30T12:42:50Z</time></trkpt><trkpt lat="43.532937597532616" lon="11.278394755023031"><ele>365.0</ele><time>2026-04-30T12:42:51Z</time></trkpt><trkpt lat="43.53294248165308" lon="11.278554723622765"><ele>365.0</ele><time>2026-04-30T12:42:52Z</time></trkpt><trkpt lat="43.53299532694177" lon="11.278725953882537"><ele>365.0</ele><time>2026-04-30T12:42:53Z</time></trkpt><trkpt lat="43.53305707953309" lon="11.278905838340803"><ele>365.0</ele><time>2026-04-30T12:42:54Z</time></trkpt><trkpt lat="43.53310660620411" lon="11.279074889312845"><ele>365.0</ele><time>2026-04-30T12:42:55Z</time></trkpt><trkpt lat="43.533139221188215" lon="11.279229527539224"><ele>363.8</ele><time>2026-04-30T12:42:56Z</time></trkpt><trkpt lat="43.533136472771346" lon="11.279391393471187"><ele>362.6</ele><time>2026-04-30T12:42:57Z</time></trkpt><trkpt lat="43.53310485248505" lon="11.279540149664596"><ele>361.4</ele><time>2026-04-30T12:42:58Z</time></trkpt><trkpt lat="43.53304418336377" lon="11.279645490300638"><ele>360.2</ele><time>2026-04-30T12:42:59Z</time></trkpt><trkpt lat="43.53294727815966" lon="11.279711303736514"><ele>359.0</ele><time>2026-04-30T12:43:00Z</time></trkpt><trkpt lat="43.53282150844445" lon="11.279734977336744"><ele>360.5</ele><time>2026-04-30T12:43:01Z</time></trkpt><trkpt lat="43.53268792395526" lon="11.279740276080657"><ele>362.0</ele><time>2026-04-30T12:43:02Z</time></trkpt><trkpt lat="43.53257351087926" lon="11.279770542955955"><ele>363.5</ele><time>2026-04-30T12:43:03Z</time></trkpt><trkpt lat="43.532474198172174" lon="11.279842703138282"><ele>365.0</ele><time>2026-04-30T12:43:04Z</time></trkpt><trkpt lat="43.53238304521678" lon="11.279972681078835"><ele>365.0</ele><time>2026-04-30T12:43:05Z</time></trkpt><trkpt lat="43.532317689043815" lon="11.280143529734218"><ele>365.0</ele><time>2026-04-30T12:43:06Z</time></trkpt><trkpt lat="43.53228071841929" lon="11.28031975033799"><ele>365.0</ele><time>2026-04-30T12:43:07.001Z</time></trkpt><trkpt lat="43.53225935357606" lon="11.280474742890359"><ele>365.0</ele><time>2026-04-30T12:43:08.001Z</time></trkpt><trkpt lat="43.53221771839366" lon="11.280594426728573"><ele>364.0</ele><time>2026-04-30T12:43:09.001Z</time></trkpt><trkpt lat="43.53214368767083" lon="11.28068776258541"><ele>363.0</ele><time>2026-04-30T12:43:10.001Z</time></trkpt><trkpt lat="43.532034760590484" lon="11.280759161045522"><ele>362.0</ele><time>2026-04-30T12:43:11.001Z</time></trkpt><trkpt lat="43.5319006561185" lon="11.280780827874656"><ele>361.0</ele><time>2026-04-30T12:43:12.001Z</time></trkpt><trkpt lat="43.53178299031482" lon="11.280820152514991"><ele>361.0</ele><time>2026-04-30T12:43:13.001Z</time></trkpt><trkpt lat="43.531668413196805" lon="11.280856664711944"><ele>361.0</ele><time>2026-04-30T12:43:14.001Z</time></trkpt><trkpt lat="43.53155885181899" lon="11.280884534112763"><ele>361.0</ele><time>2026-04-30T12:43:15.001Z</time></trkpt><trkpt lat="43.5314371787175" lon="11.280888983739422"><ele>361.0</ele><time>2026-04-30T12:43:16.001Z</time></trkpt><trkpt lat="43.53130465491025" lon="11.280863479050458"><ele>359.0</ele><time>2026-04-30T12:43:17.001Z</time></trkpt><trkpt lat="43.53117980627839" lon="11.28078308933223"><ele>357.0</ele><time>2026-04-30T12:43:18.001Z</time></trkpt><trkpt lat="43.53106454769294" lon="11.280708296912278"><ele>355.0</ele><time>2026-04-30T12:43:19.001Z</time></trkpt><trkpt lat="43.53095569551238" lon="11.280654148849438"><ele>353.0</ele><time>2026-04-30T12:43:20.001Z</time></trkpt><trkpt lat="43.5308336021208" lon="11.280625951518125"><ele>353.0</ele><time>2026-04-30T12:43:21.001Z</time></trkpt><trkpt lat="43.530706615425125" lon="11.280653963049414"><ele>353.0</ele><time>2026-04-30T12:43:22.001Z</time></trkpt><trkpt lat="43.53058183892787" lon="11.280729866562575"><ele>353.0</ele><time>2026-04-30T12:43:23.001Z</time></trkpt><trkpt lat="43.53048091324586" lon="11.280820450186575"><ele>353.0</ele><time>2026-04-30T12:43:24.001Z</time></trkpt><trkpt lat="43.53037662500494" lon="11.28089830041229"><ele>352.0</ele><time>2026-04-30T12:43:25.001Z</time></trkpt><trkpt lat="43.530255575350566" lon="11.280931702975527"><ele>351.0</ele><time>2026-04-30T12:43:26.001Z</time></trkpt><trkpt lat="43.53012767721533" lon="11.280974988214975"><ele>350.0</ele><time>2026-04-30T12:43:27.001Z</time></trkpt><trkpt lat="43.529995743311524" lon="11.281031375270818"><ele>349.0</ele><time>2026-04-30T12:43:28.001Z</time></trkpt><trkpt lat="43.52985455917455" lon="11.281062191177273"><ele>349.0</ele><time>2026-04-30T12:43:29.001Z</time></trkpt><trkpt lat="43.52971520570339" lon="11.281098747923567"><ele>349.0</ele><time>2026-04-30T12:43:30.001Z</time></trkpt><trkpt lat="43.529575912002095" lon="11.281136120813244"><ele>349.0</ele><time>2026-04-30T12:43:31.001Z</time></trkpt><trkpt lat="43.52944130926183" lon="11.281170012141665"><ele>349.0</ele><time>2026-04-30T12:43:32.001Z</time></trkpt><trkpt lat="43.52932355530677" lon="11.281203008545939"><ele>349.0</ele><time>2026-04-30T12:43:33.001Z</time></trkpt><trkpt lat="43.52921592234529" lon="11.281255786310922"><ele>349.0</ele><time>2026-04-30T12:43:34.001Z</time></trkpt><trkpt lat="43.52910512876651" lon="11.281352647986555"><ele>349.0</ele><time>2026-04-30T12:43:35.001Z</time></trkpt><trkpt lat="43.52902436973455" lon="11.281479670168208"><ele>349.0</ele><time>2026-04-30T12:43:36.001Z</time></trkpt><trkpt lat="43.528975141753506" lon="11.281597699880564"><ele>347.25</ele><time>2026-04-30T12:43:37.001Z</time></trkpt><trkpt lat="43.528989966236615" lon="11.281770835903947"><ele>345.5</ele><time>2026-04-30T12:43:38.001Z</time></trkpt><trkpt lat="43.5290273782666" lon="11.281957620728123"><ele>343.75</ele><time>2026-04-30T12:43:39.001Z</time></trkpt><trkpt lat="43.529087792758176" lon="11.282130820403488"><ele>342.0</ele><time>2026-04-30T12:43:40.001Z</time></trkpt><trkpt lat="43.52914959903526" lon="11.282280959874775"><ele>341.40000000000003</ele><time>2026-04-30T12:43:41.001Z</time></trkpt><trkpt lat="43.52920563404524" lon="11.282416742489525"><ele>340.8</ele><time>2026-04-30T12:43:42.001Z</time></trkpt><trkpt lat="43.52925676716354" lon="11.282550377944224"><ele>340.2</ele><time>2026-04-30T12:43:43.001Z</time></trkpt><trkpt lat="43.52931190919717" lon="11.282690404493799"><ele>339.6</ele><time>2026-04-30T12:43:44.001Z</time></trkpt><trkpt lat="43.52937254933483" lon="11.282799607874498"><ele>339.0</ele><time>2026-04-30T12:43:45.001Z</time></trkpt><trkpt lat="43.52942304710963" lon="11.282913822067067"><ele>339.0</ele><time>2026-04-30T12:43:46.001Z</time></trkpt><trkpt lat="43.52951435360176" lon="11.283015662700581"><ele>339.0</ele><time>2026-04-30T12:43:47.001Z</time></trkpt><trkpt lat="43.529620493623824" lon="11.28306003725391"><ele>339.0</ele><time>2026-04-30T12:43:48.001Z</time></trkpt><trkpt lat="43.52970487328144" lon="11.283125347819622"><ele>339.0</ele><time>2026-04-30T12:43:49.001Z</time></trkpt><trkpt lat="43.529781961978514" lon="11.283202966286332"><ele>339.0</ele><time>2026-04-30T12:43:50.001Z</time></trkpt><trkpt lat="43.52983475121747" lon="11.283273263649255"><ele>338.75</ele><time>2026-04-30T12:43:51.001Z</time></trkpt><trkpt lat="43.52990818723996" lon="11.283400602456593"><ele>338.5</ele><time>2026-04-30T12:43:53.001Z</time></trkpt><trkpt lat="43.529954179490055" lon="11.283537032943167"><ele>338.25</ele><time>2026-04-30T12:43:55.001Z</time></trkpt><trkpt lat="43.529988106049665" lon="11.283728388872158"><ele>338.0</ele><time>2026-04-30T12:43:57.001Z</time></trkpt><trkpt lat="43.52999793371909" lon="11.283863237714757"><ele>338.4</ele><time>2026-04-30T12:43:58.001Z</time></trkpt><trkpt lat="43.53001070978716" lon="11.284005740945156"><ele>338.79999999999995</ele><time>2026-04-30T12:43:59.001Z</time></trkpt><trkpt lat="43.530019738104784" lon="11.28414303103596"><ele>339.2</ele><time>2026-04-30T12:44:00.001Z</time></trkpt><trkpt lat="43.53002782675305" lon="11.284283050386664"><ele>339.6</ele><time>2026-04-30T12:44:01.001Z</time></trkpt><trkpt lat="43.53001640219043" lon="11.284421558905697"><ele>340.0</ele><time>2026-04-30T12:44:02.001Z</time></trkpt><trkpt lat="43.5299813188654" lon="11.284533604130951"><ele>340.0</ele><time>2026-04-30T12:44:03.001Z</time></trkpt><trkpt lat="43.52991899380021" lon="11.284630295888732"><ele>340.0</ele><time>2026-04-30T12:44:04.001Z</time></trkpt><trkpt lat="43.52985873581928" lon="11.284717131064223"><ele>340.0</ele><time>2026-04-30T12:44:05.001Z</time></trkpt><trkpt lat="43.52980854462676" lon="11.284817435687808"><ele>340.0</ele><time>2026-04-30T12:44:06.001Z</time></trkpt><trkpt lat="43.52976629158299" lon="11.284921847855934"><ele>340.0</ele><time>2026-04-30T12:44:07.001Z</time></trkpt><trkpt lat="43.52973563206176" lon="11.285010263946079"><ele>340.0</ele><time>2026-04-30T12:44:08.001Z</time></trkpt><trkpt lat="43.52971593602383" lon="11.285103307168844"><ele>339.8</ele><time>2026-04-30T12:44:09.001Z</time></trkpt><trkpt lat="43.529658453063256" lon="11.285192793677854"><ele>339.6</ele><time>2026-04-30T12:44:10.001Z</time></trkpt><trkpt lat="43.52957364926349" lon="11.285220790670365"><ele>339.4</ele><time>2026-04-30T12:44:11.001Z</time></trkpt><trkpt lat="43.52947644679561" lon="11.285154750863342"><ele>339.2</ele><time>2026-04-30T12:44:12.001Z</time></trkpt><trkpt lat="43.52936096936442" lon="11.285064167873635"><ele>339.0</ele><time>2026-04-30T12:44:13.001Z</time></trkpt><trkpt lat="43.529211701877514" lon="11.284941658485954"><ele>336.3333333333333</ele><time>2026-04-30T12:44:14.001Z</time></trkpt><trkpt lat="43.52906226369291" lon="11.284783567270786"><ele>333.66666666666663</ele><time>2026-04-30T12:44:15.001Z</time></trkpt><trkpt lat="43.52892140424414" lon="11.284621945623849"><ele>331.0</ele><time>2026-04-30T12:44:16.001Z</time></trkpt><trkpt lat="43.52877653785809" lon="11.284463869978275"><ele>326.3333333333333</ele><time>2026-04-30T12:44:17.001Z</time></trkpt><trkpt lat="43.52862425403313" lon="11.284324179616448"><ele>321.6666666666667</ele><time>2026-04-30T12:44:18.001Z</time></trkpt><trkpt lat="43.52846721471946" lon="11.284217084359629"><ele>317.0</ele><time>2026-04-30T12:44:19.001Z</time></trkpt><trkpt lat="43.52831883160443" lon="11.284127805949632"><ele>317.0</ele><time>2026-04-30T12:44:20.001Z</time></trkpt><trkpt lat="43.528179958212114" lon="11.284046626895847"><ele>317.0</ele><time>2026-04-30T12:44:21.001Z</time></trkpt><trkpt lat="43.52805506630733" lon="11.283977715185904"><ele>317.0</ele><time>2026-04-30T12:44:22.001Z</time></trkpt><trkpt lat="43.527917508789116" lon="11.28394094454359"><ele>317.0</ele><time>2026-04-30T12:44:23.001Z</time></trkpt><trkpt lat="43.527758588865986" lon="11.283949044723165"><ele>314.8</ele><time>2026-04-30T12:44:24.001Z</time></trkpt><trkpt lat="43.52762184446822" lon="11.28395645853555"><ele>312.6</ele><time>2026-04-30T12:44:25.001Z</time></trkpt><trkpt lat="43.52750965034081" lon="11.283952179385677"><ele>310.40000000000003</ele><time>2026-04-30T12:44:26.001Z</time></trkpt><trkpt lat="43.52742330318115" lon="11.28393700658815"><ele>308.2</ele><time>2026-04-30T12:44:27.001Z</time></trkpt><trkpt lat="43.5273534365986" lon="11.283931076087887"><ele>306.0</ele><time>2026-04-30T12:44:28.001Z</time></trkpt><trkpt lat="43.52729156259557" lon="11.283967145563842"><ele>306.0</ele><time>2026-04-30T12:44:29.001Z</time></trkpt><trkpt lat="43.527251575268934" lon="11.284049340330466"><ele>306.0</ele><time>2026-04-30T12:44:30.001Z</time></trkpt><trkpt lat="43.527240749603976" lon="11.284169311808164"><ele>306.0</ele><time>2026-04-30T12:44:31.001Z</time></trkpt><trkpt lat="43.52733042065109" lon="11.284286128504005"><ele>306.0</ele><time>2026-04-30T12:44:32.002Z</time></trkpt><trkpt lat="43.527442049855615" lon="11.284395924285874"><ele>306.0</ele><time>2026-04-30T12:44:33.002Z</time></trkpt><trkpt lat="43.52755602219618" lon="11.2845197033719"><ele>306.0</ele><time>2026-04-30T12:44:34.001Z</time></trkpt><trkpt lat="43.52762689473288" lon="11.284686966135897"><ele>306.0</ele><time>2026-04-30T12:44:35.001Z</time></trkpt><trkpt lat="43.52768830621178" lon="11.284858712106413"><ele>306.0</ele><time>2026-04-30T12:44:36.001Z</time></trkpt><trkpt lat="43.52773782500139" lon="11.285024958478283"><ele>306.0</ele><time>2026-04-30T12:44:37.001Z</time></trkpt><trkpt lat="43.52776078396872" lon="11.285222839980744"><ele>304.0</ele><time>2026-04-30T12:44:38Z</time></trkpt><trkpt lat="43.527748040591064" lon="11.285438640873084"><ele>302.0</ele><time>2026-04-30T12:44:39Z</time></trkpt><trkpt lat="43.527720769479366" lon="11.285642995041355"><ele>300.0</ele><time>2026-04-30T12:44:40Z</time></trkpt><trkpt lat="43.52769463312202" lon="11.285823085784642"><ele>298.0</ele><time>2026-04-30T12:44:41Z</time></trkpt><trkpt lat="43.527642799360265" lon="11.285985018361323"><ele>298.0</ele><time>2026-04-30T12:44:42Z</time></trkpt><trkpt lat="43.527546316131485" lon="11.28609191430966"><ele>298.0</ele><time>2026-04-30T12:44:43Z</time></trkpt><trkpt lat="43.527415388125235" lon="11.286203395885451"><ele>298.0</ele><time>2026-04-30T12:44:44Z</time></trkpt><trkpt lat="43.52727496207922" lon="11.286271468185982"><ele>298.0</ele><time>2026-04-30T12:44:45Z</time></trkpt><trkpt lat="43.5271680024609" lon="11.286343201141236"><ele>298.5</ele><time>2026-04-30T12:44:46Z</time></trkpt><trkpt lat="43.527080925609475" lon="11.286428337041459"><ele>299.0</ele><time>2026-04-30T12:44:47Z</time></trkpt><trkpt lat="43.526993051986906" lon="11.286542101349948"><ele>299.5</ele><time>2026-04-30T12:44:48Z</time></trkpt><trkpt lat="43.526956171506335" lon="11.286739195061337"><ele>300.0</ele><time>2026-04-30T12:44:49Z</time></trkpt><trkpt lat="43.52691035511858" lon="11.28691984194006"><ele>296.25</ele><time>2026-04-30T12:44:50Z</time></trkpt><trkpt lat="43.52686660455985" lon="11.287085512837562"><ele>292.5</ele><time>2026-04-30T12:44:51Z</time></trkpt><trkpt lat="43.52683102629165" lon="11.287253057941788"><ele>288.75</ele><time>2026-04-30T12:44:52Z</time></trkpt><trkpt lat="43.52680998620685" lon="11.287441196852951"><ele>285.0</ele><time>2026-04-30T12:44:53Z</time></trkpt><trkpt lat="43.52681128242335" lon="11.287640564230722"><ele>284.75</ele><time>2026-04-30T12:44:54Z</time></trkpt><trkpt lat="43.52682953480922" lon="11.287838906796896"><ele>284.5</ele><time>2026-04-30T12:44:55Z</time></trkpt><trkpt lat="43.52686654043803" lon="11.288026879052044"><ele>284.25</ele><time>2026-04-30T12:44:56Z</time></trkpt><trkpt lat="43.52690747298732" lon="11.288208454836333"><ele>284.0</ele><time>2026-04-30T12:44:57Z</time></trkpt><trkpt lat="43.52694757651041" lon="11.288384241934487"><ele>281.75</ele><time>2026-04-30T12:44:58Z</time></trkpt><trkpt lat="43.52698587647155" lon="11.288553204148508"><ele>279.5</ele><time>2026-04-30T12:44:59Z</time></trkpt><trkpt lat="43.527034823135644" lon="11.288701834912134"><ele>277.25</ele><time>2026-04-30T12:45:00Z</time></trkpt><trkpt lat="43.52704970275742" lon="11.288862100802065"><ele>275.0</ele><time>2026-04-30T12:45:01Z</time></trkpt><trkpt lat="43.5270629361643" lon="11.289032869026721"><ele>275.0</ele><time>2026-04-30T12:45:02Z</time></trkpt><trkpt lat="43.5270629457829" lon="11.289218574554447"><ele>275.0</ele><time>2026-04-30T12:45:03Z</time></trkpt><trkpt lat="43.527042233416495" lon="11.289406199330207"><ele>275.0</ele><time>2026-04-30T12:45:04Z</time></trkpt><trkpt lat="43.52698282092519" lon="11.289583798804983"><ele>275.0</ele><time>2026-04-30T12:45:05Z</time></trkpt><trkpt lat="43.52689987331904" lon="11.289748222909806"><ele>273.0</ele><time>2026-04-30T12:45:06Z</time></trkpt><trkpt lat="43.52679058822894" lon="11.289883808832823"><ele>271.0</ele><time>2026-04-30T12:45:07.001Z</time></trkpt><trkpt lat="43.52666361708853" lon="11.289967321021626"><ele>269.0</ele><time>2026-04-30T12:45:08.001Z</time></trkpt><trkpt lat="43.52654524197282" lon="11.290062539516146"><ele>267.0</ele><time>2026-04-30T12:45:09.001Z</time></trkpt><trkpt lat="43.526407833140055" lon="11.290095539657404"><ele>267.0</ele><time>2026-04-30T12:45:10.001Z</time></trkpt><trkpt lat="43.52627420706736" lon="11.290135085483273"><ele>267.0</ele><time>2026-04-30T12:45:11.001Z</time></trkpt><trkpt lat="43.52613847317005" lon="11.290178592479926"><ele>267.0</ele><time>2026-04-30T12:45:12.001Z</time></trkpt><trkpt lat="43.5260005472035" lon="11.290224467201865"><ele>267.0</ele><time>2026-04-30T12:45:13.001Z</time></trkpt><trkpt lat="43.525861571045645" lon="11.290269463096259"><ele>267.75</ele><time>2026-04-30T12:45:14.001Z</time></trkpt><trkpt lat="43.52572602790745" lon="11.290330266934044"><ele>268.5</ele><time>2026-04-30T12:45:15.001Z</time></trkpt><trkpt lat="43.525591552467226" lon="11.290362569659258"><ele>269.25</ele><time>2026-04-30T12:45:16.001Z</time></trkpt><trkpt lat="43.525452906580306" lon="11.290393147055676"><ele>270.0</ele><time>2026-04-30T12:45:17.001Z</time></trkpt><trkpt lat="43.52531387179845" lon="11.290401053785393"><ele>272.0</ele><time>2026-04-30T12:45:18.001Z</time></trkpt><trkpt lat="43.525173346777535" lon="11.29039925489857"><ele>274.0</ele><time>2026-04-30T12:45:19.001Z</time></trkpt><trkpt lat="43.525035126448856" lon="11.290406481932205"><ele>276.0</ele><time>2026-04-30T12:45:20.001Z</time></trkpt><trkpt lat="43.52487562325267" lon="11.290443345836357"><ele>278.0</ele><time>2026-04-30T12:45:21.001Z</time></trkpt><trkpt lat="43.524728930450756" lon="11.290500926401222"><ele>278.0</ele><time>2026-04-30T12:45:22.001Z</time></trkpt><trkpt lat="43.52459226115329" lon="11.290566502567883"><ele>278.0</ele><time>2026-04-30T12:45:23.001Z</time></trkpt><trkpt lat="43.524464052420996" lon="11.290599286264008"><ele>278.0</ele><time>2026-04-30T12:45:24.001Z</time></trkpt><trkpt lat="43.52432338237086" lon="11.290598286246833"><ele>278.0</ele><time>2026-04-30T12:45:25.001Z</time></trkpt><trkpt lat="43.52417214299611" lon="11.290584357721976"><ele>278.6666666666667</ele><time>2026-04-30T12:45:26.001Z</time></trkpt><trkpt lat="43.52402297398153" lon="11.290543346223714"><ele>279.3333333333333</ele><time>2026-04-30T12:45:27.001Z</time></trkpt><trkpt lat="43.523868876841824" lon="11.290545995685765"><ele>280.0</ele><time>2026-04-30T12:45:28.001Z</time></trkpt><trkpt lat="43.52371802457259" lon="11.290530232815826"><ele>281.66666666666663</ele><time>2026-04-30T12:45:29.001Z</time></trkpt><trkpt lat="43.52355650505551" lon="11.290557940908785"><ele>283.3333333333333</ele><time>2026-04-30T12:45:30.001Z</time></trkpt><trkpt lat="43.52340021434364" lon="11.290594814683447"><ele>285.0</ele><time>2026-04-30T12:45:31.001Z</time></trkpt><trkpt lat="43.52325114454217" lon="11.29064813090969"><ele>286.0</ele><time>2026-04-30T12:45:32.001Z</time></trkpt><trkpt lat="43.52310128760488" lon="11.29070722222031"><ele>287.0</ele><time>2026-04-30T12:45:33.001Z</time></trkpt><trkpt lat="43.52296346616737" lon="11.29076386694291"><ele>288.0</ele><time>2026-04-30T12:45:34.001Z</time></trkpt><trkpt lat="43.52283872579207" lon="11.29080308920387"><ele>289.0</ele><time>2026-04-30T12:45:35.001Z</time></trkpt><trkpt lat="43.52271790429444" lon="11.29083439745853"><ele>289.0</ele><time>2026-04-30T12:45:36.001Z</time></trkpt><trkpt lat="43.52259861698038" lon="11.290868414109545"><ele>289.0</ele><time>2026-04-30T12:45:37.001Z</time></trkpt><trkpt lat="43.522485772166426" lon="11.290921260432988"><ele>289.0</ele><time>2026-04-30T12:45:38.001Z</time></trkpt><trkpt lat="43.52237943301456" lon="11.291020752526464"><ele>289.0</ele><time>2026-04-30T12:45:39.001Z</time></trkpt><trkpt lat="43.52226853144231" lon="11.291167510194674"><ele>289.0</ele><time>2026-04-30T12:45:40.001Z</time></trkpt><trkpt lat="43.52218741666514" lon="11.291312097640198"><ele>289.0</ele><time>2026-04-30T12:45:41.001Z</time></trkpt><trkpt lat="43.522093094192094" lon="11.291445072782409"><ele>289.0</ele><time>2026-04-30T12:45:42.001Z</time></trkpt><trkpt lat="43.52198827498934" lon="11.291589217469937"><ele>289.0</ele><time>2026-04-30T12:45:43.001Z</time></trkpt><trkpt lat="43.52187572322143" lon="11.29170782240983"><ele>287.75</ele><time>2026-04-30T12:45:44.001Z</time></trkpt><trkpt lat="43.52175767720282" lon="11.291791032894817"><ele>286.5</ele><time>2026-04-30T12:45:45.001Z</time></trkpt><trkpt lat="43.52162760435454" lon="11.291826682998545"><ele>285.25</ele><time>2026-04-30T12:45:46.001Z</time></trkpt><trkpt lat="43.52150477012886" lon="11.291792463613499"><ele>284.0</ele><time>2026-04-30T12:45:47.001Z</time></trkpt><trkpt lat="43.52137809485959" lon="11.2917535737071"><ele>284.0</ele><time>2026-04-30T12:45:48.001Z</time></trkpt><trkpt lat="43.521248637134406" lon="11.29172975559288"><ele>284.0</ele><time>2026-04-30T12:45:49.001Z</time></trkpt><trkpt lat="43.521125998686465" lon="11.291687156873078"><ele>284.0</ele><time>2026-04-30T12:45:50.001Z</time></trkpt><trkpt lat="43.52101397431378" lon="11.291646133243189"><ele>284.0</ele><time>2026-04-30T12:45:51.001Z</time></trkpt><trkpt lat="43.520896249341206" lon="11.291622810263881"><ele>283.59999999999997</ele><time>2026-04-30T12:45:52.001Z</time></trkpt><trkpt lat="43.520780190700734" lon="11.29166500600852"><ele>283.2</ele><time>2026-04-30T12:45:53.001Z</time></trkpt><trkpt lat="43.52065062034795" lon="11.291710925522398"><ele>282.79999999999995</ele><time>2026-04-30T12:45:54.001Z</time></trkpt><trkpt lat="43.52055526904523" lon="11.29174225638024"><ele>282.4</ele><time>2026-04-30T12:45:55.001Z</time></trkpt><trkpt lat="43.52046086961686" lon="11.291710445295353"><ele>282.0</ele><time>2026-04-30T12:45:56.001Z</time></trkpt><trkpt lat="43.520364619618846" lon="11.291705140227425"><ele>281.6</ele><time>2026-04-30T12:45:57.001Z</time></trkpt><trkpt lat="43.520268873732135" lon="11.291684814433802"><ele>281.2</ele><time>2026-04-30T12:45:58.001Z</time></trkpt><trkpt lat="43.520190790630416" lon="11.291700693635683"><ele>280.8</ele><time>2026-04-30T12:45:59.001Z</time></trkpt><trkpt lat="43.52010767100167" lon="11.291719064651106"><ele>280.4</ele><time>2026-04-30T12:46:01.001Z</time></trkpt><trkpt lat="43.520054178312066" lon="11.291796902441497"><ele>280.0</ele><time>2026-04-30T12:46:04.001Z</time></trkpt><trkpt lat="43.52008425147314" lon="11.291975197296622"><ele>280.0</ele><time>2026-04-30T12:46:07.001Z</time></trkpt><trkpt lat="43.52010924484057" lon="11.292075949109556"><ele>280.0</ele><time>2026-04-30T12:46:08.001Z</time></trkpt><trkpt lat="43.52013218511879" lon="11.292214864557591"><ele>280.0</ele><time>2026-04-30T12:46:09.001Z</time></trkpt><trkpt lat="43.520141528447105" lon="11.292382888949016"><ele>280.0</ele><time>2026-04-30T12:46:10.001Z</time></trkpt><trkpt lat="43.52015962505383" lon="11.292530367299813"><ele>280.0</ele><time>2026-04-30T12:46:11.001Z</time></trkpt><trkpt lat="43.52018189020727" lon="11.292670017031838"><ele>278.4</ele><time>2026-04-30T12:46:12.001Z</time></trkpt><trkpt lat="43.52019516334729" lon="11.29279560102354"><ele>276.8</ele><time>2026-04-30T12:46:13.001Z</time></trkpt><trkpt lat="43.5202074579729" lon="11.292922203161492"><ele>275.2</ele><time>2026-04-30T12:46:14.001Z</time></trkpt><trkpt lat="43.520188415796596" lon="11.293062493261115"><ele>273.6</ele><time>2026-04-30T12:46:15.001Z</time></trkpt><trkpt lat="43.520122632750386" lon="11.293226993339026"><ele>272.0</ele><time>2026-04-30T12:46:16.001Z</time></trkpt><trkpt lat="43.520040454500716" lon="11.293351825098672"><ele>272.0</ele><time>2026-04-30T12:46:17.001Z</time></trkpt><trkpt lat="43.51997504278483" lon="11.293457719965755"><ele>272.0</ele><time>2026-04-30T12:46:18.001Z</time></trkpt><trkpt lat="43.51991578804773" lon="11.29355410825981"><ele>272.0</ele><time>2026-04-30T12:46:19.001Z</time></trkpt><trkpt lat="43.5199322459088" lon="11.29373914910497"><ele>272.0</ele><time>2026-04-30T12:46:20.001Z</time></trkpt><trkpt lat="43.51996686942098" lon="11.293861487713828"><ele>272.0</ele><time>2026-04-30T12:46:21.001Z</time></trkpt><trkpt lat="43.5200602398815" lon="11.293934418561218"><ele>275.6666666666667</ele><time>2026-04-30T12:46:22.001Z</time></trkpt><trkpt lat="43.52018765571026" lon="11.293958511612184"><ele>279.3333333333333</ele><time>2026-04-30T12:46:23.001Z</time></trkpt><trkpt lat="43.520329691882615" lon="11.293989147819168"><ele>283.0</ele><time>2026-04-30T12:46:24.001Z</time></trkpt><trkpt lat="43.520508329743336" lon="11.294052053239408"><ele>283.3333333333333</ele><time>2026-04-30T12:46:25.001Z</time></trkpt><trkpt lat="43.52069306152225" lon="11.294110331871625"><ele>283.6666666666667</ele><time>2026-04-30T12:46:26.001Z</time></trkpt><trkpt lat="43.52087064909218" lon="11.294167241188262"><ele>284.0</ele><time>2026-04-30T12:46:27.001Z</time></trkpt><trkpt lat="43.521036062359435" lon="11.294229783897855"><ele>284.0</ele><time>2026-04-30T12:46:28.001Z</time></trkpt><trkpt lat="43.52118994431822" lon="11.29429363201537"><ele>284.0</ele><time>2026-04-30T12:46:29.001Z</time></trkpt><trkpt lat="43.521328868822444" lon="11.294335552686292"><ele>284.0</ele><time>2026-04-30T12:46:30.001Z</time></trkpt><trkpt lat="43.52144163878006" lon="11.29438558731756"><ele>284.0</ele><time>2026-04-30T12:46:31.001Z</time></trkpt><trkpt lat="43.52153619879887" lon="11.294466084341556"><ele>283.0</ele><time>2026-04-30T12:46:32.001Z</time></trkpt><trkpt lat="43.52160099050843" lon="11.294584268868027"><ele>282.0</ele><time>2026-04-30T12:46:33.001Z</time></trkpt><trkpt lat="43.52157424574794" lon="11.294746400990826"><ele>281.0</ele><time>2026-04-30T12:46:34.001Z</time></trkpt><trkpt lat="43.52148875249469" lon="11.294811495998585"><ele>280.0</ele><time>2026-04-30T12:46:35.001Z</time></trkpt><trkpt lat="43.52141401307289" lon="11.2948540323206"><ele>279.0</ele><time>2026-04-30T12:46:36.001Z</time></trkpt><trkpt lat="43.52132564922582" lon="11.294843016821778"><ele>280.6666666666667</ele><time>2026-04-30T12:46:37.001Z</time></trkpt><trkpt lat="43.52119306319353" lon="11.294817114823326"><ele>282.33333333333337</ele><time>2026-04-30T12:46:38.001Z</time></trkpt><trkpt lat="43.52102225213655" lon="11.294783842252835"><ele>284.0</ele><time>2026-04-30T12:46:39.001Z</time></trkpt><trkpt lat="43.520852971483976" lon="11.294742143501528"><ele>284.0</ele><time>2026-04-30T12:46:40.001Z</time></trkpt><trkpt lat="43.52070017047268" lon="11.29467409639048"><ele>284.0</ele><time>2026-04-30T12:46:41.001Z</time></trkpt><trkpt lat="43.5205120781135" lon="11.294591101243965"><ele>284.0</ele><time>2026-04-30T12:46:42.001Z</time></trkpt><trkpt lat="43.52039361949911" lon="11.294552221160771"><ele>283.75</ele><time>2026-04-30T12:46:43.001Z</time></trkpt><trkpt lat="43.520273078900765" lon="11.294557882007112"><ele>283.5</ele><time>2026-04-30T12:46:44.001Z</time></trkpt><trkpt lat="43.52014325130036" lon="11.294629172100384"><ele>283.25</ele><time>2026-04-30T12:46:45.001Z</time></trkpt><trkpt lat="43.52002918440257" lon="11.294740125595082"><ele>283.0</ele><time>2026-04-30T12:46:46Z</time></trkpt><trkpt lat="43.51992333449784" lon="11.294848665773607"><ele>288.0</ele><time>2026-04-30T12:46:47Z</time></trkpt><trkpt lat="43.51981510511869" lon="11.294943904226036"><ele>293.0</ele><time>2026-04-30T12:46:48Z</time></trkpt><trkpt lat="43.519723181992276" lon="11.295062658203369"><ele>298.0</ele><time>2026-04-30T12:46:49Z</time></trkpt><trkpt lat="43.51964126156239" lon="11.295220624832808"><ele>303.0</ele><time>2026-04-30T12:46:50Z</time></trkpt><trkpt lat="43.519594712533056" lon="11.295404333055505"><ele>304.75</ele><time>2026-04-30T12:46:51Z</time></trkpt><trkpt lat="43.51958661456345" lon="11.295594736656813"><ele>306.5</ele><time>2026-04-30T12:46:52Z</time></trkpt><trkpt lat="43.51960951579987" lon="11.295794710480955"><ele>308.25</ele><time>2026-04-30T12:46:53Z</time></trkpt><trkpt lat="43.519679737390305" lon="11.295984002578159"><ele>310.0</ele><time>2026-04-30T12:46:54Z</time></trkpt><trkpt lat="43.51978534112212" lon="11.296153156693334"><ele>310.0</ele><time>2026-04-30T12:46:55Z</time></trkpt><trkpt lat="43.519919270400905" lon="11.296330413247029"><ele>310.0</ele><time>2026-04-30T12:46:56Z</time></trkpt><trkpt lat="43.520055991123655" lon="11.296534795650865"><ele>310.0</ele><time>2026-04-30T12:46:57Z</time></trkpt><trkpt lat="43.52019771370847" lon="11.296749242202397"><ele>307.3333333333333</ele><time>2026-04-30T12:46:58Z</time></trkpt><trkpt lat="43.52033689466228" lon="11.29695629391925"><ele>304.6666666666667</ele><time>2026-04-30T12:46:59Z</time></trkpt><trkpt lat="43.520476264418676" lon="11.297161139087105"><ele>302.0</ele><time>2026-04-30T12:47:00Z</time></trkpt><trkpt lat="43.52060602006224" lon="11.297359492474447"><ele>307.6666666666667</ele><time>2026-04-30T12:47:01Z</time></trkpt><trkpt lat="43.52072276992499" lon="11.297542676621845"><ele>313.3333333333333</ele><time>2026-04-30T12:47:02Z</time></trkpt><trkpt lat="43.52082562894821" lon="11.29770940457662"><ele>319.0</ele><time>2026-04-30T12:47:03Z</time></trkpt><trkpt lat="43.52091814186679" lon="11.29784894192655"><ele>319.0</ele><time>2026-04-30T12:47:04Z</time></trkpt><trkpt lat="43.52102276301581" lon="11.297972598392079"><ele>319.0</ele><time>2026-04-30T12:47:05Z</time></trkpt><trkpt lat="43.52116885582453" lon="11.298052322002983"><ele>319.0</ele><time>2026-04-30T12:47:06Z</time></trkpt><trkpt lat="43.52134617582035" lon="11.298100435823034"><ele>319.3333333333333</ele><time>2026-04-30T12:47:07Z</time></trkpt><trkpt lat="43.52149344736684" lon="11.298095713402999"><ele>319.6666666666667</ele><time>2026-04-30T12:47:08Z</time></trkpt><trkpt lat="43.521679233775124" lon="11.29809809711957"><ele>320.0</ele><time>2026-04-30T12:47:09Z</time></trkpt><trkpt lat="43.52184265504396" lon="11.298116314056694"><ele>320.0</ele><time>2026-04-30T12:47:10Z</time></trkpt><trkpt lat="43.52198568077545" lon="11.298186376817386"><ele>320.0</ele><time>2026-04-30T12:47:11Z</time></trkpt><trkpt lat="43.522158076547456" lon="11.298306017009374"><ele>320.0</ele><time>2026-04-30T12:47:12Z</time></trkpt><trkpt lat="43.52232819516937" lon="11.298460140110045"><ele>324.33333333333337</ele><time>2026-04-30T12:47:13Z</time></trkpt><trkpt lat="43.52249059162859" lon="11.298605129123798"><ele>328.6666666666667</ele><time>2026-04-30T12:47:14Z</time></trkpt><trkpt lat="43.52264913108163" lon="11.298736790449233"><ele>333.0</ele><time>2026-04-30T12:47:15Z</time></trkpt><trkpt lat="43.52280470947035" lon="11.298870428254922"><ele>335.0</ele><time>2026-04-30T12:47:16Z</time></trkpt><trkpt lat="43.52295819682728" lon="11.299001173293332"><ele>337.0</ele><time>2026-04-30T12:47:17Z</time></trkpt><trkpt lat="43.52310271923628" lon="11.29913039298322"><ele>339.0</ele><time>2026-04-30T12:47:18Z</time></trkpt><trkpt lat="43.52324465450971" lon="11.299250323441496"><ele>339.0</ele><time>2026-04-30T12:47:19Z</time></trkpt><trkpt lat="43.523384710644535" lon="11.29936965424463"><ele>339.0</ele><time>2026-04-30T12:47:20Z</time></trkpt><trkpt lat="43.523519542718354" lon="11.299487572239368"><ele>339.0</ele><time>2026-04-30T12:47:21Z</time></trkpt><trkpt lat="43.52365602679169" lon="11.299597130730515"><ele>341.25</ele><time>2026-04-30T12:47:22Z</time></trkpt><trkpt lat="43.523790349288575" lon="11.299700293426085"><ele>343.5</ele><time>2026-04-30T12:47:23Z</time></trkpt><trkpt lat="43.52391336425414" lon="11.299812148282165"><ele>345.75</ele><time>2026-04-30T12:47:24Z</time></trkpt><trkpt lat="43.5240314333098" lon="11.299925762361834"><ele>348.0</ele><time>2026-04-30T12:47:25Z</time></trkpt><trkpt lat="43.52414101115422" lon="11.300059641217668"><ele>348.0</ele><time>2026-04-30T12:47:26Z</time></trkpt><trkpt lat="43.52421551600933" lon="11.300225984036244"><ele>348.0</ele><time>2026-04-30T12:47:27Z</time></trkpt><trkpt lat="43.524246552809245" lon="11.300435231249402"><ele>348.0</ele><time>2026-04-30T12:47:28Z</time></trkpt><trkpt lat="43.52419729924747" lon="11.300654143390167"><ele>347.75</ele><time>2026-04-30T12:47:29.001Z</time></trkpt><trkpt lat="43.524145173232746" lon="11.30087005898879"><ele>347.5</ele><time>2026-04-30T12:47:30.001Z</time></trkpt><trkpt lat="43.52410925186436" lon="11.301048642281199"><ele>347.25</ele><time>2026-04-30T12:47:31.001Z</time></trkpt><trkpt lat="43.52410114679536" lon="11.301204820163202"><ele>347.0</ele><time>2026-04-30T12:47:32.001Z</time></trkpt><trkpt lat="43.5241548381896" lon="11.301348670840472"><ele>346.33333333333337</ele><time>2026-04-30T12:47:33.001Z</time></trkpt><trkpt lat="43.524274102290846" lon="11.301475032633022"><ele>345.6666666666667</ele><time>2026-04-30T12:47:34.001Z</time></trkpt><trkpt lat="43.52442017939869" lon="11.301596878570244"><ele>345.0</ele><time>2026-04-30T12:47:35.001Z</time></trkpt><trkpt lat="43.5245647718253" lon="11.301745249750063"><ele>349.3333333333333</ele><time>2026-04-30T12:47:36.001Z</time></trkpt><trkpt lat="43.52469165006473" lon="11.301886374182457"><ele>353.66666666666663</ele><time>2026-04-30T12:47:37.001Z</time></trkpt><trkpt lat="43.52481214161269" lon="11.30201458821032"><ele>358.0</ele><time>2026-04-30T12:47:38.001Z</time></trkpt><trkpt lat="43.52492413558214" lon="11.302135307191092"><ele>358.0</ele><time>2026-04-30T12:47:39.001Z</time></trkpt><trkpt lat="43.52502171812471" lon="11.302235069654632"><ele>358.0</ele><time>2026-04-30T12:47:40.001Z</time></trkpt><trkpt lat="43.52510611778527" lon="11.302315208544949"><ele>358.0</ele><time>2026-04-30T12:47:41.001Z</time></trkpt><trkpt lat="43.52517464274092" lon="11.302392925702053"><ele>358.0</ele><time>2026-04-30T12:47:42.001Z</time></trkpt><trkpt lat="43.525233479194554" lon="11.30245878919249"><ele>358.0</ele><time>2026-04-30T12:47:43.001Z</time></trkpt><trkpt lat="43.52531055104404" lon="11.302559858853034"><ele>357.4</ele><time>2026-04-30T12:47:45.001Z</time></trkpt><trkpt lat="43.52526612699067" lon="11.302699585303616"><ele>356.79999999999995</ele><time>2026-04-30T12:47:47.001Z</time></trkpt><trkpt lat="43.52519006132389" lon="11.302747099562797"><ele>356.2</ele><time>2026-04-30T12:47:48.001Z</time></trkpt><trkpt lat="43.525089859645306" lon="11.302715527550802"><ele>355.6</ele><time>2026-04-30T12:47:49.001Z</time></trkpt><trkpt lat="43.52497962526011" lon="11.302744774025104"><ele>355.0</ele><time>2026-04-30T12:47:50.001Z</time></trkpt><trkpt lat="43.524866548987816" lon="11.302763094987565"><ele>355.0</ele><time>2026-04-30T12:47:51.001Z</time></trkpt><trkpt lat="43.5247501786795" lon="11.302800332331357"><ele>355.0</ele><time>2026-04-30T12:47:52.001Z</time></trkpt><trkpt lat="43.52463867405006" lon="11.302874301454953"><ele>355.0</ele><time>2026-04-30T12:47:53.001Z</time></trkpt><trkpt lat="43.52453469707774" lon="11.302980424124874"><ele>355.0</ele><time>2026-04-30T12:47:54.001Z</time></trkpt><trkpt lat="43.52444283249556" lon="11.303092746168334"><ele>353.0</ele><time>2026-04-30T12:47:55.001Z</time></trkpt><trkpt lat="43.52436903310662" lon="11.30322430440018"><ele>351.0</ele><time>2026-04-30T12:47:56.001Z</time></trkpt><trkpt lat="43.524321684999244" lon="11.303376613804017"><ele>349.0</ele><time>2026-04-30T12:47:57.001Z</time></trkpt><trkpt lat="43.52432463449077" lon="11.3035012031392"><ele>347.0</ele><time>2026-04-30T12:47:58.001Z</time></trkpt><trkpt lat="43.524371930138464" lon="11.303636360634243"><ele>345.0</ele><time>2026-04-30T12:47:59.001Z</time></trkpt><trkpt lat="43.52447805089121" lon="11.303763581180268"><ele>346.0</ele><time>2026-04-30T12:48:00.001Z</time></trkpt><trkpt lat="43.524621734546244" lon="11.303865052121104"><ele>347.0</ele><time>2026-04-30T12:48:01.001Z</time></trkpt><trkpt lat="43.52477940142659" lon="11.303939512363561"><ele>348.0</ele><time>2026-04-30T12:48:02.001Z</time></trkpt><trkpt lat="43.52490975085463" lon="11.303997234705612"><ele>348.0</ele><time>2026-04-30T12:48:03.001Z</time></trkpt><trkpt lat="43.525018790508895" lon="11.30411977117277"><ele>348.0</ele><time>2026-04-30T12:48:04.001Z</time></trkpt><trkpt lat="43.525116416555875" lon="11.304286478122012"><ele>348.0</ele><time>2026-04-30T12:48:05.001Z</time></trkpt><trkpt lat="43.52524452734006" lon="11.30451270090394"><ele>350.0</ele><time>2026-04-30T12:48:06.001Z</time></trkpt><trkpt lat="43.525348596254815" lon="11.304758891098832"><ele>352.0</ele><time>2026-04-30T12:48:07.001Z</time></trkpt><trkpt lat="43.525454107328976" lon="11.304993586047221"><ele>354.0</ele><time>2026-04-30T12:48:08.001Z</time></trkpt><trkpt lat="43.52554974068042" lon="11.305202672538922"><ele>354.0</ele><time>2026-04-30T12:48:09.001Z</time></trkpt><trkpt lat="43.52563880807919" lon="11.305393141191022"><ele>354.0</ele><time>2026-04-30T12:48:10.001Z</time></trkpt><trkpt lat="43.52571324261371" lon="11.305554493804847"><ele>354.0</ele><time>2026-04-30T12:48:11.001Z</time></trkpt><trkpt lat="43.52573970503826" lon="11.305715418086596"><ele>354.0</ele><time>2026-04-30T12:48:12.001Z</time></trkpt><trkpt lat="43.525757699452356" lon="11.305866209363984"><ele>352.25</ele><time>2026-04-30T12:48:13.001Z</time></trkpt><trkpt lat="43.52576187089366" lon="11.30600903307411"><ele>350.5</ele><time>2026-04-30T12:48:14.001Z</time></trkpt><trkpt lat="43.52569794865218" lon="11.306148802873444"><ele>348.75</ele><time>2026-04-30T12:48:15.001Z</time></trkpt><trkpt lat="43.52558045066811" lon="11.306250518454737"><ele>347.0</ele><time>2026-04-30T12:48:16.001Z</time></trkpt><trkpt lat="43.52544884842536" lon="11.306276508294014"><ele>344.0</ele><time>2026-04-30T12:48:17.001Z</time></trkpt><trkpt lat="43.52530520400562" lon="11.306206930592014"><ele>341.0</ele><time>2026-04-30T12:48:18.001Z</time></trkpt><trkpt lat="43.52512821881224" lon="11.306159582405947"><ele>338.0</ele><time>2026-04-30T12:48:19.001Z</time></trkpt><trkpt lat="43.52494090912984" lon="11.306126622959708"><ele>338.0</ele><time>2026-04-30T12:48:20.001Z</time></trkpt><trkpt lat="43.52478468182141" lon="11.306081935775971"><ele>338.0</ele><time>2026-04-30T12:48:21.001Z</time></trkpt><trkpt lat="43.52465240031981" lon="11.306043211081073"><ele>338.0</ele><time>2026-04-30T12:48:22.001Z</time></trkpt><trkpt lat="43.5245319918174" lon="11.306010369980823"><ele>338.0</ele><time>2026-04-30T12:48:23.001Z</time></trkpt><trkpt lat="43.52441706948698" lon="11.305974227865017"><ele>337.75</ele><time>2026-04-30T12:48:24.001Z</time></trkpt><trkpt lat="43.52429715380164" lon="11.305942121227643"><ele>337.5</ele><time>2026-04-30T12:48:25.001Z</time></trkpt><trkpt lat="43.524155360396776" lon="11.305911176011598"><ele>337.25</ele><time>2026-04-30T12:48:26.001Z</time></trkpt><trkpt lat="43.524014753979685" lon="11.305883297327435"><ele>337.0</ele><time>2026-04-30T12:48:27.001Z</time></trkpt><trkpt lat="43.52388093692589" lon="11.305850743914615"><ele>337.0</ele><time>2026-04-30T12:48:28.001Z</time></trkpt><trkpt lat="43.52374392023582" lon="11.30582993369818"><ele>337.0</ele><time>2026-04-30T12:48:29.001Z</time></trkpt><trkpt lat="43.523611802519504" lon="11.305791333964237"><ele>337.0</ele><time>2026-04-30T12:48:30.001Z</time></trkpt><trkpt lat="43.5234798215406" lon="11.305754484203545"><ele>337.0</ele><time>2026-04-30T12:48:31.001Z</time></trkpt><trkpt lat="43.52334835064215" lon="11.305723114506815"><ele>336.75</ele><time>2026-04-30T12:48:32.001Z</time></trkpt><trkpt lat="43.52321765755707" lon="11.305679160939096"><ele>336.5</ele><time>2026-04-30T12:48:33.001Z</time></trkpt><trkpt lat="43.52308765048092" lon="11.305632668771516"><ele>336.25</ele><time>2026-04-30T12:48:34.001Z</time></trkpt><trkpt lat="43.52295990730483" lon="11.305578520427188"><ele>336.0</ele><time>2026-04-30T12:48:35.001Z</time></trkpt><trkpt lat="43.522828187946104" lon="11.305467766759845"><ele>331.0</ele><time>2026-04-30T12:48:36.001Z</time></trkpt><trkpt lat="43.52268067441834" lon="11.305376717853857"><ele>326.0</ele><time>2026-04-30T12:48:37.001Z</time></trkpt><trkpt lat="43.522543409401806" lon="11.305263706330306"><ele>321.0</ele><time>2026-04-30T12:48:38.001Z</time></trkpt><trkpt lat="43.522415032275724" lon="11.305167831890055"><ele>321.0</ele><time>2026-04-30T12:48:39.001Z</time></trkpt><trkpt lat="43.522277498931395" lon="11.305102560451832"><ele>321.0</ele><time>2026-04-30T12:48:40.001Z</time></trkpt><trkpt lat="43.52213905288112" lon="11.30505529886864"><ele>321.0</ele><time>2026-04-30T12:48:41.001Z</time></trkpt><trkpt lat="43.522002440421254" lon="11.30501691511949"><ele>321.0</ele><time>2026-04-30T12:48:42.001Z</time></trkpt><trkpt lat="43.521864885579454" lon="11.304994858162887"><ele>319.75</ele><time>2026-04-30T12:48:43.001Z</time></trkpt><trkpt lat="43.52172462230517" lon="11.304979348446706"><ele>318.5</ele><time>2026-04-30T12:48:44.001Z</time></trkpt><trkpt lat="43.52157378256069" lon="11.304982528058337"><ele>317.25</ele><time>2026-04-30T12:48:45.001Z</time></trkpt><trkpt lat="43.521425991993446" lon="11.305013365443964"><ele>316.0</ele><time>2026-04-30T12:48:46Z</time></trkpt><trkpt lat="43.52128768141917" lon="11.305061926880919"><ele>314.25</ele><time>2026-04-30T12:48:47Z</time></trkpt><trkpt lat="43.52117246142293" lon="11.305135443827275"><ele>312.5</ele><time>2026-04-30T12:48:48Z</time></trkpt><trkpt lat="43.521075199357576" lon="11.305248751453306"><ele>310.75</ele><time>2026-04-30T12:48:49Z</time></trkpt><trkpt lat="43.521021317011886" lon="11.305412230687141"><ele>309.0</ele><time>2026-04-30T12:48:50Z</time></trkpt><trkpt lat="43.52100071561062" lon="11.305600823927232"><ele>309.0</ele><time>2026-04-30T12:48:51Z</time></trkpt><trkpt lat="43.52102794958509" lon="11.305857834597054"><ele>309.0</ele><time>2026-04-30T12:48:52Z</time></trkpt><trkpt lat="43.52105136945732" lon="11.306093773352794"><ele>309.0</ele><time>2026-04-30T12:48:53Z</time></trkpt><trkpt lat="43.52106282716662" lon="11.306299059282676"><ele>308.0</ele><time>2026-04-30T12:48:54Z</time></trkpt><trkpt lat="43.52109615622031" lon="11.306500582249338"><ele>307.0</ele><time>2026-04-30T12:48:55Z</time></trkpt><trkpt lat="43.52111221747153" lon="11.306692710763846"><ele>306.0</ele><time>2026-04-30T12:48:56Z</time></trkpt><trkpt lat="43.52111123138279" lon="11.306889731883672"><ele>305.0</ele><time>2026-04-30T12:48:57Z</time></trkpt><trkpt lat="43.521123966087906" lon="11.307069366675224"><ele>305.0</ele><time>2026-04-30T12:48:58Z</time></trkpt><trkpt lat="43.521146274915424" lon="11.307230926067113"><ele>305.0</ele><time>2026-04-30T12:48:59Z</time></trkpt><trkpt lat="43.521110796268324" lon="11.307394762864801"><ele>305.0</ele><time>2026-04-30T12:49:00Z</time></trkpt><trkpt lat="43.521011253936734" lon="11.307503373652407"><ele>305.0</ele><time>2026-04-30T12:49:01Z</time></trkpt><trkpt lat="43.52090224750541" lon="11.307578655884129"><ele>305.25</ele><time>2026-04-30T12:49:02Z</time></trkpt><trkpt lat="43.520792900205144" lon="11.307584006107307"><ele>305.5</ele><time>2026-04-30T12:49:03Z</time></trkpt><trkpt lat="43.52069982140361" lon="11.307610567682751"><ele>305.75</ele><time>2026-04-30T12:49:04Z</time></trkpt><trkpt lat="43.520596690978564" lon="11.30764477624559"><ele>306.0</ele><time>2026-04-30T12:49:05Z</time></trkpt><trkpt lat="43.52051808999181" lon="11.307812412077455"><ele>306.0</ele><time>2026-04-30T12:49:06Z</time></trkpt><trkpt lat="43.520436441619516" lon="11.30800272361175"><ele>306.0</ele><time>2026-04-30T12:49:07Z</time></trkpt><trkpt lat="43.52036097196103" lon="11.308215429932782"><ele>306.0</ele><time>2026-04-30T12:49:08Z</time></trkpt><trkpt lat="43.520290849652945" lon="11.308407155599792"><ele>303.25</ele><time>2026-04-30T12:49:09Z</time></trkpt><trkpt lat="43.520221902296825" lon="11.30859002974235"><ele>300.5</ele><time>2026-04-30T12:49:10Z</time></trkpt><trkpt lat="43.52015486200216" lon="11.308756401001189"><ele>297.75</ele><time>2026-04-30T12:49:11Z</time></trkpt><trkpt lat="43.52011117140231" lon="11.308902572212938"><ele>295.0</ele><time>2026-04-30T12:49:12Z</time></trkpt><trkpt lat="43.52010089726027" lon="11.309075116402145"><ele>294.3333333333333</ele><time>2026-04-30T12:49:13Z</time></trkpt><trkpt lat="43.52013041918443" lon="11.309268533848588"><ele>293.6666666666667</ele><time>2026-04-30T12:49:14Z</time></trkpt><trkpt lat="43.520179545735985" lon="11.309479245651277"><ele>293.0</ele><time>2026-04-30T12:49:15Z</time></trkpt><trkpt lat="43.52018708775748" lon="11.309698634164523"><ele>291.0</ele><time>2026-04-30T12:49:16Z</time></trkpt><trkpt lat="43.520203299948705" lon="11.309925934893723"><ele>289.0</ele><time>2026-04-30T12:49:17Z</time></trkpt><trkpt lat="43.52020463360859" lon="11.310152404409386"><ele>287.0</ele><time>2026-04-30T12:49:18Z</time></trkpt><trkpt lat="43.52018942381324" lon="11.31036726545097"><ele>287.0</ele><time>2026-04-30T12:49:19Z</time></trkpt><trkpt lat="43.52018911418608" lon="11.3105736608019"><ele>287.0</ele><time>2026-04-30T12:49:20Z</time></trkpt><trkpt lat="43.52018874012215" lon="11.310772499363399"><ele>287.0</ele><time>2026-04-30T12:49:21Z</time></trkpt><trkpt lat="43.520187822957226" lon="11.310960903797175"><ele>287.0</ele><time>2026-04-30T12:49:22Z</time></trkpt><trkpt lat="43.52018698154692" lon="11.311142663929633"><ele>286.75</ele><time>2026-04-30T12:49:23Z</time></trkpt><trkpt lat="43.52018966429728" lon="11.311311399650915"><ele>286.5</ele><time>2026-04-30T12:49:24Z</time></trkpt><trkpt lat="43.52017388424283" lon="11.311462945297293"><ele>286.25</ele><time>2026-04-30T12:49:25Z</time></trkpt><trkpt lat="43.52012321573692" lon="11.311598797502663"><ele>286.0</ele><time>2026-04-30T12:49:26Z</time></trkpt><trkpt lat="43.520057151387675" lon="11.311747085420105"><ele>285.75</ele><time>2026-04-30T12:49:27Z</time></trkpt><trkpt lat="43.51993502431418" lon="11.311837756780477"><ele>285.5</ele><time>2026-04-30T12:49:28Z</time></trkpt><trkpt lat="43.519793950882864" lon="11.31183008329183"><ele>285.25</ele><time>2026-04-30T12:49:29Z</time></trkpt><trkpt lat="43.51966305237969" lon="11.311805922044273"><ele>285.0</ele><time>2026-04-30T12:49:30Z</time></trkpt><trkpt lat="43.519527403413846" lon="11.311771368609165"><ele>285.0</ele><time>2026-04-30T12:49:31Z</time></trkpt><trkpt lat="43.51940010491117" lon="11.311731370319782"><ele>285.0</ele><time>2026-04-30T12:49:32Z</time></trkpt><trkpt lat="43.51927820241893" lon="11.311696656120148"><ele>285.0</ele><time>2026-04-30T12:49:33Z</time></trkpt><trkpt lat="43.51916587824088" lon="11.311660623085224"><ele>285.0</ele><time>2026-04-30T12:49:34Z</time></trkpt><trkpt lat="43.51906383160384" lon="11.311625563953234"><ele>285.0</ele><time>2026-04-30T12:49:35Z</time></trkpt><trkpt lat="43.51897609222468" lon="11.31159924107316"><ele>285.0</ele><time>2026-04-30T12:49:36Z</time></trkpt><trkpt lat="43.51889796824321" lon="11.311583144357888"><ele>285.0</ele><time>2026-04-30T12:49:37Z</time></trkpt><trkpt lat="43.51882686947743" lon="11.311574541991815"><ele>285.0</ele><time>2026-04-30T12:49:38Z</time></trkpt><trkpt lat="43.51870634759246" lon="11.311589501352541"><ele>285.0</ele><time>2026-04-30T12:49:40Z</time></trkpt><trkpt lat="43.5186371876635" lon="11.31161734308491"><ele>285.0</ele><time>2026-04-30T12:49:41Z</time></trkpt><trkpt lat="43.518552843777805" lon="11.31162777132975"><ele>285.1666666666667</ele><time>2026-04-30T12:49:42Z</time></trkpt><trkpt lat="43.51846794057826" lon="11.311662502972885"><ele>285.3333333333333</ele><time>2026-04-30T12:49:43Z</time></trkpt><trkpt lat="43.51838288890445" lon="11.311713981058217"><ele>285.5</ele><time>2026-04-30T12:49:44.001Z</time></trkpt><trkpt lat="43.51829760451607" lon="11.311751154127736"><ele>285.66666666666663</ele><time>2026-04-30T12:49:45.001Z</time></trkpt><trkpt lat="43.518218163406324" lon="11.3117970559633"><ele>285.8333333333333</ele><time>2026-04-30T12:49:46.001Z</time></trkpt><trkpt lat="43.51812982789202" lon="11.311832993208336"><ele>286.0</ele><time>2026-04-30T12:49:47.001Z</time></trkpt><trkpt lat="43.51804409565354" lon="11.311861693592801"><ele>286.0</ele><time>2026-04-30T12:49:48.001Z</time></trkpt><trkpt lat="43.51795847825822" lon="11.311894611332116"><ele>286.0</ele><time>2026-04-30T12:49:49.001Z</time></trkpt><trkpt lat="43.5178501104743" lon="11.311944998565457"><ele>286.0</ele><time>2026-04-30T12:49:50.001Z</time></trkpt><trkpt lat="43.51774033845619" lon="11.311993778105855"><ele>286.0</ele><time>2026-04-30T12:49:51.001Z</time></trkpt><trkpt lat="43.517631339121486" lon="11.312041775386923"><ele>286.0</ele><time>2026-04-30T12:49:52.001Z</time></trkpt><trkpt lat="43.51751889619104" lon="11.31209061428717"><ele>285.5</ele><time>2026-04-30T12:49:53.001Z</time></trkpt><trkpt lat="43.51740329415811" lon="11.312145675373735"><ele>285.0</ele><time>2026-04-30T12:49:54.001Z</time></trkpt><trkpt lat="43.51728999108431" lon="11.312199557168823"><ele>284.5</ele><time>2026-04-30T12:49:55.001Z</time></trkpt><trkpt lat="43.517174586778786" lon="11.312245664391796"><ele>284.0</ele><time>2026-04-30T12:49:56.001Z</time></trkpt><trkpt lat="43.51706021757742" lon="11.312287128506684"><ele>284.8</ele><time>2026-04-30T12:49:57.001Z</time></trkpt><trkpt lat="43.51694672420864" lon="11.312331265226955"><ele>285.59999999999997</ele><time>2026-04-30T12:49:58.001Z</time></trkpt><trkpt lat="43.51684143312854" lon="11.312389341540753"><ele>286.4</ele><time>2026-04-30T12:49:59.001Z</time></trkpt><trkpt lat="43.51674638389037" lon="11.312459105365068"><ele>287.2</ele><time>2026-04-30T12:50:00.001Z</time></trkpt><trkpt lat="43.51666713755241" lon="11.31254779355062"><ele>288.0</ele><time>2026-04-30T12:50:01.001Z</time></trkpt><trkpt lat="43.51660131964011" lon="11.312668649170568"><ele>288.0</ele><time>2026-04-30T12:50:02.001Z</time></trkpt><trkpt lat="43.51656399912074" lon="11.312813894322197"><ele>288.0</ele><time>2026-04-30T12:50:03.001Z</time></trkpt><trkpt lat="43.51653403005034" lon="11.312977268878766"><ele>288.0</ele><time>2026-04-30T12:50:04.001Z</time></trkpt><trkpt lat="43.51653744068483" lon="11.313149872742905"><ele>288.0</ele><time>2026-04-30T12:50:05.001Z</time></trkpt><trkpt lat="43.51653656237839" lon="11.313326694572556"><ele>289.6</ele><time>2026-04-30T12:50:06.001Z</time></trkpt><trkpt lat="43.51653821124752" lon="11.31349009060306"><ele>291.20000000000005</ele><time>2026-04-30T12:50:07.001Z</time></trkpt><trkpt lat="43.51654066640946" lon="11.31362154854178"><ele>292.8</ele><time>2026-04-30T12:50:08.001Z</time></trkpt><trkpt lat="43.51654929555402" lon="11.313741067414087"><ele>294.40000000000003</ele><time>2026-04-30T12:50:09.001Z</time></trkpt><trkpt lat="43.51655564433549" lon="11.313849176270182"><ele>296.0</ele><time>2026-04-30T12:50:10.001Z</time></trkpt><trkpt lat="43.51656122369227" lon="11.313950826928357"><ele>296.1666666666667</ele><time>2026-04-30T12:50:11.001Z</time></trkpt><trkpt lat="43.51656573419512" lon="11.314058247215627"><ele>296.33333333333337</ele><time>2026-04-30T12:50:12.001Z</time></trkpt><trkpt lat="43.516571066401845" lon="11.314167531782902"><ele>296.5</ele><time>2026-04-30T12:50:13.001Z</time></trkpt><trkpt lat="43.51658409214553" lon="11.314286491040896"><ele>296.6666666666667</ele><time>2026-04-30T12:50:14.001Z</time></trkpt><trkpt lat="43.516593385516764" lon="11.314407434899941"><ele>296.8333333333333</ele><time>2026-04-30T12:50:15.001Z</time></trkpt><trkpt lat="43.51660066541792" lon="11.314534190004695"><ele>297.0</ele><time>2026-04-30T12:50:16.001Z</time></trkpt><trkpt lat="43.51659995962201" lon="11.314682443334634"><ele>296.8</ele><time>2026-04-30T12:50:17.001Z</time></trkpt><trkpt lat="43.51657561808065" lon="11.314832565568116"><ele>296.6</ele><time>2026-04-30T12:50:18.001Z</time></trkpt><trkpt lat="43.51653596287577" lon="11.314971166504016"><ele>296.40000000000003</ele><time>2026-04-30T12:50:19.001Z</time></trkpt><trkpt lat="43.51648827019885" lon="11.31509065841889"><ele>296.2</ele><time>2026-04-30T12:50:20.001Z</time></trkpt><trkpt lat="43.516450162753905" lon="11.31523110200522"><ele>296.0</ele><time>2026-04-30T12:50:21.001Z</time></trkpt><trkpt lat="43.5164023126959" lon="11.315359540737296"><ele>296.0</ele><time>2026-04-30T12:50:22.001Z</time></trkpt><trkpt lat="43.516347587324034" lon="11.315489668505213"><ele>296.0</ele><time>2026-04-30T12:50:23.001Z</time></trkpt><trkpt lat="43.51628346155266" lon="11.315611628781213"><ele>296.0</ele><time>2026-04-30T12:50:24.001Z</time></trkpt><trkpt lat="43.51620569902051" lon="11.315727803933655"><ele>296.0</ele><time>2026-04-30T12:50:25.001Z</time></trkpt><trkpt lat="43.51612260604517" lon="11.31583747685537"><ele>296.0</ele><time>2026-04-30T12:50:26.001Z</time></trkpt><trkpt lat="43.51602583698699" lon="11.315943321480578"><ele>295.0</ele><time>2026-04-30T12:50:27.001Z</time></trkpt><trkpt lat="43.51592551023334" lon="11.316048317831392"><ele>294.0</ele><time>2026-04-30T12:50:28.001Z</time></trkpt><trkpt lat="43.51582929770118" lon="11.316163243699172"><ele>293.0</ele><time>2026-04-30T12:50:29.001Z</time></trkpt><trkpt lat="43.515735152588064" lon="11.316297933036642"><ele>292.0</ele><time>2026-04-30T12:50:30.001Z</time></trkpt><trkpt lat="43.51564099164127" lon="11.316441124289003"><ele>294.0</ele><time>2026-04-30T12:50:31.001Z</time></trkpt><trkpt lat="43.515560252257565" lon="11.316589576535815"><ele>296.0</ele><time>2026-04-30T12:50:32.001Z</time></trkpt><trkpt lat="43.51550463538986" lon="11.316770246293773"><ele>298.0</ele><time>2026-04-30T12:50:33.001Z</time></trkpt><trkpt lat="43.51547328486453" lon="11.316967113287415"><ele>300.0</ele><time>2026-04-30T12:50:34.001Z</time></trkpt><trkpt lat="43.515420078190125" lon="11.317153339814778"><ele>298.25</ele><time>2026-04-30T12:50:35.001Z</time></trkpt><trkpt lat="43.51537673126741" lon="11.3173398766686"><ele>296.5</ele><time>2026-04-30T12:50:36.001Z</time></trkpt><trkpt lat="43.51532320252599" lon="11.31751920919146"><ele>294.75</ele><time>2026-04-30T12:50:37.001Z</time></trkpt><trkpt lat="43.515230024045735" lon="11.317680282558646"><ele>293.0</ele><time>2026-04-30T12:50:38.001Z</time></trkpt><trkpt lat="43.515113889111994" lon="11.317817312977317"><ele>293.0</ele><time>2026-04-30T12:50:39.001Z</time></trkpt><trkpt lat="43.514978888579435" lon="11.317928101386606"><ele>293.0</ele><time>2026-04-30T12:50:40.001Z</time></trkpt><trkpt lat="43.5148421516746" lon="11.318034998976986"><ele>293.0</ele><time>2026-04-30T12:50:41.001Z</time></trkpt><trkpt lat="43.51472317092333" lon="11.318177753208097"><ele>293.6666666666667</ele><time>2026-04-30T12:50:42.001Z</time></trkpt><trkpt lat="43.514615014635574" lon="11.318379055147068"><ele>294.3333333333333</ele><time>2026-04-30T12:50:43.001Z</time></trkpt><trkpt lat="43.51451251606511" lon="11.31857880169712"><ele>295.0</ele><time>2026-04-30T12:50:44.001Z</time></trkpt><trkpt lat="43.51441162419061" lon="11.318766947602324"><ele>295.75</ele><time>2026-04-30T12:50:45.001Z</time></trkpt><trkpt lat="43.514312990857405" lon="11.318933947926226"><ele>296.5</ele><time>2026-04-30T12:50:46.001Z</time></trkpt><trkpt lat="43.5142258407406" lon="11.319091873077427"><ele>297.25</ele><time>2026-04-30T12:50:47.001Z</time></trkpt><trkpt lat="43.51413459963682" lon="11.31925266223368"><ele>298.0</ele><time>2026-04-30T12:50:48.001Z</time></trkpt><trkpt lat="43.51405113063587" lon="11.319432109514064"><ele>298.0</ele><time>2026-04-30T12:50:49.001Z</time></trkpt><trkpt lat="43.51397703267508" lon="11.319596582935564"><ele>298.0</ele><time>2026-04-30T12:50:50.001Z</time></trkpt><trkpt lat="43.5139080571879" lon="11.319744005921224"><ele>298.0</ele><time>2026-04-30T12:50:51.001Z</time></trkpt><trkpt lat="43.51384011733441" lon="11.319891393751023"><ele>298.0</ele><time>2026-04-30T12:50:52Z</time></trkpt><trkpt lat="43.51377107928411" lon="11.32003991189121"><ele>297.25</ele><time>2026-04-30T12:50:53Z</time></trkpt><trkpt lat="43.51368810872918" lon="11.320184354041675"><ele>296.5</ele><time>2026-04-30T12:50:54Z</time></trkpt><trkpt lat="43.51359059673335" lon="11.320325527263625"><ele>295.75</ele><time>2026-04-30T12:50:55Z</time></trkpt><trkpt lat="43.513482907026436" lon="11.320451610892839"><ele>295.0</ele><time>2026-04-30T12:50:56Z</time></trkpt><trkpt lat="43.5133616718531" lon="11.320558585203884"><ele>295.75</ele><time>2026-04-30T12:50:57Z</time></trkpt><trkpt lat="43.51323834953732" lon="11.320653797564377"><ele>296.5</ele><time>2026-04-30T12:50:58Z</time></trkpt><trkpt lat="43.51311402211609" lon="11.320754143523521"><ele>297.25</ele><time>2026-04-30T12:50:59Z</time></trkpt><trkpt lat="43.512982977271776" lon="11.320832482758107"><ele>298.0</ele><time>2026-04-30T12:51:00Z</time></trkpt><trkpt lat="43.51286949136834" lon="11.32092042555752"><ele>298.0</ele><time>2026-04-30T12:51:01Z</time></trkpt><trkpt lat="43.51275609435404" lon="11.321009504415422"><ele>298.0</ele><time>2026-04-30T12:51:02Z</time></trkpt><trkpt lat="43.51264544421137" lon="11.321095323668048"><ele>298.0</ele><time>2026-04-30T12:51:03Z</time></trkpt><trkpt lat="43.51253592986975" lon="11.321181019106122"><ele>298.0</ele><time>2026-04-30T12:51:04Z</time></trkpt><trkpt lat="43.51241399363422" lon="11.32122942085718"><ele>298.0</ele><time>2026-04-30T12:51:05Z</time></trkpt><trkpt lat="43.51229239371631" lon="11.321272168703944"><ele>298.0</ele><time>2026-04-30T12:51:06Z</time></trkpt><trkpt lat="43.5121647690166" lon="11.321320653606692"><ele>298.0</ele><time>2026-04-30T12:51:07Z</time></trkpt><trkpt lat="43.51203626058433" lon="11.321366484561919"><ele>298.0</ele><time>2026-04-30T12:51:08Z</time></trkpt><trkpt lat="43.5119046840983" lon="11.321431011802279"><ele>299.3333333333333</ele><time>2026-04-30T12:51:09Z</time></trkpt><trkpt lat="43.511772158714464" lon="11.321525892544459"><ele>300.6666666666667</ele><time>2026-04-30T12:51:10Z</time></trkpt><trkpt lat="43.51163894274931" lon="11.32164276551425"><ele>302.0</ele><time>2026-04-30T12:51:11Z</time></trkpt><trkpt lat="43.51150609050599" lon="11.32178639981484"><ele>302.0</ele><time>2026-04-30T12:51:12Z</time></trkpt><trkpt lat="43.511348445983344" lon="11.321944630052045"><ele>302.0</ele><time>2026-04-30T12:51:13Z</time></trkpt><trkpt lat="43.51119767672464" lon="11.322127544220997"><ele>302.0</ele><time>2026-04-30T12:51:14Z</time></trkpt><trkpt lat="43.5110531198896" lon="11.322303200185774"><ele>301.33333333333337</ele><time>2026-04-30T12:51:15Z</time></trkpt><trkpt lat="43.510905149526565" lon="11.322480645166417"><ele>300.6666666666667</ele><time>2026-04-30T12:51:16Z</time></trkpt><trkpt lat="43.51076252862473" lon="11.322651683726905"><ele>300.0</ele><time>2026-04-30T12:51:17Z</time></trkpt><trkpt lat="43.51062288450399" lon="11.322819152372505"><ele>300.0</ele><time>2026-04-30T12:51:18Z</time></trkpt><trkpt lat="43.51048473036433" lon="11.322985415922755"><ele>300.0</ele><time>2026-04-30T12:51:19Z</time></trkpt><trkpt lat="43.51036236022617" lon="11.323133737882467"><ele>300.0</ele><time>2026-04-30T12:51:20Z</time></trkpt><trkpt lat="43.51024330425764" lon="11.323278042348507"><ele>300.6666666666667</ele><time>2026-04-30T12:51:21Z</time></trkpt><trkpt lat="43.510119451950665" lon="11.323410751942285"><ele>301.33333333333337</ele><time>2026-04-30T12:51:22Z</time></trkpt><trkpt lat="43.509982459203535" lon="11.323512388175427"><ele>302.0</ele><time>2026-04-30T12:51:23Z</time></trkpt><trkpt lat="43.50984269515489" lon="11.323592604123581"><ele>302.0</ele><time>2026-04-30T12:51:24Z</time></trkpt><trkpt lat="43.509693869248714" lon="11.323658860499314"><ele>302.0</ele><time>2026-04-30T12:51:25Z</time></trkpt><trkpt lat="43.50954175652668" lon="11.323700748907632"><ele>302.0</ele><time>2026-04-30T12:51:26Z</time></trkpt><trkpt lat="43.509377191660796" lon="11.323724308783413"><ele>301.33333333333337</ele><time>2026-04-30T12:51:27Z</time></trkpt><trkpt lat="43.509211025789725" lon="11.323722886122072"><ele>300.6666666666667</ele><time>2026-04-30T12:51:28Z</time></trkpt><trkpt lat="43.50904498840876" lon="11.323714447696334"><ele>300.0</ele><time>2026-04-30T12:51:29Z</time></trkpt><trkpt lat="43.50885884493176" lon="11.323710717073808"><ele>300.0</ele><time>2026-04-30T12:51:30Z</time></trkpt><trkpt lat="43.50869423205477" lon="11.323763202526646"><ele>300.0</ele><time>2026-04-30T12:51:31Z</time></trkpt><trkpt lat="43.508550044513" lon="11.323815788290347"><ele>300.0</ele><time>2026-04-30T12:51:32Z</time></trkpt><trkpt lat="43.508418595617464" lon="11.32392048598098"><ele>302.6666666666667</ele><time>2026-04-30T12:51:33Z</time></trkpt><trkpt lat="43.508282503034344" lon="11.324056424074602"><ele>305.33333333333337</ele><time>2026-04-30T12:51:34Z</time></trkpt><trkpt lat="43.50817212393295" lon="11.324257717047812"><ele>308.0</ele><time>2026-04-30T12:51:35Z</time></trkpt><trkpt lat="43.50804925133865" lon="11.32445772596175"><ele>308.0</ele><time>2026-04-30T12:51:36Z</time></trkpt><trkpt lat="43.50792981035004" lon="11.324668406980706"><ele>308.0</ele><time>2026-04-30T12:51:37Z</time></trkpt><trkpt lat="43.50784803494321" lon="11.324895017959445"><ele>308.0</ele><time>2026-04-30T12:51:38Z</time></trkpt><trkpt lat="43.50777898995624" lon="11.325119881086925"><ele>307.0</ele><time>2026-04-30T12:51:39Z</time></trkpt><trkpt lat="43.50772304820272" lon="11.325346687468581"><ele>306.0</ele><time>2026-04-30T12:51:40Z</time></trkpt><trkpt lat="43.50766673189498" lon="11.32555448175752"><ele>305.0</ele><time>2026-04-30T12:51:41Z</time></trkpt><trkpt lat="43.50761726931" lon="11.325736862980413"><ele>305.0</ele><time>2026-04-30T12:51:42Z</time></trkpt><trkpt lat="43.50758045817098" lon="11.325914885718289"><ele>305.0</ele><time>2026-04-30T12:51:43Z</time></trkpt><trkpt lat="43.5075556078034" lon="11.326091904189497"><ele>305.0</ele><time>2026-04-30T12:51:44Z</time></trkpt><trkpt lat="43.50752702617499" lon="11.326255594585941"><ele>305.0</ele><time>2026-04-30T12:51:45Z</time></trkpt><trkpt lat="43.50749656413467" lon="11.326409574185922"><ele>305.2</ele><time>2026-04-30T12:51:46Z</time></trkpt><trkpt lat="43.50746080164987" lon="11.326553251298145"><ele>305.4</ele><time>2026-04-30T12:51:47Z</time></trkpt><trkpt lat="43.5074255908404" lon="11.326689172160533"><ele>305.6</ele><time>2026-04-30T12:51:48Z</time></trkpt><trkpt lat="43.50738431043735" lon="11.326816659419324"><ele>305.8</ele><time>2026-04-30T12:51:49Z</time></trkpt><trkpt lat="43.50733069827225" lon="11.326934800995996"><ele>306.0</ele><time>2026-04-30T12:51:50Z</time></trkpt><trkpt lat="43.507250521797445" lon="11.327035722189708"><ele>306.0</ele><time>2026-04-30T12:51:51Z</time></trkpt><trkpt lat="43.50714565785082" lon="11.32709511887094"><ele>306.0</ele><time>2026-04-30T12:51:52Z</time></trkpt><trkpt lat="43.507023707703205" lon="11.32711897600873"><ele>306.0</ele><time>2026-04-30T12:51:53Z</time></trkpt><trkpt lat="43.50691357807368" lon="11.327154294689686"><ele>306.0</ele><time>2026-04-30T12:51:54Z</time></trkpt><trkpt lat="43.5067874927582" lon="11.327205743314712"><ele>304.0</ele><time>2026-04-30T12:51:55Z</time></trkpt><trkpt lat="43.5066519944436" lon="11.327272659096701"><ele>302.0</ele><time>2026-04-30T12:51:56.001Z</time></trkpt><trkpt lat="43.50651338038649" lon="11.327334733777057"><ele>300.0</ele><time>2026-04-30T12:51:57.001Z</time></trkpt><trkpt lat="43.50638094631599" lon="11.327434766285336"><ele>298.0</ele><time>2026-04-30T12:51:58.001Z</time></trkpt><trkpt lat="43.506248425623106" lon="11.327531879321963"><ele>298.25</ele><time>2026-04-30T12:51:59.001Z</time></trkpt><trkpt lat="43.50612436173894" lon="11.327640897648859"><ele>298.5</ele><time>2026-04-30T12:52:00.001Z</time></trkpt><trkpt lat="43.50600999058886" lon="11.3277587659845"><ele>298.75</ele><time>2026-04-30T12:52:01.001Z</time></trkpt><trkpt lat="43.50589471073584" lon="11.327876656919223"><ele>299.0</ele><time>2026-04-30T12:52:02.001Z</time></trkpt><trkpt lat="43.505775704566794" lon="11.328001077332331"><ele>299.33333333333337</ele><time>2026-04-30T12:52:03.001Z</time></trkpt><trkpt lat="43.50565291161583" lon="11.328129311867645"><ele>299.6666666666667</ele><time>2026-04-30T12:52:04.001Z</time></trkpt><trkpt lat="43.5055265743905" lon="11.328263729276705"><ele>300.0</ele><time>2026-04-30T12:52:05.001Z</time></trkpt><trkpt lat="43.50539576849356" lon="11.328398008227285"><ele>301.3333333333333</ele><time>2026-04-30T12:52:06.001Z</time></trkpt><trkpt lat="43.50526417671866" lon="11.328528271940888"><ele>302.66666666666663</ele><time>2026-04-30T12:52:07.001Z</time></trkpt><trkpt lat="43.50513213481414" lon="11.328651613856648"><ele>304.0</ele><time>2026-04-30T12:52:08.001Z</time></trkpt><trkpt lat="43.50500393423973" lon="11.328757828485982"><ele>304.0</ele><time>2026-04-30T12:52:09.001Z</time></trkpt><trkpt lat="43.50488065559958" lon="11.3288495470028"><ele>304.0</ele><time>2026-04-30T12:52:10.001Z</time></trkpt><trkpt lat="43.50475651369133" lon="11.328936604533038"><ele>304.0</ele><time>2026-04-30T12:52:11.001Z</time></trkpt><trkpt lat="43.50464067600666" lon="11.32901400839762"><ele>304.0</ele><time>2026-04-30T12:52:12.001Z</time></trkpt><trkpt lat="43.504523636138714" lon="11.329096213071963"><ele>304.25</ele><time>2026-04-30T12:52:13.001Z</time></trkpt><trkpt lat="43.50441226059298" lon="11.329173165132916"><ele>304.5</ele><time>2026-04-30T12:52:14.001Z</time></trkpt><trkpt lat="43.50430771187461" lon="11.329245912937902"><ele>304.75</ele><time>2026-04-30T12:52:15.001Z</time></trkpt><trkpt lat="43.50420269987561" lon="11.329310407138875"><ele>305.0</ele><time>2026-04-30T12:52:16.001Z</time></trkpt><trkpt lat="43.504087570681016" lon="11.329335970544744"><ele>305.0</ele><time>2026-04-30T12:52:17.001Z</time></trkpt><trkpt lat="43.50397979475406" lon="11.329406336887697"><ele>305.0</ele><time>2026-04-30T12:52:18.001Z</time></trkpt><trkpt lat="43.503872328005365" lon="11.3294724226956"><ele>305.0</ele><time>2026-04-30T12:52:19.001Z</time></trkpt><trkpt lat="43.50377199646239" lon="11.329571729191317"><ele>305.0</ele><time>2026-04-30T12:52:20.001Z</time></trkpt><trkpt lat="43.503667567923635" lon="11.329715701574052"><ele>306.33333333333337</ele><time>2026-04-30T12:52:21.001Z</time></trkpt><trkpt lat="43.50355854347754" lon="11.329879840638892"><ele>307.6666666666667</ele><time>2026-04-30T12:52:22.001Z</time></trkpt><trkpt lat="43.50345365642248" lon="11.330071122309658"><ele>309.0</ele><time>2026-04-30T12:52:23.001Z</time></trkpt><trkpt lat="43.503329283520465" lon="11.330290524643353"><ele>309.0</ele><time>2026-04-30T12:52:24.001Z</time></trkpt><trkpt lat="43.50319092058956" lon="11.330506079889384"><ele>309.0</ele><time>2026-04-30T12:52:25.001Z</time></trkpt><trkpt lat="43.503039069903586" lon="11.330728457470855"><ele>309.0</ele><time>2026-04-30T12:52:26.001Z</time></trkpt><trkpt lat="43.502887787221205" lon="11.330936330247363"><ele>309.6666666666667</ele><time>2026-04-30T12:52:27.001Z</time></trkpt><trkpt lat="43.50273917985002" lon="11.331136151867357"><ele>310.33333333333337</ele><time>2026-04-30T12:52:28.001Z</time></trkpt><trkpt lat="43.50262601701722" lon="11.331339011815649"><ele>311.0</ele><time>2026-04-30T12:52:29.001Z</time></trkpt><trkpt lat="43.50250720429402" lon="11.331522164996654"><ele>309.6666666666667</ele><time>2026-04-30T12:52:30.001Z</time></trkpt><trkpt lat="43.502394094984766" lon="11.33171670562248"><ele>308.3333333333333</ele><time>2026-04-30T12:52:31.001Z</time></trkpt><trkpt lat="43.502263997517666" lon="11.331881678359874"><ele>307.0</ele><time>2026-04-30T12:52:32.001Z</time></trkpt><trkpt lat="43.50213850284985" lon="11.332038767229342"><ele>307.66666666666663</ele><time>2026-04-30T12:52:33.001Z</time></trkpt><trkpt lat="43.50200721604021" lon="11.332176914615829"><ele>308.3333333333333</ele><time>2026-04-30T12:52:34.001Z</time></trkpt><trkpt lat="43.501857019634855" lon="11.332315663852611"><ele>309.0</ele><time>2026-04-30T12:52:35.001Z</time></trkpt><trkpt lat="43.501709938673116" lon="11.332445576825132"><ele>309.0</ele><time>2026-04-30T12:52:36.001Z</time></trkpt><trkpt lat="43.50155550288026" lon="11.332583555470467"><ele>309.0</ele><time>2026-04-30T12:52:37.001Z</time></trkpt><trkpt lat="43.50139866702826" lon="11.332729185609487"><ele>309.0</ele><time>2026-04-30T12:52:38.001Z</time></trkpt><trkpt lat="43.501245583588044" lon="11.332886188361947"><ele>310.3333333333333</ele><time>2026-04-30T12:52:39.001Z</time></trkpt><trkpt lat="43.501103492659965" lon="11.33304941846739"><ele>311.66666666666663</ele><time>2026-04-30T12:52:40.001Z</time></trkpt><trkpt lat="43.50095351959253" lon="11.333236958794698"><ele>313.0</ele><time>2026-04-30T12:52:41.001Z</time></trkpt><trkpt lat="43.50082156952378" lon="11.333425030396626"><ele>313.0</ele><time>2026-04-30T12:52:42.001Z</time></trkpt><trkpt lat="43.50069224340967" lon="11.333623743775249"><ele>313.0</ele><time>2026-04-30T12:52:43.001Z</time></trkpt><trkpt lat="43.50057217089549" lon="11.333838174539451"><ele>313.0</ele><time>2026-04-30T12:52:44.001Z</time></trkpt><trkpt lat="43.50045816679292" lon="11.334063788149786"><ele>312.3333333333333</ele><time>2026-04-30T12:52:45.001Z</time></trkpt><trkpt lat="43.50035645494657" lon="11.334311177842268"><ele>311.6666666666667</ele><time>2026-04-30T12:52:46.001Z</time></trkpt><trkpt lat="43.50023334423593" lon="11.334536543298524"><ele>311.0</ele><time>2026-04-30T12:52:47.001Z</time></trkpt><trkpt lat="43.50012228212137" lon="11.334769214770434"><ele>311.0</ele><time>2026-04-30T12:52:48.001Z</time></trkpt><trkpt lat="43.50000994047595" lon="11.335002033153533"><ele>311.0</ele><time>2026-04-30T12:52:49.001Z</time></trkpt><trkpt lat="43.49989993541153" lon="11.335234667541458"><ele>311.0</ele><time>2026-04-30T12:52:50.001Z</time></trkpt><trkpt lat="43.49979231585889" lon="11.335462431882434"><ele>310.6666666666667</ele><time>2026-04-30T12:52:51.001Z</time></trkpt><trkpt lat="43.49968524416799" lon="11.335689036758325"><ele>310.3333333333333</ele><time>2026-04-30T12:52:52.001Z</time></trkpt><trkpt lat="43.49958104498882" lon="11.335907186463507"><ele>310.0</ele><time>2026-04-30T12:52:53.001Z</time></trkpt><trkpt lat="43.499488334092106" lon="11.336137974598135"><ele>310.66666666666663</ele><time>2026-04-30T12:52:54.001Z</time></trkpt><trkpt lat="43.499379290277545" lon="11.33636540637579"><ele>311.3333333333333</ele><time>2026-04-30T12:52:55.001Z</time></trkpt><trkpt lat="43.49925644000732" lon="11.336574398119895"><ele>312.0</ele><time>2026-04-30T12:52:56.001Z</time></trkpt><trkpt lat="43.49913931830583" lon="11.336784423179292"><ele>312.0</ele><time>2026-04-30T12:52:57.001Z</time></trkpt><trkpt lat="43.499010188216" lon="11.336985836659277"><ele>312.0</ele><time>2026-04-30T12:52:58Z</time></trkpt><trkpt lat="43.498875746657525" lon="11.33717689237224"><ele>312.0</ele><time>2026-04-30T12:52:59Z</time></trkpt><trkpt lat="43.498736002354555" lon="11.337359603065742"><ele>315.3333333333333</ele><time>2026-04-30T12:53:00Z</time></trkpt><trkpt lat="43.49859178670124" lon="11.33752942798662"><ele>318.66666666666663</ele><time>2026-04-30T12:53:01Z</time></trkpt><trkpt lat="43.49844660096418" lon="11.337693663402275"><ele>322.0</ele><time>2026-04-30T12:53:02Z</time></trkpt><trkpt lat="43.498304333942706" lon="11.33785459713438"><ele>322.0</ele><time>2026-04-30T12:53:03Z</time></trkpt><trkpt lat="43.49816667832256" lon="11.33801884057994"><ele>322.0</ele><time>2026-04-30T12:53:04Z</time></trkpt><trkpt lat="43.49804763131419" lon="11.33821489427258"><ele>322.0</ele><time>2026-04-30T12:53:05Z</time></trkpt><trkpt lat="43.49790842688401" lon="11.3384428696469"><ele>320.66666666666663</ele><time>2026-04-30T12:53:06Z</time></trkpt><trkpt lat="43.49778428155865" lon="11.338675264052391"><ele>319.3333333333333</ele><time>2026-04-30T12:53:07Z</time></trkpt><trkpt lat="43.49765542263428" lon="11.33891024576436"><ele>318.0</ele><time>2026-04-30T12:53:08Z</time></trkpt><trkpt lat="43.49753749920978" lon="11.339119728265063"><ele>318.0</ele><time>2026-04-30T12:53:09Z</time></trkpt><trkpt lat="43.49743521682741" lon="11.33932366746238"><ele>318.0</ele><time>2026-04-30T12:53:10Z</time></trkpt><trkpt lat="43.4973472580854" lon="11.339541809719618"><ele>318.0</ele><time>2026-04-30T12:53:11Z</time></trkpt><trkpt lat="43.49728072733192" lon="11.339777296315894"><ele>315.6666666666667</ele><time>2026-04-30T12:53:12Z</time></trkpt><trkpt lat="43.49722275685204" lon="11.34000269708659"><ele>313.33333333333337</ele><time>2026-04-30T12:53:13Z</time></trkpt><trkpt lat="43.49716006434873" lon="11.340235789715079"><ele>311.0</ele><time>2026-04-30T12:53:14Z</time></trkpt><trkpt lat="43.497095330218905" lon="11.340454536102705"><ele>314.0</ele><time>2026-04-30T12:53:15Z</time></trkpt><trkpt lat="43.49703622621322" lon="11.340668383731916"><ele>317.0</ele><time>2026-04-30T12:53:16Z</time></trkpt><trkpt lat="43.49697784298782" lon="11.340878636363351"><ele>320.0</ele><time>2026-04-30T12:53:17Z</time></trkpt><trkpt lat="43.4969065046732" lon="11.341074195656764"><ele>320.0</ele><time>2026-04-30T12:53:18Z</time></trkpt><trkpt lat="43.49686224713035" lon="11.341284239135287"><ele>320.0</ele><time>2026-04-30T12:53:19Z</time></trkpt><trkpt lat="43.49679986933727" lon="11.341499228809134"><ele>320.0</ele><time>2026-04-30T12:53:20Z</time></trkpt><trkpt lat="43.496738445082656" lon="11.341713862739525"><ele>319.6666666666667</ele><time>2026-04-30T12:53:21Z</time></trkpt><trkpt lat="43.496666362612515" lon="11.341936097158195"><ele>319.3333333333333</ele><time>2026-04-30T12:53:22Z</time></trkpt><trkpt lat="43.49657649942206" lon="11.34214184053103"><ele>319.0</ele><time>2026-04-30T12:53:23Z</time></trkpt><trkpt lat="43.49649628178064" lon="11.342365025688393"><ele>319.0</ele><time>2026-04-30T12:53:24Z</time></trkpt><trkpt lat="43.49639026765241" lon="11.3425663077835"><ele>319.0</ele><time>2026-04-30T12:53:25Z</time></trkpt><trkpt lat="43.49625371909258" lon="11.342738480028682"><ele>319.0</ele><time>2026-04-30T12:53:26Z</time></trkpt><trkpt lat="43.49611676276141" lon="11.342906187973854"><ele>319.66666666666663</ele><time>2026-04-30T12:53:27Z</time></trkpt><trkpt lat="43.49598069532155" lon="11.343085453919695"><ele>320.3333333333333</ele><time>2026-04-30T12:53:28Z</time></trkpt><trkpt lat="43.495861808581274" lon="11.343269903402069"><ele>321.0</ele><time>2026-04-30T12:53:29Z</time></trkpt><trkpt lat="43.49575437103758" lon="11.343476850195676"><ele>321.0</ele><time>2026-04-30T12:53:30Z</time></trkpt><trkpt lat="43.495649377498346" lon="11.343695318556097"><ele>321.0</ele><time>2026-04-30T12:53:31Z</time></trkpt><trkpt lat="43.495541986987504" lon="11.343915265256554"><ele>321.0</ele><time>2026-04-30T12:53:32Z</time></trkpt><trkpt lat="43.49546131578508" lon="11.344138574092108"><ele>321.0</ele><time>2026-04-30T12:53:33Z</time></trkpt><trkpt lat="43.4953801237649" lon="11.34436601337792"><ele>321.0</ele><time>2026-04-30T12:53:34Z</time></trkpt><trkpt lat="43.495289442592004" lon="11.34458924071771"><ele>321.0</ele><time>2026-04-30T12:53:35Z</time></trkpt><trkpt lat="43.495212631785314" lon="11.344814644317061"><ele>321.0</ele><time>2026-04-30T12:53:36Z</time></trkpt><trkpt lat="43.495133431628545" lon="11.345040381170215"><ele>321.0</ele><time>2026-04-30T12:53:37Z</time></trkpt><trkpt lat="43.49505399467751" lon="11.345262671976457"><ele>321.0</ele><time>2026-04-30T12:53:38Z</time></trkpt><trkpt lat="43.49497270503344" lon="11.34548313011614"><ele>320.6666666666667</ele><time>2026-04-30T12:53:39Z</time></trkpt><trkpt lat="43.494893678140144" lon="11.345702651965933"><ele>320.33333333333337</ele><time>2026-04-30T12:53:40Z</time></trkpt><trkpt lat="43.494817125284804" lon="11.345925707582836"><ele>320.0</ele><time>2026-04-30T12:53:41Z</time></trkpt><trkpt lat="43.49474037945267" lon="11.346149632508498"><ele>320.0</ele><time>2026-04-30T12:53:42Z</time></trkpt><trkpt lat="43.49466121253877" lon="11.34636847247082"><ele>320.0</ele><time>2026-04-30T12:53:43Z</time></trkpt><trkpt lat="43.49457756413603" lon="11.346595464910955"><ele>320.0</ele><time>2026-04-30T12:53:44Z</time></trkpt><trkpt lat="43.494499375527916" lon="11.34681087347193"><ele>322.0</ele><time>2026-04-30T12:53:45Z</time></trkpt><trkpt lat="43.49442097648381" lon="11.347021705709077"><ele>324.0</ele><time>2026-04-30T12:53:46Z</time></trkpt><trkpt lat="43.494348272276255" lon="11.347228028280972"><ele>326.0</ele><time>2026-04-30T12:53:47Z</time></trkpt><trkpt lat="43.49425559729544" lon="11.347427376211249"><ele>326.0</ele><time>2026-04-30T12:53:48Z</time></trkpt><trkpt lat="43.49415506548085" lon="11.347622442681965"><ele>326.0</ele><time>2026-04-30T12:53:49Z</time></trkpt><trkpt lat="43.49404279273198" lon="11.34779957684023"><ele>326.0</ele><time>2026-04-30T12:53:50Z</time></trkpt><trkpt lat="43.49392284176124" lon="11.347975385595461"><ele>326.0</ele><time>2026-04-30T12:53:51Z</time></trkpt><trkpt lat="43.49378111286884" lon="11.348133523642444"><ele>326.0</ele><time>2026-04-30T12:53:52Z</time></trkpt><trkpt lat="43.49367053508067" lon="11.348315022582739"><ele>326.0</ele><time>2026-04-30T12:53:53Z</time></trkpt><trkpt lat="43.49355933930976" lon="11.3484886059201"><ele>326.0</ele><time>2026-04-30T12:53:54Z</time></trkpt><trkpt lat="43.49342823977252" lon="11.34864854367829"><ele>326.0</ele><time>2026-04-30T12:53:55Z</time></trkpt><trkpt lat="43.49330276736195" lon="11.348806699122092"><ele>326.0</ele><time>2026-04-30T12:53:56Z</time></trkpt><trkpt lat="43.493160743078946" lon="11.348974327250879"><ele>325.0</ele><time>2026-04-30T12:53:57Z</time></trkpt><trkpt lat="43.4929922402431" lon="11.349138431965976"><ele>324.0</ele><time>2026-04-30T12:53:58Z</time></trkpt><trkpt lat="43.492815771001545" lon="11.349291993247324"><ele>323.0</ele><time>2026-04-30T12:53:59Z</time></trkpt><trkpt lat="43.49265238398483" lon="11.349444054027899"><ele>323.6666666666667</ele><time>2026-04-30T12:54:00Z</time></trkpt><trkpt lat="43.49248265016132" lon="11.349600357199126"><ele>324.3333333333333</ele><time>2026-04-30T12:54:01Z</time></trkpt><trkpt lat="43.49231793538658" lon="11.349753353710037"><ele>325.0</ele><time>2026-04-30T12:54:02Z</time></trkpt><trkpt lat="43.49216091260639" lon="11.349909449331065"><ele>328.0</ele><time>2026-04-30T12:54:03Z</time></trkpt><trkpt lat="43.492012642183006" lon="11.35005927525804"><ele>331.0</ele><time>2026-04-30T12:54:04Z</time></trkpt><trkpt lat="43.49187675234563" lon="11.350202384427591"><ele>334.0</ele><time>2026-04-30T12:54:05Z</time></trkpt><trkpt lat="43.49174088321361" lon="11.35032996056043"><ele>334.0</ele><time>2026-04-30T12:54:06Z</time></trkpt><trkpt lat="43.4916021666909" lon="11.350460171957414"><ele>334.0</ele><time>2026-04-30T12:54:07Z</time></trkpt><trkpt lat="43.49147274534823" lon="11.350591806900619"><ele>334.0</ele><time>2026-04-30T12:54:08Z</time></trkpt><trkpt lat="43.49134675195254" lon="11.350730433611592"><ele>334.0</ele><time>2026-04-30T12:54:09Z</time></trkpt><trkpt lat="43.49120672998993" lon="11.350856492491376"><ele>334.0</ele><time>2026-04-30T12:54:10Z</time></trkpt><trkpt lat="43.49104900534935" lon="11.350964562948281"><ele>334.0</ele><time>2026-04-30T12:54:11Z</time></trkpt><trkpt lat="43.49089298556416" lon="11.351047289353792"><ele>334.0</ele><time>2026-04-30T12:54:12Z</time></trkpt><trkpt lat="43.49073787358744" lon="11.351110702537973"><ele>334.0</ele><time>2026-04-30T12:54:13Z</time></trkpt><trkpt lat="43.49059685715503" lon="11.351171761264526"><ele>334.0</ele><time>2026-04-30T12:54:14Z</time></trkpt><trkpt lat="43.49046446606219" lon="11.351284161936633"><ele>333.75</ele><time>2026-04-30T12:54:15Z</time></trkpt><trkpt lat="43.490353914286565" lon="11.351439878651123"><ele>333.5</ele><time>2026-04-30T12:54:16.001Z</time></trkpt><trkpt lat="43.49027141359329" lon="11.35159353137515"><ele>333.25</ele><time>2026-04-30T12:54:17.001Z</time></trkpt><trkpt lat="43.49021242699037" lon="11.351768740617239"><ele>333.0</ele><time>2026-04-30T12:54:18.001Z</time></trkpt><trkpt lat="43.49019368528824" lon="11.35195396506437"><ele>333.0</ele><time>2026-04-30T12:54:19.001Z</time></trkpt><trkpt lat="43.49021424875425" lon="11.352147569727501"><ele>333.0</ele><time>2026-04-30T12:54:20.001Z</time></trkpt><trkpt lat="43.49026667779879" lon="11.352344901897249"><ele>333.0</ele><time>2026-04-30T12:54:21.001Z</time></trkpt><trkpt lat="43.49034212193817" lon="11.352538384459052"><ele>333.0</ele><time>2026-04-30T12:54:22.001Z</time></trkpt><trkpt lat="43.49042528127282" lon="11.352736343589122"><ele>333.0</ele><time>2026-04-30T12:54:23.001Z</time></trkpt><trkpt lat="43.490511503620674" lon="11.35292780350552"><ele>333.0</ele><time>2026-04-30T12:54:24.001Z</time></trkpt><trkpt lat="43.49058254863166" lon="11.353112888069619"><ele>333.0</ele><time>2026-04-30T12:54:25.001Z</time></trkpt><trkpt lat="43.49063847750609" lon="11.353306462512242"><ele>333.0</ele><time>2026-04-30T12:54:26.001Z</time></trkpt><trkpt lat="43.49066741075708" lon="11.353530764075332"><ele>333.0</ele><time>2026-04-30T12:54:27.001Z</time></trkpt><trkpt lat="43.490668972943" lon="11.353744388820155"><ele>333.5</ele><time>2026-04-30T12:54:28.001Z</time></trkpt><trkpt lat="43.490684092856526" lon="11.353933416020803"><ele>334.0</ele><time>2026-04-30T12:54:29.001Z</time></trkpt><trkpt lat="43.490715966930274" lon="11.354103604672902"><ele>334.5</ele><time>2026-04-30T12:54:30.001Z</time></trkpt><trkpt lat="43.490774145042906" lon="11.3542471941575"><ele>335.0</ele><time>2026-04-30T12:54:31.001Z</time></trkpt><trkpt lat="43.490840739559566" lon="11.35436250646569"><ele>335.0</ele><time>2026-04-30T12:54:32.001Z</time></trkpt><trkpt lat="43.49091060327639" lon="11.354443839877913"><ele>335.0</ele><time>2026-04-30T12:54:33.001Z</time></trkpt><trkpt lat="43.49097049405574" lon="11.354501135757102"><ele>335.0</ele><time>2026-04-30T12:54:34.001Z</time></trkpt><trkpt lat="43.491021683173976" lon="11.354635595967416"><ele>335.0</ele><time>2026-04-30T12:54:36.001Z</time></trkpt><trkpt lat="43.49095877037815" lon="11.354797908579865"><ele>335.0</ele><time>2026-04-30T12:54:38.001Z</time></trkpt><trkpt lat="43.49091101882139" lon="11.35490445335297"><ele>336.5</ele><time>2026-04-30T12:54:39.001Z</time></trkpt><trkpt lat="43.49085888674602" lon="11.355025512944694"><ele>338.0</ele><time>2026-04-30T12:54:40.001Z</time></trkpt><trkpt lat="43.49076713235338" lon="11.355119513437435"><ele>339.5</ele><time>2026-04-30T12:54:41.001Z</time></trkpt><trkpt lat="43.49066828947998" lon="11.355202259130388"><ele>341.0</ele><time>2026-04-30T12:54:42.001Z</time></trkpt><trkpt lat="43.49056200269344" lon="11.355278920575213"><ele>341.0</ele><time>2026-04-30T12:54:43.001Z</time></trkpt><trkpt lat="43.49045154948418" lon="11.355372185744033"><ele>341.0</ele><time>2026-04-30T12:54:44.001Z</time></trkpt><trkpt lat="43.49033346478455" lon="11.355417735935939"><ele>341.0</ele><time>2026-04-30T12:54:45.001Z</time></trkpt><trkpt lat="43.49021416465412" lon="11.355484759795845"><ele>341.0</ele><time>2026-04-30T12:54:46.001Z</time></trkpt><trkpt lat="43.49011224542702" lon="11.35554254880273"><ele>343.4</ele><time>2026-04-30T12:54:47.001Z</time></trkpt><trkpt lat="43.49002319111652" lon="11.355587986896456"><ele>345.8</ele><time>2026-04-30T12:54:48.001Z</time></trkpt><trkpt lat="43.48994939349858" lon="11.35561916085541"><ele>348.2</ele><time>2026-04-30T12:54:49.001Z</time></trkpt><trkpt lat="43.489845833378055" lon="11.35568746970421"><ele>350.59999999999997</ele><time>2026-04-30T12:54:51.001Z</time></trkpt><trkpt lat="43.48983334961479" lon="11.355870950037463"><ele>353.0</ele><time>2026-04-30T12:54:53.001Z</time></trkpt><trkpt lat="43.48993163338503" lon="11.355946334704058"><ele>353.0</ele><time>2026-04-30T12:54:54.001Z</time></trkpt><trkpt lat="43.49003562839351" lon="11.355997438810608"><ele>353.0</ele><time>2026-04-30T12:54:55.001Z</time></trkpt><trkpt lat="43.49012874647987" lon="11.356049579180153"><ele>353.0</ele><time>2026-04-30T12:54:56.001Z</time></trkpt><trkpt lat="43.49017887760884" lon="11.35612455697989"><ele>353.0</ele><time>2026-04-30T12:54:57.001Z</time></trkpt><trkpt lat="43.49018475480688" lon="11.356236946244804"><ele>353.0</ele><time>2026-04-30T12:54:58.001Z</time></trkpt><trkpt lat="43.49014770726043" lon="11.356345769779303"><ele>356.25</ele><time>2026-04-30T12:54:59.001Z</time></trkpt><trkpt lat="43.49005340239699" lon="11.356383404672027"><ele>359.5</ele><time>2026-04-30T12:55:00.001Z</time></trkpt><trkpt lat="43.48995308472503" lon="11.356475926435452"><ele>362.75</ele><time>2026-04-30T12:55:01.001Z</time></trkpt><trkpt lat="43.48983239218232" lon="11.356594577183024"><ele>366.0</ele><time>2026-04-30T12:55:02.001Z</time></trkpt><trkpt lat="43.4896943583427" lon="11.356742950293611"><ele>366.5</ele><time>2026-04-30T12:55:03.001Z</time></trkpt><trkpt lat="43.48958366777202" lon="11.356897437098299"><ele>367.0</ele><time>2026-04-30T12:55:04Z</time></trkpt><trkpt lat="43.489489044140306" lon="11.35700829789555"><ele>367.5</ele><time>2026-04-30T12:55:05Z</time></trkpt><trkpt lat="43.4894142185755" lon="11.357114838160065"><ele>368.0</ele><time>2026-04-30T12:55:06Z</time></trkpt><trkpt lat="43.48931402633462" lon="11.357247661270366"><ele>370.5</ele><time>2026-04-30T12:55:07Z</time></trkpt><trkpt lat="43.489239592357364" lon="11.357433942538032"><ele>373.0</ele><time>2026-04-30T12:55:08Z</time></trkpt><trkpt lat="43.48916824592443" lon="11.357609742594365"><ele>375.5</ele><time>2026-04-30T12:55:09Z</time></trkpt><trkpt lat="43.48910642841922" lon="11.357777517883921"><ele>378.0</ele><time>2026-04-30T12:55:10Z</time></trkpt><trkpt lat="43.489055683182066" lon="11.357972342195554"><ele>381.5</ele><time>2026-04-30T12:55:11Z</time></trkpt><trkpt lat="43.48900759560665" lon="11.358179055637684"><ele>385.0</ele><time>2026-04-30T12:55:12Z</time></trkpt><trkpt lat="43.48898664491713" lon="11.358376013960466"><ele>388.5</ele><time>2026-04-30T12:55:13Z</time></trkpt><trkpt lat="43.48895284425258" lon="11.358564517424464"><ele>392.0</ele><time>2026-04-30T12:55:14Z</time></trkpt><trkpt lat="43.48892830003469" lon="11.358735822679044"><ele>394.75</ele><time>2026-04-30T12:55:15Z</time></trkpt><trkpt lat="43.488905313528605" lon="11.358909057762851"><ele>397.5</ele><time>2026-04-30T12:55:16Z</time></trkpt><trkpt lat="43.48887872099199" lon="11.359075883610075"><ele>400.25</ele><time>2026-04-30T12:55:17Z</time></trkpt><trkpt lat="43.488841493755615" lon="11.35923634492485"><ele>403.0</ele><time>2026-04-30T12:55:18Z</time></trkpt><trkpt lat="43.48880614364421" lon="11.359382209366448"><ele>403.0</ele><time>2026-04-30T12:55:19Z</time></trkpt><trkpt lat="43.488769665664655" lon="11.35955719604468"><ele>403.0</ele><time>2026-04-30T12:55:20Z</time></trkpt><trkpt lat="43.48870599759324" lon="11.359745509561746"><ele>403.0</ele><time>2026-04-30T12:55:21Z</time></trkpt><trkpt lat="43.48862586200972" lon="11.359937138992064"><ele>403.0</ele><time>2026-04-30T12:55:22Z</time></trkpt><trkpt lat="43.48855330176564" lon="11.36011449362787"><ele>404.5</ele><time>2026-04-30T12:55:23Z</time></trkpt><trkpt lat="43.48848352753692" lon="11.3602789722714"><ele>406.0</ele><time>2026-04-30T12:55:24Z</time></trkpt><trkpt lat="43.48842190888401" lon="11.360428335958433"><ele>407.5</ele><time>2026-04-30T12:55:25Z</time></trkpt><trkpt lat="43.48836398842524" lon="11.360578373336972"><ele>409.0</ele><time>2026-04-30T12:55:26Z</time></trkpt><trkpt lat="43.4883037221264" lon="11.360722145804278"><ele>410.83333333333337</ele><time>2026-04-30T12:55:27Z</time></trkpt><trkpt lat="43.48824125550062" lon="11.360850436752015"><ele>412.6666666666667</ele><time>2026-04-30T12:55:28Z</time></trkpt><trkpt lat="43.488190325706924" lon="11.360956392321366"><ele>414.5</ele><time>2026-04-30T12:55:29Z</time></trkpt><trkpt lat="43.48815580558702" lon="11.361037921316083"><ele>416.33333333333337</ele><time>2026-04-30T12:55:30Z</time></trkpt><trkpt lat="43.488129204401616" lon="11.361126554244048"><ele>418.1666666666667</ele><time>2026-04-30T12:55:31Z</time></trkpt><trkpt lat="43.4881395623249" lon="11.361230213853716"><ele>420.0</ele><time>2026-04-30T12:55:32Z</time></trkpt><trkpt lat="43.48819931242557" lon="11.361295485333278"><ele>420.0</ele><time>2026-04-30T12:55:33Z</time></trkpt><trkpt lat="43.48829245179611" lon="11.361339758386972"><ele>420.0</ele><time>2026-04-30T12:55:34Z</time></trkpt><trkpt lat="43.48839178350632" lon="11.361354846024213"><ele>420.0</ele><time>2026-04-30T12:55:35Z</time></trkpt><trkpt lat="43.48844745042714" lon="11.361420778120223"><ele>420.0</ele><time>2026-04-30T12:55:36Z</time></trkpt><trkpt lat="43.48846299580417" lon="11.361515604693665"><ele>420.0</ele><time>2026-04-30T12:55:37Z</time></trkpt><trkpt lat="43.488426529619204" lon="11.361596233430562"><ele>420.0</ele><time>2026-04-30T12:55:38Z</time></trkpt><trkpt lat="43.48835075574324" lon="11.361652729619705"><ele>424.0</ele><time>2026-04-30T12:55:39Z</time></trkpt><trkpt lat="43.48825664150761" lon="11.361723884525587"><ele>428.0</ele><time>2026-04-30T12:55:40Z</time></trkpt><trkpt lat="43.48814425671296" lon="11.36183220494716"><ele>432.0</ele><time>2026-04-30T12:55:41Z</time></trkpt><trkpt lat="43.48805429080754" lon="11.36192739501062"><ele>436.0</ele><time>2026-04-30T12:55:42Z</time></trkpt><trkpt lat="43.48799382704807" lon="11.36204028977861"><ele>436.0</ele><time>2026-04-30T12:55:43Z</time></trkpt><trkpt lat="43.48795174606916" lon="11.362197919280117"><ele>436.0</ele><time>2026-04-30T12:55:44Z</time></trkpt><trkpt lat="43.48790592447586" lon="11.362363697290323"><ele>436.0</ele><time>2026-04-30T12:55:45Z</time></trkpt><trkpt lat="43.48785709857232" lon="11.362554002386403"><ele>436.0</ele><time>2026-04-30T12:55:46Z</time></trkpt><trkpt lat="43.4878178497664" lon="11.362697759873898"><ele>437.8</ele><time>2026-04-30T12:55:47Z</time></trkpt><trkpt lat="43.48778318243325" lon="11.362838678803554"><ele>439.6</ele><time>2026-04-30T12:55:48Z</time></trkpt><trkpt lat="43.487734480122576" lon="11.362969551543028"><ele>441.4</ele><time>2026-04-30T12:55:49Z</time></trkpt><trkpt lat="43.4876791055914" lon="11.363098117615085"><ele>443.2</ele><time>2026-04-30T12:55:50Z</time></trkpt><trkpt lat="43.48761121945307" lon="11.363216207018429"><ele>445.0</ele><time>2026-04-30T12:55:51Z</time></trkpt><trkpt lat="43.4875449921811" lon="11.363286464773344"><ele>446.2</ele><time>2026-04-30T12:55:52Z</time></trkpt><trkpt lat="43.48746137525432" lon="11.36335221850788"><ele>447.4</ele><time>2026-04-30T12:55:53Z</time></trkpt><trkpt lat="43.48738575262888" lon="11.363412833264547"><ele>448.6</ele><time>2026-04-30T12:55:54Z</time></trkpt><trkpt lat="43.48728493601446" lon="11.363500971983395"><ele>449.8</ele><time>2026-04-30T12:55:55Z</time></trkpt><trkpt lat="43.487164614024216" lon="11.36360924896682"><ele>451.0</ele><time>2026-04-30T12:55:56Z</time></trkpt><trkpt lat="43.487025541150956" lon="11.36373860675629"><ele>456.0</ele><time>2026-04-30T12:55:57Z</time></trkpt><trkpt lat="43.486886557945624" lon="11.363873708122398"><ele>461.0</ele><time>2026-04-30T12:55:58Z</time></trkpt><trkpt lat="43.48675167103346" lon="11.364007135904997"><ele>466.0</ele><time>2026-04-30T12:55:59Z</time></trkpt><trkpt lat="43.48665289375929" lon="11.36416355248936"><ele>466.0</ele><time>2026-04-30T12:56:00Z</time></trkpt><trkpt lat="43.486570808614395" lon="11.364322062478566"><ele>466.0</ele><time>2026-04-30T12:56:01Z</time></trkpt><trkpt lat="43.48649830065219" lon="11.3644789367627"><ele>466.0</ele><time>2026-04-30T12:56:02Z</time></trkpt><trkpt lat="43.486392503326364" lon="11.364595932029824"><ele>466.0</ele><time>2026-04-30T12:56:03Z</time></trkpt><trkpt lat="43.48628496004954" lon="11.364719296787797"><ele>471.25</ele><time>2026-04-30T12:56:04Z</time></trkpt><trkpt lat="43.48621597373125" lon="11.364878254207087"><ele>476.5</ele><time>2026-04-30T12:56:05Z</time></trkpt><trkpt lat="43.48612773224198" lon="11.365015147841696"><ele>481.75</ele><time>2026-04-30T12:56:06Z</time></trkpt><trkpt lat="43.48605582515408" lon="11.365173768048301"><ele>487.0</ele><time>2026-04-30T12:56:07Z</time></trkpt><trkpt lat="43.48597529284248" lon="11.365297359635207"><ele>487.0</ele><time>2026-04-30T12:56:08Z</time></trkpt><trkpt lat="43.485854309230575" lon="11.365413976723591"><ele>487.0</ele><time>2026-04-30T12:56:09Z</time></trkpt><trkpt lat="43.48570994110243" lon="11.365531838250407"><ele>487.0</ele><time>2026-04-30T12:56:10Z</time></trkpt><trkpt lat="43.48555870722253" lon="11.365650076543366"><ele>490.0</ele><time>2026-04-30T12:56:11Z</time></trkpt><trkpt lat="43.485427660813976" lon="11.365779397035265"><ele>493.0</ele><time>2026-04-30T12:56:12Z</time></trkpt><trkpt lat="43.48529336581729" lon="11.36591396913478"><ele>496.0</ele><time>2026-04-30T12:56:13Z</time></trkpt><trkpt lat="43.48516157549594" lon="11.366045908725873"><ele>496.0</ele><time>2026-04-30T12:56:14.001Z</time></trkpt><trkpt lat="43.485044199923834" lon="11.366163373674146"><ele>496.0</ele><time>2026-04-30T12:56:15.001Z</time></trkpt><trkpt lat="43.48495019278857" lon="11.366259424057905"><ele>496.0</ele><time>2026-04-30T12:56:16.001Z</time></trkpt><trkpt lat="43.48488343039182" lon="11.36633070852507"><ele>496.0</ele><time>2026-04-30T12:56:17.001Z</time></trkpt><trkpt lat="43.48482346910649" lon="11.36638279044449"><ele>496.0</ele><time>2026-04-30T12:56:18.001Z</time></trkpt><trkpt lat="43.484765397114515" lon="11.366425752068366"><ele>495.83333333333337</ele><time>2026-04-30T12:56:19.001Z</time></trkpt><trkpt lat="43.484692945785525" lon="11.366475944904435"><ele>495.6666666666667</ele><time>2026-04-30T12:56:20.001Z</time></trkpt><trkpt lat="43.484635114771656" lon="11.366515806492801"><ele>495.5</ele><time>2026-04-30T12:56:21.001Z</time></trkpt><trkpt lat="43.484540213789444" lon="11.366581219622855"><ele>495.33333333333337</ele><time>2026-04-30T12:56:23.001Z</time></trkpt><trkpt lat="43.4844876006739" lon="11.366649248011006"><ele>495.1666666666667</ele><time>2026-04-30T12:56:25.001Z</time></trkpt><trkpt lat="43.48444310326923" lon="11.366760816046192"><ele>495.0</ele><time>2026-04-30T12:56:27.001Z</time></trkpt><trkpt lat="43.48444891327726" lon="11.366863317231292"><ele>495.0</ele><time>2026-04-30T12:56:30.001Z</time></trkpt><trkpt lat="43.48441208648985" lon="11.366986082349053"><ele>495.0</ele><time>2026-04-30T12:56:41.001Z</time></trkpt><trkpt lat="43.48445142717945" lon="11.367098987565956"><ele>495.0</ele><time>2026-04-30T12:56:42.001Z</time></trkpt><trkpt lat="43.48448013206587" lon="11.36720811243648"><ele>495.0</ele><time>2026-04-30T12:56:43.001Z</time></trkpt><trkpt lat="43.48450675450521" lon="11.367316907805199"><ele>495.0</ele><time>2026-04-30T12:56:44.001Z</time></trkpt><trkpt lat="43.48453337078109" lon="11.36742286609647"><ele>495.0</ele><time>2026-04-30T12:56:45.001Z</time></trkpt><trkpt lat="43.48454837046601" lon="11.367544214567749"><ele>494.8</ele><time>2026-04-30T12:56:46.001Z</time></trkpt><trkpt lat="43.48457401401848" lon="11.367658831052784"><ele>494.6</ele><time>2026-04-30T12:56:47.001Z</time></trkpt><trkpt lat="43.48459595440348" lon="11.367792809560573"><ele>494.4</ele><time>2026-04-30T12:56:48.001Z</time></trkpt><trkpt lat="43.48461826506199" lon="11.367954410225394"><ele>494.2</ele><time>2026-04-30T12:56:49.001Z</time></trkpt><trkpt lat="43.48464214225406" lon="11.368136964490926"><ele>494.0</ele><time>2026-04-30T12:56:50.001Z</time></trkpt><trkpt lat="43.48467567457555" lon="11.368313315078302"><ele>495.6</ele><time>2026-04-30T12:56:51.001Z</time></trkpt><trkpt lat="43.48469712056279" lon="11.368481276128325"><ele>497.2</ele><time>2026-04-30T12:56:52.001Z</time></trkpt><trkpt lat="43.48471601331548" lon="11.368636319870713"><ele>498.80000000000007</ele><time>2026-04-30T12:56:53.001Z</time></trkpt><trkpt lat="43.484731768363" lon="11.368776230919304"><ele>500.40000000000003</ele><time>2026-04-30T12:56:54.001Z</time></trkpt><trkpt lat="43.484748531485735" lon="11.368896399979437"><ele>502.0</ele><time>2026-04-30T12:56:55.001Z</time></trkpt><trkpt lat="43.48475774381825" lon="11.368999219498278"><ele>502.83333333333337</ele><time>2026-04-30T12:56:56.001Z</time></trkpt><trkpt lat="43.48476661939674" lon="11.36910268624564"><ele>503.6666666666667</ele><time>2026-04-30T12:56:57.001Z</time></trkpt><trkpt lat="43.484787834820104" lon="11.369193370684792"><ele>504.5</ele><time>2026-04-30T12:56:58.001Z</time></trkpt><trkpt lat="43.484818384272685" lon="11.369277187754689"><ele>505.33333333333337</ele><time>2026-04-30T12:56:59.001Z</time></trkpt><trkpt lat="43.48485855174824" lon="11.369365332087098"><ele>506.1666666666667</ele><time>2026-04-30T12:57:00.001Z</time></trkpt><trkpt lat="43.484921878478715" lon="11.369472425058222"><ele>507.0</ele><time>2026-04-30T12:57:01.001Z</time></trkpt><trkpt lat="43.48500764555605" lon="11.369587935649434"><ele>508.25</ele><time>2026-04-30T12:57:02.001Z</time></trkpt><trkpt lat="43.48511059142452" lon="11.369700285205894"><ele>509.5</ele><time>2026-04-30T12:57:03.001Z</time></trkpt><trkpt lat="43.4852164168045" lon="11.369793548397357"><ele>510.75</ele><time>2026-04-30T12:57:04.001Z</time></trkpt><trkpt lat="43.48532974091862" lon="11.369848517103557"><ele>512.0</ele><time>2026-04-30T12:57:05.001Z</time></trkpt><trkpt lat="43.485447129707836" lon="11.369877055803311"><ele>512.0</ele><time>2026-04-30T12:57:06.001Z</time></trkpt><trkpt lat="43.48556072103309" lon="11.369899126724361"><ele>512.0</ele><time>2026-04-30T12:57:07.001Z</time></trkpt><trkpt lat="43.48566773799183" lon="11.369932273986956"><ele>512.0</ele><time>2026-04-30T12:57:08.001Z</time></trkpt><trkpt lat="43.48577816614237" lon="11.37001647233972"><ele>512.0</ele><time>2026-04-30T12:57:09.001Z</time></trkpt><trkpt lat="43.48585212963701" lon="11.37015994377648"><ele>512.0</ele><time>2026-04-30T12:57:10Z</time></trkpt><trkpt lat="43.485916722142065" lon="11.370285694664112"><ele>512.0</ele><time>2026-04-30T12:57:11Z</time></trkpt><trkpt lat="43.48596768287395" lon="11.370419957985579"><ele>512.0</ele><time>2026-04-30T12:57:12Z</time></trkpt><trkpt lat="43.48603448836881" lon="11.370550557616424"><ele>512.0</ele><time>2026-04-30T12:57:13Z</time></trkpt><trkpt lat="43.48607614997075" lon="11.370697692605098"><ele>513.1666666666666</ele><time>2026-04-30T12:57:14Z</time></trkpt><trkpt lat="43.486121265829645" lon="11.370833047228997"><ele>514.3333333333333</ele><time>2026-04-30T12:57:15Z</time></trkpt><trkpt lat="43.486156927206224" lon="11.37095479319545"><ele>515.5</ele><time>2026-04-30T12:57:16Z</time></trkpt><trkpt lat="43.48617820588716" lon="11.37106127303488"><ele>516.6666666666666</ele><time>2026-04-30T12:57:17Z</time></trkpt><trkpt lat="43.48619152570277" lon="11.371172627289123"><ele>517.8333333333334</ele><time>2026-04-30T12:57:18Z</time></trkpt><trkpt lat="43.486220529548355" lon="11.371268638852744"><ele>519.0</ele><time>2026-04-30T12:57:19Z</time></trkpt><trkpt lat="43.48624452437738" lon="11.371399264006762"><ele>519.2</ele><time>2026-04-30T12:57:20Z</time></trkpt><trkpt lat="43.4862584255254" lon="11.371541057201876"><ele>519.4</ele><time>2026-04-30T12:57:21Z</time></trkpt><trkpt lat="43.48627537369875" lon="11.371676221960644"><ele>519.6</ele><time>2026-04-30T12:57:22Z</time></trkpt><trkpt lat="43.486299204222256" lon="11.371803507231625"><ele>519.8</ele><time>2026-04-30T12:57:23Z</time></trkpt><trkpt lat="43.486315541296506" lon="11.371926973410025"><ele>520.0</ele><time>2026-04-30T12:57:24Z</time></trkpt><trkpt lat="43.486321177214485" lon="11.372053353551987"><ele>519.0</ele><time>2026-04-30T12:57:25Z</time></trkpt><trkpt lat="43.48632796999678" lon="11.372175498224202"><ele>518.0</ele><time>2026-04-30T12:57:26Z</time></trkpt><trkpt lat="43.48634414895994" lon="11.372282739033693"><ele>517.0</ele><time>2026-04-30T12:57:27Z</time></trkpt><trkpt lat="43.48636080289177" lon="11.372396929668701"><ele>516.0</ele><time>2026-04-30T12:57:28Z</time></trkpt><trkpt lat="43.48637904242349" lon="11.372569326717766"><ele>515.0</ele><time>2026-04-30T12:57:30Z</time></trkpt><trkpt lat="43.4863902802971" lon="11.372666918238492"><ele>515.0</ele><time>2026-04-30T12:57:31Z</time></trkpt><trkpt lat="43.48638767884246" lon="11.37276382933345"><ele>515.0</ele><time>2026-04-30T12:57:32Z</time></trkpt><trkpt lat="43.48640946899954" lon="11.372935878423945"><ele>515.0</ele><time>2026-04-30T12:57:34Z</time></trkpt><trkpt lat="43.48641303064737" lon="11.3730340147603"><ele>515.0</ele><time>2026-04-30T12:57:35Z</time></trkpt><trkpt lat="43.4864078003995" lon="11.373121371400357"><ele>515.0</ele><time>2026-04-30T12:57:36Z</time></trkpt><trkpt lat="43.486384952487285" lon="11.373271997005167"><ele>515.0</ele><time>2026-04-30T12:57:38Z</time></trkpt><trkpt lat="43.486343621098825" lon="11.3734370062965"><ele>515.8</ele><time>2026-04-30T12:57:40Z</time></trkpt><trkpt lat="43.48631295347225" lon="11.373534324155202"><ele>516.6</ele><time>2026-04-30T12:57:41Z</time></trkpt><trkpt lat="43.486274738860835" lon="11.373671491036824"><ele>517.4</ele><time>2026-04-30T12:57:42Z</time></trkpt><trkpt lat="43.48622339732033" lon="11.373799104106414"><ele>518.2</ele><time>2026-04-30T12:57:43Z</time></trkpt><trkpt lat="43.48619039408728" lon="11.373940333729724"><ele>519.0</ele><time>2026-04-30T12:57:44Z</time></trkpt><trkpt lat="43.48615523002582" lon="11.374072194290068"><ele>518.8333333333334</ele><time>2026-04-30T12:57:45Z</time></trkpt><trkpt lat="43.48613646581995" lon="11.374203251664047"><ele>518.6666666666666</ele><time>2026-04-30T12:57:46Z</time></trkpt><trkpt lat="43.48611292762353" lon="11.374321259660283"><ele>518.5</ele><time>2026-04-30T12:57:47Z</time></trkpt><trkpt lat="43.48610734801847" lon="11.374434269496044"><ele>518.3333333333333</ele><time>2026-04-30T12:57:48Z</time></trkpt><trkpt lat="43.486127886841146" lon="11.374551798826664"><ele>518.1666666666666</ele><time>2026-04-30T12:57:49Z</time></trkpt><trkpt lat="43.48617676046836" lon="11.374656852519971"><ele>518.0</ele><time>2026-04-30T12:57:50Z</time></trkpt><trkpt lat="43.48624139926265" lon="11.374735746804921"><ele>520.0</ele><time>2026-04-30T12:57:51Z</time></trkpt><trkpt lat="43.48628905547951" lon="11.374819197843943"><ele>522.0</ele><time>2026-04-30T12:57:52Z</time></trkpt><trkpt lat="43.48632996266084" lon="11.374919799384967"><ele>524.0</ele><time>2026-04-30T12:57:53Z</time></trkpt><trkpt lat="43.48638814026475" lon="11.374983944395948"><ele>526.0</ele><time>2026-04-30T12:57:54Z</time></trkpt><trkpt lat="43.4864201572374" lon="11.375067825269848"><ele>528.0</ele><time>2026-04-30T12:57:55Z</time></trkpt><trkpt lat="43.486464462205184" lon="11.375140789360287"><ele>530.0</ele><time>2026-04-30T12:57:56Z</time></trkpt><trkpt lat="43.48651265620895" lon="11.375220158356695"><ele>532.0</ele><time>2026-04-30T12:57:57Z</time></trkpt><trkpt lat="43.48655507056132" lon="11.375290009060274"><ele>532.0</ele><time>2026-04-30T12:57:58Z</time></trkpt><trkpt lat="43.48659701729406" lon="11.375359089588303"><ele>532.0</ele><time>2026-04-30T12:57:59Z</time></trkpt><trkpt lat="43.486640280864265" lon="11.375430367766727"><ele>532.0</ele><time>2026-04-30T12:58:00Z</time></trkpt><trkpt lat="43.48672944024082" lon="11.375544787537011"><ele>532.0</ele><time>2026-04-30T12:58:02Z</time></trkpt><trkpt lat="43.48678530815438" lon="11.375670778450608"><ele>532.0</ele><time>2026-04-30T12:58:04Z</time></trkpt><trkpt lat="43.48685311200744" lon="11.375792595269461"><ele>530.3333333333334</ele><time>2026-04-30T12:58:06Z</time></trkpt><trkpt lat="43.48688490395469" lon="11.375870269026407"><ele>528.6666666666667</ele><time>2026-04-30T12:58:07Z</time></trkpt><trkpt lat="43.48691259496783" lon="11.376029070412589"><ele>527.0</ele><time>2026-04-30T12:58:09Z</time></trkpt><trkpt lat="43.486901004019415" lon="11.37619277671007"><ele>525.3333333333334</ele><time>2026-04-30T12:58:11Z</time></trkpt><trkpt lat="43.48689546848325" lon="11.376282478352246"><ele>523.6666666666666</ele><time>2026-04-30T12:58:12Z</time></trkpt><trkpt lat="43.48688902441519" lon="11.376378349977037"><ele>522.0</ele><time>2026-04-30T12:58:13Z</time></trkpt><trkpt lat="43.48688183817226" lon="11.376477125848105"><ele>520.8333333333334</ele><time>2026-04-30T12:58:14Z</time></trkpt><trkpt lat="43.486874076742026" lon="11.37658380708934"><ele>519.6666666666666</ele><time>2026-04-30T12:58:15Z</time></trkpt><trkpt lat="43.48688261898736" lon="11.376694862921438"><ele>518.5</ele><time>2026-04-30T12:58:16Z</time></trkpt><trkpt lat="43.48685864414345" lon="11.376799076821246"><ele>517.3333333333333</ele><time>2026-04-30T12:58:17Z</time></trkpt><trkpt lat="43.48686618376374" lon="11.376914103628414"><ele>516.1666666666666</ele><time>2026-04-30T12:58:18Z</time></trkpt><trkpt lat="43.48685226600569" lon="11.377038548683858"><ele>515.0</ele><time>2026-04-30T12:58:19Z</time></trkpt><trkpt lat="43.486844910707205" lon="11.377156339145609"><ele>515.0</ele><time>2026-04-30T12:58:20Z</time></trkpt><trkpt lat="43.48683993066866" lon="11.377290878017348"><ele>515.0</ele><time>2026-04-30T12:58:21Z</time></trkpt><trkpt lat="43.48683070385241" lon="11.377398884889482"><ele>515.0</ele><time>2026-04-30T12:58:22Z</time></trkpt><trkpt lat="43.48680810614697" lon="11.37752614544281"><ele>515.0</ele><time>2026-04-30T12:58:23Z</time></trkpt><trkpt lat="43.48679995667808" lon="11.377648522332592"><ele>515.0</ele><time>2026-04-30T12:58:24Z</time></trkpt><trkpt lat="43.486799979250286" lon="11.377788090145398"><ele>515.0</ele><time>2026-04-30T12:58:25Z</time></trkpt><trkpt lat="43.4868242620367" lon="11.377921103519267"><ele>515.0</ele><time>2026-04-30T12:58:26.001Z</time></trkpt><trkpt lat="43.48683259699222" lon="11.378068170005777"><ele>515.0</ele><time>2026-04-30T12:58:27.001Z</time></trkpt><trkpt lat="43.486878977462425" lon="11.37820194902652"><ele>515.0</ele><time>2026-04-30T12:58:28.001Z</time></trkpt><trkpt lat="43.486920372094275" lon="11.378349596465748"><ele>515.0</ele><time>2026-04-30T12:58:29.001Z</time></trkpt><trkpt lat="43.48697610607472" lon="11.37850263628646"><ele>516.0</ele><time>2026-04-30T12:58:30.001Z</time></trkpt><trkpt lat="43.4870512125812" lon="11.378662603612254"><ele>517.0</ele><time>2026-04-30T12:58:31.001Z</time></trkpt><trkpt lat="43.48712872625177" lon="11.3787889345389"><ele>518.0</ele><time>2026-04-30T12:58:32.001Z</time></trkpt><trkpt lat="43.48720398233679" lon="11.378913689476633"><ele>519.0</ele><time>2026-04-30T12:58:33.001Z</time></trkpt><trkpt lat="43.487256362402995" lon="11.379038926535454"><ele>516.8333333333334</ele><time>2026-04-30T12:58:34.001Z</time></trkpt><trkpt lat="43.487324087756605" lon="11.379131058994915"><ele>514.6666666666666</ele><time>2026-04-30T12:58:35.001Z</time></trkpt><trkpt lat="43.48736433835262" lon="11.379238701931214"><ele>512.5</ele><time>2026-04-30T12:58:36.001Z</time></trkpt><trkpt lat="43.48740651447119" lon="11.379311904419207"><ele>510.3333333333333</ele><time>2026-04-30T12:58:37.001Z</time></trkpt><trkpt lat="43.48746253036212" lon="11.37939941115073"><ele>508.16666666666663</ele><time>2026-04-30T12:58:39.001Z</time></trkpt><trkpt lat="43.48739993958797" lon="11.379354722884585"><ele>506.0</ele><time>2026-04-30T12:58:47.001Z</time></trkpt><trkpt lat="43.48733944110581" lon="11.379293019904214"><ele>505.99999999999994</ele><time>2026-04-30T12:58:50.001Z</time></trkpt><trkpt lat="43.48731711312286" lon="11.379382700327398"><ele>506.0</ele><time>2026-04-30T12:58:56.001Z</time></trkpt><trkpt lat="43.48739323918391" lon="11.379440858059354"><ele>506.0</ele><time>2026-04-30T13:00:34.001Z</time></trkpt><trkpt lat="43.487452700688884" lon="11.379501359582818"><ele>506.0</ele><time>2026-04-30T13:00:36.001Z</time></trkpt><trkpt lat="43.48749648130197" lon="11.379421579620166"><ele>505.99999999999994</ele><time>2026-04-30T13:00:45.001Z</time></trkpt><trkpt lat="43.48746023655314" lon="11.379293047649263"><ele>506.0</ele><time>2026-04-30T13:00:47.001Z</time></trkpt><trkpt lat="43.487383360277214" lon="11.379181080025697"><ele>506.0</ele><time>2026-04-30T13:00:48.001Z</time></trkpt><trkpt lat="43.48728962081633" lon="11.379023909624618"><ele>506.0</ele><time>2026-04-30T13:00:49.001Z</time></trkpt><trkpt lat="43.48719485955892" lon="11.378865978840537"><ele>506.0</ele><time>2026-04-30T13:00:50.001Z</time></trkpt><trkpt lat="43.48710176700574" lon="11.37870307144253"><ele>506.0</ele><time>2026-04-30T13:00:51.001Z</time></trkpt><trkpt lat="43.487020799740435" lon="11.378550374834045"><ele>507.0</ele><time>2026-04-30T13:00:52.001Z</time></trkpt><trkpt lat="43.48695463740912" lon="11.378405477099296"><ele>508.0</ele><time>2026-04-30T13:00:53.001Z</time></trkpt><trkpt lat="43.486898961027016" lon="11.378252552155601"><ele>509.0</ele><time>2026-04-30T13:00:54.001Z</time></trkpt><trkpt lat="43.48685883221067" lon="11.37808731705527"><ele>510.0</ele><time>2026-04-30T13:00:55.001Z</time></trkpt><trkpt lat="43.48683348925468" lon="11.377922764078853"><ele>511.0</ele><time>2026-04-30T13:00:56.001Z</time></trkpt><trkpt lat="43.48681932404614" lon="11.37776544704341"><ele>512.0</ele><time>2026-04-30T13:00:57.001Z</time></trkpt><trkpt lat="43.48682440428638" lon="11.377614712659856"><ele>513.0</ele><time>2026-04-30T13:00:58.001Z</time></trkpt><trkpt lat="43.48683507771532" lon="11.377464576097813"><ele>514.0</ele><time>2026-04-30T13:00:59.001Z</time></trkpt><trkpt lat="43.48683994760463" lon="11.377312939551803"><ele>515.0</ele><time>2026-04-30T13:01:00.001Z</time></trkpt><trkpt lat="43.486858816192814" lon="11.377168760951538"><ele>515.0</ele><time>2026-04-30T13:01:01.001Z</time></trkpt><trkpt lat="43.48687578243778" lon="11.377019634089331"><ele>515.0</ele><time>2026-04-30T13:01:02.001Z</time></trkpt><trkpt lat="43.48688375667121" lon="11.37686163199222"><ele>515.0</ele><time>2026-04-30T13:01:03.001Z</time></trkpt><trkpt lat="43.48689656965658" lon="11.376709125292024"><ele>515.0</ele><time>2026-04-30T13:01:04.001Z</time></trkpt><trkpt lat="43.48691083372232" lon="11.376526166125386"><ele>516.75</ele><time>2026-04-30T13:01:05.001Z</time></trkpt><trkpt lat="43.486925624864064" lon="11.376328596283717"><ele>518.5</ele><time>2026-04-30T13:01:06.001Z</time></trkpt><trkpt lat="43.486938829304115" lon="11.376162398985583"><ele>520.25</ele><time>2026-04-30T13:01:07.001Z</time></trkpt><trkpt lat="43.4869364528577" lon="11.376037047867712"><ele>522.0</ele><time>2026-04-30T13:01:08.001Z</time></trkpt><trkpt lat="43.48692320667658" lon="11.375907505482825"><ele>522.0</ele><time>2026-04-30T13:01:09.001Z</time></trkpt><trkpt lat="43.48689374482049" lon="11.375766782437339"><ele>522.0</ele><time>2026-04-30T13:01:10.001Z</time></trkpt><trkpt lat="43.486832465361644" lon="11.375660487209514"><ele>522.0</ele><time>2026-04-30T13:01:11.001Z</time></trkpt><trkpt lat="43.48676292572015" lon="11.37556344481849"><ele>522.0</ele><time>2026-04-30T13:01:12.001Z</time></trkpt><trkpt lat="43.48669322246947" lon="11.375464737758637"><ele>522.0</ele><time>2026-04-30T13:01:13.001Z</time></trkpt><trkpt lat="43.48661205581371" lon="11.375329945581372"><ele>524.5</ele><time>2026-04-30T13:01:14.001Z</time></trkpt><trkpt lat="43.48652298966451" lon="11.375187993253881"><ele>527.0</ele><time>2026-04-30T13:01:15.001Z</time></trkpt><trkpt lat="43.48644381419193" lon="11.375042241402493"><ele>529.5</ele><time>2026-04-30T13:01:16.001Z</time></trkpt><trkpt lat="43.48636243109833" lon="11.374903826688398"><ele>532.0</ele><time>2026-04-30T13:01:17.001Z</time></trkpt><trkpt lat="43.486278010868965" lon="11.374782516527876"><ele>529.25</ele><time>2026-04-30T13:01:18.001Z</time></trkpt><trkpt lat="43.486210276798786" lon="11.374657028096696"><ele>526.5</ele><time>2026-04-30T13:01:19.001Z</time></trkpt><trkpt lat="43.48616402107745" lon="11.374513172863976"><ele>523.75</ele><time>2026-04-30T13:01:20.001Z</time></trkpt><trkpt lat="43.486162217832685" lon="11.374341335718384"><ele>521.0</ele><time>2026-04-30T13:01:21.001Z</time></trkpt><trkpt lat="43.486172831495765" lon="11.37416641493081"><ele>521.0</ele><time>2026-04-30T13:01:21.999Z</time></trkpt><trkpt lat="43.48620802433078" lon="11.374005443220877"><ele>521.0</ele><time>2026-04-30T13:01:22.999Z</time></trkpt><trkpt lat="43.48624480832527" lon="11.373847204065859"><ele>521.0</ele><time>2026-04-30T13:01:23.999Z</time></trkpt><trkpt lat="43.48628356621827" lon="11.373694077243155"><ele>521.0</ele><time>2026-04-30T13:01:24.999Z</time></trkpt><trkpt lat="43.486331605938936" lon="11.373555929790239"><ele>519.8</ele><time>2026-04-30T13:01:25.999Z</time></trkpt><trkpt lat="43.48638035467199" lon="11.373421696348021"><ele>518.6</ele><time>2026-04-30T13:01:26.999Z</time></trkpt><trkpt lat="43.486409651026555" lon="11.373289783710844"><ele>517.4</ele><time>2026-04-30T13:01:27.999Z</time></trkpt><trkpt lat="43.486424384816054" lon="11.373163961004863"><ele>516.2</ele><time>2026-04-30T13:01:28.999Z</time></trkpt><trkpt lat="43.486432667120795" lon="11.373024993263709"><ele>515.0</ele><time>2026-04-30T13:01:29.999Z</time></trkpt><trkpt lat="43.48642538707637" lon="11.372859897378953"><ele>515.0</ele><time>2026-04-30T13:01:30.999Z</time></trkpt><trkpt lat="43.48641143637687" lon="11.372705913849916"><ele>515.0</ele><time>2026-04-30T13:01:31.999Z</time></trkpt><trkpt lat="43.486396118272964" lon="11.372566120234042"><ele>515.0</ele><time>2026-04-30T13:01:32.999Z</time></trkpt><trkpt lat="43.48637756759625" lon="11.37242758666159"><ele>515.0</ele><time>2026-04-30T13:01:33.999Z</time></trkpt><trkpt lat="43.48636448375533" lon="11.372293936854927"><ele>515.0</ele><time>2026-04-30T13:01:34.999Z</time></trkpt><trkpt lat="43.486349818482914" lon="11.372152157153382"><ele>513.1666666666666</ele><time>2026-04-30T13:01:35.999Z</time></trkpt><trkpt lat="43.486337297414956" lon="11.372015303412253"><ele>511.3333333333333</ele><time>2026-04-30T13:01:36.999Z</time></trkpt><trkpt lat="43.4863235208857" lon="11.371887346190597"><ele>509.5</ele><time>2026-04-30T13:01:37.999Z</time></trkpt><trkpt lat="43.48630652430733" lon="11.371768864373934"><ele>507.66666666666663</ele><time>2026-04-30T13:01:38.999Z</time></trkpt><trkpt lat="43.48629712205164" lon="11.371662630579946"><ele>505.8333333333333</ele><time>2026-04-30T13:01:39.999Z</time></trkpt><trkpt lat="43.486289728982086" lon="11.371554344237001"><ele>504.0</ele><time>2026-04-30T13:01:40.999Z</time></trkpt><trkpt lat="43.48627368587113" lon="11.371445946684188"><ele>507.0</ele><time>2026-04-30T13:01:41.999Z</time></trkpt><trkpt lat="43.486251764901255" lon="11.37133153766115"><ele>510.0</ele><time>2026-04-30T13:01:42.999Z</time></trkpt><trkpt lat="43.4862292637728" lon="11.37121488863332"><ele>513.0</ele><time>2026-04-30T13:01:43.999Z</time></trkpt><trkpt lat="43.486204633292864" lon="11.371094136019089"><ele>516.0</ele><time>2026-04-30T13:01:44.999Z</time></trkpt><trkpt lat="43.486177104583824" lon="11.370965637117125"><ele>519.0</ele><time>2026-04-30T13:01:45.999Z</time></trkpt><trkpt lat="43.486129995795075" lon="11.370832625184066"><ele>519.0</ele><time>2026-04-30T13:01:46.999Z</time></trkpt><trkpt lat="43.48608520150747" lon="11.370692462952995"><ele>519.0</ele><time>2026-04-30T13:01:47.999Z</time></trkpt><trkpt lat="43.486041391627104" lon="11.370553371833976"><ele>519.0</ele><time>2026-04-30T13:01:48.999Z</time></trkpt><trkpt lat="43.485994561004134" lon="11.370418460328018"><ele>519.0</ele><time>2026-04-30T13:01:49.999Z</time></trkpt><trkpt lat="43.485954592404944" lon="11.370287250223146"><ele>519.0</ele><time>2026-04-30T13:01:50.999Z</time></trkpt><trkpt lat="43.48589683533798" lon="11.370167101480098"><ele>517.8333333333334</ele><time>2026-04-30T13:01:51.999Z</time></trkpt><trkpt lat="43.48583975807193" lon="11.370071111101776"><ele>516.6666666666666</ele><time>2026-04-30T13:01:53Z</time></trkpt><trkpt lat="43.485788534128766" lon="11.369990040219967"><ele>515.5</ele><time>2026-04-30T13:01:54Z</time></trkpt><trkpt lat="43.48571489777028" lon="11.369952500391728"><ele>514.3333333333333</ele><time>2026-04-30T13:01:55Z</time></trkpt><trkpt lat="43.48564185016146" lon="11.369901371455304"><ele>513.1666666666666</ele><time>2026-04-30T13:01:56Z</time></trkpt><trkpt lat="43.48556075922535" lon="11.369872652632255"><ele>512.0</ele><time>2026-04-30T13:01:57Z</time></trkpt><trkpt lat="43.48548538365965" lon="11.36985243784921"><ele>512.3333333333333</ele><time>2026-04-30T13:01:58Z</time></trkpt><trkpt lat="43.48539659497478" lon="11.369840726543313"><ele>512.6666666666666</ele><time>2026-04-30T13:01:59Z</time></trkpt><trkpt lat="43.48531952884035" lon="11.369822535467026"><ele>513.0</ele><time>2026-04-30T13:02:00Z</time></trkpt><trkpt lat="43.48523845256073" lon="11.369753606596182"><ele>513.3333333333334</ele><time>2026-04-30T13:02:01Z</time></trkpt><trkpt lat="43.48515507831407" lon="11.369715814722136"><ele>513.6666666666667</ele><time>2026-04-30T13:02:02Z</time></trkpt><trkpt lat="43.48508508312448" lon="11.369647103856936"><ele>514.0</ele><time>2026-04-30T13:02:03Z</time></trkpt><trkpt lat="43.48502382161076" lon="11.36956549665988"><ele>512.6</ele><time>2026-04-30T13:02:04Z</time></trkpt><trkpt lat="43.48496256943778" lon="11.36946972486826"><ele>511.2</ele><time>2026-04-30T13:02:05Z</time></trkpt><trkpt lat="43.48489875855991" lon="11.36936469012007"><ele>509.80000000000007</ele><time>2026-04-30T13:02:06Z</time></trkpt><trkpt lat="43.48485303660473" lon="11.369261691743011"><ele>508.40000000000003</ele><time>2026-04-30T13:02:07Z</time></trkpt><trkpt lat="43.48481624434517" lon="11.369155485726283"><ele>507.0</ele><time>2026-04-30T13:02:08Z</time></trkpt><trkpt lat="43.48478983652786" lon="11.369041471524628"><ele>507.0</ele><time>2026-04-30T13:02:09Z</time></trkpt><trkpt lat="43.48477365793321" lon="11.368879272817058"><ele>507.0</ele><time>2026-04-30T13:02:10Z</time></trkpt><trkpt lat="43.484751728895795" lon="11.368708376533942"><ele>507.0</ele><time>2026-04-30T13:02:11Z</time></trkpt><trkpt lat="43.484733319695636" lon="11.368551273670002"><ele>507.0</ele><time>2026-04-30T13:02:12Z</time></trkpt><trkpt lat="43.48471249622671" lon="11.368395938308435"><ele>506.0</ele><time>2026-04-30T13:02:13Z</time></trkpt><trkpt lat="43.484693789030366" lon="11.368240438536304"><ele>505.00000000000006</ele><time>2026-04-30T13:02:14Z</time></trkpt><trkpt lat="43.48467770303702" lon="11.368092944546065"><ele>504.00000000000006</ele><time>2026-04-30T13:02:15Z</time></trkpt><trkpt lat="43.48465475838785" lon="11.36794826145967"><ele>503.0</ele><time>2026-04-30T13:02:16Z</time></trkpt><trkpt lat="43.484633510112204" lon="11.367809128444895"><ele>502.0</ele><time>2026-04-30T13:02:17Z</time></trkpt><trkpt lat="43.484612999057994" lon="11.367676181959242"><ele>500.83333333333337</ele><time>2026-04-30T13:02:18Z</time></trkpt><trkpt lat="43.48458787614963" lon="11.367548117408818"><ele>499.6666666666667</ele><time>2026-04-30T13:02:19Z</time></trkpt><trkpt lat="43.48456154503414" lon="11.36742624395838"><ele>498.5</ele><time>2026-04-30T13:02:20Z</time></trkpt><trkpt lat="43.48453128198555" lon="11.367310653808001"><ele>497.33333333333337</ele><time>2026-04-30T13:02:21Z</time></trkpt><trkpt lat="43.484499407744195" lon="11.3672070348296"><ele>496.1666666666667</ele><time>2026-04-30T13:02:22Z</time></trkpt><trkpt lat="43.48447115978759" lon="11.367103614136006"><ele>495.0</ele><time>2026-04-30T13:02:23Z</time></trkpt><trkpt lat="43.48444737347143" lon="11.367014174003865"><ele>495.0</ele><time>2026-04-30T13:02:24Z</time></trkpt><trkpt lat="43.4844190588048" lon="11.36692687062404"><ele>495.0</ele><time>2026-04-30T13:02:25Z</time></trkpt><trkpt lat="43.484384272487524" lon="11.366811621701476"><ele>495.0</ele><time>2026-04-30T13:02:26Z</time></trkpt><trkpt lat="43.48436399826506" lon="11.36669469508764"><ele>495.0</ele><time>2026-04-30T13:02:27Z</time></trkpt><trkpt lat="43.484366566698625" lon="11.366566266463868"><ele>495.0</ele><time>2026-04-30T13:02:28Z</time></trkpt><trkpt lat="43.48437607963971" lon="11.366446071395208"><ele>495.0</ele><time>2026-04-30T13:02:29Z</time></trkpt><trkpt lat="43.48438900617275" lon="11.366330130384341"><ele>496.0</ele><time>2026-04-30T13:02:30Z</time></trkpt><trkpt lat="43.48440521990353" lon="11.366221992647592"><ele>497.0</ele><time>2026-04-30T13:02:31Z</time></trkpt><trkpt lat="43.48442298589807" lon="11.366110206748855"><ele>498.0</ele><time>2026-04-30T13:02:32Z</time></trkpt><trkpt lat="43.48443936287704" lon="11.366003913370172"><ele>499.0</ele><time>2026-04-30T13:02:33Z</time></trkpt><trkpt lat="43.48443530978383" lon="11.365897923225125"><ele>500.0</ele><time>2026-04-30T13:02:34Z</time></trkpt><trkpt lat="43.48440899326311" lon="11.36579380663534"><ele>501.0</ele><time>2026-04-30T13:02:35Z</time></trkpt><trkpt lat="43.484361618260955" lon="11.365718093833008"><ele>501.0</ele><time>2026-04-30T13:02:36Z</time></trkpt><trkpt lat="43.484295283794005" lon="11.365645717370922"><ele>501.0</ele><time>2026-04-30T13:02:37Z</time></trkpt><trkpt lat="43.48420080784445" lon="11.365568965056251"><ele>501.0</ele><time>2026-04-30T13:02:38Z</time></trkpt><trkpt lat="43.48411875678964" lon="11.365486106398643"><ele>501.0</ele><time>2026-04-30T13:02:39Z</time></trkpt><trkpt lat="43.484047485448095" lon="11.365448772749476"><ele>501.0</ele><time>2026-04-30T13:02:40Z</time></trkpt><trkpt lat="43.4839720768333" lon="11.36541361969024"><ele>501.0</ele><time>2026-04-30T13:02:41Z</time></trkpt><trkpt lat="43.48390821664425" lon="11.365566457900563"><ele>501.0</ele><time>2026-04-30T13:02:42Z</time></trkpt><trkpt lat="43.48384363454305" lon="11.365641867748572"><ele>501.0</ele><time>2026-04-30T13:02:44Z</time></trkpt><trkpt lat="43.48379962223716" lon="11.365708656959985"><ele>501.0</ele><time>2026-04-30T13:02:46Z</time></trkpt><trkpt lat="43.48373170430255" lon="11.36580122868768"><ele>501.0</ele><time>2026-04-30T13:02:48Z</time></trkpt><trkpt lat="43.483649919912565" lon="11.365923002450124"><ele>502.0</ele><time>2026-04-30T13:02:55Z</time></trkpt><trkpt lat="43.48359178920019" lon="11.366005442256304"><ele>503.0</ele><time>2026-04-30T13:02:56Z</time></trkpt><trkpt lat="43.48353731429152" lon="11.366077389692073"><ele>504.0</ele><time>2026-04-30T13:02:57Z</time></trkpt><trkpt lat="43.4834834449441" lon="11.366153080279258"><ele>505.0</ele><time>2026-04-30T13:02:58Z</time></trkpt><trkpt lat="43.48341987195115" lon="11.366231003355793"><ele>506.0</ele><time>2026-04-30T13:02:59Z</time></trkpt><trkpt lat="43.483340862799444" lon="11.366292015627973"><ele>507.0</ele><time>2026-04-30T13:03:00Z</time></trkpt><trkpt lat="43.48326181617379" lon="11.366365246344301"><ele>504.20000000000005</ele><time>2026-04-30T13:03:01.001Z</time></trkpt><trkpt lat="43.48317851763054" lon="11.366429057915765"><ele>501.40000000000003</ele><time>2026-04-30T13:03:02.001Z</time></trkpt><trkpt lat="43.48309043754125" lon="11.366466645485191"><ele>498.59999999999997</ele><time>2026-04-30T13:03:03.001Z</time></trkpt><trkpt lat="43.48299112803368" lon="11.366479934289506"><ele>495.79999999999995</ele><time>2026-04-30T13:03:04.001Z</time></trkpt><trkpt lat="43.482868054888904" lon="11.366464998773058"><ele>493.0</ele><time>2026-04-30T13:03:05.001Z</time></trkpt><trkpt lat="43.48269830462464" lon="11.36641901561922"><ele>492.75</ele><time>2026-04-30T13:03:06.001Z</time></trkpt><trkpt lat="43.48254500611649" lon="11.366409201645206"><ele>492.5</ele><time>2026-04-30T13:03:07.001Z</time></trkpt><trkpt lat="43.48240259124275" lon="11.366366866694376"><ele>492.25</ele><time>2026-04-30T13:03:08.001Z</time></trkpt><trkpt lat="43.482267332004824" lon="11.366398033581675"><ele>492.0</ele><time>2026-04-30T13:03:09.001Z</time></trkpt><trkpt lat="43.482145392217845" lon="11.366508463575551"><ele>493.0</ele><time>2026-04-30T13:03:10.001Z</time></trkpt><trkpt lat="43.4820531655891" lon="11.366682277551016"><ele>494.0</ele><time>2026-04-30T13:03:11.001Z</time></trkpt><trkpt lat="43.48196477217645" lon="11.366830570080714"><ele>495.0</ele><time>2026-04-30T13:03:12.001Z</time></trkpt><trkpt lat="43.481865557357985" lon="11.366930791152116"><ele>496.0</ele><time>2026-04-30T13:03:13.001Z</time></trkpt><trkpt lat="43.48177569643779" lon="11.367019391327204"><ele>496.0</ele><time>2026-04-30T13:03:14.001Z</time></trkpt><trkpt lat="43.48168097222407" lon="11.367074054550871"><ele>496.0</ele><time>2026-04-30T13:03:15.001Z</time></trkpt><trkpt lat="43.48158630265062" lon="11.367121620266483"><ele>496.0</ele><time>2026-04-30T13:03:16.001Z</time></trkpt><trkpt lat="43.48146900760854" lon="11.36710603763587"><ele>496.0</ele><time>2026-04-30T13:03:17.001Z</time></trkpt><trkpt lat="43.481345348660916" lon="11.367095920688927"><ele>496.0</ele><time>2026-04-30T13:03:18.001Z</time></trkpt><trkpt lat="43.48121817679281" lon="11.367126133303987"><ele>494.5</ele><time>2026-04-30T13:03:19.001Z</time></trkpt><trkpt lat="43.48111532341521" lon="11.367163653575892"><ele>493.0</ele><time>2026-04-30T13:03:20.001Z</time></trkpt><trkpt lat="43.48101754949104" lon="11.367253225497114"><ele>491.5</ele><time>2026-04-30T13:03:21.001Z</time></trkpt><trkpt lat="43.48093964184694" lon="11.367377662991275"><ele>490.0</ele><time>2026-04-30T13:03:22.001Z</time></trkpt><trkpt lat="43.48087418334195" lon="11.36749463876969"><ele>490.00000000000006</ele><time>2026-04-30T13:03:23.001Z</time></trkpt><trkpt lat="43.48081679448901" lon="11.36760810333717"><ele>490.0</ele><time>2026-04-30T13:03:24.001Z</time></trkpt><trkpt lat="43.480755072159575" lon="11.367683169376889"><ele>490.0</ele><time>2026-04-30T13:03:25.001Z</time></trkpt><trkpt lat="43.48067423424996" lon="11.367736273668244"><ele>490.0</ele><time>2026-04-30T13:03:26.001Z</time></trkpt><trkpt lat="43.48057959115104" lon="11.367730549880754"><ele>490.00000000000006</ele><time>2026-04-30T13:03:27.001Z</time></trkpt><trkpt lat="43.480506535549075" lon="11.36769162926896"><ele>490.0</ele><time>2026-04-30T13:03:27.999Z</time></trkpt><trkpt lat="43.48041630267465" lon="11.367654971011635"><ele>491.2</ele><time>2026-04-30T13:03:28.999Z</time></trkpt><trkpt lat="43.48031226147025" lon="11.367622755760193"><ele>492.4</ele><time>2026-04-30T13:03:29.999Z</time></trkpt><trkpt lat="43.48021771691666" lon="11.367641770641441"><ele>493.6</ele><time>2026-04-30T13:03:30.999Z</time></trkpt><trkpt lat="43.4801307444747" lon="11.367723386279456"><ele>494.8</ele><time>2026-04-30T13:03:32.999Z</time></trkpt><trkpt lat="43.48003755800694" lon="11.367861604259732"><ele>496.0</ele><time>2026-04-30T13:03:34.999Z</time></trkpt><trkpt lat="43.4799830214092" lon="11.367953104116491"><ele>492.5</ele><time>2026-04-30T13:03:35.999Z</time></trkpt><trkpt lat="43.47991565785065" lon="11.368048124744545"><ele>489.0</ele><time>2026-04-30T13:03:36.999Z</time></trkpt><trkpt lat="43.47983075718059" lon="11.36815890222629"><ele>485.5</ele><time>2026-04-30T13:03:37.999Z</time></trkpt><trkpt lat="43.47975056186873" lon="11.368280824491709"><ele>482.0</ele><time>2026-04-30T13:03:38.999Z</time></trkpt><trkpt lat="43.47966128276063" lon="11.368407008551456"><ele>481.75</ele><time>2026-04-30T13:03:39.999Z</time></trkpt><trkpt lat="43.47957438173161" lon="11.368527165602526"><ele>481.5</ele><time>2026-04-30T13:03:40.999Z</time></trkpt><trkpt lat="43.479489205163006" lon="11.368648362257142"><ele>481.25</ele><time>2026-04-30T13:03:41.999Z</time></trkpt><trkpt lat="43.4794055798679" lon="11.368775384946211"><ele>481.0</ele><time>2026-04-30T13:03:42.999Z</time></trkpt><trkpt lat="43.47931855156223" lon="11.368904170685976"><ele>481.0</ele><time>2026-04-30T13:03:43.999Z</time></trkpt><trkpt lat="43.479227008930565" lon="11.369030358947702"><ele>481.0</ele><time>2026-04-30T13:03:44.999Z</time></trkpt><trkpt lat="43.479135088558486" lon="11.369158783134155"><ele>481.0</ele><time>2026-04-30T13:03:45.999Z</time></trkpt><trkpt lat="43.47904759088287" lon="11.369294357656525"><ele>481.0</ele><time>2026-04-30T13:03:47Z</time></trkpt><trkpt lat="43.4789550539917" lon="11.369426997755376"><ele>481.0</ele><time>2026-04-30T13:03:48Z</time></trkpt><trkpt lat="43.478867782854024" lon="11.369557183444082"><ele>481.0</ele><time>2026-04-30T13:03:49Z</time></trkpt><trkpt lat="43.47877574203657" lon="11.369671208001881"><ele>481.0</ele><time>2026-04-30T13:03:50Z</time></trkpt><trkpt lat="43.47867450522839" lon="11.369755840440328"><ele>481.0</ele><time>2026-04-30T13:03:51Z</time></trkpt><trkpt lat="43.47855731581083" lon="11.369804966197355"><ele>479.0</ele><time>2026-04-30T13:03:52Z</time></trkpt><trkpt lat="43.478425591617345" lon="11.369811522596327"><ele>477.0</ele><time>2026-04-30T13:03:53Z</time></trkpt><trkpt lat="43.47830934165405" lon="11.369779231822529"><ele>475.0</ele><time>2026-04-30T13:03:54Z</time></trkpt><trkpt lat="43.47821007154189" lon="11.369750855353024"><ele>473.0</ele><time>2026-04-30T13:03:55Z</time></trkpt><trkpt lat="43.47811489602551" lon="11.369765486164116"><ele>471.0</ele><time>2026-04-30T13:03:56Z</time></trkpt><trkpt lat="43.478025028589215" lon="11.369832465543926"><ele>471.0</ele><time>2026-04-30T13:03:57Z</time></trkpt><trkpt lat="43.477949505364386" lon="11.369932489255993"><ele>471.0</ele><time>2026-04-30T13:03:58Z</time></trkpt><trkpt lat="43.47793652814742" lon="11.370099138708882"><ele>471.0</ele><time>2026-04-30T13:03:59Z</time></trkpt><trkpt lat="43.47797632676164" lon="11.370260368892088"><ele>471.0</ele><time>2026-04-30T13:04:00Z</time></trkpt><trkpt lat="43.47801778369429" lon="11.370427559865677"><ele>469.0</ele><time>2026-04-30T13:04:01Z</time></trkpt><trkpt lat="43.47804670953271" lon="11.3706043824699"><ele>467.0</ele><time>2026-04-30T13:04:02Z</time></trkpt><trkpt lat="43.47809094160865" lon="11.370774624102408"><ele>465.0</ele><time>2026-04-30T13:04:03Z</time></trkpt><trkpt lat="43.47814313170979" lon="11.37092279294219"><ele>463.0</ele><time>2026-04-30T13:04:04Z</time></trkpt><trkpt lat="43.4781756536216" lon="11.371068695820775"><ele>463.0</ele><time>2026-04-30T13:04:05Z</time></trkpt><trkpt lat="43.4782190661648" lon="11.371203962671164"><ele>463.0</ele><time>2026-04-30T13:04:06Z</time></trkpt><trkpt lat="43.47823149851203" lon="11.371355694264047"><ele>463.0</ele><time>2026-04-30T13:04:07Z</time></trkpt><trkpt lat="43.47824158889304" lon="11.371515497877224"><ele>463.0</ele><time>2026-04-30T13:04:08Z</time></trkpt><trkpt lat="43.47819143273549" lon="11.371690876061066"><ele>461.5</ele><time>2026-04-30T13:04:09Z</time></trkpt><trkpt lat="43.47809839354197" lon="11.371799429053958"><ele>460.0</ele><time>2026-04-30T13:04:10Z</time></trkpt><trkpt lat="43.47800508470073" lon="11.3719147923263"><ele>458.5</ele><time>2026-04-30T13:04:11Z</time></trkpt><trkpt lat="43.47787478517137" lon="11.371946399850117"><ele>457.0</ele><time>2026-04-30T13:04:12Z</time></trkpt><trkpt lat="43.47774315102379" lon="11.371971264236032"><ele>457.0</ele><time>2026-04-30T13:04:13Z</time></trkpt><trkpt lat="43.47762119283468" lon="11.371996373945036"><ele>457.0</ele><time>2026-04-30T13:04:14Z</time></trkpt><trkpt lat="43.47749458261447" lon="11.37196918190236"><ele>457.0</ele><time>2026-04-30T13:04:15Z</time></trkpt><trkpt lat="43.477372231327415" lon="11.371907413058276"><ele>457.0</ele><time>2026-04-30T13:04:16Z</time></trkpt><trkpt lat="43.477254817806234" lon="11.371840817724989"><ele>457.0</ele><time>2026-04-30T13:04:17Z</time></trkpt><trkpt lat="43.47713700308352" lon="11.371798657916429"><ele>457.0</ele><time>2026-04-30T13:04:18Z</time></trkpt><trkpt lat="43.47702121419055" lon="11.371777639666409"><ele>457.0</ele><time>2026-04-30T13:04:19Z</time></trkpt><trkpt lat="43.47690790023462" lon="11.371807058259407"><ele>457.0</ele><time>2026-04-30T13:04:20Z</time></trkpt><trkpt lat="43.4768080428236" lon="11.371880743286122"><ele>456.5</ele><time>2026-04-30T13:04:21Z</time></trkpt><trkpt lat="43.47673360564902" lon="11.37199546668108"><ele>456.0</ele><time>2026-04-30T13:04:22Z</time></trkpt><trkpt lat="43.476690846676206" lon="11.372149789161767"><ele>455.5</ele><time>2026-04-30T13:04:23Z</time></trkpt><trkpt lat="43.476667417306686" lon="11.372310518093874"><ele>455.0</ele><time>2026-04-30T13:04:24Z</time></trkpt><trkpt lat="43.47665692659238" lon="11.372478616873735"><ele>452.75</ele><time>2026-04-30T13:04:25Z</time></trkpt><trkpt lat="43.47664125071438" lon="11.372649404199203"><ele>450.5</ele><time>2026-04-30T13:04:26Z</time></trkpt><trkpt lat="43.47662104461094" lon="11.372822264782316"><ele>448.25</ele><time>2026-04-30T13:04:27Z</time></trkpt><trkpt lat="43.47659633045756" lon="11.372998439111885"><ele>446.0</ele><time>2026-04-30T13:04:28Z</time></trkpt><trkpt lat="43.4765763912963" lon="11.373172042258755"><ele>443.6</ele><time>2026-04-30T13:04:29Z</time></trkpt><trkpt lat="43.47655811926176" lon="11.37332384186227"><ele>441.20000000000005</ele><time>2026-04-30T13:04:30Z</time></trkpt><trkpt lat="43.47653725360058" lon="11.373463457874582"><ele>438.79999999999995</ele><time>2026-04-30T13:04:31Z</time></trkpt><trkpt lat="43.476488492458046" lon="11.373585370087524"><ele>436.4</ele><time>2026-04-30T13:04:32Z</time></trkpt><trkpt lat="43.47643318558217" lon="11.373697606751511"><ele>434.0</ele><time>2026-04-30T13:04:33Z</time></trkpt><trkpt lat="43.476315129183845" lon="11.373760491031648"><ele>436.0</ele><time>2026-04-30T13:04:34Z</time></trkpt><trkpt lat="43.47615314354297" lon="11.373755458557037"><ele>438.0</ele><time>2026-04-30T13:04:35Z</time></trkpt><trkpt lat="43.47598966382641" lon="11.37377534229226"><ele>440.0</ele><time>2026-04-30T13:04:36Z</time></trkpt><trkpt lat="43.475839151438045" lon="11.373794073398367"><ele>440.0</ele><time>2026-04-30T13:04:37Z</time></trkpt><trkpt lat="43.475693760980235" lon="11.373814633054682"><ele>440.0</ele><time>2026-04-30T13:04:38Z</time></trkpt><trkpt lat="43.47555596188965" lon="11.373834119214921"><ele>440.0</ele><time>2026-04-30T13:04:39.001Z</time></trkpt><trkpt lat="43.47542099580295" lon="11.373873665549821"><ele>440.0</ele><time>2026-04-30T13:04:40.001Z</time></trkpt><trkpt lat="43.475282619438346" lon="11.373892366733"><ele>438.8</ele><time>2026-04-30T13:04:41.001Z</time></trkpt><trkpt lat="43.47516356103705" lon="11.373887975042301"><ele>437.6</ele><time>2026-04-30T13:04:42.001Z</time></trkpt><trkpt lat="43.475054463621106" lon="11.373902566890637"><ele>436.4</ele><time>2026-04-30T13:04:43.001Z</time></trkpt><trkpt lat="43.474948386134194" lon="11.373933431241264"><ele>435.2</ele><time>2026-04-30T13:04:44.001Z</time></trkpt><trkpt lat="43.47484365331499" lon="11.37391066606604"><ele>434.0</ele><time>2026-04-30T13:04:45.001Z</time></trkpt><trkpt lat="43.474737316310026" lon="11.373849734820919"><ele>434.0</ele><time>2026-04-30T13:04:46.001Z</time></trkpt><trkpt lat="43.47464904850791" lon="11.373731615182843"><ele>434.0</ele><time>2026-04-30T13:04:47.001Z</time></trkpt><trkpt lat="43.474577460370554" lon="11.373611409019766"><ele>434.0</ele><time>2026-04-30T13:04:48.001Z</time></trkpt><trkpt lat="43.47447499342718" lon="11.373544474772366"><ele>434.0</ele><time>2026-04-30T13:04:49.001Z</time></trkpt><trkpt lat="43.47435528433541" lon="11.373522071993364"><ele>432.75</ele><time>2026-04-30T13:04:50.001Z</time></trkpt><trkpt lat="43.474228465716344" lon="11.373564976406064"><ele>431.5</ele><time>2026-04-30T13:04:51.001Z</time></trkpt><trkpt lat="43.474108682881756" lon="11.373651409190595"><ele>430.25</ele><time>2026-04-30T13:04:52.001Z</time></trkpt><trkpt lat="43.473992617526456" lon="11.373787744846835"><ele>429.0</ele><time>2026-04-30T13:04:53.001Z</time></trkpt><trkpt lat="43.473893940696684" lon="11.373958113812845"><ele>425.25</ele><time>2026-04-30T13:04:54.001Z</time></trkpt><trkpt lat="43.4738051969026" lon="11.374118674725153"><ele>421.5</ele><time>2026-04-30T13:04:55.001Z</time></trkpt><trkpt lat="43.47369614048684" lon="11.374261982622665"><ele>417.75</ele><time>2026-04-30T13:04:56.001Z</time></trkpt><trkpt lat="43.47360496696562" lon="11.37434094850936"><ele>414.0</ele><time>2026-04-30T13:04:57.001Z</time></trkpt><trkpt lat="43.47349532149197" lon="11.374391595388786"><ele>414.0</ele><time>2026-04-30T13:04:58.001Z</time></trkpt><trkpt lat="43.47334233821746" lon="11.37439699838201"><ele>414.0</ele><time>2026-04-30T13:04:59.001Z</time></trkpt><trkpt lat="43.47318085254837" lon="11.37434384481139"><ele>414.0</ele><time>2026-04-30T13:05:00.001Z</time></trkpt><trkpt lat="43.47302522985103" lon="11.374250799619624"><ele>410.33333333333337</ele><time>2026-04-30T13:05:01.001Z</time></trkpt><trkpt lat="43.47287341000372" lon="11.374162602436764"><ele>406.6666666666667</ele><time>2026-04-30T13:05:02.001Z</time></trkpt><trkpt lat="43.472733814259975" lon="11.374074392106932"><ele>403.0</ele><time>2026-04-30T13:05:03.001Z</time></trkpt><trkpt lat="43.47259785127796" lon="11.373995590529763"><ele>403.0</ele><time>2026-04-30T13:05:04.001Z</time></trkpt><trkpt lat="43.472463552633734" lon="11.373924710585873"><ele>403.0</ele><time>2026-04-30T13:05:05.001Z</time></trkpt><trkpt lat="43.472321764879595" lon="11.373907142935494"><ele>403.0</ele><time>2026-04-30T13:05:06.001Z</time></trkpt><trkpt lat="43.472170730473735" lon="11.373932908414266"><ele>403.0</ele><time>2026-04-30T13:05:07.001Z</time></trkpt><trkpt lat="43.472029483615344" lon="11.373970592247693"><ele>401.5</ele><time>2026-04-30T13:05:08.001Z</time></trkpt><trkpt lat="43.471893912622" lon="11.37400307908156"><ele>400.0</ele><time>2026-04-30T13:05:09.001Z</time></trkpt><trkpt lat="43.47175909823199" lon="11.374012226931674"><ele>398.5</ele><time>2026-04-30T13:05:10.001Z</time></trkpt><trkpt lat="43.4716311992069" lon="11.374045627225085"><ele>397.0</ele><time>2026-04-30T13:05:11.001Z</time></trkpt><trkpt lat="43.47151476947621" lon="11.374104218990013"><ele>397.0</ele><time>2026-04-30T13:05:12.001Z</time></trkpt><trkpt lat="43.471392701795615" lon="11.37413544875431"><ele>397.0</ele><time>2026-04-30T13:05:13.001Z</time></trkpt><trkpt lat="43.4712734037417" lon="11.374178308162485"><ele>397.0</ele><time>2026-04-30T13:05:14.001Z</time></trkpt><trkpt lat="43.47115402105842" lon="11.374219187114637"><ele>397.0</ele><time>2026-04-30T13:05:15.001Z</time></trkpt><trkpt lat="43.47103207146335" lon="11.374244448372838"><ele>396.5</ele><time>2026-04-30T13:05:16.001Z</time></trkpt><trkpt lat="43.47090433346864" lon="11.37426110790518"><ele>396.0</ele><time>2026-04-30T13:05:17.001Z</time></trkpt><trkpt lat="43.47077378171647" lon="11.374273183833319"><ele>395.5</ele><time>2026-04-30T13:05:18.001Z</time></trkpt><trkpt lat="43.47063989016089" lon="11.374281121802017"><ele>395.0</ele><time>2026-04-30T13:05:19.001Z</time></trkpt><trkpt lat="43.4705083840545" lon="11.374287134639046"><ele>394.25</ele><time>2026-04-30T13:05:20.001Z</time></trkpt><trkpt lat="43.470377237717" lon="11.374279477539368"><ele>393.5</ele><time>2026-04-30T13:05:21.001Z</time></trkpt><trkpt lat="43.4702505904596" lon="11.374269935002552"><ele>392.75</ele><time>2026-04-30T13:05:22.001Z</time></trkpt><trkpt lat="43.47012412665541" lon="11.374262224840091"><ele>392.0</ele><time>2026-04-30T13:05:23.001Z</time></trkpt><trkpt lat="43.469995534992734" lon="11.374260265152364"><ele>392.0</ele><time>2026-04-30T13:05:24.001Z</time></trkpt><trkpt lat="43.46986916799219" lon="11.374258415672319"><ele>392.0</ele><time>2026-04-30T13:05:25.001Z</time></trkpt><trkpt lat="43.46974588942631" lon="11.37425530996297"><ele>392.0</ele><time>2026-04-30T13:05:26.001Z</time></trkpt><trkpt lat="43.469625278607644" lon="11.374249783229272"><ele>392.0</ele><time>2026-04-30T13:05:27.001Z</time></trkpt><trkpt lat="43.46950341961847" lon="11.374247988424557"><ele>390.25</ele><time>2026-04-30T13:05:28.001Z</time></trkpt><trkpt lat="43.46938599082569" lon="11.374246805958158"><ele>388.5</ele><time>2026-04-30T13:05:29.001Z</time></trkpt><trkpt lat="43.469270081122446" lon="11.374239804691081"><ele>386.75</ele><time>2026-04-30T13:05:30.001Z</time></trkpt><trkpt lat="43.46915045623377" lon="11.374233000982471"><ele>385.0</ele><time>2026-04-30T13:05:31.001Z</time></trkpt><trkpt lat="43.46903435127319" lon="11.374196754507713"><ele>385.0</ele><time>2026-04-30T13:05:32.001Z</time></trkpt><trkpt lat="43.4689250313002" lon="11.374124662177943"><ele>385.0</ele><time>2026-04-30T13:05:33.001Z</time></trkpt><trkpt lat="43.468834648941055" lon="11.374023762865455"><ele>385.0</ele><time>2026-04-30T13:05:34Z</time></trkpt><trkpt lat="43.46875142301599" lon="11.373912773859727"><ele>385.0</ele><time>2026-04-30T13:05:35Z</time></trkpt><trkpt lat="43.468683734471426" lon="11.373802372782777"><ele>384.6</ele><time>2026-04-30T13:05:36Z</time></trkpt><trkpt lat="43.4686282679094" lon="11.373703889739321"><ele>384.2</ele><time>2026-04-30T13:05:37Z</time></trkpt><trkpt lat="43.46856334264016" lon="11.37362028838584"><ele>383.79999999999995</ele><time>2026-04-30T13:05:38Z</time></trkpt><trkpt lat="43.46849359373542" lon="11.373559676523895"><ele>383.4</ele><time>2026-04-30T13:05:39Z</time></trkpt><trkpt lat="43.46840873417062" lon="11.373493135634256"><ele>383.0</ele><time>2026-04-30T13:05:40Z</time></trkpt><trkpt lat="43.468311630876556" lon="11.373418744933051"><ele>383.0</ele><time>2026-04-30T13:05:41Z</time></trkpt><trkpt lat="43.468217780822094" lon="11.373372663541536"><ele>383.0</ele><time>2026-04-30T13:05:42Z</time></trkpt><trkpt lat="43.468140707291425" lon="11.37333481957456"><ele>383.0</ele><time>2026-04-30T13:05:43Z</time></trkpt><trkpt lat="43.468031536463336" lon="11.37328121565494"><ele>383.0</ele><time>2026-04-30T13:05:45Z</time></trkpt><trkpt lat="43.46792099076961" lon="11.37322709042425"><ele>383.0</ele><time>2026-04-30T13:05:47Z</time></trkpt><trkpt lat="43.46787616501814" lon="11.373135812427085"><ele>381.83333333333337</ele><time>2026-04-30T13:05:49Z</time></trkpt><trkpt lat="43.46789896135034" lon="11.372993339374416"><ele>380.6666666666667</ele><time>2026-04-30T13:05:50Z</time></trkpt><trkpt lat="43.467894855424106" lon="11.372905660287142"><ele>379.5</ele><time>2026-04-30T13:05:51Z</time></trkpt><trkpt lat="43.467879265310614" lon="11.372815132031453"><ele>378.3333333333333</ele><time>2026-04-30T13:05:52Z</time></trkpt><trkpt lat="43.46784969624336" lon="11.372671041166358"><ele>377.16666666666663</ele><time>2026-04-30T13:05:54Z</time></trkpt><trkpt lat="43.467830406020724" lon="11.372588415111439"><ele>376.0</ele><time>2026-04-30T13:05:56Z</time></trkpt><trkpt lat="43.46779021758565" lon="11.37249345013276"><ele>376.0</ele><time>2026-04-30T13:05:57Z</time></trkpt><trkpt lat="43.467756853684186" lon="11.372406315867888"><ele>376.0</ele><time>2026-04-30T13:05:58Z</time></trkpt><trkpt lat="43.46772061778187" lon="11.372309654874115"><ele>376.0</ele><time>2026-04-30T13:05:59Z</time></trkpt><trkpt lat="43.46768453832103" lon="11.372203756972453"><ele>376.0</ele><time>2026-04-30T13:06:00Z</time></trkpt><trkpt lat="43.467658802263095" lon="11.372079409344698"><ele>376.0</ele><time>2026-04-30T13:06:01Z</time></trkpt><trkpt lat="43.46762406334094" lon="11.371986724274239"><ele>376.0</ele><time>2026-04-30T13:06:02Z</time></trkpt><trkpt lat="43.46756493759476" lon="11.371881618414546"><ele>376.8</ele><time>2026-04-30T13:06:03Z</time></trkpt><trkpt lat="43.46751547421704" lon="11.371786899629054"><ele>377.6</ele><time>2026-04-30T13:06:04Z</time></trkpt><trkpt lat="43.46745992936709" lon="11.371664674725166"><ele>378.4</ele><time>2026-04-30T13:06:05Z</time></trkpt><trkpt lat="43.46737995021007" lon="11.371580519066114"><ele>379.2</ele><time>2026-04-30T13:06:06Z</time></trkpt><trkpt lat="43.4672756142258" lon="11.371496715554086"><ele>380.0</ele><time>2026-04-30T13:06:07Z</time></trkpt><trkpt lat="43.46716728160215" lon="11.37144789072794"><ele>379.8</ele><time>2026-04-30T13:06:08Z</time></trkpt><trkpt lat="43.46707445846811" lon="11.371360686973347"><ele>379.6</ele><time>2026-04-30T13:06:09Z</time></trkpt><trkpt lat="43.46697854772593" lon="11.37129500326483"><ele>379.4</ele><time>2026-04-30T13:06:10Z</time></trkpt><trkpt lat="43.46689574435166" lon="11.371230273589626"><ele>379.2</ele><time>2026-04-30T13:06:11Z</time></trkpt><trkpt lat="43.46678120182259" lon="11.371161338511751"><ele>379.0</ele><time>2026-04-30T13:06:12Z</time></trkpt><trkpt lat="43.46669107596082" lon="11.371028279466465"><ele>379.0</ele><time>2026-04-30T13:06:13Z</time></trkpt><trkpt lat="43.466609423599586" lon="11.370901419294809"><ele>379.0</ele><time>2026-04-30T13:06:14Z</time></trkpt><trkpt lat="43.466526481632954" lon="11.370785525603873"><ele>379.0</ele><time>2026-04-30T13:06:15Z</time></trkpt><trkpt lat="43.46645699654979" lon="11.370667776232073"><ele>379.0</ele><time>2026-04-30T13:06:16Z</time></trkpt><trkpt lat="43.46639460876398" lon="11.370548308344109"><ele>378.25</ele><time>2026-04-30T13:06:17Z</time></trkpt><trkpt lat="43.46627698274792" lon="11.370340903962681"><ele>377.5</ele><time>2026-04-30T13:06:19Z</time></trkpt><trkpt lat="43.46622740114425" lon="11.370227252460715"><ele>376.75</ele><time>2026-04-30T13:06:20Z</time></trkpt><trkpt lat="43.46616049755342" lon="11.370082538437583"><ele>376.0</ele><time>2026-04-30T13:06:21Z</time></trkpt><trkpt lat="43.4661003486294" lon="11.369930222770606"><ele>376.0</ele><time>2026-04-30T13:06:22Z</time></trkpt><trkpt lat="43.46603795029527" lon="11.369755147319747"><ele>376.0</ele><time>2026-04-30T13:06:23Z</time></trkpt><trkpt lat="43.46597654519154" lon="11.369551127954988"><ele>376.0</ele><time>2026-04-30T13:06:24Z</time></trkpt><trkpt lat="43.46591464905947" lon="11.369339032374707"><ele>375.5</ele><time>2026-04-30T13:06:25Z</time></trkpt><trkpt lat="43.465868647927174" lon="11.369149838788996"><ele>375.0</ele><time>2026-04-30T13:06:26Z</time></trkpt><trkpt lat="43.465825467470665" lon="11.368962304016033"><ele>374.5</ele><time>2026-04-30T13:06:27Z</time></trkpt><trkpt lat="43.465786177246066" lon="11.368784422052359"><ele>374.0</ele><time>2026-04-30T13:06:28Z</time></trkpt><trkpt lat="43.465760371778664" lon="11.368611098028394"><ele>374.0</ele><time>2026-04-30T13:06:29Z</time></trkpt><trkpt lat="43.46574976056796" lon="11.368435932866467"><ele>374.0</ele><time>2026-04-30T13:06:30Z</time></trkpt><trkpt lat="43.46576734895784" lon="11.368257225229684"><ele>374.0</ele><time>2026-04-30T13:06:31.001Z</time></trkpt><trkpt lat="43.46580462161325" lon="11.368060941000271"><ele>374.0</ele><time>2026-04-30T13:06:32.001Z</time></trkpt><trkpt lat="43.465850944088835" lon="11.367846654915128"><ele>373.0</ele><time>2026-04-30T13:06:33.001Z</time></trkpt><trkpt lat="43.46588527598215" lon="11.367632622292586"><ele>372.0</ele><time>2026-04-30T13:06:34.001Z</time></trkpt><trkpt lat="43.46594326115773" lon="11.367416618310845"><ele>371.0</ele><time>2026-04-30T13:06:35.001Z</time></trkpt><trkpt lat="43.46597680748512" lon="11.367184560397323"><ele>370.33333333333337</ele><time>2026-04-30T13:06:36.001Z</time></trkpt><trkpt lat="43.4660320019538" lon="11.366954091473772"><ele>369.6666666666667</ele><time>2026-04-30T13:06:37.001Z</time></trkpt><trkpt lat="43.466083541330704" lon="11.36671267568613"><ele>369.0</ele><time>2026-04-30T13:06:38.001Z</time></trkpt><trkpt lat="43.466140067113535" lon="11.36645404485555"><ele>368.6666666666667</ele><time>2026-04-30T13:06:39.001Z</time></trkpt><trkpt lat="43.466200470813696" lon="11.366173372694178"><ele>368.33333333333337</ele><time>2026-04-30T13:06:40.001Z</time></trkpt><trkpt lat="43.46625589113237" lon="11.3659219875683"><ele>368.0</ele><time>2026-04-30T13:06:41.001Z</time></trkpt><trkpt lat="43.46630620342604" lon="11.365693732609769"><ele>368.6666666666667</ele><time>2026-04-30T13:06:42.001Z</time></trkpt><trkpt lat="43.46635538170475" lon="11.365480057460166"><ele>369.3333333333333</ele><time>2026-04-30T13:06:43.001Z</time></trkpt><trkpt lat="43.466397057284105" lon="11.365283046684372"><ele>370.0</ele><time>2026-04-30T13:06:44.001Z</time></trkpt><trkpt lat="43.46643638982434" lon="11.365083668919493"><ele>370.0</ele><time>2026-04-30T13:06:45.001Z</time></trkpt><trkpt lat="43.46647672370959" lon="11.364912108947781"><ele>370.0</ele><time>2026-04-30T13:06:46.001Z</time></trkpt><trkpt lat="43.46651685585762" lon="11.364753637677472"><ele>370.0</ele><time>2026-04-30T13:06:47.001Z</time></trkpt><trkpt lat="43.46655296650907" lon="11.364588787870277"><ele>370.0</ele><time>2026-04-30T13:06:48.001Z</time></trkpt><trkpt lat="43.4665858548928" lon="11.364410876905767"><ele>369.75</ele><time>2026-04-30T13:06:49.001Z</time></trkpt><trkpt lat="43.46662391001407" lon="11.364236778132057"><ele>369.5</ele><time>2026-04-30T13:06:50.001Z</time></trkpt><trkpt lat="43.46666002740455" lon="11.364081044928286"><ele>369.25</ele><time>2026-04-30T13:06:51.001Z</time></trkpt><trkpt lat="43.46669707582896" lon="11.363921366692688"><ele>369.0</ele><time>2026-04-30T13:06:52.001Z</time></trkpt><trkpt lat="43.46673181589881" lon="11.363766833236438"><ele>368.4</ele><time>2026-04-30T13:06:53.001Z</time></trkpt><trkpt lat="43.46676642180111" lon="11.363621062715668"><ele>367.79999999999995</ele><time>2026-04-30T13:06:54.001Z</time></trkpt><trkpt lat="43.466801321217766" lon="11.363476337700503"><ele>367.20000000000005</ele><time>2026-04-30T13:06:55.001Z</time></trkpt><trkpt lat="43.466833362734036" lon="11.363342204250817"><ele>366.6</ele><time>2026-04-30T13:06:56.001Z</time></trkpt><trkpt lat="43.46685222625132" lon="11.363227273338119"><ele>366.0</ele><time>2026-04-30T13:06:57.001Z</time></trkpt><trkpt lat="43.4668747989035" lon="11.363105605048666"><ele>366.6</ele><time>2026-04-30T13:06:58.001Z</time></trkpt><trkpt lat="43.46685494664424" lon="11.362978031812997"><ele>367.20000000000005</ele><time>2026-04-30T13:06:59.001Z</time></trkpt><trkpt lat="43.46682091109127" lon="11.362857309037999"><ele>367.79999999999995</ele><time>2026-04-30T13:07:00.001Z</time></trkpt><trkpt lat="43.46676905451021" lon="11.362735260696018"><ele>368.4</ele><time>2026-04-30T13:07:01.001Z</time></trkpt><trkpt lat="43.46672173932744" lon="11.36255051405275"><ele>369.0</ele><time>2026-04-30T13:07:02.001Z</time></trkpt><trkpt lat="43.4665709981913" lon="11.362479214962985"><ele>369.0</ele><time>2026-04-30T13:07:03.001Z</time></trkpt><trkpt lat="43.46650455225668" lon="11.362351503197909"><ele>369.0</ele><time>2026-04-30T13:07:04.001Z</time></trkpt><trkpt lat="43.46645282645151" lon="11.362225342412376"><ele>369.0</ele><time>2026-04-30T13:07:05.001Z</time></trkpt><trkpt lat="43.46640261532828" lon="11.362098075886832"><ele>369.0</ele><time>2026-04-30T13:07:06.001Z</time></trkpt><trkpt lat="43.46634689983966" lon="11.361946567628571"><ele>369.0</ele><time>2026-04-30T13:07:07.001Z</time></trkpt><trkpt lat="43.466299614616354" lon="11.361793718848338"><ele>369.2</ele><time>2026-04-30T13:07:08.001Z</time></trkpt><trkpt lat="43.466278466623514" lon="11.361622102776916"><ele>369.4</ele><time>2026-04-30T13:07:09.001Z</time></trkpt><trkpt lat="43.466241858008175" lon="11.361476462362672"><ele>369.6</ele><time>2026-04-30T13:07:10.001Z</time></trkpt><trkpt lat="43.46621337704138" lon="11.361353262617008"><ele>369.8</ele><time>2026-04-30T13:07:11.001Z</time></trkpt><trkpt lat="43.46617250763343" lon="11.361231595545014"><ele>370.0</ele><time>2026-04-30T13:07:12.001Z</time></trkpt><trkpt lat="43.46610158856675" lon="11.361110735243148"><ele>370.0</ele><time>2026-04-30T13:07:13.001Z</time></trkpt><trkpt lat="43.46601228868595" lon="11.361014090800152"><ele>370.0</ele><time>2026-04-30T13:07:14.001Z</time></trkpt><trkpt lat="43.46589847580592" lon="11.360968143046819"><ele>370.0</ele><time>2026-04-30T13:07:15.001Z</time></trkpt><trkpt lat="43.46580374301985" lon="11.360873161615904"><ele>370.0</ele><time>2026-04-30T13:07:16.001Z</time></trkpt><trkpt lat="43.46572738344308" lon="11.360787887451744"><ele>370.0</ele><time>2026-04-30T13:07:17.001Z</time></trkpt><trkpt lat="43.4656605715785" lon="11.360679029996641"><ele>370.0</ele><time>2026-04-30T13:07:18.001Z</time></trkpt><trkpt lat="43.46560058676757" lon="11.360547423606178"><ele>370.0</ele><time>2026-04-30T13:07:19.001Z</time></trkpt><trkpt lat="43.465535704197656" lon="11.36040780422461"><ele>370.0</ele><time>2026-04-30T13:07:20.001Z</time></trkpt><trkpt lat="43.46546852071835" lon="11.360304553176844"><ele>370.0</ele><time>2026-04-30T13:07:21.001Z</time></trkpt><trkpt lat="43.465401999466216" lon="11.360201522261685"><ele>370.0</ele><time>2026-04-30T13:07:22.001Z</time></trkpt><trkpt lat="43.46531772828538" lon="11.360079953535042"><ele>368.75</ele><time>2026-04-30T13:07:23.001Z</time></trkpt><trkpt lat="43.46522461413577" lon="11.35997230539097"><ele>367.5</ele><time>2026-04-30T13:07:24.001Z</time></trkpt><trkpt lat="43.46516406816928" lon="11.359834868292692"><ele>366.25</ele><time>2026-04-30T13:07:25.001Z</time></trkpt><trkpt lat="43.46511262789886" lon="11.359686268645135"><ele>365.0</ele><time>2026-04-30T13:07:26.001Z</time></trkpt><trkpt lat="43.46506695220899" lon="11.359549866104631"><ele>365.0</ele><time>2026-04-30T13:07:27.001Z</time></trkpt><trkpt lat="43.46502671676357" lon="11.359410194776626"><ele>365.0</ele><time>2026-04-30T13:07:28.001Z</time></trkpt><trkpt lat="43.4649974098643" lon="11.359264445756654"><ele>365.0</ele><time>2026-04-30T13:07:29.001Z</time></trkpt><trkpt lat="43.46497606637801" lon="11.359097091117578"><ele>365.0</ele><time>2026-04-30T13:07:30.001Z</time></trkpt><trkpt lat="43.46495744540567" lon="11.358942476510315"><ele>365.8</ele><time>2026-04-30T13:07:31.001Z</time></trkpt><trkpt lat="43.46493968696804" lon="11.358814044344651"><ele>366.6</ele><time>2026-04-30T13:07:32.001Z</time></trkpt><trkpt lat="43.46491493060275" lon="11.358681574629658"><ele>367.4</ele><time>2026-04-30T13:07:33.001Z</time></trkpt><trkpt lat="43.46486745913394" lon="11.358547693852405"><ele>368.2</ele><time>2026-04-30T13:07:34.001Z</time></trkpt><trkpt lat="43.46485275094881" lon="11.358419203476936"><ele>369.0</ele><time>2026-04-30T13:07:35.002Z</time></trkpt><trkpt lat="43.46482313765023" lon="11.358303894734128"><ele>369.0</ele><time>2026-04-30T13:07:36.002Z</time></trkpt><trkpt lat="43.46478265037127" lon="11.358160689487482"><ele>369.0</ele><time>2026-04-30T13:07:37.002Z</time></trkpt><trkpt lat="43.46473274548645" lon="11.358013720781717"><ele>369.0</ele><time>2026-04-30T13:07:38.002Z</time></trkpt><trkpt lat="43.46468219239769" lon="11.357901762069089"><ele>369.0</ele><time>2026-04-30T13:07:39.002Z</time></trkpt><trkpt lat="43.464622702932466" lon="11.357776873358295"><ele>369.0</ele><time>2026-04-30T13:07:40Z</time></trkpt><trkpt lat="43.46457377084368" lon="11.357687591472802"><ele>368.1666666666667</ele><time>2026-04-30T13:07:41Z</time></trkpt><trkpt lat="43.46451641769825" lon="11.357595023513335"><ele>367.3333333333333</ele><time>2026-04-30T13:07:42Z</time></trkpt><trkpt lat="43.464456297950335" lon="11.357515270784221"><ele>366.5</ele><time>2026-04-30T13:07:43Z</time></trkpt><trkpt lat="43.46438514000331" lon="11.357452725739416"><ele>365.66666666666663</ele><time>2026-04-30T13:07:44Z</time></trkpt><trkpt lat="43.46430591773876" lon="11.357372477357352"><ele>364.8333333333333</ele><time>2026-04-30T13:07:45Z</time></trkpt><trkpt lat="43.464238456841436" lon="11.357312172289033"><ele>364.0</ele><time>2026-04-30T13:07:46Z</time></trkpt><trkpt lat="43.46416519049996" lon="11.357272095136558"><ele>364.79999999999995</ele><time>2026-04-30T13:07:47Z</time></trkpt><trkpt lat="43.464090065982965" lon="11.357191962118705"><ele>365.59999999999997</ele><time>2026-04-30T13:07:48Z</time></trkpt><trkpt lat="43.46401358212222" lon="11.35714285896211"><ele>366.4</ele><time>2026-04-30T13:07:49Z</time></trkpt><trkpt lat="43.46392706424988" lon="11.357098412160186"><ele>367.2</ele><time>2026-04-30T13:07:50Z</time></trkpt><trkpt lat="43.46383234552211" lon="11.357063362041641"><ele>368.0</ele><time>2026-04-30T13:07:51Z</time></trkpt><trkpt lat="43.46375087729877" lon="11.357041985855641"><ele>368.0</ele><time>2026-04-30T13:07:52Z</time></trkpt><trkpt lat="43.46365531767021" lon="11.357035451583869"><ele>368.0</ele><time>2026-04-30T13:07:53Z</time></trkpt><trkpt lat="43.46355381135944" lon="11.35701725773373"><ele>368.0</ele><time>2026-04-30T13:07:54Z</time></trkpt><trkpt lat="43.46344580297763" lon="11.357012704300518"><ele>368.0</ele><time>2026-04-30T13:07:55Z</time></trkpt><trkpt lat="43.46335378973925" lon="11.356980053102015"><ele>368.0</ele><time>2026-04-30T13:07:56Z</time></trkpt><trkpt lat="43.463261018608094" lon="11.356975932079571"><ele>368.0</ele><time>2026-04-30T13:07:57Z</time></trkpt><trkpt lat="43.46317760000675" lon="11.356967733734377"><ele>368.0</ele><time>2026-04-30T13:07:58Z</time></trkpt><trkpt lat="43.463089766859355" lon="11.356949619014879"><ele>368.0</ele><time>2026-04-30T13:07:59Z</time></trkpt><trkpt lat="43.46301482288417" lon="11.35687344108607"><ele>368.0</ele><time>2026-04-30T13:08:00Z</time></trkpt><trkpt lat="43.46292397081182" lon="11.356787198843211"><ele>368.0</ele><time>2026-04-30T13:08:01Z</time></trkpt><trkpt lat="43.46279999409716" lon="11.356687775698436"><ele>367.2</ele><time>2026-04-30T13:08:02Z</time></trkpt><trkpt lat="43.462698605307374" lon="11.356568601952297"><ele>366.4</ele><time>2026-04-30T13:08:03Z</time></trkpt><trkpt lat="43.4626130724142" lon="11.356476351958653"><ele>365.59999999999997</ele><time>2026-04-30T13:08:04Z</time></trkpt><trkpt lat="43.462525678281175" lon="11.356402461169099"><ele>364.79999999999995</ele><time>2026-04-30T13:08:05Z</time></trkpt><trkpt lat="43.462449856075345" lon="11.356341278396254"><ele>364.0</ele><time>2026-04-30T13:08:06Z</time></trkpt><trkpt lat="43.462344220243054" lon="11.356263364537272"><ele>364.0</ele><time>2026-04-30T13:08:07Z</time></trkpt><trkpt lat="43.46224531693713" lon="11.356177350769183"><ele>364.0</ele><time>2026-04-30T13:08:08Z</time></trkpt><trkpt lat="43.462153041575355" lon="11.356071728528315"><ele>364.0</ele><time>2026-04-30T13:08:09Z</time></trkpt><trkpt lat="43.462056707433504" lon="11.355977153916042"><ele>364.0</ele><time>2026-04-30T13:08:10Z</time></trkpt><trkpt lat="43.46197340258128" lon="11.355894562998849"><ele>362.4</ele><time>2026-04-30T13:08:11Z</time></trkpt><trkpt lat="43.46188367488865" lon="11.355822063139733"><ele>360.79999999999995</ele><time>2026-04-30T13:08:12Z</time></trkpt><trkpt lat="43.46179717803287" lon="11.355739436623573"><ele>359.20000000000005</ele><time>2026-04-30T13:08:13Z</time></trkpt><trkpt lat="43.461693651877376" lon="11.355635475660058"><ele>357.6</ele><time>2026-04-30T13:08:14Z</time></trkpt><trkpt lat="43.46159528328344" lon="11.355569525708583"><ele>356.0</ele><time>2026-04-30T13:08:15Z</time></trkpt><trkpt lat="43.46149909921319" lon="11.355521066144835"><ele>355.5</ele><time>2026-04-30T13:08:16Z</time></trkpt><trkpt lat="43.461399137713684" lon="11.3554854751481"><ele>355.0</ele><time>2026-04-30T13:08:17Z</time></trkpt><trkpt lat="43.46128923482557" lon="11.355487961395166"><ele>354.5</ele><time>2026-04-30T13:08:18Z</time></trkpt><trkpt lat="43.46114672664019" lon="11.355533715363899"><ele>354.0</ele><time>2026-04-30T13:08:19Z</time></trkpt><trkpt lat="43.461019379251546" lon="11.355569761592369"><ele>354.0</ele><time>2026-04-30T13:08:20Z</time></trkpt><trkpt lat="43.460918640291744" lon="11.355588845245025"><ele>354.0</ele><time>2026-04-30T13:08:21Z</time></trkpt><trkpt lat="43.46083003720846" lon="11.355598719737026"><ele>354.0</ele><time>2026-04-30T13:08:22Z</time></trkpt><trkpt lat="43.460732293717214" lon="11.355585360632828"><ele>354.0</ele><time>2026-04-30T13:08:23Z</time></trkpt><trkpt lat="43.46061680645452" lon="11.355572015707292"><ele>354.0</ele><time>2026-04-30T13:08:24Z</time></trkpt><trkpt lat="43.46050346330342" lon="11.35555535909774"><ele>356.6</ele><time>2026-04-30T13:08:25Z</time></trkpt><trkpt lat="43.46039242525208" lon="11.355523224395062"><ele>359.2</ele><time>2026-04-30T13:08:26Z</time></trkpt><trkpt lat="43.46029955713996" lon="11.355481242615072"><ele>361.8</ele><time>2026-04-30T13:08:27Z</time></trkpt><trkpt lat="43.46020957838229" lon="11.355463368495544"><ele>364.40000000000003</ele><time>2026-04-30T13:08:28.001Z</time></trkpt><trkpt lat="43.46010200004648" lon="11.355468034908283"><ele>367.0</ele><time>2026-04-30T13:08:29.001Z</time></trkpt><trkpt lat="43.460000327008366" lon="11.355501192278732"><ele>364.8</ele><time>2026-04-30T13:08:30.001Z</time></trkpt><trkpt lat="43.45990826058927" lon="11.355540007828907"><ele>362.6</ele><time>2026-04-30T13:08:31.001Z</time></trkpt><trkpt lat="43.459813722494445" lon="11.355566905924174"><ele>360.40000000000003</ele><time>2026-04-30T13:08:32.001Z</time></trkpt><trkpt lat="43.459694738694964" lon="11.355565928731387"><ele>358.20000000000005</ele><time>2026-04-30T13:08:33.001Z</time></trkpt><trkpt lat="43.45958935051155" lon="11.35555176426087"><ele>356.0</ele><time>2026-04-30T13:08:34.001Z</time></trkpt><trkpt lat="43.45948992883892" lon="11.355536313672953"><ele>356.0</ele><time>2026-04-30T13:08:35.001Z</time></trkpt><trkpt lat="43.45939983039555" lon="11.355507252072492"><ele>356.0</ele><time>2026-04-30T13:08:36.001Z</time></trkpt><trkpt lat="43.45929558594001" lon="11.355487044200604"><ele>356.0</ele><time>2026-04-30T13:08:37.001Z</time></trkpt><trkpt lat="43.45920104182744" lon="11.355460700874255"><ele>356.0</ele><time>2026-04-30T13:08:38.001Z</time></trkpt><trkpt lat="43.459115124734595" lon="11.35543934112828"><ele>356.0</ele><time>2026-04-30T13:08:39.001Z</time></trkpt><trkpt lat="43.45901059245927" lon="11.355412411991804"><ele>356.0</ele><time>2026-04-30T13:08:40.001Z</time></trkpt><trkpt lat="43.4589068322427" lon="11.355377456215857"><ele>356.0</ele><time>2026-04-30T13:08:41.001Z</time></trkpt><trkpt lat="43.45881201490657" lon="11.355327525492477"><ele>356.0</ele><time>2026-04-30T13:08:42.001Z</time></trkpt><trkpt lat="43.45870493817875" lon="11.355263066305136"><ele>356.0</ele><time>2026-04-30T13:08:43.001Z</time></trkpt><trkpt lat="43.45858675202063" lon="11.355179712545434"><ele>354.8</ele><time>2026-04-30T13:08:44.001Z</time></trkpt><trkpt lat="43.4584942519669" lon="11.35510019195738"><ele>353.6</ele><time>2026-04-30T13:08:45.001Z</time></trkpt><trkpt lat="43.45841036983911" lon="11.355019435880711"><ele>352.4</ele><time>2026-04-30T13:08:46.001Z</time></trkpt><trkpt lat="43.4583146233352" lon="11.354935932671463"><ele>351.2</ele><time>2026-04-30T13:08:47.001Z</time></trkpt><trkpt lat="43.458230957663005" lon="11.354852838360209"><ele>350.0</ele><time>2026-04-30T13:08:48.001Z</time></trkpt><trkpt lat="43.458157786274924" lon="11.354796636999676"><ele>350.0</ele><time>2026-04-30T13:08:49.001Z</time></trkpt><trkpt lat="43.458089520228526" lon="11.35474753949397"><ele>350.0</ele><time>2026-04-30T13:08:50.001Z</time></trkpt><trkpt lat="43.45797619100689" lon="11.354706990128212"><ele>350.0</ele><time>2026-04-30T13:08:51.001Z</time></trkpt><trkpt lat="43.457833934316795" lon="11.354668592286476"><ele>350.0</ele><time>2026-04-30T13:08:52.001Z</time></trkpt><trkpt lat="43.457714135649084" lon="11.354630846019816"><ele>351.25</ele><time>2026-04-30T13:08:53.001Z</time></trkpt><trkpt lat="43.45759744378815" lon="11.354601488489044"><ele>352.5</ele><time>2026-04-30T13:08:54.001Z</time></trkpt><trkpt lat="43.45748278120624" lon="11.354533265111042"><ele>353.75</ele><time>2026-04-30T13:08:55.001Z</time></trkpt><trkpt lat="43.45736076404026" lon="11.35446162864315"><ele>355.0</ele><time>2026-04-30T13:08:56.001Z</time></trkpt><trkpt lat="43.45725835440784" lon="11.354387509798029"><ele>355.0</ele><time>2026-04-30T13:08:57.001Z</time></trkpt><trkpt lat="43.457168042025316" lon="11.354339550371723"><ele>355.0</ele><time>2026-04-30T13:08:58.001Z</time></trkpt><trkpt lat="43.45704551807376" lon="11.354285932555877"><ele>355.0</ele><time>2026-04-30T13:08:59.001Z</time></trkpt><trkpt lat="43.45692711674898" lon="11.354265641478273"><ele>355.0</ele><time>2026-04-30T13:09:00.001Z</time></trkpt><trkpt lat="43.45681282274409" lon="11.35423394158943"><ele>352.75</ele><time>2026-04-30T13:09:01.001Z</time></trkpt><trkpt lat="43.456703768725305" lon="11.35419746588738"><ele>350.5</ele><time>2026-04-30T13:09:02.001Z</time></trkpt><trkpt lat="43.45656090369637" lon="11.354190405732263"><ele>348.25</ele><time>2026-04-30T13:09:03.001Z</time></trkpt><trkpt lat="43.45644610611411" lon="11.354166978597219"><ele>346.0</ele><time>2026-04-30T13:09:04.001Z</time></trkpt><trkpt lat="43.456328209405584" lon="11.354149705205542"><ele>345.75</ele><time>2026-04-30T13:09:05.001Z</time></trkpt><trkpt lat="43.4562122909862" lon="11.354125704373837"><ele>345.5</ele><time>2026-04-30T13:09:06.001Z</time></trkpt><trkpt lat="43.456103051416015" lon="11.354075867090804"><ele>345.25</ele><time>2026-04-30T13:09:07.001Z</time></trkpt><trkpt lat="43.455980588907245" lon="11.354058084466242"><ele>345.0</ele><time>2026-04-30T13:09:08.001Z</time></trkpt><trkpt lat="43.455860452014754" lon="11.354023303653282"><ele>345.0</ele><time>2026-04-30T13:09:09.001Z</time></trkpt><trkpt lat="43.45576254588604" lon="11.353983343921296"><ele>345.0</ele><time>2026-04-30T13:09:10.001Z</time></trkpt><trkpt lat="43.455687334985704" lon="11.353954573022868"><ele>345.0</ele><time>2026-04-30T13:09:11.001Z</time></trkpt><trkpt lat="43.455574870197225" lon="11.35390972466133"><ele>345.0</ele><time>2026-04-30T13:09:12.001Z</time></trkpt><trkpt lat="43.455488185773554" lon="11.35387758514234"><ele>345.0</ele><time>2026-04-30T13:09:13.001Z</time></trkpt><trkpt lat="43.455396107697815" lon="11.3538709999253"><ele>344.6666666666667</ele><time>2026-04-30T13:09:14.001Z</time></trkpt><trkpt lat="43.45530417026534" lon="11.353903137810049"><ele>344.3333333333333</ele><time>2026-04-30T13:09:15.001Z</time></trkpt><trkpt lat="43.455223785473684" lon="11.353928563631166"><ele>344.0</ele><time>2026-04-30T13:09:16.001Z</time></trkpt><trkpt lat="43.455146674089804" lon="11.353955427161287"><ele>343.66666666666663</ele><time>2026-04-30T13:09:17.001Z</time></trkpt><trkpt lat="43.455072699322685" lon="11.353979443571466"><ele>343.3333333333333</ele><time>2026-04-30T13:09:18.001Z</time></trkpt><trkpt lat="43.45498645780438" lon="11.354008950406373"><ele>343.0</ele><time>2026-04-30T13:09:19.001Z</time></trkpt><trkpt lat="43.45489533167848" lon="11.354036835488875"><ele>343.0</ele><time>2026-04-30T13:09:20.001Z</time></trkpt><trkpt lat="43.45481004772893" lon="11.354058909691597"><ele>343.0</ele><time>2026-04-30T13:09:21.001Z</time></trkpt><trkpt lat="43.454726325920845" lon="11.354105259971568"><ele>343.0</ele><time>2026-04-30T13:09:22.001Z</time></trkpt><trkpt lat="43.454647753008516" lon="11.354165941856484"><ele>343.0</ele><time>2026-04-30T13:09:23.001Z</time></trkpt><trkpt lat="43.454558797094656" lon="11.35423447059664"><ele>343.0</ele><time>2026-04-30T13:09:24.001Z</time></trkpt><trkpt lat="43.454477448571645" lon="11.354289189686623"><ele>341.59999999999997</ele><time>2026-04-30T13:09:25.001Z</time></trkpt><trkpt lat="43.454408451846525" lon="11.354333458058273"><ele>340.2</ele><time>2026-04-30T13:09:26.001Z</time></trkpt><trkpt lat="43.45431102774225" lon="11.354348901662696"><ele>338.8</ele><time>2026-04-30T13:09:27.001Z</time></trkpt><trkpt lat="43.454219361766164" lon="11.354346593349556"><ele>337.4</ele><time>2026-04-30T13:09:28.001Z</time></trkpt><trkpt lat="43.45411974930837" lon="11.354317640183133"><ele>336.0</ele><time>2026-04-30T13:09:29.001Z</time></trkpt><trkpt lat="43.45405530995747" lon="11.354241565999093"><ele>336.0</ele><time>2026-04-30T13:09:30.001Z</time></trkpt><trkpt lat="43.45398826525134" lon="11.354213694287127"><ele>336.0</ele><time>2026-04-30T13:09:31.001Z</time></trkpt><trkpt lat="43.4539083824927" lon="11.354243650059678"><ele>336.0</ele><time>2026-04-30T13:09:32.001Z</time></trkpt><trkpt lat="43.45383504190095" lon="11.354283339192852"><ele>336.0</ele><time>2026-04-30T13:09:33.002Z</time></trkpt><trkpt lat="43.453762086484474" lon="11.354340481693646"><ele>336.0</ele><time>2026-04-30T13:09:34.002Z</time></trkpt><trkpt lat="43.453702463338395" lon="11.354397917937419"><ele>336.0</ele><time>2026-04-30T13:09:35.002Z</time></trkpt><trkpt lat="43.453624434437224" lon="11.354426525584492"><ele>337.6</ele><time>2026-04-30T13:09:36.002Z</time></trkpt><trkpt lat="43.45353136351194" lon="11.354475650252784"><ele>339.20000000000005</ele><time>2026-04-30T13:09:37.002Z</time></trkpt><trkpt lat="43.453435207061275" lon="11.354508723414346"><ele>340.79999999999995</ele><time>2026-04-30T13:09:38.002Z</time></trkpt><trkpt lat="43.453336956867865" lon="11.354541656665953"><ele>342.4</ele><time>2026-04-30T13:09:39.002Z</time></trkpt><trkpt lat="43.453242121315476" lon="11.35460064462485"><ele>344.0</ele><time>2026-04-30T13:09:40.002Z</time></trkpt><trkpt lat="43.45314564332027" lon="11.354664501650259"><ele>343.6</ele><time>2026-04-30T13:09:41.002Z</time></trkpt><trkpt lat="43.45306012643621" lon="11.35471679276004"><ele>343.2</ele><time>2026-04-30T13:09:42.002Z</time></trkpt><trkpt lat="43.45297224227334" lon="11.354760383212328"><ele>342.8</ele><time>2026-04-30T13:09:43.002Z</time></trkpt><trkpt lat="43.45287696505961" lon="11.354815756506978"><ele>342.40000000000003</ele><time>2026-04-30T13:09:44.002Z</time></trkpt><trkpt lat="43.45279182565978" lon="11.3548704468387"><ele>342.0</ele><time>2026-04-30T13:09:45.002Z</time></trkpt><trkpt lat="43.452710759145" lon="11.354924732732036"><ele>342.0</ele><time>2026-04-30T13:09:46.001Z</time></trkpt><trkpt lat="43.45263079581468" lon="11.354972570502634"><ele>342.0</ele><time>2026-04-30T13:09:47.001Z</time></trkpt><trkpt lat="43.45254400901252" lon="11.355029927375353"><ele>342.0</ele><time>2026-04-30T13:09:48.001Z</time></trkpt><trkpt lat="43.45243594402123" lon="11.355076563937216"><ele>342.0</ele><time>2026-04-30T13:09:49.001Z</time></trkpt><trkpt lat="43.45233667558887" lon="11.355120114267757"><ele>342.0</ele><time>2026-04-30T13:09:50.001Z</time></trkpt><trkpt lat="43.452238709564654" lon="11.355165004603172"><ele>342.0</ele><time>2026-04-30T13:09:51.001Z</time></trkpt><trkpt lat="43.45214670235998" lon="11.355207091628643"><ele>342.0</ele><time>2026-04-30T13:09:52.001Z</time></trkpt><trkpt lat="43.45206162711533" lon="11.3552447315495"><ele>342.0</ele><time>2026-04-30T13:09:53.001Z</time></trkpt><trkpt lat="43.451965039524595" lon="11.355269091925377"><ele>342.0</ele><time>2026-04-30T13:09:54.001Z</time></trkpt><trkpt lat="43.45187551085664" lon="11.35528335837929"><ele>342.0</ele><time>2026-04-30T13:09:55.001Z</time></trkpt><trkpt lat="43.45179140657288" lon="11.355292137338118"><ele>343.40000000000003</ele><time>2026-04-30T13:09:56.001Z</time></trkpt><trkpt lat="43.451701642673065" lon="11.3553070985136"><ele>344.8</ele><time>2026-04-30T13:09:57.001Z</time></trkpt><trkpt lat="43.451615775104635" lon="11.355325416504598"><ele>346.2</ele><time>2026-04-30T13:09:58.001Z</time></trkpt><trkpt lat="43.45151284985061" lon="11.3553904901092"><ele>347.6</ele><time>2026-04-30T13:09:59.001Z</time></trkpt><trkpt lat="43.451432221254855" lon="11.355465720205643"><ele>349.0</ele><time>2026-04-30T13:10:00.001Z</time></trkpt><trkpt lat="43.4513596960228" lon="11.355517013084457"><ele>348.66666666666663</ele><time>2026-04-30T13:10:01.001Z</time></trkpt><trkpt lat="43.451293874428124" lon="11.355561913337551"><ele>348.3333333333333</ele><time>2026-04-30T13:10:02.001Z</time></trkpt><trkpt lat="43.4512231937699" lon="11.355606201807957"><ele>348.0</ele><time>2026-04-30T13:10:03.001Z</time></trkpt><trkpt lat="43.451155407906526" lon="11.35566762463497"><ele>347.6666666666667</ele><time>2026-04-30T13:10:04.001Z</time></trkpt><trkpt lat="43.45107507327469" lon="11.355730068821684"><ele>347.33333333333337</ele><time>2026-04-30T13:10:05.001Z</time></trkpt><trkpt lat="43.45100841327" lon="11.35584863498563"><ele>347.0</ele><time>2026-04-30T13:10:06.001Z</time></trkpt><trkpt lat="43.450922512347276" lon="11.35594818387777"><ele>347.0</ele><time>2026-04-30T13:10:07.001Z</time></trkpt><trkpt lat="43.450853049629984" lon="11.35603605726997"><ele>347.0</ele><time>2026-04-30T13:10:08.001Z</time></trkpt><trkpt lat="43.4507976677197" lon="11.356111665192053"><ele>347.0</ele><time>2026-04-30T13:10:09.001Z</time></trkpt><trkpt lat="43.45074582816151" lon="11.356173184452496"><ele>347.0</ele><time>2026-04-30T13:10:10.001Z</time></trkpt><trkpt lat="43.450678928870275" lon="11.356219383374231"><ele>347.0</ele><time>2026-04-30T13:10:11.001Z</time></trkpt><trkpt lat="43.45061349254283" lon="11.35630160760756"><ele>347.0</ele><time>2026-04-30T13:10:12.001Z</time></trkpt><trkpt lat="43.450540954971586" lon="11.356385463765296"><ele>345.83333333333337</ele><time>2026-04-30T13:10:13.001Z</time></trkpt><trkpt lat="43.45047010773599" lon="11.35648088631216"><ele>344.6666666666667</ele><time>2026-04-30T13:10:14.001Z</time></trkpt><trkpt lat="43.45038585429576" lon="11.356553190574541"><ele>343.5</ele><time>2026-04-30T13:10:15.001Z</time></trkpt><trkpt lat="43.45031918926283" lon="11.356616547242313"><ele>342.3333333333333</ele><time>2026-04-30T13:10:16.001Z</time></trkpt><trkpt lat="43.45025753218037" lon="11.356669155361894"><ele>341.16666666666663</ele><time>2026-04-30T13:10:17.001Z</time></trkpt><trkpt lat="43.45018444786336" lon="11.356706626214107"><ele>340.0</ele><time>2026-04-30T13:10:18.001Z</time></trkpt><trkpt lat="43.45011279886914" lon="11.356755622895802"><ele>340.0</ele><time>2026-04-30T13:10:19.001Z</time></trkpt><trkpt lat="43.4500227167125" lon="11.35679539210848"><ele>340.0</ele><time>2026-04-30T13:10:20.001Z</time></trkpt><trkpt lat="43.449925165106656" lon="11.356823089150591"><ele>340.0</ele><time>2026-04-30T13:10:21.001Z</time></trkpt><trkpt lat="43.44981932381332" lon="11.356827401164793"><ele>340.0</ele><time>2026-04-30T13:10:22.001Z</time></trkpt><trkpt lat="43.44972154560855" lon="11.356810885470656"><ele>340.0</ele><time>2026-04-30T13:10:23.001Z</time></trkpt><trkpt lat="43.44961887767843" lon="11.356782937497783"><ele>338.4</ele><time>2026-04-30T13:10:24.001Z</time></trkpt><trkpt lat="43.449532749640866" lon="11.356771138413071"><ele>336.8</ele><time>2026-04-30T13:10:25.001Z</time></trkpt><trkpt lat="43.449446940738675" lon="11.356748164786522"><ele>335.20000000000005</ele><time>2026-04-30T13:10:26.001Z</time></trkpt><trkpt lat="43.449354017655" lon="11.3567250441335"><ele>333.6</ele><time>2026-04-30T13:10:27.001Z</time></trkpt><trkpt lat="43.449255318480795" lon="11.356670912448601"><ele>332.0</ele><time>2026-04-30T13:10:28.001Z</time></trkpt><trkpt lat="43.44915629466844" lon="11.356604327413285"><ele>332.0</ele><time>2026-04-30T13:10:29.001Z</time></trkpt><trkpt lat="43.449087290938664" lon="11.35652339254241"><ele>332.0</ele><time>2026-04-30T13:10:30.001Z</time></trkpt><trkpt lat="43.44902592638608" lon="11.356443991027165"><ele>332.0</ele><time>2026-04-30T13:10:31.001Z</time></trkpt><trkpt lat="43.448948064145554" lon="11.356368642037184"><ele>332.0</ele><time>2026-04-30T13:10:32.001Z</time></trkpt><trkpt lat="43.44885779950646" lon="11.356301053573493"><ele>332.0</ele><time>2026-04-30T13:10:33.001Z</time></trkpt><trkpt lat="43.44876379122594" lon="11.356245435410077"><ele>332.8</ele><time>2026-04-30T13:10:34.001Z</time></trkpt><trkpt lat="43.448655443549484" lon="11.356189668411227"><ele>333.6</ele><time>2026-04-30T13:10:35.001Z</time></trkpt><trkpt lat="43.4485491980787" lon="11.356146455445014"><ele>334.40000000000003</ele><time>2026-04-30T13:10:36.001Z</time></trkpt><trkpt lat="43.448453888732764" lon="11.356079986062399"><ele>335.20000000000005</ele><time>2026-04-30T13:10:37.001Z</time></trkpt><trkpt lat="43.448360031834945" lon="11.356022977203343"><ele>336.0</ele><time>2026-04-30T13:10:38.001Z</time></trkpt><trkpt lat="43.448250327878284" lon="11.355954095363142"><ele>336.0</ele><time>2026-04-30T13:10:39.001Z</time></trkpt><trkpt lat="43.44815129024966" lon="11.355883063556838"><ele>336.0</ele><time>2026-04-30T13:10:40.001Z</time></trkpt><trkpt lat="43.44806327974642" lon="11.355834527435045"><ele>336.0</ele><time>2026-04-30T13:10:41.001Z</time></trkpt><trkpt lat="43.447965845034155" lon="11.355781485255386"><ele>336.0</ele><time>2026-04-30T13:10:42.001Z</time></trkpt><trkpt lat="43.44787751156125" lon="11.355727986331633"><ele>336.0</ele><time>2026-04-30T13:10:43.001Z</time></trkpt><trkpt lat="43.44779664793745" lon="11.355673799123283"><ele>335.0</ele><time>2026-04-30T13:10:44.001Z</time></trkpt><trkpt lat="43.4477177162211" lon="11.35562299176362"><ele>334.0</ele><time>2026-04-30T13:10:45.001Z</time></trkpt><trkpt lat="43.44757035743221" lon="11.355541216897647"><ele>333.0</ele><time>2026-04-30T13:10:47.001Z</time></trkpt><trkpt lat="43.44748161966817" lon="11.355499684679192"><ele>332.0</ele><time>2026-04-30T13:10:48.001Z</time></trkpt><trkpt lat="43.44739058248566" lon="11.35547249136381"><ele>331.0</ele><time>2026-04-30T13:10:49.001Z</time></trkpt><trkpt lat="43.447298215687" lon="11.355445116300455"><ele>332.20000000000005</ele><time>2026-04-30T13:10:50.001Z</time></trkpt><trkpt lat="43.44719683116832" lon="11.355426521021021"><ele>333.40000000000003</ele><time>2026-04-30T13:10:51.001Z</time></trkpt><trkpt lat="43.447090967459815" lon="11.355415313273348"><ele>334.6</ele><time>2026-04-30T13:10:52.001Z</time></trkpt><trkpt lat="43.44699004975183" lon="11.355404613913421"><ele>335.8</ele><time>2026-04-30T13:10:53.001Z</time></trkpt><trkpt lat="43.446892155727845" lon="11.355392115276835"><ele>337.0</ele><time>2026-04-30T13:10:54.001Z</time></trkpt><trkpt lat="43.44679530170085" lon="11.355365537611734"><ele>337.0</ele><time>2026-04-30T13:10:55.001Z</time></trkpt><trkpt lat="43.44669518626287" lon="11.355342188614019"><ele>337.0</ele><time>2026-04-30T13:10:56.001Z</time></trkpt><trkpt lat="43.44659431601423" lon="11.355319526915968"><ele>337.0</ele><time>2026-04-30T13:10:57.001Z</time></trkpt><trkpt lat="43.44650037592279" lon="11.35529859822099"><ele>337.0</ele><time>2026-04-30T13:10:58.001Z</time></trkpt><trkpt lat="43.44639626682029" lon="11.355282392538768"><ele>337.0</ele><time>2026-04-30T13:10:59.001Z</time></trkpt><trkpt lat="43.44630429916241" lon="11.355260932709374"><ele>336.0</ele><time>2026-04-30T13:11:00.001Z</time></trkpt><trkpt lat="43.44620821070274" lon="11.355248771254203"><ele>335.0</ele><time>2026-04-30T13:11:01.001Z</time></trkpt><trkpt lat="43.44610766606343" lon="11.35523622710038"><ele>334.0</ele><time>2026-04-30T13:11:02.001Z</time></trkpt><trkpt lat="43.44601483300453" lon="11.355220085306845"><ele>333.0</ele><time>2026-04-30T13:11:03.001Z</time></trkpt><trkpt lat="43.44592334424171" lon="11.355222103685682"><ele>332.0</ele><time>2026-04-30T13:11:04.001Z</time></trkpt><trkpt lat="43.44582539143441" lon="11.355217427066803"><ele>332.0</ele><time>2026-04-30T13:11:05.001Z</time></trkpt><trkpt lat="43.44571822244814" lon="11.355195773924178"><ele>332.0</ele><time>2026-04-30T13:11:06.001Z</time></trkpt><trkpt lat="43.44559823497436" lon="11.355150985487441"><ele>332.0</ele><time>2026-04-30T13:11:07.001Z</time></trkpt><trkpt lat="43.4454695968447" lon="11.35507974272175"><ele>332.0</ele><time>2026-04-30T13:11:08.001Z</time></trkpt><trkpt lat="43.44535551343081" lon="11.354979830232498"><ele>331.0</ele><time>2026-04-30T13:11:09.001Z</time></trkpt><trkpt lat="43.44524682584189" lon="11.35486961698243"><ele>330.0</ele><time>2026-04-30T13:11:10.001Z</time></trkpt><trkpt lat="43.44514892748626" lon="11.35475527162399"><ele>329.0</ele><time>2026-04-30T13:11:11.001Z</time></trkpt><trkpt lat="43.44506868684443" lon="11.354635787086336"><ele>328.0</ele><time>2026-04-30T13:11:12.001Z</time></trkpt><trkpt lat="43.44500925195868" lon="11.354501581861754"><ele>328.0</ele><time>2026-04-30T13:11:13.001Z</time></trkpt><trkpt lat="43.44496913057288" lon="11.3543482590215"><ele>328.0</ele><time>2026-04-30T13:11:14.001Z</time></trkpt><trkpt lat="43.444944779768804" lon="11.354183974420692"><ele>328.0</ele><time>2026-04-30T13:11:15.001Z</time></trkpt><trkpt lat="43.444940797991386" lon="11.35403387656166"><ele>328.0</ele><time>2026-04-30T13:11:16.001Z</time></trkpt><trkpt lat="43.44493725062305" lon="11.353912089158161"><ele>328.0</ele><time>2026-04-30T13:11:17.001Z</time></trkpt><trkpt lat="43.444924925279224" lon="11.353826716238446"><ele>327.79999999999995</ele><time>2026-04-30T13:11:18.001Z</time></trkpt><trkpt lat="43.444892318512046" lon="11.353732093709892"><ele>327.6</ele><time>2026-04-30T13:11:20.001Z</time></trkpt><trkpt lat="43.44481704669621" lon="11.353707360098504"><ele>327.4</ele><time>2026-04-30T13:11:22.001Z</time></trkpt><trkpt lat="43.4446957198494" lon="11.353758402086138"><ele>327.20000000000005</ele><time>2026-04-30T13:11:24.001Z</time></trkpt><trkpt lat="43.44460101319449" lon="11.353794149179633"><ele>327.0</ele><time>2026-04-30T13:11:25.001Z</time></trkpt><trkpt lat="43.44449209174191" lon="11.35382366199237"><ele>326.40000000000003</ele><time>2026-04-30T13:11:26.001Z</time></trkpt><trkpt lat="43.444389844017465" lon="11.35386058849955"><ele>325.8</ele><time>2026-04-30T13:11:27.001Z</time></trkpt><trkpt lat="43.444306101654895" lon="11.3538878771499"><ele>325.2</ele><time>2026-04-30T13:11:28.002Z</time></trkpt><trkpt lat="43.444214007367904" lon="11.353914474809299"><ele>324.6</ele><time>2026-04-30T13:11:29.002Z</time></trkpt><trkpt lat="43.44412853495569" lon="11.353954840536964"><ele>324.0</ele><time>2026-04-30T13:11:30.002Z</time></trkpt><trkpt lat="43.44402687624387" lon="11.354020027310966"><ele>324.0</ele><time>2026-04-30T13:11:31.002Z</time></trkpt><trkpt lat="43.44393749800317" lon="11.354070649337606"><ele>324.0</ele><time>2026-04-30T13:11:32.002Z</time></trkpt><trkpt lat="43.443842313762126" lon="11.354136497067879"><ele>324.0</ele><time>2026-04-30T13:11:33.002Z</time></trkpt><trkpt lat="43.44374933716243" lon="11.354198714235231"><ele>324.0</ele><time>2026-04-30T13:11:34.002Z</time></trkpt><trkpt lat="43.44365234380561" lon="11.354252982213028"><ele>324.0</ele><time>2026-04-30T13:11:35.002Z</time></trkpt><trkpt lat="43.44355498615298" lon="11.354315425682696"><ele>326.5</ele><time>2026-04-30T13:11:36.002Z</time></trkpt><trkpt lat="43.44345851469444" lon="11.35438495558956"><ele>329.0</ele><time>2026-04-30T13:11:37.002Z</time></trkpt><trkpt lat="43.44336494151279" lon="11.35445975312698"><ele>331.5</ele><time>2026-04-30T13:11:38.002Z</time></trkpt><trkpt lat="43.443267021577206" lon="11.354521824995004"><ele>334.0</ele><time>2026-04-30T13:11:39.002Z</time></trkpt><trkpt lat="43.44314647378165" lon="11.354572019840282"><ele>334.0</ele><time>2026-04-30T13:11:40.002Z</time></trkpt><trkpt lat="43.44303870845032" lon="11.35462858034197"><ele>334.0</ele><time>2026-04-30T13:11:41.002Z</time></trkpt><trkpt lat="43.44292676772" lon="11.354723956533144"><ele>334.0</ele><time>2026-04-30T13:11:42.002Z</time></trkpt><trkpt lat="43.44282104148448" lon="11.354761454941793"><ele>334.0</ele><time>2026-04-30T13:11:43.002Z</time></trkpt><trkpt lat="43.44271889082707" lon="11.354830166240045"><ele>334.4</ele><time>2026-04-30T13:11:44.002Z</time></trkpt><trkpt lat="43.44263016637779" lon="11.354910042152014"><ele>334.79999999999995</ele><time>2026-04-30T13:11:45.002Z</time></trkpt><trkpt lat="43.44254116381421" lon="11.354995186790969"><ele>335.20000000000005</ele><time>2026-04-30T13:11:46.002Z</time></trkpt><trkpt lat="43.44244889118663" lon="11.355078169768026"><ele>335.6</ele><time>2026-04-30T13:11:47.002Z</time></trkpt><trkpt lat="43.442355441735295" lon="11.355164581186596"><ele>336.0</ele><time>2026-04-30T13:11:48.002Z</time></trkpt><trkpt lat="43.44225700414281" lon="11.355243154337682"><ele>336.0</ele><time>2026-04-30T13:11:49.002Z</time></trkpt><trkpt lat="43.44216860722533" lon="11.355292536693257"><ele>336.0</ele><time>2026-04-30T13:11:50.002Z</time></trkpt><trkpt lat="43.44206316622406" lon="11.35530811212082"><ele>336.0</ele><time>2026-04-30T13:11:51.002Z</time></trkpt><trkpt lat="43.44195152529727" lon="11.355306124495828"><ele>336.0</ele><time>2026-04-30T13:11:52.001Z</time></trkpt><trkpt lat="43.441844530555315" lon="11.355298988862888"><ele>336.0</ele><time>2026-04-30T13:11:53.001Z</time></trkpt><trkpt lat="43.44174617175688" lon="11.355325607142046"><ele>337.4</ele><time>2026-04-30T13:11:54.001Z</time></trkpt><trkpt lat="43.44165987311475" lon="11.355358853820325"><ele>338.8</ele><time>2026-04-30T13:11:55.001Z</time></trkpt><trkpt lat="43.441577162730404" lon="11.35539262905404"><ele>340.2</ele><time>2026-04-30T13:11:56.001Z</time></trkpt><trkpt lat="43.44149686998802" lon="11.355466444436566"><ele>341.59999999999997</ele><time>2026-04-30T13:11:57.001Z</time></trkpt><trkpt lat="43.44145457227814" lon="11.355570209413669"><ele>343.0</ele><time>2026-04-30T13:11:58.001Z</time></trkpt><trkpt lat="43.44139660032422" lon="11.3556838543119"><ele>343.0</ele><time>2026-04-30T13:11:59.001Z</time></trkpt><trkpt lat="43.441357694740525" lon="11.3557779917344"><ele>343.0</ele><time>2026-04-30T13:12:00.001Z</time></trkpt><trkpt lat="43.44127376636741" lon="11.355831601770086"><ele>343.0</ele><time>2026-04-30T13:12:02.001Z</time></trkpt><trkpt lat="43.44117810178352" lon="11.355849930637952"><ele>343.0</ele><time>2026-04-30T13:12:03.001Z</time></trkpt><trkpt lat="43.44111320354889" lon="11.355868855525497"><ele>343.0</ele><time>2026-04-30T13:12:04.001Z</time></trkpt><trkpt lat="43.44101572597087" lon="11.355811086611196"><ele>343.0</ele><time>2026-04-30T13:12:06.001Z</time></trkpt><trkpt lat="43.440998213181416" lon="11.355675670597972"><ele>345.0</ele><time>2026-04-30T13:12:08.001Z</time></trkpt><trkpt lat="43.44104178485231" lon="11.355522961107647"><ele>347.0</ele><time>2026-04-30T13:12:10.001Z</time></trkpt><trkpt lat="43.441077705978124" lon="11.355373900703405"><ele>349.0</ele><time>2026-04-30T13:12:12.001Z</time></trkpt><trkpt lat="43.44109348773487" lon="11.355259883990431"><ele>351.0</ele><time>2026-04-30T13:12:13.001Z</time></trkpt><trkpt lat="43.44108590991718" lon="11.355156189409051"><ele>353.0</ele><time>2026-04-30T13:12:14.001Z</time></trkpt><trkpt lat="43.44106303670759" lon="11.355037655252469"><ele>353.0</ele><time>2026-04-30T13:12:15.001Z</time></trkpt><trkpt lat="43.44102466487571" lon="11.354878560598769"><ele>353.0</ele><time>2026-04-30T13:12:16.001Z</time></trkpt><trkpt lat="43.44100961867556" lon="11.354750521040064"><ele>353.0</ele><time>2026-04-30T13:12:17.001Z</time></trkpt><trkpt lat="43.44097379637857" lon="11.354609669007997"><ele>353.0</ele><time>2026-04-30T13:12:18.001Z</time></trkpt><trkpt lat="43.44094633296825" lon="11.354490807723957"><ele>353.0</ele><time>2026-04-30T13:12:19.001Z</time></trkpt><trkpt lat="43.44090843757018" lon="11.354338766206173"><ele>353.5</ele><time>2026-04-30T13:12:20.001Z</time></trkpt><trkpt lat="43.44088513841393" lon="11.3542194337706"><ele>354.0</ele><time>2026-04-30T13:12:21.001Z</time></trkpt><trkpt lat="43.44084584521774" lon="11.354019870254664"><ele>354.5</ele><time>2026-04-30T13:12:23.001Z</time></trkpt><trkpt lat="43.440828235153006" lon="11.35386878142448"><ele>355.0</ele><time>2026-04-30T13:12:24.001Z</time></trkpt><trkpt lat="43.44081033366813" lon="11.353711796029048"><ele>356.5</ele><time>2026-04-30T13:12:25.001Z</time></trkpt><trkpt lat="43.44080146506278" lon="11.353540281503573"><ele>358.0</ele><time>2026-04-30T13:12:26.001Z</time></trkpt><trkpt lat="43.4407873975603" lon="11.353382448568281"><ele>359.5</ele><time>2026-04-30T13:12:27.001Z</time></trkpt><trkpt lat="43.440766291840916" lon="11.353229539749144"><ele>361.0</ele><time>2026-04-30T13:12:28.001Z</time></trkpt><trkpt lat="43.44074121777682" lon="11.35308101774599"><ele>362.20000000000005</ele><time>2026-04-30T13:12:29.001Z</time></trkpt><trkpt lat="43.440726259262924" lon="11.352946278575999"><ele>363.40000000000003</ele><time>2026-04-30T13:12:30.001Z</time></trkpt><trkpt lat="43.44071334663228" lon="11.352786126716849"><ele>364.6</ele><time>2026-04-30T13:12:31.001Z</time></trkpt><trkpt lat="43.440690560788255" lon="11.352635486129648"><ele>365.8</ele><time>2026-04-30T13:12:32.001Z</time></trkpt><trkpt lat="43.44066131411933" lon="11.35249008888921"><ele>367.0</ele><time>2026-04-30T13:12:33.001Z</time></trkpt><trkpt lat="43.44063472281278" lon="11.352343509634357"><ele>368.20000000000005</ele><time>2026-04-30T13:12:34.001Z</time></trkpt><trkpt lat="43.44061282780526" lon="11.35220414623968"><ele>369.4</ele><time>2026-04-30T13:12:35.001Z</time></trkpt><trkpt lat="43.44059943350168" lon="11.352066995370711"><ele>370.6</ele><time>2026-04-30T13:12:36.001Z</time></trkpt><trkpt lat="43.440584652922276" lon="11.351936002181462"><ele>371.79999999999995</ele><time>2026-04-30T13:12:37.001Z</time></trkpt><trkpt lat="43.44059062353561" lon="11.351822198836969"><ele>373.0</ele><time>2026-04-30T13:12:38.001Z</time></trkpt><trkpt lat="43.44057773427897" lon="11.351696640996092"><ele>373.0</ele><time>2026-04-30T13:12:39.001Z</time></trkpt><trkpt lat="43.440543339471695" lon="11.351594530058376"><ele>373.0</ele><time>2026-04-30T13:12:40.001Z</time></trkpt><trkpt lat="43.44048017847238" lon="11.351481527072803"><ele>373.0</ele><time>2026-04-30T13:12:41.001Z</time></trkpt><trkpt lat="43.44040491114651" lon="11.351329645225052"><ele>373.0</ele><time>2026-04-30T13:12:42.001Z</time></trkpt><trkpt lat="43.44034927435379" lon="11.351194576543223"><ele>373.0</ele><time>2026-04-30T13:12:43.001Z</time></trkpt><trkpt lat="43.440316251398805" lon="11.351058319915904"><ele>373.0</ele><time>2026-04-30T13:12:44.001Z</time></trkpt><trkpt lat="43.44027694130808" lon="11.350932410619563"><ele>373.0</ele><time>2026-04-30T13:12:45.001Z</time></trkpt><trkpt lat="43.44022604790188" lon="11.350810898837485"><ele>373.0</ele><time>2026-04-30T13:12:46.001Z</time></trkpt><trkpt lat="43.44016352183821" lon="11.350700960108353"><ele>373.0</ele><time>2026-04-30T13:12:47.001Z</time></trkpt><trkpt lat="43.44007375147391" lon="11.350616362072797"><ele>373.0</ele><time>2026-04-30T13:12:48.001Z</time></trkpt><trkpt lat="43.4399855776633" lon="11.350545763218244"><ele>373.59999999999997</ele><time>2026-04-30T13:12:49.001Z</time></trkpt><trkpt lat="43.4398856841875" lon="11.350499481126354"><ele>374.2</ele><time>2026-04-30T13:12:50.001Z</time></trkpt><trkpt lat="43.43979097678078" lon="11.350440990087463"><ele>374.8</ele><time>2026-04-30T13:12:51.001Z</time></trkpt><trkpt lat="43.43970853092303" lon="11.350388231852218"><ele>375.4</ele><time>2026-04-30T13:12:52.001Z</time></trkpt><trkpt lat="43.43961439265234" lon="11.350344018368927"><ele>376.0</ele><time>2026-04-30T13:12:53.001Z</time></trkpt><trkpt lat="43.43952692299693" lon="11.350308989308504"><ele>376.20000000000005</ele><time>2026-04-30T13:12:54.001Z</time></trkpt><trkpt lat="43.439411014966026" lon="11.350267748510122"><ele>376.40000000000003</ele><time>2026-04-30T13:12:55.001Z</time></trkpt><trkpt lat="43.439293846318364" lon="11.350222081952094"><ele>376.6</ele><time>2026-04-30T13:12:56.001Z</time></trkpt><trkpt lat="43.4392018657954" lon="11.350173308779784"><ele>376.8</ele><time>2026-04-30T13:12:57.001Z</time></trkpt><trkpt lat="43.439119403793484" lon="11.350136575615624"><ele>377.0</ele><time>2026-04-30T13:12:58.001Z</time></trkpt><trkpt lat="43.43903393724515" lon="11.35009853766217"><ele>377.0</ele><time>2026-04-30T13:12:59.001Z</time></trkpt><trkpt lat="43.43894034539003" lon="11.350047877566638"><ele>377.0</ele><time>2026-04-30T13:13:00.001Z</time></trkpt><trkpt lat="43.43885473534776" lon="11.350011456026737"><ele>377.0</ele><time>2026-04-30T13:13:01.001Z</time></trkpt><trkpt lat="43.438774035318296" lon="11.349980706775487"><ele>377.0</ele><time>2026-04-30T13:13:02.001Z</time></trkpt><trkpt lat="43.4386733353816" lon="11.349945540154971"><ele>377.0</ele><time>2026-04-30T13:13:03.001Z</time></trkpt><trkpt lat="43.43857797248628" lon="11.349900940605766"><ele>376.5</ele><time>2026-04-30T13:13:04.001Z</time></trkpt><trkpt lat="43.43848775565221" lon="11.349855594224927"><ele>376.0</ele><time>2026-04-30T13:13:05.001Z</time></trkpt><trkpt lat="43.438376488295916" lon="11.34979240782993"><ele>375.5</ele><time>2026-04-30T13:13:06.001Z</time></trkpt><trkpt lat="43.438267183598086" lon="11.34969200484474"><ele>375.0</ele><time>2026-04-30T13:13:07.001Z</time></trkpt><trkpt lat="43.438187144226525" lon="11.349589620977909"><ele>376.8</ele><time>2026-04-30T13:13:08.001Z</time></trkpt><trkpt lat="43.43812514843798" lon="11.349478623239326"><ele>378.6</ele><time>2026-04-30T13:13:09.001Z</time></trkpt><trkpt lat="43.438084820751534" lon="11.349379055323858"><ele>380.4</ele><time>2026-04-30T13:13:10.001Z</time></trkpt><trkpt lat="43.438034555216866" lon="11.349255918334483"><ele>382.2</ele><time>2026-04-30T13:13:11.001Z</time></trkpt><trkpt lat="43.437996070286246" lon="11.349129765723369"><ele>384.0</ele><time>2026-04-30T13:13:12.001Z</time></trkpt><trkpt lat="43.43797433361044" lon="11.348998005078455"><ele>382.6</ele><time>2026-04-30T13:13:13.001Z</time></trkpt><trkpt lat="43.43794882081438" lon="11.348861022323963"><ele>381.2</ele><time>2026-04-30T13:13:14.001Z</time></trkpt><trkpt lat="43.43790804030651" lon="11.348710469722532"><ele>379.8</ele><time>2026-04-30T13:13:15.001Z</time></trkpt><trkpt lat="43.43786539303512" lon="11.348567484026454"><ele>378.40000000000003</ele><time>2026-04-30T13:13:16.001Z</time></trkpt><trkpt lat="43.437822555332644" lon="11.348434319550812"><ele>377.0</ele><time>2026-04-30T13:13:17.001Z</time></trkpt><trkpt lat="43.43772110825325" lon="11.348365302599099"><ele>377.0</ele><time>2026-04-30T13:13:18.001Z</time></trkpt><trkpt lat="43.437603306966096" lon="11.348318396811077"><ele>377.0</ele><time>2026-04-30T13:13:19.001Z</time></trkpt><trkpt lat="43.43748387843598" lon="11.348328760803707"><ele>377.0</ele><time>2026-04-30T13:13:20.001Z</time></trkpt><trkpt lat="43.43737017114397" lon="11.348414635668165"><ele>377.0</ele><time>2026-04-30T13:13:21.001Z</time></trkpt><trkpt lat="43.437263503320175" lon="11.348492790122844"><ele>377.0</ele><time>2026-04-30T13:13:22.001Z</time></trkpt><trkpt lat="43.437229473399235" lon="11.348706297769821"><ele>377.0</ele><time>2026-04-30T13:13:23.001Z</time></trkpt><trkpt lat="43.437210127330935" lon="11.348871759582968"><ele>377.0</ele><time>2026-04-30T13:13:24.001Z</time></trkpt><trkpt lat="43.43718226368731" lon="11.349016942495584"><ele>377.0</ele><time>2026-04-30T13:13:25.001Z</time></trkpt><trkpt lat="43.43714094391654" lon="11.349142543017306"><ele>376.33333333333337</ele><time>2026-04-30T13:13:26.001Z</time></trkpt><trkpt lat="43.43708539425375" lon="11.349229925272743"><ele>375.6666666666667</ele><time>2026-04-30T13:13:27.001Z</time></trkpt><trkpt lat="43.43702889249657" lon="11.349320441234955"><ele>375.0</ele><time>2026-04-30T13:13:28.001Z</time></trkpt><trkpt lat="43.43693129401108" lon="11.349353334133365"><ele>374.3333333333333</ele><time>2026-04-30T13:13:29.001Z</time></trkpt><trkpt lat="43.43684774265483" lon="11.349365087490192"><ele>373.66666666666663</ele><time>2026-04-30T13:13:30.001Z</time></trkpt><trkpt lat="43.43676041039181" lon="11.349371230176532"><ele>373.0</ele><time>2026-04-30T13:13:31.001Z</time></trkpt><trkpt lat="43.43669914769861" lon="11.349292672577597"><ele>373.0</ele><time>2026-04-30T13:13:32.001Z</time></trkpt><trkpt lat="43.436639991559424" lon="11.349238619705005"><ele>373.0</ele><time>2026-04-30T13:13:33.001Z</time></trkpt><trkpt lat="43.436568430147545" lon="11.34916134511489"><ele>373.0</ele><time>2026-04-30T13:13:34.001Z</time></trkpt><trkpt lat="43.43647720950473" lon="11.349070012292474"><ele>373.0</ele><time>2026-04-30T13:13:35.001Z</time></trkpt><trkpt lat="43.43639867968251" lon="11.34901780703257"><ele>373.0</ele><time>2026-04-30T13:13:36.001Z</time></trkpt><trkpt lat="43.43631857772823" lon="11.348950559393678"><ele>372.4</ele><time>2026-04-30T13:13:37.001Z</time></trkpt><trkpt lat="43.43624721679307" lon="11.348882912242537"><ele>371.79999999999995</ele><time>2026-04-30T13:13:38.001Z</time></trkpt><trkpt lat="43.43617168181722" lon="11.348818655961812"><ele>371.2</ele><time>2026-04-30T13:13:39.001Z</time></trkpt><trkpt lat="43.43609766378064" lon="11.348764164455588"><ele>370.6</ele><time>2026-04-30T13:13:40.001Z</time></trkpt><trkpt lat="43.43601089286652" lon="11.348716462759985"><ele>370.0</ele><time>2026-04-30T13:13:41.001Z</time></trkpt><trkpt lat="43.43592358698506" lon="11.348653366996675"><ele>372.16666666666663</ele><time>2026-04-30T13:13:42.001Z</time></trkpt><trkpt lat="43.43583509534485" lon="11.34863469761131"><ele>374.3333333333333</ele><time>2026-04-30T13:13:43.001Z</time></trkpt><trkpt lat="43.43575033388826" lon="11.348648632102503"><ele>376.5</ele><time>2026-04-30T13:13:44.001Z</time></trkpt><trkpt lat="43.435662759121826" lon="11.348661250843874"><ele>378.6666666666667</ele><time>2026-04-30T13:13:45.001Z</time></trkpt><trkpt lat="43.435573504256816" lon="11.348674665413181"><ele>380.83333333333337</ele><time>2026-04-30T13:13:46.001Z</time></trkpt><trkpt lat="43.4355028671803" lon="11.348702272026841"><ele>383.0</ele><time>2026-04-30T13:13:47.001Z</time></trkpt><trkpt lat="43.43543383348704" lon="11.348729607512478"><ele>383.1428571428571</ele><time>2026-04-30T13:13:48.001Z</time></trkpt><trkpt lat="43.43536357716124" lon="11.348754546556844"><ele>383.2857142857143</ele><time>2026-04-30T13:13:49.002Z</time></trkpt><trkpt lat="43.435295575166286" lon="11.348771683278262"><ele>383.42857142857144</ele><time>2026-04-30T13:13:50.002Z</time></trkpt><trkpt lat="43.435228708483756" lon="11.348782732078691"><ele>383.57142857142856</ele><time>2026-04-30T13:13:51.002Z</time></trkpt><trkpt lat="43.435159347532164" lon="11.348780696470167"><ele>383.7142857142857</ele><time>2026-04-30T13:13:52.002Z</time></trkpt><trkpt lat="43.43509379575092" lon="11.348757355872788"><ele>383.85714285714283</ele><time>2026-04-30T13:13:53.002Z</time></trkpt><trkpt lat="43.43502748671236" lon="11.348725765537143"><ele>384.0</ele><time>2026-04-30T13:13:54.002Z</time></trkpt><trkpt lat="43.43494733940992" lon="11.348712670789508"><ele>384.0</ele><time>2026-04-30T13:13:55.002Z</time></trkpt><trkpt lat="43.43487544179643" lon="11.34869707734143"><ele>384.0</ele><time>2026-04-30T13:13:56.002Z</time></trkpt><trkpt lat="43.43479878134371" lon="11.348704260044846"><ele>384.0</ele><time>2026-04-30T13:13:57.002Z</time></trkpt><trkpt lat="43.43472719345677" lon="11.34874352558798"><ele>384.0</ele><time>2026-04-30T13:13:58.001Z</time></trkpt><trkpt lat="43.43466373904931" lon="11.348818506461923"><ele>384.0</ele><time>2026-04-30T13:13:59.001Z</time></trkpt><trkpt lat="43.43461723588305" lon="11.348919995507801"><ele>384.0</ele><time>2026-04-30T13:14:00.001Z</time></trkpt><trkpt lat="43.43457833177848" lon="11.34902043948665"><ele>385.3333333333333</ele><time>2026-04-30T13:14:01.001Z</time></trkpt><trkpt lat="43.43454606005324" lon="11.349113408997086"><ele>386.66666666666663</ele><time>2026-04-30T13:14:02.001Z</time></trkpt><trkpt lat="43.434510180621814" lon="11.349224000951127"><ele>388.0</ele><time>2026-04-30T13:14:03.001Z</time></trkpt><trkpt lat="43.434468762714964" lon="11.349329343273178"><ele>389.3333333333333</ele><time>2026-04-30T13:14:04.001Z</time></trkpt><trkpt lat="43.434441728674784" lon="11.349429474415052"><ele>390.66666666666663</ele><time>2026-04-30T13:14:05.001Z</time></trkpt><trkpt lat="43.434404721973706" lon="11.349524937673593"><ele>392.0</ele><time>2026-04-30T13:14:06.001Z</time></trkpt><trkpt lat="43.434368326553674" lon="11.349633345810979"><ele>390.0</ele><time>2026-04-30T13:14:07.001Z</time></trkpt><trkpt lat="43.43433344043066" lon="11.34973196269875"><ele>388.0</ele><time>2026-04-30T13:14:08.001Z</time></trkpt><trkpt lat="43.43427724551702" lon="11.349839570473891"><ele>386.0</ele><time>2026-04-30T13:14:09Z</time></trkpt><trkpt lat="43.43418469258224" lon="11.349933857506455"><ele>384.0</ele><time>2026-04-30T13:14:10Z</time></trkpt><trkpt lat="43.43409530435504" lon="11.350043666798609"><ele>382.0</ele><time>2026-04-30T13:14:11Z</time></trkpt><trkpt lat="43.434025349791156" lon="11.350160603275832"><ele>382.0</ele><time>2026-04-30T13:14:12Z</time></trkpt><trkpt lat="43.43394382146315" lon="11.350229358546185"><ele>382.0</ele><time>2026-04-30T13:14:13Z</time></trkpt><trkpt lat="43.43388194444792" lon="11.35030338462136"><ele>382.0</ele><time>2026-04-30T13:14:14Z</time></trkpt><trkpt lat="43.43381363672575" lon="11.350385185342688"><ele>382.0</ele><time>2026-04-30T13:14:15Z</time></trkpt><trkpt lat="43.43373552085806" lon="11.350477407117777"><ele>382.0</ele><time>2026-04-30T13:14:16Z</time></trkpt><trkpt lat="43.433656121090266" lon="11.35057114463582"><ele>381.8</ele><time>2026-04-30T13:14:17Z</time></trkpt><trkpt lat="43.433576978991816" lon="11.350662928981027"><ele>381.6</ele><time>2026-04-30T13:14:18Z</time></trkpt><trkpt lat="43.43351037339215" lon="11.350765720644192"><ele>381.40000000000003</ele><time>2026-04-30T13:14:19Z</time></trkpt><trkpt lat="43.43342746298505" lon="11.35084396895934"><ele>381.20000000000005</ele><time>2026-04-30T13:14:20Z</time></trkpt><trkpt lat="43.43333758458401" lon="11.35090882626198"><ele>381.0</ele><time>2026-04-30T13:14:21Z</time></trkpt><trkpt lat="43.43324547017703" lon="11.350988138883352"><ele>381.0</ele><time>2026-04-30T13:14:22Z</time></trkpt><trkpt lat="43.43316590393482" lon="11.351073658266019"><ele>381.0</ele><time>2026-04-30T13:14:23Z</time></trkpt><trkpt lat="43.43307837679136" lon="11.351149047015676"><ele>381.0</ele><time>2026-04-30T13:14:24Z</time></trkpt><trkpt lat="43.432976941812065" lon="11.351235576128444"><ele>381.0</ele><time>2026-04-30T13:14:25Z</time></trkpt><trkpt lat="43.43287879695172" lon="11.351305955091467"><ele>381.0</ele><time>2026-04-30T13:14:26.001Z</time></trkpt><trkpt lat="43.432785166892465" lon="11.351342258694373"><ele>382.8</ele><time>2026-04-30T13:14:27.001Z</time></trkpt><trkpt lat="43.43269010744255" lon="11.351370581837902"><ele>384.6</ele><time>2026-04-30T13:14:28.001Z</time></trkpt><trkpt lat="43.43258908953966" lon="11.351378531664576"><ele>386.4</ele><time>2026-04-30T13:14:29.001Z</time></trkpt><trkpt lat="43.432490806755126" lon="11.351378761654807"><ele>388.2</ele><time>2026-04-30T13:14:30.001Z</time></trkpt><trkpt lat="43.432389982998195" lon="11.351371801005591"><ele>390.0</ele><time>2026-04-30T13:14:31.001Z</time></trkpt><trkpt lat="43.432281844611516" lon="11.351371075088258"><ele>391.2</ele><time>2026-04-30T13:14:32.001Z</time></trkpt><trkpt lat="43.432170053720775" lon="11.351341883920997"><ele>392.4</ele><time>2026-04-30T13:14:33.001Z</time></trkpt><trkpt lat="43.43205513281453" lon="11.351314060443604"><ele>393.6</ele><time>2026-04-30T13:14:34.001Z</time></trkpt><trkpt lat="43.43196770437476" lon="11.351284256653722"><ele>394.8</ele><time>2026-04-30T13:14:35.001Z</time></trkpt><trkpt lat="43.431869121216046" lon="11.351230271493044"><ele>396.0</ele><time>2026-04-30T13:14:36.001Z</time></trkpt><trkpt lat="43.43177344068709" lon="11.351125428742284"><ele>396.0</ele><time>2026-04-30T13:14:37.001Z</time></trkpt><trkpt lat="43.43169383169957" lon="11.351026894731419"><ele>396.0</ele><time>2026-04-30T13:14:38.001Z</time></trkpt><trkpt lat="43.43162993582428" lon="11.350929111412205"><ele>396.0</ele><time>2026-04-30T13:14:39.001Z</time></trkpt><trkpt lat="43.43157878048108" lon="11.35084807695682"><ele>396.0</ele><time>2026-04-30T13:14:40.001Z</time></trkpt><trkpt lat="43.431518554725315" lon="11.350734701550564"><ele>396.0</ele><time>2026-04-30T13:14:42.001Z</time></trkpt><trkpt lat="43.431414996293654" lon="11.35062793874434"><ele>396.0</ele><time>2026-04-30T13:14:44.001Z</time></trkpt><trkpt lat="43.431334670014685" lon="11.350639796350626"><ele>396.0</ele><time>2026-04-30T13:14:45.001Z</time></trkpt><trkpt lat="43.431247268203606" lon="11.350667023915928"><ele>396.0</ele><time>2026-04-30T13:14:46.001Z</time></trkpt><trkpt lat="43.431159522053626" lon="11.350733358192906"><ele>396.0</ele><time>2026-04-30T13:14:47.001Z</time></trkpt><trkpt lat="43.431062476649636" lon="11.35082477488186"><ele>396.0</ele><time>2026-04-30T13:14:48.001Z</time></trkpt><trkpt lat="43.43094033955993" lon="11.350868800745534"><ele>392.5</ele><time>2026-04-30T13:14:49.001Z</time></trkpt><trkpt lat="43.43082935418304" lon="11.350900666083426"><ele>389.0</ele><time>2026-04-30T13:14:50.001Z</time></trkpt><trkpt lat="43.43071573966549" lon="11.350896065527744"><ele>385.5</ele><time>2026-04-30T13:14:51.001Z</time></trkpt><trkpt lat="43.43059576984652" lon="11.350874272367646"><ele>382.0</ele><time>2026-04-30T13:14:52.001Z</time></trkpt><trkpt lat="43.430482904265745" lon="11.35084367897561"><ele>381.40000000000003</ele><time>2026-04-30T13:14:53.001Z</time></trkpt><trkpt lat="43.43036810488331" lon="11.350818789707569"><ele>380.8</ele><time>2026-04-30T13:14:54.001Z</time></trkpt><trkpt lat="43.43025533513776" lon="11.350813886095843"><ele>380.2</ele><time>2026-04-30T13:14:55.001Z</time></trkpt><trkpt lat="43.430143642001056" lon="11.350818035131878"><ele>379.6</ele><time>2026-04-30T13:14:56.001Z</time></trkpt><trkpt lat="43.43004605510967" lon="11.350827871167013"><ele>379.0</ele><time>2026-04-30T13:14:57.001Z</time></trkpt><trkpt lat="43.42995796882583" lon="11.350838365603034"><ele>379.0</ele><time>2026-04-30T13:14:58.001Z</time></trkpt><trkpt lat="43.42988189131528" lon="11.350843846456918"><ele>379.0</ele><time>2026-04-30T13:14:59.001Z</time></trkpt><trkpt lat="43.42978696212029" lon="11.350850901351874"><ele>379.0</ele><time>2026-04-30T13:15:00.001Z</time></trkpt><trkpt lat="43.4296783824779" lon="11.350850121467628"><ele>379.0</ele><time>2026-04-30T13:15:01.001Z</time></trkpt><trkpt lat="43.42957473367001" lon="11.350826643222309"><ele>379.0</ele><time>2026-04-30T13:15:02.001Z</time></trkpt><trkpt lat="43.42948164146874" lon="11.350755204802418"><ele>378.66666666666663</ele><time>2026-04-30T13:15:03.001Z</time></trkpt><trkpt lat="43.42939830965044" lon="11.350721848793121"><ele>378.3333333333333</ele><time>2026-04-30T13:15:04.001Z</time></trkpt><trkpt lat="43.42932811500489" lon="11.350654138541879"><ele>378.0</ele><time>2026-04-30T13:15:05.001Z</time></trkpt><trkpt lat="43.429261105373094" lon="11.350607950923278"><ele>377.6666666666667</ele><time>2026-04-30T13:15:06.001Z</time></trkpt><trkpt lat="43.42917118215931" lon="11.350538475765372"><ele>377.33333333333337</ele><time>2026-04-30T13:15:07.001Z</time></trkpt><trkpt lat="43.42910856987936" lon="11.350493375071599"><ele>377.0</ele><time>2026-04-30T13:15:08.001Z</time></trkpt><trkpt lat="43.42903448005592" lon="11.35044588287262"><ele>377.0</ele><time>2026-04-30T13:15:09.001Z</time></trkpt><trkpt lat="43.42896086140628" lon="11.350407957362936"><ele>377.0</ele><time>2026-04-30T13:15:10.001Z</time></trkpt><trkpt lat="43.428882865950214" lon="11.350360674822422"><ele>377.0</ele><time>2026-04-30T13:15:11.001Z</time></trkpt><trkpt lat="43.42881356091077" lon="11.350313287072174"><ele>377.0</ele><time>2026-04-30T13:15:12.001Z</time></trkpt><trkpt lat="43.42877043242286" lon="11.350222236051074"><ele>377.0</ele><time>2026-04-30T13:15:13.001Z</time></trkpt><trkpt lat="43.42870361072122" lon="11.350168395707247"><ele>377.0</ele><time>2026-04-30T13:15:14.001Z</time></trkpt><trkpt lat="43.428630881445415" lon="11.35011657516883"><ele>376.99999999999994</ele><time>2026-04-30T13:15:15.001Z</time></trkpt><trkpt lat="43.428562348662" lon="11.35009314351869"><ele>377.0</ele><time>2026-04-30T13:15:16.001Z</time></trkpt><trkpt lat="43.42850773973499" lon="11.35004205560155"><ele>377.0</ele><time>2026-04-30T13:15:17.001Z</time></trkpt><trkpt lat="43.428439260900994" lon="11.350009752984228"><ele>377.0</ele><time>2026-04-30T13:15:18.001Z</time></trkpt><trkpt lat="43.4283614151879" lon="11.349982621503958"><ele>377.0</ele><time>2026-04-30T13:15:19.001Z</time></trkpt><trkpt lat="43.428280081229246" lon="11.34997761333889"><ele>376.99999999999994</ele><time>2026-04-30T13:15:20.001Z</time></trkpt><trkpt lat="43.428202103149296" lon="11.349978386548157"><ele>377.0</ele><time>2026-04-30T13:15:21.001Z</time></trkpt><trkpt lat="43.428117835514726" lon="11.349986033367287"><ele>377.0</ele><time>2026-04-30T13:15:22.001Z</time></trkpt><trkpt lat="43.42802449921071" lon="11.350002032898592"><ele>377.0</ele><time>2026-04-30T13:15:23.001Z</time></trkpt><trkpt lat="43.427947181768786" lon="11.35005355576081"><ele>377.0</ele><time>2026-04-30T13:15:24.001Z</time></trkpt><trkpt lat="43.427874749575636" lon="11.350105072840925"><ele>377.0</ele><time>2026-04-30T13:15:25.001Z</time></trkpt><trkpt lat="43.42780353251204" lon="11.350170222738667"><ele>377.0</ele><time>2026-04-30T13:15:26.001Z</time></trkpt><trkpt lat="43.427726052791314" lon="11.35020924204746"><ele>377.0</ele><time>2026-04-30T13:15:27.001Z</time></trkpt><trkpt lat="43.42763884727304" lon="11.35025368282342"><ele>377.1666666666667</ele><time>2026-04-30T13:15:28.001Z</time></trkpt><trkpt lat="43.42755522280495" lon="11.350284197792025"><ele>377.33333333333337</ele><time>2026-04-30T13:15:29.001Z</time></trkpt><trkpt lat="43.42746970937309" lon="11.35032182460369"><ele>377.5</ele><time>2026-04-30T13:15:30.001Z</time></trkpt><trkpt lat="43.42738841458842" lon="11.35034941070349"><ele>377.6666666666667</ele><time>2026-04-30T13:15:31.001Z</time></trkpt><trkpt lat="43.427315575150196" lon="11.350370206168623"><ele>377.8333333333333</ele><time>2026-04-30T13:15:32.001Z</time></trkpt><trkpt lat="43.427218493461154" lon="11.35039741996696"><ele>378.0</ele><time>2026-04-30T13:15:33.001Z</time></trkpt><trkpt lat="43.42711224531206" lon="11.350427017526863"><ele>380.6666666666667</ele><time>2026-04-30T13:15:34.001Z</time></trkpt><trkpt lat="43.42702722788123" lon="11.350459857876386"><ele>383.33333333333337</ele><time>2026-04-30T13:15:35.001Z</time></trkpt><trkpt lat="43.42694567846886" lon="11.350523068376507"><ele>386.0</ele><time>2026-04-30T13:15:36.001Z</time></trkpt><trkpt lat="43.42689962072909" lon="11.350589495732343"><ele>388.6666666666667</ele><time>2026-04-30T13:15:37.001Z</time></trkpt><trkpt lat="43.42685599871199" lon="11.350692823889247"><ele>391.33333333333337</ele><time>2026-04-30T13:15:38.001Z</time></trkpt><trkpt lat="43.426822858918754" lon="11.350813519826298"><ele>394.0</ele><time>2026-04-30T13:15:39.001Z</time></trkpt><trkpt lat="43.42678209127239" lon="11.350920064578519"><ele>394.0</ele><time>2026-04-30T13:15:40.001Z</time></trkpt><trkpt lat="43.42673970513345" lon="11.351036760131635"><ele>394.0</ele><time>2026-04-30T13:15:41.001Z</time></trkpt><trkpt lat="43.42669775271845" lon="11.35114967947608"><ele>394.0</ele><time>2026-04-30T13:15:42.001Z</time></trkpt><trkpt lat="43.42665042648085" lon="11.35126404473014"><ele>394.0</ele><time>2026-04-30T13:15:43.001Z</time></trkpt><trkpt lat="43.426607211972176" lon="11.351379930127628"><ele>394.0</ele><time>2026-04-30T13:15:44.001Z</time></trkpt><trkpt lat="43.42655106435396" lon="11.351487813763775"><ele>393.0</ele><time>2026-04-30T13:15:45.001Z</time></trkpt><trkpt lat="43.42648047702849" lon="11.351576088503757"><ele>392.0</ele><time>2026-04-30T13:15:46.001Z</time></trkpt><trkpt lat="43.42641135148967" lon="11.351673357073762"><ele>391.0</ele><time>2026-04-30T13:15:47.001Z</time></trkpt><trkpt lat="43.426337712991426" lon="11.351757601167717"><ele>390.0</ele><time>2026-04-30T13:15:48.001Z</time></trkpt><trkpt lat="43.426278125043666" lon="11.351806186390657"><ele>389.0</ele><time>2026-04-30T13:15:49.001Z</time></trkpt><trkpt lat="43.42617649416343" lon="11.351910736249136"><ele>391.4</ele><time>2026-04-30T13:15:51.001Z</time></trkpt><trkpt lat="43.42610865109405" lon="11.351968390140675"><ele>393.79999999999995</ele><time>2026-04-30T13:15:52.001Z</time></trkpt><trkpt lat="43.42603999274596" lon="11.352041852032652"><ele>396.20000000000005</ele><time>2026-04-30T13:15:53.001Z</time></trkpt><trkpt lat="43.42596009531885" lon="11.35210586122169"><ele>398.6</ele><time>2026-04-30T13:15:54.001Z</time></trkpt><trkpt lat="43.425908411071156" lon="11.35220014536093"><ele>401.0</ele><time>2026-04-30T13:15:55.001Z</time></trkpt><trkpt lat="43.425865556696714" lon="11.352336375505907"><ele>401.0</ele><time>2026-04-30T13:15:56.001Z</time></trkpt><trkpt lat="43.4258266760035" lon="11.352489776736062"><ele>401.0</ele><time>2026-04-30T13:15:57.001Z</time></trkpt><trkpt lat="43.425794337544666" lon="11.352647980506882"><ele>401.0</ele><time>2026-04-30T13:15:58.001Z</time></trkpt><trkpt lat="43.42576800122589" lon="11.352820761291282"><ele>401.0</ele><time>2026-04-30T13:15:59.001Z</time></trkpt><trkpt lat="43.42574857189619" lon="11.352990043300265"><ele>400.6</ele><time>2026-04-30T13:16:00.001Z</time></trkpt><trkpt lat="43.42573739835194" lon="11.35313896377519"><ele>400.20000000000005</ele><time>2026-04-30T13:16:01.001Z</time></trkpt><trkpt lat="43.42575403171369" lon="11.353289667302924"><ele>399.79999999999995</ele><time>2026-04-30T13:16:02.001Z</time></trkpt><trkpt lat="43.4257490809611" lon="11.353422857903293"><ele>399.4</ele><time>2026-04-30T13:16:03.001Z</time></trkpt><trkpt lat="43.42576210905598" lon="11.353564429950193"><ele>399.0</ele><time>2026-04-30T13:16:04Z</time></trkpt><trkpt lat="43.42576720063422" lon="11.353705842202013"><ele>399.0</ele><time>2026-04-30T13:16:05Z</time></trkpt><trkpt lat="43.42576930012306" lon="11.35386098898859"><ele>399.0</ele><time>2026-04-30T13:16:06Z</time></trkpt><trkpt lat="43.42571412939548" lon="11.354000238490213"><ele>399.0</ele><time>2026-04-30T13:16:07Z</time></trkpt><trkpt lat="43.425669580587645" lon="11.354133935471586"><ele>399.0</ele><time>2026-04-30T13:16:08Z</time></trkpt><trkpt lat="43.425617215598685" lon="11.354246489501165"><ele>399.0</ele><time>2026-04-30T13:16:09Z</time></trkpt><trkpt lat="43.42554456130257" lon="11.354339644687176"><ele>404.2</ele><time>2026-04-30T13:16:10Z</time></trkpt><trkpt lat="43.42545766315539" lon="11.354376935324611"><ele>409.4</ele><time>2026-04-30T13:16:11Z</time></trkpt><trkpt lat="43.42533808548697" lon="11.35438150150891"><ele>414.6</ele><time>2026-04-30T13:16:12Z</time></trkpt><trkpt lat="43.42523052422665" lon="11.354384154101899"><ele>419.8</ele><time>2026-04-30T13:16:13Z</time></trkpt><trkpt lat="43.42515112931281" lon="11.35440598024159"><ele>425.0</ele><time>2026-04-30T13:16:14Z</time></trkpt><trkpt lat="43.42508573433502" lon="11.354442360667399"><ele>424.99999999999994</ele><time>2026-04-30T13:16:15Z</time></trkpt><trkpt lat="43.42503098017028" lon="11.354490147062068"><ele>425.0</ele><time>2026-04-30T13:16:16Z</time></trkpt><trkpt lat="43.424988853266576" lon="11.354573648242802"><ele>425.0</ele><time>2026-04-30T13:16:17Z</time></trkpt><trkpt lat="43.42497762985382" lon="11.354687441598418"><ele>425.0</ele><time>2026-04-30T13:16:18Z</time></trkpt><trkpt lat="43.42493628825458" lon="11.354811520791005"><ele>424.99999999999994</ele><time>2026-04-30T13:16:19Z</time></trkpt><trkpt lat="43.424870598789944" lon="11.354838049739985"><ele>425.0</ele><time>2026-04-30T13:16:20Z</time></trkpt><trkpt lat="43.42478435092205" lon="11.35482064925541"><ele>424.8</ele><time>2026-04-30T13:16:21Z</time></trkpt><trkpt lat="43.42467533974243" lon="11.35481166842728"><ele>424.6</ele><time>2026-04-30T13:16:22Z</time></trkpt><trkpt lat="43.42456534879999" lon="11.354801354601053"><ele>424.4</ele><time>2026-04-30T13:16:23Z</time></trkpt><trkpt lat="43.42447818646959" lon="11.354793181400836"><ele>424.2</ele><time>2026-04-30T13:16:24Z</time></trkpt><trkpt lat="43.4244008279833" lon="11.354783178123949"><ele>424.0</ele><time>2026-04-30T13:16:25Z</time></trkpt><trkpt lat="43.42432457873512" lon="11.354767385019374"><ele>423.1666666666667</ele><time>2026-04-30T13:16:26Z</time></trkpt><trkpt lat="43.42424815239659" lon="11.354741361698228"><ele>422.33333333333337</ele><time>2026-04-30T13:16:27Z</time></trkpt><trkpt lat="43.424176223996554" lon="11.354694761089723"><ele>421.5</ele><time>2026-04-30T13:16:28Z</time></trkpt><trkpt lat="43.42412307307205" lon="11.354612959758592"><ele>420.66666666666663</ele><time>2026-04-30T13:16:29Z</time></trkpt><trkpt lat="43.42406463642456" lon="11.354511654261556"><ele>419.8333333333333</ele><time>2026-04-30T13:16:30Z</time></trkpt><trkpt lat="43.424009869640116" lon="11.354405468129247"><ele>419.0</ele><time>2026-04-30T13:16:31Z</time></trkpt><trkpt lat="43.423958764939705" lon="11.354299709307998"><ele>422.2</ele><time>2026-04-30T13:16:32Z</time></trkpt><trkpt lat="43.423912935566605" lon="11.354212682070534"><ele>425.4</ele><time>2026-04-30T13:16:33Z</time></trkpt><trkpt lat="43.42386466903785" lon="11.354057403180521"><ele>428.6</ele><time>2026-04-30T13:16:35Z</time></trkpt><trkpt lat="43.42386467988408" lon="11.353962237281747"><ele>431.8</ele><time>2026-04-30T13:16:36Z</time></trkpt><trkpt lat="43.42384450991745" lon="11.353840525056667"><ele>435.0</ele><time>2026-04-30T13:16:37Z</time></trkpt><trkpt lat="43.42384335110085" lon="11.353715472825057"><ele>434.6666666666667</ele><time>2026-04-30T13:16:38Z</time></trkpt><trkpt lat="43.42382182664255" lon="11.353593767454097"><ele>434.33333333333337</ele><time>2026-04-30T13:16:39Z</time></trkpt><trkpt lat="43.42381872143492" lon="11.35348870149703"><ele>434.0</ele><time>2026-04-30T13:16:40Z</time></trkpt><trkpt lat="43.42380980557845" lon="11.353377085573113"><ele>433.6666666666667</ele><time>2026-04-30T13:16:41Z</time></trkpt><trkpt lat="43.423792404248346" lon="11.3532739507725"><ele>433.33333333333337</ele><time>2026-04-30T13:16:42Z</time></trkpt><trkpt lat="43.423776984540375" lon="11.353175968076467"><ele>433.0</ele><time>2026-04-30T13:16:43Z</time></trkpt><trkpt lat="43.42376415671423" lon="11.353076101731512"><ele>434.6666666666667</ele><time>2026-04-30T13:16:44Z</time></trkpt><trkpt lat="43.423751006319975" lon="11.352984078056599"><ele>436.33333333333337</ele><time>2026-04-30T13:16:45Z</time></trkpt><trkpt lat="43.42373691975995" lon="11.352880580555246"><ele>438.0</ele><time>2026-04-30T13:16:46Z</time></trkpt><trkpt lat="43.42372219953499" lon="11.352784686008672"><ele>439.66666666666663</ele><time>2026-04-30T13:16:47Z</time></trkpt><trkpt lat="43.42371169417567" lon="11.352679228467881"><ele>441.3333333333333</ele><time>2026-04-30T13:16:48Z</time></trkpt><trkpt lat="43.42370453566504" lon="11.35256744478658"><ele>443.0</ele><time>2026-04-30T13:16:49Z</time></trkpt><trkpt lat="43.423697290832706" lon="11.352458356109649"><ele>443.0</ele><time>2026-04-30T13:16:50Z</time></trkpt><trkpt lat="43.4236894187349" lon="11.352335147489669"><ele>442.99999999999994</ele><time>2026-04-30T13:16:51Z</time></trkpt><trkpt lat="43.42368529475871" lon="11.35220136291212"><ele>442.99999999999994</ele><time>2026-04-30T13:16:52.001Z</time></trkpt><trkpt lat="43.42369840229716" lon="11.352060914075558"><ele>443.0</ele><time>2026-04-30T13:16:53.001Z</time></trkpt><trkpt lat="43.42373962648968" lon="11.351919388953444"><ele>443.0</ele><time>2026-04-30T13:16:54.001Z</time></trkpt><trkpt lat="43.42380178891726" lon="11.351754011588525"><ele>444.49999999999994</ele><time>2026-04-30T13:16:55.001Z</time></trkpt><trkpt lat="43.423852846131844" lon="11.35161428055616"><ele>446.0</ele><time>2026-04-30T13:16:56.001Z</time></trkpt><trkpt lat="43.42389111566903" lon="11.351495755472055"><ele>447.5</ele><time>2026-04-30T13:16:57.001Z</time></trkpt><trkpt lat="43.423922129393105" lon="11.351375277453416"><ele>449.0</ele><time>2026-04-30T13:16:58.001Z</time></trkpt><trkpt lat="43.42394168744421" lon="11.351291674753746"><ele>450.49999999999994</ele><time>2026-04-30T13:16:59.001Z</time></trkpt><trkpt lat="43.42395164687798" lon="11.351193659431416"><ele>452.0</ele><time>2026-04-30T13:17:00.001Z</time></trkpt><trkpt lat="43.423978934056066" lon="11.351060180590968"><ele>452.20000000000005</ele><time>2026-04-30T13:17:01.001Z</time></trkpt><trkpt lat="43.42399327952575" lon="11.350917321214794"><ele>452.40000000000003</ele><time>2026-04-30T13:17:02.001Z</time></trkpt><trkpt lat="43.42399937053309" lon="11.350758653756891"><ele>452.59999999999997</ele><time>2026-04-30T13:17:03.001Z</time></trkpt><trkpt lat="43.423998446243296" lon="11.350618915938451"><ele>452.79999999999995</ele><time>2026-04-30T13:17:04.001Z</time></trkpt><trkpt lat="43.42399826582772" lon="11.350500454598107"><ele>453.0</ele><time>2026-04-30T13:17:05.001Z</time></trkpt><trkpt lat="43.42399674459378" lon="11.350407210812257"><ele>454.8333333333333</ele><time>2026-04-30T13:17:06.001Z</time></trkpt><trkpt lat="43.42397421458585" lon="11.35031862490063"><ele>456.66666666666663</ele><time>2026-04-30T13:17:07.001Z</time></trkpt><trkpt lat="43.42393232805656" lon="11.35023333693242"><ele>458.5</ele><time>2026-04-30T13:17:08.001Z</time></trkpt><trkpt lat="43.423867371616296" lon="11.350165668187746"><ele>460.3333333333333</ele><time>2026-04-30T13:17:09.001Z</time></trkpt><trkpt lat="43.423796026410564" lon="11.350148032064489"><ele>462.16666666666663</ele><time>2026-04-30T13:17:10.001Z</time></trkpt><trkpt lat="43.42371273950523" lon="11.350147649506722"><ele>464.0</ele><time>2026-04-30T13:17:11.001Z</time></trkpt><trkpt lat="43.42363767803093" lon="11.35017760137313"><ele>466.4</ele><time>2026-04-30T13:17:12.001Z</time></trkpt><trkpt lat="43.42354509890644" lon="11.350220315783297"><ele>468.79999999999995</ele><time>2026-04-30T13:17:13.001Z</time></trkpt><trkpt lat="43.42346671312415" lon="11.35026153548349"><ele>471.20000000000005</ele><time>2026-04-30T13:17:14.001Z</time></trkpt><trkpt lat="43.42338220746565" lon="11.350280115929172"><ele>473.6</ele><time>2026-04-30T13:17:15.001Z</time></trkpt><trkpt lat="43.423286389357074" lon="11.350333883466112"><ele>476.0</ele><time>2026-04-30T13:17:16.001Z</time></trkpt><trkpt lat="43.42321116977462" lon="11.350384846045776"><ele>476.0</ele><time>2026-04-30T13:17:17.001Z</time></trkpt><trkpt lat="43.42310017776665" lon="11.350518361258816"><ele>476.0</ele><time>2026-04-30T13:17:19.001Z</time></trkpt><trkpt lat="43.42304669014308" lon="11.350580299029174"><ele>476.0</ele><time>2026-04-30T13:17:20.001Z</time></trkpt><trkpt lat="43.42296168060708" lon="11.3506512913733"><ele>476.0</ele><time>2026-04-30T13:17:22.001Z</time></trkpt><trkpt lat="43.422869363209976" lon="11.350611028689512"><ele>476.0</ele><time>2026-04-30T13:17:24.001Z</time></trkpt><trkpt lat="43.42283508623993" lon="11.350499671517557"><ele>477.3333333333333</ele><time>2026-04-30T13:17:26.001Z</time></trkpt><trkpt lat="43.42280724924884" lon="11.350350525907611"><ele>478.66666666666663</ele><time>2026-04-30T13:17:28.001Z</time></trkpt><trkpt lat="43.42277101490886" lon="11.35027929746149"><ele>480.0</ele><time>2026-04-30T13:17:29.001Z</time></trkpt><trkpt lat="43.42272745049293" lon="11.350200416581846"><ele>481.33333333333337</ele><time>2026-04-30T13:17:30.001Z</time></trkpt><trkpt lat="43.42267478511325" lon="11.35013823009217"><ele>482.6666666666667</ele><time>2026-04-30T13:17:31.001Z</time></trkpt><trkpt lat="43.42260834518248" lon="11.350077950759376"><ele>484.0</ele><time>2026-04-30T13:17:32.001Z</time></trkpt><trkpt lat="43.42251967568999" lon="11.35004853527547"><ele>484.00000000000006</ele><time>2026-04-30T13:17:33.001Z</time></trkpt><trkpt lat="43.422455620610044" lon="11.350003204525649"><ele>484.0</ele><time>2026-04-30T13:17:34.001Z</time></trkpt><trkpt lat="43.42238221767127" lon="11.349965153965293"><ele>484.0</ele><time>2026-04-30T13:17:35.001Z</time></trkpt><trkpt lat="43.42231383322636" lon="11.349903416454623"><ele>484.0</ele><time>2026-04-30T13:17:36.001Z</time></trkpt><trkpt lat="43.42224248993464" lon="11.349850926769621"><ele>484.00000000000006</ele><time>2026-04-30T13:17:37.001Z</time></trkpt><trkpt lat="43.42217003302982" lon="11.349797975141222"><ele>484.0</ele><time>2026-04-30T13:17:38.001Z</time></trkpt><trkpt lat="43.422115346338565" lon="11.34972398697168"><ele>486.79999999999995</ele><time>2026-04-30T13:17:39.001Z</time></trkpt><trkpt lat="43.422055311496" lon="11.349643453484294"><ele>489.59999999999997</ele><time>2026-04-30T13:17:40.001Z</time></trkpt><trkpt lat="43.42198846065803" lon="11.349579980246093"><ele>492.4</ele><time>2026-04-30T13:17:41.001Z</time></trkpt><trkpt lat="43.42192248679628" lon="11.349535782815424"><ele>495.2</ele><time>2026-04-30T13:17:42.001Z</time></trkpt><trkpt lat="43.42178657316863" lon="11.349485079661443"><ele>498.0</ele><time>2026-04-30T13:17:44.001Z</time></trkpt><trkpt lat="43.421664795710996" lon="11.349501561030934"><ele>498.0</ele><time>2026-04-30T13:17:45.001Z</time></trkpt><trkpt lat="43.421557277277564" lon="11.34954485617682"><ele>497.99999999999994</ele><time>2026-04-30T13:17:46.001Z</time></trkpt><trkpt lat="43.42143796585929" lon="11.349520432572206"><ele>497.99999999999994</ele><time>2026-04-30T13:17:47.001Z</time></trkpt><trkpt lat="43.42134025432954" lon="11.349423509816145"><ele>498.0</ele><time>2026-04-30T13:17:49.001Z</time></trkpt><trkpt lat="43.42131808737848" lon="11.349312595751892"><ele>498.0</ele><time>2026-04-30T13:17:50.001Z</time></trkpt><trkpt lat="43.42131868015046" lon="11.349157153237742"><ele>498.0</ele><time>2026-04-30T13:17:51.001Z</time></trkpt><trkpt lat="43.42132755475596" lon="11.348957060109658"><ele>498.0</ele><time>2026-04-30T13:17:52.001Z</time></trkpt><trkpt lat="43.42133453376896" lon="11.34876952778205"><ele>498.0</ele><time>2026-04-30T13:17:53.001Z</time></trkpt><trkpt lat="43.421338380518534" lon="11.348584076811862"><ele>498.0</ele><time>2026-04-30T13:17:54.001Z</time></trkpt><trkpt lat="43.421368410314166" lon="11.348388180399342"><ele>498.59999999999997</ele><time>2026-04-30T13:17:55.001Z</time></trkpt><trkpt lat="43.421396473252116" lon="11.34819622041571"><ele>499.19999999999993</ele><time>2026-04-30T13:17:56.001Z</time></trkpt><trkpt lat="43.42141608322555" lon="11.34803583981815"><ele>499.8</ele><time>2026-04-30T13:17:57.001Z</time></trkpt><trkpt lat="43.421419428361055" lon="11.347895461233595"><ele>500.4</ele><time>2026-04-30T13:17:58.001Z</time></trkpt><trkpt lat="43.421418438791825" lon="11.34778257223035"><ele>501.0</ele><time>2026-04-30T13:17:59.001Z</time></trkpt><trkpt lat="43.42141574775527" lon="11.347688961163767"><ele>501.0</ele><time>2026-04-30T13:18:00.001Z</time></trkpt><trkpt lat="43.42140691231948" lon="11.34758108559324"><ele>501.0</ele><time>2026-04-30T13:18:02.001Z</time></trkpt><trkpt lat="43.42135132641411" lon="11.347463545733174"><ele>501.0</ele><time>2026-04-30T13:18:04.001Z</time></trkpt><trkpt lat="43.421285876313014" lon="11.34739885263568"><ele>501.0</ele><time>2026-04-30T13:18:07.001Z</time></trkpt><trkpt lat="43.4212136963136" lon="11.347320304267093"><ele>501.0</ele><time>2026-04-30T13:19:36.001Z</time></trkpt><trkpt lat="43.42114038360384" lon="11.347288076261627"><ele>501.0</ele><time>2026-04-30T13:19:38.001Z</time></trkpt><trkpt lat="43.421075655551185" lon="11.347268036778654"><ele>501.0</ele><time>2026-04-30T13:19:40.001Z</time></trkpt><trkpt lat="43.42095452682813" lon="11.347246867230819"><ele>501.0</ele><time>2026-04-30T13:19:42.001Z</time></trkpt><trkpt lat="43.420878893028544" lon="11.347239911736214"><ele>501.0</ele><time>2026-04-30T13:19:43.001Z</time></trkpt><trkpt lat="43.4207957830678" lon="11.347238330916609"><ele>501.0</ele><time>2026-04-30T13:19:44.001Z</time></trkpt><trkpt lat="43.42070961892071" lon="11.347239046395986"><ele>501.0</ele><time>2026-04-30T13:19:45.001Z</time></trkpt><trkpt lat="43.420639223541386" lon="11.347238659622752"><ele>501.0</ele><time>2026-04-30T13:19:46.001Z</time></trkpt><trkpt lat="43.42056819550769" lon="11.347237856224304"><ele>501.0</ele><time>2026-04-30T13:19:47.001Z</time></trkpt><trkpt lat="43.420499047798394" lon="11.347232148184652"><ele>501.0</ele><time>2026-04-30T13:19:48.001Z</time></trkpt><trkpt lat="43.42043335406589" lon="11.34720855107982"><ele>501.0</ele><time>2026-04-30T13:19:49.001Z</time></trkpt><trkpt lat="43.42035569806844" lon="11.347133072434364"><ele>501.0</ele><time>2026-04-30T13:19:50.001Z</time></trkpt><trkpt lat="43.42027124257317" lon="11.347076092070942"><ele>501.0</ele><time>2026-04-30T13:19:51.001Z</time></trkpt><trkpt lat="43.420175139741644" lon="11.347012605936388"><ele>501.0</ele><time>2026-04-30T13:19:52.001Z</time></trkpt><trkpt lat="43.42007900659782" lon="11.346966162143499"><ele>501.0</ele><time>2026-04-30T13:19:53.001Z</time></trkpt><trkpt lat="43.41998980277541" lon="11.346942168004551"><ele>501.0</ele><time>2026-04-30T13:19:54.001Z</time></trkpt><trkpt lat="43.41990303210514" lon="11.346937004079194"><ele>501.0</ele><time>2026-04-30T13:19:55.001Z</time></trkpt><trkpt lat="43.41981777345403" lon="11.346940337314178"><ele>501.0</ele><time>2026-04-30T13:19:56.001Z</time></trkpt><trkpt lat="43.41973993878399" lon="11.346952914280594"><ele>501.0</ele><time>2026-04-30T13:19:57.001Z</time></trkpt><trkpt lat="43.419669267256666" lon="11.346955532801264"><ele>501.0</ele><time>2026-04-30T13:19:58.001Z</time></trkpt><trkpt lat="43.41959778127119" lon="11.346956374522083"><ele>501.0</ele><time>2026-04-30T13:19:59.001Z</time></trkpt><trkpt lat="43.41952132802894" lon="11.346947960685187"><ele>501.0</ele><time>2026-04-30T13:20:00.001Z</time></trkpt><trkpt lat="43.41943113459851" lon="11.34691661898036"><ele>501.0</ele><time>2026-04-30T13:20:01.001Z</time></trkpt><trkpt lat="43.419337067041525" lon="11.346853507307861"><ele>501.0</ele><time>2026-04-30T13:20:02.001Z</time></trkpt><trkpt lat="43.41923195942534" lon="11.346772605326588"><ele>501.0</ele><time>2026-04-30T13:20:03.001Z</time></trkpt><trkpt lat="43.41910818534325" lon="11.346666690982312"><ele>501.0</ele><time>2026-04-30T13:20:04.001Z</time></trkpt><trkpt lat="43.41899335760529" lon="11.346557346381925"><ele>501.0</ele><time>2026-04-30T13:20:05.001Z</time></trkpt><trkpt lat="43.418884211595156" lon="11.346485965846613"><ele>501.0</ele><time>2026-04-30T13:20:06.001Z</time></trkpt><trkpt lat="43.41878138466761" lon="11.346424237358738"><ele>501.0</ele><time>2026-04-30T13:20:07.001Z</time></trkpt><trkpt lat="43.41865897394741" lon="11.346399433242851"><ele>500.33333333333337</ele><time>2026-04-30T13:20:08.001Z</time></trkpt><trkpt lat="43.41850523272375" lon="11.346315138331605"><ele>499.6666666666667</ele><time>2026-04-30T13:20:09.001Z</time></trkpt><trkpt lat="43.418349891118126" lon="11.34647288349368"><ele>499.0</ele><time>2026-04-30T13:20:10.001Z</time></trkpt><trkpt lat="43.418211282906505" lon="11.346513796171934"><ele>499.0</ele><time>2026-04-30T13:20:11.001Z</time></trkpt><trkpt lat="43.41808556086341" lon="11.346565904302292"><ele>499.0</ele><time>2026-04-30T13:20:12.001Z</time></trkpt><trkpt lat="43.417963431065346" lon="11.346629222024525"><ele>499.0</ele><time>2026-04-30T13:20:13.001Z</time></trkpt><trkpt lat="43.41783204127854" lon="11.346719986701553"><ele>499.0</ele><time>2026-04-30T13:20:14.001Z</time></trkpt><trkpt lat="43.41768393722691" lon="11.34682783982753"><ele>498.75</ele><time>2026-04-30T13:20:15.001Z</time></trkpt><trkpt lat="43.417563572453815" lon="11.346935007569906"><ele>498.5</ele><time>2026-04-30T13:20:16.001Z</time></trkpt><trkpt lat="43.41745590284782" lon="11.347031770658324"><ele>498.25</ele><time>2026-04-30T13:20:17.001Z</time></trkpt><trkpt lat="43.41735692456483" lon="11.347131346486414"><ele>498.0</ele><time>2026-04-30T13:20:18.001Z</time></trkpt><trkpt lat="43.41726144046724" lon="11.347236429328541"><ele>498.0</ele><time>2026-04-30T13:20:19.001Z</time></trkpt><trkpt lat="43.41717325373425" lon="11.347354142036853"><ele>498.0</ele><time>2026-04-30T13:20:20.001Z</time></trkpt><trkpt lat="43.41710566785645" lon="11.347495729623924"><ele>498.0</ele><time>2026-04-30T13:20:21.001Z</time></trkpt><trkpt lat="43.41708383926805" lon="11.34766662446828"><ele>498.0</ele><time>2026-04-30T13:20:22.001Z</time></trkpt><trkpt lat="43.41709833078906" lon="11.347840360943886"><ele>498.0</ele><time>2026-04-30T13:20:23.001Z</time></trkpt><trkpt lat="43.41712927838347" lon="11.347998149626852"><ele>497.99999999999994</ele><time>2026-04-30T13:20:24.001Z</time></trkpt><trkpt lat="43.41715996998369" lon="11.348137182395286"><ele>497.99999999999994</ele><time>2026-04-30T13:20:25.001Z</time></trkpt><trkpt lat="43.41718500879905" lon="11.348267590541012"><ele>498.0</ele><time>2026-04-30T13:20:26.001Z</time></trkpt><trkpt lat="43.41718512943236" lon="11.348396450340244"><ele>498.0</ele><time>2026-04-30T13:20:27.001Z</time></trkpt><trkpt lat="43.417156737827405" lon="11.348516710512135"><ele>499.4</ele><time>2026-04-30T13:20:28.001Z</time></trkpt><trkpt lat="43.41709276843155" lon="11.34860394703791"><ele>500.79999999999995</ele><time>2026-04-30T13:20:29.001Z</time></trkpt><trkpt lat="43.41700578916818" lon="11.348670262236508"><ele>502.2</ele><time>2026-04-30T13:20:30.001Z</time></trkpt><trkpt lat="43.41690869535309" lon="11.348729843633507"><ele>503.6</ele><time>2026-04-30T13:20:31.001Z</time></trkpt><trkpt lat="43.41681186741797" lon="11.348733494865042"><ele>505.0</ele><time>2026-04-30T13:20:32.001Z</time></trkpt><trkpt lat="43.4167278289938" lon="11.348747707429872"><ele>505.0</ele><time>2026-04-30T13:20:33.001Z</time></trkpt><trkpt lat="43.416602256274224" lon="11.348765524699102"><ele>505.0</ele><time>2026-04-30T13:20:35.001Z</time></trkpt><trkpt lat="43.41653984222843" lon="11.348790928087329"><ele>505.0</ele><time>2026-04-30T13:20:36.001Z</time></trkpt><trkpt lat="43.41644393796339" lon="11.348792921441248"><ele>505.0</ele><time>2026-04-30T13:20:38.001Z</time></trkpt><trkpt lat="43.4163693338138" lon="11.348801682060472"><ele>505.0</ele><time>2026-04-30T13:20:40.001Z</time></trkpt><trkpt lat="43.416275814340025" lon="11.348806543700361"><ele>504.6666666666667</ele><time>2026-04-30T13:20:43.001Z</time></trkpt><trkpt lat="43.4162037880774" lon="11.348817551539929"><ele>504.33333333333337</ele><time>2026-04-30T13:20:54.001Z</time></trkpt><trkpt lat="43.41613471273561" lon="11.348832695391863"><ele>504.0</ele><time>2026-04-30T13:20:55.001Z</time></trkpt><trkpt lat="43.41604940650133" lon="11.348851213376738"><ele>503.66666666666663</ele><time>2026-04-30T13:20:56.001Z</time></trkpt><trkpt lat="43.41597293429431" lon="11.348867455002454"><ele>503.3333333333333</ele><time>2026-04-30T13:20:57.001Z</time></trkpt><trkpt lat="43.415862560663555" lon="11.348898697702655"><ele>503.0</ele><time>2026-04-30T13:20:58.001Z</time></trkpt><trkpt lat="43.41574466575528" lon="11.3489247906698"><ele>502.75</ele><time>2026-04-30T13:20:59.001Z</time></trkpt><trkpt lat="43.41560789006276" lon="11.348906541267779"><ele>502.5</ele><time>2026-04-30T13:21:00.001Z</time></trkpt><trkpt lat="43.415480736183916" lon="11.348859084355434"><ele>502.25</ele><time>2026-04-30T13:21:01.001Z</time></trkpt><trkpt lat="43.41536585365972" lon="11.348817676122138"><ele>502.0</ele><time>2026-04-30T13:21:02.001Z</time></trkpt><trkpt lat="43.415248724354306" lon="11.348786631214553"><ele>502.0</ele><time>2026-04-30T13:21:03.001Z</time></trkpt><trkpt lat="43.41513477801923" lon="11.348794389240622"><ele>502.0</ele><time>2026-04-30T13:21:04.001Z</time></trkpt><trkpt lat="43.41502257822168" lon="11.34886029705001"><ele>502.0</ele><time>2026-04-30T13:21:05.001Z</time></trkpt><trkpt lat="43.4149121788043" lon="11.348953891075354"><ele>502.0</ele><time>2026-04-30T13:21:06.001Z</time></trkpt><trkpt lat="43.41481238996075" lon="11.34904651627279"><ele>501.25</ele><time>2026-04-30T13:21:07.001Z</time></trkpt><trkpt lat="43.414727291806905" lon="11.349156716980701"><ele>500.5</ele><time>2026-04-30T13:21:08.001Z</time></trkpt><trkpt lat="43.41466288441749" lon="11.349288965648048"><ele>499.75</ele><time>2026-04-30T13:21:09.001Z</time></trkpt><trkpt lat="43.414623755378685" lon="11.34944715460296"><ele>499.0</ele><time>2026-04-30T13:21:10.001Z</time></trkpt><trkpt lat="43.41461474479552" lon="11.349622210883004"><ele>498.0</ele><time>2026-04-30T13:21:11.001Z</time></trkpt><trkpt lat="43.414621225505805" lon="11.349790816577713"><ele>497.0</ele><time>2026-04-30T13:21:12.001Z</time></trkpt><trkpt lat="43.41460234419594" lon="11.349946042909785"><ele>496.0</ele><time>2026-04-30T13:21:13.001Z</time></trkpt><trkpt lat="43.41459543635357" lon="11.350087023407347"><ele>495.0</ele><time>2026-04-30T13:21:14.001Z</time></trkpt><trkpt lat="43.41458267712353" lon="11.350212237727874"><ele>494.0</ele><time>2026-04-30T13:21:15.001Z</time></trkpt><trkpt lat="43.41456438901184" lon="11.35034350757139"><ele>494.0</ele><time>2026-04-30T13:21:16.001Z</time></trkpt><trkpt lat="43.41449459529003" lon="11.350439829973004"><ele>494.0</ele><time>2026-04-30T13:21:17.001Z</time></trkpt><trkpt lat="43.41439605450049" lon="11.350457106566694"><ele>494.0</ele><time>2026-04-30T13:21:18.001Z</time></trkpt><trkpt lat="43.41430361542309" lon="11.35042814873013"><ele>494.0</ele><time>2026-04-30T13:21:19.001Z</time></trkpt><trkpt lat="43.41420108533308" lon="11.350368148643135"><ele>494.0</ele><time>2026-04-30T13:21:20.001Z</time></trkpt><trkpt lat="43.41408416937098" lon="11.350315745258104"><ele>494.0</ele><time>2026-04-30T13:21:21.001Z</time></trkpt><trkpt lat="43.413973061739604" lon="11.350296277192095"><ele>494.0</ele><time>2026-04-30T13:21:22.001Z</time></trkpt><trkpt lat="43.41387105573626" lon="11.350346935668972"><ele>494.0</ele><time>2026-04-30T13:21:23.001Z</time></trkpt><trkpt lat="43.41376788341636" lon="11.35044253902681"><ele>494.0</ele><time>2026-04-30T13:21:24.001Z</time></trkpt><trkpt lat="43.413652519008714" lon="11.350592825371912"><ele>490.5</ele><time>2026-04-30T13:21:25.001Z</time></trkpt><trkpt lat="43.41355159579575" lon="11.350734845104032"><ele>487.0</ele><time>2026-04-30T13:21:26.001Z</time></trkpt><trkpt lat="43.413434755299825" lon="11.350837624560311"><ele>483.5</ele><time>2026-04-30T13:21:27.001Z</time></trkpt><trkpt lat="43.413357950844066" lon="11.35097709957715"><ele>480.0</ele><time>2026-04-30T13:21:28.001Z</time></trkpt><trkpt lat="43.41326957751813" lon="11.351093354339023"><ele>480.0</ele><time>2026-04-30T13:21:29.001Z</time></trkpt><trkpt lat="43.41317731229769" lon="11.351215499943779"><ele>480.0</ele><time>2026-04-30T13:21:30.001Z</time></trkpt><trkpt lat="43.41308524864643" lon="11.351339248376355"><ele>480.0</ele><time>2026-04-30T13:21:31.001Z</time></trkpt><trkpt lat="43.41298995154091" lon="11.351461153968152"><ele>480.0</ele><time>2026-04-30T13:21:32.001Z</time></trkpt><trkpt lat="43.41287718264119" lon="11.351585311468781"><ele>477.33333333333337</ele><time>2026-04-30T13:21:33.001Z</time></trkpt><trkpt lat="43.41273416888701" lon="11.351691803405899"><ele>474.6666666666667</ele><time>2026-04-30T13:21:34.001Z</time></trkpt><trkpt lat="43.41256172302688" lon="11.351750718618359"><ele>472.0</ele><time>2026-04-30T13:21:35.001Z</time></trkpt><trkpt lat="43.41238183350936" lon="11.351792697993496"><ele>472.0</ele><time>2026-04-30T13:21:36.001Z</time></trkpt><trkpt lat="43.41222272357072" lon="11.35183134398967"><ele>472.0</ele><time>2026-04-30T13:21:37.001Z</time></trkpt><trkpt lat="43.41206762958184" lon="11.351852620120294"><ele>472.0</ele><time>2026-04-30T13:21:38.001Z</time></trkpt><trkpt lat="43.41192345439544" lon="11.351887940345243"><ele>470.75</ele><time>2026-04-30T13:21:39.001Z</time></trkpt><trkpt lat="43.4117894857963" lon="11.351941383554259"><ele>469.5</ele><time>2026-04-30T13:21:40.001Z</time></trkpt><trkpt lat="43.41165508596486" lon="11.351972393873414"><ele>468.25</ele><time>2026-04-30T13:21:41.001Z</time></trkpt><trkpt lat="43.41152096256045" lon="11.352001643821689"><ele>467.0</ele><time>2026-04-30T13:21:42.001Z</time></trkpt><trkpt lat="43.411386114555" lon="11.352035537095704"><ele>468.0</ele><time>2026-04-30T13:21:43.001Z</time></trkpt><trkpt lat="43.411250384042255" lon="11.352075619781873"><ele>469.0</ele><time>2026-04-30T13:21:44.001Z</time></trkpt><trkpt lat="43.411105478170995" lon="11.352091482279947"><ele>470.0</ele><time>2026-04-30T13:21:45.001Z</time></trkpt><trkpt lat="43.410962872792076" lon="11.35212771471704"><ele>471.0</ele><time>2026-04-30T13:21:46.001Z</time></trkpt><trkpt lat="43.41081881968088" lon="11.352167291966019"><ele>470.5</ele><time>2026-04-30T13:21:47.001Z</time></trkpt><trkpt lat="43.410683212300306" lon="11.35222637945055"><ele>470.0</ele><time>2026-04-30T13:21:48.001Z</time></trkpt><trkpt lat="43.41056375025891" lon="11.352254534999565"><ele>469.5</ele><time>2026-04-30T13:21:49.001Z</time></trkpt><trkpt lat="43.41045005199491" lon="11.352282905907177"><ele>469.0</ele><time>2026-04-30T13:21:50.001Z</time></trkpt><trkpt lat="43.41035878257259" lon="11.35228447623955"><ele>469.00000000000006</ele><time>2026-04-30T13:21:51.001Z</time></trkpt><trkpt lat="43.410278798174886" lon="11.352284649071105"><ele>469.0</ele><time>2026-04-30T13:21:53.001Z</time></trkpt><trkpt lat="43.41020775654845" lon="11.352273587117056"><ele>469.0</ele><time>2026-04-30T13:21:56.001Z</time></trkpt><trkpt lat="43.41016675445551" lon="11.352374419195563"><ele>469.0</ele><time>2026-04-30T13:21:57.001Z</time></trkpt><trkpt lat="43.41007205729868" lon="11.352472589504933"><ele>469.00000000000006</ele><time>2026-04-30T13:21:59.001Z</time></trkpt><trkpt lat="43.41002300189806" lon="11.35253360378898"><ele>469.0</ele><time>2026-04-30T13:22:00.001Z</time></trkpt><trkpt lat="43.409972228882815" lon="11.352598371999383"><ele>469.00000000000006</ele><time>2026-04-30T13:22:01.001Z</time></trkpt><trkpt lat="43.409933028235834" lon="11.352675289396664"><ele>469.0</ele><time>2026-04-30T13:22:02.001Z</time></trkpt><trkpt lat="43.409886364624775" lon="11.352750443378845"><ele>469.0</ele><time>2026-04-30T13:22:03.001Z</time></trkpt><trkpt lat="43.409846693609964" lon="11.352830261665536"><ele>469.0</ele><time>2026-04-30T13:22:04.001Z</time></trkpt><trkpt lat="43.40981870583767" lon="11.352929166897965"><ele>469.00000000000006</ele><time>2026-04-30T13:22:05.001Z</time></trkpt><trkpt lat="43.40979547075526" lon="11.353056664164724"><ele>469.0</ele><time>2026-04-30T13:22:06.001Z</time></trkpt><trkpt lat="43.40977566542856" lon="11.353177037368521"><ele>468.79999999999995</ele><time>2026-04-30T13:22:07.001Z</time></trkpt><trkpt lat="43.40974176091551" lon="11.353273442527918"><ele>468.59999999999997</ele><time>2026-04-30T13:22:08.001Z</time></trkpt><trkpt lat="43.40970049075177" lon="11.353343905699877"><ele>468.4</ele><time>2026-04-30T13:22:09.001Z</time></trkpt><trkpt lat="43.40961375178817" lon="11.35332937349241"><ele>468.2</ele><time>2026-04-30T13:22:10.001Z</time></trkpt><trkpt lat="43.409550504626324" lon="11.353355193992456"><ele>468.0</ele><time>2026-04-30T13:22:11.001Z</time></trkpt><trkpt lat="43.409423251429814" lon="11.353203295485544"><ele>468.0</ele><time>2026-04-30T13:22:13.001Z</time></trkpt><trkpt lat="43.40931557943306" lon="11.35319360268256"><ele>467.99999999999994</ele><time>2026-04-30T13:22:14.001Z</time></trkpt><trkpt lat="43.40920545414409" lon="11.35317445084869"><ele>467.99999999999994</ele><time>2026-04-30T13:22:15.001Z</time></trkpt><trkpt lat="43.4091060738242" lon="11.353180872031647"><ele>468.0</ele><time>2026-04-30T13:22:16.001Z</time></trkpt><trkpt lat="43.409017089581184" lon="11.353184558871822"><ele>468.0</ele><time>2026-04-30T13:22:17.001Z</time></trkpt><trkpt lat="43.40892767745874" lon="11.353228710254486"><ele>468.0</ele><time>2026-04-30T13:22:18.001Z</time></trkpt><trkpt lat="43.40886747727004" lon="11.353304159711168"><ele>468.0</ele><time>2026-04-30T13:22:19.001Z</time></trkpt><trkpt lat="43.40879942653473" lon="11.35336314681931"><ele>468.0</ele><time>2026-04-30T13:22:20.001Z</time></trkpt><trkpt lat="43.40877856312091" lon="11.353487322346007"><ele>468.0</ele><time>2026-04-30T13:22:21.001Z</time></trkpt><trkpt lat="43.40876330555808" lon="11.353611961957267"><ele>468.0</ele><time>2026-04-30T13:22:22Z</time></trkpt><trkpt lat="43.408742859408676" lon="11.35373199181304"><ele>468.0</ele><time>2026-04-30T13:22:23Z</time></trkpt><trkpt lat="43.40873309542125" lon="11.353861930098876"><ele>468.6666666666667</ele><time>2026-04-30T13:22:24Z</time></trkpt><trkpt lat="43.40870813628122" lon="11.353973035738633"><ele>469.33333333333337</ele><time>2026-04-30T13:22:25Z</time></trkpt><trkpt lat="43.408666211472806" lon="11.354061749897456"><ele>470.0</ele><time>2026-04-30T13:22:26Z</time></trkpt><trkpt lat="43.40860680652491" lon="11.354105182817964"><ele>470.6666666666667</ele><time>2026-04-30T13:22:27Z</time></trkpt><trkpt lat="43.40854125936894" lon="11.354151291032364"><ele>471.33333333333337</ele><time>2026-04-30T13:22:28Z</time></trkpt><trkpt lat="43.40846027819113" lon="11.35415216888354"><ele>472.0</ele><time>2026-04-30T13:22:29Z</time></trkpt><trkpt lat="43.408375325679685" lon="11.35407593355104"><ele>472.00000000000006</ele><time>2026-04-30T13:22:30Z</time></trkpt><trkpt lat="43.40830908385451" lon="11.353995374454742"><ele>472.0</ele><time>2026-04-30T13:22:31Z</time></trkpt><trkpt lat="43.40824058759038" lon="11.353895961473116"><ele>472.0</ele><time>2026-04-30T13:22:32Z</time></trkpt><trkpt lat="43.40818251997651" lon="11.353820916306764"><ele>472.0</ele><time>2026-04-30T13:22:33Z</time></trkpt><trkpt lat="43.408121328906795" lon="11.35376661279815"><ele>472.00000000000006</ele><time>2026-04-30T13:22:34Z</time></trkpt><trkpt lat="43.40804251974517" lon="11.353721124794422"><ele>472.0</ele><time>2026-04-30T13:22:35Z</time></trkpt><trkpt lat="43.40796734534036" lon="11.353710598833498"><ele>470.83333333333337</ele><time>2026-04-30T13:22:36Z</time></trkpt><trkpt lat="43.407891670127064" lon="11.35372932448521"><ele>469.6666666666667</ele><time>2026-04-30T13:22:37Z</time></trkpt><trkpt lat="43.4078113300568" lon="11.353771195278052"><ele>468.5</ele><time>2026-04-30T13:22:38Z</time></trkpt><trkpt lat="43.40773918308821" lon="11.353841133674251"><ele>467.33333333333337</ele><time>2026-04-30T13:22:39Z</time></trkpt><trkpt lat="43.40768392947108" lon="11.353929394348935"><ele>466.1666666666667</ele><time>2026-04-30T13:22:40Z</time></trkpt><trkpt lat="43.40764572493004" lon="11.354035702379974"><ele>465.0</ele><time>2026-04-30T13:22:41Z</time></trkpt><trkpt lat="43.40762376573996" lon="11.354192214514178"><ele>465.0</ele><time>2026-04-30T13:22:42Z</time></trkpt><trkpt lat="43.407605865012826" lon="11.354312862730268"><ele>465.0</ele><time>2026-04-30T13:22:43Z</time></trkpt><trkpt lat="43.407572065473495" lon="11.354409820015574"><ele>465.0</ele><time>2026-04-30T13:22:44Z</time></trkpt><trkpt lat="43.40751753435332" lon="11.354457862603166"><ele>465.0</ele><time>2026-04-30T13:22:45Z</time></trkpt><trkpt lat="43.40743229832539" lon="11.354438768473134"><ele>465.0</ele><time>2026-04-30T13:22:46Z</time></trkpt><trkpt lat="43.407374733097136" lon="11.354380706161798"><ele>465.0</ele><time>2026-04-30T13:22:47Z</time></trkpt><trkpt lat="43.407306648158944" lon="11.354367810634773"><ele>465.0</ele><time>2026-04-30T13:22:48Z</time></trkpt><trkpt lat="43.40723660190968" lon="11.354323548555676"><ele>465.0</ele><time>2026-04-30T13:22:49Z</time></trkpt><trkpt lat="43.40716959347822" lon="11.354329844937755"><ele>465.0</ele><time>2026-04-30T13:22:50Z</time></trkpt><trkpt lat="43.407080691922474" lon="11.354349804576529"><ele>465.0</ele><time>2026-04-30T13:22:51Z</time></trkpt><trkpt lat="43.40700473254803" lon="11.354396005210127"><ele>465.0</ele><time>2026-04-30T13:22:52Z</time></trkpt><trkpt lat="43.40691045793292" lon="11.354461118026121"><ele>465.0</ele><time>2026-04-30T13:22:53Z</time></trkpt><trkpt lat="43.406815021674525" lon="11.354511031331178"><ele>464.4</ele><time>2026-04-30T13:22:54Z</time></trkpt><trkpt lat="43.406740398901974" lon="11.354595267868481"><ele>463.8</ele><time>2026-04-30T13:22:55Z</time></trkpt><trkpt lat="43.40667670967808" lon="11.354659214768061"><ele>463.20000000000005</ele><time>2026-04-30T13:22:56Z</time></trkpt><trkpt lat="43.40659161071828" lon="11.354789600417178"><ele>462.6</ele><time>2026-04-30T13:22:58Z</time></trkpt><trkpt lat="43.40654555356476" lon="11.354871397147031"><ele>462.0</ele><time>2026-04-30T13:22:59Z</time></trkpt><trkpt lat="43.40652686529707" lon="11.354973116680585"><ele>462.0</ele><time>2026-04-30T13:23:00Z</time></trkpt><trkpt lat="43.40655525968846" lon="11.355072058789968"><ele>462.0</ele><time>2026-04-30T13:23:01Z</time></trkpt><trkpt lat="43.406548221741104" lon="11.35516027325567"><ele>462.0</ele><time>2026-04-30T13:23:18Z</time></trkpt><trkpt lat="43.40657007638712" lon="11.355314852071386"><ele>462.0</ele><time>2026-04-30T13:23:20Z</time></trkpt><trkpt lat="43.406585922903574" lon="11.355410000228067"><ele>462.0</ele><time>2026-04-30T13:23:21Z</time></trkpt><trkpt lat="43.406612255364614" lon="11.355516356961775"><ele>462.0</ele><time>2026-04-30T13:23:22Z</time></trkpt><trkpt lat="43.406637485950085" lon="11.355605649038415"><ele>462.6666666666667</ele><time>2026-04-30T13:23:23Z</time></trkpt><trkpt lat="43.4066630058568" lon="11.355692932069209"><ele>463.33333333333337</ele><time>2026-04-30T13:23:24Z</time></trkpt><trkpt lat="43.406677483660054" lon="11.355777622142499"><ele>464.0</ele><time>2026-04-30T13:23:25Z</time></trkpt><trkpt lat="43.40665301222966" lon="11.35593857335268"><ele>464.6666666666667</ele><time>2026-04-30T13:23:27Z</time></trkpt><trkpt lat="43.406606213389836" lon="11.356042601774202"><ele>465.33333333333337</ele><time>2026-04-30T13:23:29Z</time></trkpt><trkpt lat="43.40653076160924" lon="11.356030371209936"><ele>466.0</ele><time>2026-04-30T13:23:30Z</time></trkpt><trkpt lat="43.40646588569142" lon="11.356060427713679"><ele>466.0</ele><time>2026-04-30T13:23:31Z</time></trkpt><trkpt lat="43.40639832381701" lon="11.356036454229251"><ele>466.0</ele><time>2026-04-30T13:23:32Z</time></trkpt><trkpt lat="43.40632985353138" lon="11.355913524744505"><ele>466.0</ele><time>2026-04-30T13:23:33Z</time></trkpt><trkpt lat="43.406243778727706" lon="11.3558128933836"><ele>466.0</ele><time>2026-04-30T13:23:34Z</time></trkpt><trkpt lat="43.40615549885724" lon="11.35570744519589"><ele>466.0</ele><time>2026-04-30T13:23:35Z</time></trkpt><trkpt lat="43.4060474270442" lon="11.355619113905133"><ele>463.4</ele><time>2026-04-30T13:23:36Z</time></trkpt><trkpt lat="43.405949539266075" lon="11.355532581924983"><ele>460.8</ele><time>2026-04-30T13:23:37Z</time></trkpt><trkpt lat="43.40585731428212" lon="11.355460961930445"><ele>458.19999999999993</ele><time>2026-04-30T13:23:38Z</time></trkpt><trkpt lat="43.40577185770161" lon="11.355414844659904"><ele>455.59999999999997</ele><time>2026-04-30T13:23:39Z</time></trkpt><trkpt lat="43.40569276787146" lon="11.35539318131521"><ele>453.0</ele><time>2026-04-30T13:23:40Z</time></trkpt><trkpt lat="43.40562047440584" lon="11.355382568271388"><ele>453.0</ele><time>2026-04-30T13:23:41Z</time></trkpt><trkpt lat="43.40554986636532" lon="11.355408622933304"><ele>453.0</ele><time>2026-04-30T13:23:42Z</time></trkpt><trkpt lat="43.40547761885965" lon="11.355420718179966"><ele>453.0</ele><time>2026-04-30T13:23:43.001Z</time></trkpt><trkpt lat="43.40541963144502" lon="11.355503548423503"><ele>453.0</ele><time>2026-04-30T13:23:44.001Z</time></trkpt><trkpt lat="43.405406499283345" lon="11.355641150614082"><ele>453.0</ele><time>2026-04-30T13:23:45.001Z</time></trkpt><trkpt lat="43.405368630366176" lon="11.355735978049921"><ele>453.0</ele><time>2026-04-30T13:23:46.001Z</time></trkpt><trkpt lat="43.40534473488288" lon="11.355863579344188"><ele>453.5</ele><time>2026-04-30T13:23:47.001Z</time></trkpt><trkpt lat="43.40532548875843" lon="11.355954475896741"><ele>454.0</ele><time>2026-04-30T13:23:48.001Z</time></trkpt><trkpt lat="43.40526016469944" lon="11.356078547668847"><ele>454.5</ele><time>2026-04-30T13:23:50.001Z</time></trkpt><trkpt lat="43.405190060174746" lon="11.35608450731209"><ele>455.0</ele><time>2026-04-30T13:23:51.001Z</time></trkpt><trkpt lat="43.405118106129976" lon="11.356079723506552"><ele>455.5</ele><time>2026-04-30T13:23:52.001Z</time></trkpt><trkpt lat="43.405023212133166" lon="11.356010650862029"><ele>456.0</ele><time>2026-04-30T13:23:53.001Z</time></trkpt><trkpt lat="43.404950370412195" lon="11.355932034145647"><ele>456.0</ele><time>2026-04-30T13:23:54.001Z</time></trkpt><trkpt lat="43.40486679217791" lon="11.355859305494914"><ele>456.0</ele><time>2026-04-30T13:23:55.001Z</time></trkpt><trkpt lat="43.40479242741447" lon="11.355792186344889"><ele>456.0</ele><time>2026-04-30T13:23:56.001Z</time></trkpt><trkpt lat="43.404728119518886" lon="11.355731351199784"><ele>456.0</ele><time>2026-04-30T13:23:57.001Z</time></trkpt><trkpt lat="43.40462699596177" lon="11.355673901061545"><ele>456.0</ele><time>2026-04-30T13:23:58.001Z</time></trkpt><trkpt lat="43.404547146448074" lon="11.355638563436456"><ele>455.3333333333333</ele><time>2026-04-30T13:23:59.001Z</time></trkpt><trkpt lat="43.404465686294856" lon="11.355597815475447"><ele>454.66666666666663</ele><time>2026-04-30T13:24:00.001Z</time></trkpt><trkpt lat="43.404381137778806" lon="11.355572869664813"><ele>454.0</ele><time>2026-04-30T13:24:01.001Z</time></trkpt><trkpt lat="43.40428471617708" lon="11.355572377645418"><ele>453.3333333333333</ele><time>2026-04-30T13:24:02.001Z</time></trkpt><trkpt lat="43.40418915443705" lon="11.355562568749287"><ele>452.66666666666663</ele><time>2026-04-30T13:24:03.001Z</time></trkpt><trkpt lat="43.40410695628454" lon="11.35556989202566"><ele>452.0</ele><time>2026-04-30T13:24:04.001Z</time></trkpt><trkpt lat="43.404018000744095" lon="11.355611039963742"><ele>451.99999999999994</ele><time>2026-04-30T13:24:05.001Z</time></trkpt><trkpt lat="43.40393528957015" lon="11.355664707876441"><ele>452.0</ele><time>2026-04-30T13:24:06.001Z</time></trkpt><trkpt lat="43.40385778569417" lon="11.355731032186322"><ele>452.0</ele><time>2026-04-30T13:24:07.001Z</time></trkpt><trkpt lat="43.403776808038565" lon="11.355796781246942"><ele>452.0</ele><time>2026-04-30T13:24:08.001Z</time></trkpt><trkpt lat="43.40370745947854" lon="11.355851189169135"><ele>451.99999999999994</ele><time>2026-04-30T13:24:09.001Z</time></trkpt><trkpt lat="43.40364298619724" lon="11.35591554771682"><ele>452.0</ele><time>2026-04-30T13:24:10.001Z</time></trkpt><trkpt lat="43.40359905221431" lon="11.355990976042603"><ele>451.16666666666663</ele><time>2026-04-30T13:24:11.001Z</time></trkpt><trkpt lat="43.40357039107068" lon="11.356084368243957"><ele>450.3333333333333</ele><time>2026-04-30T13:24:12.001Z</time></trkpt><trkpt lat="43.403570731198435" lon="11.356202189549752"><ele>449.5</ele><time>2026-04-30T13:24:13.001Z</time></trkpt><trkpt lat="43.403601982228594" lon="11.356316027080755"><ele>448.66666666666663</ele><time>2026-04-30T13:24:14.001Z</time></trkpt><trkpt lat="43.4036585511488" lon="11.356419406638876"><ele>447.8333333333333</ele><time>2026-04-30T13:24:15.001Z</time></trkpt><trkpt lat="43.40371823876273" lon="11.35650447846301"><ele>447.0</ele><time>2026-04-30T13:24:16.001Z</time></trkpt><trkpt lat="43.40379105417024" lon="11.356561305117978"><ele>447.0</ele><time>2026-04-30T13:24:17.001Z</time></trkpt><trkpt lat="43.40382249549006" lon="11.356652784932377"><ele>447.0</ele><time>2026-04-30T13:24:18.001Z</time></trkpt><trkpt lat="43.40384409184547" lon="11.356762646133312"><ele>447.0</ele><time>2026-04-30T13:24:19.001Z</time></trkpt><trkpt lat="43.403855850081534" lon="11.35685534542608"><ele>447.0</ele><time>2026-04-30T13:24:20.001Z</time></trkpt><trkpt lat="43.40381346656509" lon="11.35696366582781"><ele>447.0</ele><time>2026-04-30T13:24:21.001Z</time></trkpt><trkpt lat="43.403736422914754" lon="11.357025032917738"><ele>447.0</ele><time>2026-04-30T13:24:22.001Z</time></trkpt><trkpt lat="43.40366041875145" lon="11.357068049697277"><ele>447.0</ele><time>2026-04-30T13:24:23.001Z</time></trkpt><trkpt lat="43.403578917023665" lon="11.357086886585174"><ele>447.00000000000006</ele><time>2026-04-30T13:24:24.001Z</time></trkpt><trkpt lat="43.40345690257001" lon="11.35711753077286"><ele>447.00000000000006</ele><time>2026-04-30T13:24:25.001Z</time></trkpt><trkpt lat="43.403360683470964" lon="11.357105972138923"><ele>447.0</ele><time>2026-04-30T13:24:26.001Z</time></trkpt><trkpt lat="43.40327575434894" lon="11.357102050261108"><ele>447.0</ele><time>2026-04-30T13:24:27.001Z</time></trkpt><trkpt lat="43.40318948960933" lon="11.357088258148371"><ele>447.0</ele><time>2026-04-30T13:24:28Z</time></trkpt><trkpt lat="43.40310736414847" lon="11.357088271651001"><ele>447.0</ele><time>2026-04-30T13:24:29Z</time></trkpt><trkpt lat="43.40303338625412" lon="11.357099865569445"><ele>447.0</ele><time>2026-04-30T13:24:30Z</time></trkpt><trkpt lat="43.40294797491673" lon="11.357151597479056"><ele>447.0</ele><time>2026-04-30T13:24:31Z</time></trkpt><trkpt lat="43.40287083589649" lon="11.357211211322397"><ele>447.0</ele><time>2026-04-30T13:24:32Z</time></trkpt><trkpt lat="43.40280801617814" lon="11.357297021767389"><ele>447.0</ele><time>2026-04-30T13:24:33Z</time></trkpt><trkpt lat="43.40275973202608" lon="11.357394944386261"><ele>446.20000000000005</ele><time>2026-04-30T13:24:34Z</time></trkpt><trkpt lat="43.40272696348287" lon="11.357498420029955"><ele>445.40000000000003</ele><time>2026-04-30T13:24:35Z</time></trkpt><trkpt lat="43.4027132118799" lon="11.357610922744465"><ele>444.59999999999997</ele><time>2026-04-30T13:24:36Z</time></trkpt><trkpt lat="43.402720339879295" lon="11.35772331613022"><ele>443.79999999999995</ele><time>2026-04-30T13:24:37Z</time></trkpt><trkpt lat="43.402744263276084" lon="11.357864856177416"><ele>443.0</ele><time>2026-04-30T13:24:38Z</time></trkpt><trkpt lat="43.402782502650254" lon="11.358017900975712"><ele>442.79999999999995</ele><time>2026-04-30T13:24:39Z</time></trkpt><trkpt lat="43.402809405752265" lon="11.358171972121559"><ele>442.59999999999997</ele><time>2026-04-30T13:24:40Z</time></trkpt><trkpt lat="43.40283741664362" lon="11.358297777734787"><ele>442.40000000000003</ele><time>2026-04-30T13:24:41Z</time></trkpt><trkpt lat="43.40284125125437" lon="11.358431181520702"><ele>442.20000000000005</ele><time>2026-04-30T13:24:42Z</time></trkpt><trkpt lat="43.402875427660476" lon="11.358553986809126"><ele>442.0</ele><time>2026-04-30T13:24:43Z</time></trkpt><trkpt lat="43.40289949692147" lon="11.358684764424597"><ele>442.0</ele><time>2026-04-30T13:24:44Z</time></trkpt><trkpt lat="43.40294451206983" lon="11.358789749517761"><ele>442.00000000000006</ele><time>2026-04-30T13:24:45Z</time></trkpt><trkpt lat="43.40300925773103" lon="11.358882716584493"><ele>442.00000000000006</ele><time>2026-04-30T13:24:46Z</time></trkpt><trkpt lat="43.403076415944525" lon="11.358936497644862"><ele>442.0</ele><time>2026-04-30T13:24:47Z</time></trkpt><trkpt lat="43.40316701062251" lon="11.35897238810122"><ele>442.0</ele><time>2026-04-30T13:24:48Z</time></trkpt><trkpt lat="43.403261540904026" lon="11.3589917211564"><ele>442.6</ele><time>2026-04-30T13:24:49Z</time></trkpt><trkpt lat="43.403358385487806" lon="11.35901680889763"><ele>443.20000000000005</ele><time>2026-04-30T13:24:50Z</time></trkpt><trkpt lat="43.403449215257524" lon="11.3590833318558"><ele>443.8</ele><time>2026-04-30T13:24:51Z</time></trkpt><trkpt lat="43.40351802518017" lon="11.359174515704554"><ele>444.4</ele><time>2026-04-30T13:24:52Z</time></trkpt><trkpt lat="43.40357305305445" lon="11.35928309393505"><ele>445.0</ele><time>2026-04-30T13:24:53Z</time></trkpt><trkpt lat="43.403580204283806" lon="11.359432054361712"><ele>445.0</ele><time>2026-04-30T13:24:54Z</time></trkpt><trkpt lat="43.403564434172814" lon="11.35955945772014"><ele>445.0</ele><time>2026-04-30T13:24:55Z</time></trkpt><trkpt lat="43.40353466426824" lon="11.359691381239823"><ele>445.0</ele><time>2026-04-30T13:24:56Z</time></trkpt><trkpt lat="43.4035026348894" lon="11.359848339246588"><ele>445.0</ele><time>2026-04-30T13:24:57Z</time></trkpt><trkpt lat="43.403478135888946" lon="11.359981783668168"><ele>445.0</ele><time>2026-04-30T13:24:58Z</time></trkpt><trkpt lat="43.403477290086855" lon="11.360118448722817"><ele>445.2</ele><time>2026-04-30T13:24:59Z</time></trkpt><trkpt lat="43.40348593081883" lon="11.360258909965351"><ele>445.4</ele><time>2026-04-30T13:25:00Z</time></trkpt><trkpt lat="43.40350281314837" lon="11.360393491731745"><ele>445.6</ele><time>2026-04-30T13:25:01Z</time></trkpt><trkpt lat="43.40349315230512" lon="11.36051406918916"><ele>445.8</ele><time>2026-04-30T13:25:02Z</time></trkpt><trkpt lat="43.40347546093928" lon="11.360632128612764"><ele>446.0</ele><time>2026-04-30T13:25:03Z</time></trkpt><trkpt lat="43.40345187406674" lon="11.360751478177384"><ele>446.0</ele><time>2026-04-30T13:25:04Z</time></trkpt><trkpt lat="43.40335912496411" lon="11.360795559271361"><ele>446.0</ele><time>2026-04-30T13:25:05Z</time></trkpt><trkpt lat="43.403255850722" lon="11.360817771812856"><ele>446.0</ele><time>2026-04-30T13:25:06Z</time></trkpt><trkpt lat="43.403149596192605" lon="11.36087147726065"><ele>446.0</ele><time>2026-04-30T13:25:07Z</time></trkpt><trkpt lat="43.403040126533796" lon="11.360901828341968"><ele>446.0</ele><time>2026-04-30T13:25:08Z</time></trkpt><trkpt lat="43.40292394348677" lon="11.36091199659668"><ele>444.75</ele><time>2026-04-30T13:25:09Z</time></trkpt><trkpt lat="43.40280902020784" lon="11.360903941950115"><ele>443.5</ele><time>2026-04-30T13:25:10Z</time></trkpt><trkpt lat="43.40268641447033" lon="11.360873595537093"><ele>442.25</ele><time>2026-04-30T13:25:11Z</time></trkpt><trkpt lat="43.402583081815145" lon="11.360863768967631"><ele>441.0</ele><time>2026-04-30T13:25:12Z</time></trkpt><trkpt lat="43.402476456671465" lon="11.36083300070846"><ele>441.0</ele><time>2026-04-30T13:25:13Z</time></trkpt><trkpt lat="43.40238466193715" lon="11.36084350758099"><ele>441.0</ele><time>2026-04-30T13:25:14Z</time></trkpt><trkpt lat="43.40227509410889" lon="11.36088939752497"><ele>441.0</ele><time>2026-04-30T13:25:15Z</time></trkpt><trkpt lat="43.40218717696563" lon="11.360952869716309"><ele>441.0</ele><time>2026-04-30T13:25:16Z</time></trkpt><trkpt lat="43.40209804833071" lon="11.361024379570852"><ele>441.0</ele><time>2026-04-30T13:25:17Z</time></trkpt><trkpt lat="43.40201159356635" lon="11.361136114991014"><ele>441.75</ele><time>2026-04-30T13:25:18Z</time></trkpt><trkpt lat="43.40191120076417" lon="11.361274068648267"><ele>442.5</ele><time>2026-04-30T13:25:19Z</time></trkpt><trkpt lat="43.401789116075136" lon="11.361411987631516"><ele>443.25</ele><time>2026-04-30T13:25:20Z</time></trkpt><trkpt lat="43.40167770637082" lon="11.361531362672974"><ele>444.0</ele><time>2026-04-30T13:25:21Z</time></trkpt><trkpt lat="43.40157562640554" lon="11.36164021479396"><ele>444.0</ele><time>2026-04-30T13:25:22Z</time></trkpt><trkpt lat="43.40150819148075" lon="11.361712123622882"><ele>444.0</ele><time>2026-04-30T13:25:23Z</time></trkpt><trkpt lat="43.40143847311427" lon="11.361802192654114"><ele>444.0</ele><time>2026-04-30T13:25:24Z</time></trkpt><trkpt lat="43.40137417259314" lon="11.361874201170062"><ele>444.0</ele><time>2026-04-30T13:25:25Z</time></trkpt><trkpt lat="43.40132316077646" lon="11.361951180614746"><ele>444.0</ele><time>2026-04-30T13:25:26Z</time></trkpt><trkpt lat="43.40129369120539" lon="11.362035241564381"><ele>444.0</ele><time>2026-04-30T13:25:27Z</time></trkpt><trkpt lat="43.40128052434985" lon="11.362124921435674"><ele>445.0</ele><time>2026-04-30T13:25:28Z</time></trkpt><trkpt lat="43.401297380882774" lon="11.362217084144527"><ele>446.0</ele><time>2026-04-30T13:25:29Z</time></trkpt><trkpt lat="43.401337734514186" lon="11.362323451024448"><ele>447.0</ele><time>2026-04-30T13:25:30Z</time></trkpt><trkpt lat="43.40136935092271" lon="11.362440430362724"><ele>448.0</ele><time>2026-04-30T13:25:31Z</time></trkpt><trkpt lat="43.40139544155594" lon="11.362582353659992"><ele>449.0</ele><time>2026-04-30T13:25:32Z</time></trkpt><trkpt lat="43.40139338926633" lon="11.362722697715133"><ele>449.0</ele><time>2026-04-30T13:25:33Z</time></trkpt><trkpt lat="43.401389885036146" lon="11.362872457495323"><ele>449.0</ele><time>2026-04-30T13:25:34Z</time></trkpt><trkpt lat="43.40133235300291" lon="11.362995126943053"><ele>449.0</ele><time>2026-04-30T13:25:35Z</time></trkpt><trkpt lat="43.401267746068314" lon="11.363093795471874"><ele>449.0</ele><time>2026-04-30T13:25:36Z</time></trkpt><trkpt lat="43.40117523766201" lon="11.363136099426"><ele>449.0</ele><time>2026-04-30T13:25:37Z</time></trkpt><trkpt lat="43.4010707925489" lon="11.363181327487347"><ele>447.2</ele><time>2026-04-30T13:25:38Z</time></trkpt><trkpt lat="43.40098010132372" lon="11.363259597439903"><ele>445.4</ele><time>2026-04-30T13:25:39Z</time></trkpt><trkpt lat="43.40089727342529" lon="11.363321764132497"><ele>443.6</ele><time>2026-04-30T13:25:40Z</time></trkpt><trkpt lat="43.4008375949447" lon="11.363407184558707"><ele>441.8</ele><time>2026-04-30T13:25:41Z</time></trkpt><trkpt lat="43.40079479568406" lon="11.363510272523172"><ele>440.0</ele><time>2026-04-30T13:25:42Z</time></trkpt><trkpt lat="43.40075946883189" lon="11.363647152517483"><ele>440.0</ele><time>2026-04-30T13:25:43Z</time></trkpt><trkpt lat="43.40074666076205" lon="11.363758646127646"><ele>440.0</ele><time>2026-04-30T13:25:44Z</time></trkpt><trkpt lat="43.400752430363504" lon="11.363886638526127"><ele>440.0</ele><time>2026-04-30T13:25:45Z</time></trkpt><trkpt lat="43.40076316253867" lon="11.364014718935575"><ele>440.0</ele><time>2026-04-30T13:25:46Z</time></trkpt><trkpt lat="43.40078650120265" lon="11.36415750957039"><ele>440.0</ele><time>2026-04-30T13:25:47Z</time></trkpt><trkpt lat="43.400832334870884" lon="11.36428253049758"><ele>440.0</ele><time>2026-04-30T13:25:48Z</time></trkpt><trkpt lat="43.40089684721894" lon="11.364427500868892"><ele>440.0</ele><time>2026-04-30T13:25:49Z</time></trkpt><trkpt lat="43.40097069612015" lon="11.364590154235799"><ele>440.0</ele><time>2026-04-30T13:25:50Z</time></trkpt><trkpt lat="43.40102920031718" lon="11.36476928083381"><ele>440.0</ele><time>2026-04-30T13:25:51Z</time></trkpt><trkpt lat="43.40106139124643" lon="11.364947439960856"><ele>440.0</ele><time>2026-04-30T13:25:52Z</time></trkpt><trkpt lat="43.40107115079785" lon="11.365102931653173"><ele>440.0</ele><time>2026-04-30T13:25:53Z</time></trkpt><trkpt lat="43.40104003068738" lon="11.365233371090708"><ele>440.0</ele><time>2026-04-30T13:25:54Z</time></trkpt><trkpt lat="43.401113296160084" lon="11.365383297440012"><ele>440.0</ele><time>2026-04-30T13:25:55Z</time></trkpt><trkpt lat="43.401132609262575" lon="11.365522789458405"><ele>440.0</ele><time>2026-04-30T13:25:56Z</time></trkpt><trkpt lat="43.40114871699902" lon="11.365643786091207"><ele>440.16666666666663</ele><time>2026-04-30T13:25:57Z</time></trkpt><trkpt lat="43.401168590562456" lon="11.365748255171443"><ele>440.3333333333333</ele><time>2026-04-30T13:25:58Z</time></trkpt><trkpt lat="43.401187458229096" lon="11.365863358565251"><ele>440.5</ele><time>2026-04-30T13:25:59Z</time></trkpt><trkpt lat="43.40120436018147" lon="11.365966707620235"><ele>440.66666666666663</ele><time>2026-04-30T13:26:00Z</time></trkpt><trkpt lat="43.401216460616915" lon="11.366083534511578"><ele>440.8333333333333</ele><time>2026-04-30T13:26:01Z</time></trkpt><trkpt lat="43.40124386495158" lon="11.366229218869032"><ele>441.0</ele><time>2026-04-30T13:26:02Z</time></trkpt><trkpt lat="43.40126271570129" lon="11.366349980297311"><ele>440.4</ele><time>2026-04-30T13:26:03Z</time></trkpt><trkpt lat="43.40129424512877" lon="11.366480111584249"><ele>439.8</ele><time>2026-04-30T13:26:04Z</time></trkpt><trkpt lat="43.40133507926983" lon="11.366612039400222"><ele>439.19999999999993</ele><time>2026-04-30T13:26:05Z</time></trkpt><trkpt lat="43.40139212958472" lon="11.36673134057622"><ele>438.59999999999997</ele><time>2026-04-30T13:26:06Z</time></trkpt><trkpt lat="43.40145970233862" lon="11.366851827860714"><ele>438.0</ele><time>2026-04-30T13:26:07Z</time></trkpt><trkpt lat="43.401519176427506" lon="11.36699028876885"><ele>437.25</ele><time>2026-04-30T13:26:08Z</time></trkpt><trkpt lat="43.40154437872488" lon="11.367135735818849"><ele>436.5</ele><time>2026-04-30T13:26:09Z</time></trkpt><trkpt lat="43.401570847335314" lon="11.367277378293005"><ele>435.75</ele><time>2026-04-30T13:26:10Z</time></trkpt><trkpt lat="43.401587874043855" lon="11.367430560762513"><ele>435.0</ele><time>2026-04-30T13:26:11Z</time></trkpt><trkpt lat="43.40160001575064" lon="11.367612759520249"><ele>434.75</ele><time>2026-04-30T13:26:12Z</time></trkpt><trkpt lat="43.40162454642571" lon="11.367802100510735"><ele>434.5</ele><time>2026-04-30T13:26:13.001Z</time></trkpt><trkpt lat="43.40162633837586" lon="11.36798505474127"><ele>434.25</ele><time>2026-04-30T13:26:14.001Z</time></trkpt><trkpt lat="43.40164364449872" lon="11.368174571700619"><ele>434.0</ele><time>2026-04-30T13:26:15.001Z</time></trkpt><trkpt lat="43.40166072869384" lon="11.368361658748928"><ele>433.5</ele><time>2026-04-30T13:26:16.001Z</time></trkpt><trkpt lat="43.4016840485688" lon="11.368534794204818"><ele>433.0</ele><time>2026-04-30T13:26:17.001Z</time></trkpt><trkpt lat="43.40169185114239" lon="11.368705795475886"><ele>432.5</ele><time>2026-04-30T13:26:18.001Z</time></trkpt><trkpt lat="43.401700916443914" lon="11.368874348334414"><ele>432.0</ele><time>2026-04-30T13:26:19.001Z</time></trkpt><trkpt lat="43.401696001342195" lon="11.369045633023717"><ele>431.5</ele><time>2026-04-30T13:26:20.001Z</time></trkpt><trkpt lat="43.401691522741345" lon="11.369218407448635"><ele>431.0</ele><time>2026-04-30T13:26:21.001Z</time></trkpt><trkpt lat="43.40165737292817" lon="11.36939073904925"><ele>430.5</ele><time>2026-04-30T13:26:22.001Z</time></trkpt><trkpt lat="43.40162902209554" lon="11.369562701395086"><ele>430.0</ele><time>2026-04-30T13:26:23.001Z</time></trkpt><trkpt lat="43.40158030844245" lon="11.369732241148812"><ele>429.75</ele><time>2026-04-30T13:26:24.001Z</time></trkpt><trkpt lat="43.40153898616123" lon="11.369902939308714"><ele>429.5</ele><time>2026-04-30T13:26:25.001Z</time></trkpt><trkpt lat="43.40148705715748" lon="11.370076231616714"><ele>429.25</ele><time>2026-04-30T13:26:26.001Z</time></trkpt><trkpt lat="43.40144653609654" lon="11.370255751833614"><ele>429.0</ele><time>2026-04-30T13:26:27.001Z</time></trkpt><trkpt lat="43.40138821708079" lon="11.370402044672167"><ele>428.75</ele><time>2026-04-30T13:26:28.001Z</time></trkpt><trkpt lat="43.40134085411401" lon="11.370546864608594"><ele>428.5</ele><time>2026-04-30T13:26:29.001Z</time></trkpt><trkpt lat="43.401304173156916" lon="11.370698216443758"><ele>428.25</ele><time>2026-04-30T13:26:30.001Z</time></trkpt><trkpt lat="43.40127872697063" lon="11.370843230375765"><ele>428.0</ele><time>2026-04-30T13:26:31.001Z</time></trkpt><trkpt lat="43.40126677308635" lon="11.371018927533553"><ele>428.5</ele><time>2026-04-30T13:26:32.001Z</time></trkpt><trkpt lat="43.4012663078342" lon="11.371208197643927"><ele>429.0</ele><time>2026-04-30T13:26:33.001Z</time></trkpt><trkpt lat="43.40125928711809" lon="11.371386558661946"><ele>429.5</ele><time>2026-04-30T13:26:34Z</time></trkpt><trkpt lat="43.401259415457844" lon="11.371544299531084"><ele>430.0</ele><time>2026-04-30T13:26:35Z</time></trkpt><trkpt lat="43.40127255204372" lon="11.371685004611065"><ele>430.8</ele><time>2026-04-30T13:26:36Z</time></trkpt><trkpt lat="43.401276588519465" lon="11.371829650272952"><ele>431.6</ele><time>2026-04-30T13:26:37Z</time></trkpt><trkpt lat="43.40128649416249" lon="11.37198527623267"><ele>432.4</ele><time>2026-04-30T13:26:38Z</time></trkpt><trkpt lat="43.40128722167925" lon="11.372131885913344"><ele>433.2</ele><time>2026-04-30T13:26:39Z</time></trkpt><trkpt lat="43.40128480081289" lon="11.372272786167558"><ele>434.0</ele><time>2026-04-30T13:26:40Z</time></trkpt><trkpt lat="43.40125728286443" lon="11.372388999443686"><ele>434.4</ele><time>2026-04-30T13:26:41Z</time></trkpt><trkpt lat="43.40123122729087" lon="11.372524092043449"><ele>434.79999999999995</ele><time>2026-04-30T13:26:42Z</time></trkpt><trkpt lat="43.40118975750878" lon="11.372647538415745"><ele>435.20000000000005</ele><time>2026-04-30T13:26:43Z</time></trkpt><trkpt lat="43.40111937230428" lon="11.372756464390221"><ele>435.6</ele><time>2026-04-30T13:26:44Z</time></trkpt><trkpt lat="43.40105258974624" lon="11.372872484576185"><ele>436.0</ele><time>2026-04-30T13:26:45Z</time></trkpt><trkpt lat="43.40094566079411" lon="11.372961068570334"><ele>436.4</ele><time>2026-04-30T13:26:46Z</time></trkpt><trkpt lat="43.40086486549447" lon="11.373050902861678"><ele>436.8</ele><time>2026-04-30T13:26:47Z</time></trkpt><trkpt lat="43.40080529416279" lon="11.373166025135072"><ele>437.19999999999993</ele><time>2026-04-30T13:26:48Z</time></trkpt><trkpt lat="43.400753186554724" lon="11.373269363951982"><ele>437.59999999999997</ele><time>2026-04-30T13:26:49Z</time></trkpt><trkpt lat="43.4007048023566" lon="11.373390986579185"><ele>438.0</ele><time>2026-04-30T13:26:50Z</time></trkpt><trkpt lat="43.400660083639444" lon="11.373520416788228"><ele>438.0</ele><time>2026-04-30T13:26:51Z</time></trkpt><trkpt lat="43.40062636513031" lon="11.37366505599091"><ele>437.99999999999994</ele><time>2026-04-30T13:26:52Z</time></trkpt><trkpt lat="43.40058946922859" lon="11.37379757572494"><ele>437.99999999999994</ele><time>2026-04-30T13:26:53Z</time></trkpt><trkpt lat="43.40057604104625" lon="11.373929364058192"><ele>438.0</ele><time>2026-04-30T13:26:54Z</time></trkpt><trkpt lat="43.40052543473405" lon="11.374054204604473"><ele>438.0</ele><time>2026-04-30T13:26:55Z</time></trkpt><trkpt lat="43.400486626026236" lon="11.374172806360608"><ele>438.25</ele><time>2026-04-30T13:26:56Z</time></trkpt><trkpt lat="43.40043885101828" lon="11.374284692612987"><ele>438.5</ele><time>2026-04-30T13:26:57Z</time></trkpt><trkpt lat="43.40037539130371" lon="11.374423105446175"><ele>438.75</ele><time>2026-04-30T13:26:58Z</time></trkpt><trkpt lat="43.40029021482602" lon="11.374555349291171"><ele>439.0</ele><time>2026-04-30T13:26:59Z</time></trkpt><trkpt lat="43.40022001297255" lon="11.374673460499013"><ele>438.4</ele><time>2026-04-30T13:27:00Z</time></trkpt><trkpt lat="43.40015215752453" lon="11.374787344120403"><ele>437.79999999999995</ele><time>2026-04-30T13:27:01Z</time></trkpt><trkpt lat="43.4000773769821" lon="11.374901636002239"><ele>437.20000000000005</ele><time>2026-04-30T13:27:02Z</time></trkpt><trkpt lat="43.40001064771811" lon="11.375022929298176"><ele>436.6</ele><time>2026-04-30T13:27:03Z</time></trkpt><trkpt lat="43.399938218022555" lon="11.375127749880754"><ele>436.0</ele><time>2026-04-30T13:27:04Z</time></trkpt><trkpt lat="43.399875926289205" lon="11.375239509191166"><ele>436.0</ele><time>2026-04-30T13:27:05Z</time></trkpt><trkpt lat="43.39982131603146" lon="11.375352039599818"><ele>436.0</ele><time>2026-04-30T13:27:06Z</time></trkpt><trkpt lat="43.39976236671688" lon="11.375452137224466"><ele>436.0</ele><time>2026-04-30T13:27:07Z</time></trkpt><trkpt lat="43.399700057249504" lon="11.375549570458492"><ele>436.0</ele><time>2026-04-30T13:27:08Z</time></trkpt><trkpt lat="43.39963154009926" lon="11.375675914787298"><ele>436.0</ele><time>2026-04-30T13:27:09Z</time></trkpt><trkpt lat="43.39955483071757" lon="11.375788706259051"><ele>434.0</ele><time>2026-04-30T13:27:10Z</time></trkpt><trkpt lat="43.39946114471053" lon="11.375873300377618"><ele>432.0</ele><time>2026-04-30T13:27:11Z</time></trkpt><trkpt lat="43.39935950181396" lon="11.375953690015155"><ele>430.0</ele><time>2026-04-30T13:27:12Z</time></trkpt><trkpt lat="43.39924122532869" lon="11.375950121264367"><ele>428.0</ele><time>2026-04-30T13:27:13Z</time></trkpt><trkpt lat="43.39913541263934" lon="11.375978179221523"><ele>428.0</ele><time>2026-04-30T13:27:14Z</time></trkpt><trkpt lat="43.39901755199324" lon="11.376008832839506"><ele>428.0</ele><time>2026-04-30T13:27:15Z</time></trkpt><trkpt lat="43.39890436112025" lon="11.37604664570388"><ele>428.0</ele><time>2026-04-30T13:27:16Z</time></trkpt><trkpt lat="43.39878186638371" lon="11.376102644076159"><ele>428.0</ele><time>2026-04-30T13:27:17Z</time></trkpt><trkpt lat="43.39866796864295" lon="11.37616705890384"><ele>426.75</ele><time>2026-04-30T13:27:18Z</time></trkpt><trkpt lat="43.39856166194876" lon="11.376245558185614"><ele>425.5</ele><time>2026-04-30T13:27:19Z</time></trkpt><trkpt lat="43.39845714703926" lon="11.376340767534478"><ele>424.25</ele><time>2026-04-30T13:27:20Z</time></trkpt><trkpt lat="43.398370184030846" lon="11.376454742478405"><ele>423.0</ele><time>2026-04-30T13:27:21Z</time></trkpt><trkpt lat="43.39827084136324" lon="11.376555060345646"><ele>422.5</ele><time>2026-04-30T13:27:22Z</time></trkpt><trkpt lat="43.398170785492525" lon="11.376657304799048"><ele>422.0</ele><time>2026-04-30T13:27:23Z</time></trkpt><trkpt lat="43.39806479807451" lon="11.376764703579914"><ele>421.5</ele><time>2026-04-30T13:27:24Z</time></trkpt><trkpt lat="43.39797602293056" lon="11.376891220523373"><ele>421.0</ele><time>2026-04-30T13:27:25Z</time></trkpt><trkpt lat="43.39788513444718" lon="11.377013355816032"><ele>420.5</ele><time>2026-04-30T13:27:26Z</time></trkpt><trkpt lat="43.39779229559467" lon="11.377143634516994"><ele>420.0</ele><time>2026-04-30T13:27:27Z</time></trkpt><trkpt lat="43.39770351124526" lon="11.3772791057389"><ele>419.5</ele><time>2026-04-30T13:27:28Z</time></trkpt><trkpt lat="43.3976172073628" lon="11.377413246374278"><ele>419.0</ele><time>2026-04-30T13:27:29Z</time></trkpt><trkpt lat="43.397532729634534" lon="11.377544601299439"><ele>419.0</ele><time>2026-04-30T13:27:30Z</time></trkpt><trkpt lat="43.39744036274723" lon="11.377676156389754"><ele>419.0</ele><time>2026-04-30T13:27:31Z</time></trkpt><trkpt lat="43.39736322985297" lon="11.37781833264779"><ele>419.0</ele><time>2026-04-30T13:27:32Z</time></trkpt><trkpt lat="43.39728405796207" lon="11.377961096738211"><ele>419.0</ele><time>2026-04-30T13:27:33Z</time></trkpt><trkpt lat="43.39721265050138" lon="11.378103101040018"><ele>418.79999999999995</ele><time>2026-04-30T13:27:34Z</time></trkpt><trkpt lat="43.397141801819345" lon="11.378226812639545"><ele>418.59999999999997</ele><time>2026-04-30T13:27:35Z</time></trkpt><trkpt lat="43.3970678779935" lon="11.378338627018215"><ele>418.4</ele><time>2026-04-30T13:27:36Z</time></trkpt><trkpt lat="43.397004489947165" lon="11.378453766842492"><ele>418.2</ele><time>2026-04-30T13:27:37Z</time></trkpt><trkpt lat="43.39694482145037" lon="11.378577665082142"><ele>418.0</ele><time>2026-04-30T13:27:38Z</time></trkpt><trkpt lat="43.39688507883795" lon="11.378724383998646"><ele>416.6666666666667</ele><time>2026-04-30T13:27:39Z</time></trkpt><trkpt lat="43.3968402164418" lon="11.378890216704038"><ele>415.33333333333337</ele><time>2026-04-30T13:27:40Z</time></trkpt><trkpt lat="43.39679919516665" lon="11.379103134106566"><ele>414.0</ele><time>2026-04-30T13:27:41Z</time></trkpt><trkpt lat="43.39675929843322" lon="11.37933689906606"><ele>414.0</ele><time>2026-04-30T13:27:42Z</time></trkpt><trkpt lat="43.39672860787643" lon="11.379535940430834"><ele>414.0</ele><time>2026-04-30T13:27:43Z</time></trkpt><trkpt lat="43.3966956237165" lon="11.379705177927956"><ele>414.0</ele><time>2026-04-30T13:27:44Z</time></trkpt><trkpt lat="43.396657387621985" lon="11.379879457032217"><ele>414.0</ele><time>2026-04-30T13:27:45Z</time></trkpt><trkpt lat="43.396621217773315" lon="11.380062194150037"><ele>412.75</ele><time>2026-04-30T13:27:46Z</time></trkpt><trkpt lat="43.3965851038026" lon="11.380246070308118"><ele>411.5</ele><time>2026-04-30T13:27:47Z</time></trkpt><trkpt lat="43.396538393313996" lon="11.380439150885104"><ele>410.25</ele><time>2026-04-30T13:27:48Z</time></trkpt><trkpt lat="43.396470013954165" lon="11.380615463568196"><ele>409.0</ele><time>2026-04-30T13:27:49Z</time></trkpt><trkpt lat="43.396380870188985" lon="11.380755456263834"><ele>409.75</ele><time>2026-04-30T13:27:50Z</time></trkpt><trkpt lat="43.39627320260861" lon="11.3808646361705"><ele>410.5</ele><time>2026-04-30T13:27:51Z</time></trkpt><trkpt lat="43.396154243952054" lon="11.38095692671526"><ele>411.25</ele><time>2026-04-30T13:27:52Z</time></trkpt><trkpt lat="43.3960151389709" lon="11.381012210407318"><ele>412.0</ele><time>2026-04-30T13:27:53Z</time></trkpt><trkpt lat="43.39585820409773" lon="11.38103335133392"><ele>412.0</ele><time>2026-04-30T13:27:54Z</time></trkpt><trkpt lat="43.39567733866341" lon="11.38102055993586"><ele>412.0</ele><time>2026-04-30T13:27:55Z</time></trkpt><trkpt lat="43.39548923090601" lon="11.381002444805665"><ele>412.0</ele><time>2026-04-30T13:27:56Z</time></trkpt><trkpt lat="43.3953292202953" lon="11.380974132697608"><ele>413.33333333333337</ele><time>2026-04-30T13:27:57Z</time></trkpt><trkpt lat="43.39518073570921" lon="11.380931378410722"><ele>414.66666666666663</ele><time>2026-04-30T13:27:58Z</time></trkpt><trkpt lat="43.39502746588901" lon="11.380929665219062"><ele>416.0</ele><time>2026-04-30T13:27:59Z</time></trkpt><trkpt lat="43.39486262568808" lon="11.380960944413236"><ele>416.0</ele><time>2026-04-30T13:28:00Z</time></trkpt><trkpt lat="43.39469043343344" lon="11.380988372948774"><ele>416.0</ele><time>2026-04-30T13:28:01Z</time></trkpt><trkpt lat="43.3945265926124" lon="11.3810235775889"><ele>416.0</ele><time>2026-04-30T13:28:02Z</time></trkpt><trkpt lat="43.39436432614973" lon="11.381066850491619"><ele>415.75</ele><time>2026-04-30T13:28:03Z</time></trkpt><trkpt lat="43.39421296012875" lon="11.381124043437712"><ele>415.5</ele><time>2026-04-30T13:28:04Z</time></trkpt><trkpt lat="43.394070244126" lon="11.381186146074457"><ele>415.25</ele><time>2026-04-30T13:28:05Z</time></trkpt><trkpt lat="43.3939389268414" lon="11.38125010223845"><ele>415.0</ele><time>2026-04-30T13:28:06Z</time></trkpt><trkpt lat="43.39381805032028" lon="11.381317077007383"><ele>416.5</ele><time>2026-04-30T13:28:07Z</time></trkpt><trkpt lat="43.3936962681664" lon="11.381367798606147"><ele>418.0</ele><time>2026-04-30T13:28:08Z</time></trkpt><trkpt lat="43.393586587002" lon="11.381448512324535"><ele>419.5</ele><time>2026-04-30T13:28:09Z</time></trkpt><trkpt lat="43.39347212147383" lon="11.381527886199907"><ele>421.0</ele><time>2026-04-30T13:28:10Z</time></trkpt><trkpt lat="43.39335363385113" lon="11.381611914579414"><ele>421.0</ele><time>2026-04-30T13:28:11Z</time></trkpt><trkpt lat="43.393237845918854" lon="11.38170260061859"><ele>421.0</ele><time>2026-04-30T13:28:12Z</time></trkpt><trkpt lat="43.393119813771534" lon="11.38179711602804"><ele>421.0</ele><time>2026-04-30T13:28:13Z</time></trkpt><trkpt lat="43.39299992322748" lon="11.381893669681341"><ele>421.0</ele><time>2026-04-30T13:28:14Z</time></trkpt><trkpt lat="43.392882055053164" lon="11.381988937135873"><ele>422.0</ele><time>2026-04-30T13:28:15Z</time></trkpt><trkpt lat="43.39277323663995" lon="11.382102091731474"><ele>423.0</ele><time>2026-04-30T13:28:16Z</time></trkpt><trkpt lat="43.392653670771075" lon="11.382195545528978"><ele>424.0</ele><time>2026-04-30T13:28:17Z</time></trkpt><trkpt lat="43.3925343608981" lon="11.382293999964169"><ele>425.0</ele><time>2026-04-30T13:28:18Z</time></trkpt><trkpt lat="43.392412922667695" lon="11.382396123089501"><ele>425.0</ele><time>2026-04-30T13:28:19Z</time></trkpt><trkpt lat="43.39230333649305" lon="11.38250816888689"><ele>425.0</ele><time>2026-04-30T13:28:20Z</time></trkpt><trkpt lat="43.392201711196954" lon="11.382638190958088"><ele>425.0</ele><time>2026-04-30T13:28:21Z</time></trkpt><trkpt lat="43.39210856527336" lon="11.382777991606877"><ele>425.0</ele><time>2026-04-30T13:28:22Z</time></trkpt><trkpt lat="43.392035775367084" lon="11.382941506294719"><ele>425.3333333333333</ele><time>2026-04-30T13:28:23Z</time></trkpt><trkpt lat="43.391983449424785" lon="11.38314562395839"><ele>425.66666666666663</ele><time>2026-04-30T13:28:24Z</time></trkpt><trkpt lat="43.39195395123944" lon="11.383369832131587"><ele>426.0</ele><time>2026-04-30T13:28:25Z</time></trkpt><trkpt lat="43.39193459049637" lon="11.38358092860944"><ele>426.0</ele><time>2026-04-30T13:28:26Z</time></trkpt><trkpt lat="43.3919012315584" lon="11.383788911612113"><ele>426.0</ele><time>2026-04-30T13:28:27Z</time></trkpt><trkpt lat="43.39184064188827" lon="11.383966187278045"><ele>426.0</ele><time>2026-04-30T13:28:28Z</time></trkpt><trkpt lat="43.391758582175534" lon="11.3841115847859"><ele>426.0</ele><time>2026-04-30T13:28:29Z</time></trkpt><trkpt lat="43.39165144610147" lon="11.384238538213705"><ele>425.66666666666663</ele><time>2026-04-30T13:28:30Z</time></trkpt><trkpt lat="43.39151270891698" lon="11.384379941936926"><ele>425.3333333333333</ele><time>2026-04-30T13:28:31Z</time></trkpt><trkpt lat="43.39136805007036" lon="11.384508122341996"><ele>425.0</ele><time>2026-04-30T13:28:32Z</time></trkpt><trkpt lat="43.39123640068521" lon="11.384635949056161"><ele>424.75</ele><time>2026-04-30T13:28:33Z</time></trkpt><trkpt lat="43.391111784496246" lon="11.384752105252481"><ele>424.5</ele><time>2026-04-30T13:28:34Z</time></trkpt><trkpt lat="43.39098517608893" lon="11.384861028458685"><ele>424.25</ele><time>2026-04-30T13:28:35Z</time></trkpt><trkpt lat="43.39086236534441" lon="11.384965795035491"><ele>424.0</ele><time>2026-04-30T13:28:36Z</time></trkpt><trkpt lat="43.39074276330642" lon="11.38507190370433"><ele>424.0</ele><time>2026-04-30T13:28:37Z</time></trkpt><trkpt lat="43.39062048773146" lon="11.385173063833387"><ele>424.0</ele><time>2026-04-30T13:28:38Z</time></trkpt><trkpt lat="43.39049464784915" lon="11.385261379161674"><ele>424.0</ele><time>2026-04-30T13:28:39Z</time></trkpt><trkpt lat="43.390370476315475" lon="11.385352239762298"><ele>424.0</ele><time>2026-04-30T13:28:40Z</time></trkpt><trkpt lat="43.39024864748387" lon="11.385439945521558"><ele>423.79999999999995</ele><time>2026-04-30T13:28:41Z</time></trkpt><trkpt lat="43.39012989734788" lon="11.3855113083074"><ele>423.59999999999997</ele><time>2026-04-30T13:28:42Z</time></trkpt><trkpt lat="43.39003424833448" lon="11.385570436106354"><ele>423.4</ele><time>2026-04-30T13:28:43Z</time></trkpt><trkpt lat="43.38995572864283" lon="11.385629860738527"><ele>423.2</ele><time>2026-04-30T13:28:44Z</time></trkpt><trkpt lat="43.38988981704214" lon="11.38568523490612"><ele>423.0</ele><time>2026-04-30T13:28:46Z</time></trkpt><trkpt lat="43.389813142952036" lon="11.385729450470402"><ele>422.79999999999995</ele><time>2026-04-30T13:28:50Z</time></trkpt><trkpt lat="43.38975412189916" lon="11.385783947634359"><ele>422.6</ele><time>2026-04-30T13:28:52Z</time></trkpt><trkpt lat="43.38976532400559" lon="11.385998087757484"><ele>422.4</ele><time>2026-04-30T13:28:53Z</time></trkpt><trkpt lat="43.38974126998601" lon="11.386089575211802"><ele>422.20000000000005</ele><time>2026-04-30T13:28:54Z</time></trkpt><trkpt lat="43.38971100261345" lon="11.386199321402184"><ele>422.0</ele><time>2026-04-30T13:28:55Z</time></trkpt><trkpt lat="43.3896585984061" lon="11.386292845569393"><ele>422.6</ele><time>2026-04-30T13:28:56Z</time></trkpt><trkpt lat="43.38962596619416" lon="11.386407305392234"><ele>423.20000000000005</ele><time>2026-04-30T13:28:57Z</time></trkpt><trkpt lat="43.389572109178395" lon="11.3865155951749"><ele>423.8</ele><time>2026-04-30T13:28:58Z</time></trkpt><trkpt lat="43.38950649808404" lon="11.386645746118848"><ele>424.4</ele><time>2026-04-30T13:28:59Z</time></trkpt><trkpt lat="43.389436721519736" lon="11.386781412667673"><ele>425.0</ele><time>2026-04-30T13:29:00Z</time></trkpt><trkpt lat="43.38936464514401" lon="11.386930110410336"><ele>425.0</ele><time>2026-04-30T13:29:01Z</time></trkpt><trkpt lat="43.389289902634445" lon="11.387079814024377"><ele>425.0</ele><time>2026-04-30T13:29:02Z</time></trkpt><trkpt lat="43.38921719617423" lon="11.387224520347592"><ele>425.0</ele><time>2026-04-30T13:29:03Z</time></trkpt><trkpt lat="43.38913313511772" lon="11.387354471351374"><ele>425.0</ele><time>2026-04-30T13:29:04Z</time></trkpt><trkpt lat="43.38906881875932" lon="11.387512568507033"><ele>424.25</ele><time>2026-04-30T13:29:05Z</time></trkpt><trkpt lat="43.389030574874745" lon="11.387680232454889"><ele>423.5</ele><time>2026-04-30T13:29:06Z</time></trkpt><trkpt lat="43.38897290301635" lon="11.38784164937165"><ele>422.75</ele><time>2026-04-30T13:29:07Z</time></trkpt><trkpt lat="43.38890078528725" lon="11.387998658764172"><ele>422.0</ele><time>2026-04-30T13:29:08Z</time></trkpt><trkpt lat="43.38883259562788" lon="11.38815825114801"><ele>423.75</ele><time>2026-04-30T13:29:09Z</time></trkpt><trkpt lat="43.388761666565344" lon="11.38830911564135"><ele>425.5</ele><time>2026-04-30T13:29:10Z</time></trkpt><trkpt lat="43.388696698437414" lon="11.38845582154451"><ele>427.25</ele><time>2026-04-30T13:29:11Z</time></trkpt><trkpt lat="43.3886184182856" lon="11.388602050489956"><ele>429.0</ele><time>2026-04-30T13:29:12Z</time></trkpt><trkpt lat="43.388548884424566" lon="11.388759037629013"><ele>428.5</ele><time>2026-04-30T13:29:13Z</time></trkpt><trkpt lat="43.38847820190005" lon="11.388919063764781"><ele>428.0</ele><time>2026-04-30T13:29:14Z</time></trkpt><trkpt lat="43.388408628058755" lon="11.389076664875818"><ele>427.5</ele><time>2026-04-30T13:29:15Z</time></trkpt><trkpt lat="43.38834058267464" lon="11.389232952678228"><ele>427.0</ele><time>2026-04-30T13:29:16Z</time></trkpt><trkpt lat="43.38828716355066" lon="11.389403143027486"><ele>427.0</ele><time>2026-04-30T13:29:17Z</time></trkpt><trkpt lat="43.388227865243756" lon="11.389555369290152"><ele>427.0</ele><time>2026-04-30T13:29:18Z</time></trkpt><trkpt lat="43.38816478648724" lon="11.389703700301823"><ele>427.0</ele><time>2026-04-30T13:29:19Z</time></trkpt><trkpt lat="43.38814135061051" lon="11.389862533607113"><ele>427.0</ele><time>2026-04-30T13:29:20Z</time></trkpt><trkpt lat="43.38811477865262" lon="11.390003328085255"><ele>427.20000000000005</ele><time>2026-04-30T13:29:21Z</time></trkpt><trkpt lat="43.388083505465474" lon="11.39013729044758"><ele>427.40000000000003</ele><time>2026-04-30T13:29:22Z</time></trkpt><trkpt lat="43.388080772447246" lon="11.39025715086333"><ele>427.59999999999997</ele><time>2026-04-30T13:29:23Z</time></trkpt><trkpt lat="43.388055565039494" lon="11.390379576798244"><ele>427.79999999999995</ele><time>2026-04-30T13:29:24Z</time></trkpt><trkpt lat="43.38800714757472" lon="11.390503773415778"><ele>428.0</ele><time>2026-04-30T13:29:25Z</time></trkpt><trkpt lat="43.38793350296686" lon="11.39060573282994"><ele>430.0</ele><time>2026-04-30T13:29:26Z</time></trkpt><trkpt lat="43.38784260309638" lon="11.390725618403128"><ele>432.0</ele><time>2026-04-30T13:29:27Z</time></trkpt><trkpt lat="43.38775801276228" lon="11.390870301286578"><ele>434.0</ele><time>2026-04-30T13:29:28Z</time></trkpt><trkpt lat="43.38766355982534" lon="11.391010380337807"><ele>436.0</ele><time>2026-04-30T13:29:29Z</time></trkpt><trkpt lat="43.387584578159995" lon="11.391159778678976"><ele>436.0</ele><time>2026-04-30T13:29:30Z</time></trkpt><trkpt lat="43.38749506303583" lon="11.391282284222541"><ele>436.0</ele><time>2026-04-30T13:29:31Z</time></trkpt><trkpt lat="43.3874082940332" lon="11.391410561824951"><ele>436.0</ele><time>2026-04-30T13:29:32Z</time></trkpt><trkpt lat="43.38732234685359" lon="11.391544709372278"><ele>436.0</ele><time>2026-04-30T13:29:33Z</time></trkpt><trkpt lat="43.387241025742526" lon="11.39166888564092"><ele>434.5</ele><time>2026-04-30T13:29:34Z</time></trkpt><trkpt lat="43.38715979354864" lon="11.39179004145079"><ele>433.0</ele><time>2026-04-30T13:29:35Z</time></trkpt><trkpt lat="43.38708270821052" lon="11.391910594613321"><ele>431.5</ele><time>2026-04-30T13:29:36Z</time></trkpt><trkpt lat="43.38700856244069" lon="11.392025189159718"><ele>430.0</ele><time>2026-04-30T13:29:37Z</time></trkpt><trkpt lat="43.386933541190935" lon="11.392135750448375"><ele>430.2</ele><time>2026-04-30T13:29:38Z</time></trkpt><trkpt lat="43.38686119003047" lon="11.39222366936744"><ele>430.4</ele><time>2026-04-30T13:29:39Z</time></trkpt><trkpt lat="43.386770300633046" lon="11.392319801176576"><ele>430.6</ele><time>2026-04-30T13:29:40Z</time></trkpt><trkpt lat="43.38667834886982" lon="11.39239739596413"><ele>430.8</ele><time>2026-04-30T13:29:41Z</time></trkpt><trkpt lat="43.386583211092244" lon="11.392464185482716"><ele>431.0</ele><time>2026-04-30T13:29:42Z</time></trkpt><trkpt lat="43.386487785787715" lon="11.392547259180597"><ele>431.0</ele><time>2026-04-30T13:29:43Z</time></trkpt><trkpt lat="43.38638243922808" lon="11.39265953684041"><ele>431.0</ele><time>2026-04-30T13:29:44Z</time></trkpt><trkpt lat="43.386289616711096" lon="11.392754543007149"><ele>431.0</ele><time>2026-04-30T13:29:45Z</time></trkpt><trkpt lat="43.38619745825198" lon="11.392882510939765"><ele>431.0</ele><time>2026-04-30T13:29:46Z</time></trkpt><trkpt lat="43.38609947609562" lon="11.393041770131532"><ele>430.25</ele><time>2026-04-30T13:29:47Z</time></trkpt><trkpt lat="43.38600406551137" lon="11.39318349743571"><ele>429.5</ele><time>2026-04-30T13:29:48Z</time></trkpt><trkpt lat="43.38591845522367" lon="11.393312434191586"><ele>428.75</ele><time>2026-04-30T13:29:49Z</time></trkpt><trkpt lat="43.38583364528165" lon="11.393443943758632"><ele>428.0</ele><time>2026-04-30T13:29:50Z</time></trkpt><trkpt lat="43.38574786234528" lon="11.393574488435043"><ele>428.0</ele><time>2026-04-30T13:29:51Z</time></trkpt><trkpt lat="43.38565135744067" lon="11.393700858709952"><ele>428.0</ele><time>2026-04-30T13:29:52Z</time></trkpt><trkpt lat="43.385561352737454" lon="11.393828382439164"><ele>428.0</ele><time>2026-04-30T13:29:53Z</time></trkpt><trkpt lat="43.385465999590515" lon="11.393957590374317"><ele>428.0</ele><time>2026-04-30T13:29:54Z</time></trkpt><trkpt lat="43.38537768235977" lon="11.394097671718391"><ele>427.25</ele><time>2026-04-30T13:29:55Z</time></trkpt><trkpt lat="43.38527323322845" lon="11.394270139124767"><ele>426.5</ele><time>2026-04-30T13:29:56Z</time></trkpt><trkpt lat="43.385172218744174" lon="11.394420863903983"><ele>425.75</ele><time>2026-04-30T13:29:57Z</time></trkpt><trkpt lat="43.38508564235649" lon="11.394547738161343"><ele>425.0</ele><time>2026-04-30T13:29:58Z</time></trkpt><trkpt lat="43.384981576602264" lon="11.394672696493146"><ele>424.5</ele><time>2026-04-30T13:29:59Z</time></trkpt><trkpt lat="43.384892133135864" lon="11.394812909821216"><ele>424.0</ele><time>2026-04-30T13:30:00Z</time></trkpt><trkpt lat="43.38481168958449" lon="11.394940927048825"><ele>423.5</ele><time>2026-04-30T13:30:01Z</time></trkpt><trkpt lat="43.384732294209606" lon="11.395055871451882"><ele>423.0</ele><time>2026-04-30T13:30:02Z</time></trkpt><trkpt lat="43.384655319903636" lon="11.395193731503388"><ele>421.25</ele><time>2026-04-30T13:30:03Z</time></trkpt><trkpt lat="43.38453968162588" lon="11.395285660518834"><ele>419.5</ele><time>2026-04-30T13:30:04Z</time></trkpt><trkpt lat="43.38440895601419" lon="11.3953385877206"><ele>417.75</ele><time>2026-04-30T13:30:05Z</time></trkpt><trkpt lat="43.38426194300413" lon="11.395398836550093"><ele>416.0</ele><time>2026-04-30T13:30:06Z</time></trkpt><trkpt lat="43.38409782696937" lon="11.395460551725899"><ele>416.5</ele><time>2026-04-30T13:30:07Z</time></trkpt><trkpt lat="43.383942546441844" lon="11.395518674762336"><ele>417.0</ele><time>2026-04-30T13:30:08Z</time></trkpt><trkpt lat="43.38379847750616" lon="11.395574013351926"><ele>417.5</ele><time>2026-04-30T13:30:09Z</time></trkpt><trkpt lat="43.38367002945697" lon="11.395626688857323"><ele>418.0</ele><time>2026-04-30T13:30:10Z</time></trkpt><trkpt lat="43.38354931720903" lon="11.395676192057676"><ele>418.0</ele><time>2026-04-30T13:30:11Z</time></trkpt><trkpt lat="43.383427855913716" lon="11.395726002413722"><ele>418.0</ele><time>2026-04-30T13:30:12Z</time></trkpt><trkpt lat="43.383314199549844" lon="11.395771647619911"><ele>418.0</ele><time>2026-04-30T13:30:13Z</time></trkpt><trkpt lat="43.383208137531135" lon="11.39583654754629"><ele>418.0</ele><time>2026-04-30T13:30:14Z</time></trkpt><trkpt lat="43.38310984062006" lon="11.395864635562017"><ele>417.2</ele><time>2026-04-30T13:30:15Z</time></trkpt><trkpt lat="43.38300976629548" lon="11.395907362412487"><ele>416.4</ele><time>2026-04-30T13:30:16Z</time></trkpt><trkpt lat="43.382909234449436" lon="11.395945228301468"><ele>415.59999999999997</ele><time>2026-04-30T13:30:17Z</time></trkpt><trkpt lat="43.38282621116853" lon="11.395976610518854"><ele>414.79999999999995</ele><time>2026-04-30T13:30:18Z</time></trkpt><trkpt lat="43.38275169214576" lon="11.396002532582736"><ele>414.0</ele><time>2026-04-30T13:30:19Z</time></trkpt><trkpt lat="43.38266695126628" lon="11.396009585928745"><ele>414.0</ele><time>2026-04-30T13:30:20Z</time></trkpt><trkpt lat="43.382584387804684" lon="11.396049901972885"><ele>414.0</ele><time>2026-04-30T13:30:21Z</time></trkpt><trkpt lat="43.38250249208914" lon="11.39606750632187"><ele>414.0</ele><time>2026-04-30T13:30:22Z</time></trkpt><trkpt lat="43.382420306596934" lon="11.396092370960131"><ele>414.0</ele><time>2026-04-30T13:30:23Z</time></trkpt><trkpt lat="43.38233421701987" lon="11.39612123895739"><ele>414.0</ele><time>2026-04-30T13:30:24Z</time></trkpt><trkpt lat="43.38225960254208" lon="11.3961303534779"><ele>414.0</ele><time>2026-04-30T13:30:25Z</time></trkpt><trkpt lat="43.3821764812555" lon="11.396138630817708"><ele>413.2</ele><time>2026-04-30T13:30:26Z</time></trkpt><trkpt lat="43.38207921514248" lon="11.39615207928942"><ele>412.4</ele><time>2026-04-30T13:30:27.001Z</time></trkpt><trkpt lat="43.38198613400455" lon="11.396180291808372"><ele>411.6</ele><time>2026-04-30T13:30:28.001Z</time></trkpt><trkpt lat="43.38189948365243" lon="11.396200087947323"><ele>410.8</ele><time>2026-04-30T13:30:29.001Z</time></trkpt><trkpt lat="43.38180441259752" lon="11.396192275919258"><ele>410.0</ele><time>2026-04-30T13:30:30.001Z</time></trkpt><trkpt lat="43.381709966894086" lon="11.396206563826931"><ele>410.0</ele><time>2026-04-30T13:30:31.001Z</time></trkpt><trkpt lat="43.381594829134116" lon="11.396223811861423"><ele>410.0</ele><time>2026-04-30T13:30:32.001Z</time></trkpt><trkpt lat="43.381457685507435" lon="11.396242189029794"><ele>410.0</ele><time>2026-04-30T13:30:33.001Z</time></trkpt><trkpt lat="43.38130786750192" lon="11.396266063662043"><ele>410.0</ele><time>2026-04-30T13:30:34.001Z</time></trkpt><trkpt lat="43.38117216035266" lon="11.396267481965952"><ele>409.3333333333333</ele><time>2026-04-30T13:30:35.001Z</time></trkpt><trkpt lat="43.38101643879545" lon="11.396259713440699"><ele>408.66666666666663</ele><time>2026-04-30T13:30:36.001Z</time></trkpt><trkpt lat="43.38085614238106" lon="11.396265945696761"><ele>408.0</ele><time>2026-04-30T13:30:37.001Z</time></trkpt><trkpt lat="43.380683617338754" lon="11.396302090698171"><ele>406.66666666666663</ele><time>2026-04-30T13:30:38.001Z</time></trkpt><trkpt lat="43.38050688975438" lon="11.396321774695618"><ele>405.3333333333333</ele><time>2026-04-30T13:30:39.001Z</time></trkpt><trkpt lat="43.38034210102606" lon="11.39636351165148"><ele>404.0</ele><time>2026-04-30T13:30:40.001Z</time></trkpt><trkpt lat="43.380201365227045" lon="11.396400668143674"><ele>404.0</ele><time>2026-04-30T13:30:41.001Z</time></trkpt><trkpt lat="43.380081598812126" lon="11.396432288375737"><ele>404.0</ele><time>2026-04-30T13:30:42.001Z</time></trkpt><trkpt lat="43.37996651761908" lon="11.39646267162787"><ele>404.0</ele><time>2026-04-30T13:30:43.001Z</time></trkpt><trkpt lat="43.379846309906476" lon="11.396494408368035"><ele>404.0</ele><time>2026-04-30T13:30:44.001Z</time></trkpt><trkpt lat="43.37972874621949" lon="11.396547442164723"><ele>403.0</ele><time>2026-04-30T13:30:45.001Z</time></trkpt><trkpt lat="43.379606547717955" lon="11.396575835919029"><ele>402.0</ele><time>2026-04-30T13:30:46Z</time></trkpt><trkpt lat="43.37948652973703" lon="11.396596205382389"><ele>401.0</ele><time>2026-04-30T13:30:47Z</time></trkpt><trkpt lat="43.37936040846988" lon="11.396637286861706"><ele>400.0</ele><time>2026-04-30T13:30:48Z</time></trkpt><trkpt lat="43.37923277617162" lon="11.396678562984222"><ele>400.0</ele><time>2026-04-30T13:30:49Z</time></trkpt><trkpt lat="43.3791073843198" lon="11.396720163943202"><ele>400.0</ele><time>2026-04-30T13:30:50Z</time></trkpt><trkpt lat="43.378972770778105" lon="11.396766102796155"><ele>400.0</ele><time>2026-04-30T13:30:51Z</time></trkpt><trkpt lat="43.378840505275136" lon="11.39681488298577"><ele>400.0</ele><time>2026-04-30T13:30:52Z</time></trkpt><trkpt lat="43.37870353130306" lon="11.396856461946054"><ele>398.5</ele><time>2026-04-30T13:30:53Z</time></trkpt><trkpt lat="43.3785649729405" lon="11.396903835557696"><ele>397.0</ele><time>2026-04-30T13:30:54Z</time></trkpt><trkpt lat="43.37842543042991" lon="11.396949535108794"><ele>395.5</ele><time>2026-04-30T13:30:55Z</time></trkpt><trkpt lat="43.37828400369389" lon="11.396979077171553"><ele>394.0</ele><time>2026-04-30T13:30:56Z</time></trkpt><trkpt lat="43.378146756555495" lon="11.397023905272647"><ele>394.0</ele><time>2026-04-30T13:30:57Z</time></trkpt><trkpt lat="43.378018890581416" lon="11.397065575319338"><ele>394.0</ele><time>2026-04-30T13:30:58Z</time></trkpt><trkpt lat="43.37789152056961" lon="11.397096962342179"><ele>394.0</ele><time>2026-04-30T13:30:59Z</time></trkpt><trkpt lat="43.37775682691313" lon="11.39711572925075"><ele>394.0</ele><time>2026-04-30T13:31:00Z</time></trkpt><trkpt lat="43.377629338932714" lon="11.397144094079248"><ele>392.25</ele><time>2026-04-30T13:31:01Z</time></trkpt><trkpt lat="43.37750540200459" lon="11.397197528455415"><ele>390.5</ele><time>2026-04-30T13:31:02Z</time></trkpt><trkpt lat="43.37738638671272" lon="11.397277994742613"><ele>388.75</ele><time>2026-04-30T13:31:03Z</time></trkpt><trkpt lat="43.377256228263995" lon="11.397355192150487"><ele>387.0</ele><time>2026-04-30T13:31:04Z</time></trkpt><trkpt lat="43.37713669806786" lon="11.397458950310618"><ele>387.0</ele><time>2026-04-30T13:31:05Z</time></trkpt><trkpt lat="43.37703297988169" lon="11.397562110212323"><ele>387.0</ele><time>2026-04-30T13:31:06Z</time></trkpt><trkpt lat="43.37694612356158" lon="11.397674021987529"><ele>387.0</ele><time>2026-04-30T13:31:07Z</time></trkpt><trkpt lat="43.37683553809696" lon="11.397766995318875"><ele>387.0</ele><time>2026-04-30T13:31:08Z</time></trkpt><trkpt lat="43.37673077342566" lon="11.39787627391441"><ele>387.0</ele><time>2026-04-30T13:31:09Z</time></trkpt><trkpt lat="43.37662286740681" lon="11.397991170370926"><ele>387.0</ele><time>2026-04-30T13:31:10Z</time></trkpt><trkpt lat="43.376487122572016" lon="11.398071209982856"><ele>387.0</ele><time>2026-04-30T13:31:11Z</time></trkpt><trkpt lat="43.37633867196461" lon="11.39814097188075"><ele>387.0</ele><time>2026-04-30T13:31:12Z</time></trkpt><trkpt lat="43.376205024012656" lon="11.398191821150716"><ele>386.0</ele><time>2026-04-30T13:31:13Z</time></trkpt><trkpt lat="43.37607660603573" lon="11.398241255681384"><ele>385.0</ele><time>2026-04-30T13:31:14Z</time></trkpt><trkpt lat="43.3759459817142" lon="11.398265436768911"><ele>384.0</ele><time>2026-04-30T13:31:15Z</time></trkpt><trkpt lat="43.37582024845716" lon="11.398312745786168"><ele>383.0</ele><time>2026-04-30T13:31:16Z</time></trkpt><trkpt lat="43.375696261150836" lon="11.398360159746941"><ele>383.0</ele><time>2026-04-30T13:31:17Z</time></trkpt><trkpt lat="43.37556975218524" lon="11.39841379200556"><ele>383.0</ele><time>2026-04-30T13:31:18Z</time></trkpt><trkpt lat="43.3754433056135" lon="11.398484045983103"><ele>383.0</ele><time>2026-04-30T13:31:19Z</time></trkpt><trkpt lat="43.37532774219869" lon="11.398569693057919"><ele>383.0</ele><time>2026-04-30T13:31:20Z</time></trkpt><trkpt lat="43.375217686206604" lon="11.398660697434535"><ele>383.0</ele><time>2026-04-30T13:31:21Z</time></trkpt><trkpt lat="43.37511083467467" lon="11.398768458816894"><ele>383.0</ele><time>2026-04-30T13:31:22Z</time></trkpt><trkpt lat="43.37501325517405" lon="11.398877936981426"><ele>383.0</ele><time>2026-04-30T13:31:23Z</time></trkpt><trkpt lat="43.374928022495396" lon="11.399002566360062"><ele>383.0</ele><time>2026-04-30T13:31:24Z</time></trkpt><trkpt lat="43.374821776157944" lon="11.39909292546749"><ele>382.75</ele><time>2026-04-30T13:31:25Z</time></trkpt><trkpt lat="43.37472477565149" lon="11.399201664715369"><ele>382.5</ele><time>2026-04-30T13:31:26Z</time></trkpt><trkpt lat="43.37462527022687" lon="11.399313212026762"><ele>382.25</ele><time>2026-04-30T13:31:27Z</time></trkpt><trkpt lat="43.37452446806824" lon="11.399422830360681"><ele>382.0</ele><time>2026-04-30T13:31:28Z</time></trkpt><trkpt lat="43.3744264105427" lon="11.39952612174683"><ele>382.25</ele><time>2026-04-30T13:31:29Z</time></trkpt><trkpt lat="43.374326177294066" lon="11.399627817457656"><ele>382.5</ele><time>2026-04-30T13:31:30Z</time></trkpt><trkpt lat="43.37422526487397" lon="11.399718168873347"><ele>382.75</ele><time>2026-04-30T13:31:31Z</time></trkpt><trkpt lat="43.37411611314167" lon="11.399794385134378"><ele>383.0</ele><time>2026-04-30T13:31:32Z</time></trkpt><trkpt lat="43.37400546498816" lon="11.399862774226335"><ele>383.0</ele><time>2026-04-30T13:31:33Z</time></trkpt><trkpt lat="43.37388425775197" lon="11.399940079271149"><ele>383.0</ele><time>2026-04-30T13:31:34Z</time></trkpt><trkpt lat="43.37376075980348" lon="11.399998505875162"><ele>383.0</ele><time>2026-04-30T13:31:35Z</time></trkpt><trkpt lat="43.373646258423975" lon="11.400051976687127"><ele>383.0</ele><time>2026-04-30T13:31:36Z</time></trkpt><trkpt lat="43.373537091087265" lon="11.400092154502724"><ele>383.0</ele><time>2026-04-30T13:31:37Z</time></trkpt><trkpt lat="43.37342531186633" lon="11.400134372526656"><ele>383.0</ele><time>2026-04-30T13:31:38Z</time></trkpt><trkpt lat="43.37331895891389" lon="11.400183845229515"><ele>383.0</ele><time>2026-04-30T13:31:39Z</time></trkpt><trkpt lat="43.373216184459075" lon="11.400236436985322"><ele>383.0</ele><time>2026-04-30T13:31:40Z</time></trkpt><trkpt lat="43.373110321952396" lon="11.40032207723204"><ele>383.25</ele><time>2026-04-30T13:31:41Z</time></trkpt><trkpt lat="43.372993622819244" lon="11.400450539865759"><ele>383.5</ele><time>2026-04-30T13:31:42Z</time></trkpt><trkpt lat="43.37288469004697" lon="11.400574692608345"><ele>383.75</ele><time>2026-04-30T13:31:43Z</time></trkpt><trkpt lat="43.37279898205141" lon="11.400682224174144"><ele>384.0</ele><time>2026-04-30T13:31:44Z</time></trkpt><trkpt lat="43.372710021807535" lon="11.400755713991787"><ele>384.4</ele><time>2026-04-30T13:31:45Z</time></trkpt><trkpt lat="43.37262472637307" lon="11.400852050500959"><ele>384.79999999999995</ele><time>2026-04-30T13:31:46Z</time></trkpt><trkpt lat="43.372539441939125" lon="11.40094837466976"><ele>385.20000000000005</ele><time>2026-04-30T13:31:47Z</time></trkpt><trkpt lat="43.37246112393177" lon="11.401064613980456"><ele>385.6</ele><time>2026-04-30T13:31:48Z</time></trkpt><trkpt lat="43.372366326362915" lon="11.401144483346638"><ele>386.0</ele><time>2026-04-30T13:31:49Z</time></trkpt><trkpt lat="43.37227184645358" lon="11.401249166265178"><ele>385.0</ele><time>2026-04-30T13:31:50Z</time></trkpt><trkpt lat="43.37217043434197" lon="11.401357225196483"><ele>384.0</ele><time>2026-04-30T13:31:51Z</time></trkpt><trkpt lat="43.37206680243098" lon="11.401442311422146"><ele>383.0</ele><time>2026-04-30T13:31:52Z</time></trkpt><trkpt lat="43.3719885322712" lon="11.401515501582152"><ele>382.0</ele><time>2026-04-30T13:31:53Z</time></trkpt><trkpt lat="43.37192370571359" lon="11.401587590406924"><ele>381.0</ele><time>2026-04-30T13:31:54Z</time></trkpt><trkpt lat="43.3718738991197" lon="11.401687022906795"><ele>381.0</ele><time>2026-04-30T13:31:55Z</time></trkpt><trkpt lat="43.37183936845081" lon="11.401835595132118"><ele>381.0</ele><time>2026-04-30T13:31:56Z</time></trkpt><trkpt lat="43.37183870944227" lon="11.401998852127058"><ele>381.0</ele><time>2026-04-30T13:31:57Z</time></trkpt><trkpt lat="43.37184048013667" lon="11.402148139667714"><ele>381.0</ele><time>2026-04-30T13:31:58Z</time></trkpt><trkpt lat="43.37179365489179" lon="11.402308244012323"><ele>380.5</ele><time>2026-04-30T13:31:59Z</time></trkpt><trkpt lat="43.37171083608538" lon="11.402481680083191"><ele>380.0</ele><time>2026-04-30T13:32:00Z</time></trkpt><trkpt lat="43.37164250564689" lon="11.402641648122898"><ele>379.5</ele><time>2026-04-30T13:32:01Z</time></trkpt><trkpt lat="43.37158090252793" lon="11.402786193577738"><ele>379.0</ele><time>2026-04-30T13:32:02Z</time></trkpt><trkpt lat="43.37152135501425" lon="11.402928241118742"><ele>377.6</ele><time>2026-04-30T13:32:03Z</time></trkpt><trkpt lat="43.371475721371326" lon="11.403058610458864"><ele>376.2</ele><time>2026-04-30T13:32:04Z</time></trkpt><trkpt lat="43.37142333138911" lon="11.403188651494364"><ele>374.8</ele><time>2026-04-30T13:32:05Z</time></trkpt><trkpt lat="43.371372857153666" lon="11.403307069338595"><ele>373.40000000000003</ele><time>2026-04-30T13:32:06Z</time></trkpt><trkpt lat="43.37132463540069" lon="11.403433373453298"><ele>372.0</ele><time>2026-04-30T13:32:07Z</time></trkpt><trkpt lat="43.37127219105371" lon="11.403562156464229"><ele>371.20000000000005</ele><time>2026-04-30T13:32:08Z</time></trkpt><trkpt lat="43.371220110053144" lon="11.403676948493361"><ele>370.4</ele><time>2026-04-30T13:32:09Z</time></trkpt><trkpt lat="43.37116486297787" lon="11.403810068676794"><ele>369.6</ele><time>2026-04-30T13:32:10Z</time></trkpt><trkpt lat="43.37111376110567" lon="11.403944007841147"><ele>368.79999999999995</ele><time>2026-04-30T13:32:11Z</time></trkpt><trkpt lat="43.371048349659766" lon="11.404076654817466"><ele>368.0</ele><time>2026-04-30T13:32:12Z</time></trkpt><trkpt lat="43.37099103778463" lon="11.404190013830364"><ele>367.5</ele><time>2026-04-30T13:32:13Z</time></trkpt><trkpt lat="43.37092201683275" lon="11.4042880155184"><ele>367.0</ele><time>2026-04-30T13:32:14Z</time></trkpt><trkpt lat="43.37084142882556" lon="11.404367539873146"><ele>366.5</ele><time>2026-04-30T13:32:15Z</time></trkpt><trkpt lat="43.37074277825768" lon="11.404439928989062"><ele>366.0</ele><time>2026-04-30T13:32:16Z</time></trkpt><trkpt lat="43.37060124492426" lon="11.404462805438365"><ele>364.3333333333333</ele><time>2026-04-30T13:32:17Z</time></trkpt><trkpt lat="43.370452444903364" lon="11.404483907086794"><ele>362.66666666666663</ele><time>2026-04-30T13:32:18Z</time></trkpt><trkpt lat="43.37030391698201" lon="11.4044999127911"><ele>361.0</ele><time>2026-04-30T13:32:19Z</time></trkpt><trkpt lat="43.37014708655488" lon="11.40448364306766"><ele>361.0</ele><time>2026-04-30T13:32:20Z</time></trkpt><trkpt lat="43.37001031226394" lon="11.404477731911527"><ele>361.0</ele><time>2026-04-30T13:32:21Z</time></trkpt><trkpt lat="43.36988332882043" lon="11.404472052174814"><ele>361.0</ele><time>2026-04-30T13:32:22Z</time></trkpt><trkpt lat="43.36975149786857" lon="11.404465428986988"><ele>361.0</ele><time>2026-04-30T13:32:23Z</time></trkpt><trkpt lat="43.36961960871047" lon="11.404454204360439"><ele>359.5</ele><time>2026-04-30T13:32:24Z</time></trkpt><trkpt lat="43.36948964619717" lon="11.404453161074986"><ele>358.0</ele><time>2026-04-30T13:32:25Z</time></trkpt><trkpt lat="43.369358645606056" lon="11.404449524782844"><ele>356.5</ele><time>2026-04-30T13:32:26Z</time></trkpt><trkpt lat="43.36922975364994" lon="11.404450149415242"><ele>355.0</ele><time>2026-04-30T13:32:27Z</time></trkpt><trkpt lat="43.36910382116618" lon="11.404458782811007"><ele>355.0</ele><time>2026-04-30T13:32:28Z</time></trkpt><trkpt lat="43.368976055969306" lon="11.40447932606789"><ele>355.0</ele><time>2026-04-30T13:32:29Z</time></trkpt><trkpt lat="43.36884134987171" lon="11.404491232534053"><ele>355.0</ele><time>2026-04-30T13:32:30Z</time></trkpt><trkpt lat="43.3687034208929" lon="11.404492900057392"><ele>355.0</ele><time>2026-04-30T13:32:31Z</time></trkpt><trkpt lat="43.368565375137294" lon="11.40448125841296"><ele>354.25</ele><time>2026-04-30T13:32:32Z</time></trkpt><trkpt lat="43.368425791603926" lon="11.40444989841994"><ele>353.5</ele><time>2026-04-30T13:32:33Z</time></trkpt><trkpt lat="43.368283122417324" lon="11.404413677384031"><ele>352.75</ele><time>2026-04-30T13:32:34Z</time></trkpt><trkpt lat="43.36813378387594" lon="11.404388826643679"><ele>352.0</ele><time>2026-04-30T13:32:35Z</time></trkpt><trkpt lat="43.36798229902188" lon="11.404364316509794"><ele>351.25</ele><time>2026-04-30T13:32:36Z</time></trkpt><trkpt lat="43.36783240804817" lon="11.404341189360657"><ele>350.5</ele><time>2026-04-30T13:32:37Z</time></trkpt><trkpt lat="43.36769690749674" lon="11.40431852416121"><ele>349.75</ele><time>2026-04-30T13:32:38Z</time></trkpt><trkpt lat="43.36757962789046" lon="11.404304037771476"><ele>349.0</ele><time>2026-04-30T13:32:39Z</time></trkpt><trkpt lat="43.367465473955924" lon="11.404283750860314"><ele>349.0</ele><time>2026-04-30T13:32:40Z</time></trkpt><trkpt lat="43.367332190205104" lon="11.404264794634374"><ele>349.0</ele><time>2026-04-30T13:32:41Z</time></trkpt><trkpt lat="43.36719358500321" lon="11.404251759479756"><ele>349.0</ele><time>2026-04-30T13:32:42Z</time></trkpt><trkpt lat="43.367056996555675" lon="11.404270659407297"><ele>349.0</ele><time>2026-04-30T13:32:43.001Z</time></trkpt><trkpt lat="43.366922610733205" lon="11.404321858242177"><ele>349.0</ele><time>2026-04-30T13:32:44.001Z</time></trkpt><trkpt lat="43.36679485455269" lon="11.404396261577308"><ele>349.0</ele><time>2026-04-30T13:32:45.001Z</time></trkpt><trkpt lat="43.36668657665883" lon="11.404495624220916"><ele>349.0</ele><time>2026-04-30T13:32:46.001Z</time></trkpt><trkpt lat="43.36659399050055" lon="11.404606119325736"><ele>349.0</ele><time>2026-04-30T13:32:47.001Z</time></trkpt><trkpt lat="43.366505596081204" lon="11.404741166701005"><ele>348.66666666666663</ele><time>2026-04-30T13:32:48.001Z</time></trkpt><trkpt lat="43.36642942492131" lon="11.404898435749338"><ele>348.3333333333333</ele><time>2026-04-30T13:32:49.001Z</time></trkpt><trkpt lat="43.36635591122653" lon="11.405077088216112"><ele>348.0</ele><time>2026-04-30T13:32:50.001Z</time></trkpt><trkpt lat="43.36626261666191" lon="11.405288609716381"><ele>348.0</ele><time>2026-04-30T13:32:51.001Z</time></trkpt><trkpt lat="43.36619119992841" lon="11.405483386563734"><ele>348.0</ele><time>2026-04-30T13:32:51.999Z</time></trkpt><trkpt lat="43.36611865960116" lon="11.405666107843452"><ele>348.0</ele><time>2026-04-30T13:32:52.999Z</time></trkpt><trkpt lat="43.366056349285" lon="11.40581916484258"><ele>348.0</ele><time>2026-04-30T13:32:53.999Z</time></trkpt><trkpt lat="43.366001476141655" lon="11.405943572321863"><ele>347.2</ele><time>2026-04-30T13:32:54.999Z</time></trkpt><trkpt lat="43.3659594174525" lon="11.406035588029471"><ele>346.4</ele><time>2026-04-30T13:32:55.999Z</time></trkpt><trkpt lat="43.36590531133171" lon="11.4061399408406"><ele>345.59999999999997</ele><time>2026-04-30T13:32:56.999Z</time></trkpt><trkpt lat="43.36579996935607" lon="11.406193573298632"><ele>344.79999999999995</ele><time>2026-04-30T13:32:57.999Z</time></trkpt><trkpt lat="43.36568314319604" lon="11.40624176775843"><ele>344.0</ele><time>2026-04-30T13:32:58.999Z</time></trkpt><trkpt lat="43.36552809681098" lon="11.406307975635016"><ele>343.0</ele><time>2026-04-30T13:33:00Z</time></trkpt><trkpt lat="43.36540983251218" lon="11.406356415547712"><ele>342.0</ele><time>2026-04-30T13:33:01Z</time></trkpt><trkpt lat="43.365316781772805" lon="11.406393792885982"><ele>341.0</ele><time>2026-04-30T13:33:02Z</time></trkpt><trkpt lat="43.3652315730046" lon="11.406427578765372"><ele>340.0</ele><time>2026-04-30T13:33:03Z</time></trkpt><trkpt lat="43.36515735757982" lon="11.406455116540238"><ele>339.0</ele><time>2026-04-30T13:33:04Z</time></trkpt><trkpt lat="43.365082806615256" lon="11.406461952593057"><ele>339.0</ele><time>2026-04-30T13:33:05Z</time></trkpt><trkpt lat="43.36500130913945" lon="11.406472060444386"><ele>339.0</ele><time>2026-04-30T13:33:06Z</time></trkpt><trkpt lat="43.36494139612926" lon="11.406400101732874"><ele>339.0</ele><time>2026-04-30T13:33:07Z</time></trkpt><trkpt lat="43.36488647145954" lon="11.40631668586464"><ele>339.0</ele><time>2026-04-30T13:33:08Z</time></trkpt><trkpt lat="43.36481756315332" lon="11.406230758768253"><ele>339.0</ele><time>2026-04-30T13:33:09Z</time></trkpt><trkpt lat="43.36475485643769" lon="11.40614601176801"><ele>339.0</ele><time>2026-04-30T13:33:10Z</time></trkpt><trkpt lat="43.36469427440354" lon="11.406063613900363"><ele>337.0</ele><time>2026-04-30T13:33:11Z</time></trkpt><trkpt lat="43.36463098214028" lon="11.406001345714591"><ele>335.0</ele><time>2026-04-30T13:33:12Z</time></trkpt><trkpt lat="43.364559197489434" lon="11.405991670675933"><ele>333.0</ele><time>2026-04-30T13:33:13Z</time></trkpt><trkpt lat="43.36443856362906" lon="11.406004698226743"><ele>331.0</ele><time>2026-04-30T13:33:15Z</time></trkpt><trkpt lat="43.36435428149332" lon="11.40605782166936"><ele>329.0</ele><time>2026-04-30T13:33:16Z</time></trkpt><trkpt lat="43.36424778306662" lon="11.40613897220571"><ele>329.0</ele><time>2026-04-30T13:33:17Z</time></trkpt><trkpt lat="43.36413843799459" lon="11.406192526901314"><ele>329.0</ele><time>2026-04-30T13:33:18Z</time></trkpt><trkpt lat="43.364052931630056" lon="11.406252263714032"><ele>329.0</ele><time>2026-04-30T13:33:19Z</time></trkpt><trkpt lat="43.36395184387106" lon="11.40632288609767"><ele>329.0</ele><time>2026-04-30T13:33:20Z</time></trkpt><trkpt lat="43.36385420565283" lon="11.406388919281666"><ele>329.0</ele><time>2026-04-30T13:33:21Z</time></trkpt><trkpt lat="43.36375160099871" lon="11.406456804690112"><ele>327.0</ele><time>2026-04-30T13:33:22Z</time></trkpt><trkpt lat="43.36364950060625" lon="11.406522945754066"><ele>325.0</ele><time>2026-04-30T13:33:23Z</time></trkpt><trkpt lat="43.36355535407079" lon="11.40658298660272"><ele>323.0</ele><time>2026-04-30T13:33:24Z</time></trkpt><trkpt lat="43.36345713070225" lon="11.406645627415962"><ele>321.0</ele><time>2026-04-30T13:33:25Z</time></trkpt><trkpt lat="43.36336344737215" lon="11.406705372834603"><ele>319.0</ele><time>2026-04-30T13:33:26Z</time></trkpt><trkpt lat="43.36326845177162" lon="11.406765955168334"><ele>319.0</ele><time>2026-04-30T13:33:27Z</time></trkpt><trkpt lat="43.36316995102116" lon="11.406827087076222"><ele>319.0</ele><time>2026-04-30T13:33:28Z</time></trkpt><trkpt lat="43.363069562266546" lon="11.406902239109588"><ele>319.0</ele><time>2026-04-30T13:33:29Z</time></trkpt><trkpt lat="43.36294093801725" lon="11.406986612034975"><ele>319.0</ele><time>2026-04-30T13:33:30Z</time></trkpt><trkpt lat="43.36278743505265" lon="11.407041108156136"><ele>317.3333333333333</ele><time>2026-04-30T13:33:31Z</time></trkpt><trkpt lat="43.36262126956416" lon="11.407112165159608"><ele>315.6666666666667</ele><time>2026-04-30T13:33:32Z</time></trkpt><trkpt lat="43.3624644998835" lon="11.407176820144235"><ele>314.0</ele><time>2026-04-30T13:33:33Z</time></trkpt><trkpt lat="43.36230249939899" lon="11.407231402957168"><ele>312.0</ele><time>2026-04-30T13:33:34Z</time></trkpt><trkpt lat="43.36215290979803" lon="11.407275826249057"><ele>310.0</ele><time>2026-04-30T13:33:35Z</time></trkpt><trkpt lat="43.36201007287501" lon="11.407315208039083"><ele>308.0</ele><time>2026-04-30T13:33:36Z</time></trkpt><trkpt lat="43.361883767245494" lon="11.407349117160487"><ele>306.0</ele><time>2026-04-30T13:33:37Z</time></trkpt><trkpt lat="43.36178354595417" lon="11.407376023452063"><ele>306.0</ele><time>2026-04-30T13:33:38Z</time></trkpt><trkpt lat="43.36169570141258" lon="11.407399606972152"><ele>306.0</ele><time>2026-04-30T13:33:39Z</time></trkpt><trkpt lat="43.36161001896655" lon="11.407422490922775"><ele>306.0</ele><time>2026-04-30T13:33:40Z</time></trkpt><trkpt lat="43.361522662052785" lon="11.407444235724627"><ele>306.0</ele><time>2026-04-30T13:33:41Z</time></trkpt><trkpt lat="43.36144866288032" lon="11.407479791784896"><ele>306.0</ele><time>2026-04-30T13:33:42Z</time></trkpt><trkpt lat="43.36134481169037" lon="11.407500721825638"><ele>306.0</ele><time>2026-04-30T13:33:43Z</time></trkpt><trkpt lat="43.3612745821326" lon="11.407492477277193"><ele>304.40000000000003</ele><time>2026-04-30T13:33:44Z</time></trkpt><trkpt lat="43.36117169080231" lon="11.407505994000394"><ele>302.8</ele><time>2026-04-30T13:33:45Z</time></trkpt><trkpt lat="43.3610677998727" lon="11.407517059624865"><ele>301.20000000000005</ele><time>2026-04-30T13:33:46Z</time></trkpt><trkpt lat="43.36097662602352" lon="11.407526411728034"><ele>299.6</ele><time>2026-04-30T13:33:47Z</time></trkpt><trkpt lat="43.36087639895103" lon="11.407558146286595"><ele>298.0</ele><time>2026-04-30T13:33:48Z</time></trkpt><trkpt lat="43.36076450878111" lon="11.407554867616605"><ele>298.0</ele><time>2026-04-30T13:33:49Z</time></trkpt><trkpt lat="43.36066339183421" lon="11.407542627979506"><ele>298.0</ele><time>2026-04-30T13:33:50Z</time></trkpt><trkpt lat="43.360573406299494" lon="11.407528664731451"><ele>298.0</ele><time>2026-04-30T13:33:51Z</time></trkpt><trkpt lat="43.3604499552401" lon="11.407503669520716"><ele>298.0</ele><time>2026-04-30T13:33:52Z</time></trkpt><trkpt lat="43.3603083125616" lon="11.40747521069684"><ele>297.4</ele><time>2026-04-30T13:33:53Z</time></trkpt><trkpt lat="43.36020975673585" lon="11.407446990224303"><ele>296.8</ele><time>2026-04-30T13:33:54Z</time></trkpt><trkpt lat="43.360122153348904" lon="11.407430362311601"><ele>296.2</ele><time>2026-04-30T13:33:55Z</time></trkpt><trkpt lat="43.3600221198809" lon="11.40740959618015"><ele>295.6</ele><time>2026-04-30T13:33:56Z</time></trkpt><trkpt lat="43.35993283713522" lon="11.407379382884907"><ele>295.0</ele><time>2026-04-30T13:33:57Z</time></trkpt><trkpt lat="43.35984700543959" lon="11.407367713320793"><ele>295.0</ele><time>2026-04-30T13:33:58Z</time></trkpt><trkpt lat="43.35975700102987" lon="11.407384417359"><ele>295.0</ele><time>2026-04-30T13:33:59Z</time></trkpt><trkpt lat="43.359671159195045" lon="11.407448871933399"><ele>295.0</ele><time>2026-04-30T13:34:00Z</time></trkpt><trkpt lat="43.35960138282151" lon="11.407541542457382"><ele>295.0</ele><time>2026-04-30T13:34:01Z</time></trkpt><trkpt lat="43.359524080379735" lon="11.40764216569454"><ele>295.0</ele><time>2026-04-30T13:34:02Z</time></trkpt><trkpt lat="43.3594702065548" lon="11.40777221491817"><ele>295.2</ele><time>2026-04-30T13:34:03Z</time></trkpt><trkpt lat="43.35945068407115" lon="11.40791075676155"><ele>295.4</ele><time>2026-04-30T13:34:04Z</time></trkpt><trkpt lat="43.35945324908389" lon="11.408027670751043"><ele>295.6</ele><time>2026-04-30T13:34:05Z</time></trkpt><trkpt lat="43.359479836541965" lon="11.40814012388341"><ele>295.8</ele><time>2026-04-30T13:34:06Z</time></trkpt><trkpt lat="43.359521908498806" lon="11.408245732181967"><ele>296.0</ele><time>2026-04-30T13:34:07Z</time></trkpt><trkpt lat="43.35962013910441" lon="11.408314008323448"><ele>294.25</ele><time>2026-04-30T13:34:08Z</time></trkpt><trkpt lat="43.35973559474262" lon="11.408397316355414"><ele>292.5</ele><time>2026-04-30T13:34:09Z</time></trkpt><trkpt lat="43.35985482983355" lon="11.408516041761406"><ele>290.75</ele><time>2026-04-30T13:34:10Z</time></trkpt><trkpt lat="43.35995037898094" lon="11.408592811421475"><ele>289.0</ele><time>2026-04-30T13:34:11Z</time></trkpt><trkpt lat="43.36007118495742" lon="11.408682604285257"><ele>289.0</ele><time>2026-04-30T13:34:12Z</time></trkpt><trkpt lat="43.36018746888086" lon="11.408774135078033"><ele>289.0</ele><time>2026-04-30T13:34:13Z</time></trkpt><trkpt lat="43.36028705484912" lon="11.40886429124684"><ele>289.0</ele><time>2026-04-30T13:34:14Z</time></trkpt><trkpt lat="43.36038278525838" lon="11.40897632436779"><ele>289.0</ele><time>2026-04-30T13:34:15Z</time></trkpt><trkpt lat="43.360448269278116" lon="11.409128123947498"><ele>288.5</ele><time>2026-04-30T13:34:16Z</time></trkpt><trkpt lat="43.36052536729306" lon="11.409274893488904"><ele>288.0</ele><time>2026-04-30T13:34:17Z</time></trkpt><trkpt lat="43.360605271176645" lon="11.409409813027477"><ele>287.5</ele><time>2026-04-30T13:34:18Z</time></trkpt><trkpt lat="43.36065974949915" lon="11.4095308516354"><ele>287.0</ele><time>2026-04-30T13:34:19Z</time></trkpt><trkpt lat="43.36069513197321" lon="11.409661281049447"><ele>285.8</ele><time>2026-04-30T13:34:20Z</time></trkpt><trkpt lat="43.360736406899434" lon="11.409772783166622"><ele>284.6</ele><time>2026-04-30T13:34:21Z</time></trkpt><trkpt lat="43.36077929799837" lon="11.409898905150838"><ele>283.40000000000003</ele><time>2026-04-30T13:34:22Z</time></trkpt><trkpt lat="43.36081919664301" lon="11.410026134416754"><ele>282.2</ele><time>2026-04-30T13:34:23Z</time></trkpt><trkpt lat="43.36084715054931" lon="11.410146542747258"><ele>281.0</ele><time>2026-04-30T13:34:24Z</time></trkpt><trkpt lat="43.3608609272961" lon="11.410287937111482"><ele>281.0</ele><time>2026-04-30T13:34:25Z</time></trkpt><trkpt lat="43.360841884192794" lon="11.410437662670974"><ele>281.0</ele><time>2026-04-30T13:34:26Z</time></trkpt><trkpt lat="43.36081184617995" lon="11.410586335530569"><ele>281.0</ele><time>2026-04-30T13:34:27Z</time></trkpt><trkpt lat="43.36072230198306" lon="11.410689750551251"><ele>281.0</ele><time>2026-04-30T13:34:28Z</time></trkpt><trkpt lat="43.36061816889241" lon="11.410741458421613"><ele>278.25</ele><time>2026-04-30T13:34:29Z</time></trkpt><trkpt lat="43.360504146078505" lon="11.410809057120224"><ele>275.5</ele><time>2026-04-30T13:34:30Z</time></trkpt><trkpt lat="43.36037382270662" lon="11.410893705845101"><ele>272.75</ele><time>2026-04-30T13:34:31Z</time></trkpt><trkpt lat="43.36025334866275" lon="11.410952978588378"><ele>270.0</ele><time>2026-04-30T13:34:32Z</time></trkpt><trkpt lat="43.3601511304806" lon="11.41100684871443"><ele>270.0</ele><time>2026-04-30T13:34:33Z</time></trkpt><trkpt lat="43.36006735435736" lon="11.411067004521394"><ele>270.0</ele><time>2026-04-30T13:34:34Z</time></trkpt><trkpt lat="43.36000316236199" lon="11.411148218420928"><ele>270.0</ele><time>2026-04-30T13:34:35Z</time></trkpt><trkpt lat="43.35995186799475" lon="11.411251097919912"><ele>270.0</ele><time>2026-04-30T13:34:36Z</time></trkpt><trkpt lat="43.35992178588524" lon="11.411363587110149"><ele>270.0</ele><time>2026-04-30T13:34:37Z</time></trkpt><trkpt lat="43.35990433273048" lon="11.41148120653585"><ele>270.0</ele><time>2026-04-30T13:34:38Z</time></trkpt><trkpt lat="43.359914352897725" lon="11.41159498960827"><ele>270.0</ele><time>2026-04-30T13:34:39Z</time></trkpt><trkpt lat="43.35993467953054" lon="11.411687732052464"><ele>270.0</ele><time>2026-04-30T13:34:40Z</time></trkpt><trkpt lat="43.359964708731454" lon="11.411833788191611"><ele>270.0</ele><time>2026-04-30T13:34:42Z</time></trkpt><trkpt lat="43.35995799049047" lon="11.41195365166371"><ele>270.0</ele><time>2026-04-30T13:34:44Z</time></trkpt><trkpt lat="43.35984970516136" lon="11.412053799651925"><ele>270.0</ele><time>2026-04-30T13:34:46Z</time></trkpt><trkpt lat="43.35976832551436" lon="11.412031900894224"><ele>267.6</ele><time>2026-04-30T13:34:47.001Z</time></trkpt><trkpt lat="43.35969900357362" lon="11.411959598235347"><ele>265.2</ele><time>2026-04-30T13:34:48.001Z</time></trkpt><trkpt lat="43.35965271290047" lon="11.411844086752724"><ele>262.8</ele><time>2026-04-30T13:34:49.001Z</time></trkpt><trkpt lat="43.35963523935235" lon="11.411695541973009"><ele>260.4</ele><time>2026-04-30T13:34:50.001Z</time></trkpt><trkpt lat="43.359612091158695" lon="11.41151788285016"><ele>258.0</ele><time>2026-04-30T13:34:51.001Z</time></trkpt><trkpt lat="43.359584321637186" lon="11.41135317629727"><ele>259.2</ele><time>2026-04-30T13:34:52.001Z</time></trkpt><trkpt lat="43.35954591205479" lon="11.411241840257512"><ele>260.4</ele><time>2026-04-30T13:34:53.001Z</time></trkpt><trkpt lat="43.35950125250928" lon="11.411136743769127"><ele>261.59999999999997</ele><time>2026-04-30T13:34:54.001Z</time></trkpt><trkpt lat="43.35946715171713" lon="11.4110265127821"><ele>262.8</ele><time>2026-04-30T13:34:55.001Z</time></trkpt><trkpt lat="43.35937596950289" lon="11.410957747048913"><ele>264.0</ele><time>2026-04-30T13:34:57.001Z</time></trkpt><trkpt lat="43.35927426983616" lon="11.410880666474487"><ele>264.0</ele><time>2026-04-30T13:34:59Z</time></trkpt><trkpt lat="43.35919393537512" lon="11.410897727810534"><ele>264.0</ele><time>2026-04-30T13:35:00Z</time></trkpt><trkpt lat="43.35911966201769" lon="11.410949749506425"><ele>264.0</ele><time>2026-04-30T13:35:01Z</time></trkpt><trkpt lat="43.359055439886006" lon="11.411077781218033"><ele>264.0</ele><time>2026-04-30T13:35:02Z</time></trkpt><trkpt lat="43.35900904959313" lon="11.411221766076302"><ele>264.0</ele><time>2026-04-30T13:35:03Z</time></trkpt><trkpt lat="43.35897952188115" lon="11.411354230722951"><ele>262.8</ele><time>2026-04-30T13:35:04Z</time></trkpt><trkpt lat="43.358971561870206" lon="11.411481077385828"><ele>261.59999999999997</ele><time>2026-04-30T13:35:05Z</time></trkpt><trkpt lat="43.35896201070739" lon="11.411631736298725"><ele>260.4</ele><time>2026-04-30T13:35:06Z</time></trkpt><trkpt lat="43.358970761660885" lon="11.411772181854959"><ele>259.2</ele><time>2026-04-30T13:35:07Z</time></trkpt><trkpt lat="43.35897595894728" lon="11.411887973212451"><ele>258.0</ele><time>2026-04-30T13:35:08Z</time></trkpt><trkpt lat="43.35897519098771" lon="11.411988136558838"><ele>258.0</ele><time>2026-04-30T13:35:09Z</time></trkpt><trkpt lat="43.358944767391144" lon="11.412098103170209"><ele>258.0</ele><time>2026-04-30T13:35:10Z</time></trkpt><trkpt lat="43.35889975379805" lon="11.412213228476897"><ele>258.0</ele><time>2026-04-30T13:35:11Z</time></trkpt><trkpt lat="43.35880009036813" lon="11.412285447158643"><ele>258.0</ele><time>2026-04-30T13:35:12Z</time></trkpt><trkpt lat="43.35870257275254" lon="11.412366080181995"><ele>258.0</ele><time>2026-04-30T13:35:13Z</time></trkpt><trkpt lat="43.35856952252095" lon="11.412411484023604"><ele>255.25</ele><time>2026-04-30T13:35:14Z</time></trkpt><trkpt lat="43.35843317227423" lon="11.41242396186087"><ele>252.5</ele><time>2026-04-30T13:35:15Z</time></trkpt><trkpt lat="43.35832099804283" lon="11.412417881622705"><ele>249.75</ele><time>2026-04-30T13:35:16Z</time></trkpt><trkpt lat="43.3582151332324" lon="11.41241978146442"><ele>247.0</ele><time>2026-04-30T13:35:17Z</time></trkpt><trkpt lat="43.35810155420066" lon="11.412411858853988"><ele>246.0</ele><time>2026-04-30T13:35:18Z</time></trkpt><trkpt lat="43.35798778295029" lon="11.412386933164921"><ele>245.0</ele><time>2026-04-30T13:35:19Z</time></trkpt><trkpt lat="43.35787935074584" lon="11.41234076494337"><ele>244.0</ele><time>2026-04-30T13:35:20Z</time></trkpt><trkpt lat="43.357789556755094" lon="11.412291644246462"><ele>243.0</ele><time>2026-04-30T13:35:21Z</time></trkpt><trkpt lat="43.35770368359277" lon="11.412249268795426"><ele>242.0</ele><time>2026-04-30T13:35:22Z</time></trkpt><trkpt lat="43.35761804787137" lon="11.412228850843348"><ele>242.0</ele><time>2026-04-30T13:35:23Z</time></trkpt><trkpt lat="43.35751205975934" lon="11.412247382654735"><ele>242.0</ele><time>2026-04-30T13:35:24Z</time></trkpt><trkpt lat="43.357401160245665" lon="11.412281401456346"><ele>242.0</ele><time>2026-04-30T13:35:25Z</time></trkpt><trkpt lat="43.35732970793699" lon="11.412335939941602"><ele>242.0</ele><time>2026-04-30T13:35:26Z</time></trkpt><trkpt lat="43.35724869217233" lon="11.412415415722787"><ele>242.0</ele><time>2026-04-30T13:35:27Z</time></trkpt><trkpt lat="43.357178936685486" lon="11.412499443370368"><ele>240.75</ele><time>2026-04-30T13:35:28Z</time></trkpt><trkpt lat="43.357114397260744" lon="11.412609940258514"><ele>239.5</ele><time>2026-04-30T13:35:29Z</time></trkpt><trkpt lat="43.357053724927695" lon="11.412756376981775"><ele>238.25</ele><time>2026-04-30T13:35:30Z</time></trkpt><trkpt lat="43.357003860406145" lon="11.412914813631572"><ele>237.0</ele><time>2026-04-30T13:35:31Z</time></trkpt><trkpt lat="43.35695012930978" lon="11.41307518603985"><ele>236.25</ele><time>2026-04-30T13:35:32Z</time></trkpt><trkpt lat="43.356896659763194" lon="11.41324042471756"><ele>235.5</ele><time>2026-04-30T13:35:33Z</time></trkpt><trkpt lat="43.35684266206245" lon="11.413412275197388"><ele>234.75</ele><time>2026-04-30T13:35:34Z</time></trkpt><trkpt lat="43.35678858783203" lon="11.413589632372336"><ele>234.0</ele><time>2026-04-30T13:35:35Z</time></trkpt><trkpt lat="43.35674154892431" lon="11.413770773591732"><ele>233.25</ele><time>2026-04-30T13:35:36Z</time></trkpt><trkpt lat="43.35669515197155" lon="11.413928252047063"><ele>232.5</ele><time>2026-04-30T13:35:37Z</time></trkpt><trkpt lat="43.356664726684656" lon="11.414083454849587"><ele>231.75</ele><time>2026-04-30T13:35:38Z</time></trkpt><trkpt lat="43.35662591947209" lon="11.414227213861087"><ele>231.0</ele><time>2026-04-30T13:35:39Z</time></trkpt><trkpt lat="43.3565904471999" lon="11.414371238828126"><ele>231.0</ele><time>2026-04-30T13:35:40Z</time></trkpt><trkpt lat="43.35655605249891" lon="11.41453060791617"><ele>231.00000000000003</ele><time>2026-04-30T13:35:41Z</time></trkpt><trkpt lat="43.356523779375216" lon="11.414675576972396"><ele>231.00000000000003</ele><time>2026-04-30T13:35:42Z</time></trkpt><trkpt lat="43.356489406182384" lon="11.414812154165073"><ele>231.0</ele><time>2026-04-30T13:35:43Z</time></trkpt><trkpt lat="43.35645887181692" lon="11.41494549157341"><ele>231.0</ele><time>2026-04-30T13:35:44Z</time></trkpt><trkpt lat="43.35643196674034" lon="11.415081378520993"><ele>230.60000000000002</ele><time>2026-04-30T13:35:45Z</time></trkpt><trkpt lat="43.35641009873755" lon="11.41520445621191"><ele>230.20000000000002</ele><time>2026-04-30T13:35:46Z</time></trkpt><trkpt lat="43.35638975852053" lon="11.41531396002398"><ele>229.79999999999998</ele><time>2026-04-30T13:35:47Z</time></trkpt><trkpt lat="43.356364008938286" lon="11.415407997700065"><ele>229.39999999999998</ele><time>2026-04-30T13:35:48Z</time></trkpt><trkpt lat="43.35633196653053" lon="11.41554828130629"><ele>229.0</ele><time>2026-04-30T13:35:50Z</time></trkpt><trkpt lat="43.35630473135333" lon="11.415677066398233"><ele>227.83333333333331</ele><time>2026-04-30T13:35:52Z</time></trkpt><trkpt lat="43.356292001406175" lon="11.415774410605362"><ele>226.66666666666666</ele><time>2026-04-30T13:36:39.001Z</time></trkpt><trkpt lat="43.35627761895414" lon="11.415878457779119"><ele>225.5</ele><time>2026-04-30T13:36:41.001Z</time></trkpt><trkpt lat="43.35636253066874" lon="11.415935103334784"><ele>224.33333333333331</ele><time>2026-04-30T13:36:42.001Z</time></trkpt><trkpt lat="43.35641371894594" lon="11.415991201606777"><ele>223.16666666666666</ele><time>2026-04-30T13:36:43.001Z</time></trkpt><trkpt lat="43.35646795989343" lon="11.416059083746156"><ele>222.0</ele><time>2026-04-30T13:36:44.001Z</time></trkpt><trkpt lat="43.35652291213864" lon="11.416149806754992"><ele>221.85714285714286</ele><time>2026-04-30T13:36:45.001Z</time></trkpt><trkpt lat="43.356571811995835" lon="11.416229189443191"><ele>221.71428571428572</ele><time>2026-04-30T13:36:46.001Z</time></trkpt><trkpt lat="43.35661626073756" lon="11.416297439580308"><ele>221.57142857142858</ele><time>2026-04-30T13:36:47.001Z</time></trkpt><trkpt lat="43.35666603067114" lon="11.416371864707306"><ele>221.42857142857144</ele><time>2026-04-30T13:36:48.001Z</time></trkpt><trkpt lat="43.35671686693714" lon="11.416454878125904"><ele>221.28571428571428</ele><time>2026-04-30T13:36:49.001Z</time></trkpt><trkpt lat="43.35676589448883" lon="11.416530992235165"><ele>221.14285714285717</ele><time>2026-04-30T13:36:50.001Z</time></trkpt><trkpt lat="43.356813699628155" lon="11.41660458705952"><ele>221.0</ele><time>2026-04-30T13:36:51.001Z</time></trkpt><trkpt lat="43.356863971488494" lon="11.416690697689072"><ele>220.60000000000002</ele><time>2026-04-30T13:36:52.001Z</time></trkpt><trkpt lat="43.356923536205194" lon="11.41678671705611"><ele>220.20000000000002</ele><time>2026-04-30T13:36:53.001Z</time></trkpt><trkpt lat="43.35699903594476" lon="11.41689145173842"><ele>219.79999999999998</ele><time>2026-04-30T13:36:54.001Z</time></trkpt><trkpt lat="43.357067476033755" lon="11.416989781146677"><ele>219.39999999999998</ele><time>2026-04-30T13:36:55.001Z</time></trkpt><trkpt lat="43.357140047228434" lon="11.417085206625984"><ele>219.0</ele><time>2026-04-30T13:36:56.001Z</time></trkpt><trkpt lat="43.3572011900243" lon="11.417184093568824"><ele>219.2</ele><time>2026-04-30T13:36:57.001Z</time></trkpt><trkpt lat="43.357265441428694" lon="11.417282506132823"><ele>219.39999999999998</ele><time>2026-04-30T13:36:58.001Z</time></trkpt><trkpt lat="43.357329054654734" lon="11.417378206888914"><ele>219.6</ele><time>2026-04-30T13:36:59.001Z</time></trkpt><trkpt lat="43.35739433017921" lon="11.417477686421645"><ele>219.8</ele><time>2026-04-30T13:37:00.001Z</time></trkpt><trkpt lat="43.357453288208795" lon="11.417580353565533"><ele>220.0</ele><time>2026-04-30T13:37:01.001Z</time></trkpt><trkpt lat="43.35752713463932" lon="11.417684720335917"><ele>220.0</ele><time>2026-04-30T13:37:02.001Z</time></trkpt><trkpt lat="43.357618168637885" lon="11.417829175695761"><ele>220.0</ele><time>2026-04-30T13:37:03.001Z</time></trkpt><trkpt lat="43.35770207788521" lon="11.417961603988557"><ele>220.0</ele><time>2026-04-30T13:37:04Z</time></trkpt><trkpt lat="43.35778262820452" lon="11.418084256573621"><ele>220.0</ele><time>2026-04-30T13:37:05Z</time></trkpt><trkpt lat="43.357862416679396" lon="11.418205305001038"><ele>219.8</ele><time>2026-04-30T13:37:06Z</time></trkpt><trkpt lat="43.35794069907673" lon="11.418324259794137"><ele>219.6</ele><time>2026-04-30T13:37:07Z</time></trkpt><trkpt lat="43.35801111931409" lon="11.418422374948873"><ele>219.39999999999998</ele><time>2026-04-30T13:37:08Z</time></trkpt><trkpt lat="43.35805490282371" lon="11.418523196467147"><ele>219.2</ele><time>2026-04-30T13:37:09Z</time></trkpt><trkpt lat="43.358117851913185" lon="11.41858810870115"><ele>219.0</ele><time>2026-04-30T13:37:10Z</time></trkpt><trkpt lat="43.35817760565666" lon="11.418683663554454"><ele>219.39999999999998</ele><time>2026-04-30T13:37:11Z</time></trkpt><trkpt lat="43.35823108820495" lon="11.418784944688552"><ele>219.79999999999998</ele><time>2026-04-30T13:37:12Z</time></trkpt><trkpt lat="43.35829520885123" lon="11.418875325430903"><ele>220.20000000000002</ele><time>2026-04-30T13:37:13Z</time></trkpt><trkpt lat="43.358351693946325" lon="11.418970831308892"><ele>220.60000000000002</ele><time>2026-04-30T13:37:14Z</time></trkpt><trkpt lat="43.3584104152082" lon="11.419071388983282"><ele>221.0</ele><time>2026-04-30T13:37:15Z</time></trkpt><trkpt lat="43.35847730480926" lon="11.419165129122709"><ele>221.20000000000002</ele><time>2026-04-30T13:37:16Z</time></trkpt><trkpt lat="43.35855439305193" lon="11.419284497351196"><ele>221.40000000000003</ele><time>2026-04-30T13:37:17Z</time></trkpt><trkpt lat="43.358628826318295" lon="11.419400422186744"><ele>221.6</ele><time>2026-04-30T13:37:18Z</time></trkpt><trkpt lat="43.35869495423415" lon="11.419504305398965"><ele>221.8</ele><time>2026-04-30T13:37:19Z</time></trkpt><trkpt lat="43.3587520215408" lon="11.419594209258184"><ele>222.0</ele><time>2026-04-30T13:37:20Z</time></trkpt><trkpt lat="43.358802424708486" lon="11.419671699579816"><ele>222.5</ele><time>2026-04-30T13:37:21Z</time></trkpt><trkpt lat="43.35884497708086" lon="11.419738099411843"><ele>223.0</ele><time>2026-04-30T13:37:22Z</time></trkpt><trkpt lat="43.35889647729978" lon="11.419821147403123"><ele>223.5</ele><time>2026-04-30T13:37:24Z</time></trkpt><trkpt lat="43.358930883964156" lon="11.419902320381246"><ele>224.0</ele><time>2026-04-30T13:37:27Z</time></trkpt><trkpt lat="43.35896235929295" lon="11.41998820396835"><ele>224.5</ele><time>2026-04-30T13:37:29Z</time></trkpt><trkpt lat="43.35900871440106" lon="11.419910947013053"><ele>225.0</ele><time>2026-04-30T13:37:33Z</time></trkpt><trkpt lat="43.35890920757448" lon="11.419839227517349"><ele>225.0</ele><time>2026-04-30T13:37:35Z</time></trkpt><trkpt lat="43.35880847204639" lon="11.419693527194063"><ele>225.0</ele><time>2026-04-30T13:37:36Z</time></trkpt><trkpt lat="43.35871770229601" lon="11.419522424355073"><ele>225.0</ele><time>2026-04-30T13:37:37Z</time></trkpt><trkpt lat="43.35860169353156" lon="11.419347098893411"><ele>224.0</ele><time>2026-04-30T13:37:38Z</time></trkpt><trkpt lat="43.35848824253566" lon="11.41916339773461"><ele>223.0</ele><time>2026-04-30T13:37:39Z</time></trkpt><trkpt lat="43.35836402098435" lon="11.41899670280914"><ele>222.0</ele><time>2026-04-30T13:37:40Z</time></trkpt><trkpt lat="43.358264437121214" lon="11.418812080085603"><ele>221.75</ele><time>2026-04-30T13:37:41Z</time></trkpt><trkpt lat="43.35815626324087" lon="11.41866191920199"><ele>221.5</ele><time>2026-04-30T13:37:42Z</time></trkpt><trkpt lat="43.358063939001916" lon="11.418514093246046"><ele>221.25</ele><time>2026-04-30T13:37:43Z</time></trkpt><trkpt lat="43.357978353309015" lon="11.418374569232919"><ele>221.0</ele><time>2026-04-30T13:37:44Z</time></trkpt><trkpt lat="43.35789014535896" lon="11.418238841910515"><ele>220.75</ele><time>2026-04-30T13:37:45Z</time></trkpt><trkpt lat="43.35780181356043" lon="11.418110766607843"><ele>220.5</ele><time>2026-04-30T13:37:46Z</time></trkpt><trkpt lat="43.35772455710673" lon="11.417992011894796"><ele>220.25</ele><time>2026-04-30T13:37:47Z</time></trkpt><trkpt lat="43.35765028575028" lon="11.417884273043116"><ele>220.0</ele><time>2026-04-30T13:37:48Z</time></trkpt><trkpt lat="43.357584574044985" lon="11.417782649959854"><ele>220.0</ele><time>2026-04-30T13:37:49Z</time></trkpt><trkpt lat="43.357521792034994" lon="11.41767695282459"><ele>220.0</ele><time>2026-04-30T13:37:50Z</time></trkpt><trkpt lat="43.35745649430754" lon="11.417569300150854"><ele>220.0</ele><time>2026-04-30T13:37:51Z</time></trkpt><trkpt lat="43.35738944567428" lon="11.417468688586062"><ele>220.0</ele><time>2026-04-30T13:37:52Z</time></trkpt><trkpt lat="43.35731892306207" lon="11.417367596287233"><ele>220.0</ele><time>2026-04-30T13:37:53Z</time></trkpt><trkpt lat="43.3572486204373" lon="11.417268289994533"><ele>219.83333333333331</ele><time>2026-04-30T13:37:54Z</time></trkpt><trkpt lat="43.35718040390767" lon="11.417169784483786"><ele>219.66666666666666</ele><time>2026-04-30T13:37:55Z</time></trkpt><trkpt lat="43.3571202484758" lon="11.417070730128495"><ele>219.5</ele><time>2026-04-30T13:37:56Z</time></trkpt><trkpt lat="43.35706853441461" lon="11.416993997371067"><ele>219.33333333333331</ele><time>2026-04-30T13:37:57Z</time></trkpt><trkpt lat="43.35702148289275" lon="11.416915011410223"><ele>219.16666666666666</ele><time>2026-04-30T13:37:58Z</time></trkpt><trkpt lat="43.35697001627122" lon="11.41684591958243"><ele>219.0</ele><time>2026-04-30T13:37:59Z</time></trkpt><trkpt lat="43.356914565341505" lon="11.416799863378664"><ele>219.0</ele><time>2026-04-30T13:38:00Z</time></trkpt><trkpt lat="43.356813408387715" lon="11.41685830037666"><ele>219.0</ele><time>2026-04-30T13:38:02Z</time></trkpt><trkpt lat="43.356790426074205" lon="11.417084403504811"><ele>219.0</ele><time>2026-04-30T13:38:04Z</time></trkpt><trkpt lat="43.35675899008522" lon="11.417252175839748"><ele>219.0</ele><time>2026-04-30T13:38:05Z</time></trkpt><trkpt lat="43.35669973693578" lon="11.417423717601507"><ele>219.0</ele><time>2026-04-30T13:38:06Z</time></trkpt><trkpt lat="43.356613125820935" lon="11.417610573390336"><ele>219.0</ele><time>2026-04-30T13:38:07Z</time></trkpt><trkpt lat="43.35651368226557" lon="11.417811940619831"><ele>219.0</ele><time>2026-04-30T13:38:08Z</time></trkpt><trkpt lat="43.35642526979471" lon="11.418004721432277"><ele>218.66666666666669</ele><time>2026-04-30T13:38:09Z</time></trkpt><trkpt lat="43.35634098797402" lon="11.418191141789782"><ele>218.33333333333334</ele><time>2026-04-30T13:38:10Z</time></trkpt><trkpt lat="43.356255768925244" lon="11.418364913021852"><ele>218.0</ele><time>2026-04-30T13:38:11Z</time></trkpt><trkpt lat="43.35617085774646" lon="11.418533361858218"><ele>218.0</ele><time>2026-04-30T13:38:12Z</time></trkpt><trkpt lat="43.356089610630804" lon="11.418703889199467"><ele>218.0</ele><time>2026-04-30T13:38:13Z</time></trkpt><trkpt lat="43.35600911095406" lon="11.418875994827834"><ele>218.0</ele><time>2026-04-30T13:38:14Z</time></trkpt><trkpt lat="43.35593011747371" lon="11.419041097767332"><ele>218.0</ele><time>2026-04-30T13:38:15Z</time></trkpt><trkpt lat="43.35585418458111" lon="11.41920541099604"><ele>217.75</ele><time>2026-04-30T13:38:16Z</time></trkpt><trkpt lat="43.35578050781634" lon="11.419370112814752"><ele>217.5</ele><time>2026-04-30T13:38:17Z</time></trkpt><trkpt lat="43.35571407461508" lon="11.419544396670608"><ele>217.25</ele><time>2026-04-30T13:38:18Z</time></trkpt><trkpt lat="43.3556546655547" lon="11.419728164660448"><ele>217.0</ele><time>2026-04-30T13:38:19Z</time></trkpt><trkpt lat="43.35560244277904" lon="11.419922044516948"><ele>217.0</ele><time>2026-04-30T13:38:20Z</time></trkpt><trkpt lat="43.35555729739671" lon="11.420123997649082"><ele>217.0</ele><time>2026-04-30T13:38:21.001Z</time></trkpt><trkpt lat="43.35552537260987" lon="11.420322017215003"><ele>217.0</ele><time>2026-04-30T13:38:22.001Z</time></trkpt><trkpt lat="43.35549063636302" lon="11.420506918193283"><ele>217.0</ele><time>2026-04-30T13:38:23.001Z</time></trkpt><trkpt lat="43.355458513578434" lon="11.42069260499649"><ele>217.25</ele><time>2026-04-30T13:38:24.001Z</time></trkpt><trkpt lat="43.35542887727432" lon="11.420881198787137"><ele>217.5</ele><time>2026-04-30T13:38:25.001Z</time></trkpt><trkpt lat="43.355396994923176" lon="11.42106955840533"><ele>217.75</ele><time>2026-04-30T13:38:26.001Z</time></trkpt><trkpt lat="43.35536745814089" lon="11.4212560459858"><ele>218.0</ele><time>2026-04-30T13:38:27.001Z</time></trkpt><trkpt lat="43.35534601098512" lon="11.421439967555894"><ele>218.0</ele><time>2026-04-30T13:38:28.001Z</time></trkpt><trkpt lat="43.35532980925922" lon="11.421617897193851"><ele>218.0</ele><time>2026-04-30T13:38:29.001Z</time></trkpt><trkpt lat="43.355313106743246" lon="11.421794740359541"><ele>218.0</ele><time>2026-04-30T13:38:30.001Z</time></trkpt><trkpt lat="43.3552947628752" lon="11.421981139893834"><ele>218.0</ele><time>2026-04-30T13:38:31.001Z</time></trkpt><trkpt lat="43.355275078691385" lon="11.422175715441693"><ele>219.75</ele><time>2026-04-30T13:38:32.001Z</time></trkpt><trkpt lat="43.355251627053654" lon="11.422374675766315"><ele>221.5</ele><time>2026-04-30T13:38:33.001Z</time></trkpt><trkpt lat="43.35522165344892" lon="11.422572534334645"><ele>223.25</ele><time>2026-04-30T13:38:34.001Z</time></trkpt><trkpt lat="43.3551889861673" lon="11.422769436399962"><ele>225.0</ele><time>2026-04-30T13:38:35.001Z</time></trkpt><trkpt lat="43.355151226074454" lon="11.422955232749322"><ele>226.75</ele><time>2026-04-30T13:38:36.001Z</time></trkpt><trkpt lat="43.35510514985438" lon="11.423127245229752"><ele>228.5</ele><time>2026-04-30T13:38:37.001Z</time></trkpt><trkpt lat="43.35506151591808" lon="11.423286456255722"><ele>230.25</ele><time>2026-04-30T13:38:38.001Z</time></trkpt><trkpt lat="43.35501955905425" lon="11.423431277864209"><ele>232.0</ele><time>2026-04-30T13:38:39.001Z</time></trkpt><trkpt lat="43.354976901202505" lon="11.423570575514269"><ele>232.0</ele><time>2026-04-30T13:38:40.001Z</time></trkpt><trkpt lat="43.35493354629608" lon="11.423717930088769"><ele>232.0</ele><time>2026-04-30T13:38:41.001Z</time></trkpt><trkpt lat="43.35490972106533" lon="11.423875186209933"><ele>232.0</ele><time>2026-04-30T13:38:42.001Z</time></trkpt><trkpt lat="43.354913946655316" lon="11.424052526651876"><ele>232.0</ele><time>2026-04-30T13:38:43.001Z</time></trkpt><trkpt lat="43.35496329795677" lon="11.424209225021526"><ele>233.33333333333331</ele><time>2026-04-30T13:38:44.001Z</time></trkpt><trkpt lat="43.35504450073383" lon="11.424355977768375"><ele>234.66666666666669</ele><time>2026-04-30T13:38:45.001Z</time></trkpt><trkpt lat="43.3551763841114" lon="11.424515494820541"><ele>236.0</ele><time>2026-04-30T13:38:46.001Z</time></trkpt><trkpt lat="43.35531970592666" lon="11.4246999332658"><ele>237.33333333333334</ele><time>2026-04-30T13:38:47.001Z</time></trkpt><trkpt lat="43.35544648393148" lon="11.424873847774336"><ele>238.66666666666669</ele><time>2026-04-30T13:38:48.001Z</time></trkpt><trkpt lat="43.35557030058604" lon="11.425053053476033"><ele>240.0</ele><time>2026-04-30T13:38:49.001Z</time></trkpt><trkpt lat="43.35570069384568" lon="11.425217880886882"><ele>240.0</ele><time>2026-04-30T13:38:50.001Z</time></trkpt><trkpt lat="43.35581872692858" lon="11.425375617886134"><ele>240.0</ele><time>2026-04-30T13:38:51.001Z</time></trkpt><trkpt lat="43.35593086279897" lon="11.425526340576601"><ele>240.0</ele><time>2026-04-30T13:38:52.001Z</time></trkpt><trkpt lat="43.35604080667538" lon="11.425666952840563"><ele>241.5</ele><time>2026-04-30T13:38:53.001Z</time></trkpt><trkpt lat="43.356140806323864" lon="11.425805975479957"><ele>243.0</ele><time>2026-04-30T13:38:54.001Z</time></trkpt><trkpt lat="43.35623898406283" lon="11.42593655694057"><ele>244.5</ele><time>2026-04-30T13:38:55.001Z</time></trkpt><trkpt lat="43.35633590263" lon="11.426062830690485"><ele>246.0</ele><time>2026-04-30T13:38:56.001Z</time></trkpt><trkpt lat="43.35643653230386" lon="11.426191367338093"><ele>248.5</ele><time>2026-04-30T13:38:57.001Z</time></trkpt><trkpt lat="43.35654423863576" lon="11.42631252995907"><ele>251.0</ele><time>2026-04-30T13:38:58.001Z</time></trkpt><trkpt lat="43.35666260178744" lon="11.426424165891344"><ele>253.5</ele><time>2026-04-30T13:38:59.001Z</time></trkpt><trkpt lat="43.35678888727213" lon="11.426522102276348"><ele>256.0</ele><time>2026-04-30T13:39:00.001Z</time></trkpt><trkpt lat="43.356923994613446" lon="11.42661610321016"><ele>256.0</ele><time>2026-04-30T13:39:01.001Z</time></trkpt><trkpt lat="43.35705994950113" lon="11.426703681139264"><ele>256.0</ele><time>2026-04-30T13:39:02.001Z</time></trkpt><trkpt lat="43.35719574358257" lon="11.426790826335665"><ele>256.0</ele><time>2026-04-30T13:39:03.001Z</time></trkpt><trkpt lat="43.3573314402895" lon="11.426873163431033"><ele>256.0</ele><time>2026-04-30T13:39:04.001Z</time></trkpt><trkpt lat="43.35746214163328" lon="11.426955086132647"><ele>255.25</ele><time>2026-04-30T13:39:05.001Z</time></trkpt><trkpt lat="43.357586068723506" lon="11.427031216810812"><ele>254.5</ele><time>2026-04-30T13:39:06.001Z</time></trkpt><trkpt lat="43.357700560799216" lon="11.427129106729977"><ele>253.75</ele><time>2026-04-30T13:39:07.001Z</time></trkpt><trkpt lat="43.35782464051767" lon="11.42721847703937"><ele>253.0</ele><time>2026-04-30T13:39:08.001Z</time></trkpt><trkpt lat="43.35794271280712" lon="11.427328687315788"><ele>254.0</ele><time>2026-04-30T13:39:09.001Z</time></trkpt><trkpt lat="43.35805250566935" lon="11.42750353551171"><ele>255.0</ele><time>2026-04-30T13:39:10Z</time></trkpt><trkpt lat="43.35815768171022" lon="11.427682534132572"><ele>256.0</ele><time>2026-04-30T13:39:11Z</time></trkpt><trkpt lat="43.3582674207583" lon="11.427866435117993"><ele>259.66666666666663</ele><time>2026-04-30T13:39:12Z</time></trkpt><trkpt lat="43.35837458243393" lon="11.42803858625955"><ele>263.3333333333333</ele><time>2026-04-30T13:39:13Z</time></trkpt><trkpt lat="43.35847507038135" lon="11.428215394955787"><ele>267.0</ele><time>2026-04-30T13:39:14Z</time></trkpt><trkpt lat="43.358596067248776" lon="11.428358399491756"><ele>267.0</ele><time>2026-04-30T13:39:15Z</time></trkpt><trkpt lat="43.35869137601416" lon="11.428491648255974"><ele>267.0</ele><time>2026-04-30T13:39:16Z</time></trkpt><trkpt lat="43.35877588906633" lon="11.428629230480745"><ele>267.0</ele><time>2026-04-30T13:39:17Z</time></trkpt><trkpt lat="43.35885279126431" lon="11.428768729361478"><ele>267.0</ele><time>2026-04-30T13:39:18Z</time></trkpt><trkpt lat="43.358932304987505" lon="11.428914558945872"><ele>266.5</ele><time>2026-04-30T13:39:19Z</time></trkpt><trkpt lat="43.3590012517539" lon="11.429080981440404"><ele>266.0</ele><time>2026-04-30T13:39:20Z</time></trkpt><trkpt lat="43.359041808132744" lon="11.429269281897637"><ele>265.5</ele><time>2026-04-30T13:39:21Z</time></trkpt><trkpt lat="43.35907650661892" lon="11.429472727608493"><ele>265.0</ele><time>2026-04-30T13:39:22Z</time></trkpt><trkpt lat="43.359115072513376" lon="11.429677325076936"><ele>265.0</ele><time>2026-04-30T13:39:23Z</time></trkpt><trkpt lat="43.359129245221276" lon="11.429886111125708"><ele>265.0</ele><time>2026-04-30T13:39:24Z</time></trkpt><trkpt lat="43.35912760554235" lon="11.430101598889262"><ele>265.0</ele><time>2026-04-30T13:39:25Z</time></trkpt><trkpt lat="43.35913222520226" lon="11.430314403613304"><ele>264.66666666666663</ele><time>2026-04-30T13:39:26Z</time></trkpt><trkpt lat="43.359109739883685" lon="11.430529305539368"><ele>264.3333333333333</ele><time>2026-04-30T13:39:27Z</time></trkpt><trkpt lat="43.35908021341235" lon="11.430736196596571"><ele>264.0</ele><time>2026-04-30T13:39:28Z</time></trkpt><trkpt lat="43.35902997105875" lon="11.430944431738995"><ele>264.0</ele><time>2026-04-30T13:39:29Z</time></trkpt><trkpt lat="43.35900274059257" lon="11.431158924491141"><ele>264.0</ele><time>2026-04-30T13:39:30Z</time></trkpt><trkpt lat="43.35897562198372" lon="11.431370376258677"><ele>264.0</ele><time>2026-04-30T13:39:31Z</time></trkpt><trkpt lat="43.35893550501573" lon="11.431577973773694"><ele>263.6666666666667</ele><time>2026-04-30T13:39:32Z</time></trkpt><trkpt lat="43.358909009351635" lon="11.43178912695118"><ele>263.33333333333337</ele><time>2026-04-30T13:39:33Z</time></trkpt><trkpt lat="43.35887374667525" lon="11.431995672104307"><ele>263.0</ele><time>2026-04-30T13:39:34Z</time></trkpt><trkpt lat="43.358838292470914" lon="11.43221491822168"><ele>263.0</ele><time>2026-04-30T13:39:35Z</time></trkpt><trkpt lat="43.35881277522082" lon="11.432435319686999"><ele>263.0</ele><time>2026-04-30T13:39:36Z</time></trkpt><trkpt lat="43.35881446363403" lon="11.432669125227914"><ele>263.0</ele><time>2026-04-30T13:39:37Z</time></trkpt><trkpt lat="43.35882516173641" lon="11.432902231103562"><ele>263.33333333333337</ele><time>2026-04-30T13:39:38Z</time></trkpt><trkpt lat="43.358844413521844" lon="11.43311906561858"><ele>263.6666666666667</ele><time>2026-04-30T13:39:39Z</time></trkpt><trkpt lat="43.358868117392774" lon="11.433328063509661"><ele>264.0</ele><time>2026-04-30T13:39:40Z</time></trkpt><trkpt lat="43.35889688211773" lon="11.43353289374341"><ele>263.6666666666667</ele><time>2026-04-30T13:39:41Z</time></trkpt><trkpt lat="43.358931797895075" lon="11.433744153720593"><ele>263.33333333333337</ele><time>2026-04-30T13:39:42Z</time></trkpt><trkpt lat="43.3589483407979" lon="11.433959835798234"><ele>263.0</ele><time>2026-04-30T13:39:43Z</time></trkpt><trkpt lat="43.35894563233517" lon="11.434174255821668"><ele>263.0</ele><time>2026-04-30T13:39:44Z</time></trkpt><trkpt lat="43.35892559113382" lon="11.434390047307579"><ele>263.0</ele><time>2026-04-30T13:39:45Z</time></trkpt><trkpt lat="43.35888438878111" lon="11.434607031225925"><ele>263.0</ele><time>2026-04-30T13:39:46Z</time></trkpt><trkpt lat="43.358820013649414" lon="11.434824952977356"><ele>265.0</ele><time>2026-04-30T13:39:47Z</time></trkpt><trkpt lat="43.358741678344934" lon="11.435041844661697"><ele>267.0</ele><time>2026-04-30T13:39:48Z</time></trkpt><trkpt lat="43.35865798469612" lon="11.435264089644662"><ele>269.0</ele><time>2026-04-30T13:39:49Z</time></trkpt><trkpt lat="43.358576420574266" lon="11.435476039181665"><ele>269.0</ele><time>2026-04-30T13:39:50Z</time></trkpt><trkpt lat="43.35850935081403" lon="11.435681608948828"><ele>269.0</ele><time>2026-04-30T13:39:51Z</time></trkpt><trkpt lat="43.35845528719997" lon="11.43589216645441"><ele>269.0</ele><time>2026-04-30T13:39:52Z</time></trkpt><trkpt lat="43.358413072163344" lon="11.43609656503515"><ele>269.0</ele><time>2026-04-30T13:39:53Z</time></trkpt><trkpt lat="43.35837607719216" lon="11.436285610938535"><ele>269.0</ele><time>2026-04-30T13:39:54Z</time></trkpt><trkpt lat="43.35834716230131" lon="11.436444208215818"><ele>269.0</ele><time>2026-04-30T13:39:55Z</time></trkpt><trkpt lat="43.35832961997733" lon="11.436584790402842"><ele>269.0</ele><time>2026-04-30T13:39:56Z</time></trkpt><trkpt lat="43.358318835966145" lon="11.436712863354837"><ele>269.0</ele><time>2026-04-30T13:39:57Z</time></trkpt><trkpt lat="43.35831862111013" lon="11.436823272127496"><ele>269.0</ele><time>2026-04-30T13:39:58Z</time></trkpt><trkpt lat="43.35832886703127" lon="11.436929623265168"><ele>269.0</ele><time>2026-04-30T13:39:59Z</time></trkpt><trkpt lat="43.35834607761377" lon="11.437029815434101"><ele>269.0</ele><time>2026-04-30T13:40:00Z</time></trkpt><trkpt lat="43.35835765153165" lon="11.437122748249312"><ele>269.0</ele><time>2026-04-30T13:40:01Z</time></trkpt><trkpt lat="43.358373336457355" lon="11.437217983447079"><ele>269.0</ele><time>2026-04-30T13:40:02Z</time></trkpt><trkpt lat="43.358383209846366" lon="11.437312396251535"><ele>269.0</ele><time>2026-04-30T13:40:03Z</time></trkpt><trkpt lat="43.35838875060648" lon="11.437407088719658"><ele>269.0</ele><time>2026-04-30T13:40:04Z</time></trkpt><trkpt lat="43.35838862801213" lon="11.43750423167597"><ele>269.0</ele><time>2026-04-30T13:40:05Z</time></trkpt><trkpt lat="43.35837946445386" lon="11.437633821872701"><ele>269.0</ele><time>2026-04-30T13:40:06Z</time></trkpt><trkpt lat="43.358352167811624" lon="11.437774656025471"><ele>269.0</ele><time>2026-04-30T13:40:07Z</time></trkpt><trkpt lat="43.35830342789611" lon="11.43792278043493"><ele>269.0</ele><time>2026-04-30T13:40:08Z</time></trkpt><trkpt lat="43.35824582969457" lon="11.438043009899355"><ele>268.5</ele><time>2026-04-30T13:40:09Z</time></trkpt><trkpt lat="43.35817921254798" lon="11.438147459864464"><ele>268.0</ele><time>2026-04-30T13:40:10Z</time></trkpt><trkpt lat="43.35810112924201" lon="11.438226983723087"><ele>267.5</ele><time>2026-04-30T13:40:11Z</time></trkpt><trkpt lat="43.35799715644387" lon="11.43829636391271"><ele>267.0</ele><time>2026-04-30T13:40:12Z</time></trkpt><trkpt lat="43.3578569949921" lon="11.438349102481057"><ele>266.3333333333333</ele><time>2026-04-30T13:40:13Z</time></trkpt><trkpt lat="43.357700364884316" lon="11.438396889332331"><ele>265.66666666666663</ele><time>2026-04-30T13:40:14Z</time></trkpt><trkpt lat="43.35755230552609" lon="11.43844658224391"><ele>265.0</ele><time>2026-04-30T13:40:15Z</time></trkpt><trkpt lat="43.35740655406581" lon="11.43850154996004"><ele>265.0</ele><time>2026-04-30T13:40:16Z</time></trkpt><trkpt lat="43.35725943617832" lon="11.438552993859485"><ele>265.0</ele><time>2026-04-30T13:40:17Z</time></trkpt><trkpt lat="43.35710562313189" lon="11.438578590261256"><ele>265.0</ele><time>2026-04-30T13:40:18Z</time></trkpt><trkpt lat="43.356944435668034" lon="11.438579563938188"><ele>265.0</ele><time>2026-04-30T13:40:19Z</time></trkpt><trkpt lat="43.35677856135482" lon="11.43855198740732"><ele>265.0</ele><time>2026-04-30T13:40:20Z</time></trkpt><trkpt lat="43.35662057515969" lon="11.438518169052527"><ele>265.0</ele><time>2026-04-30T13:40:21Z</time></trkpt><trkpt lat="43.3564632815962" lon="11.43848612613889"><ele>265.25</ele><time>2026-04-30T13:40:22Z</time></trkpt><trkpt lat="43.356319723227735" lon="11.43845146677089"><ele>265.5</ele><time>2026-04-30T13:40:23Z</time></trkpt><trkpt lat="43.35618977144436" lon="11.438420455994908"><ele>265.75</ele><time>2026-04-30T13:40:24Z</time></trkpt><trkpt lat="43.35607152696006" lon="11.438392862164271"><ele>266.0</ele><time>2026-04-30T13:40:25.001Z</time></trkpt><trkpt lat="43.35595528277094" lon="11.438368258263719"><ele>266.0</ele><time>2026-04-30T13:40:26.001Z</time></trkpt><trkpt lat="43.355842024989414" lon="11.438347949857478"><ele>266.0</ele><time>2026-04-30T13:40:27.001Z</time></trkpt><trkpt lat="43.35572720569833" lon="11.438301725284028"><ele>266.0</ele><time>2026-04-30T13:40:28.001Z</time></trkpt><trkpt lat="43.35559538042817" lon="11.438291299339925"><ele>266.0</ele><time>2026-04-30T13:40:29.001Z</time></trkpt><trkpt lat="43.35545894048638" lon="11.43825778062984"><ele>266.5</ele><time>2026-04-30T13:40:30.001Z</time></trkpt><trkpt lat="43.35532699404105" lon="11.438227145479777"><ele>267.0</ele><time>2026-04-30T13:40:31.001Z</time></trkpt><trkpt lat="43.355201566131434" lon="11.438205521316808"><ele>267.5</ele><time>2026-04-30T13:40:32.001Z</time></trkpt><trkpt lat="43.355074759112945" lon="11.438174664992959"><ele>268.0</ele><time>2026-04-30T13:40:33.001Z</time></trkpt><trkpt lat="43.35495696320122" lon="11.438140302839148"><ele>268.0</ele><time>2026-04-30T13:40:34.001Z</time></trkpt><trkpt lat="43.354831411782875" lon="11.43811325914856"><ele>268.0</ele><time>2026-04-30T13:40:35.001Z</time></trkpt><trkpt lat="43.35471526211315" lon="11.43811048770694"><ele>268.0</ele><time>2026-04-30T13:40:36.001Z</time></trkpt><trkpt lat="43.35459641074906" lon="11.438110115045541"><ele>268.0</ele><time>2026-04-30T13:40:37.001Z</time></trkpt><trkpt lat="43.35448524769687" lon="11.438116036265077"><ele>267.5</ele><time>2026-04-30T13:40:38.001Z</time></trkpt><trkpt lat="43.354369465523924" lon="11.438131439363465"><ele>267.0</ele><time>2026-04-30T13:40:39.001Z</time></trkpt><trkpt lat="43.354253612264074" lon="11.438149634238489"><ele>266.5</ele><time>2026-04-30T13:40:40.001Z</time></trkpt><trkpt lat="43.354131533561784" lon="11.438181202611107"><ele>266.0</ele><time>2026-04-30T13:40:41.001Z</time></trkpt><trkpt lat="43.354005892990564" lon="11.438212409231722"><ele>266.0</ele><time>2026-04-30T13:40:42.001Z</time></trkpt><trkpt lat="43.35387821807726" lon="11.438243996052515"><ele>266.0</ele><time>2026-04-30T13:40:43.001Z</time></trkpt><trkpt lat="43.35375298249455" lon="11.43828067454056"><ele>266.0</ele><time>2026-04-30T13:40:44.001Z</time></trkpt><trkpt lat="43.35363211010849" lon="11.438311508098112"><ele>266.0</ele><time>2026-04-30T13:40:45.001Z</time></trkpt><trkpt lat="43.353516451424895" lon="11.438342546247839"><ele>265.75</ele><time>2026-04-30T13:40:46.001Z</time></trkpt><trkpt lat="43.35339207118575" lon="11.43835363575984"><ele>265.5</ele><time>2026-04-30T13:40:47.001Z</time></trkpt><trkpt lat="43.35325914399162" lon="11.438403514858617"><ele>265.25</ele><time>2026-04-30T13:40:48.001Z</time></trkpt><trkpt lat="43.353099202583614" lon="11.438489166390811"><ele>265.0</ele><time>2026-04-30T13:40:49.001Z</time></trkpt><trkpt lat="43.35295518747456" lon="11.438594711855739"><ele>263.25</ele><time>2026-04-30T13:40:50.001Z</time></trkpt><trkpt lat="43.35284061634036" lon="11.438704992574184"><ele>261.5</ele><time>2026-04-30T13:40:51.001Z</time></trkpt><trkpt lat="43.35272086442118" lon="11.43881251349546"><ele>259.75</ele><time>2026-04-30T13:40:52.001Z</time></trkpt><trkpt lat="43.3526160238879" lon="11.438918397416339"><ele>258.0</ele><time>2026-04-30T13:40:53.001Z</time></trkpt><trkpt lat="43.35252277117252" lon="11.439031839736499"><ele>258.0</ele><time>2026-04-30T13:40:54.001Z</time></trkpt><trkpt lat="43.35244413003489" lon="11.439145651788827"><ele>258.0</ele><time>2026-04-30T13:40:55.001Z</time></trkpt><trkpt lat="43.352355893213776" lon="11.439239361549024"><ele>258.0</ele><time>2026-04-30T13:40:56.001Z</time></trkpt><trkpt lat="43.352233164307094" lon="11.439316576957777"><ele>258.0</ele><time>2026-04-30T13:40:57.001Z</time></trkpt><trkpt lat="43.352086609690936" lon="11.439351888496185"><ele>256.25</ele><time>2026-04-30T13:40:58.001Z</time></trkpt><trkpt lat="43.351946244295874" lon="11.439380805704698"><ele>254.5</ele><time>2026-04-30T13:40:59.001Z</time></trkpt><trkpt lat="43.35182460551332" lon="11.439440660559853"><ele>252.75</ele><time>2026-04-30T13:41:00.001Z</time></trkpt><trkpt lat="43.3517101905335" lon="11.43950905695417"><ele>251.0</ele><time>2026-04-30T13:41:01.001Z</time></trkpt><trkpt lat="43.351612572573444" lon="11.439579395726623"><ele>251.33333333333334</ele><time>2026-04-30T13:41:02.001Z</time></trkpt><trkpt lat="43.351530605382905" lon="11.439643582761281"><ele>251.66666666666669</ele><time>2026-04-30T13:41:03.001Z</time></trkpt><trkpt lat="43.35145543070912" lon="11.439702457030593"><ele>252.0</ele><time>2026-04-30T13:41:04.001Z</time></trkpt><trkpt lat="43.35138367096086" lon="11.439759597758348"><ele>252.33333333333331</ele><time>2026-04-30T13:41:05.001Z</time></trkpt><trkpt lat="43.3513110429533" lon="11.439819269461774"><ele>252.66666666666666</ele><time>2026-04-30T13:41:06.001Z</time></trkpt><trkpt lat="43.35122971410887" lon="11.439890530450223"><ele>253.0</ele><time>2026-04-30T13:41:07.001Z</time></trkpt><trkpt lat="43.351123193004426" lon="11.439963350279946"><ele>252.0</ele><time>2026-04-30T13:41:08.001Z</time></trkpt><trkpt lat="43.351009883077765" lon="11.440028371343754"><ele>251.0</ele><time>2026-04-30T13:41:09.001Z</time></trkpt><trkpt lat="43.35090107085313" lon="11.440070991621342"><ele>250.0</ele><time>2026-04-30T13:41:10.001Z</time></trkpt><trkpt lat="43.35080196778864" lon="11.44009213414412"><ele>249.0</ele><time>2026-04-30T13:41:11.001Z</time></trkpt><trkpt lat="43.35070008195324" lon="11.44009948391915"><ele>248.0</ele><time>2026-04-30T13:41:12.001Z</time></trkpt><trkpt lat="43.35059657426932" lon="11.44009134431803"><ele>247.83333333333334</ele><time>2026-04-30T13:41:13.001Z</time></trkpt><trkpt lat="43.35049612081563" lon="11.440071305944125"><ele>247.66666666666669</ele><time>2026-04-30T13:41:14.001Z</time></trkpt><trkpt lat="43.35041272251987" lon="11.440040266139011"><ele>247.5</ele><time>2026-04-30T13:41:15.001Z</time></trkpt><trkpt lat="43.35034118540051" lon="11.440002383653733"><ele>247.33333333333331</ele><time>2026-04-30T13:41:16Z</time></trkpt><trkpt lat="43.35026855851467" lon="11.439957736874803"><ele>247.16666666666666</ele><time>2026-04-30T13:41:17Z</time></trkpt><trkpt lat="43.350186965111085" lon="11.439898669740833"><ele>247.0</ele><time>2026-04-30T13:41:18Z</time></trkpt><trkpt lat="43.35009875662686" lon="11.439829485184715"><ele>247.0</ele><time>2026-04-30T13:41:19Z</time></trkpt><trkpt lat="43.35001634825057" lon="11.439741366348914"><ele>247.0</ele><time>2026-04-30T13:41:20Z</time></trkpt><trkpt lat="43.349945309085186" lon="11.439628039912806"><ele>247.0</ele><time>2026-04-30T13:41:21Z</time></trkpt><trkpt lat="43.34988229405292" lon="11.439530788076926"><ele>247.0</ele><time>2026-04-30T13:41:22Z</time></trkpt><trkpt lat="43.349837536517676" lon="11.439446951267657"><ele>247.0</ele><time>2026-04-30T13:41:23Z</time></trkpt><trkpt lat="43.34979700798187" lon="11.439371713622121"><ele>247.6</ele><time>2026-04-30T13:41:24Z</time></trkpt><trkpt lat="43.34971627193812" lon="11.439225779729854"><ele>248.2</ele><time>2026-04-30T13:41:26Z</time></trkpt><trkpt lat="43.34967706994317" lon="11.43913154916215"><ele>248.8</ele><time>2026-04-30T13:41:27Z</time></trkpt><trkpt lat="43.34963522303871" lon="11.439055002130853"><ele>249.4</ele><time>2026-04-30T13:41:28Z</time></trkpt><trkpt lat="43.34958888422208" lon="11.438966059372625"><ele>250.0</ele><time>2026-04-30T13:41:29Z</time></trkpt><trkpt lat="43.34951541175019" lon="11.43884896093544"><ele>251.25</ele><time>2026-04-30T13:41:30Z</time></trkpt><trkpt lat="43.349434468263425" lon="11.438751241726719"><ele>252.5</ele><time>2026-04-30T13:41:31Z</time></trkpt><trkpt lat="43.34934641012142" lon="11.438677271629226"><ele>253.75</ele><time>2026-04-30T13:41:32Z</time></trkpt><trkpt lat="43.34924449242973" lon="11.438627539606335"><ele>255.0</ele><time>2026-04-30T13:41:33Z</time></trkpt><trkpt lat="43.349113261260094" lon="11.438593835524017"><ele>255.0</ele><time>2026-04-30T13:41:34Z</time></trkpt><trkpt lat="43.34898351975391" lon="11.438570894524236"><ele>255.0</ele><time>2026-04-30T13:41:35Z</time></trkpt><trkpt lat="43.348843812802166" lon="11.438549153058045"><ele>255.0</ele><time>2026-04-30T13:41:36Z</time></trkpt><trkpt lat="43.348694284475286" lon="11.438519521577607"><ele>255.0</ele><time>2026-04-30T13:41:37Z</time></trkpt><trkpt lat="43.348541218152036" lon="11.438497068963043"><ele>255.0</ele><time>2026-04-30T13:41:38Z</time></trkpt><trkpt lat="43.34838628987304" lon="11.438474533484227"><ele>255.0</ele><time>2026-04-30T13:41:39Z</time></trkpt><trkpt lat="43.34823477651057" lon="11.438449991494641"><ele>255.0</ele><time>2026-04-30T13:41:40Z</time></trkpt><trkpt lat="43.34809171121866" lon="11.438421159563768"><ele>256.3333333333333</ele><time>2026-04-30T13:41:41Z</time></trkpt><trkpt lat="43.34794839747169" lon="11.438373958094244"><ele>257.66666666666663</ele><time>2026-04-30T13:41:42Z</time></trkpt><trkpt lat="43.34779401376706" lon="11.438250155095"><ele>259.0</ele><time>2026-04-30T13:41:43Z</time></trkpt><trkpt lat="43.34765994549904" lon="11.438075489269723"><ele>259.0</ele><time>2026-04-30T13:41:44Z</time></trkpt><trkpt lat="43.34757099613173" lon="11.437899979635224"><ele>259.0</ele><time>2026-04-30T13:41:45Z</time></trkpt><trkpt lat="43.34748516798972" lon="11.437725208212656"><ele>259.0</ele><time>2026-04-30T13:41:46Z</time></trkpt><trkpt lat="43.34739016307628" lon="11.437567329213326"><ele>259.0</ele><time>2026-04-30T13:41:47Z</time></trkpt><trkpt lat="43.34727916542149" lon="11.437443005034108"><ele>259.0</ele><time>2026-04-30T13:41:48Z</time></trkpt><trkpt lat="43.34717813188772" lon="11.437276166853392"><ele>259.0</ele><time>2026-04-30T13:41:49Z</time></trkpt><trkpt lat="43.34707710038617" lon="11.437108965418071"><ele>260.66666666666663</ele><time>2026-04-30T13:41:50Z</time></trkpt><trkpt lat="43.346971230808876" lon="11.436944723327011"><ele>262.3333333333333</ele><time>2026-04-30T13:41:51Z</time></trkpt><trkpt lat="43.34688944807681" lon="11.436776268465596"><ele>264.0</ele><time>2026-04-30T13:41:52Z</time></trkpt><trkpt lat="43.346787872053554" lon="11.43663013361491"><ele>264.0</ele><time>2026-04-30T13:41:53Z</time></trkpt><trkpt lat="43.34668583782971" lon="11.43647269766272"><ele>264.0</ele><time>2026-04-30T13:41:54Z</time></trkpt><trkpt lat="43.34658787086304" lon="11.436336867814822"><ele>264.0</ele><time>2026-04-30T13:41:55Z</time></trkpt><trkpt lat="43.34647949307752" lon="11.436220261253888"><ele>264.0</ele><time>2026-04-30T13:41:56Z</time></trkpt><trkpt lat="43.346355803842684" lon="11.436106704499041"><ele>264.5</ele><time>2026-04-30T13:41:57Z</time></trkpt><trkpt lat="43.3462331114165" lon="11.435997033654846"><ele>265.0</ele><time>2026-04-30T13:41:58Z</time></trkpt><trkpt lat="43.34610612160706" lon="11.435896928763333"><ele>265.5</ele><time>2026-04-30T13:41:59Z</time></trkpt><trkpt lat="43.34598568167757" lon="11.435799301777292"><ele>266.0</ele><time>2026-04-30T13:42:00Z</time></trkpt><trkpt lat="43.345877411899146" lon="11.435702923141108"><ele>266.0</ele><time>2026-04-30T13:42:01Z</time></trkpt><trkpt lat="43.345754067194186" lon="11.435620319119018"><ele>266.0</ele><time>2026-04-30T13:42:02Z</time></trkpt><trkpt lat="43.345593659846166" lon="11.435595006113193"><ele>266.0</ele><time>2026-04-30T13:42:03Z</time></trkpt><trkpt lat="43.345437193181134" lon="11.435590352985521"><ele>264.75</ele><time>2026-04-30T13:42:04Z</time></trkpt><trkpt lat="43.34529003015305" lon="11.435586448562667"><ele>263.5</ele><time>2026-04-30T13:42:05Z</time></trkpt><trkpt lat="43.345143512588116" lon="11.4355995815516"><ele>262.25</ele><time>2026-04-30T13:42:06Z</time></trkpt><trkpt lat="43.34499814133466" lon="11.435587789120305"><ele>261.0</ele><time>2026-04-30T13:42:07Z</time></trkpt><trkpt lat="43.34486512905492" lon="11.435583189902847"><ele>261.0</ele><time>2026-04-30T13:42:08Z</time></trkpt><trkpt lat="43.34473034421601" lon="11.435560477569389"><ele>261.0</ele><time>2026-04-30T13:42:09Z</time></trkpt><trkpt lat="43.344597903191556" lon="11.435506184225153"><ele>261.0</ele><time>2026-04-30T13:42:10Z</time></trkpt><trkpt lat="43.34447891182339" lon="11.435402619089713"><ele>261.0</ele><time>2026-04-30T13:42:11Z</time></trkpt><trkpt lat="43.34436863649035" lon="11.435290488163009"><ele>260.25</ele><time>2026-04-30T13:42:12Z</time></trkpt><trkpt lat="43.34426985427068" lon="11.43518679417616"><ele>259.5</ele><time>2026-04-30T13:42:13Z</time></trkpt><trkpt lat="43.34417054694189" lon="11.435102080978757"><ele>258.75</ele><time>2026-04-30T13:42:14Z</time></trkpt><trkpt lat="43.344085874802204" lon="11.434988827082357"><ele>258.0</ele><time>2026-04-30T13:42:15Z</time></trkpt><trkpt lat="43.34398171883529" lon="11.434854383087197"><ele>256.5</ele><time>2026-04-30T13:42:16Z</time></trkpt><trkpt lat="43.343870520482795" lon="11.434704087980691"><ele>255.0</ele><time>2026-04-30T13:42:17Z</time></trkpt><trkpt lat="43.34377479047358" lon="11.4345666246116"><ele>253.5</ele><time>2026-04-30T13:42:18Z</time></trkpt><trkpt lat="43.343693088069706" lon="11.434445794100256"><ele>252.0</ele><time>2026-04-30T13:42:19Z</time></trkpt><trkpt lat="43.343618972139446" lon="11.434337707760124"><ele>252.0</ele><time>2026-04-30T13:42:20Z</time></trkpt><trkpt lat="43.343545588248624" lon="11.434228670932669"><ele>252.0</ele><time>2026-04-30T13:42:21Z</time></trkpt><trkpt lat="43.3434774864142" lon="11.434127038067503"><ele>252.0</ele><time>2026-04-30T13:42:22Z</time></trkpt><trkpt lat="43.3434037639912" lon="11.434033046313505"><ele>252.0</ele><time>2026-04-30T13:42:23Z</time></trkpt><trkpt lat="43.34332878996339" lon="11.433958037589576"><ele>252.0</ele><time>2026-04-30T13:42:24Z</time></trkpt><trkpt lat="43.343246228837" lon="11.43389785786553"><ele>252.0</ele><time>2026-04-30T13:42:25Z</time></trkpt><trkpt lat="43.34315419339945" lon="11.433861437593432"><ele>252.0</ele><time>2026-04-30T13:42:26Z</time></trkpt><trkpt lat="43.34305692600194" lon="11.433852303403231"><ele>252.0</ele><time>2026-04-30T13:42:27Z</time></trkpt><trkpt lat="43.3429608622296" lon="11.433865396361956"><ele>252.0</ele><time>2026-04-30T13:42:28Z</time></trkpt><trkpt lat="43.3428582387" lon="11.433892644119853"><ele>252.0</ele><time>2026-04-30T13:42:29Z</time></trkpt><trkpt lat="43.34270954972051" lon="11.433939197684872"><ele>250.75</ele><time>2026-04-30T13:42:30Z</time></trkpt><trkpt lat="43.34257560505242" lon="11.433983337819814"><ele>249.5</ele><time>2026-04-30T13:42:31Z</time></trkpt><trkpt lat="43.342451166731585" lon="11.434022024990307"><ele>248.25</ele><time>2026-04-30T13:42:32Z</time></trkpt><trkpt lat="43.34233159466785" lon="11.434063333368805"><ele>247.0</ele><time>2026-04-30T13:42:33Z</time></trkpt><trkpt lat="43.34221720161305" lon="11.434100793424143"><ele>246.8</ele><time>2026-04-30T13:42:34Z</time></trkpt><trkpt lat="43.34211606245223" lon="11.43413732234771"><ele>246.6</ele><time>2026-04-30T13:42:35Z</time></trkpt><trkpt lat="43.34201928459054" lon="11.4341670734399"><ele>246.40000000000003</ele><time>2026-04-30T13:42:36Z</time></trkpt><trkpt lat="43.34192449650014" lon="11.434196108906379"><ele>246.20000000000002</ele><time>2026-04-30T13:42:37Z</time></trkpt><trkpt lat="43.3418316370258" lon="11.434229166657628"><ele>246.0</ele><time>2026-04-30T13:42:38.001Z</time></trkpt><trkpt lat="43.341743578073824" lon="11.434259302294741"><ele>246.0</ele><time>2026-04-30T13:42:39.001Z</time></trkpt><trkpt lat="43.34164832441689" lon="11.434291819926774"><ele>246.00000000000003</ele><time>2026-04-30T13:42:40.001Z</time></trkpt><trkpt lat="43.34153630960618" lon="11.434331324190076"><ele>246.00000000000003</ele><time>2026-04-30T13:42:41.001Z</time></trkpt><trkpt lat="43.341425764817046" lon="11.434369803459347"><ele>246.0</ele><time>2026-04-30T13:42:42.001Z</time></trkpt><trkpt lat="43.34132624485059" lon="11.434405546903387"><ele>246.0</ele><time>2026-04-30T13:42:43.001Z</time></trkpt><trkpt lat="43.341230264482384" lon="11.4344378384707"><ele>245.8</ele><time>2026-04-30T13:42:44.001Z</time></trkpt><trkpt lat="43.34112929051716" lon="11.434467713382633"><ele>245.60000000000002</ele><time>2026-04-30T13:42:45.001Z</time></trkpt><trkpt lat="43.341027235704054" lon="11.434494887338328"><ele>245.4</ele><time>2026-04-30T13:42:46.001Z</time></trkpt><trkpt lat="43.34092248715746" lon="11.434524347106388"><ele>245.2</ele><time>2026-04-30T13:42:47.001Z</time></trkpt><trkpt lat="43.34081836446657" lon="11.434557089352948"><ele>245.0</ele><time>2026-04-30T13:42:48.001Z</time></trkpt><trkpt lat="43.340717529173126" lon="11.4345826114878"><ele>245.0</ele><time>2026-04-30T13:42:49.001Z</time></trkpt><trkpt lat="43.340618646866815" lon="11.43461138230437"><ele>245.0</ele><time>2026-04-30T13:42:50.001Z</time></trkpt><trkpt lat="43.340521496471695" lon="11.434622883191466"><ele>245.0</ele><time>2026-04-30T13:42:51.001Z</time></trkpt><trkpt lat="43.34042022138233" lon="11.434595805810252"><ele>245.0</ele><time>2026-04-30T13:42:52.001Z</time></trkpt><trkpt lat="43.34032262416649" lon="11.43453292139544"><ele>245.0</ele><time>2026-04-30T13:42:53.001Z</time></trkpt><trkpt lat="43.34020815817503" lon="11.434423465843002"><ele>246.0</ele><time>2026-04-30T13:42:54.001Z</time></trkpt><trkpt lat="43.34010744875233" lon="11.434282389089857"><ele>247.0</ele><time>2026-04-30T13:42:55.001Z</time></trkpt><trkpt lat="43.34002747536563" lon="11.434133101855714"><ele>248.0</ele><time>2026-04-30T13:42:56.001Z</time></trkpt><trkpt lat="43.33997415540803" lon="11.433992349073565"><ele>249.0</ele><time>2026-04-30T13:42:57.001Z</time></trkpt><trkpt lat="43.339923255528966" lon="11.433866927511165"><ele>249.0</ele><time>2026-04-30T13:42:58.001Z</time></trkpt><trkpt lat="43.339873002620784" lon="11.43375050312148"><ele>249.0</ele><time>2026-04-30T13:42:59.001Z</time></trkpt><trkpt lat="43.33980859390847" lon="11.433587445971337"><ele>249.0</ele><time>2026-04-30T13:43:00.001Z</time></trkpt><trkpt lat="43.33974695260656" lon="11.433430460093911"><ele>249.0</ele><time>2026-04-30T13:43:01.001Z</time></trkpt><trkpt lat="43.339680918834134" lon="11.433279970027668"><ele>249.25</ele><time>2026-04-30T13:43:02.001Z</time></trkpt><trkpt lat="43.339613068541084" lon="11.433126467322385"><ele>249.5</ele><time>2026-04-30T13:43:03.001Z</time></trkpt><trkpt lat="43.339553156116985" lon="11.432977838436928"><ele>249.75</ele><time>2026-04-30T13:43:04.001Z</time></trkpt><trkpt lat="43.33949397873657" lon="11.432837373710768"><ele>250.0</ele><time>2026-04-30T13:43:05.001Z</time></trkpt><trkpt lat="43.33943202749297" lon="11.432723765554607"><ele>250.0</ele><time>2026-04-30T13:43:06.001Z</time></trkpt><trkpt lat="43.33935915848976" lon="11.432596639107445"><ele>250.0</ele><time>2026-04-30T13:43:07.001Z</time></trkpt><trkpt lat="43.339278583098015" lon="11.432474461277536"><ele>250.0</ele><time>2026-04-30T13:43:08.001Z</time></trkpt><trkpt lat="43.33920200530496" lon="11.432366148925366"><ele>250.0</ele><time>2026-04-30T13:43:09.001Z</time></trkpt><trkpt lat="43.33912232536279" lon="11.432268528387551"><ele>250.0</ele><time>2026-04-30T13:43:10.001Z</time></trkpt><trkpt lat="43.33904228776434" lon="11.432171807389906"><ele>250.0</ele><time>2026-04-30T13:43:11.001Z</time></trkpt><trkpt lat="43.33896319087095" lon="11.432078452167755"><ele>250.0</ele><time>2026-04-30T13:43:12.001Z</time></trkpt><trkpt lat="43.33888838429176" lon="11.431987346047976"><ele>250.0</ele><time>2026-04-30T13:43:13.001Z</time></trkpt><trkpt lat="43.33880871108324" lon="11.431894286322583"><ele>250.0</ele><time>2026-04-30T13:43:14.001Z</time></trkpt><trkpt lat="43.33872545692441" lon="11.431802483806408"><ele>250.0</ele><time>2026-04-30T13:43:15.001Z</time></trkpt><trkpt lat="43.338645623176205" lon="11.431710456682294"><ele>250.0</ele><time>2026-04-30T13:43:16.001Z</time></trkpt><trkpt lat="43.33856524456791" lon="11.431617653521045"><ele>250.0</ele><time>2026-04-30T13:43:17.001Z</time></trkpt><trkpt lat="43.33847390290216" lon="11.431532948952833"><ele>250.0</ele><time>2026-04-30T13:43:18.001Z</time></trkpt><trkpt lat="43.33837496769052" lon="11.431456987577063"><ele>250.0</ele><time>2026-04-30T13:43:19.001Z</time></trkpt><trkpt lat="43.33826472290023" lon="11.431403089484508"><ele>250.0</ele><time>2026-04-30T13:43:20.001Z</time></trkpt><trkpt lat="43.33813434863451" lon="11.43138043980641"><ele>250.0</ele><time>2026-04-30T13:43:21.001Z</time></trkpt><trkpt lat="43.33798802000208" lon="11.431385092594677"><ele>250.0</ele><time>2026-04-30T13:43:22Z</time></trkpt><trkpt lat="43.337864636796645" lon="11.431383642316707"><ele>250.0</ele><time>2026-04-30T13:43:23Z</time></trkpt><trkpt lat="43.337744899741" lon="11.431370710814912"><ele>249.5</ele><time>2026-04-30T13:43:24Z</time></trkpt><trkpt lat="43.33762289059712" lon="11.431365937401866"><ele>249.0</ele><time>2026-04-30T13:43:25Z</time></trkpt><trkpt lat="43.33750567417334" lon="11.431372766457347"><ele>248.5</ele><time>2026-04-30T13:43:26Z</time></trkpt><trkpt lat="43.337390001763595" lon="11.43136882728665"><ele>248.0</ele><time>2026-04-30T13:43:27Z</time></trkpt><trkpt lat="43.337281064477324" lon="11.431359754744381"><ele>248.8</ele><time>2026-04-30T13:43:28Z</time></trkpt><trkpt lat="43.337171041356065" lon="11.431359930774164"><ele>249.60000000000002</ele><time>2026-04-30T13:43:29Z</time></trkpt><trkpt lat="43.33705942112062" lon="11.431376426044517"><ele>250.39999999999998</ele><time>2026-04-30T13:43:30Z</time></trkpt><trkpt lat="43.3369475081436" lon="11.431401469805627"><ele>251.2</ele><time>2026-04-30T13:43:31Z</time></trkpt><trkpt lat="43.336840275125695" lon="11.431440627112186"><ele>252.0</ele><time>2026-04-30T13:43:32Z</time></trkpt><trkpt lat="43.33673158172737" lon="11.43149475553235"><ele>252.0</ele><time>2026-04-30T13:43:33Z</time></trkpt><trkpt lat="43.33662509332024" lon="11.431545825325383"><ele>252.0</ele><time>2026-04-30T13:43:34Z</time></trkpt><trkpt lat="43.33651468616705" lon="11.431593108031505"><ele>252.0</ele><time>2026-04-30T13:43:35Z</time></trkpt><trkpt lat="43.33641083101741" lon="11.431649697489789"><ele>252.0</ele><time>2026-04-30T13:43:36Z</time></trkpt><trkpt lat="43.33631439014961" lon="11.431711082611134"><ele>252.0</ele><time>2026-04-30T13:43:37Z</time></trkpt><trkpt lat="43.33621775236893" lon="11.431767979648633"><ele>252.8</ele><time>2026-04-30T13:43:38Z</time></trkpt><trkpt lat="43.33612818910047" lon="11.431819373724604"><ele>253.6</ele><time>2026-04-30T13:43:39Z</time></trkpt><trkpt lat="43.336049953822354" lon="11.431862773910309"><ele>254.40000000000003</ele><time>2026-04-30T13:43:40Z</time></trkpt><trkpt lat="43.335947409754276" lon="11.431889735063653"><ele>255.20000000000002</ele><time>2026-04-30T13:43:42Z</time></trkpt><trkpt lat="43.335883927211135" lon="11.431891838696759"><ele>256.0</ele><time>2026-04-30T13:43:44Z</time></trkpt><trkpt lat="43.33599130994511" lon="11.431879826069665"><ele>256.0</ele><time>2026-04-30T13:46:23Z</time></trkpt><trkpt lat="43.335944267046706" lon="11.431709853550457"><ele>256.0</ele><time>2026-04-30T13:46:24Z</time></trkpt><trkpt lat="43.33597957312909" lon="11.431613132739244"><ele>256.0</ele><time>2026-04-30T13:46:25Z</time></trkpt><trkpt lat="43.3363806525276" lon="11.431695706312633"><ele>255.0</ele><time>2026-04-30T13:46:26Z</time></trkpt><trkpt lat="43.33649695660827" lon="11.431634311616312"><ele>254.0</ele><time>2026-04-30T13:46:27Z</time></trkpt><trkpt lat="43.336612126242784" lon="11.431568064769724"><ele>253.0</ele><time>2026-04-30T13:46:28Z</time></trkpt><trkpt lat="43.33673117669881" lon="11.431503626065242"><ele>252.0</ele><time>2026-04-30T13:46:29Z</time></trkpt><trkpt lat="43.336856116285254" lon="11.431446229001324"><ele>252.0</ele><time>2026-04-30T13:46:30Z</time></trkpt><trkpt lat="43.336982503773534" lon="11.431402387119006"><ele>252.0</ele><time>2026-04-30T13:46:31Z</time></trkpt><trkpt lat="43.33710949861636" lon="11.431382699680785"><ele>252.0</ele><time>2026-04-30T13:46:32Z</time></trkpt><trkpt lat="43.33723508014452" lon="11.431380929999097"><ele>252.0</ele><time>2026-04-30T13:46:33Z</time></trkpt><trkpt lat="43.33735903808999" lon="11.431391463002303"><ele>251.0</ele><time>2026-04-30T13:46:34Z</time></trkpt><trkpt lat="43.33748402743914" lon="11.431401664436914"><ele>250.0</ele><time>2026-04-30T13:46:35Z</time></trkpt><trkpt lat="43.33763801000728" lon="11.43141362162673"><ele>249.0</ele><time>2026-04-30T13:46:36Z</time></trkpt><trkpt lat="43.337785366104164" lon="11.431379789325675"><ele>248.0</ele><time>2026-04-30T13:46:37Z</time></trkpt><trkpt lat="43.33797817690803" lon="11.431417056896354"><ele>248.66666666666669</ele><time>2026-04-30T13:46:38Z</time></trkpt><trkpt lat="43.3381529279834" lon="11.431428137316459"><ele>249.33333333333331</ele><time>2026-04-30T13:46:39Z</time></trkpt><trkpt lat="43.33831370505345" lon="11.431470223398039"><ele>250.0</ele><time>2026-04-30T13:46:40Z</time></trkpt><trkpt lat="43.338465544023016" lon="11.431578171325114"><ele>250.0</ele><time>2026-04-30T13:46:41Z</time></trkpt><trkpt lat="43.33862724458079" lon="11.43173774057194"><ele>250.0</ele><time>2026-04-30T13:46:42Z</time></trkpt><trkpt lat="43.33878991886688" lon="11.43192242112523"><ele>250.0</ele><time>2026-04-30T13:46:43Z</time></trkpt><trkpt lat="43.33893997615035" lon="11.432097666319525"><ele>250.0</ele><time>2026-04-30T13:46:44Z</time></trkpt><trkpt lat="43.3390770319455" lon="11.432259743937122"><ele>250.0</ele><time>2026-04-30T13:46:45Z</time></trkpt><trkpt lat="43.339199133523266" lon="11.432411729414998"><ele>250.0</ele><time>2026-04-30T13:46:46Z</time></trkpt><trkpt lat="43.33929712289393" lon="11.43255634424706"><ele>250.0</ele><time>2026-04-30T13:46:47Z</time></trkpt><trkpt lat="43.33938356757186" lon="11.432704841802117"><ele>250.0</ele><time>2026-04-30T13:46:48Z</time></trkpt><trkpt lat="43.33947967619624" lon="11.432899500534155"><ele>250.0</ele><time>2026-04-30T13:46:49Z</time></trkpt><trkpt lat="43.33958034858904" lon="11.43312848034123"><ele>249.66666666666666</ele><time>2026-04-30T13:46:50Z</time></trkpt><trkpt lat="43.339675716263685" lon="11.433355830837856"><ele>249.33333333333331</ele><time>2026-04-30T13:46:51Z</time></trkpt><trkpt lat="43.339767832986276" lon="11.433575431061293"><ele>249.0</ele><time>2026-04-30T13:46:52Z</time></trkpt><trkpt lat="43.33986828245617" lon="11.433772655765154"><ele>249.0</ele><time>2026-04-30T13:46:53Z</time></trkpt><trkpt lat="43.339952749604265" lon="11.433971310873206"><ele>249.0</ele><time>2026-04-30T13:46:54Z</time></trkpt><trkpt lat="43.340028490769306" lon="11.434148144507331"><ele>249.0</ele><time>2026-04-30T13:46:55Z</time></trkpt><trkpt lat="43.34010696118613" lon="11.434313937705635"><ele>249.0</ele><time>2026-04-30T13:46:56Z</time></trkpt><trkpt lat="43.34019016384553" lon="11.43446144198106"><ele>249.0</ele><time>2026-04-30T13:46:57Z</time></trkpt><trkpt lat="43.34028776674469" lon="11.434586093364"><ele>249.0</ele><time>2026-04-30T13:46:58Z</time></trkpt><trkpt lat="43.340402716223274" lon="11.434666834556504"><ele>249.0</ele><time>2026-04-30T13:46:59Z</time></trkpt><trkpt lat="43.340542924430764" lon="11.434707393301911"><ele>248.0</ele><time>2026-04-30T13:47:00Z</time></trkpt><trkpt lat="43.340699145771225" lon="11.434695392667605"><ele>247.0</ele><time>2026-04-30T13:47:01Z</time></trkpt><trkpt lat="43.3408639847429" lon="11.434641440418668"><ele>246.0</ele><time>2026-04-30T13:47:02Z</time></trkpt><trkpt lat="43.3410510725349" lon="11.434556541320557"><ele>246.0</ele><time>2026-04-30T13:47:03Z</time></trkpt><trkpt lat="43.34126156495222" lon="11.434469839430399"><ele>246.0</ele><time>2026-04-30T13:47:04Z</time></trkpt><trkpt lat="43.34148789697555" lon="11.434382243380247"><ele>246.0</ele><time>2026-04-30T13:47:05Z</time></trkpt><trkpt lat="43.34171365477607" lon="11.434304288820677"><ele>246.0</ele><time>2026-04-30T13:47:06Z</time></trkpt><trkpt lat="43.34193882352801" lon="11.434227075093283"><ele>246.0</ele><time>2026-04-30T13:47:07Z</time></trkpt><trkpt lat="43.34214630782234" lon="11.434151259033953"><ele>246.0</ele><time>2026-04-30T13:47:08Z</time></trkpt><trkpt lat="43.342336704332915" lon="11.434078642907586"><ele>246.0</ele><time>2026-04-30T13:47:09Z</time></trkpt><trkpt lat="43.34250679884221" lon="11.434036498030515"><ele>246.33333333333331</ele><time>2026-04-30T13:47:10Z</time></trkpt><trkpt lat="43.34266132179063" lon="11.433984426784871"><ele>246.66666666666666</ele><time>2026-04-30T13:47:11Z</time></trkpt><trkpt lat="43.34281333956475" lon="11.433934506647363"><ele>247.0</ele><time>2026-04-30T13:47:12Z</time></trkpt><trkpt lat="43.34295164852123" lon="11.433897908646394"><ele>248.25</ele><time>2026-04-30T13:47:13Z</time></trkpt><trkpt lat="43.3430833324833" lon="11.433883657648552"><ele>249.5</ele><time>2026-04-30T13:47:14Z</time></trkpt><trkpt lat="43.34320494038515" lon="11.43390558380508"><ele>250.75</ele><time>2026-04-30T13:47:15.001Z</time></trkpt><trkpt lat="43.34332111520259" lon="11.433979125644653"><ele>252.0</ele><time>2026-04-30T13:47:16.001Z</time></trkpt><trkpt lat="43.3434253487649" lon="11.434098635726446"><ele>252.0</ele><time>2026-04-30T13:47:17.001Z</time></trkpt><trkpt lat="43.343538526572786" lon="11.43425927859085"><ele>252.0</ele><time>2026-04-30T13:47:18.001Z</time></trkpt><trkpt lat="43.34366304547823" lon="11.434445369940361"><ele>252.0</ele><time>2026-04-30T13:47:19.001Z</time></trkpt><trkpt lat="43.343809851513335" lon="11.434633525152838"><ele>254.0</ele><time>2026-04-30T13:47:20.001Z</time></trkpt><trkpt lat="43.34393772166176" lon="11.434826478837035"><ele>256.0</ele><time>2026-04-30T13:47:21.001Z</time></trkpt><trkpt lat="43.34407654171271" lon="11.435008671671095"><ele>258.0</ele><time>2026-04-30T13:47:22.001Z</time></trkpt><trkpt lat="43.344221134101204" lon="11.43518303357476"><ele>258.0</ele><time>2026-04-30T13:47:23.001Z</time></trkpt><trkpt lat="43.344372701183396" lon="11.435345126621192"><ele>258.0</ele><time>2026-04-30T13:47:24.001Z</time></trkpt><trkpt lat="43.344513868194895" lon="11.43546958995363"><ele>258.0</ele><time>2026-04-30T13:47:25.001Z</time></trkpt><trkpt lat="43.344659022797465" lon="11.435566027700641"><ele>259.0</ele><time>2026-04-30T13:47:26.001Z</time></trkpt><trkpt lat="43.34481439007299" lon="11.435618185956788"><ele>260.0</ele><time>2026-04-30T13:47:27.001Z</time></trkpt><trkpt lat="43.3449940393366" lon="11.435628817342224"><ele>261.0</ele><time>2026-04-30T13:47:28.001Z</time></trkpt><trkpt lat="43.345188585084124" lon="11.435613395420038"><ele>261.0</ele><time>2026-04-30T13:47:29.001Z</time></trkpt><trkpt lat="43.345364760766756" lon="11.435634069457757"><ele>261.0</ele><time>2026-04-30T13:47:30.001Z</time></trkpt><trkpt lat="43.34552758729795" lon="11.435638389441449"><ele>261.0</ele><time>2026-04-30T13:47:31.001Z</time></trkpt><trkpt lat="43.34567033352647" lon="11.435645480324624"><ele>262.25</ele><time>2026-04-30T13:47:32.001Z</time></trkpt><trkpt lat="43.34579215839719" lon="11.435682121044284"><ele>263.5</ele><time>2026-04-30T13:47:33.001Z</time></trkpt><trkpt lat="43.34590303829776" lon="11.435764238923877"><ele>264.75</ele><time>2026-04-30T13:47:33.999Z</time></trkpt><trkpt lat="43.34603181720466" lon="11.435876811534724"><ele>266.0</ele><time>2026-04-30T13:47:34.999Z</time></trkpt><trkpt lat="43.346179436826766" lon="11.435982430338427"><ele>266.0</ele><time>2026-04-30T13:47:35.999Z</time></trkpt><trkpt lat="43.346305399299865" lon="11.436115300150778"><ele>266.0</ele><time>2026-04-30T13:47:36.999Z</time></trkpt><trkpt lat="43.34643020569684" lon="11.436222516948098"><ele>266.0</ele><time>2026-04-30T13:47:37.999Z</time></trkpt><trkpt lat="43.346544879650054" lon="11.43633113303381"><ele>266.0</ele><time>2026-04-30T13:47:38.999Z</time></trkpt><trkpt lat="43.3466515602046" lon="11.43646157354454"><ele>265.33333333333337</ele><time>2026-04-30T13:47:39.999Z</time></trkpt><trkpt lat="43.3467566096426" lon="11.43661993258563"><ele>264.6666666666667</ele><time>2026-04-30T13:47:40.999Z</time></trkpt><trkpt lat="43.34685962160513" lon="11.436798064347325"><ele>264.0</ele><time>2026-04-30T13:47:41.999Z</time></trkpt><trkpt lat="43.346965553958455" lon="11.436984213061395"><ele>263.3333333333333</ele><time>2026-04-30T13:47:42.999Z</time></trkpt><trkpt lat="43.347074742686274" lon="11.437139976741683"><ele>262.66666666666663</ele><time>2026-04-30T13:47:43.999Z</time></trkpt><trkpt lat="43.34716888502512" lon="11.437308528067035"><ele>262.0</ele><time>2026-04-30T13:47:44.999Z</time></trkpt><trkpt lat="43.347264130585074" lon="11.437476952668394"><ele>261.25</ele><time>2026-04-30T13:47:45.999Z</time></trkpt><trkpt lat="43.3473531203285" lon="11.437656332056244"><ele>260.5</ele><time>2026-04-30T13:47:46.999Z</time></trkpt><trkpt lat="43.34744370524572" lon="11.437812777949325"><ele>259.75</ele><time>2026-04-30T13:47:47.999Z</time></trkpt><trkpt lat="43.34753617273558" lon="11.437956037602037"><ele>259.0</ele><time>2026-04-30T13:47:48.999Z</time></trkpt><trkpt lat="43.347626504878924" lon="11.438106971949354"><ele>259.0</ele><time>2026-04-30T13:47:49.999Z</time></trkpt><trkpt lat="43.347726868782004" lon="11.438251968475885"><ele>259.0</ele><time>2026-04-30T13:47:50.999Z</time></trkpt><trkpt lat="43.34786031444706" lon="11.438371724738264"><ele>259.0</ele><time>2026-04-30T13:47:51.999Z</time></trkpt><trkpt lat="43.348015321746956" lon="11.438456357434827"><ele>257.66666666666663</ele><time>2026-04-30T13:47:52.999Z</time></trkpt><trkpt lat="43.348190538317326" lon="11.438487712408474"><ele>256.3333333333333</ele><time>2026-04-30T13:47:53.999Z</time></trkpt><trkpt lat="43.34838878339109" lon="11.438499046028408"><ele>255.0</ele><time>2026-04-30T13:47:54.999Z</time></trkpt><trkpt lat="43.34857794604972" lon="11.43854446536065"><ele>255.0</ele><time>2026-04-30T13:47:55.999Z</time></trkpt><trkpt lat="43.348752247053405" lon="11.438571715126894"><ele>255.0</ele><time>2026-04-30T13:47:56.999Z</time></trkpt><trkpt lat="43.348925375724086" lon="11.43860113678776"><ele>255.0</ele><time>2026-04-30T13:47:57.999Z</time></trkpt><trkpt lat="43.34909579263133" lon="11.4386324511441"><ele>255.0</ele><time>2026-04-30T13:47:59Z</time></trkpt><trkpt lat="43.349237098154646" lon="11.438670201490249"><ele>255.0</ele><time>2026-04-30T13:48:00Z</time></trkpt><trkpt lat="43.34937287920892" lon="11.438719255522694"><ele>255.0</ele><time>2026-04-30T13:48:01Z</time></trkpt><trkpt lat="43.34949095018088" lon="11.438861891407234"><ele>255.0</ele><time>2026-04-30T13:48:02Z</time></trkpt><trkpt lat="43.34959007794799" lon="11.439026548895125"><ele>253.66666666666669</ele><time>2026-04-30T13:48:03Z</time></trkpt><trkpt lat="43.34967786849941" lon="11.439206604229422"><ele>252.33333333333334</ele><time>2026-04-30T13:48:04Z</time></trkpt><trkpt lat="43.34977678937773" lon="11.439387749212901"><ele>251.0</ele><time>2026-04-30T13:48:05Z</time></trkpt><trkpt lat="43.34986718694567" lon="11.439567192747457"><ele>249.66666666666669</ele><time>2026-04-30T13:48:06Z</time></trkpt><trkpt lat="43.34997136753847" lon="11.439720889700075"><ele>248.33333333333331</ele><time>2026-04-30T13:48:07Z</time></trkpt><trkpt lat="43.35008656435598" lon="11.439849700428429"><ele>247.0</ele><time>2026-04-30T13:48:08Z</time></trkpt><trkpt lat="43.35021376328531" lon="11.439957901957879"><ele>247.0</ele><time>2026-04-30T13:48:09Z</time></trkpt><trkpt lat="43.35034791953867" lon="11.44004528772338"><ele>247.0</ele><time>2026-04-30T13:48:10Z</time></trkpt><trkpt lat="43.35047845117544" lon="11.440105087380104"><ele>247.0</ele><time>2026-04-30T13:48:11Z</time></trkpt><trkpt lat="43.350608886752966" lon="11.440141996106556"><ele>247.0</ele><time>2026-04-30T13:48:12Z</time></trkpt><trkpt lat="43.350764713197215" lon="11.440140975989427"><ele>247.25</ele><time>2026-04-30T13:48:13Z</time></trkpt><trkpt lat="43.35092325591495" lon="11.440104212247846"><ele>247.5</ele><time>2026-04-30T13:48:14Z</time></trkpt><trkpt lat="43.35106197831035" lon="11.440051197118033"><ele>247.75</ele><time>2026-04-30T13:48:15Z</time></trkpt><trkpt lat="43.3511567724539" lon="11.439988210650572"><ele>248.0</ele><time>2026-04-30T13:48:16Z</time></trkpt><trkpt lat="43.35123969476084" lon="11.439944376190553"><ele>248.0</ele><time>2026-04-30T13:48:17Z</time></trkpt><trkpt lat="43.351311688883975" lon="11.439977063148275"><ele>248.0</ele><time>2026-04-30T13:48:18Z</time></trkpt><trkpt lat="43.35137206736853" lon="11.440074532753256"><ele>248.0</ele><time>2026-04-30T13:48:19Z</time></trkpt><trkpt lat="43.35139576891813" lon="11.440227178420102"><ele>248.0</ele><time>2026-04-30T13:48:20Z</time></trkpt><trkpt lat="43.35136150559796" lon="11.440400144834792"><ele>248.0</ele><time>2026-04-30T13:48:21Z</time></trkpt><trkpt lat="43.351363588044286" lon="11.440599467240508"><ele>247.25</ele><time>2026-04-30T13:48:22Z</time></trkpt><trkpt lat="43.35137545533979" lon="11.44077210423041"><ele>246.5</ele><time>2026-04-30T13:48:23Z</time></trkpt><trkpt lat="43.35141500501995" lon="11.440915638403732"><ele>245.75</ele><time>2026-04-30T13:48:24Z</time></trkpt><trkpt lat="43.35148250259139" lon="11.441050885119035"><ele>245.0</ele><time>2026-04-30T13:48:25Z</time></trkpt><trkpt lat="43.35157881904974" lon="11.441149768566069"><ele>245.0</ele><time>2026-04-30T13:48:26Z</time></trkpt><trkpt lat="43.35170249595078" lon="11.44120446849262"><ele>245.0</ele><time>2026-04-30T13:48:27Z</time></trkpt><trkpt lat="43.351846323066084" lon="11.441208019581511"><ele>245.0</ele><time>2026-04-30T13:48:28Z</time></trkpt><trkpt lat="43.35198764695362" lon="11.441206182849484"><ele>245.0</ele><time>2026-04-30T13:48:29Z</time></trkpt><trkpt lat="43.35211865911002" lon="11.441264430528522"><ele>243.75</ele><time>2026-04-30T13:48:30Z</time></trkpt><trkpt lat="43.352245296895475" lon="11.441327263499852"><ele>242.5</ele><time>2026-04-30T13:48:31Z</time></trkpt><trkpt lat="43.35236379436894" lon="11.441412458969406"><ele>241.25</ele><time>2026-04-30T13:48:32Z</time></trkpt><trkpt lat="43.3524709850805" lon="11.441531047433042"><ele>240.0</ele><time>2026-04-30T13:48:33Z</time></trkpt><trkpt lat="43.352571558942984" lon="11.441673329704825"><ele>240.0</ele><time>2026-04-30T13:48:34Z</time></trkpt><trkpt lat="43.35265702204118" lon="11.441834524499287"><ele>240.0</ele><time>2026-04-30T13:48:35Z</time></trkpt><trkpt lat="43.352722383569706" lon="11.442015753534934"><ele>240.0</ele><time>2026-04-30T13:48:36Z</time></trkpt><trkpt lat="43.352769887284424" lon="11.442207471311248"><ele>240.0</ele><time>2026-04-30T13:48:37Z</time></trkpt><trkpt lat="43.3527967389871" lon="11.442405749819532"><ele>238.0</ele><time>2026-04-30T13:48:38Z</time></trkpt><trkpt lat="43.35281599774542" lon="11.44258393097008"><ele>236.0</ele><time>2026-04-30T13:48:39Z</time></trkpt><trkpt lat="43.352773966479845" lon="11.442735064240457"><ele>234.0</ele><time>2026-04-30T13:48:40Z</time></trkpt><trkpt lat="43.352679811019" lon="11.442841413276007"><ele>232.0</ele><time>2026-04-30T13:48:41Z</time></trkpt><trkpt lat="43.35253448111286" lon="11.442892246531148"><ele>232.0</ele><time>2026-04-30T13:48:42Z</time></trkpt><trkpt lat="43.3523675055387" lon="11.442931230729938"><ele>232.0</ele><time>2026-04-30T13:48:43Z</time></trkpt><trkpt lat="43.352187439398435" lon="11.442974778665718"><ele>232.0</ele><time>2026-04-30T13:48:44Z</time></trkpt><trkpt lat="43.352013436095184" lon="11.443025124143524"><ele>233.75</ele><time>2026-04-30T13:48:45Z</time></trkpt><trkpt lat="43.351863437829735" lon="11.443087506978003"><ele>235.5</ele><time>2026-04-30T13:48:46Z</time></trkpt><trkpt lat="43.351738526375605" lon="11.443155166689222"><ele>237.25</ele><time>2026-04-30T13:48:47Z</time></trkpt><trkpt lat="43.35163986452138" lon="11.443225128750488"><ele>239.0</ele><time>2026-04-30T13:48:48Z</time></trkpt><trkpt lat="43.35155850009599" lon="11.443330859085632"><ele>239.0</ele><time>2026-04-30T13:48:49.001Z</time></trkpt><trkpt lat="43.35151151200531" lon="11.443508419968465"><ele>239.0</ele><time>2026-04-30T13:48:50.001Z</time></trkpt><trkpt lat="43.35149524824089" lon="11.443707175102753"><ele>239.0</ele><time>2026-04-30T13:48:51.001Z</time></trkpt><trkpt lat="43.35152333189153" lon="11.443932540063111"><ele>239.0</ele><time>2026-04-30T13:48:52.001Z</time></trkpt><trkpt lat="43.351542562434055" lon="11.44415088468527"><ele>240.25</ele><time>2026-04-30T13:48:53.001Z</time></trkpt><trkpt lat="43.351591390858516" lon="11.44434126030191"><ele>241.5</ele><time>2026-04-30T13:48:54.001Z</time></trkpt><trkpt lat="43.351613572120364" lon="11.444466281680503"><ele>242.75</ele><time>2026-04-30T13:48:55.001Z</time></trkpt><trkpt lat="43.351656593425055" lon="11.444604994070756"><ele>244.0</ele><time>2026-04-30T13:48:57.001Z</time></trkpt><trkpt lat="43.35169843756394" lon="11.444784148616277"><ele>244.0</ele><time>2026-04-30T13:48:59.001Z</time></trkpt><trkpt lat="43.351724587161" lon="11.444906963871096"><ele>244.0</ele><time>2026-04-30T13:49:00.001Z</time></trkpt><trkpt lat="43.35173075051516" lon="11.445052388489572"><ele>244.0</ele><time>2026-04-30T13:49:01.001Z</time></trkpt><trkpt lat="43.35174368768201" lon="11.445208081610488"><ele>244.0</ele><time>2026-04-30T13:49:02.001Z</time></trkpt><trkpt lat="43.35175130220417" lon="11.445406299541272"><ele>242.66666666666666</ele><time>2026-04-30T13:49:03.001Z</time></trkpt><trkpt lat="43.35176743940309" lon="11.445659770772817"><ele>241.33333333333331</ele><time>2026-04-30T13:49:04.001Z</time></trkpt><trkpt lat="43.35176726515082" lon="11.44591411597419"><ele>240.0</ele><time>2026-04-30T13:49:05.001Z</time></trkpt><trkpt lat="43.351772350523085" lon="11.446164837962543"><ele>238.33333333333331</ele><time>2026-04-30T13:49:06.001Z</time></trkpt><trkpt lat="43.351777415653366" lon="11.4464013933726"><ele>236.66666666666666</ele><time>2026-04-30T13:49:07.001Z</time></trkpt><trkpt lat="43.3517829075725" lon="11.446630972228169"><ele>235.0</ele><time>2026-04-30T13:49:08.001Z</time></trkpt><trkpt lat="43.3517847948072" lon="11.446842219665598"><ele>235.0</ele><time>2026-04-30T13:49:09.001Z</time></trkpt><trkpt lat="43.35178890452973" lon="11.447054687406407"><ele>235.0</ele><time>2026-04-30T13:49:10.001Z</time></trkpt><trkpt lat="43.35179186205178" lon="11.447276973283287"><ele>235.0</ele><time>2026-04-30T13:49:11.001Z</time></trkpt><trkpt lat="43.35179071172149" lon="11.447499700207906"><ele>234.75</ele><time>2026-04-30T13:49:12.001Z</time></trkpt><trkpt lat="43.351793880389444" lon="11.447715986119238"><ele>234.5</ele><time>2026-04-30T13:49:13.001Z</time></trkpt><trkpt lat="43.35179330991277" lon="11.447923050243396"><ele>234.25</ele><time>2026-04-30T13:49:14.001Z</time></trkpt><trkpt lat="43.351801896866164" lon="11.448103226585426"><ele>234.0</ele><time>2026-04-30T13:49:15.001Z</time></trkpt><trkpt lat="43.35182084443207" lon="11.448272684391528"><ele>234.0</ele><time>2026-04-30T13:49:16.001Z</time></trkpt><trkpt lat="43.351858969356805" lon="11.448443917044996"><ele>234.0</ele><time>2026-04-30T13:49:17.001Z</time></trkpt><trkpt lat="43.351932760312565" lon="11.448597405045724"><ele>234.0</ele><time>2026-04-30T13:49:18.001Z</time></trkpt><trkpt lat="43.35204193482347" lon="11.448726082395556"><ele>234.0</ele><time>2026-04-30T13:49:19.001Z</time></trkpt><trkpt lat="43.35219810784672" lon="11.448828875343924"><ele>233.33333333333331</ele><time>2026-04-30T13:49:20.001Z</time></trkpt><trkpt lat="43.35235481688786" lon="11.448941865027313"><ele>232.66666666666666</ele><time>2026-04-30T13:49:21.001Z</time></trkpt><trkpt lat="43.35247644434129" lon="11.449027500181128"><ele>232.0</ele><time>2026-04-30T13:49:22.001Z</time></trkpt><trkpt lat="43.35260399742478" lon="11.449096695089246"><ele>232.0</ele><time>2026-04-30T13:49:23.001Z</time></trkpt><trkpt lat="43.35270171341105" lon="11.449217297440537"><ele>232.0</ele><time>2026-04-30T13:49:24.001Z</time></trkpt><trkpt lat="43.35278271981284" lon="11.449372452673673"><ele>232.0</ele><time>2026-04-30T13:49:25.001Z</time></trkpt><trkpt lat="43.352838390572" lon="11.449564241296393"><ele>232.0</ele><time>2026-04-30T13:49:26.001Z</time></trkpt><trkpt lat="43.35285483858789" lon="11.449788465206597"><ele>230.33333333333331</ele><time>2026-04-30T13:49:27.001Z</time></trkpt><trkpt lat="43.35283551907763" lon="11.450028653527971"><ele>228.66666666666669</ele><time>2026-04-30T13:49:28.001Z</time></trkpt><trkpt lat="43.35280861114305" lon="11.45028118540721"><ele>227.0</ele><time>2026-04-30T13:49:29.001Z</time></trkpt><trkpt lat="43.35278272180661" lon="11.45053544783485"><ele>227.0</ele><time>2026-04-30T13:49:30.001Z</time></trkpt><trkpt lat="43.35275496975526" lon="11.450782863373552"><ele>227.0</ele><time>2026-04-30T13:49:31.001Z</time></trkpt><trkpt lat="43.3527279894856" lon="11.4510226916098"><ele>227.0</ele><time>2026-04-30T13:49:32.001Z</time></trkpt><trkpt lat="43.35270450225163" lon="11.451238878658836"><ele>228.0</ele><time>2026-04-30T13:49:33.001Z</time></trkpt><trkpt lat="43.352682395652586" lon="11.451431507002479"><ele>229.0</ele><time>2026-04-30T13:49:34.001Z</time></trkpt><trkpt lat="43.35266217067359" lon="11.451618658632302"><ele>230.0</ele><time>2026-04-30T13:49:35.001Z</time></trkpt><trkpt lat="43.35265523504748" lon="11.451817031998099"><ele>231.0</ele><time>2026-04-30T13:49:36.001Z</time></trkpt><trkpt lat="43.352681547293784" lon="11.452017736752639"><ele>233.33333333333331</ele><time>2026-04-30T13:49:37.001Z</time></trkpt><trkpt lat="43.35272938726678" lon="11.452218328490318"><ele>235.66666666666666</ele><time>2026-04-30T13:49:38.001Z</time></trkpt><trkpt lat="43.352797415764236" lon="11.452410249249311"><ele>238.0</ele><time>2026-04-30T13:49:39.001Z</time></trkpt><trkpt lat="43.35287263209395" lon="11.452591375852172"><ele>238.0</ele><time>2026-04-30T13:49:40Z</time></trkpt><trkpt lat="43.35296106661486" lon="11.452759004318972"><ele>238.0</ele><time>2026-04-30T13:49:41Z</time></trkpt><trkpt lat="43.35306505951719" lon="11.452908537563486"><ele>238.0</ele><time>2026-04-30T13:49:42Z</time></trkpt><trkpt lat="43.35318712221113" lon="11.453063194464171"><ele>242.0</ele><time>2026-04-30T13:49:43Z</time></trkpt><trkpt lat="43.353312703384" lon="11.453236306592625"><ele>246.0</ele><time>2026-04-30T13:49:44Z</time></trkpt><trkpt lat="43.35342215549141" lon="11.453413175922165"><ele>250.0</ele><time>2026-04-30T13:49:45Z</time></trkpt><trkpt lat="43.35350895906243" lon="11.453588668749697"><ele>250.0</ele><time>2026-04-30T13:49:46Z</time></trkpt><trkpt lat="43.35359861065227" lon="11.453764489441863"><ele>250.0</ele><time>2026-04-30T13:49:47Z</time></trkpt><trkpt lat="43.35369449474617" lon="11.453950234744275"><ele>250.0</ele><time>2026-04-30T13:49:48Z</time></trkpt><trkpt lat="43.35378301798773" lon="11.454144709684398"><ele>251.0</ele><time>2026-04-30T13:49:49Z</time></trkpt><trkpt lat="43.353852878614674" lon="11.454350149711031"><ele>252.0</ele><time>2026-04-30T13:49:50Z</time></trkpt><trkpt lat="43.35391021975396" lon="11.45455943097875"><ele>253.0</ele><time>2026-04-30T13:49:51Z</time></trkpt><trkpt lat="43.353960573537975" lon="11.45475969168986"><ele>255.0</ele><time>2026-04-30T13:49:52Z</time></trkpt><trkpt lat="43.354006331711865" lon="11.454961819270641"><ele>257.0</ele><time>2026-04-30T13:49:53Z</time></trkpt><trkpt lat="43.35405354467363" lon="11.45513140119869"><ele>259.0</ele><time>2026-04-30T13:49:54Z</time></trkpt><trkpt lat="43.354072002602024" lon="11.455265027081616"><ele>261.0</ele><time>2026-04-30T13:49:55Z</time></trkpt><trkpt lat="43.354094557205826" lon="11.455360611397666"><ele>261.0</ele><time>2026-04-30T13:49:56Z</time></trkpt><trkpt lat="43.354100966869076" lon="11.455467698511006"><ele>261.0</ele><time>2026-04-30T13:49:57Z</time></trkpt><trkpt lat="43.354030861810706" lon="11.455539146788757"><ele>261.0</ele><time>2026-04-30T13:49:58Z</time></trkpt><trkpt lat="43.353945008286516" lon="11.455526880918011"><ele>261.0</ele><time>2026-04-30T13:49:59Z</time></trkpt><trkpt lat="43.353862980954375" lon="11.45541743465661"><ele>261.0</ele><time>2026-04-30T13:50:00Z</time></trkpt><trkpt lat="43.35381537909632" lon="11.4552887742669"><ele>261.0</ele><time>2026-04-30T13:50:01Z</time></trkpt><trkpt lat="43.353729064367876" lon="11.455179789773362"><ele>261.0</ele><time>2026-04-30T13:50:02Z</time></trkpt><trkpt lat="43.35363251747073" lon="11.455094439587171"><ele>261.0</ele><time>2026-04-30T13:50:03Z</time></trkpt><trkpt lat="43.353544858508265" lon="11.455037102870769"><ele>261.0</ele><time>2026-04-30T13:50:04Z</time></trkpt><trkpt lat="43.3534354888185" lon="11.455089585775102"><ele>261.0</ele><time>2026-04-30T13:50:05Z</time></trkpt><trkpt lat="43.35335648234645" lon="11.455187901780057"><ele>261.0</ele><time>2026-04-30T13:50:06Z</time></trkpt><trkpt lat="43.35329129185788" lon="11.455336355667388"><ele>261.0</ele><time>2026-04-30T13:50:07Z</time></trkpt><trkpt lat="43.353244180960296" lon="11.455511698726548"><ele>261.0</ele><time>2026-04-30T13:50:08Z</time></trkpt><trkpt lat="43.353182676111004" lon="11.455652848264373"><ele>261.0</ele><time>2026-04-30T13:50:09Z</time></trkpt><trkpt lat="43.353119182162224" lon="11.45582465201512"><ele>262.75</ele><time>2026-04-30T13:50:10Z</time></trkpt><trkpt lat="43.35305507200754" lon="11.455980702130965"><ele>264.5</ele><time>2026-04-30T13:50:11Z</time></trkpt><trkpt lat="43.35295977070976" lon="11.456103994781968"><ele>266.25</ele><time>2026-04-30T13:50:12Z</time></trkpt><trkpt lat="43.3528165244222" lon="11.456127641398268"><ele>268.0</ele><time>2026-04-30T13:50:13Z</time></trkpt><trkpt lat="43.35267801931698" lon="11.456133190516155"><ele>268.0</ele><time>2026-04-30T13:50:14Z</time></trkpt><trkpt lat="43.35256180900918" lon="11.456091240069355"><ele>268.0</ele><time>2026-04-30T13:50:15Z</time></trkpt><trkpt lat="43.35246079687896" lon="11.456071827407044"><ele>268.0</ele><time>2026-04-30T13:50:16Z</time></trkpt><trkpt lat="43.352357876913764" lon="11.45614031976161"><ele>268.0</ele><time>2026-04-30T13:50:17Z</time></trkpt><trkpt lat="43.352273686259075" lon="11.456277953754551"><ele>267.5</ele><time>2026-04-30T13:50:18.001Z</time></trkpt><trkpt lat="43.35220636693402" lon="11.456441062727977"><ele>267.0</ele><time>2026-04-30T13:50:19.001Z</time></trkpt><trkpt lat="43.35217846759791" lon="11.456610106739124"><ele>266.5</ele><time>2026-04-30T13:50:20.001Z</time></trkpt><trkpt lat="43.352183967914016" lon="11.456784550160517"><ele>266.0</ele><time>2026-04-30T13:50:21.001Z</time></trkpt><trkpt lat="43.35225287371263" lon="11.456983268887264"><ele>271.6666666666667</ele><time>2026-04-30T13:50:22.001Z</time></trkpt><trkpt lat="43.35230671625256" lon="11.457199658029795"><ele>277.3333333333333</ele><time>2026-04-30T13:50:23.001Z</time></trkpt><trkpt lat="43.352363666996915" lon="11.457426234692958"><ele>283.0</ele><time>2026-04-30T13:50:24.001Z</time></trkpt><trkpt lat="43.352443876306324" lon="11.457679425236739"><ele>283.0</ele><time>2026-04-30T13:50:25.001Z</time></trkpt><trkpt lat="43.35253226574803" lon="11.457922278137085"><ele>283.0</ele><time>2026-04-30T13:50:26.001Z</time></trkpt><trkpt lat="43.352623417068784" lon="11.458181438649735"><ele>283.0</ele><time>2026-04-30T13:50:27.001Z</time></trkpt><trkpt lat="43.352713492461326" lon="11.458422311753273"><ele>283.3333333333333</ele><time>2026-04-30T13:50:28.001Z</time></trkpt><trkpt lat="43.35280294457684" lon="11.458643254700693"><ele>283.6666666666667</ele><time>2026-04-30T13:50:29.001Z</time></trkpt><trkpt lat="43.35288869078759" lon="11.458848132675945"><ele>284.0</ele><time>2026-04-30T13:50:30.001Z</time></trkpt><trkpt lat="43.3529725801249" lon="11.45904275959575"><ele>289.0</ele><time>2026-04-30T13:50:31.001Z</time></trkpt><trkpt lat="43.35306838624534" lon="11.459223649639462"><ele>294.0</ele><time>2026-04-30T13:50:32.001Z</time></trkpt><trkpt lat="43.35317960831305" lon="11.459395221957148"><ele>299.0</ele><time>2026-04-30T13:50:33.001Z</time></trkpt><trkpt lat="43.35329028324259" lon="11.459550117273535"><ele>299.0</ele><time>2026-04-30T13:50:34.001Z</time></trkpt><trkpt lat="43.35339577610857" lon="11.459686898055576"><ele>299.0</ele><time>2026-04-30T13:50:35.001Z</time></trkpt><trkpt lat="43.35348682027203" lon="11.459813903514284"><ele>299.0</ele><time>2026-04-30T13:50:36.001Z</time></trkpt><trkpt lat="43.35356955703571" lon="11.459928487757933"><ele>299.0</ele><time>2026-04-30T13:50:37.001Z</time></trkpt><trkpt lat="43.35364356286291" lon="11.460035038197143"><ele>299.0</ele><time>2026-04-30T13:50:38.001Z</time></trkpt><trkpt lat="43.35371137112237" lon="11.460139045066676"><ele>299.0</ele><time>2026-04-30T13:50:39.001Z</time></trkpt><trkpt lat="43.353752439686446" lon="11.460261047744675"><ele>299.0</ele><time>2026-04-30T13:50:40.001Z</time></trkpt><trkpt lat="43.35373933496111" lon="11.460393967220009"><ele>299.0</ele><time>2026-04-30T13:50:41.001Z</time></trkpt><trkpt lat="43.353683928750065" lon="11.460517014779372"><ele>299.0</ele><time>2026-04-30T13:50:42.001Z</time></trkpt><trkpt lat="43.353582640074315" lon="11.460585168726636"><ele>302.5</ele><time>2026-04-30T13:50:43.001Z</time></trkpt><trkpt lat="43.35344872677274" lon="11.460607717449099"><ele>306.0</ele><time>2026-04-30T13:50:44.001Z</time></trkpt><trkpt lat="43.35329748349572" lon="11.460593580524582"><ele>309.5</ele><time>2026-04-30T13:50:45.001Z</time></trkpt><trkpt lat="43.353165635698836" lon="11.460599409591715"><ele>313.0</ele><time>2026-04-30T13:50:46.001Z</time></trkpt><trkpt lat="43.35304855969072" lon="11.460633048513147"><ele>310.25</ele><time>2026-04-30T13:50:47.001Z</time></trkpt><trkpt lat="43.3529496187243" lon="11.460725174285107"><ele>307.5</ele><time>2026-04-30T13:50:48.001Z</time></trkpt><trkpt lat="43.35288437591389" lon="11.460868128608075"><ele>304.75</ele><time>2026-04-30T13:50:49.001Z</time></trkpt><trkpt lat="43.352864743925416" lon="11.461047483633267"><ele>302.0</ele><time>2026-04-30T13:50:50.001Z</time></trkpt><trkpt lat="43.352864287012174" lon="11.461241043629615"><ele>305.75</ele><time>2026-04-30T13:50:51.001Z</time></trkpt><trkpt lat="43.352804391601985" lon="11.46138010543356"><ele>309.5</ele><time>2026-04-30T13:50:52.001Z</time></trkpt><trkpt lat="43.352728556017844" lon="11.461524836275608"><ele>313.25</ele><time>2026-04-30T13:50:53.001Z</time></trkpt><trkpt lat="43.3525711764007" lon="11.461558350361997"><ele>317.0</ele><time>2026-04-30T13:50:54.001Z</time></trkpt><trkpt lat="43.352411001642366" lon="11.46156090323177"><ele>317.0</ele><time>2026-04-30T13:50:55.001Z</time></trkpt><trkpt lat="43.35224981379358" lon="11.461620890426246"><ele>317.0</ele><time>2026-04-30T13:50:56.001Z</time></trkpt><trkpt lat="43.3521109143179" lon="11.461733149596562"><ele>317.0</ele><time>2026-04-30T13:50:57.001Z</time></trkpt><trkpt lat="43.352003180544855" lon="11.461839520753278"><ele>316.0</ele><time>2026-04-30T13:50:58.001Z</time></trkpt><trkpt lat="43.3518846061517" lon="11.461884595795397"><ele>315.0</ele><time>2026-04-30T13:50:59.001Z</time></trkpt><trkpt lat="43.35174782078435" lon="11.46188390437133"><ele>314.0</ele><time>2026-04-30T13:51:00.001Z</time></trkpt><trkpt lat="43.35161522528509" lon="11.461792192885918"><ele>313.0</ele><time>2026-04-30T13:51:01.001Z</time></trkpt><trkpt lat="43.35150182806803" lon="11.461762419623327"><ele>313.0</ele><time>2026-04-30T13:51:02.001Z</time></trkpt><trkpt lat="43.35140616093692" lon="11.46171719700604"><ele>313.0</ele><time>2026-04-30T13:51:03.001Z</time></trkpt><trkpt lat="43.35129428062687" lon="11.461758231588943"><ele>313.0</ele><time>2026-04-30T13:51:04.001Z</time></trkpt><trkpt lat="43.35116008317072" lon="11.461855409481508"><ele>313.0</ele><time>2026-04-30T13:51:05.001Z</time></trkpt><trkpt lat="43.35103044921016" lon="11.461969706847022"><ele>313.75</ele><time>2026-04-30T13:51:06.001Z</time></trkpt><trkpt lat="43.35090280088521" lon="11.462070111207483"><ele>314.5</ele><time>2026-04-30T13:51:07.001Z</time></trkpt><trkpt lat="43.350775363746266" lon="11.462153845105103"><ele>315.25</ele><time>2026-04-30T13:51:08.001Z</time></trkpt><trkpt lat="43.35064571697599" lon="11.462220478028987"><ele>316.0</ele><time>2026-04-30T13:51:09.001Z</time></trkpt><trkpt lat="43.350509657408715" lon="11.462274935482156"><ele>313.75</ele><time>2026-04-30T13:51:10.001Z</time></trkpt><trkpt lat="43.350377376137715" lon="11.462326139327672"><ele>311.5</ele><time>2026-04-30T13:51:11.001Z</time></trkpt><trkpt lat="43.350260765783716" lon="11.462375906053746"><ele>309.25</ele><time>2026-04-30T13:51:12.001Z</time></trkpt><trkpt lat="43.35016792385275" lon="11.462439581979263"><ele>307.0</ele><time>2026-04-30T13:51:13.001Z</time></trkpt><trkpt lat="43.35010555155921" lon="11.462526257466669"><ele>307.0</ele><time>2026-04-30T13:51:14.001Z</time></trkpt><trkpt lat="43.35007431298408" lon="11.4626431796433"><ele>307.0</ele><time>2026-04-30T13:51:15.001Z</time></trkpt><trkpt lat="43.3500989955963" lon="11.462783842582454"><ele>307.0</ele><time>2026-04-30T13:51:16.001Z</time></trkpt><trkpt lat="43.35016896709361" lon="11.462908469438982"><ele>307.0</ele><time>2026-04-30T13:51:17.001Z</time></trkpt><trkpt lat="43.35026912475102" lon="11.463011184925186"><ele>307.0</ele><time>2026-04-30T13:51:18.001Z</time></trkpt><trkpt lat="43.35036735282569" lon="11.46312015297561"><ele>305.0</ele><time>2026-04-30T13:51:19.001Z</time></trkpt><trkpt lat="43.350457209159224" lon="11.463259274159322"><ele>303.0</ele><time>2026-04-30T13:51:20.002Z</time></trkpt><trkpt lat="43.35049816050956" lon="11.46343290126594"><ele>301.0</ele><time>2026-04-30T13:51:21.002Z</time></trkpt><trkpt lat="43.35052526039469" lon="11.463597937448009"><ele>299.0</ele><time>2026-04-30T13:51:22.002Z</time></trkpt><trkpt lat="43.35048941772473" lon="11.463767127254863"><ele>299.75</ele><time>2026-04-30T13:51:23.002Z</time></trkpt><trkpt lat="43.35039338818638" lon="11.463892565123828"><ele>300.5</ele><time>2026-04-30T13:51:24.002Z</time></trkpt><trkpt lat="43.350271572927255" lon="11.463966958388543"><ele>301.25</ele><time>2026-04-30T13:51:25.002Z</time></trkpt><trkpt lat="43.35016645869165" lon="11.464079972311403"><ele>302.0</ele><time>2026-04-30T13:51:26.002Z</time></trkpt><trkpt lat="43.35009169413964" lon="11.464242730526523"><ele>302.0</ele><time>2026-04-30T13:51:27.002Z</time></trkpt><trkpt lat="43.350056899253055" lon="11.464435243807745"><ele>302.0</ele><time>2026-04-30T13:51:28.002Z</time></trkpt><trkpt lat="43.35002232484637" lon="11.46460768673503"><ele>302.0</ele><time>2026-04-30T13:51:29.002Z</time></trkpt><trkpt lat="43.34999912615124" lon="11.464771524068993"><ele>302.0</ele><time>2026-04-30T13:51:30.002Z</time></trkpt><trkpt lat="43.34991376442493" lon="11.464906680053598"><ele>302.5</ele><time>2026-04-30T13:51:31.002Z</time></trkpt><trkpt lat="43.349797402613866" lon="11.46498698906085"><ele>303.0</ele><time>2026-04-30T13:51:32.002Z</time></trkpt><trkpt lat="43.34966981994572" lon="11.465016332362215"><ele>303.5</ele><time>2026-04-30T13:51:33.002Z</time></trkpt><trkpt lat="43.349537305075195" lon="11.465004026363372"><ele>304.0</ele><time>2026-04-30T13:51:34.002Z</time></trkpt><trkpt lat="43.349419627858815" lon="11.464899186374845"><ele>304.0</ele><time>2026-04-30T13:51:35.002Z</time></trkpt><trkpt lat="43.34928650583838" lon="11.464776897588578"><ele>304.0</ele><time>2026-04-30T13:51:36.002Z</time></trkpt><trkpt lat="43.34917773173783" lon="11.464658366254255"><ele>304.0</ele><time>2026-04-30T13:51:37.002Z</time></trkpt><trkpt lat="43.34906443582501" lon="11.464554310132677"><ele>304.0</ele><time>2026-04-30T13:51:38.002Z</time></trkpt><trkpt lat="43.34893718901319" lon="11.464474629355136"><ele>299.5</ele><time>2026-04-30T13:51:39.002Z</time></trkpt><trkpt lat="43.348797873034066" lon="11.464425800472181"><ele>295.0</ele><time>2026-04-30T13:51:40.002Z</time></trkpt><trkpt lat="43.34865020352665" lon="11.4644476202983"><ele>290.5</ele><time>2026-04-30T13:51:41.002Z</time></trkpt><trkpt lat="43.34850870063666" lon="11.464432224625709"><ele>286.0</ele><time>2026-04-30T13:51:42.002Z</time></trkpt><trkpt lat="43.348362584552625" lon="11.464466011797304"><ele>286.0</ele><time>2026-04-30T13:51:43.002Z</time></trkpt><trkpt lat="43.348213861588654" lon="11.464476281422835"><ele>286.0</ele><time>2026-04-30T13:51:44.002Z</time></trkpt><trkpt lat="43.34807645017465" lon="11.464483045968452"><ele>286.0</ele><time>2026-04-30T13:51:45.002Z</time></trkpt><trkpt lat="43.34795309753774" lon="11.464490888682557"><ele>286.0</ele><time>2026-04-30T13:51:46.001Z</time></trkpt><trkpt lat="43.34781831985347" lon="11.464530582757058"><ele>286.3333333333333</ele><time>2026-04-30T13:51:47.001Z</time></trkpt><trkpt lat="43.34768279726988" lon="11.464613015851334"><ele>286.6666666666667</ele><time>2026-04-30T13:51:48.001Z</time></trkpt><trkpt lat="43.34756049063363" lon="11.464746570992785"><ele>287.0</ele><time>2026-04-30T13:51:49.001Z</time></trkpt><trkpt lat="43.34744843123862" lon="11.464908801924569"><ele>287.0</ele><time>2026-04-30T13:51:50.001Z</time></trkpt><trkpt lat="43.34732899850027" lon="11.465058850417016"><ele>287.0</ele><time>2026-04-30T13:51:51.001Z</time></trkpt><trkpt lat="43.34723141920308" lon="11.46523700515581"><ele>287.0</ele><time>2026-04-30T13:51:52.001Z</time></trkpt><trkpt lat="43.34711764318943" lon="11.465386299970081"><ele>283.33333333333337</ele><time>2026-04-30T13:51:53.001Z</time></trkpt><trkpt lat="43.34700724169176" lon="11.465544493282792"><ele>279.6666666666667</ele><time>2026-04-30T13:51:54.001Z</time></trkpt><trkpt lat="43.34689204846589" lon="11.465687157392704"><ele>276.0</ele><time>2026-04-30T13:51:55.001Z</time></trkpt><trkpt lat="43.34676668774885" lon="11.465805941640106"><ele>276.0</ele><time>2026-04-30T13:51:56.001Z</time></trkpt><trkpt lat="43.34662354541692" lon="11.465882908916477"><ele>276.0</ele><time>2026-04-30T13:51:57.001Z</time></trkpt><trkpt lat="43.346467017498796" lon="11.465904933308638"><ele>276.0</ele><time>2026-04-30T13:51:58.001Z</time></trkpt><trkpt lat="43.346327599358" lon="11.465903408322312"><ele>276.25</ele><time>2026-04-30T13:51:59.001Z</time></trkpt><trkpt lat="43.346195893147545" lon="11.4658892896697"><ele>276.5</ele><time>2026-04-30T13:52:00.001Z</time></trkpt><trkpt lat="43.346071855383194" lon="11.465883350027397"><ele>276.75</ele><time>2026-04-30T13:52:01.001Z</time></trkpt><trkpt lat="43.34595979801342" lon="11.465897174989657"><ele>277.0</ele><time>2026-04-30T13:52:02.001Z</time></trkpt><trkpt lat="43.345861893596236" lon="11.465942699336185"><ele>277.0</ele><time>2026-04-30T13:52:03.001Z</time></trkpt><trkpt lat="43.34577398424205" lon="11.465953268382691"><ele>277.0</ele><time>2026-04-30T13:52:04.001Z</time></trkpt><trkpt lat="43.34567851218716" lon="11.46598297715298"><ele>277.0</ele><time>2026-04-30T13:52:05.001Z</time></trkpt><trkpt lat="43.3455687475228" lon="11.46601474309566"><ele>277.0</ele><time>2026-04-30T13:52:06.001Z</time></trkpt><trkpt lat="43.34544543682348" lon="11.465984324001287"><ele>277.0</ele><time>2026-04-30T13:52:07.001Z</time></trkpt><trkpt lat="43.3453118728272" lon="11.465896839215294"><ele>275.3333333333333</ele><time>2026-04-30T13:52:08.001Z</time></trkpt><trkpt lat="43.34514708008644" lon="11.46578824774232"><ele>273.6666666666667</ele><time>2026-04-30T13:52:09.001Z</time></trkpt><trkpt lat="43.34495845394877" lon="11.465704339784459"><ele>272.0</ele><time>2026-04-30T13:52:10.001Z</time></trkpt><trkpt lat="43.34476615863256" lon="11.465620229616759"><ele>269.33333333333337</ele><time>2026-04-30T13:52:11.001Z</time></trkpt><trkpt lat="43.34457286269645" lon="11.465570466415073"><ele>266.6666666666667</ele><time>2026-04-30T13:52:12.001Z</time></trkpt><trkpt lat="43.34438655025626" lon="11.465535910613243"><ele>264.0</ele><time>2026-04-30T13:52:13.001Z</time></trkpt><trkpt lat="43.34421599716796" lon="11.465504719797025"><ele>264.0</ele><time>2026-04-30T13:52:14.001Z</time></trkpt><trkpt lat="43.34404623413667" lon="11.465465777437354"><ele>264.0</ele><time>2026-04-30T13:52:15.001Z</time></trkpt><trkpt lat="43.34388335582717" lon="11.465420897338062"><ele>264.0</ele><time>2026-04-30T13:52:16.001Z</time></trkpt><trkpt lat="43.34372442507099" lon="11.465385574852464"><ele>264.3333333333333</ele><time>2026-04-30T13:52:17.001Z</time></trkpt><trkpt lat="43.34357375426003" lon="11.465350007909267"><ele>264.66666666666663</ele><time>2026-04-30T13:52:18.001Z</time></trkpt><trkpt lat="43.343421633038986" lon="11.465346451262382"><ele>265.0</ele><time>2026-04-30T13:52:19.001Z</time></trkpt><trkpt lat="43.343267731034" lon="11.46540842401661"><ele>264.0</ele><time>2026-04-30T13:52:20.001Z</time></trkpt><trkpt lat="43.34312679356675" lon="11.465501237481975"><ele>263.0</ele><time>2026-04-30T13:52:21.001Z</time></trkpt><trkpt lat="43.34298941266513" lon="11.465591562536279"><ele>262.0</ele><time>2026-04-30T13:52:22.001Z</time></trkpt><trkpt lat="43.34285059959074" lon="11.465642669148735"><ele>261.3333333333333</ele><time>2026-04-30T13:52:23.001Z</time></trkpt><trkpt lat="43.34270937291112" lon="11.465643129779874"><ele>260.6666666666667</ele><time>2026-04-30T13:52:24.001Z</time></trkpt><trkpt lat="43.34256743075341" lon="11.465580723877334"><ele>260.0</ele><time>2026-04-30T13:52:25.001Z</time></trkpt><trkpt lat="43.34242708342999" lon="11.46546272386996"><ele>261.0</ele><time>2026-04-30T13:52:26.001Z</time></trkpt><trkpt lat="43.34229370386058" lon="11.465313264084857"><ele>262.0</ele><time>2026-04-30T13:52:27.001Z</time></trkpt><trkpt lat="43.3421773195798" lon="11.465165535877121"><ele>263.0</ele><time>2026-04-30T13:52:28.001Z</time></trkpt><trkpt lat="43.342057268444506" lon="11.46503301854157"><ele>261.5</ele><time>2026-04-30T13:52:29.001Z</time></trkpt><trkpt lat="43.34195102786104" lon="11.464944023722087"><ele>260.0</ele><time>2026-04-30T13:52:30.001Z</time></trkpt><trkpt lat="43.341835365044616" lon="11.464902819580251"><ele>258.5</ele><time>2026-04-30T13:52:31.001Z</time></trkpt><trkpt lat="43.341711372396766" lon="11.46491200755916"><ele>257.0</ele><time>2026-04-30T13:52:32.001Z</time></trkpt><trkpt lat="43.341596708582195" lon="11.464979850825236"><ele>257.0</ele><time>2026-04-30T13:52:33.001Z</time></trkpt><trkpt lat="43.34150039264828" lon="11.465092561046472"><ele>257.0</ele><time>2026-04-30T13:52:34.001Z</time></trkpt><trkpt lat="43.341434134328495" lon="11.465238281946942"><ele>257.0</ele><time>2026-04-30T13:52:35.001Z</time></trkpt><trkpt lat="43.341413096317844" lon="11.465406844415439"><ele>257.0</ele><time>2026-04-30T13:52:36.001Z</time></trkpt><trkpt lat="43.341434658011075" lon="11.465585213699665"><ele>256.33333333333337</ele><time>2026-04-30T13:52:37.001Z</time></trkpt><trkpt lat="43.341491092575644" lon="11.465774760598624"><ele>255.66666666666669</ele><time>2026-04-30T13:52:38.001Z</time></trkpt><trkpt lat="43.34157923056971" lon="11.465966318837436"><ele>255.0</ele><time>2026-04-30T13:52:39.001Z</time></trkpt><trkpt lat="43.34166711006212" lon="11.466175939183072"><ele>254.33333333333331</ele><time>2026-04-30T13:52:40.001Z</time></trkpt><trkpt lat="43.34173452791439" lon="11.466403649105553"><ele>253.66666666666666</ele><time>2026-04-30T13:52:41.001Z</time></trkpt><trkpt lat="43.34176192018534" lon="11.466690028162208"><ele>253.0</ele><time>2026-04-30T13:52:42.001Z</time></trkpt><trkpt lat="43.34177576894153" lon="11.466973965236704"><ele>251.0</ele><time>2026-04-30T13:52:43.001Z</time></trkpt><trkpt lat="43.34179873723164" lon="11.467246304596923"><ele>249.0</ele><time>2026-04-30T13:52:44.001Z</time></trkpt><trkpt lat="43.34180770657204" lon="11.467518955924033"><ele>247.0</ele><time>2026-04-30T13:52:45.001Z</time></trkpt><trkpt lat="43.34181969760425" lon="11.467777276000417"><ele>245.0</ele><time>2026-04-30T13:52:46.001Z</time></trkpt><trkpt lat="43.341815901357606" lon="11.46802178412295"><ele>243.0</ele><time>2026-04-30T13:52:47.001Z</time></trkpt><trkpt lat="43.34182519642302" lon="11.468253458749054"><ele>241.0</ele><time>2026-04-30T13:52:48.001Z</time></trkpt><trkpt lat="43.34183223743146" lon="11.46846558327922"><ele>241.0</ele><time>2026-04-30T13:52:49.001Z</time></trkpt><trkpt lat="43.34183620784029" lon="11.468660034338228"><ele>241.0</ele><time>2026-04-30T13:52:50.001Z</time></trkpt><trkpt lat="43.34182551700467" lon="11.468855926779208"><ele>241.0</ele><time>2026-04-30T13:52:51.001Z</time></trkpt><trkpt lat="43.341752976238986" lon="11.469039898223492"><ele>241.0</ele><time>2026-04-30T13:52:52.001Z</time></trkpt><trkpt lat="43.34164943600233" lon="11.469191363306543"><ele>241.33333333333331</ele><time>2026-04-30T13:52:53.001Z</time></trkpt><trkpt lat="43.34150480182076" lon="11.469287378179612"><ele>241.66666666666669</ele><time>2026-04-30T13:52:54.001Z</time></trkpt><trkpt lat="43.34135182494551" lon="11.469349008968615"><ele>242.0</ele><time>2026-04-30T13:52:55.001Z</time></trkpt><trkpt lat="43.34119705595372" lon="11.469375690639605"><ele>240.66666666666669</ele><time>2026-04-30T13:52:56.001Z</time></trkpt><trkpt lat="43.34102885087655" lon="11.469345847150535"><ele>239.33333333333331</ele><time>2026-04-30T13:52:57.001Z</time></trkpt><trkpt lat="43.34087121471901" lon="11.469277622533445"><ele>238.0</ele><time>2026-04-30T13:52:58.001Z</time></trkpt><trkpt lat="43.34072736362661" lon="11.469213419589778"><ele>238.0</ele><time>2026-04-30T13:52:59.001Z</time></trkpt><trkpt lat="43.34059262753062" lon="11.469167224831345"><ele>238.0</ele><time>2026-04-30T13:53:00.001Z</time></trkpt><trkpt lat="43.34045511777993" lon="11.469162076502064"><ele>238.0</ele><time>2026-04-30T13:53:01.001Z</time></trkpt><trkpt lat="43.340321409748576" lon="11.469225215246427"><ele>238.0</ele><time>2026-04-30T13:53:02.001Z</time></trkpt><trkpt lat="43.34018269805717" lon="11.469314120460423"><ele>237.0</ele><time>2026-04-30T13:53:03.001Z</time></trkpt><trkpt lat="43.340070913619684" lon="11.469453408573735"><ele>236.0</ele><time>2026-04-30T13:53:04.001Z</time></trkpt><trkpt lat="43.33999194080347" lon="11.469628162203087"><ele>235.0</ele><time>2026-04-30T13:53:05.001Z</time></trkpt><trkpt lat="43.339908686216226" lon="11.469821197630699"><ele>235.0</ele><time>2026-04-30T13:53:06.001Z</time></trkpt><trkpt lat="43.33984270332388" lon="11.470032146221177"><ele>235.0</ele><time>2026-04-30T13:53:07.001Z</time></trkpt><trkpt lat="43.33981341915743" lon="11.47025474984915"><ele>235.0</ele><time>2026-04-30T13:53:08.001Z</time></trkpt><trkpt lat="43.339819334485696" lon="11.470481076229975"><ele>234.33333333333331</ele><time>2026-04-30T13:53:09.001Z</time></trkpt><trkpt lat="43.339862272592136" lon="11.470705777085257"><ele>233.66666666666669</ele><time>2026-04-30T13:53:10.001Z</time></trkpt><trkpt lat="43.339934207147664" lon="11.47091189205736"><ele>233.0</ele><time>2026-04-30T13:53:11.001Z</time></trkpt><trkpt lat="43.340010343664716" lon="11.471115703645342"><ele>232.25</ele><time>2026-04-30T13:53:12.001Z</time></trkpt><trkpt lat="43.34006216195531" lon="11.47131022738035"><ele>231.5</ele><time>2026-04-30T13:53:13.001Z</time></trkpt><trkpt lat="43.34009148004954" lon="11.471503325122544"><ele>230.75</ele><time>2026-04-30T13:53:14.001Z</time></trkpt><trkpt lat="43.34007205007619" lon="11.471710036391817"><ele>230.0</ele><time>2026-04-30T13:53:15.001Z</time></trkpt><trkpt lat="43.34004516842727" lon="11.471914070663486"><ele>229.0</ele><time>2026-04-30T13:53:16.001Z</time></trkpt><trkpt lat="43.33997641623931" lon="11.472116626151905"><ele>228.0</ele><time>2026-04-30T13:53:17.001Z</time></trkpt><trkpt lat="43.33987429156945" lon="11.472323565354738"><ele>227.0</ele><time>2026-04-30T13:53:18.001Z</time></trkpt><trkpt lat="43.339765993257394" lon="11.472524202317734"><ele>227.33333333333334</ele><time>2026-04-30T13:53:19.001Z</time></trkpt><trkpt lat="43.339655567409295" lon="11.472726178793845"><ele>227.66666666666669</ele><time>2026-04-30T13:53:20.001Z</time></trkpt><trkpt lat="43.339547314085166" lon="11.472929220983946"><ele>228.0</ele><time>2026-04-30T13:53:21.001Z</time></trkpt><trkpt lat="43.33944317050085" lon="11.473127285884482"><ele>231.0</ele><time>2026-04-30T13:53:22.001Z</time></trkpt><trkpt lat="43.33934447882982" lon="11.47330792024873"><ele>234.0</ele><time>2026-04-30T13:53:23.001Z</time></trkpt><trkpt lat="43.33925358393952" lon="11.473472487395497"><ele>237.0</ele><time>2026-04-30T13:53:24.001Z</time></trkpt><trkpt lat="43.33915511280917" lon="11.47363443938964"><ele>237.0</ele><time>2026-04-30T13:53:25.002Z</time></trkpt><trkpt lat="43.339025703625204" lon="11.473749594973993"><ele>237.0</ele><time>2026-04-30T13:53:26.002Z</time></trkpt><trkpt lat="43.33887097942695" lon="11.473822219346456"><ele>237.0</ele><time>2026-04-30T13:53:27.002Z</time></trkpt><trkpt lat="43.338699131591525" lon="11.473840484383414"><ele>241.33333333333331</ele><time>2026-04-30T13:53:28.002Z</time></trkpt><trkpt lat="43.3385394143704" lon="11.473842212998973"><ele>245.66666666666666</ele><time>2026-04-30T13:53:29.002Z</time></trkpt><trkpt lat="43.33838088854367" lon="11.47387729831569"><ele>250.0</ele><time>2026-04-30T13:53:30.002Z</time></trkpt><trkpt lat="43.33821766193319" lon="11.473957106185797"><ele>250.0</ele><time>2026-04-30T13:53:31.002Z</time></trkpt><trkpt lat="43.33808453803594" lon="11.474074097992277"><ele>250.0</ele><time>2026-04-30T13:53:32.002Z</time></trkpt><trkpt lat="43.337984944852295" lon="11.474208582705753"><ele>250.0</ele><time>2026-04-30T13:53:33.002Z</time></trkpt><trkpt lat="43.337904678448055" lon="11.474384921494426"><ele>250.0</ele><time>2026-04-30T13:53:34.002Z</time></trkpt><trkpt lat="43.337845162232455" lon="11.474614841027398"><ele>251.0</ele><time>2026-04-30T13:53:35.002Z</time></trkpt><trkpt lat="43.337803481850806" lon="11.474848170462678"><ele>252.0</ele><time>2026-04-30T13:53:36.002Z</time></trkpt><trkpt lat="43.337763982837245" lon="11.475085739614663"><ele>253.0</ele><time>2026-04-30T13:53:37.002Z</time></trkpt><trkpt lat="43.337712481514515" lon="11.475329826924494"><ele>255.66666666666666</ele><time>2026-04-30T13:53:38.002Z</time></trkpt><trkpt lat="43.337682765216094" lon="11.475571489941844"><ele>258.3333333333333</ele><time>2026-04-30T13:53:39.002Z</time></trkpt><trkpt lat="43.33765914536756" lon="11.475800369325905"><ele>261.0</ele><time>2026-04-30T13:53:40.002Z</time></trkpt><trkpt lat="43.33760626259917" lon="11.475998271930235"><ele>261.0</ele><time>2026-04-30T13:53:41.002Z</time></trkpt><trkpt lat="43.33755235115674" lon="11.476181731939235"><ele>261.0</ele><time>2026-04-30T13:53:42.002Z</time></trkpt><trkpt lat="43.3374958652612" lon="11.476373224300264"><ele>261.0</ele><time>2026-04-30T13:53:43.002Z</time></trkpt><trkpt lat="43.33747963570252" lon="11.476583653967035"><ele>261.0</ele><time>2026-04-30T13:53:44.002Z</time></trkpt><trkpt lat="43.337492418831594" lon="11.476813051107266"><ele>261.6666666666667</ele><time>2026-04-30T13:53:45.002Z</time></trkpt><trkpt lat="43.337538297564855" lon="11.477052924899601"><ele>262.33333333333337</ele><time>2026-04-30T13:53:46.002Z</time></trkpt><trkpt lat="43.337588222337764" lon="11.477284560109524"><ele>263.0</ele><time>2026-04-30T13:53:47.002Z</time></trkpt><trkpt lat="43.337637330893884" lon="11.477519485828509"><ele>264.0</ele><time>2026-04-30T13:53:48.002Z</time></trkpt><trkpt lat="43.3376865853809" lon="11.477746972800858"><ele>265.0</ele><time>2026-04-30T13:53:49.002Z</time></trkpt><trkpt lat="43.337733712317394" lon="11.47797485952878"><ele>266.0</ele><time>2026-04-30T13:53:50.002Z</time></trkpt><trkpt lat="43.337780490172996" lon="11.47818893029131"><ele>267.25</ele><time>2026-04-30T13:53:51.002Z</time></trkpt><trkpt lat="43.33783758767399" lon="11.478381638957549"><ele>268.5</ele><time>2026-04-30T13:53:52.001Z</time></trkpt><trkpt lat="43.337876671097916" lon="11.478561921904268"><ele>269.75</ele><time>2026-04-30T13:53:53.001Z</time></trkpt><trkpt lat="43.337907816588064" lon="11.478744866673496"><ele>271.0</ele><time>2026-04-30T13:53:54.001Z</time></trkpt><trkpt lat="43.337903260559905" lon="11.478914289264226"><ele>271.75</ele><time>2026-04-30T13:53:55.001Z</time></trkpt><trkpt lat="43.33786568991762" lon="11.479052287526848"><ele>272.5</ele><time>2026-04-30T13:53:56.001Z</time></trkpt><trkpt lat="43.337784488530936" lon="11.479160900623048"><ele>273.25</ele><time>2026-04-30T13:53:57.001Z</time></trkpt><trkpt lat="43.337679728511425" lon="11.479238434180449"><ele>274.0</ele><time>2026-04-30T13:53:58.001Z</time></trkpt><trkpt lat="43.3375391927312" lon="11.47925380432243"><ele>274.0</ele><time>2026-04-30T13:53:59.001Z</time></trkpt><trkpt lat="43.33737427759537" lon="11.479265228563902"><ele>274.0</ele><time>2026-04-30T13:54:00.001Z</time></trkpt><trkpt lat="43.33722422366912" lon="11.479273757409107"><ele>274.0</ele><time>2026-04-30T13:54:01.001Z</time></trkpt><trkpt lat="43.33708613797676" lon="11.47926472933766"><ele>274.5</ele><time>2026-04-30T13:54:02.001Z</time></trkpt><trkpt lat="43.33696139568955" lon="11.479269505192315"><ele>275.0</ele><time>2026-04-30T13:54:03.001Z</time></trkpt><trkpt lat="43.33683113571686" lon="11.479320346467139"><ele>275.5</ele><time>2026-04-30T13:54:04.001Z</time></trkpt><trkpt lat="43.33670610976862" lon="11.479391351201853"><ele>276.0</ele><time>2026-04-30T13:54:05.001Z</time></trkpt><trkpt lat="43.33658896134497" lon="11.479481990535167"><ele>276.0</ele><time>2026-04-30T13:54:06.001Z</time></trkpt><trkpt lat="43.33647405164039" lon="11.47957485879282"><ele>276.0</ele><time>2026-04-30T13:54:07.001Z</time></trkpt><trkpt lat="43.33636154114105" lon="11.479679777792281"><ele>276.0</ele><time>2026-04-30T13:54:08.001Z</time></trkpt><trkpt lat="43.33623724039339" lon="11.479789073972736"><ele>276.0</ele><time>2026-04-30T13:54:09.001Z</time></trkpt><trkpt lat="43.336115837214244" lon="11.479889439040283"><ele>277.0</ele><time>2026-04-30T13:54:10.001Z</time></trkpt><trkpt lat="43.33600242646174" lon="11.479996609902503"><ele>278.0</ele><time>2026-04-30T13:54:11.001Z</time></trkpt><trkpt lat="43.33587947684347" lon="11.480103699212705"><ele>279.0</ele><time>2026-04-30T13:54:12.001Z</time></trkpt><trkpt lat="43.33575368632038" lon="11.480210202098789"><ele>280.0</ele><time>2026-04-30T13:54:13.001Z</time></trkpt><trkpt lat="43.33563492379592" lon="11.480315781281266"><ele>280.25</ele><time>2026-04-30T13:54:14.001Z</time></trkpt><trkpt lat="43.33552144644908" lon="11.480424705950416"><ele>280.5</ele><time>2026-04-30T13:54:15.001Z</time></trkpt><trkpt lat="43.335420776846135" lon="11.480543734372997"><ele>280.75</ele><time>2026-04-30T13:54:16.001Z</time></trkpt><trkpt lat="43.33531764463076" lon="11.4806828781023"><ele>281.0</ele><time>2026-04-30T13:54:17.001Z</time></trkpt><trkpt lat="43.335219104288285" lon="11.480833247429553"><ele>280.5</ele><time>2026-04-30T13:54:18.001Z</time></trkpt><trkpt lat="43.33513036279102" lon="11.480973921601198"><ele>280.0</ele><time>2026-04-30T13:54:19.001Z</time></trkpt><trkpt lat="43.33504697959511" lon="11.481118286793798"><ele>279.5</ele><time>2026-04-30T13:54:20.001Z</time></trkpt><trkpt lat="43.33496163486968" lon="11.481258525068107"><ele>279.0</ele><time>2026-04-30T13:54:21.001Z</time></trkpt><trkpt lat="43.33487698632665" lon="11.48139631904029"><ele>277.75</ele><time>2026-04-30T13:54:22.001Z</time></trkpt><trkpt lat="43.33479547922493" lon="11.481546785928762"><ele>276.5</ele><time>2026-04-30T13:54:23.001Z</time></trkpt><trkpt lat="43.33471683099097" lon="11.481700315451128"><ele>275.25</ele><time>2026-04-30T13:54:24.001Z</time></trkpt><trkpt lat="43.334641142535546" lon="11.481853320806886"><ele>274.0</ele><time>2026-04-30T13:54:25.001Z</time></trkpt><trkpt lat="43.33457437399078" lon="11.482007892226985"><ele>275.75</ele><time>2026-04-30T13:54:26.001Z</time></trkpt><trkpt lat="43.33453896647944" lon="11.482195627633178"><ele>277.5</ele><time>2026-04-30T13:54:27.001Z</time></trkpt><trkpt lat="43.334545496388756" lon="11.482401349590592"><ele>279.25</ele><time>2026-04-30T13:54:28.001Z</time></trkpt><trkpt lat="43.3345730047187" lon="11.482606067409398"><ele>281.0</ele><time>2026-04-30T13:54:29.001Z</time></trkpt><trkpt lat="43.334610241088114" lon="11.482839554815353"><ele>282.0</ele><time>2026-04-30T13:54:30.001Z</time></trkpt><trkpt lat="43.33464030426028" lon="11.483079833859753"><ele>283.0</ele><time>2026-04-30T13:54:31.001Z</time></trkpt><trkpt lat="43.334662338115784" lon="11.48331854056044"><ele>284.0</ele><time>2026-04-30T13:54:32.001Z</time></trkpt><trkpt lat="43.33468331867885" lon="11.48354773788879"><ele>284.33333333333337</ele><time>2026-04-30T13:54:33.001Z</time></trkpt><trkpt lat="43.334705414936664" lon="11.48376733462149"><ele>284.6666666666667</ele><time>2026-04-30T13:54:34.001Z</time></trkpt><trkpt lat="43.334725839168556" lon="11.483989565074879"><ele>285.0</ele><time>2026-04-30T13:54:35.001Z</time></trkpt><trkpt lat="43.334747209545505" lon="11.48421797364143"><ele>283.0</ele><time>2026-04-30T13:54:36.001Z</time></trkpt><trkpt lat="43.334769173045586" lon="11.484435722123806"><ele>281.0</ele><time>2026-04-30T13:54:37.001Z</time></trkpt><trkpt lat="43.33479728986518" lon="11.484648266977137"><ele>279.0</ele><time>2026-04-30T13:54:38.001Z</time></trkpt><trkpt lat="43.33482490760874" lon="11.484860620093098"><ele>279.0</ele><time>2026-04-30T13:54:39.001Z</time></trkpt><trkpt lat="43.33485368117505" lon="11.48506843186476"><ele>279.0</ele><time>2026-04-30T13:54:40.001Z</time></trkpt><trkpt lat="43.334875043640956" lon="11.485273566689994"><ele>279.0</ele><time>2026-04-30T13:54:41.001Z</time></trkpt><trkpt lat="43.33490641905227" lon="11.485478328250574"><ele>280.5</ele><time>2026-04-30T13:54:42.001Z</time></trkpt><trkpt lat="43.33493758093067" lon="11.485672673121508"><ele>282.0</ele><time>2026-04-30T13:54:43.001Z</time></trkpt><trkpt lat="43.33497938018962" lon="11.485867407834625"><ele>283.5</ele><time>2026-04-30T13:54:44.001Z</time></trkpt><trkpt lat="43.3350334793465" lon="11.486052913103086"><ele>285.0</ele><time>2026-04-30T13:54:45.001Z</time></trkpt><trkpt lat="43.33510480872269" lon="11.48622877263205"><ele>288.0</ele><time>2026-04-30T13:54:46.001Z</time></trkpt><trkpt lat="43.335180405631554" lon="11.486407832792414"><ele>291.0</ele><time>2026-04-30T13:54:47.001Z</time></trkpt><trkpt lat="43.33525655958129" lon="11.486593031736858"><ele>294.0</ele><time>2026-04-30T13:54:48.001Z</time></trkpt><trkpt lat="43.33534387452988" lon="11.486810064738052"><ele>294.0</ele><time>2026-04-30T13:54:49.001Z</time></trkpt><trkpt lat="43.33544042226201" lon="11.48703564995128"><ele>294.0</ele><time>2026-04-30T13:54:50.001Z</time></trkpt><trkpt lat="43.335545929308786" lon="11.48724787778967"><ele>294.0</ele><time>2026-04-30T13:54:51.001Z</time></trkpt><trkpt lat="43.335658156871304" lon="11.487450548273893"><ele>293.0</ele><time>2026-04-30T13:54:52.001Z</time></trkpt><trkpt lat="43.33579410996788" lon="11.487642239443026"><ele>292.0</ele><time>2026-04-30T13:54:53.001Z</time></trkpt><trkpt lat="43.3359414529378" lon="11.487808781786443"><ele>291.0</ele><time>2026-04-30T13:54:54.001Z</time></trkpt><trkpt lat="43.33607791828535" lon="11.487965104999175"><ele>293.6666666666667</ele><time>2026-04-30T13:54:55.001Z</time></trkpt><trkpt lat="43.33619102975877" lon="11.488127238140127"><ele>296.33333333333337</ele><time>2026-04-30T13:54:56.001Z</time></trkpt><trkpt lat="43.33628211243576" lon="11.488293603482067"><ele>299.0</ele><time>2026-04-30T13:54:57.001Z</time></trkpt><trkpt lat="43.33637578622843" lon="11.488464593703924"><ele>299.0</ele><time>2026-04-30T13:54:58.001Z</time></trkpt><trkpt lat="43.33647997135077" lon="11.48860548392594"><ele>299.0</ele><time>2026-04-30T13:54:59.001Z</time></trkpt><trkpt lat="43.336620568838406" lon="11.488735655658388"><ele>299.0</ele><time>2026-04-30T13:55:00.001Z</time></trkpt><trkpt lat="43.336794028717485" lon="11.488838375335249"><ele>299.0</ele><time>2026-04-30T13:55:01.001Z</time></trkpt><trkpt lat="43.33696239781387" lon="11.48892339976775"><ele>299.0</ele><time>2026-04-30T13:55:02.001Z</time></trkpt><trkpt lat="43.337127380197224" lon="11.489039757914302"><ele>299.0</ele><time>2026-04-30T13:55:03.001Z</time></trkpt><trkpt lat="43.337276574891995" lon="11.489184736709284"><ele>298.6666666666667</ele><time>2026-04-30T13:55:04.001Z</time></trkpt><trkpt lat="43.337425682239584" lon="11.489338440402628"><ele>298.3333333333333</ele><time>2026-04-30T13:55:05.001Z</time></trkpt><trkpt lat="43.33757057377083" lon="11.489489725632712"><ele>298.0</ele><time>2026-04-30T13:55:06.001Z</time></trkpt><trkpt lat="43.337711732247335" lon="11.489638433995209"><ele>298.0</ele><time>2026-04-30T13:55:07.001Z</time></trkpt><trkpt lat="43.337847630560276" lon="11.489777305612044"><ele>298.0</ele><time>2026-04-30T13:55:08.001Z</time></trkpt><trkpt lat="43.337977783833715" lon="11.489914496335388"><ele>298.0</ele><time>2026-04-30T13:55:09.001Z</time></trkpt><trkpt lat="43.33811068161397" lon="11.490051704681667"><ele>299.0</ele><time>2026-04-30T13:55:10.001Z</time></trkpt><trkpt lat="43.3382443608695" lon="11.490184286397724"><ele>300.0</ele><time>2026-04-30T13:55:11.001Z</time></trkpt><trkpt lat="43.338382296073796" lon="11.490321075055734"><ele>301.0</ele><time>2026-04-30T13:55:12.001Z</time></trkpt><trkpt lat="43.338520091536566" lon="11.49046866750818"><ele>301.0</ele><time>2026-04-30T13:55:13.001Z</time></trkpt><trkpt lat="43.33865647370107" lon="11.49061641095307"><ele>301.0</ele><time>2026-04-30T13:55:14.001Z</time></trkpt><trkpt lat="43.33878939891171" lon="11.490754660391117"><ele>301.0</ele><time>2026-04-30T13:55:15.001Z</time></trkpt><trkpt lat="43.3389254827263" lon="11.490899256782676"><ele>302.66666666666663</ele><time>2026-04-30T13:55:16.001Z</time></trkpt><trkpt lat="43.339062686620096" lon="11.491051426372783"><ele>304.3333333333333</ele><time>2026-04-30T13:55:17.001Z</time></trkpt><trkpt lat="43.3391845106267" lon="11.491214197520026"><ele>306.0</ele><time>2026-04-30T13:55:18.001Z</time></trkpt><trkpt lat="43.339294954234035" lon="11.49139029085996"><ele>306.3333333333333</ele><time>2026-04-30T13:55:19.001Z</time></trkpt><trkpt lat="43.33940591063142" lon="11.49156670976898"><ele>306.66666666666663</ele><time>2026-04-30T13:55:20.001Z</time></trkpt><trkpt lat="43.339527321182594" lon="11.491741760055971"><ele>307.0</ele><time>2026-04-30T13:55:21.001Z</time></trkpt><trkpt lat="43.339642420882626" lon="11.491914945465478"><ele>306.66666666666663</ele><time>2026-04-30T13:55:22.001Z</time></trkpt><trkpt lat="43.33975574828088" lon="11.492087379529451"><ele>306.3333333333333</ele><time>2026-04-30T13:55:23.001Z</time></trkpt><trkpt lat="43.33987287143373" lon="11.492255227560076"><ele>306.0</ele><time>2026-04-30T13:55:24.001Z</time></trkpt><trkpt lat="43.339982199455996" lon="11.49241689521005"><ele>307.6666666666667</ele><time>2026-04-30T13:55:25.001Z</time></trkpt><trkpt lat="43.340092178913686" lon="11.492576730992262"><ele>309.33333333333337</ele><time>2026-04-30T13:55:26.001Z</time></trkpt><trkpt lat="43.34020052180726" lon="11.492724159206128"><ele>311.0</ele><time>2026-04-30T13:55:27.001Z</time></trkpt><trkpt lat="43.34031524547962" lon="11.492878927374337"><ele>310.6666666666667</ele><time>2026-04-30T13:55:28.001Z</time></trkpt><trkpt lat="43.34043674874402" lon="11.493036262000297"><ele>310.3333333333333</ele><time>2026-04-30T13:55:29.001Z</time></trkpt><trkpt lat="43.340553476154284" lon="11.493212353869977"><ele>310.0</ele><time>2026-04-30T13:55:30.001Z</time></trkpt><trkpt lat="43.34069174088123" lon="11.493350801616122"><ele>310.0</ele><time>2026-04-30T13:55:31.001Z</time></trkpt><trkpt lat="43.340818021836114" lon="11.49351237527771"><ele>310.0</ele><time>2026-04-30T13:55:32.001Z</time></trkpt><trkpt lat="43.3409475297395" lon="11.49366912751687"><ele>310.0</ele><time>2026-04-30T13:55:33.001Z</time></trkpt><trkpt lat="43.34108240961038" lon="11.493820407831194"><ele>309.0</ele><time>2026-04-30T13:55:34.001Z</time></trkpt><trkpt lat="43.34120978159609" lon="11.493967121601148"><ele>308.0</ele><time>2026-04-30T13:55:35.001Z</time></trkpt><trkpt lat="43.34133054840192" lon="11.494116132863915"><ele>307.0</ele><time>2026-04-30T13:55:36.001Z</time></trkpt><trkpt lat="43.34144853601372" lon="11.494260892472008"><ele>309.0</ele><time>2026-04-30T13:55:37.001Z</time></trkpt><trkpt lat="43.34156693534407" lon="11.494398869449364"><ele>311.0</ele><time>2026-04-30T13:55:38.001Z</time></trkpt><trkpt lat="43.34168864380718" lon="11.49453739462883"><ele>313.0</ele><time>2026-04-30T13:55:39.001Z</time></trkpt><trkpt lat="43.341808449865255" lon="11.494671877807297"><ele>314.0</ele><time>2026-04-30T13:55:40.001Z</time></trkpt><trkpt lat="43.341924168030665" lon="11.494807786163499"><ele>315.0</ele><time>2026-04-30T13:55:41.002Z</time></trkpt><trkpt lat="43.34204102558922" lon="11.494945335374387"><ele>316.0</ele><time>2026-04-30T13:55:42.002Z</time></trkpt><trkpt lat="43.34216303485395" lon="11.495084122457317"><ele>318.3333333333333</ele><time>2026-04-30T13:55:43.002Z</time></trkpt><trkpt lat="43.34228460144678" lon="11.495226146382027"><ele>320.6666666666667</ele><time>2026-04-30T13:55:44.002Z</time></trkpt><trkpt lat="43.34240310315709" lon="11.495371147812808"><ele>323.0</ele><time>2026-04-30T13:55:45.002Z</time></trkpt><trkpt lat="43.342515134828076" lon="11.495507033733512"><ele>325.0</ele><time>2026-04-30T13:55:46.002Z</time></trkpt><trkpt lat="43.34262364501771" lon="11.495637052063099"><ele>327.0</ele><time>2026-04-30T13:55:47.002Z</time></trkpt><trkpt lat="43.34272478919588" lon="11.495759640885396"><ele>329.0</ele><time>2026-04-30T13:55:48.002Z</time></trkpt><trkpt lat="43.34280919428711" lon="11.49586527262018"><ele>331.0</ele><time>2026-04-30T13:55:49.002Z</time></trkpt><trkpt lat="43.342891008533755" lon="11.495962776334919"><ele>331.0</ele><time>2026-04-30T13:55:50.002Z</time></trkpt><trkpt lat="43.342971531753456" lon="11.496057436422614"><ele>331.0</ele><time>2026-04-30T13:55:51.002Z</time></trkpt><trkpt lat="43.34304832412012" lon="11.49615275887485"><ele>331.0</ele><time>2026-04-30T13:55:52.002Z</time></trkpt><trkpt lat="43.34312682639188" lon="11.496251998660986"><ele>331.0</ele><time>2026-04-30T13:55:53.002Z</time></trkpt><trkpt lat="43.34321153263634" lon="11.496351824668212"><ele>331.0</ele><time>2026-04-30T13:55:54.002Z</time></trkpt><trkpt lat="43.34329484855681" lon="11.49645157494134"><ele>331.5</ele><time>2026-04-30T13:55:55.002Z</time></trkpt><trkpt lat="43.34336162864325" lon="11.496535851190483"><ele>332.0</ele><time>2026-04-30T13:55:56.002Z</time></trkpt><trkpt lat="43.34342157880062" lon="11.496614669987231"><ele>332.5</ele><time>2026-04-30T13:55:57.002Z</time></trkpt><trkpt lat="43.343476664576045" lon="11.496682991967559"><ele>333.0</ele><time>2026-04-30T13:55:58.001Z</time></trkpt><trkpt lat="43.34354174754386" lon="11.496768173540321"><ele>333.5</ele><time>2026-04-30T13:55:59.001Z</time></trkpt><trkpt lat="43.34362044253543" lon="11.49686210669489"><ele>334.0</ele><time>2026-04-30T13:56:00.001Z</time></trkpt><trkpt lat="43.343680231203344" lon="11.496962069993629"><ele>334.0</ele><time>2026-04-30T13:56:01.001Z</time></trkpt><trkpt lat="43.34375771162053" lon="11.497037243914793"><ele>334.0</ele><time>2026-04-30T13:56:02.001Z</time></trkpt><trkpt lat="43.34380971256798" lon="11.497159902513463"><ele>334.0</ele><time>2026-04-30T13:56:03.001Z</time></trkpt><trkpt lat="43.34386098214632" lon="11.497278628528502"><ele>334.0</ele><time>2026-04-30T13:56:04.001Z</time></trkpt><trkpt lat="43.34390958612349" lon="11.497404281457921"><ele>334.0</ele><time>2026-04-30T13:56:05.001Z</time></trkpt><trkpt lat="43.34394577032735" lon="11.497499756583071"><ele>334.0</ele><time>2026-04-30T13:56:06.001Z</time></trkpt><trkpt lat="43.34398331373234" lon="11.497598628471641"><ele>334.0</ele><time>2026-04-30T13:56:07.001Z</time></trkpt><trkpt lat="43.344017994355276" lon="11.497686491068784"><ele>334.0</ele><time>2026-04-30T13:56:08.001Z</time></trkpt><trkpt lat="43.344050066189844" lon="11.497775836381308"><ele>334.0</ele><time>2026-04-30T13:56:09.001Z</time></trkpt><trkpt lat="43.34408072583403" lon="11.497857103602259"><ele>334.0</ele><time>2026-04-30T13:56:10.001Z</time></trkpt><trkpt lat="43.3441093559046" lon="11.497935330311085"><ele>334.0</ele><time>2026-04-30T13:56:11.001Z</time></trkpt><trkpt lat="43.344167197431794" lon="11.498083887634353"><ele>334.0</ele><time>2026-04-30T13:56:13.001Z</time></trkpt><trkpt lat="43.34420525474547" lon="11.498220311166783"><ele>334.0</ele><time>2026-04-30T13:56:15.001Z</time></trkpt><trkpt lat="43.34425140985435" lon="11.498340301732117"><ele>334.0</ele><time>2026-04-30T13:56:17.001Z</time></trkpt><trkpt lat="43.34428634121" lon="11.498438441277"><ele>334.0</ele><time>2026-04-30T13:56:19.001Z</time></trkpt><trkpt lat="43.344315796323535" lon="11.498534424033451"><ele>334.0</ele><time>2026-04-30T13:56:21.001Z</time></trkpt><trkpt lat="43.344333807029656" lon="11.498627964273595"><ele>334.0</ele><time>2026-04-30T13:57:23.001Z</time></trkpt><trkpt lat="43.34437479002926" lon="11.498755148284076"><ele>334.3333333333333</ele><time>2026-04-30T13:57:25.001Z</time></trkpt><trkpt lat="43.344419077534894" lon="11.498856317718074"><ele>334.66666666666663</ele><time>2026-04-30T13:57:26.001Z</time></trkpt><trkpt lat="43.344460594924556" lon="11.498954707175537"><ele>335.0</ele><time>2026-04-30T13:57:27.001Z</time></trkpt><trkpt lat="43.34448357790076" lon="11.499069898766999"><ele>335.3333333333333</ele><time>2026-04-30T13:57:28.001Z</time></trkpt><trkpt lat="43.3445341568891" lon="11.499161962581345"><ele>335.6666666666667</ele><time>2026-04-30T13:57:29.001Z</time></trkpt><trkpt lat="43.344572271324914" lon="11.499265214586156"><ele>336.0</ele><time>2026-04-30T13:57:30.001Z</time></trkpt><trkpt lat="43.34461184203484" lon="11.499363361743109"><ele>336.0</ele><time>2026-04-30T13:57:31.001Z</time></trkpt><trkpt lat="43.3446487399231" lon="11.499469380147486"><ele>336.0</ele><time>2026-04-30T13:57:32.001Z</time></trkpt><trkpt lat="43.34469176200615" lon="11.499573902791663"><ele>336.0</ele><time>2026-04-30T13:57:33.001Z</time></trkpt><trkpt lat="43.344732720816104" lon="11.499694230040625"><ele>336.0</ele><time>2026-04-30T13:57:34.001Z</time></trkpt><trkpt lat="43.34478009126081" lon="11.499814698261735"><ele>336.0</ele><time>2026-04-30T13:57:35.001Z</time></trkpt><trkpt lat="43.34482467674453" lon="11.499926350988533"><ele>335.8333333333333</ele><time>2026-04-30T13:57:36.001Z</time></trkpt><trkpt lat="43.344864186640955" lon="11.500031792178243"><ele>335.6666666666667</ele><time>2026-04-30T13:57:37.001Z</time></trkpt><trkpt lat="43.344897809930245" lon="11.500133755256112"><ele>335.5</ele><time>2026-04-30T13:57:38.001Z</time></trkpt><trkpt lat="43.34492997405095" lon="11.50021982547649"><ele>335.33333333333337</ele><time>2026-04-30T13:57:39.001Z</time></trkpt><trkpt lat="43.3449590354982" lon="11.500313418276047"><ele>335.1666666666667</ele><time>2026-04-30T13:57:40.001Z</time></trkpt><trkpt lat="43.34501635126699" lon="11.500453320983066"><ele>335.0</ele><time>2026-04-30T13:57:42.001Z</time></trkpt><trkpt lat="43.34507689349834" lon="11.5006013271767"><ele>335.0</ele><time>2026-04-30T13:57:44.001Z</time></trkpt><trkpt lat="43.345136867331156" lon="11.500701602320559"><ele>335.0</ele><time>2026-04-30T13:57:46.001Z</time></trkpt><trkpt lat="43.34509101897919" lon="11.500642155044549"><ele>335.0</ele><time>2026-04-30T13:58:18.001Z</time></trkpt><trkpt lat="43.345027261523086" lon="11.500569244405556"><ele>335.0</ele><time>2026-04-30T13:58:21.001Z</time></trkpt><trkpt lat="43.344914632560034" lon="11.500671467112419"><ele>335.0</ele><time>2026-04-30T13:58:22.001Z</time></trkpt><trkpt lat="43.34489740714087" lon="11.500825656369638"><ele>335.0</ele><time>2026-04-30T13:58:24.001Z</time></trkpt><trkpt lat="43.34496169477708" lon="11.500977844785508"><ele>335.0</ele><time>2026-04-30T13:58:26.001Z</time></trkpt><trkpt lat="43.345016040568034" lon="11.501065273000838"><ele>335.0</ele><time>2026-04-30T13:58:27.001Z</time></trkpt><trkpt lat="43.34505894355482" lon="11.501156490515696"><ele>335.0</ele><time>2026-04-30T13:58:28.001Z</time></trkpt><trkpt lat="43.34509825288526" lon="11.501248744430839"><ele>335.0</ele><time>2026-04-30T13:58:29.001Z</time></trkpt><trkpt lat="43.34512120598702" lon="11.501350741828034"><ele>335.0</ele><time>2026-04-30T13:58:30.001Z</time></trkpt><trkpt lat="43.345126450892096" lon="11.50146160948581"><ele>335.2</ele><time>2026-04-30T13:58:31.001Z</time></trkpt><trkpt lat="43.3451684899718" lon="11.501576808725375"><ele>335.4</ele><time>2026-04-30T13:58:32.001Z</time></trkpt><trkpt lat="43.345182279150755" lon="11.501753313262073"><ele>335.6</ele><time>2026-04-30T13:58:33.001Z</time></trkpt><trkpt lat="43.34515056669632" lon="11.501877097101364"><ele>335.8</ele><time>2026-04-30T13:58:34.001Z</time></trkpt><trkpt lat="43.34511018842207" lon="11.502008547006811"><ele>336.0</ele><time>2026-04-30T13:58:35.001Z</time></trkpt><trkpt lat="43.34507940943575" lon="11.502154495191649"><ele>337.6</ele><time>2026-04-30T13:58:37.001Z</time></trkpt><trkpt lat="43.34503478461121" lon="11.502280695621065"><ele>339.20000000000005</ele><time>2026-04-30T13:58:38.001Z</time></trkpt><trkpt lat="43.34499230278477" lon="11.502400531296008"><ele>340.79999999999995</ele><time>2026-04-30T13:58:39.001Z</time></trkpt><trkpt lat="43.34495008969755" lon="11.502518004718008"><ele>342.4</ele><time>2026-04-30T13:58:40.001Z</time></trkpt><trkpt lat="43.344909504759976" lon="11.502632839377224"><ele>344.0</ele><time>2026-04-30T13:58:41.001Z</time></trkpt><trkpt lat="43.344887868610336" lon="11.50275225071437"><ele>344.0</ele><time>2026-04-30T13:58:42.001Z</time></trkpt><trkpt lat="43.344863509979035" lon="11.502864521165526"><ele>344.0</ele><time>2026-04-30T13:58:43.001Z</time></trkpt><trkpt lat="43.34484996895097" lon="11.502979968764937"><ele>344.0</ele><time>2026-04-30T13:58:44.001Z</time></trkpt><trkpt lat="43.34484662075332" lon="11.503094639110277"><ele>344.0</ele><time>2026-04-30T13:58:45.001Z</time></trkpt><trkpt lat="43.344853305087916" lon="11.50321567509945"><ele>344.0</ele><time>2026-04-30T13:58:46.001Z</time></trkpt><trkpt lat="43.3448869863853" lon="11.503345142542305"><ele>344.0</ele><time>2026-04-30T13:58:47.001Z</time></trkpt><trkpt lat="43.344934831214175" lon="11.503452115230553"><ele>343.79999999999995</ele><time>2026-04-30T13:58:48.001Z</time></trkpt><trkpt lat="43.34497737438348" lon="11.503561433489104"><ele>343.59999999999997</ele><time>2026-04-30T13:58:49.001Z</time></trkpt><trkpt lat="43.34498918717577" lon="11.503685737141131"><ele>343.4</ele><time>2026-04-30T13:58:50.001Z</time></trkpt><trkpt lat="43.34500667363329" lon="11.50380976216086"><ele>343.2</ele><time>2026-04-30T13:58:51.001Z</time></trkpt><trkpt lat="43.34495119924004" lon="11.503945730716794"><ele>343.0</ele><time>2026-04-30T13:58:52.001Z</time></trkpt><trkpt lat="43.34489995597168" lon="11.504059887625866"><ele>343.0</ele><time>2026-04-30T13:58:53.001Z</time></trkpt><trkpt lat="43.3448388994485" lon="11.504160996850917"><ele>343.0</ele><time>2026-04-30T13:58:54.001Z</time></trkpt><trkpt lat="43.344790670369036" lon="11.504254920060255"><ele>343.0</ele><time>2026-04-30T13:58:55.001Z</time></trkpt><trkpt lat="43.34474226345221" lon="11.504339377224532"><ele>343.0</ele><time>2026-04-30T13:58:56.001Z</time></trkpt><trkpt lat="43.34461779107778" lon="11.504362912721886"><ele>343.0</ele><time>2026-04-30T13:58:59.001Z</time></trkpt><trkpt lat="43.344528517827825" lon="11.504392774657186"><ele>341.25</ele><time>2026-04-30T13:59:01.001Z</time></trkpt><trkpt lat="43.344415947088635" lon="11.504424934659976"><ele>339.5</ele><time>2026-04-30T13:59:02.001Z</time></trkpt><trkpt lat="43.34428644692356" lon="11.504461561450968"><ele>337.75</ele><time>2026-04-30T13:59:03.001Z</time></trkpt><trkpt lat="43.3441338158208" lon="11.504495776263203"><ele>336.0</ele><time>2026-04-30T13:59:04.001Z</time></trkpt><trkpt lat="43.343990985999504" lon="11.504525887047773"><ele>335.75</ele><time>2026-04-30T13:59:05.001Z</time></trkpt><trkpt lat="43.343858980433005" lon="11.50455211484787"><ele>335.5</ele><time>2026-04-30T13:59:06.001Z</time></trkpt><trkpt lat="43.34372933248352" lon="11.504580730724205"><ele>335.25</ele><time>2026-04-30T13:59:07.001Z</time></trkpt><trkpt lat="43.34360896924712" lon="11.504598368143299"><ele>335.0</ele><time>2026-04-30T13:59:08.001Z</time></trkpt><trkpt lat="43.34349097480929" lon="11.504621810824542"><ele>335.75</ele><time>2026-04-30T13:59:09.001Z</time></trkpt><trkpt lat="43.343374421907946" lon="11.504644643856407"><ele>336.5</ele><time>2026-04-30T13:59:10.001Z</time></trkpt><trkpt lat="43.34325755232176" lon="11.504667303070269"><ele>337.25</ele><time>2026-04-30T13:59:11.001Z</time></trkpt><trkpt lat="43.34313789662652" lon="11.504685361825814"><ele>338.0</ele><time>2026-04-30T13:59:12.001Z</time></trkpt><trkpt lat="43.34301569973731" lon="11.504709227849212"><ele>338.0</ele><time>2026-04-30T13:59:13.001Z</time></trkpt><trkpt lat="43.34290001400391" lon="11.504733735503969"><ele>338.0</ele><time>2026-04-30T13:59:14.001Z</time></trkpt><trkpt lat="43.34278018921128" lon="11.504761807894308"><ele>338.0</ele><time>2026-04-30T13:59:15.001Z</time></trkpt><trkpt lat="43.34266177889993" lon="11.504784198652704"><ele>338.0</ele><time>2026-04-30T13:59:16.001Z</time></trkpt><trkpt lat="43.34254188828902" lon="11.50480881111422"><ele>338.0</ele><time>2026-04-30T13:59:17.001Z</time></trkpt><trkpt lat="43.342427376310965" lon="11.50482820043783"><ele>338.0</ele><time>2026-04-30T13:59:18.001Z</time></trkpt><trkpt lat="43.342321701753235" lon="11.504846275224674"><ele>338.0</ele><time>2026-04-30T13:59:19.001Z</time></trkpt><trkpt lat="43.34222141543661" lon="11.504868368529475"><ele>338.0</ele><time>2026-04-30T13:59:20.001Z</time></trkpt><trkpt lat="43.34211980104079" lon="11.504890501023958"><ele>338.0</ele><time>2026-04-30T13:59:21.001Z</time></trkpt><trkpt lat="43.34201690975518" lon="11.50490977280093"><ele>337.25</ele><time>2026-04-30T13:59:22.001Z</time></trkpt><trkpt lat="43.341895543323645" lon="11.504938423835775"><ele>336.5</ele><time>2026-04-30T13:59:23.001Z</time></trkpt><trkpt lat="43.34175977095524" lon="11.504967232515298"><ele>335.75</ele><time>2026-04-30T13:59:24.001Z</time></trkpt><trkpt lat="43.34162622236357" lon="11.5049968299208"><ele>335.0</ele><time>2026-04-30T13:59:25.001Z</time></trkpt><trkpt lat="43.34149788461239" lon="11.505023242781014"><ele>335.0</ele><time>2026-04-30T13:59:26.001Z</time></trkpt><trkpt lat="43.34137503616548" lon="11.50504260545626"><ele>335.0</ele><time>2026-04-30T13:59:27.001Z</time></trkpt><trkpt lat="43.341245481996545" lon="11.50507870154644"><ele>335.0</ele><time>2026-04-30T13:59:28.001Z</time></trkpt><trkpt lat="43.341123505855386" lon="11.505118683486655"><ele>335.0</ele><time>2026-04-30T13:59:29.001Z</time></trkpt><trkpt lat="43.341009394210694" lon="11.505164681878203"><ele>335.0</ele><time>2026-04-30T13:59:30.001Z</time></trkpt><trkpt lat="43.34090205464129" lon="11.505198436143235"><ele>335.0</ele><time>2026-04-30T13:59:31.001Z</time></trkpt><trkpt lat="43.34079984598788" lon="11.5052397834109"><ele>335.0</ele><time>2026-04-30T13:59:32.001Z</time></trkpt><trkpt lat="43.34065993109611" lon="11.50526396653271"><ele>335.0</ele><time>2026-04-30T13:59:33.001Z</time></trkpt><trkpt lat="43.34052534997679" lon="11.505298517667358"><ele>335.33333333333337</ele><time>2026-04-30T13:59:34.001Z</time></trkpt><trkpt lat="43.340362087603076" lon="11.50538776449417"><ele>335.6666666666667</ele><time>2026-04-30T13:59:35.001Z</time></trkpt><trkpt lat="43.3402100614319" lon="11.505442680585352"><ele>336.0</ele><time>2026-04-30T13:59:36.001Z</time></trkpt><trkpt lat="43.34006291097964" lon="11.505487853690148"><ele>336.0</ele><time>2026-04-30T13:59:37.001Z</time></trkpt><trkpt lat="43.33991360984449" lon="11.505541068878246"><ele>336.0</ele><time>2026-04-30T13:59:38.001Z</time></trkpt><trkpt lat="43.33976171904308" lon="11.505598175937816"><ele>336.0</ele><time>2026-04-30T13:59:39.001Z</time></trkpt><trkpt lat="43.3396065620627" lon="11.505657634960901"><ele>336.3333333333333</ele><time>2026-04-30T13:59:40.001Z</time></trkpt><trkpt lat="43.33945216667967" lon="11.505716473617793"><ele>336.66666666666663</ele><time>2026-04-30T13:59:41.001Z</time></trkpt><trkpt lat="43.339299401941744" lon="11.505770986656902"><ele>337.0</ele><time>2026-04-30T13:59:42.001Z</time></trkpt><trkpt lat="43.339151549632035" lon="11.505823004030239"><ele>337.0</ele><time>2026-04-30T13:59:43.001Z</time></trkpt><trkpt lat="43.33901398291083" lon="11.50586206386051"><ele>337.0</ele><time>2026-04-30T13:59:44.001Z</time></trkpt><trkpt lat="43.33887258306729" lon="11.505884409358778"><ele>337.0</ele><time>2026-04-30T13:59:45.001Z</time></trkpt><trkpt lat="43.33872900609706" lon="11.505886045771254"><ele>337.0</ele><time>2026-04-30T13:59:46.001Z</time></trkpt><trkpt lat="43.33858070083645" lon="11.505874222692462"><ele>335.3333333333333</ele><time>2026-04-30T13:59:47.001Z</time></trkpt><trkpt lat="43.338435737649476" lon="11.505832794969495"><ele>333.6666666666667</ele><time>2026-04-30T13:59:48.001Z</time></trkpt><trkpt lat="43.33828735546385" lon="11.505783280352798"><ele>332.0</ele><time>2026-04-30T13:59:49.001Z</time></trkpt><trkpt lat="43.33814028199812" lon="11.505710746966772"><ele>331.0</ele><time>2026-04-30T13:59:50.001Z</time></trkpt><trkpt lat="43.337997558271205" lon="11.505612762735735"><ele>330.0</ele><time>2026-04-30T13:59:51.001Z</time></trkpt><trkpt lat="43.337857876554786" lon="11.505508381016721"><ele>329.0</ele><time>2026-04-30T13:59:52.001Z</time></trkpt><trkpt lat="43.337714251280005" lon="11.505413796051455"><ele>327.6666666666667</ele><time>2026-04-30T13:59:53.001Z</time></trkpt><trkpt lat="43.337577483554355" lon="11.50532295883657"><ele>326.3333333333333</ele><time>2026-04-30T13:59:54.001Z</time></trkpt><trkpt lat="43.33743979306868" lon="11.505231482817694"><ele>325.0</ele><time>2026-04-30T13:59:55.001Z</time></trkpt><trkpt lat="43.337292229381966" lon="11.505147474339717"><ele>324.66666666666663</ele><time>2026-04-30T13:59:56.001Z</time></trkpt><trkpt lat="43.337137721593734" lon="11.505087254514244"><ele>324.3333333333333</ele><time>2026-04-30T13:59:57.001Z</time></trkpt><trkpt lat="43.33696824037194" lon="11.505061127142351"><ele>324.0</ele><time>2026-04-30T13:59:58.001Z</time></trkpt><trkpt lat="43.33679655017107" lon="11.505049721737558"><ele>324.0</ele><time>2026-04-30T13:59:59.001Z</time></trkpt><trkpt lat="43.33661949969637" lon="11.505069474221967"><ele>324.0</ele><time>2026-04-30T14:00:00.001Z</time></trkpt><trkpt lat="43.33643637565472" lon="11.505107006762918"><ele>324.0</ele><time>2026-04-30T14:00:01.001Z</time></trkpt><trkpt lat="43.336248394233785" lon="11.505157658905079"><ele>322.0</ele><time>2026-04-30T14:00:02.001Z</time></trkpt><trkpt lat="43.336053441616265" lon="11.505177833371112"><ele>320.0</ele><time>2026-04-30T14:00:03.001Z</time></trkpt><trkpt lat="43.33586649633114" lon="11.505215940254"><ele>318.0</ele><time>2026-04-30T14:00:04.001Z</time></trkpt><trkpt lat="43.3356843019577" lon="11.50527548877965"><ele>319.0</ele><time>2026-04-30T14:00:05.001Z</time></trkpt><trkpt lat="43.33550145920028" lon="11.505308878433311"><ele>320.0</ele><time>2026-04-30T14:00:06.001Z</time></trkpt><trkpt lat="43.33532161824087" lon="11.505338737987374"><ele>321.0</ele><time>2026-04-30T14:00:07.001Z</time></trkpt><trkpt lat="43.33513689695232" lon="11.505372676639062"><ele>321.0</ele><time>2026-04-30T14:00:08.001Z</time></trkpt><trkpt lat="43.334960948379404" lon="11.505406791077398"><ele>321.0</ele><time>2026-04-30T14:00:09.001Z</time></trkpt><trkpt lat="43.33477484158996" lon="11.50544574728291"><ele>321.0</ele><time>2026-04-30T14:00:10Z</time></trkpt><trkpt lat="43.33459274068388" lon="11.505482561930615"><ele>319.0</ele><time>2026-04-30T14:00:11Z</time></trkpt><trkpt lat="43.33441151303835" lon="11.505518965588928"><ele>317.0</ele><time>2026-04-30T14:00:12Z</time></trkpt><trkpt lat="43.334219758803684" lon="11.505553622106364"><ele>315.0</ele><time>2026-04-30T14:00:13Z</time></trkpt><trkpt lat="43.33402803608462" lon="11.505588401382795"><ele>315.3333333333333</ele><time>2026-04-30T14:00:14Z</time></trkpt><trkpt lat="43.33384226020881" lon="11.505626109071475"><ele>315.66666666666663</ele><time>2026-04-30T14:00:15Z</time></trkpt><trkpt lat="43.33365653258033" lon="11.505665617280025"><ele>316.0</ele><time>2026-04-30T14:00:16Z</time></trkpt><trkpt lat="43.33348145250044" lon="11.505706198504207"><ele>316.0</ele><time>2026-04-30T14:00:17Z</time></trkpt><trkpt lat="43.33330413355581" lon="11.505742918201765"><ele>316.0</ele><time>2026-04-30T14:00:18Z</time></trkpt><trkpt lat="43.333123861612" lon="11.505774296754288"><ele>316.0</ele><time>2026-04-30T14:00:19Z</time></trkpt><trkpt lat="43.33294099141179" lon="11.50581312406059"><ele>316.0</ele><time>2026-04-30T14:00:20Z</time></trkpt><trkpt lat="43.33275868617256" lon="11.505865301110681"><ele>316.0</ele><time>2026-04-30T14:00:21Z</time></trkpt><trkpt lat="43.33257748523139" lon="11.505938782218584"><ele>316.0</ele><time>2026-04-30T14:00:22Z</time></trkpt><trkpt lat="43.33239365270189" lon="11.506044026959612"><ele>316.0</ele><time>2026-04-30T14:00:23Z</time></trkpt><trkpt lat="43.33220025275854" lon="11.506185949383156"><ele>316.0</ele><time>2026-04-30T14:00:24Z</time></trkpt><trkpt lat="43.33201202984557" lon="11.506320993929878"><ele>316.0</ele><time>2026-04-30T14:00:25Z</time></trkpt><trkpt lat="43.331829988719456" lon="11.506440256761632"><ele>315.3333333333333</ele><time>2026-04-30T14:00:26Z</time></trkpt><trkpt lat="43.33165460462344" lon="11.506554088512742"><ele>314.6666666666667</ele><time>2026-04-30T14:00:27Z</time></trkpt><trkpt lat="43.33148276345646" lon="11.506662508880153"><ele>314.0</ele><time>2026-04-30T14:00:28Z</time></trkpt><trkpt lat="43.33130972061781" lon="11.506768972378799"><ele>313.0</ele><time>2026-04-30T14:00:29Z</time></trkpt><trkpt lat="43.33111927580624" lon="11.506811627029727"><ele>312.0</ele><time>2026-04-30T14:00:30Z</time></trkpt><trkpt lat="43.33093585637737" lon="11.50687150446868"><ele>311.0</ele><time>2026-04-30T14:00:31Z</time></trkpt><trkpt lat="43.33074604067869" lon="11.506902068520033"><ele>309.6666666666667</ele><time>2026-04-30T14:00:32Z</time></trkpt><trkpt lat="43.330550985237835" lon="11.506934109901245"><ele>308.3333333333333</ele><time>2026-04-30T14:00:33Z</time></trkpt><trkpt lat="43.330359549962665" lon="11.506969063198971"><ele>307.0</ele><time>2026-04-30T14:00:34Z</time></trkpt><trkpt lat="43.33016868332816" lon="11.507005304109219"><ele>307.0</ele><time>2026-04-30T14:00:35Z</time></trkpt><trkpt lat="43.32998693152993" lon="11.507039613674444"><ele>307.0</ele><time>2026-04-30T14:00:36Z</time></trkpt><trkpt lat="43.32980642503996" lon="11.507074501836035"><ele>307.0</ele><time>2026-04-30T14:00:37Z</time></trkpt><trkpt lat="43.32962641921562" lon="11.507108512891385"><ele>307.0</ele><time>2026-04-30T14:00:38Z</time></trkpt><trkpt lat="43.329464888260354" lon="11.507143049155998"><ele>307.0</ele><time>2026-04-30T14:00:39Z</time></trkpt><trkpt lat="43.329305333604594" lon="11.507186625352633"><ele>307.0</ele><time>2026-04-30T14:00:40Z</time></trkpt><trkpt lat="43.329138082687415" lon="11.507253462864488"><ele>307.0</ele><time>2026-04-30T14:00:41Z</time></trkpt><trkpt lat="43.3289708601465" lon="11.507344089069328"><ele>307.0</ele><time>2026-04-30T14:00:42Z</time></trkpt><trkpt lat="43.32879129294592" lon="11.507448359857788"><ele>307.0</ele><time>2026-04-30T14:00:43Z</time></trkpt><trkpt lat="43.32861858070421" lon="11.507553117190094"><ele>305.66666666666663</ele><time>2026-04-30T14:00:44Z</time></trkpt><trkpt lat="43.3284461371554" lon="11.507667170362367"><ele>304.3333333333333</ele><time>2026-04-30T14:00:45Z</time></trkpt><trkpt lat="43.3282781376983" lon="11.507776341321195"><ele>303.0</ele><time>2026-04-30T14:00:46Z</time></trkpt><trkpt lat="43.328107974936884" lon="11.507874456715045"><ele>301.6666666666667</ele><time>2026-04-30T14:00:47Z</time></trkpt><trkpt lat="43.327943158202096" lon="11.507986554074716"><ele>300.33333333333337</ele><time>2026-04-30T14:00:48Z</time></trkpt><trkpt lat="43.32778571000721" lon="11.508097563317683"><ele>299.0</ele><time>2026-04-30T14:00:49Z</time></trkpt><trkpt lat="43.32761463629727" lon="11.508183998594811"><ele>299.0</ele><time>2026-04-30T14:00:50Z</time></trkpt><trkpt lat="43.327455248780225" lon="11.508303627599123"><ele>299.0</ele><time>2026-04-30T14:00:51Z</time></trkpt><trkpt lat="43.3272964524728" lon="11.508406341635409"><ele>299.0</ele><time>2026-04-30T14:00:52Z</time></trkpt><trkpt lat="43.3271191321607" lon="11.508500982088066"><ele>297.6666666666667</ele><time>2026-04-30T14:00:53Z</time></trkpt><trkpt lat="43.32693706033628" lon="11.508614039507423"><ele>296.3333333333333</ele><time>2026-04-30T14:00:54Z</time></trkpt><trkpt lat="43.32676058169507" lon="11.50872094332192"><ele>295.0</ele><time>2026-04-30T14:00:55Z</time></trkpt><trkpt lat="43.32658669343147" lon="11.508817820573116"><ele>294.3333333333333</ele><time>2026-04-30T14:00:56Z</time></trkpt><trkpt lat="43.326403736649205" lon="11.508937564893817"><ele>293.6666666666667</ele><time>2026-04-30T14:00:57Z</time></trkpt><trkpt lat="43.326218849579696" lon="11.509026401762526"><ele>293.0</ele><time>2026-04-30T14:00:58Z</time></trkpt><trkpt lat="43.326037729311075" lon="11.509112825606865"><ele>292.0</ele><time>2026-04-30T14:00:59Z</time></trkpt><trkpt lat="43.325857095859554" lon="11.509169729394293"><ele>291.0</ele><time>2026-04-30T14:01:00Z</time></trkpt><trkpt lat="43.32567965372106" lon="11.509246088744748"><ele>290.0</ele><time>2026-04-30T14:01:01Z</time></trkpt><trkpt lat="43.3255123904534" lon="11.509318247725489"><ele>289.6666666666667</ele><time>2026-04-30T14:01:02Z</time></trkpt><trkpt lat="43.32535909091556" lon="11.509383481324319"><ele>289.3333333333333</ele><time>2026-04-30T14:01:03Z</time></trkpt><trkpt lat="43.325219592557204" lon="11.509437529721271"><ele>289.0</ele><time>2026-04-30T14:01:04Z</time></trkpt><trkpt lat="43.32507878661382" lon="11.509483564570598"><ele>289.0</ele><time>2026-04-30T14:01:05Z</time></trkpt><trkpt lat="43.32493541430011" lon="11.509489792258938"><ele>289.0</ele><time>2026-04-30T14:01:06Z</time></trkpt><trkpt lat="43.32479100288642" lon="11.509433619505655"><ele>289.0</ele><time>2026-04-30T14:01:07Z</time></trkpt><trkpt lat="43.32465259431011" lon="11.509323030810606"><ele>290.0</ele><time>2026-04-30T14:01:08Z</time></trkpt><trkpt lat="43.32454441421547" lon="11.509165005692154"><ele>291.0</ele><time>2026-04-30T14:01:09Z</time></trkpt><trkpt lat="43.32445947331798" lon="11.508969040257748"><ele>292.0</ele><time>2026-04-30T14:01:10Z</time></trkpt><trkpt lat="43.324383502603936" lon="11.508763799060247"><ele>289.3333333333333</ele><time>2026-04-30T14:01:11Z</time></trkpt><trkpt lat="43.32430788967086" lon="11.508551730182306"><ele>286.6666666666667</ele><time>2026-04-30T14:01:12Z</time></trkpt><trkpt lat="43.32422635522369" lon="11.508346450487092"><ele>284.0</ele><time>2026-04-30T14:01:13Z</time></trkpt><trkpt lat="43.32414898512038" lon="11.508163563135422"><ele>284.0</ele><time>2026-04-30T14:01:14Z</time></trkpt><trkpt lat="43.324076035856024" lon="11.508014227754462"><ele>284.0</ele><time>2026-04-30T14:01:15Z</time></trkpt><trkpt lat="43.32399165343602" lon="11.507869772700115"><ele>284.0</ele><time>2026-04-30T14:01:16Z</time></trkpt><trkpt lat="43.323874299494705" lon="11.507756040991843"><ele>284.0</ele><time>2026-04-30T14:01:17Z</time></trkpt><trkpt lat="43.323729543490046" lon="11.507682752509295"><ele>281.0</ele><time>2026-04-30T14:01:18.001Z</time></trkpt><trkpt lat="43.32356243917689" lon="11.507645374077342"><ele>278.0</ele><time>2026-04-30T14:01:19.001Z</time></trkpt><trkpt lat="43.323395386177" lon="11.507629699558887"><ele>275.0</ele><time>2026-04-30T14:01:20.001Z</time></trkpt><trkpt lat="43.323236691513635" lon="11.507638837522189"><ele>275.0</ele><time>2026-04-30T14:01:21.001Z</time></trkpt><trkpt lat="43.32308491876506" lon="11.507646860301884"><ele>275.0</ele><time>2026-04-30T14:01:22.001Z</time></trkpt><trkpt lat="43.32293988383152" lon="11.50762879093836"><ele>275.0</ele><time>2026-04-30T14:01:23.001Z</time></trkpt><trkpt lat="43.32279945383375" lon="11.507595439497463"><ele>275.0</ele><time>2026-04-30T14:01:24.001Z</time></trkpt><trkpt lat="43.32266297731185" lon="11.507530906071782"><ele>273.0</ele><time>2026-04-30T14:01:25.001Z</time></trkpt><trkpt lat="43.322535446633715" lon="11.507409685478523"><ele>271.0</ele><time>2026-04-30T14:01:26.001Z</time></trkpt><trkpt lat="43.32242448732587" lon="11.507235424478985"><ele>269.0</ele><time>2026-04-30T14:01:27.001Z</time></trkpt><trkpt lat="43.32231900960525" lon="11.507065226328928"><ele>264.33333333333337</ele><time>2026-04-30T14:01:28.001Z</time></trkpt><trkpt lat="43.32220787454016" lon="11.506902243279262"><ele>259.6666666666667</ele><time>2026-04-30T14:01:29.001Z</time></trkpt><trkpt lat="43.32209246591184" lon="11.50674054254689"><ele>255.0</ele><time>2026-04-30T14:01:30.001Z</time></trkpt><trkpt lat="43.32197668857341" lon="11.506576834714156"><ele>255.0</ele><time>2026-04-30T14:01:31.001Z</time></trkpt><trkpt lat="43.32186937599186" lon="11.50641531096632"><ele>255.0</ele><time>2026-04-30T14:01:32.001Z</time></trkpt><trkpt lat="43.321757993172824" lon="11.50625290323034"><ele>255.0</ele><time>2026-04-30T14:01:33.001Z</time></trkpt><trkpt lat="43.32165024348634" lon="11.50609503407053"><ele>255.33333333333331</ele><time>2026-04-30T14:01:34.001Z</time></trkpt><trkpt lat="43.32154462431636" lon="11.505944558904515"><ele>255.66666666666666</ele><time>2026-04-30T14:01:35.001Z</time></trkpt><trkpt lat="43.32143508591923" lon="11.505806910267962"><ele>256.0</ele><time>2026-04-30T14:01:36.001Z</time></trkpt><trkpt lat="43.32130561128005" lon="11.505702925496403"><ele>253.0</ele><time>2026-04-30T14:01:37.001Z</time></trkpt><trkpt lat="43.32115779368107" lon="11.505641316476806"><ele>250.0</ele><time>2026-04-30T14:01:38.001Z</time></trkpt><trkpt lat="43.321001381441306" lon="11.505623655785799"><ele>247.0</ele><time>2026-04-30T14:01:39.001Z</time></trkpt><trkpt lat="43.320846467796954" lon="11.505648254509804"><ele>247.0</ele><time>2026-04-30T14:01:40.001Z</time></trkpt><trkpt lat="43.32068796723095" lon="11.50570775615125"><ele>247.0</ele><time>2026-04-30T14:01:41.001Z</time></trkpt><trkpt lat="43.320533905576276" lon="11.505764873408015"><ele>247.0</ele><time>2026-04-30T14:01:42.001Z</time></trkpt><trkpt lat="43.320388513959266" lon="11.505823397917418"><ele>246.25</ele><time>2026-04-30T14:01:43.001Z</time></trkpt><trkpt lat="43.32024770807668" lon="11.505875870841507"><ele>245.5</ele><time>2026-04-30T14:01:44.001Z</time></trkpt><trkpt lat="43.32010961774435" lon="11.505923801055896"><ele>244.75</ele><time>2026-04-30T14:01:45.001Z</time></trkpt><trkpt lat="43.31998036841913" lon="11.505968619529288"><ele>244.0</ele><time>2026-04-30T14:01:46.001Z</time></trkpt><trkpt lat="43.31986950620836" lon="11.506016385773586"><ele>244.0</ele><time>2026-04-30T14:01:47.001Z</time></trkpt><trkpt lat="43.31977205808441" lon="11.50608188378478"><ele>244.0</ele><time>2026-04-30T14:01:48.001Z</time></trkpt><trkpt lat="43.3196981790646" lon="11.506200848019565"><ele>244.0</ele><time>2026-04-30T14:01:49.001Z</time></trkpt><trkpt lat="43.31964158085388" lon="11.506365600314892"><ele>244.0</ele><time>2026-04-30T14:01:50.001Z</time></trkpt><trkpt lat="43.31962680321607" lon="11.506565330171664"><ele>249.0</ele><time>2026-04-30T14:01:51.001Z</time></trkpt><trkpt lat="43.319645984023225" lon="11.506769962446727"><ele>254.0</ele><time>2026-04-30T14:01:52.001Z</time></trkpt><trkpt lat="43.31967950020641" lon="11.50700978600394"><ele>259.0</ele><time>2026-04-30T14:01:53.001Z</time></trkpt><trkpt lat="43.31970739617542" lon="11.507252374339355"><ele>259.66666666666663</ele><time>2026-04-30T14:01:54.001Z</time></trkpt><trkpt lat="43.319731243941526" lon="11.507481901194677"><ele>260.3333333333333</ele><time>2026-04-30T14:01:55.001Z</time></trkpt><trkpt lat="43.319749958063944" lon="11.50770744575843"><ele>261.0</ele><time>2026-04-30T14:01:56.001Z</time></trkpt><trkpt lat="43.319770031966655" lon="11.507940560261083"><ele>256.3333333333333</ele><time>2026-04-30T14:01:57.001Z</time></trkpt><trkpt lat="43.319797137280084" lon="11.508177849720084"><ele>251.66666666666666</ele><time>2026-04-30T14:01:58.001Z</time></trkpt><trkpt lat="43.31982471892436" lon="11.50840628600562"><ele>247.0</ele><time>2026-04-30T14:01:59.001Z</time></trkpt><trkpt lat="43.319844407639096" lon="11.508660451867074"><ele>247.0</ele><time>2026-04-30T14:02:00.001Z</time></trkpt><trkpt lat="43.319829093547334" lon="11.508922053915644"><ele>247.0</ele><time>2026-04-30T14:02:01.001Z</time></trkpt><trkpt lat="43.31980177467868" lon="11.509166794427077"><ele>247.0</ele><time>2026-04-30T14:02:02.001Z</time></trkpt><trkpt lat="43.31977309585261" lon="11.509412568405756"><ele>249.33333333333331</ele><time>2026-04-30T14:02:03.001Z</time></trkpt><trkpt lat="43.31969719324096" lon="11.509616756042245"><ele>251.66666666666669</ele><time>2026-04-30T14:02:04.001Z</time></trkpt><trkpt lat="43.3196057982313" lon="11.509809601084978"><ele>254.0</ele><time>2026-04-30T14:02:05.001Z</time></trkpt><trkpt lat="43.31949730868345" lon="11.510000648558998"><ele>254.0</ele><time>2026-04-30T14:02:06.001Z</time></trkpt><trkpt lat="43.31938661796289" lon="11.510191813100027"><ele>254.0</ele><time>2026-04-30T14:02:07.001Z</time></trkpt><trkpt lat="43.31927297476077" lon="11.510371488764823"><ele>254.0</ele><time>2026-04-30T14:02:08.001Z</time></trkpt><trkpt lat="43.319181089504454" lon="11.510546618468446"><ele>257.33333333333337</ele><time>2026-04-30T14:02:09.001Z</time></trkpt><trkpt lat="43.319119921917284" lon="11.510742465016385"><ele>260.6666666666667</ele><time>2026-04-30T14:02:10.001Z</time></trkpt><trkpt lat="43.319090979964066" lon="11.510966335082095"><ele>264.0</ele><time>2026-04-30T14:02:11.001Z</time></trkpt><trkpt lat="43.31909585735434" lon="11.51119177126651"><ele>267.0</ele><time>2026-04-30T14:02:12.001Z</time></trkpt><trkpt lat="43.31911850634773" lon="11.51143390937004"><ele>270.0</ele><time>2026-04-30T14:02:13.001Z</time></trkpt><trkpt lat="43.319152953792816" lon="11.511650456859451"><ele>273.0</ele><time>2026-04-30T14:02:14.001Z</time></trkpt><trkpt lat="43.31919538500229" lon="11.511852943325191"><ele>275.6666666666667</ele><time>2026-04-30T14:02:15.001Z</time></trkpt><trkpt lat="43.31921030966983" lon="11.512080449540557"><ele>278.33333333333337</ele><time>2026-04-30T14:02:16Z</time></trkpt><trkpt lat="43.31922372582992" lon="11.51231106667565"><ele>281.0</ele><time>2026-04-30T14:02:17Z</time></trkpt><trkpt lat="43.319221046050906" lon="11.512530372062036"><ele>281.0</ele><time>2026-04-30T14:02:18Z</time></trkpt><trkpt lat="43.31920689165323" lon="11.512740636930411"><ele>281.0</ele><time>2026-04-30T14:02:19Z</time></trkpt><trkpt lat="43.31916138937257" lon="11.512926864289518"><ele>281.0</ele><time>2026-04-30T14:02:20Z</time></trkpt><trkpt lat="43.319067615145414" lon="11.513100196621144"><ele>283.25</ele><time>2026-04-30T14:02:21Z</time></trkpt><trkpt lat="43.319000039161345" lon="11.513289876828042"><ele>285.5</ele><time>2026-04-30T14:02:22Z</time></trkpt><trkpt lat="43.31896168848979" lon="11.51346846239506"><ele>287.75</ele><time>2026-04-30T14:02:23Z</time></trkpt><trkpt lat="43.318959782818794" lon="11.513674022354282"><ele>290.0</ele><time>2026-04-30T14:02:24Z</time></trkpt><trkpt lat="43.318977576062515" lon="11.513848754128567"><ele>290.75</ele><time>2026-04-30T14:02:25Z</time></trkpt><trkpt lat="43.31897055566958" lon="11.51400359716441"><ele>291.5</ele><time>2026-04-30T14:02:26Z</time></trkpt><trkpt lat="43.318961135935425" lon="11.51413919921249"><ele>292.25</ele><time>2026-04-30T14:02:27Z</time></trkpt><trkpt lat="43.31891374113003" lon="11.514287839467222"><ele>293.0</ele><time>2026-04-30T14:02:28Z</time></trkpt><trkpt lat="43.318829283441566" lon="11.514438245020129"><ele>294.25</ele><time>2026-04-30T14:02:29Z</time></trkpt><trkpt lat="43.31874588142416" lon="11.51459021151943"><ele>295.5</ele><time>2026-04-30T14:02:30Z</time></trkpt><trkpt lat="43.31865681022004" lon="11.514716669387607"><ele>296.75</ele><time>2026-04-30T14:02:31Z</time></trkpt><trkpt lat="43.31857794958524" lon="11.514837379434598"><ele>298.0</ele><time>2026-04-30T14:02:32Z</time></trkpt><trkpt lat="43.31850039225039" lon="11.514928725891012"><ele>298.0</ele><time>2026-04-30T14:02:33Z</time></trkpt><trkpt lat="43.318432298496795" lon="11.514966643320772"><ele>298.0</ele><time>2026-04-30T14:02:34Z</time></trkpt><trkpt lat="43.3183492067643" lon="11.514860636980876"><ele>298.0</ele><time>2026-04-30T14:02:36Z</time></trkpt><trkpt lat="43.318369731693785" lon="11.514743480443865"><ele>298.0</ele><time>2026-04-30T14:02:37Z</time></trkpt><trkpt lat="43.31845153248135" lon="11.514623107860423"><ele>298.0</ele><time>2026-04-30T14:02:38Z</time></trkpt><trkpt lat="43.31853228526138" lon="11.514520858096159"><ele>298.5</ele><time>2026-04-30T14:02:39Z</time></trkpt><trkpt lat="43.3186250591524" lon="11.514430067338449"><ele>299.0</ele><time>2026-04-30T14:02:40Z</time></trkpt><trkpt lat="43.318710233001624" lon="11.51430501733438"><ele>299.5</ele><time>2026-04-30T14:02:41Z</time></trkpt><trkpt lat="43.31876501102558" lon="11.514164706456219"><ele>300.0</ele><time>2026-04-30T14:02:42Z</time></trkpt><trkpt lat="43.318785428806834" lon="11.513987760748348"><ele>300.0</ele><time>2026-04-30T14:02:43Z</time></trkpt><trkpt lat="43.318771964956035" lon="11.513802467515758"><ele>300.0</ele><time>2026-04-30T14:02:44Z</time></trkpt><trkpt lat="43.318728151486" lon="11.513640473319343"><ele>300.0</ele><time>2026-04-30T14:02:45Z</time></trkpt><trkpt lat="43.31865288370579" lon="11.513500702897774"><ele>300.0</ele><time>2026-04-30T14:02:46Z</time></trkpt><trkpt lat="43.318546694429536" lon="11.513396577534543"><ele>299.5</ele><time>2026-04-30T14:02:47Z</time></trkpt><trkpt lat="43.318409831108845" lon="11.513347562318986"><ele>299.0</ele><time>2026-04-30T14:02:48Z</time></trkpt><trkpt lat="43.31826051775966" lon="11.51333866513896"><ele>298.5</ele><time>2026-04-30T14:02:49Z</time></trkpt><trkpt lat="43.3181199657644" lon="11.513368587027804"><ele>298.0</ele><time>2026-04-30T14:02:50Z</time></trkpt><trkpt lat="43.3179893077888" lon="11.51341860525178"><ele>298.75</ele><time>2026-04-30T14:02:51Z</time></trkpt><trkpt lat="43.31786449134913" lon="11.51348948757116"><ele>299.5</ele><time>2026-04-30T14:02:52Z</time></trkpt><trkpt lat="43.31776849142928" lon="11.513612783675907"><ele>300.25</ele><time>2026-04-30T14:02:53Z</time></trkpt><trkpt lat="43.31770255095286" lon="11.513808546018977"><ele>301.0</ele><time>2026-04-30T14:02:54Z</time></trkpt><trkpt lat="43.31766374985897" lon="11.514030277642822"><ele>301.0</ele><time>2026-04-30T14:02:55Z</time></trkpt><trkpt lat="43.31762850841712" lon="11.514238558108037"><ele>301.0</ele><time>2026-04-30T14:02:56Z</time></trkpt><trkpt lat="43.317569250183986" lon="11.514435190932323"><ele>301.0</ele><time>2026-04-30T14:02:57Z</time></trkpt><trkpt lat="43.31749003020728" lon="11.514601627847176"><ele>301.3333333333333</ele><time>2026-04-30T14:02:58Z</time></trkpt><trkpt lat="43.31738617639403" lon="11.51474891973162"><ele>301.6666666666667</ele><time>2026-04-30T14:02:59Z</time></trkpt><trkpt lat="43.317242096206" lon="11.514855737301815"><ele>302.0</ele><time>2026-04-30T14:03:00Z</time></trkpt><trkpt lat="43.31709049033156" lon="11.514925314409195"><ele>301.33333333333337</ele><time>2026-04-30T14:03:01Z</time></trkpt><trkpt lat="43.31692096904368" lon="11.514990303642664"><ele>300.6666666666667</ele><time>2026-04-30T14:03:02Z</time></trkpt><trkpt lat="43.316754439099796" lon="11.515063387862035"><ele>300.0</ele><time>2026-04-30T14:03:03Z</time></trkpt><trkpt lat="43.316585330844475" lon="11.51513602384815"><ele>300.0</ele><time>2026-04-30T14:03:04Z</time></trkpt><trkpt lat="43.31642059254251" lon="11.515200472589424"><ele>300.0</ele><time>2026-04-30T14:03:05Z</time></trkpt><trkpt lat="43.31626485851079" lon="11.515242983695064"><ele>300.0</ele><time>2026-04-30T14:03:06Z</time></trkpt><trkpt lat="43.316133390382646" lon="11.515247157586886"><ele>299.6666666666667</ele><time>2026-04-30T14:03:07Z</time></trkpt><trkpt lat="43.31598705400206" lon="11.515210646456618"><ele>299.33333333333337</ele><time>2026-04-30T14:03:08Z</time></trkpt><trkpt lat="43.31585556417435" lon="11.515112763138715"><ele>299.0</ele><time>2026-04-30T14:03:09Z</time></trkpt><trkpt lat="43.31574707165895" lon="11.514937466272984"><ele>299.0</ele><time>2026-04-30T14:03:10Z</time></trkpt><trkpt lat="43.31566977802391" lon="11.514745546276613"><ele>299.0</ele><time>2026-04-30T14:03:11Z</time></trkpt><trkpt lat="43.315623222537894" lon="11.514564578371798"><ele>299.0</ele><time>2026-04-30T14:03:12Z</time></trkpt><trkpt lat="43.3156022991405" lon="11.51437380994457"><ele>299.0</ele><time>2026-04-30T14:03:13Z</time></trkpt><trkpt lat="43.3155951825422" lon="11.514195521929553"><ele>298.33333333333337</ele><time>2026-04-30T14:03:14Z</time></trkpt><trkpt lat="43.31557314140129" lon="11.514054381107707"><ele>297.6666666666667</ele><time>2026-04-30T14:03:15Z</time></trkpt><trkpt lat="43.31554169836592" lon="11.51396331252071"><ele>297.0</ele><time>2026-04-30T14:03:16Z</time></trkpt><trkpt lat="43.31548529594702" lon="11.513888074551978"><ele>296.3333333333333</ele><time>2026-04-30T14:03:17Z</time></trkpt><trkpt lat="43.315398636107325" lon="11.513857401422706"><ele>295.66666666666663</ele><time>2026-04-30T14:03:18Z</time></trkpt><trkpt lat="43.31531131098833" lon="11.513849102728479"><ele>295.0</ele><time>2026-04-30T14:03:19Z</time></trkpt><trkpt lat="43.31522995276453" lon="11.513855514663433"><ele>296.5</ele><time>2026-04-30T14:03:20Z</time></trkpt><trkpt lat="43.31514951231171" lon="11.513860088428126"><ele>298.0</ele><time>2026-04-30T14:03:21Z</time></trkpt><trkpt lat="43.31507005335135" lon="11.513862282890022"><ele>299.5</ele><time>2026-04-30T14:03:22Z</time></trkpt><trkpt lat="43.31498379702213" lon="11.513871274566654"><ele>301.0</ele><time>2026-04-30T14:03:23Z</time></trkpt><trkpt lat="43.31490047684985" lon="11.513896286676214"><ele>302.5</ele><time>2026-04-30T14:03:24Z</time></trkpt><trkpt lat="43.31482195117102" lon="11.51394427828967"><ele>304.0</ele><time>2026-04-30T14:03:25Z</time></trkpt><trkpt lat="43.31473910898857" lon="11.514008021178649"><ele>303.2</ele><time>2026-04-30T14:03:26Z</time></trkpt><trkpt lat="43.31467296280898" lon="11.514130689885752"><ele>302.4</ele><time>2026-04-30T14:03:27Z</time></trkpt><trkpt lat="43.31461732157205" lon="11.514273697272543"><ele>301.6</ele><time>2026-04-30T14:03:28Z</time></trkpt><trkpt lat="43.31457157936321" lon="11.51439315793987"><ele>300.8</ele><time>2026-04-30T14:03:29Z</time></trkpt><trkpt lat="43.314498251774175" lon="11.51448919844348"><ele>300.0</ele><time>2026-04-30T14:03:30Z</time></trkpt><trkpt lat="43.314406194705484" lon="11.514571284498887"><ele>300.0</ele><time>2026-04-30T14:03:31Z</time></trkpt><trkpt lat="43.31429935444256" lon="11.514616280972481"><ele>300.0</ele><time>2026-04-30T14:03:32Z</time></trkpt><trkpt lat="43.31418705278082" lon="11.514608944397608"><ele>300.0</ele><time>2026-04-30T14:03:33Z</time></trkpt><trkpt lat="43.31407462443996" lon="11.514534037005197"><ele>300.0</ele><time>2026-04-30T14:03:34Z</time></trkpt><trkpt lat="43.313996926772354" lon="11.5144319967085"><ele>299.75</ele><time>2026-04-30T14:03:35Z</time></trkpt><trkpt lat="43.313903308764054" lon="11.514300168057819"><ele>299.5</ele><time>2026-04-30T14:03:36Z</time></trkpt><trkpt lat="43.313800625477604" lon="11.514183607420318"><ele>299.25</ele><time>2026-04-30T14:03:37Z</time></trkpt><trkpt lat="43.31369319664621" lon="11.514087713841013"><ele>299.0</ele><time>2026-04-30T14:03:38Z</time></trkpt><trkpt lat="43.313591359615245" lon="11.514008167118051"><ele>299.0</ele><time>2026-04-30T14:03:39Z</time></trkpt><trkpt lat="43.313486812833055" lon="11.51393395080413"><ele>299.0</ele><time>2026-04-30T14:03:40Z</time></trkpt><trkpt lat="43.31337979932765" lon="11.513865557104719"><ele>299.0</ele><time>2026-04-30T14:03:41Z</time></trkpt><trkpt lat="43.31326744498505" lon="11.513820384713801"><ele>299.0</ele><time>2026-04-30T14:03:42Z</time></trkpt><trkpt lat="43.31315722440771" lon="11.513805777914719"><ele>298.5</ele><time>2026-04-30T14:03:43Z</time></trkpt><trkpt lat="43.31304284284889" lon="11.513825192465076"><ele>298.0</ele><time>2026-04-30T14:03:44Z</time></trkpt><trkpt lat="43.31291563954498" lon="11.513846728950583"><ele>297.5</ele><time>2026-04-30T14:03:45.001Z</time></trkpt><trkpt lat="43.31279437276052" lon="11.513914535908055"><ele>297.0</ele><time>2026-04-30T14:03:46.001Z</time></trkpt><trkpt lat="43.312701606402825" lon="11.51400731061936"><ele>297.0</ele><time>2026-04-30T14:03:47.001Z</time></trkpt><trkpt lat="43.31260595859054" lon="11.514077254492207"><ele>297.0</ele><time>2026-04-30T14:03:48.001Z</time></trkpt><trkpt lat="43.31251593643883" lon="11.514157173428295"><ele>297.0</ele><time>2026-04-30T14:03:49.001Z</time></trkpt><trkpt lat="43.31242044579394" lon="11.514231911389622"><ele>297.0</ele><time>2026-04-30T14:03:50.001Z</time></trkpt><trkpt lat="43.312341709159384" lon="11.514339100320543"><ele>297.0</ele><time>2026-04-30T14:03:51.001Z</time></trkpt><trkpt lat="43.31228468804377" lon="11.514490403090285"><ele>295.5</ele><time>2026-04-30T14:03:52.001Z</time></trkpt><trkpt lat="43.31220486704696" lon="11.514619790112233"><ele>294.0</ele><time>2026-04-30T14:03:53.001Z</time></trkpt><trkpt lat="43.312138617941095" lon="11.514755869339092"><ele>292.5</ele><time>2026-04-30T14:03:54.001Z</time></trkpt><trkpt lat="43.312066249981164" lon="11.51488816121423"><ele>291.0</ele><time>2026-04-30T14:03:55.001Z</time></trkpt><trkpt lat="43.311983625645034" lon="11.515013916509373"><ele>291.0</ele><time>2026-04-30T14:03:56.001Z</time></trkpt><trkpt lat="43.31188349189258" lon="11.51510774482993"><ele>291.0</ele><time>2026-04-30T14:03:57.001Z</time></trkpt><trkpt lat="43.311747738813764" lon="11.51513950783821"><ele>291.0</ele><time>2026-04-30T14:03:58.001Z</time></trkpt><trkpt lat="43.31159455711703" lon="11.51512901364488"><ele>291.0</ele><time>2026-04-30T14:03:59.001Z</time></trkpt><trkpt lat="43.31143827988508" lon="11.515109913341625"><ele>288.3333333333333</ele><time>2026-04-30T14:04:00.001Z</time></trkpt><trkpt lat="43.311285642082815" lon="11.51513451367536"><ele>285.66666666666663</ele><time>2026-04-30T14:04:01.001Z</time></trkpt><trkpt lat="43.31112829935518" lon="11.51514839428965"><ele>283.0</ele><time>2026-04-30T14:04:02.001Z</time></trkpt><trkpt lat="43.310978196035876" lon="11.515166559480496"><ele>283.0</ele><time>2026-04-30T14:04:03.001Z</time></trkpt><trkpt lat="43.31083877498665" lon="11.515198422379232"><ele>283.0</ele><time>2026-04-30T14:04:04.001Z</time></trkpt><trkpt lat="43.310701823957984" lon="11.515235618554286"><ele>283.0</ele><time>2026-04-30T14:04:05.001Z</time></trkpt><trkpt lat="43.31057130650983" lon="11.515281235195888"><ele>283.0</ele><time>2026-04-30T14:04:06.001Z</time></trkpt><trkpt lat="43.31043763530352" lon="11.515305180425123"><ele>282.75</ele><time>2026-04-30T14:04:07.001Z</time></trkpt><trkpt lat="43.31032038078231" lon="11.515379870383454"><ele>282.5</ele><time>2026-04-30T14:04:08.001Z</time></trkpt><trkpt lat="43.31019946259958" lon="11.5154264140353"><ele>282.25</ele><time>2026-04-30T14:04:09.001Z</time></trkpt><trkpt lat="43.31009241307793" lon="11.51550548988174"><ele>282.0</ele><time>2026-04-30T14:04:10.001Z</time></trkpt><trkpt lat="43.3099933732494" lon="11.515601380309736"><ele>283.75</ele><time>2026-04-30T14:04:11.001Z</time></trkpt><trkpt lat="43.30989576782424" lon="11.51571715925041"><ele>285.5</ele><time>2026-04-30T14:04:12.001Z</time></trkpt><trkpt lat="43.30980427268429" lon="11.515828939011623"><ele>287.25</ele><time>2026-04-30T14:04:13.001Z</time></trkpt><trkpt lat="43.30972123121926" lon="11.515963166546618"><ele>289.0</ele><time>2026-04-30T14:04:14.001Z</time></trkpt><trkpt lat="43.30962889336033" lon="11.516082233777901"><ele>290.0</ele><time>2026-04-30T14:04:15.001Z</time></trkpt><trkpt lat="43.30952854551159" lon="11.516180460365751"><ele>291.0</ele><time>2026-04-30T14:04:16.001Z</time></trkpt><trkpt lat="43.30945386113703" lon="11.516299799995132"><ele>292.0</ele><time>2026-04-30T14:04:17.001Z</time></trkpt><trkpt lat="43.30938026975907" lon="11.516390287376549"><ele>293.0</ele><time>2026-04-30T14:04:18.001Z</time></trkpt><trkpt lat="43.30931689900847" lon="11.516468393282103"><ele>294.0</ele><time>2026-04-30T14:04:19.001Z</time></trkpt><trkpt lat="43.309262026953355" lon="11.51653876770446"><ele>294.0</ele><time>2026-04-30T14:04:20.001Z</time></trkpt><trkpt lat="43.30920760270676" lon="11.516618987759907"><ele>294.0</ele><time>2026-04-30T14:04:21.001Z</time></trkpt><trkpt lat="43.30915569916537" lon="11.516721352337951"><ele>294.0</ele><time>2026-04-30T14:04:22Z</time></trkpt><trkpt lat="43.309137329542224" lon="11.516874505324838"><ele>294.0</ele><time>2026-04-30T14:04:23Z</time></trkpt><trkpt lat="43.309147850019784" lon="11.517033626247306"><ele>294.0</ele><time>2026-04-30T14:04:24Z</time></trkpt><trkpt lat="43.30918943009347" lon="11.517188504784832"><ele>293.0</ele><time>2026-04-30T14:04:25Z</time></trkpt><trkpt lat="43.30927427973235" lon="11.517314864836123"><ele>292.0</ele><time>2026-04-30T14:04:26Z</time></trkpt><trkpt lat="43.309373921586015" lon="11.517473060031014"><ele>291.0</ele><time>2026-04-30T14:04:27Z</time></trkpt><trkpt lat="43.30947577895831" lon="11.517558421701755"><ele>290.0</ele><time>2026-04-30T14:04:28Z</time></trkpt><trkpt lat="43.30955696902698" lon="11.517689576223226"><ele>290.0</ele><time>2026-04-30T14:04:29Z</time></trkpt><trkpt lat="43.30963337334601" lon="11.5178032245532"><ele>290.0</ele><time>2026-04-30T14:04:30Z</time></trkpt><trkpt lat="43.309702691161476" lon="11.517926929799781"><ele>290.0</ele><time>2026-04-30T14:04:31Z</time></trkpt><trkpt lat="43.309758766837064" lon="11.518056871077675"><ele>290.0</ele><time>2026-04-30T14:04:32Z</time></trkpt><trkpt lat="43.30981450328459" lon="11.518170042066181"><ele>290.0</ele><time>2026-04-30T14:04:33Z</time></trkpt><trkpt lat="43.30984341685171" lon="11.518295443523899"><ele>291.0</ele><time>2026-04-30T14:04:34Z</time></trkpt><trkpt lat="43.309869456090055" lon="11.518418747455385"><ele>292.0</ele><time>2026-04-30T14:04:35Z</time></trkpt><trkpt lat="43.30989851602771" lon="11.518537509117392"><ele>293.0</ele><time>2026-04-30T14:04:36Z</time></trkpt><trkpt lat="43.30992169711116" lon="11.5186500112692"><ele>294.0</ele><time>2026-04-30T14:04:37Z</time></trkpt><trkpt lat="43.30991572922049" lon="11.518772753475949"><ele>295.0</ele><time>2026-04-30T14:04:38Z</time></trkpt><trkpt lat="43.30990805161662" lon="11.51890863085826"><ele>295.0</ele><time>2026-04-30T14:04:39Z</time></trkpt><trkpt lat="43.309886496832654" lon="11.519061933318225"><ele>295.0</ele><time>2026-04-30T14:04:40Z</time></trkpt><trkpt lat="43.309834446166434" lon="11.51921402158856"><ele>295.0</ele><time>2026-04-30T14:04:41Z</time></trkpt><trkpt lat="43.30977405063918" lon="11.519355720373358"><ele>295.0</ele><time>2026-04-30T14:04:42Z</time></trkpt><trkpt lat="43.30972297423201" lon="11.519486569465483"><ele>295.2</ele><time>2026-04-30T14:04:43Z</time></trkpt><trkpt lat="43.30968265304765" lon="11.519607629012729"><ele>295.4</ele><time>2026-04-30T14:04:44Z</time></trkpt><trkpt lat="43.30966074732989" lon="11.519736773557552"><ele>295.6</ele><time>2026-04-30T14:04:45Z</time></trkpt><trkpt lat="43.3096365160278" lon="11.519849799874839"><ele>295.8</ele><time>2026-04-30T14:04:46Z</time></trkpt><trkpt lat="43.30962817535013" lon="11.51999969501934"><ele>296.0</ele><time>2026-04-30T14:04:47Z</time></trkpt><trkpt lat="43.309639622670474" lon="11.520177935216147"><ele>293.33333333333337</ele><time>2026-04-30T14:04:48Z</time></trkpt><trkpt lat="43.309640494713165" lon="11.52041646566758"><ele>290.6666666666667</ele><time>2026-04-30T14:04:49Z</time></trkpt><trkpt lat="43.30966569885702" lon="11.520645201968613"><ele>288.0</ele><time>2026-04-30T14:04:50Z</time></trkpt><trkpt lat="43.30967173070395" lon="11.520839799726552"><ele>288.0</ele><time>2026-04-30T14:04:51Z</time></trkpt><trkpt lat="43.30968627555281" lon="11.521018002233898"><ele>288.0</ele><time>2026-04-30T14:04:52Z</time></trkpt><trkpt lat="43.30968771907955" lon="11.521187392661083"><ele>288.0</ele><time>2026-04-30T14:04:53Z</time></trkpt><trkpt lat="43.309717067439486" lon="11.521352583231117"><ele>288.0</ele><time>2026-04-30T14:04:54Z</time></trkpt><trkpt lat="43.30976659299328" lon="11.521506877725216"><ele>292.25</ele><time>2026-04-30T14:04:55Z</time></trkpt><trkpt lat="43.309812848973706" lon="11.521656222816732"><ele>296.5</ele><time>2026-04-30T14:04:56Z</time></trkpt><trkpt lat="43.309839019755735" lon="11.521808398174683"><ele>300.75</ele><time>2026-04-30T14:04:57Z</time></trkpt><trkpt lat="43.30984412791028" lon="11.521958676543097"><ele>305.0</ele><time>2026-04-30T14:04:58Z</time></trkpt><trkpt lat="43.30984109787922" lon="11.52211804221858"><ele>305.5</ele><time>2026-04-30T14:04:59Z</time></trkpt><trkpt lat="43.30977807263226" lon="11.522262417684313"><ele>306.0</ele><time>2026-04-30T14:05:00Z</time></trkpt><trkpt lat="43.309707308739334" lon="11.522399949740192"><ele>306.5</ele><time>2026-04-30T14:05:01Z</time></trkpt><trkpt lat="43.30960778222095" lon="11.522500018799226"><ele>307.0</ele><time>2026-04-30T14:05:02Z</time></trkpt><trkpt lat="43.309504859287514" lon="11.522584066861414"><ele>307.6</ele><time>2026-04-30T14:05:03Z</time></trkpt><trkpt lat="43.309416443179906" lon="11.522641053643765"><ele>308.2</ele><time>2026-04-30T14:05:04Z</time></trkpt><trkpt lat="43.30933676345909" lon="11.522691866322361"><ele>308.8</ele><time>2026-04-30T14:05:05Z</time></trkpt><trkpt lat="43.30924705509254" lon="11.522748582997135"><ele>309.4</ele><time>2026-04-30T14:05:06Z</time></trkpt><trkpt lat="43.309151035079516" lon="11.522828428696352"><ele>310.0</ele><time>2026-04-30T14:05:07Z</time></trkpt><trkpt lat="43.30908075371322" lon="11.522925989149337"><ele>311.2</ele><time>2026-04-30T14:05:08Z</time></trkpt><trkpt lat="43.30899900673383" lon="11.523012163707238"><ele>312.4</ele><time>2026-04-30T14:05:09Z</time></trkpt><trkpt lat="43.30892620455735" lon="11.523104957814603"><ele>313.6</ele><time>2026-04-30T14:05:10Z</time></trkpt><trkpt lat="43.30887412351352" lon="11.523211901444109"><ele>314.8</ele><time>2026-04-30T14:05:11Z</time></trkpt><trkpt lat="43.30884006594159" lon="11.523318608051731"><ele>316.0</ele><time>2026-04-30T14:05:12Z</time></trkpt><trkpt lat="43.308837121658385" lon="11.523429915013223"><ele>318.0</ele><time>2026-04-30T14:05:13Z</time></trkpt><trkpt lat="43.30885880857496" lon="11.52355908684451"><ele>320.0</ele><time>2026-04-30T14:05:14Z</time></trkpt><trkpt lat="43.30888505835708" lon="11.523689423578928"><ele>322.0</ele><time>2026-04-30T14:05:15Z</time></trkpt><trkpt lat="43.308895487492116" lon="11.523827836632815"><ele>324.0</ele><time>2026-04-30T14:05:16Z</time></trkpt><trkpt lat="43.30889743219986" lon="11.52395676927828"><ele>326.0</ele><time>2026-04-30T14:05:17Z</time></trkpt><trkpt lat="43.308891450275866" lon="11.52409051947116"><ele>326.0</ele><time>2026-04-30T14:05:18Z</time></trkpt><trkpt lat="43.30884636152271" lon="11.524195822610777"><ele>326.0</ele><time>2026-04-30T14:05:19Z</time></trkpt><trkpt lat="43.30882504100659" lon="11.524347616127272"><ele>326.0</ele><time>2026-04-30T14:05:21Z</time></trkpt><trkpt lat="43.308774388588375" lon="11.524412855715342"><ele>326.0</ele><time>2026-04-30T14:05:23Z</time></trkpt><trkpt lat="43.30866926545997" lon="11.52433562526392"><ele>326.0</ele><time>2026-04-30T14:05:24Z</time></trkpt><trkpt lat="43.30862776377506" lon="11.524240501470903"><ele>326.0</ele><time>2026-04-30T14:05:25Z</time></trkpt><trkpt lat="43.30858691872411" lon="11.524146416609705"><ele>326.0</ele><time>2026-04-30T14:05:26Z</time></trkpt><trkpt lat="43.30854051391142" lon="11.52407830880127"><ele>326.0</ele><time>2026-04-30T14:05:27Z</time></trkpt><trkpt lat="43.30848954632496" lon="11.524026529260238"><ele>326.0</ele><time>2026-04-30T14:05:28Z</time></trkpt><trkpt lat="43.30839642890935" lon="11.523952247465731"><ele>326.0</ele><time>2026-04-30T14:05:30Z</time></trkpt><trkpt lat="43.30831881513574" lon="11.523884976430965"><ele>326.0</ele><time>2026-04-30T14:05:32Z</time></trkpt><trkpt lat="43.308261282678394" lon="11.523838215826087"><ele>326.0</ele><time>2026-04-30T14:05:33Z</time></trkpt><trkpt lat="43.308205551676714" lon="11.523789627385295"><ele>326.0</ele><time>2026-04-30T14:05:34Z</time></trkpt><trkpt lat="43.30814742562026" lon="11.523754750401169"><ele>326.0</ele><time>2026-04-30T14:05:35Z</time></trkpt><trkpt lat="43.30804625424486" lon="11.523672140084361"><ele>326.0</ele><time>2026-04-30T14:05:37Z</time></trkpt><trkpt lat="43.30793819933106" lon="11.523579346633332"><ele>326.0</ele><time>2026-04-30T14:05:39Z</time></trkpt><trkpt lat="43.30782327431568" lon="11.523492287645366"><ele>326.0</ele><time>2026-04-30T14:05:41Z</time></trkpt><trkpt lat="43.30776016004269" lon="11.523439220960727"><ele>326.0</ele><time>2026-04-30T14:05:42Z</time></trkpt><trkpt lat="43.30769579188306" lon="11.523397257110574"><ele>326.0</ele><time>2026-04-30T14:05:43Z</time></trkpt><trkpt lat="43.30761195232619" lon="11.523304272968193"><ele>326.0</ele><time>2026-04-30T14:05:45Z</time></trkpt><trkpt lat="43.30748118550188" lon="11.5234456471481"><ele>326.0</ele><time>2026-04-30T14:05:47Z</time></trkpt><trkpt lat="43.30742940317201" lon="11.523514080123801"><ele>326.0</ele><time>2026-04-30T14:05:48Z</time></trkpt><trkpt lat="43.307374351283244" lon="11.523574695611691"><ele>326.0</ele><time>2026-04-30T14:05:49Z</time></trkpt><trkpt lat="43.307307631692744" lon="11.523642137030086"><ele>326.0</ele><time>2026-04-30T14:05:50Z</time></trkpt><trkpt lat="43.30723735629461" lon="11.52371636499417"><ele>326.0</ele><time>2026-04-30T14:05:51Z</time></trkpt><trkpt lat="43.30716796520025" lon="11.523789455069878"><ele>326.0</ele><time>2026-04-30T14:05:52Z</time></trkpt><trkpt lat="43.307116443340895" lon="11.52384372333353"><ele>326.0</ele><time>2026-04-30T14:05:53.001Z</time></trkpt><trkpt lat="43.30703715034355" lon="11.523929617227083"><ele>326.4</ele><time>2026-04-30T14:05:55.001Z</time></trkpt><trkpt lat="43.306973140966704" lon="11.52403122222436"><ele>326.8</ele><time>2026-04-30T14:05:57.001Z</time></trkpt><trkpt lat="43.30691669749828" lon="11.52409122470524"><ele>327.2</ele><time>2026-04-30T14:05:59.001Z</time></trkpt><trkpt lat="43.30697061202299" lon="11.524010332027832"><ele>327.59999999999997</ele><time>2026-04-30T14:06:49Z</time></trkpt><trkpt lat="43.30704984494524" lon="11.523914787395332"><ele>328.0</ele><time>2026-04-30T14:06:51Z</time></trkpt><trkpt lat="43.307134761838476" lon="11.523824428083286"><ele>328.0</ele><time>2026-04-30T14:06:53Z</time></trkpt><trkpt lat="43.30721303409009" lon="11.523741983117157"><ele>328.0</ele><time>2026-04-30T14:06:55Z</time></trkpt><trkpt lat="43.30726759607062" lon="11.523684512311865"><ele>328.0</ele><time>2026-04-30T14:06:56Z</time></trkpt><trkpt lat="43.30733140179495" lon="11.523617305845887"><ele>328.0</ele><time>2026-04-30T14:06:58Z</time></trkpt><trkpt lat="43.307389001336574" lon="11.52355420861476"><ele>328.0</ele><time>2026-04-30T14:07:00Z</time></trkpt><trkpt lat="43.307438759626635" lon="11.523497157200302"><ele>328.0</ele><time>2026-04-30T14:07:02Z</time></trkpt><trkpt lat="43.30749796398494" lon="11.523432237834125"><ele>327.59999999999997</ele><time>2026-04-30T14:07:05Z</time></trkpt><trkpt lat="43.30755733783343" lon="11.523374435907686"><ele>327.2</ele><time>2026-04-30T14:13:02.999Z</time></trkpt><trkpt lat="43.307556249547396" lon="11.523230277795328"><ele>326.8</ele><time>2026-04-30T14:13:06.999Z</time></trkpt><trkpt lat="43.30746449234824" lon="11.523121607967731"><ele>326.4</ele><time>2026-04-30T14:13:08.999Z</time></trkpt><trkpt lat="43.307337225417044" lon="11.52306672333376"><ele>326.0</ele><time>2026-04-30T14:13:10.999Z</time></trkpt><trkpt lat="43.307260043906886" lon="11.523072621118127"><ele>325.83333333333337</ele><time>2026-04-30T14:13:11.999Z</time></trkpt><trkpt lat="43.30718154629389" lon="11.523065342919917"><ele>325.6666666666667</ele><time>2026-04-30T14:13:12.999Z</time></trkpt><trkpt lat="43.307090401979984" lon="11.523061606980734"><ele>325.5</ele><time>2026-04-30T14:13:13.999Z</time></trkpt><trkpt lat="43.30699810154345" lon="11.523056313764014"><ele>325.3333333333333</ele><time>2026-04-30T14:13:14.999Z</time></trkpt><trkpt lat="43.30691500588303" lon="11.523051425939707"><ele>325.16666666666663</ele><time>2026-04-30T14:13:15.999Z</time></trkpt><trkpt lat="43.30684357643155" lon="11.523040827664182"><ele>325.0</ele><time>2026-04-30T14:13:16.999Z</time></trkpt><trkpt lat="43.30675479304713" lon="11.523049642841842"><ele>325.0</ele><time>2026-04-30T14:13:17.999Z</time></trkpt><trkpt lat="43.306669013678416" lon="11.523040818106935"><ele>325.0</ele><time>2026-04-30T14:13:18.999Z</time></trkpt><trkpt lat="43.30658625333505" lon="11.523014958310398"><ele>325.0</ele><time>2026-04-30T14:13:19.999Z</time></trkpt><trkpt lat="43.30650123096922" lon="11.523005825554057"><ele>325.0</ele><time>2026-04-30T14:13:20.999Z</time></trkpt><trkpt lat="43.30642184464011" lon="11.522990307978196"><ele>325.0</ele><time>2026-04-30T14:13:21.999Z</time></trkpt><trkpt lat="43.306341624350665" lon="11.522982666845209"><ele>325.0</ele><time>2026-04-30T14:13:22.999Z</time></trkpt><trkpt lat="43.30625265782574" lon="11.522976107951866"><ele>323.8333333333333</ele><time>2026-04-30T14:13:23.999Z</time></trkpt><trkpt lat="43.30617256208994" lon="11.522948459282526"><ele>322.66666666666663</ele><time>2026-04-30T14:13:24.999Z</time></trkpt><trkpt lat="43.30606781792271" lon="11.522912724224216"><ele>321.5</ele><time>2026-04-30T14:13:25.999Z</time></trkpt><trkpt lat="43.30598850439997" lon="11.522876181631942"><ele>320.3333333333333</ele><time>2026-04-30T14:13:26.999Z</time></trkpt><trkpt lat="43.30591758890536" lon="11.522831066842357"><ele>319.1666666666667</ele><time>2026-04-30T14:13:27.999Z</time></trkpt><trkpt lat="43.30584468637231" lon="11.522800583373796"><ele>318.0</ele><time>2026-04-30T14:13:28.999Z</time></trkpt><trkpt lat="43.30576952332369" lon="11.52277522758714"><ele>317.3333333333333</ele><time>2026-04-30T14:13:29.999Z</time></trkpt><trkpt lat="43.30569830183051" lon="11.522763881922263"><ele>316.6666666666667</ele><time>2026-04-30T14:13:30.999Z</time></trkpt><trkpt lat="43.30563452031034" lon="11.522761906675488"><ele>316.0</ele><time>2026-04-30T14:13:31.999Z</time></trkpt><trkpt lat="43.30556991999963" lon="11.52277203269151"><ele>315.33333333333337</ele><time>2026-04-30T14:13:32.999Z</time></trkpt><trkpt lat="43.30549465753885" lon="11.522812358149828"><ele>314.6666666666667</ele><time>2026-04-30T14:13:33.999Z</time></trkpt><trkpt lat="43.30540055203853" lon="11.5228526030531"><ele>314.0</ele><time>2026-04-30T14:13:34.999Z</time></trkpt><trkpt lat="43.30531553742563" lon="11.52289289303564"><ele>312.4</ele><time>2026-04-30T14:13:35.999Z</time></trkpt><trkpt lat="43.30523003564841" lon="11.522910240341238"><ele>310.79999999999995</ele><time>2026-04-30T14:13:36.999Z</time></trkpt><trkpt lat="43.30513515625855" lon="11.522968497665792"><ele>309.20000000000005</ele><time>2026-04-30T14:13:38Z</time></trkpt><trkpt lat="43.305043011152804" lon="11.523023563879411"><ele>307.6</ele><time>2026-04-30T14:13:39Z</time></trkpt><trkpt lat="43.30495815406821" lon="11.523074844489768"><ele>306.0</ele><time>2026-04-30T14:13:40Z</time></trkpt><trkpt lat="43.3048861254541" lon="11.523124031539037"><ele>306.0</ele><time>2026-04-30T14:13:41Z</time></trkpt><trkpt lat="43.304824412101084" lon="11.523178582313404"><ele>306.0</ele><time>2026-04-30T14:13:42Z</time></trkpt><trkpt lat="43.30474711138345" lon="11.523244201321251"><ele>306.0</ele><time>2026-04-30T14:13:43Z</time></trkpt><trkpt lat="43.30466522975076" lon="11.52331420039413"><ele>306.0</ele><time>2026-04-30T14:13:44Z</time></trkpt><trkpt lat="43.30461030236369" lon="11.523391603853009"><ele>306.0</ele><time>2026-04-30T14:13:45Z</time></trkpt><trkpt lat="43.30455105222872" lon="11.523474928600356"><ele>306.0</ele><time>2026-04-30T14:13:46Z</time></trkpt><trkpt lat="43.30449564690799" lon="11.523563640048216"><ele>304.0</ele><time>2026-04-30T14:13:47Z</time></trkpt><trkpt lat="43.30443902838323" lon="11.523636142006033"><ele>302.0</ele><time>2026-04-30T14:13:48Z</time></trkpt><trkpt lat="43.30437181441886" lon="11.523720204413832"><ele>300.0</ele><time>2026-04-30T14:13:49Z</time></trkpt><trkpt lat="43.30431443721206" lon="11.523775893984729"><ele>298.0</ele><time>2026-04-30T14:13:50Z</time></trkpt><trkpt lat="43.304235947096785" lon="11.523826091539217"><ele>296.0</ele><time>2026-04-30T14:13:51Z</time></trkpt><trkpt lat="43.3041608075686" lon="11.523827956863215"><ele>294.0</ele><time>2026-04-30T14:13:52Z</time></trkpt><trkpt lat="43.30406554751983" lon="11.523805636105557"><ele>294.0</ele><time>2026-04-30T14:13:53Z</time></trkpt><trkpt lat="43.303985356404915" lon="11.523750811489021"><ele>294.0</ele><time>2026-04-30T14:13:54Z</time></trkpt><trkpt lat="43.3038920398433" lon="11.52367484103447"><ele>294.0</ele><time>2026-04-30T14:13:55Z</time></trkpt><trkpt lat="43.303825996537235" lon="11.523518167000763"><ele>294.0</ele><time>2026-04-30T14:13:56Z</time></trkpt><trkpt lat="43.303762702370136" lon="11.523403480173064"><ele>294.0</ele><time>2026-04-30T14:13:57Z</time></trkpt><trkpt lat="43.30369999073738" lon="11.523307541063224"><ele>293.1666666666667</ele><time>2026-04-30T14:13:58Z</time></trkpt><trkpt lat="43.30365171682683" lon="11.523220837260011"><ele>292.3333333333333</ele><time>2026-04-30T14:13:59Z</time></trkpt><trkpt lat="43.30359443506938" lon="11.523121208823483"><ele>291.5</ele><time>2026-04-30T14:14:00Z</time></trkpt><trkpt lat="43.303537874554905" lon="11.523025595703126"><ele>290.66666666666663</ele><time>2026-04-30T14:14:01Z</time></trkpt><trkpt lat="43.30348497349642" lon="11.52293969336705"><ele>289.8333333333333</ele><time>2026-04-30T14:14:02Z</time></trkpt><trkpt lat="43.303434921257" lon="11.52286536391128"><ele>289.0</ele><time>2026-04-30T14:14:03Z</time></trkpt><trkpt lat="43.303375778518486" lon="11.522794724860717"><ele>289.0</ele><time>2026-04-30T14:14:04Z</time></trkpt><trkpt lat="43.30330279252715" lon="11.522725765396194"><ele>289.0</ele><time>2026-04-30T14:14:05Z</time></trkpt><trkpt lat="43.30321520859383" lon="11.52267851100275"><ele>289.0</ele><time>2026-04-30T14:14:06Z</time></trkpt><trkpt lat="43.30312780870859" lon="11.522667649684223"><ele>289.0</ele><time>2026-04-30T14:14:07Z</time></trkpt><trkpt lat="43.30305312093055" lon="11.522662446639073"><ele>289.0</ele><time>2026-04-30T14:14:08Z</time></trkpt><trkpt lat="43.30298254969102" lon="11.522649391854207"><ele>289.0</ele><time>2026-04-30T14:14:09Z</time></trkpt><trkpt lat="43.30291571491372" lon="11.52265225147837"><ele>289.5</ele><time>2026-04-30T14:14:10Z</time></trkpt><trkpt lat="43.30285247303122" lon="11.522661024257442"><ele>290.0</ele><time>2026-04-30T14:14:11Z</time></trkpt><trkpt lat="43.30278973497951" lon="11.52266972704294"><ele>290.5</ele><time>2026-04-30T14:14:12Z</time></trkpt><trkpt lat="43.30267995723831" lon="11.522693179509359"><ele>291.0</ele><time>2026-04-30T14:14:14Z</time></trkpt><trkpt lat="43.302589696304636" lon="11.5227237705704"><ele>291.5</ele><time>2026-04-30T14:14:16Z</time></trkpt><trkpt lat="43.302514056042625" lon="11.522754162247878"><ele>292.0</ele><time>2026-04-30T14:14:18Z</time></trkpt><trkpt lat="43.302401950727585" lon="11.522806399021267"><ele>292.0</ele><time>2026-04-30T14:14:20Z</time></trkpt><trkpt lat="43.302338076138454" lon="11.52283968444557"><ele>292.0</ele><time>2026-04-30T14:14:21Z</time></trkpt><trkpt lat="43.302274154776164" lon="11.522866321318292"><ele>292.0</ele><time>2026-04-30T14:14:22Z</time></trkpt><trkpt lat="43.302212516840086" lon="11.522885208165448"><ele>292.0</ele><time>2026-04-30T14:14:23Z</time></trkpt><trkpt lat="43.30214172569867" lon="11.522922151515196"><ele>292.0</ele><time>2026-04-30T14:14:24Z</time></trkpt><trkpt lat="43.30207338558762" lon="11.522904046333332"><ele>292.0</ele><time>2026-04-30T14:14:25Z</time></trkpt><trkpt lat="43.301999384942796" lon="11.522899623998406"><ele>292.0</ele><time>2026-04-30T14:14:26Z</time></trkpt><trkpt lat="43.30192897661483" lon="11.522893011626804"><ele>291.7142857142857</ele><time>2026-04-30T14:14:27Z</time></trkpt><trkpt lat="43.3018589759216" lon="11.522884687699651"><ele>291.42857142857144</ele><time>2026-04-30T14:14:28Z</time></trkpt><trkpt lat="43.30178731431082" lon="11.52287589615745"><ele>291.14285714285717</ele><time>2026-04-30T14:14:29Z</time></trkpt><trkpt lat="43.301717001823256" lon="11.522865140372632"><ele>290.8571428571429</ele><time>2026-04-30T14:14:30Z</time></trkpt><trkpt lat="43.30164859148885" lon="11.522852312714766"><ele>290.5714285714286</ele><time>2026-04-30T14:14:31Z</time></trkpt><trkpt lat="43.30157638248628" lon="11.522855023439176"><ele>290.2857142857143</ele><time>2026-04-30T14:14:32Z</time></trkpt><trkpt lat="43.30150483815035" lon="11.522833921360725"><ele>290.0</ele><time>2026-04-30T14:14:33Z</time></trkpt><trkpt lat="43.30143152110731" lon="11.522806721978402"><ele>290.6666666666667</ele><time>2026-04-30T14:14:34Z</time></trkpt><trkpt lat="43.30135986795706" lon="11.5227636601914"><ele>291.33333333333337</ele><time>2026-04-30T14:14:35Z</time></trkpt><trkpt lat="43.30129167677751" lon="11.522696579653097"><ele>292.0</ele><time>2026-04-30T14:14:36Z</time></trkpt><trkpt lat="43.30121360135815" lon="11.522648163004009"><ele>292.6666666666667</ele><time>2026-04-30T14:14:37Z</time></trkpt><trkpt lat="43.30113690817584" lon="11.52260313940453"><ele>293.3333333333333</ele><time>2026-04-30T14:14:38Z</time></trkpt><trkpt lat="43.30106453429128" lon="11.522585562846793"><ele>294.0</ele><time>2026-04-30T14:14:39Z</time></trkpt><trkpt lat="43.30099273425747" lon="11.52255707336476"><ele>294.0</ele><time>2026-04-30T14:14:40Z</time></trkpt><trkpt lat="43.300902552952024" lon="11.522521764339734"><ele>294.0</ele><time>2026-04-30T14:14:41Z</time></trkpt><trkpt lat="43.30082201744876" lon="11.52250013874212"><ele>294.0</ele><time>2026-04-30T14:14:42Z</time></trkpt><trkpt lat="43.3007407356217" lon="11.52247458660819"><ele>294.0</ele><time>2026-04-30T14:14:43Z</time></trkpt><trkpt lat="43.300661877213905" lon="11.522433881190025"><ele>294.0</ele><time>2026-04-30T14:14:44Z</time></trkpt><trkpt lat="43.30057767647718" lon="11.522418979680015"><ele>294.0</ele><time>2026-04-30T14:14:45Z</time></trkpt><trkpt lat="43.30050700602406" lon="11.522386418388685"><ele>294.8333333333333</ele><time>2026-04-30T14:14:46Z</time></trkpt><trkpt lat="43.30043457237463" lon="11.522349969457967"><ele>295.6666666666667</ele><time>2026-04-30T14:14:47Z</time></trkpt><trkpt lat="43.300362398713496" lon="11.52230823510952"><ele>296.5</ele><time>2026-04-30T14:14:48Z</time></trkpt><trkpt lat="43.30029093570603" lon="11.522258551435538"><ele>297.33333333333337</ele><time>2026-04-30T14:14:49Z</time></trkpt><trkpt lat="43.30020932791321" lon="11.5222194507105"><ele>298.1666666666667</ele><time>2026-04-30T14:14:50Z</time></trkpt><trkpt lat="43.30011413546417" lon="11.522197718638306"><ele>299.0</ele><time>2026-04-30T14:14:51Z</time></trkpt><trkpt lat="43.30000818969099" lon="11.522200442194102"><ele>299.0</ele><time>2026-04-30T14:14:51.999Z</time></trkpt><trkpt lat="43.29989834663944" lon="11.522206463417847"><ele>299.0</ele><time>2026-04-30T14:14:52.999Z</time></trkpt><trkpt lat="43.299796405356474" lon="11.522220471999152"><ele>299.0</ele><time>2026-04-30T14:14:53.999Z</time></trkpt><trkpt lat="43.2997049898867" lon="11.522253269821418"><ele>299.0</ele><time>2026-04-30T14:14:54.999Z</time></trkpt><trkpt lat="43.299613657573175" lon="11.522312399475597"><ele>299.0</ele><time>2026-04-30T14:14:55.999Z</time></trkpt><trkpt lat="43.29951494106632" lon="11.522388825724708"><ele>298.8</ele><time>2026-04-30T14:14:56.999Z</time></trkpt><trkpt lat="43.29942830131007" lon="11.522449359056663"><ele>298.59999999999997</ele><time>2026-04-30T14:14:57.999Z</time></trkpt><trkpt lat="43.299357043569884" lon="11.52248498307811"><ele>298.4</ele><time>2026-04-30T14:14:58.999Z</time></trkpt><trkpt lat="43.299262215966074" lon="11.522479345675618"><ele>298.2</ele><time>2026-04-30T14:14:59.999Z</time></trkpt><trkpt lat="43.299140458714064" lon="11.52251884159216"><ele>298.0</ele><time>2026-04-30T14:15:00.999Z</time></trkpt><trkpt lat="43.2990613872683" lon="11.522515931499463"><ele>298.0</ele><time>2026-04-30T14:15:01.999Z</time></trkpt><trkpt lat="43.29898081754833" lon="11.522506483316432"><ele>298.0</ele><time>2026-04-30T14:15:02.999Z</time></trkpt><trkpt lat="43.29888813190015" lon="11.522454919762936"><ele>298.0</ele><time>2026-04-30T14:15:03.999Z</time></trkpt><trkpt lat="43.29880434854169" lon="11.522343831728477"><ele>298.0</ele><time>2026-04-30T14:15:04.999Z</time></trkpt><trkpt lat="43.29872775527622" lon="11.522259041740154"><ele>298.0</ele><time>2026-04-30T14:15:05.999Z</time></trkpt><trkpt lat="43.29865874659102" lon="11.522206547712644"><ele>299.4</ele><time>2026-04-30T14:15:06.999Z</time></trkpt><trkpt lat="43.298566298944095" lon="11.522222621999312"><ele>300.8</ele><time>2026-04-30T14:15:07.999Z</time></trkpt><trkpt lat="43.29846379041213" lon="11.52224699490496"><ele>302.2</ele><time>2026-04-30T14:15:08.999Z</time></trkpt><trkpt lat="43.298371104440726" lon="11.522293707564485"><ele>303.6</ele><time>2026-04-30T14:15:09.999Z</time></trkpt><trkpt lat="43.29828799157744" lon="11.522306950689572"><ele>305.0</ele><time>2026-04-30T14:15:11Z</time></trkpt><trkpt lat="43.29821026389092" lon="11.52226684206079"><ele>305.0</ele><time>2026-04-30T14:15:12Z</time></trkpt><trkpt lat="43.29814161279639" lon="11.522146992015792"><ele>305.0</ele><time>2026-04-30T14:15:13Z</time></trkpt><trkpt lat="43.298098036800795" lon="11.522022610332357"><ele>305.0</ele><time>2026-04-30T14:15:14Z</time></trkpt><trkpt lat="43.298032747275705" lon="11.521913121828275"><ele>305.0</ele><time>2026-04-30T14:15:15Z</time></trkpt><trkpt lat="43.29798255957356" lon="11.521801745263428"><ele>305.0</ele><time>2026-04-30T14:15:16Z</time></trkpt><trkpt lat="43.297914191674415" lon="11.521702589223377"><ele>304.83333333333337</ele><time>2026-04-30T14:15:17Z</time></trkpt><trkpt lat="43.29783319420582" lon="11.521629463191701"><ele>304.6666666666667</ele><time>2026-04-30T14:15:18Z</time></trkpt><trkpt lat="43.29777386441264" lon="11.52155241330617"><ele>304.5</ele><time>2026-04-30T14:15:19Z</time></trkpt><trkpt lat="43.29770817208749" lon="11.52151120458704"><ele>304.3333333333333</ele><time>2026-04-30T14:15:20Z</time></trkpt><trkpt lat="43.2976512306887" lon="11.521451286191624"><ele>304.16666666666663</ele><time>2026-04-30T14:15:21Z</time></trkpt><trkpt lat="43.2975873371088" lon="11.52140076552403"><ele>304.0</ele><time>2026-04-30T14:15:22Z</time></trkpt><trkpt lat="43.29752255689918" lon="11.521359505446567"><ele>304.0</ele><time>2026-04-30T14:15:23Z</time></trkpt><trkpt lat="43.29742471375159" lon="11.521332070823723"><ele>304.0</ele><time>2026-04-30T14:15:25Z</time></trkpt><trkpt lat="43.29732132811937" lon="11.521309077385215"><ele>304.0</ele><time>2026-04-30T14:18:33.001Z</time></trkpt><trkpt lat="43.29720920205933" lon="11.521337388951144"><ele>304.0</ele><time>2026-04-30T14:18:35.001Z</time></trkpt><trkpt lat="43.29714497800412" lon="11.521361301612998"><ele>304.0</ele><time>2026-04-30T14:18:36.001Z</time></trkpt><trkpt lat="43.29708205595358" lon="11.521389249381393"><ele>302.4</ele><time>2026-04-30T14:18:37.001Z</time></trkpt><trkpt lat="43.296964881702756" lon="11.521450317825783"><ele>300.79999999999995</ele><time>2026-04-30T14:18:39.001Z</time></trkpt><trkpt lat="43.29685392561623" lon="11.521521360214468"><ele>299.20000000000005</ele><time>2026-04-30T14:18:41.001Z</time></trkpt><trkpt lat="43.29675728127291" lon="11.521615174628735"><ele>297.6</ele><time>2026-04-30T14:18:43.001Z</time></trkpt><trkpt lat="43.29672387004435" lon="11.521693302944293"><ele>296.0</ele><time>2026-04-30T14:18:44.001Z</time></trkpt><trkpt lat="43.29672089235686" lon="11.521793424842674"><ele>296.0</ele><time>2026-04-30T14:18:45.001Z</time></trkpt><trkpt lat="43.29670814296003" lon="11.521888655368855"><ele>296.0</ele><time>2026-04-30T14:18:46.001Z</time></trkpt><trkpt lat="43.29669927859247" lon="11.521982885981913"><ele>296.0</ele><time>2026-04-30T14:18:47.001Z</time></trkpt><trkpt lat="43.29667075934841" lon="11.522071387420498"><ele>296.0</ele><time>2026-04-30T14:18:48.001Z</time></trkpt><trkpt lat="43.29666416395421" lon="11.522171049022962"><ele>296.0</ele><time>2026-04-30T14:18:49.001Z</time></trkpt><trkpt lat="43.29663247117975" lon="11.522264158508653"><ele>296.0</ele><time>2026-04-30T14:18:50.001Z</time></trkpt><trkpt lat="43.296584865850015" lon="11.522358591126434"><ele>296.0</ele><time>2026-04-30T14:18:51.001Z</time></trkpt><trkpt lat="43.296503886735294" lon="11.522445700887092"><ele>297.6666666666667</ele><time>2026-04-30T14:18:52.001Z</time></trkpt><trkpt lat="43.29646796753986" lon="11.522560216501194"><ele>299.33333333333337</ele><time>2026-04-30T14:18:53.001Z</time></trkpt><trkpt lat="43.29643785917675" lon="11.522664897195481"><ele>301.0</ele><time>2026-04-30T14:18:54.001Z</time></trkpt><trkpt lat="43.2964214895832" lon="11.522779196868136"><ele>302.6666666666667</ele><time>2026-04-30T14:18:55.001Z</time></trkpt><trkpt lat="43.2964114538875" lon="11.522927739363674"><ele>304.3333333333333</ele><time>2026-04-30T14:18:56.001Z</time></trkpt><trkpt lat="43.296411958883034" lon="11.523040628044871"><ele>306.0</ele><time>2026-04-30T14:18:57.001Z</time></trkpt><trkpt lat="43.29640029227416" lon="11.523149370669207"><ele>306.2</ele><time>2026-04-30T14:18:58.001Z</time></trkpt><trkpt lat="43.296405649102994" lon="11.523269134764192"><ele>306.40000000000003</ele><time>2026-04-30T14:18:59.001Z</time></trkpt><trkpt lat="43.29641640731292" lon="11.523415848761848"><ele>306.6</ele><time>2026-04-30T14:19:00.001Z</time></trkpt><trkpt lat="43.296433609420525" lon="11.523554421420194"><ele>306.8</ele><time>2026-04-30T14:19:01.001Z</time></trkpt><trkpt lat="43.29646019494826" lon="11.523674511816573"><ele>307.0</ele><time>2026-04-30T14:19:02.001Z</time></trkpt><trkpt lat="43.29647988800398" lon="11.523804667282306"><ele>306.0</ele><time>2026-04-30T14:19:03.001Z</time></trkpt><trkpt lat="43.296497877297725" lon="11.523936890414983"><ele>305.0</ele><time>2026-04-30T14:19:03.999Z</time></trkpt><trkpt lat="43.29651593907724" lon="11.5240615445548"><ele>304.0</ele><time>2026-04-30T14:19:04.999Z</time></trkpt><trkpt lat="43.296529396135014" lon="11.524175585701677"><ele>303.0</ele><time>2026-04-30T14:19:05.999Z</time></trkpt><trkpt lat="43.296544799851105" lon="11.5242941685203"><ele>302.0</ele><time>2026-04-30T14:19:06.999Z</time></trkpt><trkpt lat="43.29655725474743" lon="11.524419876988018"><ele>302.0</ele><time>2026-04-30T14:19:07.999Z</time></trkpt><trkpt lat="43.29659036478001" lon="11.524549520644037"><ele>302.0</ele><time>2026-04-30T14:19:08.999Z</time></trkpt><trkpt lat="43.29663093435785" lon="11.524674212302278"><ele>302.0</ele><time>2026-04-30T14:19:09.999Z</time></trkpt><trkpt lat="43.296682413598454" lon="11.524784502868261"><ele>302.0</ele><time>2026-04-30T14:19:10.999Z</time></trkpt><trkpt lat="43.29670931590241" lon="11.524900233437881"><ele>302.0</ele><time>2026-04-30T14:19:11.999Z</time></trkpt><trkpt lat="43.29675789365156" lon="11.525005326816153"><ele>300.0</ele><time>2026-04-30T14:19:12.999Z</time></trkpt><trkpt lat="43.2967665554802" lon="11.525142391748682"><ele>298.0</ele><time>2026-04-30T14:19:13.999Z</time></trkpt><trkpt lat="43.29675208707669" lon="11.525277080760436"><ele>296.0</ele><time>2026-04-30T14:19:14.999Z</time></trkpt><trkpt lat="43.296715277844214" lon="11.525423961251756"><ele>294.0</ele><time>2026-04-30T14:19:15.999Z</time></trkpt><trkpt lat="43.296722696769706" lon="11.525594445434402"><ele>292.0</ele><time>2026-04-30T14:19:16.999Z</time></trkpt><trkpt lat="43.296741312081856" lon="11.525760788499335"><ele>291.4</ele><time>2026-04-30T14:19:17.999Z</time></trkpt><trkpt lat="43.296759142042504" lon="11.525887149125381"><ele>290.79999999999995</ele><time>2026-04-30T14:19:18.999Z</time></trkpt><trkpt lat="43.29676523372089" lon="11.526019091320425"><ele>290.2</ele><time>2026-04-30T14:19:19.999Z</time></trkpt><trkpt lat="43.29669093825614" lon="11.526131311035456"><ele>289.59999999999997</ele><time>2026-04-30T14:19:21.999Z</time></trkpt><trkpt lat="43.296618814513785" lon="11.52618862777978"><ele>289.0</ele><time>2026-04-30T14:19:22.999Z</time></trkpt><trkpt lat="43.29652563537548" lon="11.526291852520483"><ele>289.0</ele><time>2026-04-30T14:19:23.999Z</time></trkpt><trkpt lat="43.29644483260577" lon="11.526409217548784"><ele>289.0</ele><time>2026-04-30T14:19:24.999Z</time></trkpt><trkpt lat="43.29636959957903" lon="11.526531713661237"><ele>289.0</ele><time>2026-04-30T14:19:25.999Z</time></trkpt><trkpt lat="43.2962961064977" lon="11.526651377109893"><ele>289.0</ele><time>2026-04-30T14:19:26.999Z</time></trkpt><trkpt lat="43.29623404342623" lon="11.526752429561762"><ele>289.0</ele><time>2026-04-30T14:19:27.999Z</time></trkpt><trkpt lat="43.29618329011794" lon="11.526835535938702"><ele>289.59999999999997</ele><time>2026-04-30T14:19:29Z</time></trkpt><trkpt lat="43.29613129772845" lon="11.52692866641342"><ele>290.2</ele><time>2026-04-30T14:19:30Z</time></trkpt><trkpt lat="43.29608370615381" lon="11.527026798300948"><ele>290.79999999999995</ele><time>2026-04-30T14:19:31Z</time></trkpt><trkpt lat="43.296041643196745" lon="11.527140563270423"><ele>291.4</ele><time>2026-04-30T14:19:32Z</time></trkpt><trkpt lat="43.29600395216899" lon="11.527275274071307"><ele>292.0</ele><time>2026-04-30T14:19:33Z</time></trkpt><trkpt lat="43.29597306361943" lon="11.527427333069273"><ele>292.0</ele><time>2026-04-30T14:19:34Z</time></trkpt><trkpt lat="43.2959562755557" lon="11.527600459877721"><ele>292.0</ele><time>2026-04-30T14:19:35Z</time></trkpt><trkpt lat="43.29593816726293" lon="11.527776950455749"><ele>292.0</ele><time>2026-04-30T14:19:36Z</time></trkpt><trkpt lat="43.29593679403163" lon="11.527928049840174"><ele>292.0</ele><time>2026-04-30T14:19:37Z</time></trkpt><trkpt lat="43.29590949656187" lon="11.528066763051832"><ele>292.0</ele><time>2026-04-30T14:19:38Z</time></trkpt><trkpt lat="43.295893224417384" lon="11.52821131291441"><ele>292.0</ele><time>2026-04-30T14:19:39Z</time></trkpt><trkpt lat="43.295865412527796" lon="11.528350057779017"><ele>292.0</ele><time>2026-04-30T14:19:40Z</time></trkpt><trkpt lat="43.29582287230826" lon="11.52845951822174"><ele>292.0</ele><time>2026-04-30T14:19:41Z</time></trkpt><trkpt lat="43.29575611803314" lon="11.528557615214439"><ele>292.0</ele><time>2026-04-30T14:19:42Z</time></trkpt><trkpt lat="43.29566450454472" lon="11.528655308256427"><ele>293.0</ele><time>2026-04-30T14:19:43Z</time></trkpt><trkpt lat="43.295553394330604" lon="11.528745961040073"><ele>294.0</ele><time>2026-04-30T14:19:44Z</time></trkpt><trkpt lat="43.29545807086689" lon="11.528815532443872"><ele>295.0</ele><time>2026-04-30T14:19:45Z</time></trkpt><trkpt lat="43.295382352462376" lon="11.528875112193086"><ele>296.0</ele><time>2026-04-30T14:19:46Z</time></trkpt><trkpt lat="43.295320976663206" lon="11.528946888246717"><ele>297.0</ele><time>2026-04-30T14:19:47Z</time></trkpt><trkpt lat="43.295278894587476" lon="11.529029431326247"><ele>297.0</ele><time>2026-04-30T14:19:48Z</time></trkpt><trkpt lat="43.29527672125802" lon="11.529152490638586"><ele>297.0</ele><time>2026-04-30T14:19:49Z</time></trkpt><trkpt lat="43.29531720677748" lon="11.52925080313578"><ele>297.0</ele><time>2026-04-30T14:19:50Z</time></trkpt><trkpt lat="43.2954171024803" lon="11.5293058830549"><ele>297.0</ele><time>2026-04-30T14:19:51Z</time></trkpt><trkpt lat="43.295498831000664" lon="11.529334047567582"><ele>297.0</ele><time>2026-04-30T14:19:52Z</time></trkpt><trkpt lat="43.29559512881662" lon="11.529361194291718"><ele>296.4</ele><time>2026-04-30T14:19:53Z</time></trkpt><trkpt lat="43.29569516680324" lon="11.529405409467417"><ele>295.79999999999995</ele><time>2026-04-30T14:19:54Z</time></trkpt><trkpt lat="43.29578133800102" lon="11.529471203376769"><ele>295.2</ele><time>2026-04-30T14:19:55Z</time></trkpt><trkpt lat="43.29585534539452" lon="11.529543566291498"><ele>294.59999999999997</ele><time>2026-04-30T14:19:56Z</time></trkpt><trkpt lat="43.2959351012255" lon="11.529603330746216"><ele>294.0</ele><time>2026-04-30T14:19:57Z</time></trkpt><trkpt lat="43.29604549957168" lon="11.529631653527534"><ele>294.4</ele><time>2026-04-30T14:19:58Z</time></trkpt><trkpt lat="43.29616613764799" lon="11.52964456503636"><ele>294.79999999999995</ele><time>2026-04-30T14:19:59Z</time></trkpt><trkpt lat="43.29628101144301" lon="11.529670295253538"><ele>295.20000000000005</ele><time>2026-04-30T14:20:00Z</time></trkpt><trkpt lat="43.296380743345374" lon="11.529720399074867"><ele>295.6</ele><time>2026-04-30T14:20:01Z</time></trkpt><trkpt lat="43.29646521652274" lon="11.529772359434514"><ele>296.0</ele><time>2026-04-30T14:20:02Z</time></trkpt><trkpt lat="43.296535672041166" lon="11.529834475747533"><ele>296.0</ele><time>2026-04-30T14:20:03Z</time></trkpt><trkpt lat="43.29663501061223" lon="11.529937544908186"><ele>296.0</ele><time>2026-04-30T14:20:05Z</time></trkpt><trkpt lat="43.29664543704678" lon="11.530040052182748"><ele>296.0</ele><time>2026-04-30T14:20:06Z</time></trkpt><trkpt lat="43.296623033338214" lon="11.530145923558747"><ele>296.0</ele><time>2026-04-30T14:20:07Z</time></trkpt><trkpt lat="43.29655563140964" lon="11.530219954199502"><ele>296.0</ele><time>2026-04-30T14:20:08Z</time></trkpt><trkpt lat="43.29647691993476" lon="11.530241802195954"><ele>296.0</ele><time>2026-04-30T14:20:09Z</time></trkpt><trkpt lat="43.29638984625234" lon="11.530283804215568"><ele>297.8</ele><time>2026-04-30T14:20:10Z</time></trkpt><trkpt lat="43.29628817511723" lon="11.530326287413601"><ele>299.6</ele><time>2026-04-30T14:20:11Z</time></trkpt><trkpt lat="43.296177805101536" lon="11.530369147299663"><ele>301.4</ele><time>2026-04-30T14:20:12Z</time></trkpt><trkpt lat="43.29608573124193" lon="11.530405069839214"><ele>303.2</ele><time>2026-04-30T14:20:13Z</time></trkpt><trkpt lat="43.29599496725164" lon="11.53044269775218"><ele>305.0</ele><time>2026-04-30T14:20:14Z</time></trkpt><trkpt lat="43.295912999426214" lon="11.530476679066599"><ele>305.0</ele><time>2026-04-30T14:20:15.001Z</time></trkpt><trkpt lat="43.29583308618422" lon="11.530511883934079"><ele>305.0</ele><time>2026-04-30T14:20:16.001Z</time></trkpt><trkpt lat="43.2957635201185" lon="11.530565840448682"><ele>305.0</ele><time>2026-04-30T14:20:17.001Z</time></trkpt><trkpt lat="43.295689329734365" lon="11.530592977594175"><ele>305.0</ele><time>2026-04-30T14:20:18.001Z</time></trkpt><trkpt lat="43.29561550347888" lon="11.530637930324913"><ele>305.0</ele><time>2026-04-30T14:20:19.001Z</time></trkpt><trkpt lat="43.29552803452979" lon="11.530688986433178"><ele>305.0</ele><time>2026-04-30T14:20:20.001Z</time></trkpt><trkpt lat="43.29542248861418" lon="11.530765540123554"><ele>307.2</ele><time>2026-04-30T14:20:21.001Z</time></trkpt><trkpt lat="43.29532094583443" lon="11.530847218928557"><ele>309.4</ele><time>2026-04-30T14:20:22.001Z</time></trkpt><trkpt lat="43.295234054755475" lon="11.530919749394124"><ele>311.6</ele><time>2026-04-30T14:20:23.001Z</time></trkpt><trkpt lat="43.29514965614046" lon="11.53100682591013"><ele>313.8</ele><time>2026-04-30T14:20:24.001Z</time></trkpt><trkpt lat="43.29507234628582" lon="11.531102717595427"><ele>316.0</ele><time>2026-04-30T14:20:25.001Z</time></trkpt><trkpt lat="43.29499469222716" lon="11.531224865908733"><ele>316.0</ele><time>2026-04-30T14:20:26.001Z</time></trkpt><trkpt lat="43.294925817628446" lon="11.531353974370443"><ele>316.0</ele><time>2026-04-30T14:20:27.001Z</time></trkpt><trkpt lat="43.29485852946634" lon="11.531480681150153"><ele>316.0</ele><time>2026-04-30T14:20:28.001Z</time></trkpt><trkpt lat="43.29479094364806" lon="11.531597272138587"><ele>316.0</ele><time>2026-04-30T14:20:29.001Z</time></trkpt><trkpt lat="43.29473998326357" lon="11.531709673394989"><ele>316.0</ele><time>2026-04-30T14:20:30.001Z</time></trkpt><trkpt lat="43.29468273674263" lon="11.531826311537134"><ele>317.8</ele><time>2026-04-30T14:20:31.001Z</time></trkpt><trkpt lat="43.29462497243022" lon="11.53194204975327"><ele>319.6</ele><time>2026-04-30T14:20:32.001Z</time></trkpt><trkpt lat="43.29458972095767" lon="11.53205083204932"><ele>321.4</ele><time>2026-04-30T14:20:33.001Z</time></trkpt><trkpt lat="43.29455562182101" lon="11.532159208877347"><ele>323.2</ele><time>2026-04-30T14:20:34.001Z</time></trkpt><trkpt lat="43.294515299686836" lon="11.53227566861868"><ele>325.0</ele><time>2026-04-30T14:20:35.001Z</time></trkpt><trkpt lat="43.294481252465324" lon="11.532407063558114"><ele>325.0</ele><time>2026-04-30T14:20:36.001Z</time></trkpt><trkpt lat="43.294469858823696" lon="11.532531140409843"><ele>325.0</ele><time>2026-04-30T14:20:37.001Z</time></trkpt><trkpt lat="43.29445403186617" lon="11.53265732003027"><ele>325.0</ele><time>2026-04-30T14:20:38.001Z</time></trkpt><trkpt lat="43.29443884759154" lon="11.532784726904312"><ele>325.0</ele><time>2026-04-30T14:20:39.001Z</time></trkpt><trkpt lat="43.29444111618164" lon="11.532912542024569"><ele>325.0</ele><time>2026-04-30T14:20:40.001Z</time></trkpt><trkpt lat="43.29445328881112" lon="11.533043702577839"><ele>324.66666666666663</ele><time>2026-04-30T14:20:41.001Z</time></trkpt><trkpt lat="43.29445961633864" lon="11.533166965981259"><ele>324.3333333333333</ele><time>2026-04-30T14:20:42.001Z</time></trkpt><trkpt lat="43.294457309855375" lon="11.533261642533352"><ele>324.0</ele><time>2026-04-30T14:20:43.001Z</time></trkpt><trkpt lat="43.29445722608267" lon="11.533360223839281"><ele>323.6666666666667</ele><time>2026-04-30T14:20:44.001Z</time></trkpt><trkpt lat="43.29446074874119" lon="11.533463229572572"><ele>323.33333333333337</ele><time>2026-04-30T14:20:45.001Z</time></trkpt><trkpt lat="43.29449515449455" lon="11.533571334764826"><ele>323.0</ele><time>2026-04-30T14:20:46.001Z</time></trkpt><trkpt lat="43.29455567179321" lon="11.533669801068061"><ele>324.4</ele><time>2026-04-30T14:20:47.001Z</time></trkpt><trkpt lat="43.29464170955034" lon="11.533748824628217"><ele>325.79999999999995</ele><time>2026-04-30T14:20:48.001Z</time></trkpt><trkpt lat="43.294754847166196" lon="11.533809555343833"><ele>327.2</ele><time>2026-04-30T14:20:49.001Z</time></trkpt><trkpt lat="43.29486670142135" lon="11.533857302816777"><ele>328.6</ele><time>2026-04-30T14:20:50.001Z</time></trkpt><trkpt lat="43.294952191174424" lon="11.533912980803267"><ele>330.0</ele><time>2026-04-30T14:20:51.001Z</time></trkpt><trkpt lat="43.2950444179411" lon="11.533952035398414"><ele>330.0</ele><time>2026-04-30T14:20:52.001Z</time></trkpt><trkpt lat="43.29512646000098" lon="11.534033967030696"><ele>330.0</ele><time>2026-04-30T14:20:53.001Z</time></trkpt><trkpt lat="43.295166245136414" lon="11.534147255497011"><ele>330.0</ele><time>2026-04-30T14:20:54.001Z</time></trkpt><trkpt lat="43.295253923953695" lon="11.534249666935741"><ele>330.0</ele><time>2026-04-30T14:20:56.001Z</time></trkpt><trkpt lat="43.29529954484757" lon="11.534314889338727"><ele>330.0</ele><time>2026-04-30T14:20:57.001Z</time></trkpt><trkpt lat="43.295367059347804" lon="11.53437559630801"><ele>330.0</ele><time>2026-04-30T14:20:58.001Z</time></trkpt><trkpt lat="43.29544465938439" lon="11.534427690653729"><ele>330.0</ele><time>2026-04-30T14:20:59.001Z</time></trkpt><trkpt lat="43.295521844630876" lon="11.534483778526434"><ele>330.0</ele><time>2026-04-30T14:21:00.001Z</time></trkpt><trkpt lat="43.29559243293975" lon="11.534533449481549"><ele>330.0</ele><time>2026-04-30T14:21:01.001Z</time></trkpt><trkpt lat="43.29565193201594" lon="11.534577693929526"><ele>330.0</ele><time>2026-04-30T14:21:02.001Z</time></trkpt><trkpt lat="43.295706145881425" lon="11.53462252754854"><ele>330.0</ele><time>2026-04-30T14:21:03.001Z</time></trkpt><trkpt lat="43.2957514875985" lon="11.534696416930467"><ele>329.5</ele><time>2026-04-30T14:21:04.001Z</time></trkpt><trkpt lat="43.29579806982905" lon="11.534763464417663"><ele>329.0</ele><time>2026-04-30T14:21:05.001Z</time></trkpt><trkpt lat="43.29583965025006" lon="11.534840190462923"><ele>328.5</ele><time>2026-04-30T14:21:06.001Z</time></trkpt><trkpt lat="43.2958281319533" lon="11.534968313709586"><ele>328.0</ele><time>2026-04-30T14:21:07.001Z</time></trkpt><trkpt lat="43.29582700161598" lon="11.535100836151322"><ele>327.5</ele><time>2026-04-30T14:21:08.001Z</time></trkpt><trkpt lat="43.29580774372685" lon="11.535217704597033"><ele>327.0</ele><time>2026-04-30T14:21:09.001Z</time></trkpt><trkpt lat="43.29579683791197" lon="11.535333685191937"><ele>326.3333333333333</ele><time>2026-04-30T14:21:10Z</time></trkpt><trkpt lat="43.29578591951649" lon="11.535449799543034"><ele>325.6666666666667</ele><time>2026-04-30T14:21:11Z</time></trkpt><trkpt lat="43.295775788369326" lon="11.535557541575091"><ele>325.0</ele><time>2026-04-30T14:21:12Z</time></trkpt><trkpt lat="43.2957654508221" lon="11.535667479758832"><ele>324.33333333333337</ele><time>2026-04-30T14:21:13Z</time></trkpt><trkpt lat="43.29574749514187" lon="11.535792322560024"><ele>323.6666666666667</ele><time>2026-04-30T14:21:14Z</time></trkpt><trkpt lat="43.295710194650546" lon="11.535912550766398"><ele>323.0</ele><time>2026-04-30T14:21:15Z</time></trkpt><trkpt lat="43.29568080844333" lon="11.536053798425192"><ele>323.0</ele><time>2026-04-30T14:21:16Z</time></trkpt><trkpt lat="43.29562836592833" lon="11.536178184503814"><ele>323.0</ele><time>2026-04-30T14:21:17Z</time></trkpt><trkpt lat="43.2955877872015" lon="11.53630989821735"><ele>323.0</ele><time>2026-04-30T14:21:18Z</time></trkpt><trkpt lat="43.295528305376884" lon="11.53642553827557"><ele>323.0</ele><time>2026-04-30T14:21:19Z</time></trkpt><trkpt lat="43.295483245522085" lon="11.536521704145587"><ele>323.0</ele><time>2026-04-30T14:21:20Z</time></trkpt><trkpt lat="43.29542691441558" lon="11.536607882658911"><ele>319.79999999999995</ele><time>2026-04-30T14:21:21Z</time></trkpt><trkpt lat="43.2953576814088" lon="11.536680704873401"><ele>316.59999999999997</ele><time>2026-04-30T14:21:22Z</time></trkpt><trkpt lat="43.295271891285424" lon="11.536760655233005"><ele>313.4</ele><time>2026-04-30T14:21:23Z</time></trkpt><trkpt lat="43.295154082173966" lon="11.536749381999577"><ele>310.2</ele><time>2026-04-30T14:21:24Z</time></trkpt><trkpt lat="43.29503572728093" lon="11.536787225819255"><ele>307.0</ele><time>2026-04-30T14:21:25Z</time></trkpt><trkpt lat="43.294920415118135" lon="11.536815771908483"><ele>307.0</ele><time>2026-04-30T14:21:26Z</time></trkpt><trkpt lat="43.29482194752885" lon="11.536886684043946"><ele>307.0</ele><time>2026-04-30T14:21:27Z</time></trkpt><trkpt lat="43.29469662640698" lon="11.536937653201404"><ele>307.0</ele><time>2026-04-30T14:21:28Z</time></trkpt><trkpt lat="43.29461663698354" lon="11.536986585336717"><ele>307.0</ele><time>2026-04-30T14:21:29Z</time></trkpt><trkpt lat="43.29455543319763" lon="11.537050120746368"><ele>307.0</ele><time>2026-04-30T14:21:30Z</time></trkpt><trkpt lat="43.29448138998207" lon="11.537111506629948"><ele>308.5</ele><time>2026-04-30T14:21:31Z</time></trkpt><trkpt lat="43.29437394887297" lon="11.53720897871933"><ele>310.0</ele><time>2026-04-30T14:21:32Z</time></trkpt><trkpt lat="43.29428328638585" lon="11.53731835865361"><ele>311.5</ele><time>2026-04-30T14:21:33Z</time></trkpt><trkpt lat="43.294212907675366" lon="11.537437806108388"><ele>313.0</ele><time>2026-04-30T14:21:34Z</time></trkpt><trkpt lat="43.294127789275436" lon="11.537532884717244"><ele>313.0</ele><time>2026-04-30T14:21:35Z</time></trkpt><trkpt lat="43.29404830929673" lon="11.537624595363644"><ele>313.0</ele><time>2026-04-30T14:21:36Z</time></trkpt><trkpt lat="43.29396318206797" lon="11.537716751284536"><ele>313.0</ele><time>2026-04-30T14:21:37Z</time></trkpt><trkpt lat="43.29386599862914" lon="11.537817453153055"><ele>313.0</ele><time>2026-04-30T14:21:38Z</time></trkpt><trkpt lat="43.29376596350321" lon="11.537919290080996"><ele>312.75</ele><time>2026-04-30T14:21:39Z</time></trkpt><trkpt lat="43.29366387976838" lon="11.538000677264439"><ele>312.5</ele><time>2026-04-30T14:21:40Z</time></trkpt><trkpt lat="43.29356490236221" lon="11.538089651039941"><ele>312.25</ele><time>2026-04-30T14:21:41Z</time></trkpt><trkpt lat="43.29347008011778" lon="11.538171221713313"><ele>312.0</ele><time>2026-04-30T14:21:42Z</time></trkpt><trkpt lat="43.29336218500886" lon="11.538271939266425"><ele>312.0</ele><time>2026-04-30T14:21:43Z</time></trkpt><trkpt lat="43.29323900350822" lon="11.5383814906722"><ele>312.0</ele><time>2026-04-30T14:21:44Z</time></trkpt><trkpt lat="43.29311952399302" lon="11.538491982210111"><ele>312.0</ele><time>2026-04-30T14:21:45Z</time></trkpt><trkpt lat="43.293007937853275" lon="11.538570767341053"><ele>312.0</ele><time>2026-04-30T14:21:46Z</time></trkpt><trkpt lat="43.29292849134081" lon="11.538673198908704"><ele>313.0</ele><time>2026-04-30T14:21:47Z</time></trkpt><trkpt lat="43.292847126525274" lon="11.538747706095752"><ele>314.0</ele><time>2026-04-30T14:21:48Z</time></trkpt><trkpt lat="43.292782345244746" lon="11.538816519377498"><ele>315.0</ele><time>2026-04-30T14:21:49Z</time></trkpt><trkpt lat="43.292722215045394" lon="11.538871011424208"><ele>316.0</ele><time>2026-04-30T14:21:50Z</time></trkpt><trkpt lat="43.29263265058668" lon="11.538911773167115"><ele>317.0</ele><time>2026-04-30T14:21:51Z</time></trkpt><trkpt lat="43.29252610597708" lon="11.538916548351104"><ele>317.0</ele><time>2026-04-30T14:21:52Z</time></trkpt><trkpt lat="43.292396551714134" lon="11.538908472700063"><ele>317.0</ele><time>2026-04-30T14:21:53Z</time></trkpt><trkpt lat="43.292253899808166" lon="11.53884078523586"><ele>317.0</ele><time>2026-04-30T14:21:54Z</time></trkpt><trkpt lat="43.292115779893784" lon="11.538790630810125"><ele>317.0</ele><time>2026-04-30T14:21:55Z</time></trkpt><trkpt lat="43.29200625779341" lon="11.538785445585395"><ele>317.0</ele><time>2026-04-30T14:21:56Z</time></trkpt><trkpt lat="43.29191946447594" lon="11.538781877475717"><ele>317.0</ele><time>2026-04-30T14:21:57Z</time></trkpt><trkpt lat="43.291834629612715" lon="11.538817521759157"><ele>317.0</ele><time>2026-04-30T14:21:58.001Z</time></trkpt><trkpt lat="43.29176445479857" lon="11.538883648362074"><ele>317.0</ele><time>2026-04-30T14:21:59.001Z</time></trkpt><trkpt lat="43.291702824082705" lon="11.538968775631375"><ele>317.0</ele><time>2026-04-30T14:22:00.001Z</time></trkpt><trkpt lat="43.291661776295165" lon="11.539107854448583"><ele>317.0</ele><time>2026-04-30T14:22:01.001Z</time></trkpt><trkpt lat="43.291609272287744" lon="11.539264259689993"><ele>317.0</ele><time>2026-04-30T14:22:02.001Z</time></trkpt><trkpt lat="43.2915474849425" lon="11.539404808839999"><ele>317.0</ele><time>2026-04-30T14:22:03.001Z</time></trkpt><trkpt lat="43.29149602901997" lon="11.539542171906044"><ele>317.0</ele><time>2026-04-30T14:22:04.001Z</time></trkpt><trkpt lat="43.29145309671621" lon="11.539663260702804"><ele>314.0</ele><time>2026-04-30T14:22:05.001Z</time></trkpt><trkpt lat="43.29142312170687" lon="11.539771644464357"><ele>311.0</ele><time>2026-04-30T14:22:06.001Z</time></trkpt><trkpt lat="43.291383579981876" lon="11.539878704630148"><ele>308.0</ele><time>2026-04-30T14:22:07.001Z</time></trkpt><trkpt lat="43.291341420211" lon="11.539988326432615"><ele>305.0</ele><time>2026-04-30T14:22:08.001Z</time></trkpt><trkpt lat="43.29131463256533" lon="11.540135295387454"><ele>302.0</ele><time>2026-04-30T14:22:09.001Z</time></trkpt><trkpt lat="43.29128766210901" lon="11.540305653432839"><ele>302.4</ele><time>2026-04-30T14:22:10.001Z</time></trkpt><trkpt lat="43.29128798239815" lon="11.540457306171987"><ele>302.79999999999995</ele><time>2026-04-30T14:22:11.001Z</time></trkpt><trkpt lat="43.29129943249444" lon="11.540599734864045"><ele>303.2</ele><time>2026-04-30T14:22:12.001Z</time></trkpt><trkpt lat="43.29130964852635" lon="11.540744099316528"><ele>303.59999999999997</ele><time>2026-04-30T14:22:13.001Z</time></trkpt><trkpt lat="43.29131453267074" lon="11.540884760143044"><ele>304.0</ele><time>2026-04-30T14:22:14.001Z</time></trkpt><trkpt lat="43.29130077125595" lon="11.54097253304717"><ele>304.0</ele><time>2026-04-30T14:22:15.001Z</time></trkpt><trkpt lat="43.29127768069734" lon="11.541071960883029"><ele>304.0</ele><time>2026-04-30T14:22:17.001Z</time></trkpt><trkpt lat="43.29122604802707" lon="11.541177370252528"><ele>304.0</ele><time>2026-04-30T14:22:26.001Z</time></trkpt><trkpt lat="43.29113197708589" lon="11.541231475620618"><ele>304.0</ele><time>2026-04-30T14:22:28.001Z</time></trkpt><trkpt lat="43.29109494782467" lon="11.541304807678696"><ele>304.0</ele><time>2026-04-30T14:22:29.001Z</time></trkpt><trkpt lat="43.290966775473066" lon="11.541370332610807"><ele>305.2</ele><time>2026-04-30T14:22:31.001Z</time></trkpt><trkpt lat="43.29088121010591" lon="11.541378239026779"><ele>306.4</ele><time>2026-04-30T14:22:32.001Z</time></trkpt><trkpt lat="43.29079778004923" lon="11.541363021192213"><ele>307.6</ele><time>2026-04-30T14:22:33.001Z</time></trkpt><trkpt lat="43.29071640108947" lon="11.54134267457031"><ele>308.8</ele><time>2026-04-30T14:22:34.001Z</time></trkpt><trkpt lat="43.29061776976611" lon="11.541306401254994"><ele>310.0</ele><time>2026-04-30T14:22:35.001Z</time></trkpt><trkpt lat="43.29050877631453" lon="11.541256657303126"><ele>308.0</ele><time>2026-04-30T14:22:36.001Z</time></trkpt><trkpt lat="43.290393563526834" lon="11.541209835912161"><ele>306.0</ele><time>2026-04-30T14:22:37.001Z</time></trkpt><trkpt lat="43.290281050876544" lon="11.541177055725706"><ele>304.0</ele><time>2026-04-30T14:22:38.001Z</time></trkpt><trkpt lat="43.29016740598832" lon="11.541160827904086"><ele>302.0</ele><time>2026-04-30T14:22:39.001Z</time></trkpt><trkpt lat="43.2900443966839" lon="11.541170468617674"><ele>302.0</ele><time>2026-04-30T14:22:40.001Z</time></trkpt><trkpt lat="43.289923251104995" lon="11.541184509131382"><ele>302.0</ele><time>2026-04-30T14:22:41.001Z</time></trkpt><trkpt lat="43.28981365524413" lon="11.54120060897271"><ele>302.0</ele><time>2026-04-30T14:22:42.001Z</time></trkpt><trkpt lat="43.28972016419555" lon="11.541179469905012"><ele>302.0</ele><time>2026-04-30T14:22:43.001Z</time></trkpt><trkpt lat="43.289619366682494" lon="11.541179529119033"><ele>302.0</ele><time>2026-04-30T14:22:44.001Z</time></trkpt><trkpt lat="43.289530206353355" lon="11.5411353706619"><ele>302.0</ele><time>2026-04-30T14:22:45.001Z</time></trkpt><trkpt lat="43.2894508472458" lon="11.541108870362429"><ele>302.0</ele><time>2026-04-30T14:22:46.001Z</time></trkpt><trkpt lat="43.289374052423966" lon="11.54107643035016"><ele>302.0</ele><time>2026-04-30T14:22:47.001Z</time></trkpt><trkpt lat="43.28928852260135" lon="11.541057490810804"><ele>302.0</ele><time>2026-04-30T14:22:48.001Z</time></trkpt><trkpt lat="43.28919006637687" lon="11.541064892969843"><ele>302.0</ele><time>2026-04-30T14:22:49.001Z</time></trkpt><trkpt lat="43.289098071068416" lon="11.541106509150032"><ele>302.0</ele><time>2026-04-30T14:22:50.001Z</time></trkpt><trkpt lat="43.289000384600286" lon="11.541119089930824"><ele>302.0</ele><time>2026-04-30T14:22:51.001Z</time></trkpt><trkpt lat="43.28890793602" lon="11.541172488589384"><ele>302.0</ele><time>2026-04-30T14:22:52.001Z</time></trkpt><trkpt lat="43.288813349975165" lon="11.541186632313236"><ele>302.0</ele><time>2026-04-30T14:22:53.001Z</time></trkpt><trkpt lat="43.288722110362876" lon="11.541213967059472"><ele>302.0</ele><time>2026-04-30T14:22:54.002Z</time></trkpt><trkpt lat="43.288627347731875" lon="11.541248604789235"><ele>302.0</ele><time>2026-04-30T14:22:55.002Z</time></trkpt><trkpt lat="43.28853396657843" lon="11.541294206253006"><ele>302.0</ele><time>2026-04-30T14:22:56.002Z</time></trkpt><trkpt lat="43.288447946179346" lon="11.541357051347592"><ele>302.0</ele><time>2026-04-30T14:22:57.002Z</time></trkpt><trkpt lat="43.288371819549056" lon="11.54143181825406"><ele>302.0</ele><time>2026-04-30T14:22:58.002Z</time></trkpt><trkpt lat="43.28830422404474" lon="11.541529979587619"><ele>302.0</ele><time>2026-04-30T14:22:59.002Z</time></trkpt><trkpt lat="43.28824092079126" lon="11.541651676331451"><ele>302.0</ele><time>2026-04-30T14:23:00.002Z</time></trkpt><trkpt lat="43.28818521865713" lon="11.541806014605694"><ele>302.0</ele><time>2026-04-30T14:23:01.002Z</time></trkpt><trkpt lat="43.28813689471274" lon="11.541939909876444"><ele>302.0</ele><time>2026-04-30T14:23:02.002Z</time></trkpt><trkpt lat="43.28808040564415" lon="11.542071608619436"><ele>302.0</ele><time>2026-04-30T14:23:03.002Z</time></trkpt><trkpt lat="43.288016549478094" lon="11.542223797498876"><ele>302.0</ele><time>2026-04-30T14:23:04.002Z</time></trkpt><trkpt lat="43.28794832136194" lon="11.542336808787619"><ele>300.4</ele><time>2026-04-30T14:23:05.002Z</time></trkpt><trkpt lat="43.287878241348125" lon="11.542435703275794"><ele>298.79999999999995</ele><time>2026-04-30T14:23:06.002Z</time></trkpt><trkpt lat="43.287822689803036" lon="11.54254886222586"><ele>297.2</ele><time>2026-04-30T14:23:07.002Z</time></trkpt><trkpt lat="43.28776806326354" lon="11.542656190533016"><ele>295.59999999999997</ele><time>2026-04-30T14:23:08.002Z</time></trkpt><trkpt lat="43.28772608152081" lon="11.542789564509473"><ele>294.0</ele><time>2026-04-30T14:23:09.002Z</time></trkpt><trkpt lat="43.28770631510671" lon="11.542931163633254"><ele>294.0</ele><time>2026-04-30T14:23:10.002Z</time></trkpt><trkpt lat="43.28766738955963" lon="11.543080881487889"><ele>294.0</ele><time>2026-04-30T14:23:11.002Z</time></trkpt><trkpt lat="43.28763318093247" lon="11.543232843899478"><ele>294.0</ele><time>2026-04-30T14:23:12.002Z</time></trkpt><trkpt lat="43.287595526080025" lon="11.543384377181807"><ele>294.0</ele><time>2026-04-30T14:23:13.002Z</time></trkpt><trkpt lat="43.28759956467497" lon="11.543568247814044"><ele>294.0</ele><time>2026-04-30T14:23:14.002Z</time></trkpt><trkpt lat="43.287622356693355" lon="11.54371183279093"><ele>294.0</ele><time>2026-04-30T14:23:15.002Z</time></trkpt><trkpt lat="43.287606337705455" lon="11.543858437576741"><ele>294.0</ele><time>2026-04-30T14:23:16.001Z</time></trkpt><trkpt lat="43.28757732259244" lon="11.54399781953853"><ele>294.0</ele><time>2026-04-30T14:23:17.001Z</time></trkpt><trkpt lat="43.28752414681117" lon="11.544154749301402"><ele>294.0</ele><time>2026-04-30T14:23:18.001Z</time></trkpt><trkpt lat="43.287468082948855" lon="11.54432243530321"><ele>295.25</ele><time>2026-04-30T14:23:19.001Z</time></trkpt><trkpt lat="43.28742057216867" lon="11.544496712795649"><ele>296.5</ele><time>2026-04-30T14:23:20.001Z</time></trkpt><trkpt lat="43.287378806814274" lon="11.54468306146762"><ele>297.75</ele><time>2026-04-30T14:23:21.001Z</time></trkpt><trkpt lat="43.28735331410183" lon="11.544852932449349"><ele>299.0</ele><time>2026-04-30T14:23:22.001Z</time></trkpt><trkpt lat="43.28734635465503" lon="11.545024643454072"><ele>299.5</ele><time>2026-04-30T14:23:23.001Z</time></trkpt><trkpt lat="43.287336399721276" lon="11.5451926089058"><ele>300.0</ele><time>2026-04-30T14:23:24.001Z</time></trkpt><trkpt lat="43.28732191725736" lon="11.545360255242864"><ele>300.5</ele><time>2026-04-30T14:23:25.001Z</time></trkpt><trkpt lat="43.28730241219104" lon="11.545507545309352"><ele>301.0</ele><time>2026-04-30T14:23:26Z</time></trkpt><trkpt lat="43.28727911052467" lon="11.545650748500856"><ele>303.2</ele><time>2026-04-30T14:23:27Z</time></trkpt><trkpt lat="43.287250780456475" lon="11.545779179577794"><ele>305.40000000000003</ele><time>2026-04-30T14:23:28Z</time></trkpt><trkpt lat="43.28722141985555" lon="11.545889212817302"><ele>307.6</ele><time>2026-04-30T14:23:29Z</time></trkpt><trkpt lat="43.28718572798813" lon="11.545980394031474"><ele>309.8</ele><time>2026-04-30T14:23:30Z</time></trkpt><trkpt lat="43.28712620123019" lon="11.546074651167693"><ele>312.0</ele><time>2026-04-30T14:23:31Z</time></trkpt><trkpt lat="43.2870266466321" lon="11.546109421892407"><ele>312.0</ele><time>2026-04-30T14:23:32Z</time></trkpt><trkpt lat="43.286919872340505" lon="11.546131818553729"><ele>312.0</ele><time>2026-04-30T14:23:33Z</time></trkpt><trkpt lat="43.28681328061873" lon="11.546119131623964"><ele>312.0</ele><time>2026-04-30T14:23:34Z</time></trkpt><trkpt lat="43.286723088373684" lon="11.546062880768279"><ele>312.0</ele><time>2026-04-30T14:23:35Z</time></trkpt><trkpt lat="43.28663697164426" lon="11.545987270150325"><ele>312.0</ele><time>2026-04-30T14:23:36Z</time></trkpt><trkpt lat="43.28654549652214" lon="11.545914190048997"><ele>312.0</ele><time>2026-04-30T14:23:37Z</time></trkpt><trkpt lat="43.28645196497235" lon="11.54585568040308"><ele>312.0</ele><time>2026-04-30T14:23:38.001Z</time></trkpt><trkpt lat="43.28635893360742" lon="11.545820239191968"><ele>312.0</ele><time>2026-04-30T14:23:39.001Z</time></trkpt><trkpt lat="43.286257641433515" lon="11.545796786819258"><ele>312.0</ele><time>2026-04-30T14:23:40.001Z</time></trkpt><trkpt lat="43.286148675232596" lon="11.545888827246763"><ele>312.0</ele><time>2026-04-30T14:23:41.001Z</time></trkpt><trkpt lat="43.28606783976681" lon="11.545950252992489"><ele>312.3333333333333</ele><time>2026-04-30T14:23:42.001Z</time></trkpt><trkpt lat="43.28599673486422" lon="11.546015752520441"><ele>312.6666666666667</ele><time>2026-04-30T14:23:43.001Z</time></trkpt><trkpt lat="43.28592028975955" lon="11.546092267273336"><ele>313.0</ele><time>2026-04-30T14:23:44.001Z</time></trkpt><trkpt lat="43.28583690125681" lon="11.546162137567345"><ele>313.33333333333337</ele><time>2026-04-30T14:23:45.001Z</time></trkpt><trkpt lat="43.28576695737875" lon="11.546234995083493"><ele>313.6666666666667</ele><time>2026-04-30T14:23:46.001Z</time></trkpt><trkpt lat="43.28569054638857" lon="11.546271903846732"><ele>314.0</ele><time>2026-04-30T14:23:47.001Z</time></trkpt><trkpt lat="43.285591144684055" lon="11.546322854848203"><ele>313.33333333333337</ele><time>2026-04-30T14:23:49.001Z</time></trkpt><trkpt lat="43.28549967629077" lon="11.546362696635024"><ele>312.6666666666667</ele><time>2026-04-30T14:23:56.001Z</time></trkpt><trkpt lat="43.28543677227854" lon="11.54638944364764"><ele>312.0</ele><time>2026-04-30T14:23:57.001Z</time></trkpt><trkpt lat="43.28537233874195" lon="11.546416840981822"><ele>311.3333333333333</ele><time>2026-04-30T14:23:58.001Z</time></trkpt><trkpt lat="43.28529653611451" lon="11.546450719349714"><ele>310.66666666666663</ele><time>2026-04-30T14:23:59.001Z</time></trkpt><trkpt lat="43.285210887077795" lon="11.54649557720508"><ele>310.0</ele><time>2026-04-30T14:24:00.001Z</time></trkpt><trkpt lat="43.285136837990166" lon="11.546539585414292"><ele>310.0</ele><time>2026-04-30T14:24:01.001Z</time></trkpt><trkpt lat="43.28506302061096" lon="11.546589463240396"><ele>310.0</ele><time>2026-04-30T14:24:02.001Z</time></trkpt><trkpt lat="43.2850162346037" lon="11.546653912343004"><ele>310.0</ele><time>2026-04-30T14:24:03.001Z</time></trkpt><trkpt lat="43.284948105986224" lon="11.546699846490085"><ele>310.0</ele><time>2026-04-30T14:24:04.001Z</time></trkpt><trkpt lat="43.28487992335012" lon="11.546793521178383"><ele>310.0</ele><time>2026-04-30T14:24:05.001Z</time></trkpt><trkpt lat="43.284806644015" lon="11.546915485012061"><ele>310.0</ele><time>2026-04-30T14:24:06.001Z</time></trkpt><trkpt lat="43.284752622825934" lon="11.54706397772091"><ele>303.75</ele><time>2026-04-30T14:24:07.001Z</time></trkpt><trkpt lat="43.28472099706732" lon="11.547232167250044"><ele>297.5</ele><time>2026-04-30T14:24:08.001Z</time></trkpt><trkpt lat="43.28470400337229" lon="11.547395826266815"><ele>291.25</ele><time>2026-04-30T14:24:09.001Z</time></trkpt><trkpt lat="43.28469449408871" lon="11.547544042814232"><ele>285.0</ele><time>2026-04-30T14:24:10.001Z</time></trkpt><trkpt lat="43.284693310342654" lon="11.547677243065872"><ele>285.0</ele><time>2026-04-30T14:24:11.001Z</time></trkpt><trkpt lat="43.284640056857675" lon="11.547820065507851"><ele>285.0</ele><time>2026-04-30T14:24:12.001Z</time></trkpt><trkpt lat="43.28458926324479" lon="11.547976199683994"><ele>285.0</ele><time>2026-04-30T14:24:13.001Z</time></trkpt><trkpt lat="43.284537200484024" lon="11.548117809708033"><ele>285.0</ele><time>2026-04-30T14:24:14.001Z</time></trkpt><trkpt lat="43.2844866318223" lon="11.548238814857864"><ele>286.6666666666667</ele><time>2026-04-30T14:24:15.001Z</time></trkpt><trkpt lat="43.284441193520394" lon="11.548341564559584"><ele>288.3333333333333</ele><time>2026-04-30T14:24:16.001Z</time></trkpt><trkpt lat="43.28440343029825" lon="11.548441277260814"><ele>290.0</ele><time>2026-04-30T14:24:17.001Z</time></trkpt><trkpt lat="43.284371566293636" lon="11.54853092024459"><ele>291.66666666666663</ele><time>2026-04-30T14:24:18.001Z</time></trkpt><trkpt lat="43.284320087050276" lon="11.548590638978188"><ele>293.3333333333333</ele><time>2026-04-30T14:24:19.001Z</time></trkpt><trkpt lat="43.2842729490176" lon="11.548662657952368"><ele>295.0</ele><time>2026-04-30T14:24:20.001Z</time></trkpt><trkpt lat="43.28421556994026" lon="11.548744197236632"><ele>295.3333333333333</ele><time>2026-04-30T14:24:21.001Z</time></trkpt><trkpt lat="43.28412254985183" lon="11.548790055997614"><ele>295.66666666666663</ele><time>2026-04-30T14:24:22.001Z</time></trkpt><trkpt lat="43.28403650084244" lon="11.548820284181469"><ele>296.0</ele><time>2026-04-30T14:24:23.001Z</time></trkpt><trkpt lat="43.28394979651067" lon="11.548802892057097"><ele>296.3333333333333</ele><time>2026-04-30T14:24:24.001Z</time></trkpt><trkpt lat="43.28385895538467" lon="11.548817948545565"><ele>296.6666666666667</ele><time>2026-04-30T14:24:25.001Z</time></trkpt><trkpt lat="43.28378924432976" lon="11.548806786021164"><ele>297.0</ele><time>2026-04-30T14:24:26.001Z</time></trkpt><trkpt lat="43.28369489972648" lon="11.548779329237949"><ele>297.4</ele><time>2026-04-30T14:24:28.001Z</time></trkpt><trkpt lat="43.28359064105127" lon="11.548754755213789"><ele>297.79999999999995</ele><time>2026-04-30T14:24:30.001Z</time></trkpt><trkpt lat="43.2834864926695" lon="11.548696685326595"><ele>298.2</ele><time>2026-04-30T14:24:32.001Z</time></trkpt><trkpt lat="43.28341665543274" lon="11.548650656950096"><ele>298.59999999999997</ele><time>2026-04-30T14:24:33.001Z</time></trkpt><trkpt lat="43.28333303015767" lon="11.548585766027701"><ele>299.0</ele><time>2026-04-30T14:24:34.001Z</time></trkpt><trkpt lat="43.283245916321675" lon="11.548517934489595"><ele>299.0</ele><time>2026-04-30T14:24:35.001Z</time></trkpt><trkpt lat="43.28315412761528" lon="11.548463363869255"><ele>299.0</ele><time>2026-04-30T14:24:36.001Z</time></trkpt><trkpt lat="43.283062103702356" lon="11.548370605849025"><ele>299.0</ele><time>2026-04-30T14:24:37.001Z</time></trkpt><trkpt lat="43.282961394550014" lon="11.548302530445186"><ele>299.0</ele><time>2026-04-30T14:24:38.001Z</time></trkpt><trkpt lat="43.28287626940284" lon="11.548241779159142"><ele>299.0</ele><time>2026-04-30T14:24:39.001Z</time></trkpt><trkpt lat="43.28278191691256" lon="11.548199499476121"><ele>299.4</ele><time>2026-04-30T14:24:40.001Z</time></trkpt><trkpt lat="43.28267123424298" lon="11.548147964421482"><ele>299.79999999999995</ele><time>2026-04-30T14:24:41.001Z</time></trkpt><trkpt lat="43.28256430722279" lon="11.548125148132522"><ele>300.20000000000005</ele><time>2026-04-30T14:24:42.001Z</time></trkpt><trkpt lat="43.28244684583594" lon="11.548113737194644"><ele>300.6</ele><time>2026-04-30T14:24:43.001Z</time></trkpt><trkpt lat="43.28234631492883" lon="11.548125514310232"><ele>301.0</ele><time>2026-04-30T14:24:44.001Z</time></trkpt><trkpt lat="43.28225613518454" lon="11.548121738043468"><ele>301.0</ele><time>2026-04-30T14:24:45.001Z</time></trkpt><trkpt lat="43.28216809358244" lon="11.548110328402956"><ele>301.0</ele><time>2026-04-30T14:24:46.001Z</time></trkpt><trkpt lat="43.28208317258965" lon="11.54811580688048"><ele>301.0</ele><time>2026-04-30T14:24:47.001Z</time></trkpt><trkpt lat="43.28200048806193" lon="11.548111725266882"><ele>301.0</ele><time>2026-04-30T14:24:48.001Z</time></trkpt><trkpt lat="43.28192080108559" lon="11.54808804135513"><ele>301.0</ele><time>2026-04-30T14:24:49.002Z</time></trkpt><trkpt lat="43.281852870557216" lon="11.548092773880013"><ele>301.0</ele><time>2026-04-30T14:24:50.002Z</time></trkpt><trkpt lat="43.28176887069475" lon="11.548112687874326"><ele>301.0</ele><time>2026-04-30T14:24:51.002Z</time></trkpt><trkpt lat="43.281677887090154" lon="11.548151555196508"><ele>301.0</ele><time>2026-04-30T14:24:52.002Z</time></trkpt><trkpt lat="43.281585571298145" lon="11.548245163334117"><ele>301.0</ele><time>2026-04-30T14:24:53.002Z</time></trkpt><trkpt lat="43.281483789066144" lon="11.548348063465893"><ele>301.0</ele><time>2026-04-30T14:24:54.002Z</time></trkpt><trkpt lat="43.28140741130714" lon="11.548438172427032"><ele>301.0</ele><time>2026-04-30T14:24:55.002Z</time></trkpt><trkpt lat="43.28132410670617" lon="11.548505916263533"><ele>297.66666666666663</ele><time>2026-04-30T14:24:56.002Z</time></trkpt><trkpt lat="43.28126654830947" lon="11.548594973130319"><ele>294.3333333333333</ele><time>2026-04-30T14:24:57.002Z</time></trkpt><trkpt lat="43.281195431843486" lon="11.548663089569533"><ele>291.0</ele><time>2026-04-30T14:24:58.002Z</time></trkpt><trkpt lat="43.281130279469075" lon="11.548714140825444"><ele>287.6666666666667</ele><time>2026-04-30T14:24:59.002Z</time></trkpt><trkpt lat="43.28108093845981" lon="11.548769167703004"><ele>284.33333333333337</ele><time>2026-04-30T14:25:00.002Z</time></trkpt><trkpt lat="43.28099223446053" lon="11.5488820182078"><ele>281.0</ele><time>2026-04-30T14:25:02.002Z</time></trkpt><trkpt lat="43.28090475670367" lon="11.54900514687128"><ele>281.0</ele><time>2026-04-30T14:25:04.002Z</time></trkpt><trkpt lat="43.28086368430662" lon="11.549078295938788"><ele>281.0</ele><time>2026-04-30T14:25:05.002Z</time></trkpt><trkpt lat="43.280821270541566" lon="11.549153327056972"><ele>281.0</ele><time>2026-04-30T14:25:06.002Z</time></trkpt><trkpt lat="43.28077762991725" lon="11.549235782302247"><ele>281.0</ele><time>2026-04-30T14:25:07.002Z</time></trkpt><trkpt lat="43.28073364644858" lon="11.549329115135427"><ele>281.0</ele><time>2026-04-30T14:25:08.002Z</time></trkpt><trkpt lat="43.28067131472402" lon="11.549411828504386"><ele>281.0</ele><time>2026-04-30T14:25:09.002Z</time></trkpt><trkpt lat="43.28060734358127" lon="11.549488971888762"><ele>279.0</ele><time>2026-04-30T14:25:10.002Z</time></trkpt><trkpt lat="43.280538598062805" lon="11.549546796200456"><ele>277.0</ele><time>2026-04-30T14:25:11.002Z</time></trkpt><trkpt lat="43.28047429007255" lon="11.549614787759864"><ele>275.0</ele><time>2026-04-30T14:25:12.002Z</time></trkpt><trkpt lat="43.28040002048694" lon="11.54965827785761"><ele>273.0</ele><time>2026-04-30T14:25:13.002Z</time></trkpt><trkpt lat="43.280322931450975" lon="11.549710384257933"><ele>271.0</ele><time>2026-04-30T14:25:14.002Z</time></trkpt><trkpt lat="43.28023212012043" lon="11.549765606072837"><ele>269.0</ele><time>2026-04-30T14:25:15.002Z</time></trkpt><trkpt lat="43.28012748422933" lon="11.549829540134928"><ele>269.0</ele><time>2026-04-30T14:25:16.002Z</time></trkpt><trkpt lat="43.28001457815573" lon="11.54988612984512"><ele>269.0</ele><time>2026-04-30T14:25:17.002Z</time></trkpt><trkpt lat="43.2799105894592" lon="11.549916322290827"><ele>269.0</ele><time>2026-04-30T14:25:18.002Z</time></trkpt><trkpt lat="43.27980026523721" lon="11.549902214055486"><ele>269.0</ele><time>2026-04-30T14:25:19.002Z</time></trkpt><trkpt lat="43.27969068397658" lon="11.549916951232607"><ele>269.0</ele><time>2026-04-30T14:25:20.002Z</time></trkpt><trkpt lat="43.27956616842369" lon="11.549893959607653"><ele>269.75</ele><time>2026-04-30T14:25:21.002Z</time></trkpt><trkpt lat="43.279432536432594" lon="11.549850865516467"><ele>270.5</ele><time>2026-04-30T14:25:22.001Z</time></trkpt><trkpt lat="43.27930819695808" lon="11.549765533520231"><ele>271.25</ele><time>2026-04-30T14:25:23.001Z</time></trkpt><trkpt lat="43.27917823935711" lon="11.549673950422347"><ele>272.0</ele><time>2026-04-30T14:25:24.001Z</time></trkpt><trkpt lat="43.27906562932107" lon="11.54959253215329"><ele>272.5</ele><time>2026-04-30T14:25:25.001Z</time></trkpt><trkpt lat="43.27896112200226" lon="11.549518335990879"><ele>273.0</ele><time>2026-04-30T14:25:26.001Z</time></trkpt><trkpt lat="43.27884372486832" lon="11.549454084208955"><ele>273.5</ele><time>2026-04-30T14:25:27.001Z</time></trkpt><trkpt lat="43.278704671516756" lon="11.54942630896504"><ele>274.0</ele><time>2026-04-30T14:25:28.001Z</time></trkpt><trkpt lat="43.27855321992628" lon="11.549414974873999"><ele>274.0</ele><time>2026-04-30T14:25:29.001Z</time></trkpt><trkpt lat="43.278424782647534" lon="11.54940908961895"><ele>274.0</ele><time>2026-04-30T14:25:30.001Z</time></trkpt><trkpt lat="43.27829836079557" lon="11.549407963242741"><ele>274.0</ele><time>2026-04-30T14:25:31.001Z</time></trkpt><trkpt lat="43.27817271332229" lon="11.549408987567624"><ele>274.0</ele><time>2026-04-30T14:25:32.001Z</time></trkpt><trkpt lat="43.278049551032126" lon="11.549415353243626"><ele>277.75</ele><time>2026-04-30T14:25:33.001Z</time></trkpt><trkpt lat="43.27793773853484" lon="11.549406039542097"><ele>281.5</ele><time>2026-04-30T14:25:34.001Z</time></trkpt><trkpt lat="43.277823130631965" lon="11.549381602190149"><ele>285.25</ele><time>2026-04-30T14:25:35.001Z</time></trkpt><trkpt lat="43.27771363877798" lon="11.549322108690417"><ele>289.0</ele><time>2026-04-30T14:25:36.001Z</time></trkpt><trkpt lat="43.277613299515615" lon="11.549207347684472"><ele>289.0</ele><time>2026-04-30T14:25:37.001Z</time></trkpt><trkpt lat="43.27749820955277" lon="11.549103677145576"><ele>289.0</ele><time>2026-04-30T14:25:38.001Z</time></trkpt><trkpt lat="43.27737676491184" lon="11.54899249954164"><ele>289.0</ele><time>2026-04-30T14:25:39.001Z</time></trkpt><trkpt lat="43.277262218712636" lon="11.548895078069565"><ele>289.0</ele><time>2026-04-30T14:25:40.001Z</time></trkpt><trkpt lat="43.277149271414345" lon="11.548796852336919"><ele>290.25</ele><time>2026-04-30T14:25:41.001Z</time></trkpt><trkpt lat="43.27703166011524" lon="11.548713453245654"><ele>291.5</ele><time>2026-04-30T14:25:42.001Z</time></trkpt><trkpt lat="43.2769314196591" lon="11.548600675882495"><ele>292.75</ele><time>2026-04-30T14:25:43.001Z</time></trkpt><trkpt lat="43.27682387828089" lon="11.548493097828006"><ele>294.0</ele><time>2026-04-30T14:25:44.001Z</time></trkpt><trkpt lat="43.27671429138987" lon="11.548392707627137"><ele>294.0</ele><time>2026-04-30T14:25:45.001Z</time></trkpt><trkpt lat="43.27660829646035" lon="11.548312311809534"><ele>294.0</ele><time>2026-04-30T14:25:46.001Z</time></trkpt><trkpt lat="43.27650150830737" lon="11.54825888512043"><ele>294.0</ele><time>2026-04-30T14:25:47.001Z</time></trkpt><trkpt lat="43.27639502980119" lon="11.548219724172059"><ele>294.0</ele><time>2026-04-30T14:25:48.001Z</time></trkpt><trkpt lat="43.27627116310946" lon="11.548183493853404"><ele>295.75</ele><time>2026-04-30T14:25:49.001Z</time></trkpt><trkpt lat="43.27615873549704" lon="11.548126802912776"><ele>297.5</ele><time>2026-04-30T14:25:50.001Z</time></trkpt><trkpt lat="43.27604692478537" lon="11.548110097434586"><ele>299.25</ele><time>2026-04-30T14:25:51.001Z</time></trkpt><trkpt lat="43.27593499034112" lon="11.548064226979548"><ele>301.0</ele><time>2026-04-30T14:25:52.001Z</time></trkpt><trkpt lat="43.27583015092855" lon="11.548007547991148"><ele>301.0</ele><time>2026-04-30T14:25:53.001Z</time></trkpt><trkpt lat="43.275731977863316" lon="11.547944960960363"><ele>301.0</ele><time>2026-04-30T14:25:54.001Z</time></trkpt><trkpt lat="43.27563452770828" lon="11.547887865027622"><ele>301.0</ele><time>2026-04-30T14:25:55.001Z</time></trkpt><trkpt lat="43.275544035048625" lon="11.547824164823375"><ele>301.0</ele><time>2026-04-30T14:25:56.001Z</time></trkpt><trkpt lat="43.275453644151945" lon="11.54774851252469"><ele>301.0</ele><time>2026-04-30T14:25:57.001Z</time></trkpt><trkpt lat="43.27535914181229" lon="11.547666480339242"><ele>298.0</ele><time>2026-04-30T14:25:58.001Z</time></trkpt><trkpt lat="43.27527137347767" lon="11.54758670742146"><ele>295.0</ele><time>2026-04-30T14:25:59.001Z</time></trkpt><trkpt lat="43.2751900174053" lon="11.547523648561631"><ele>292.0</ele><time>2026-04-30T14:26:00.001Z</time></trkpt><trkpt lat="43.27511221741472" lon="11.54746201606904"><ele>289.0</ele><time>2026-04-30T14:26:01.001Z</time></trkpt><trkpt lat="43.27504518781366" lon="11.547404131348047"><ele>286.0</ele><time>2026-04-30T14:26:02.001Z</time></trkpt><trkpt lat="43.27497317336475" lon="11.54734037324359"><ele>286.0</ele><time>2026-04-30T14:26:03.001Z</time></trkpt><trkpt lat="43.27489660216933" lon="11.547278643051918"><ele>286.0</ele><time>2026-04-30T14:26:04.001Z</time></trkpt><trkpt lat="43.27482506564751" lon="11.547222691866027"><ele>286.0</ele><time>2026-04-30T14:26:05.001Z</time></trkpt><trkpt lat="43.274766743024905" lon="11.547173970512466"><ele>286.0</ele><time>2026-04-30T14:26:06.001Z</time></trkpt><trkpt lat="43.27470815647611" lon="11.547127435121865"><ele>286.0</ele><time>2026-04-30T14:26:07.001Z</time></trkpt><trkpt lat="43.27464160479566" lon="11.547079914493763"><ele>286.0</ele><time>2026-04-30T14:26:08.001Z</time></trkpt><trkpt lat="43.27456520768459" lon="11.5470516364246"><ele>284.6</ele><time>2026-04-30T14:26:09.001Z</time></trkpt><trkpt lat="43.2744731594701" lon="11.547047126543864"><ele>283.20000000000005</ele><time>2026-04-30T14:26:10.001Z</time></trkpt><trkpt lat="43.27437499059731" lon="11.547045911040025"><ele>281.79999999999995</ele><time>2026-04-30T14:26:11.001Z</time></trkpt><trkpt lat="43.274276228432065" lon="11.54707195867959"><ele>280.4</ele><time>2026-04-30T14:26:12.001Z</time></trkpt><trkpt lat="43.27418878579878" lon="11.547088011496966"><ele>279.0</ele><time>2026-04-30T14:26:13.001Z</time></trkpt><trkpt lat="43.2740946079552" lon="11.547086111529188"><ele>279.0</ele><time>2026-04-30T14:26:14.001Z</time></trkpt><trkpt lat="43.27399728650062" lon="11.547075279818392"><ele>279.0</ele><time>2026-04-30T14:26:15.001Z</time></trkpt><trkpt lat="43.2739067091799" lon="11.547070790865293"><ele>279.0</ele><time>2026-04-30T14:26:16.001Z</time></trkpt><trkpt lat="43.273812270084726" lon="11.547064704065056"><ele>279.0</ele><time>2026-04-30T14:26:17.001Z</time></trkpt><trkpt lat="43.27371797013815" lon="11.547035072829729"><ele>279.0</ele><time>2026-04-30T14:26:18.001Z</time></trkpt><trkpt lat="43.273615896712265" lon="11.546969632597484"><ele>274.5</ele><time>2026-04-30T14:26:19.001Z</time></trkpt><trkpt lat="43.27351946788461" lon="11.546851666717114"><ele>270.0</ele><time>2026-04-30T14:26:20.001Z</time></trkpt><trkpt lat="43.27343729973604" lon="11.546716830361248"><ele>265.5</ele><time>2026-04-30T14:26:21.001Z</time></trkpt><trkpt lat="43.2733678025712" lon="11.54654480661442"><ele>261.0</ele><time>2026-04-30T14:26:22.001Z</time></trkpt><trkpt lat="43.27328671544459" lon="11.546339582092687"><ele>258.0</ele><time>2026-04-30T14:26:23.001Z</time></trkpt><trkpt lat="43.273246389063" lon="11.546122093697505"><ele>255.0</ele><time>2026-04-30T14:26:24.001Z</time></trkpt><trkpt lat="43.273206575582186" lon="11.545915426819985"><ele>252.0</ele><time>2026-04-30T14:26:25.001Z</time></trkpt><trkpt lat="43.27317921978995" lon="11.545714811071642"><ele>252.0</ele><time>2026-04-30T14:26:26.001Z</time></trkpt><trkpt lat="43.27316607574741" lon="11.545533575044615"><ele>252.0</ele><time>2026-04-30T14:26:27.001Z</time></trkpt><trkpt lat="43.273168309179745" lon="11.545353156450153"><ele>252.0</ele><time>2026-04-30T14:26:28.001Z</time></trkpt><trkpt lat="43.27317965373619" lon="11.545183871158034"><ele>252.0</ele><time>2026-04-30T14:26:29.001Z</time></trkpt><trkpt lat="43.27318155572546" lon="11.545044855910495"><ele>250.83333333333334</ele><time>2026-04-30T14:26:30.001Z</time></trkpt><trkpt lat="43.27318144470069" lon="11.544923004004778"><ele>249.66666666666669</ele><time>2026-04-30T14:26:31.001Z</time></trkpt><trkpt lat="43.273185066373486" lon="11.544811959744363"><ele>248.5</ele><time>2026-04-30T14:26:32.001Z</time></trkpt><trkpt lat="43.27319464563466" lon="11.544700611533766"><ele>247.33333333333334</ele><time>2026-04-30T14:26:33.001Z</time></trkpt><trkpt lat="43.273213492022876" lon="11.544584283394752"><ele>246.16666666666669</ele><time>2026-04-30T14:26:34.001Z</time></trkpt><trkpt lat="43.27322629015345" lon="11.544468519334423"><ele>245.0</ele><time>2026-04-30T14:26:35.001Z</time></trkpt><trkpt lat="43.27323740170425" lon="11.5443581898939"><ele>244.16666666666669</ele><time>2026-04-30T14:26:36.001Z</time></trkpt><trkpt lat="43.27328677731043" lon="11.544259465615026"><ele>243.33333333333334</ele><time>2026-04-30T14:26:37.001Z</time></trkpt><trkpt lat="43.27334292710735" lon="11.544161444315732"><ele>242.5</ele><time>2026-04-30T14:26:38.001Z</time></trkpt><trkpt lat="43.273408029125534" lon="11.544074333915203"><ele>241.66666666666669</ele><time>2026-04-30T14:26:39.001Z</time></trkpt><trkpt lat="43.27347436556233" lon="11.543992398520832"><ele>240.83333333333334</ele><time>2026-04-30T14:26:40.001Z</time></trkpt><trkpt lat="43.273537980071104" lon="11.543905693290988"><ele>240.0</ele><time>2026-04-30T14:26:41.001Z</time></trkpt><trkpt lat="43.27359116505516" lon="11.54380721884009"><ele>238.66666666666666</ele><time>2026-04-30T14:26:42.001Z</time></trkpt><trkpt lat="43.27362736835929" lon="11.543713383712944"><ele>237.33333333333331</ele><time>2026-04-30T14:26:43.001Z</time></trkpt><trkpt lat="43.273656232443585" lon="11.543620759220074"><ele>236.0</ele><time>2026-04-30T14:26:44.001Z</time></trkpt><trkpt lat="43.27367062627093" lon="11.543515004215589"><ele>234.66666666666666</ele><time>2026-04-30T14:26:45.001Z</time></trkpt><trkpt lat="43.27365403983541" lon="11.543413534734805"><ele>233.33333333333331</ele><time>2026-04-30T14:26:46.001Z</time></trkpt><trkpt lat="43.273618825606796" lon="11.5433158572563"><ele>232.0</ele><time>2026-04-30T14:26:47.001Z</time></trkpt><trkpt lat="43.273564702353625" lon="11.54323760009035"><ele>231.99999999999997</ele><time>2026-04-30T14:26:48.001Z</time></trkpt><trkpt lat="43.27350004799941" lon="11.543173457576243"><ele>232.0</ele><time>2026-04-30T14:26:49.001Z</time></trkpt><trkpt lat="43.273430343704796" lon="11.543108581918336"><ele>232.0</ele><time>2026-04-30T14:26:50.001Z</time></trkpt><trkpt lat="43.27337286596918" lon="11.543051043816686"><ele>232.0</ele><time>2026-04-30T14:26:51.001Z</time></trkpt><trkpt lat="43.27331200587908" lon="11.542987420951404"><ele>231.99999999999997</ele><time>2026-04-30T14:26:52.001Z</time></trkpt><trkpt lat="43.27323964859115" lon="11.542940807468991"><ele>232.0</ele><time>2026-04-30T14:26:53.001Z</time></trkpt><trkpt lat="43.27316322749936" lon="11.542899530289723"><ele>229.99999999999997</ele><time>2026-04-30T14:26:54.002Z</time></trkpt><trkpt lat="43.27307606612542" lon="11.542875600265425"><ele>228.0</ele><time>2026-04-30T14:26:55.002Z</time></trkpt><trkpt lat="43.273004407774124" lon="11.542877392927947"><ele>226.0</ele><time>2026-04-30T14:26:56.002Z</time></trkpt><trkpt lat="43.27293268508078" lon="11.542882300715647"><ele>224.0</ele><time>2026-04-30T14:26:57.002Z</time></trkpt><trkpt lat="43.27286988255704" lon="11.54290204774147"><ele>221.99999999999997</ele><time>2026-04-30T14:26:58.002Z</time></trkpt><trkpt lat="43.2727528751414" lon="11.542909270256319"><ele>220.0</ele><time>2026-04-30T14:27:00.002Z</time></trkpt><trkpt lat="43.27269814267883" lon="11.54285760421468"><ele>218.2</ele><time>2026-04-30T14:27:01.002Z</time></trkpt><trkpt lat="43.2726474663455" lon="11.542768308187084"><ele>216.4</ele><time>2026-04-30T14:27:02.002Z</time></trkpt><trkpt lat="43.27261026411922" lon="11.542608708868741"><ele>214.60000000000002</ele><time>2026-04-30T14:27:03.002Z</time></trkpt><trkpt lat="43.27256975245474" lon="11.542458912850671"><ele>212.8</ele><time>2026-04-30T14:27:04.002Z</time></trkpt><trkpt lat="43.27255449887079" lon="11.542316551323916"><ele>211.0</ele><time>2026-04-30T14:27:05.002Z</time></trkpt><trkpt lat="43.272538018651524" lon="11.542182915031265"><ele>209.0</ele><time>2026-04-30T14:27:06.002Z</time></trkpt><trkpt lat="43.2725234392505" lon="11.542031565475936"><ele>207.0</ele><time>2026-04-30T14:27:07.002Z</time></trkpt><trkpt lat="43.27251033056236" lon="11.541870278153421"><ele>205.0</ele><time>2026-04-30T14:27:08.002Z</time></trkpt><trkpt lat="43.272497383354185" lon="11.541712494633693"><ele>203.0</ele><time>2026-04-30T14:27:09.002Z</time></trkpt><trkpt lat="43.272480293488606" lon="11.541556048792089"><ele>203.0</ele><time>2026-04-30T14:27:10.002Z</time></trkpt><trkpt lat="43.272448593617206" lon="11.541399064616654"><ele>203.0</ele><time>2026-04-30T14:27:11.002Z</time></trkpt><trkpt lat="43.27240897322353" lon="11.541244123524185"><ele>203.0</ele><time>2026-04-30T14:27:12.002Z</time></trkpt><trkpt lat="43.27236687140019" lon="11.541086601747867"><ele>203.0</ele><time>2026-04-30T14:27:13.002Z</time></trkpt><trkpt lat="43.27231387803112" lon="11.540937932085784"><ele>200.60000000000002</ele><time>2026-04-30T14:27:14.002Z</time></trkpt><trkpt lat="43.27225964054108" lon="11.540806341507826"><ele>198.20000000000002</ele><time>2026-04-30T14:27:15.002Z</time></trkpt><trkpt lat="43.27220938647534" lon="11.540673044968992"><ele>195.8</ele><time>2026-04-30T14:27:16.002Z</time></trkpt><trkpt lat="43.27216445161416" lon="11.540546634115792"><ele>193.4</ele><time>2026-04-30T14:27:17.002Z</time></trkpt><trkpt lat="43.27211590296941" lon="11.54042664533379"><ele>191.0</ele><time>2026-04-30T14:27:18.002Z</time></trkpt><trkpt lat="43.27206964166382" lon="11.540307828346702"><ele>190.60000000000002</ele><time>2026-04-30T14:27:19.002Z</time></trkpt><trkpt lat="43.2720314467218" lon="11.540205653952711"><ele>190.2</ele><time>2026-04-30T14:27:20.002Z</time></trkpt><trkpt lat="43.27198700227758" lon="11.54010689290863"><ele>189.8</ele><time>2026-04-30T14:27:21.002Z</time></trkpt><trkpt lat="43.27194376320812" lon="11.540003124808889"><ele>189.39999999999998</ele><time>2026-04-30T14:27:22.002Z</time></trkpt><trkpt lat="43.271892095955494" lon="11.539885312982115"><ele>189.0</ele><time>2026-04-30T14:27:23.002Z</time></trkpt><trkpt lat="43.27184334805025" lon="11.539763868034823"><ele>189.0</ele><time>2026-04-30T14:27:24.002Z</time></trkpt><trkpt lat="43.271794223463154" lon="11.539632329715896"><ele>189.0</ele><time>2026-04-30T14:27:25.002Z</time></trkpt><trkpt lat="43.27173821784898" lon="11.539501473940073"><ele>189.0</ele><time>2026-04-30T14:27:26.002Z</time></trkpt><trkpt lat="43.2716843727389" lon="11.53937406179633"><ele>189.0</ele><time>2026-04-30T14:27:27.002Z</time></trkpt><trkpt lat="43.27163618359605" lon="11.539235228554537"><ele>189.0</ele><time>2026-04-30T14:27:28.001Z</time></trkpt><trkpt lat="43.27158015479223" lon="11.539096825813672"><ele>188.6</ele><time>2026-04-30T14:27:29.001Z</time></trkpt><trkpt lat="43.27153046860654" lon="11.538968238579297"><ele>188.2</ele><time>2026-04-30T14:27:30.001Z</time></trkpt><trkpt lat="43.27147788521663" lon="11.53883807864457"><ele>187.79999999999998</ele><time>2026-04-30T14:27:31.001Z</time></trkpt><trkpt lat="43.27141854333631" lon="11.538712053191638"><ele>187.39999999999998</ele><time>2026-04-30T14:27:32.001Z</time></trkpt><trkpt lat="43.27136244459947" lon="11.538597058315785"><ele>187.0</ele><time>2026-04-30T14:27:33.001Z</time></trkpt><trkpt lat="43.27131523444466" lon="11.538476878254754"><ele>186.2</ele><time>2026-04-30T14:27:34.001Z</time></trkpt><trkpt lat="43.271268053632824" lon="11.538348503377906"><ele>185.39999999999998</ele><time>2026-04-30T14:27:35.001Z</time></trkpt><trkpt lat="43.27120910968759" lon="11.538229576439203"><ele>184.60000000000002</ele><time>2026-04-30T14:27:36.001Z</time></trkpt><trkpt lat="43.27113616148258" lon="11.538115216426451"><ele>183.8</ele><time>2026-04-30T14:27:37.001Z</time></trkpt><trkpt lat="43.27105910362672" lon="11.538007572450207"><ele>183.0</ele><time>2026-04-30T14:27:38.001Z</time></trkpt><trkpt lat="43.27097381252156" lon="11.537920339362747"><ele>183.5</ele><time>2026-04-30T14:27:39.001Z</time></trkpt><trkpt lat="43.2708539817431" lon="11.537837049953847"><ele>184.0</ele><time>2026-04-30T14:27:40.001Z</time></trkpt><trkpt lat="43.27075679352181" lon="11.537771179753358"><ele>184.5</ele><time>2026-04-30T14:27:41.001Z</time></trkpt><trkpt lat="43.27065823324414" lon="11.537714274992004"><ele>185.0</ele><time>2026-04-30T14:27:42.001Z</time></trkpt><trkpt lat="43.27055082474196" lon="11.537680418749824"><ele>186.25</ele><time>2026-04-30T14:27:43.001Z</time></trkpt><trkpt lat="43.27040530860149" lon="11.537660646284785"><ele>187.5</ele><time>2026-04-30T14:27:44.001Z</time></trkpt><trkpt lat="43.27029058522141" lon="11.537612482443832"><ele>188.75</ele><time>2026-04-30T14:27:45.001Z</time></trkpt><trkpt lat="43.270179487486715" lon="11.537558497539248"><ele>190.0</ele><time>2026-04-30T14:27:46.001Z</time></trkpt><trkpt lat="43.270067635463576" lon="11.537537434647774"><ele>190.0</ele><time>2026-04-30T14:27:47.001Z</time></trkpt><trkpt lat="43.269946283346954" lon="11.53755432566071"><ele>190.0</ele><time>2026-04-30T14:27:48.001Z</time></trkpt><trkpt lat="43.26980514753277" lon="11.537624657134154"><ele>190.0</ele><time>2026-04-30T14:27:49.001Z</time></trkpt><trkpt lat="43.26966206850794" lon="11.537713500358663"><ele>190.0</ele><time>2026-04-30T14:27:50.001Z</time></trkpt><trkpt lat="43.26951355901745" lon="11.53774999030132"><ele>193.25</ele><time>2026-04-30T14:27:51.001Z</time></trkpt><trkpt lat="43.26937357118706" lon="11.537786469133192"><ele>196.5</ele><time>2026-04-30T14:27:52.001Z</time></trkpt><trkpt lat="43.26922948392109" lon="11.537793544802371"><ele>199.75</ele><time>2026-04-30T14:27:53.001Z</time></trkpt><trkpt lat="43.26911721783487" lon="11.537782859295993"><ele>203.0</ele><time>2026-04-30T14:27:54.001Z</time></trkpt><trkpt lat="43.26901029086414" lon="11.537742224743894"><ele>206.5</ele><time>2026-04-30T14:27:55.001Z</time></trkpt><trkpt lat="43.26890485242429" lon="11.537695342634017"><ele>210.0</ele><time>2026-04-30T14:27:56.001Z</time></trkpt><trkpt lat="43.268793499910046" lon="11.53766705561382"><ele>213.5</ele><time>2026-04-30T14:27:57.001Z</time></trkpt><trkpt lat="43.26867214169171" lon="11.537668390105567"><ele>217.0</ele><time>2026-04-30T14:27:58.001Z</time></trkpt><trkpt lat="43.26854169423184" lon="11.537735266323072"><ele>217.0</ele><time>2026-04-30T14:27:59.001Z</time></trkpt><trkpt lat="43.26841310698658" lon="11.537823453261277"><ele>217.0</ele><time>2026-04-30T14:28:00.001Z</time></trkpt><trkpt lat="43.26828576364181" lon="11.53792544956463"><ele>217.0</ele><time>2026-04-30T14:28:01.001Z</time></trkpt><trkpt lat="43.26814948077854" lon="11.53802942901868"><ele>217.0</ele><time>2026-04-30T14:28:02.001Z</time></trkpt><trkpt lat="43.268037632041896" lon="11.538103367629642"><ele>220.2</ele><time>2026-04-30T14:28:03.001Z</time></trkpt><trkpt lat="43.2679606554253" lon="11.538167848350291"><ele>223.39999999999998</ele><time>2026-04-30T14:28:04.001Z</time></trkpt><trkpt lat="43.26788165591955" lon="11.538222569947397"><ele>226.60000000000002</ele><time>2026-04-30T14:28:05.001Z</time></trkpt><trkpt lat="43.26779005676787" lon="11.538290948498023"><ele>229.8</ele><time>2026-04-30T14:28:06.001Z</time></trkpt><trkpt lat="43.26769873730079" lon="11.538355126957573"><ele>233.0</ele><time>2026-04-30T14:28:07.001Z</time></trkpt><trkpt lat="43.26761778487793" lon="11.538413308573054"><ele>233.0</ele><time>2026-04-30T14:28:08.001Z</time></trkpt><trkpt lat="43.26753248759252" lon="11.538479704353827"><ele>233.0</ele><time>2026-04-30T14:28:09.001Z</time></trkpt><trkpt lat="43.26745081271436" lon="11.538522265156228"><ele>233.0</ele><time>2026-04-30T14:28:10.001Z</time></trkpt><trkpt lat="43.26736932950251" lon="11.538571231882466"><ele>233.0</ele><time>2026-04-30T14:28:11.001Z</time></trkpt><trkpt lat="43.2672824756751" lon="11.538632354246309"><ele>233.0</ele><time>2026-04-30T14:28:12.001Z</time></trkpt><trkpt lat="43.267194803475014" lon="11.538695929286837"><ele>234.0</ele><time>2026-04-30T14:28:13.001Z</time></trkpt><trkpt lat="43.267106273765016" lon="11.538756088379616"><ele>235.0</ele><time>2026-04-30T14:28:14.001Z</time></trkpt><trkpt lat="43.2670128027025" lon="11.538820977160327"><ele>236.0</ele><time>2026-04-30T14:28:15.001Z</time></trkpt><trkpt lat="43.26692514067866" lon="11.538864882808351"><ele>237.0</ele><time>2026-04-30T14:28:16.001Z</time></trkpt><trkpt lat="43.26683411577385" lon="11.538916347027342"><ele>238.0</ele><time>2026-04-30T14:28:17.001Z</time></trkpt><trkpt lat="43.26674364990177" lon="11.538951866619302"><ele>238.0</ele><time>2026-04-30T14:28:18.001Z</time></trkpt><trkpt lat="43.266659375103735" lon="11.538992863176304"><ele>238.0</ele><time>2026-04-30T14:28:19.001Z</time></trkpt><trkpt lat="43.26658578860532" lon="11.539043275854265"><ele>238.0</ele><time>2026-04-30T14:28:20.001Z</time></trkpt><trkpt lat="43.26651194472158" lon="11.53910751971195"><ele>238.0</ele><time>2026-04-30T14:28:21.001Z</time></trkpt><trkpt lat="43.26644172352755" lon="11.539201970505628"><ele>238.0</ele><time>2026-04-30T14:28:22.001Z</time></trkpt><trkpt lat="43.2663713674938" lon="11.539327893047247"><ele>240.25</ele><time>2026-04-30T14:28:23.001Z</time></trkpt><trkpt lat="43.2663142112368" lon="11.539467243161432"><ele>242.5</ele><time>2026-04-30T14:28:24.001Z</time></trkpt><trkpt lat="43.26624831369831" lon="11.539599776934503"><ele>244.75</ele><time>2026-04-30T14:28:25.001Z</time></trkpt><trkpt lat="43.26617412208966" lon="11.539705501070648"><ele>247.0</ele><time>2026-04-30T14:28:26.001Z</time></trkpt><trkpt lat="43.26609883941922" lon="11.539817562300035"><ele>247.0</ele><time>2026-04-30T14:28:27.001Z</time></trkpt><trkpt lat="43.26603557293318" lon="11.539930112567106"><ele>247.0</ele><time>2026-04-30T14:28:28.001Z</time></trkpt><trkpt lat="43.265957851469146" lon="11.540031683394075"><ele>247.0</ele><time>2026-04-30T14:28:29.001Z</time></trkpt><trkpt lat="43.26589667401408" lon="11.54012704338345"><ele>247.0</ele><time>2026-04-30T14:28:30.001Z</time></trkpt><trkpt lat="43.26582384045331" lon="11.540221057429482"><ele>247.0</ele><time>2026-04-30T14:28:31.001Z</time></trkpt><trkpt lat="43.26576940374492" lon="11.540296460635778"><ele>246.99999999999997</ele><time>2026-04-30T14:28:32.001Z</time></trkpt><trkpt lat="43.2657192441003" lon="11.540376302630197"><ele>247.0</ele><time>2026-04-30T14:28:33.001Z</time></trkpt><trkpt lat="43.265663169418104" lon="11.54045440088315"><ele>247.0</ele><time>2026-04-30T14:28:34.001Z</time></trkpt><trkpt lat="43.26560727918242" lon="11.540533747076191"><ele>247.0</ele><time>2026-04-30T14:28:35.001Z</time></trkpt><trkpt lat="43.26556350030696" lon="11.540631290234964"><ele>246.99999999999997</ele><time>2026-04-30T14:28:36.001Z</time></trkpt><trkpt lat="43.265534693995974" lon="11.540753437460983"><ele>247.0</ele><time>2026-04-30T14:28:37.001Z</time></trkpt><trkpt lat="43.265527277077524" lon="11.540917608213283"><ele>244.75</ele><time>2026-04-30T14:28:38.001Z</time></trkpt><trkpt lat="43.265519615208866" lon="11.541094673157904"><ele>242.5</ele><time>2026-04-30T14:28:39.001Z</time></trkpt><trkpt lat="43.26550982283723" lon="11.541275114733706"><ele>240.25</ele><time>2026-04-30T14:28:40.001Z</time></trkpt><trkpt lat="43.265494191498355" lon="11.541454504898288"><ele>238.0</ele><time>2026-04-30T14:28:41.001Z</time></trkpt><trkpt lat="43.26546491817593" lon="11.541626391783021"><ele>237.75</ele><time>2026-04-30T14:28:42.001Z</time></trkpt><trkpt lat="43.265406565970174" lon="11.541805500924976"><ele>237.5</ele><time>2026-04-30T14:28:43.001Z</time></trkpt><trkpt lat="43.2653553213731" lon="11.541979897622149"><ele>237.25</ele><time>2026-04-30T14:28:44.001Z</time></trkpt><trkpt lat="43.26531468054493" lon="11.54214412984418"><ele>237.0</ele><time>2026-04-30T14:28:45.001Z</time></trkpt><trkpt lat="43.26525511802422" lon="11.542302657838649"><ele>237.0</ele><time>2026-04-30T14:28:46.001Z</time></trkpt><trkpt lat="43.26520809100709" lon="11.542468467191625"><ele>237.0</ele><time>2026-04-30T14:28:47.001Z</time></trkpt><trkpt lat="43.26519151830499" lon="11.542659633761366"><ele>237.0</ele><time>2026-04-30T14:28:48.001Z</time></trkpt><trkpt lat="43.26519605664878" lon="11.542864943329269"><ele>237.0</ele><time>2026-04-30T14:28:49.001Z</time></trkpt><trkpt lat="43.26520145190716" lon="11.543066973635623"><ele>238.75</ele><time>2026-04-30T14:28:50.001Z</time></trkpt><trkpt lat="43.26521595720941" lon="11.543248141906721"><ele>240.5</ele><time>2026-04-30T14:28:51.001Z</time></trkpt><trkpt lat="43.26519917981581" lon="11.543427102414014"><ele>242.25</ele><time>2026-04-30T14:28:52.001Z</time></trkpt><trkpt lat="43.26514999835808" lon="11.543609421113393"><ele>244.0</ele><time>2026-04-30T14:28:53.001Z</time></trkpt><trkpt lat="43.26508765924685" lon="11.543793129623246"><ele>246.25</ele><time>2026-04-30T14:28:54.001Z</time></trkpt><trkpt lat="43.265027814991086" lon="11.543991845040182"><ele>248.5</ele><time>2026-04-30T14:28:55.001Z</time></trkpt><trkpt lat="43.264938032322775" lon="11.544150945937709"><ele>250.75</ele><time>2026-04-30T14:28:56.001Z</time></trkpt><trkpt lat="43.26485748534739" lon="11.544293527416235"><ele>253.0</ele><time>2026-04-30T14:28:57.001Z</time></trkpt><trkpt lat="43.2647849037028" lon="11.544439961046344"><ele>259.0</ele><time>2026-04-30T14:28:58.001Z</time></trkpt><trkpt lat="43.26470828994223" lon="11.544568427984201"><ele>265.0</ele><time>2026-04-30T14:28:59.001Z</time></trkpt><trkpt lat="43.26466341524636" lon="11.544714685090739"><ele>271.0</ele><time>2026-04-30T14:29:00.001Z</time></trkpt><trkpt lat="43.26463748471351" lon="11.544895247127641"><ele>277.0</ele><time>2026-04-30T14:29:01.001Z</time></trkpt><trkpt lat="43.26461725701647" lon="11.545080020705846"><ele>277.0</ele><time>2026-04-30T14:29:02.001Z</time></trkpt><trkpt lat="43.264596079712526" lon="11.545229468872126"><ele>277.0</ele><time>2026-04-30T14:29:03.001Z</time></trkpt><trkpt lat="43.26456923761368" lon="11.54536857860195"><ele>277.0</ele><time>2026-04-30T14:29:04.001Z</time></trkpt><trkpt lat="43.264550460495855" lon="11.5455263478024"><ele>277.0</ele><time>2026-04-30T14:29:05.001Z</time></trkpt><trkpt lat="43.264512062699794" lon="11.545675915982164"><ele>277.0</ele><time>2026-04-30T14:29:06.001Z</time></trkpt><trkpt lat="43.26448384351409" lon="11.545826361718765"><ele>276.8</ele><time>2026-04-30T14:29:07.001Z</time></trkpt><trkpt lat="43.26445132803059" lon="11.54597261077906"><ele>276.6</ele><time>2026-04-30T14:29:08.001Z</time></trkpt><trkpt lat="43.26440746652642" lon="11.546106002557122"><ele>276.40000000000003</ele><time>2026-04-30T14:29:09.001Z</time></trkpt><trkpt lat="43.26435380995175" lon="11.546238153277738"><ele>276.2</ele><time>2026-04-30T14:29:10.001Z</time></trkpt><trkpt lat="43.26429817195827" lon="11.546370053574787"><ele>276.0</ele><time>2026-04-30T14:29:11.001Z</time></trkpt><trkpt lat="43.264217066462244" lon="11.54648373046444"><ele>275.75</ele><time>2026-04-30T14:29:12.001Z</time></trkpt><trkpt lat="43.26410987583259" lon="11.546578271247666"><ele>275.5</ele><time>2026-04-30T14:29:13.001Z</time></trkpt><trkpt lat="43.26400525806884" lon="11.546687003876476"><ele>275.25</ele><time>2026-04-30T14:29:14.001Z</time></trkpt><trkpt lat="43.263902757482896" lon="11.54678378775393"><ele>275.0</ele><time>2026-04-30T14:29:15.001Z</time></trkpt><trkpt lat="43.263799410743616" lon="11.546879327082271"><ele>275.0</ele><time>2026-04-30T14:29:16.001Z</time></trkpt><trkpt lat="43.26369884459515" lon="11.546972296012937"><ele>275.0</ele><time>2026-04-30T14:29:17.001Z</time></trkpt><trkpt lat="43.263602349171215" lon="11.547059746302292"><ele>275.0</ele><time>2026-04-30T14:29:18.002Z</time></trkpt><trkpt lat="43.26352555659586" lon="11.547143404154683"><ele>275.0</ele><time>2026-04-30T14:29:19.002Z</time></trkpt><trkpt lat="43.263459181604816" lon="11.54722160952424"><ele>275.0</ele><time>2026-04-30T14:29:20.002Z</time></trkpt><trkpt lat="43.263394678276846" lon="11.547294163666985"><ele>272.8</ele><time>2026-04-30T14:29:21.002Z</time></trkpt><trkpt lat="43.26332657918319" lon="11.547380452050449"><ele>270.6</ele><time>2026-04-30T14:29:22.002Z</time></trkpt><trkpt lat="43.26325913709051" lon="11.547485007392932"><ele>268.4</ele><time>2026-04-30T14:29:23.002Z</time></trkpt><trkpt lat="43.26320744399274" lon="11.547590833566648"><ele>266.2</ele><time>2026-04-30T14:29:24.002Z</time></trkpt><trkpt lat="43.26314285453666" lon="11.547695663802553"><ele>264.0</ele><time>2026-04-30T14:29:25.002Z</time></trkpt><trkpt lat="43.263096191790446" lon="11.547813693701263"><ele>262.0</ele><time>2026-04-30T14:29:26.002Z</time></trkpt><trkpt lat="43.26305158706872" lon="11.547937150248954"><ele>260.0</ele><time>2026-04-30T14:29:27.002Z</time></trkpt><trkpt lat="43.26300672689775" lon="11.548067011903738"><ele>258.0</ele><time>2026-04-30T14:29:28.002Z</time></trkpt><trkpt lat="43.26296419310957" lon="11.548204471868063"><ele>256.0</ele><time>2026-04-30T14:29:29.002Z</time></trkpt><trkpt lat="43.262882240232635" lon="11.548321617205316"><ele>254.0</ele><time>2026-04-30T14:29:30.002Z</time></trkpt><trkpt lat="43.26280419843643" lon="11.548452595819219"><ele>254.0</ele><time>2026-04-30T14:29:31.002Z</time></trkpt><trkpt lat="43.26274026351284" lon="11.548596924212596"><ele>254.0</ele><time>2026-04-30T14:29:32.002Z</time></trkpt><trkpt lat="43.26267143051969" lon="11.548732788063338"><ele>254.0</ele><time>2026-04-30T14:29:33.002Z</time></trkpt><trkpt lat="43.26260632949834" lon="11.548859550651459"><ele>254.0</ele><time>2026-04-30T14:29:34.001Z</time></trkpt><trkpt lat="43.26253851487101" lon="11.548994606268305"><ele>252.0</ele><time>2026-04-30T14:29:35.001Z</time></trkpt><trkpt lat="43.262448423639405" lon="11.549107278684462"><ele>250.0</ele><time>2026-04-30T14:29:36.001Z</time></trkpt><trkpt lat="43.262364096121445" lon="11.549244127895397"><ele>248.0</ele><time>2026-04-30T14:29:37.001Z</time></trkpt><trkpt lat="43.2622578709113" lon="11.549353374361194"><ele>246.0</ele><time>2026-04-30T14:29:38.001Z</time></trkpt><trkpt lat="43.26217273576219" lon="11.549486131417254"><ele>243.25</ele><time>2026-04-30T14:29:39.001Z</time></trkpt><trkpt lat="43.262075654190184" lon="11.549579389998154"><ele>240.5</ele><time>2026-04-30T14:29:40.001Z</time></trkpt><trkpt lat="43.26197559045157" lon="11.549693043597903"><ele>237.75</ele><time>2026-04-30T14:29:41.001Z</time></trkpt><trkpt lat="43.26185202706458" lon="11.549772657227722"><ele>235.0</ele><time>2026-04-30T14:29:42.001Z</time></trkpt><trkpt lat="43.26173837478818" lon="11.549868344083949"><ele>235.0</ele><time>2026-04-30T14:29:43.001Z</time></trkpt><trkpt lat="43.26159862786916" lon="11.549929014383132"><ele>235.0</ele><time>2026-04-30T14:29:44.001Z</time></trkpt><trkpt lat="43.261444681552234" lon="11.54996075429386"><ele>235.0</ele><time>2026-04-30T14:29:45.001Z</time></trkpt><trkpt lat="43.26129468965152" lon="11.54996691102783"><ele>234.5</ele><time>2026-04-30T14:29:46.001Z</time></trkpt><trkpt lat="43.26116317307119" lon="11.549954345705707"><ele>234.0</ele><time>2026-04-30T14:29:47.001Z</time></trkpt><trkpt lat="43.261023461574" lon="11.549924222782327"><ele>233.5</ele><time>2026-04-30T14:29:48.001Z</time></trkpt><trkpt lat="43.26088720656831" lon="11.549899496864281"><ele>233.0</ele><time>2026-04-30T14:29:49.001Z</time></trkpt><trkpt lat="43.26074185841603" lon="11.549914019559179"><ele>235.0</ele><time>2026-04-30T14:29:50.001Z</time></trkpt><trkpt lat="43.26059781737857" lon="11.549965884637757"><ele>237.0</ele><time>2026-04-30T14:29:51.001Z</time></trkpt><trkpt lat="43.260467619949814" lon="11.55004443380489"><ele>239.0</ele><time>2026-04-30T14:29:52.001Z</time></trkpt><trkpt lat="43.26035041208052" lon="11.550142055728955"><ele>241.0</ele><time>2026-04-30T14:29:53.001Z</time></trkpt><trkpt lat="43.26023833048545" lon="11.55026728996966"><ele>242.75</ele><time>2026-04-30T14:29:54.001Z</time></trkpt><trkpt lat="43.26013062863204" lon="11.5504322028574"><ele>244.5</ele><time>2026-04-30T14:29:55.001Z</time></trkpt><trkpt lat="43.260044677427224" lon="11.550599755006518"><ele>246.25</ele><time>2026-04-30T14:29:56.001Z</time></trkpt><trkpt lat="43.259980823336164" lon="11.550712546694735"><ele>248.0</ele><time>2026-04-30T14:29:57.001Z</time></trkpt><trkpt lat="43.259916364978295" lon="11.550810890641943"><ele>248.0</ele><time>2026-04-30T14:29:58.001Z</time></trkpt><trkpt lat="43.25977427375041" lon="11.551101408663442"><ele>248.0</ele><time>2026-04-30T14:30:00.001Z</time></trkpt><trkpt lat="43.25972755948659" lon="11.551242025511774"><ele>248.0</ele><time>2026-04-30T14:30:01.001Z</time></trkpt><trkpt lat="43.259699794620694" lon="11.551370542088867"><ele>247.66666666666669</ele><time>2026-04-30T14:30:02.001Z</time></trkpt><trkpt lat="43.25967885517268" lon="11.551484853454513"><ele>247.33333333333334</ele><time>2026-04-30T14:30:03.001Z</time></trkpt><trkpt lat="43.25966107714734" lon="11.551576907316191"><ele>247.0</ele><time>2026-04-30T14:30:04.001Z</time></trkpt><trkpt lat="43.25963186094387" lon="11.55168295426708"><ele>246.66666666666669</ele><time>2026-04-30T14:30:05.001Z</time></trkpt><trkpt lat="43.259599608200254" lon="11.551805508175546"><ele>246.33333333333334</ele><time>2026-04-30T14:30:06.001Z</time></trkpt><trkpt lat="43.25956844202345" lon="11.551957338861147"><ele>246.0</ele><time>2026-04-30T14:30:07.001Z</time></trkpt><trkpt lat="43.259531114061346" lon="11.552099416639546"><ele>246.0</ele><time>2026-04-30T14:30:08.001Z</time></trkpt><trkpt lat="43.2594926420825" lon="11.552238498099735"><ele>246.0</ele><time>2026-04-30T14:30:09.001Z</time></trkpt><trkpt lat="43.25945586224553" lon="11.552393226745691"><ele>246.0</ele><time>2026-04-30T14:30:10.001Z</time></trkpt><trkpt lat="43.25939600498255" lon="11.552545015113928"><ele>246.0</ele><time>2026-04-30T14:30:11.001Z</time></trkpt><trkpt lat="43.25929664815586" lon="11.55267043509368"><ele>246.0</ele><time>2026-04-30T14:30:12.001Z</time></trkpt><trkpt lat="43.25920644870775" lon="11.552804229456886"><ele>246.0</ele><time>2026-04-30T14:30:13.001Z</time></trkpt><trkpt lat="43.259093570145154" lon="11.552917667690279"><ele>246.0</ele><time>2026-04-30T14:30:14.001Z</time></trkpt><trkpt lat="43.25897187964127" lon="11.55300505131949"><ele>246.0</ele><time>2026-04-30T14:30:15.001Z</time></trkpt><trkpt lat="43.258842789195285" lon="11.553082095786133"><ele>248.0</ele><time>2026-04-30T14:30:16.001Z</time></trkpt><trkpt lat="43.25869908585364" lon="11.553135891843226"><ele>250.0</ele><time>2026-04-30T14:30:17.001Z</time></trkpt><trkpt lat="43.25853237095367" lon="11.553195855170713"><ele>252.0</ele><time>2026-04-30T14:30:18.001Z</time></trkpt><trkpt lat="43.2583582625517" lon="11.553229527340031"><ele>252.0</ele><time>2026-04-30T14:30:19.001Z</time></trkpt><trkpt lat="43.258218382976885" lon="11.553258659586563"><ele>252.0</ele><time>2026-04-30T14:30:20.001Z</time></trkpt><trkpt lat="43.25810813114294" lon="11.55329613171273"><ele>252.0</ele><time>2026-04-30T14:30:21.001Z</time></trkpt><trkpt lat="43.25799322386337" lon="11.553337718896758"><ele>252.0</ele><time>2026-04-30T14:30:22.001Z</time></trkpt><trkpt lat="43.25784775393532" lon="11.55339404952152"><ele>252.0</ele><time>2026-04-30T14:30:23.001Z</time></trkpt><trkpt lat="43.257706778741834" lon="11.553470337639197"><ele>252.0</ele><time>2026-04-30T14:30:24.001Z</time></trkpt><trkpt lat="43.25757536040929" lon="11.553539566945327"><ele>252.0</ele><time>2026-04-30T14:30:25.001Z</time></trkpt><trkpt lat="43.257434268831425" lon="11.553606275614337"><ele>252.0</ele><time>2026-04-30T14:30:26.001Z</time></trkpt><trkpt lat="43.25729213093099" lon="11.553652897554441"><ele>251.75</ele><time>2026-04-30T14:30:27.001Z</time></trkpt><trkpt lat="43.25715164133089" lon="11.553685482935823"><ele>251.5</ele><time>2026-04-30T14:30:28.001Z</time></trkpt><trkpt lat="43.25701591094719" lon="11.553687177894615"><ele>251.25</ele><time>2026-04-30T14:30:29.001Z</time></trkpt><trkpt lat="43.256871298054996" lon="11.553675927295602"><ele>251.0</ele><time>2026-04-30T14:30:30.001Z</time></trkpt><trkpt lat="43.25672903355144" lon="11.55362305960665"><ele>251.0</ele><time>2026-04-30T14:30:31.001Z</time></trkpt><trkpt lat="43.25658716105757" lon="11.553534326274677"><ele>251.0</ele><time>2026-04-30T14:30:32.001Z</time></trkpt><trkpt lat="43.25642855257063" lon="11.553445551731969"><ele>251.0</ele><time>2026-04-30T14:30:33.001Z</time></trkpt><trkpt lat="43.256286406614635" lon="11.553343535249233"><ele>251.25</ele><time>2026-04-30T14:30:34.001Z</time></trkpt><trkpt lat="43.256151345076525" lon="11.553252952274727"><ele>251.5</ele><time>2026-04-30T14:30:35.001Z</time></trkpt><trkpt lat="43.256024287374814" lon="11.553174758245806"><ele>251.75</ele><time>2026-04-30T14:30:36.001Z</time></trkpt><trkpt lat="43.25589419299838" lon="11.553085869439927"><ele>252.0</ele><time>2026-04-30T14:30:37.001Z</time></trkpt><trkpt lat="43.25576706642112" lon="11.553002006488736"><ele>252.0</ele><time>2026-04-30T14:30:38.001Z</time></trkpt><trkpt lat="43.255648349207576" lon="11.552933474006252"><ele>252.0</ele><time>2026-04-30T14:30:39.001Z</time></trkpt><trkpt lat="43.25552203570657" lon="11.552884321136748"><ele>252.0</ele><time>2026-04-30T14:30:40.001Z</time></trkpt><trkpt lat="43.25536909402761" lon="11.552868837639474"><ele>252.0</ele><time>2026-04-30T14:30:41.001Z</time></trkpt><trkpt lat="43.255199251884264" lon="11.552873890203877"><ele>250.66666666666669</ele><time>2026-04-30T14:30:42.001Z</time></trkpt><trkpt lat="43.25504016500617" lon="11.552893060359319"><ele>249.33333333333334</ele><time>2026-04-30T14:30:43.001Z</time></trkpt><trkpt lat="43.254871962490675" lon="11.552905074653543"><ele>248.0</ele><time>2026-04-30T14:30:44.001Z</time></trkpt><trkpt lat="43.25472999921079" lon="11.552907327810896"><ele>247.4</ele><time>2026-04-30T14:30:45.001Z</time></trkpt><trkpt lat="43.254616403572534" lon="11.552914992014722"><ele>246.8</ele><time>2026-04-30T14:30:46.001Z</time></trkpt><trkpt lat="43.254527662467076" lon="11.552897892187245"><ele>246.2</ele><time>2026-04-30T14:30:47.001Z</time></trkpt><trkpt lat="43.25445798046904" lon="11.552903386773359"><ele>245.6</ele><time>2026-04-30T14:30:48.001Z</time></trkpt><trkpt lat="43.254334813407716" lon="11.552924689782415"><ele>245.0</ele><time>2026-04-30T14:30:50.001Z</time></trkpt><trkpt lat="43.25425423911421" lon="11.552942914622102"><ele>245.0</ele><time>2026-04-30T14:30:51.001Z</time></trkpt><trkpt lat="43.254184654334075" lon="11.553012305505387"><ele>245.0</ele><time>2026-04-30T14:30:52.001Z</time></trkpt><trkpt lat="43.25412781591018" lon="11.553101898511496"><ele>245.0</ele><time>2026-04-30T14:30:53.001Z</time></trkpt><trkpt lat="43.25407428655312" lon="11.553210725503948"><ele>245.0</ele><time>2026-04-30T14:30:54.001Z</time></trkpt><trkpt lat="43.254047648138744" lon="11.553331988740426"><ele>245.0</ele><time>2026-04-30T14:30:55.001Z</time></trkpt><trkpt lat="43.25404116721747" lon="11.553467843817224"><ele>245.0</ele><time>2026-04-30T14:30:56.001Z</time></trkpt><trkpt lat="43.25404381773572" lon="11.553594714569003"><ele>245.0</ele><time>2026-04-30T14:30:57.001Z</time></trkpt><trkpt lat="43.25401734742433" lon="11.553740716542752"><ele>245.0</ele><time>2026-04-30T14:30:58.001Z</time></trkpt><trkpt lat="43.253980337764354" lon="11.55388532983531"><ele>245.0</ele><time>2026-04-30T14:30:59.001Z</time></trkpt><trkpt lat="43.25391865173358" lon="11.554017155056146"><ele>245.0</ele><time>2026-04-30T14:31:00.001Z</time></trkpt><trkpt lat="43.25384586761388" lon="11.55411621871971"><ele>242.4</ele><time>2026-04-30T14:31:01.001Z</time></trkpt><trkpt lat="43.25376932366761" lon="11.55418703548979"><ele>239.8</ele><time>2026-04-30T14:31:02.001Z</time></trkpt><trkpt lat="43.25369947386294" lon="11.5542702657144"><ele>237.2</ele><time>2026-04-30T14:31:04.001Z</time></trkpt><trkpt lat="43.25362172257625" lon="11.554304297338666"><ele>234.6</ele><time>2026-04-30T14:33:33.001Z</time></trkpt><trkpt lat="43.2535279413848" lon="11.554374836873336"><ele>232.0</ele><time>2026-04-30T14:33:36.001Z</time></trkpt><trkpt lat="43.253424618076714" lon="11.5544752029621"><ele>231.99999999999997</ele><time>2026-04-30T14:33:38.001Z</time></trkpt><trkpt lat="43.25335559356343" lon="11.55451900825027"><ele>232.0</ele><time>2026-04-30T14:33:39.001Z</time></trkpt><trkpt lat="43.25328043076934" lon="11.554559770051558"><ele>232.0</ele><time>2026-04-30T14:33:40.001Z</time></trkpt><trkpt lat="43.2531948335962" lon="11.554605506890995"><ele>232.0</ele><time>2026-04-30T14:33:41.001Z</time></trkpt><trkpt lat="43.25310214821458" lon="11.55463931379889"><ele>231.99999999999997</ele><time>2026-04-30T14:33:42.001Z</time></trkpt><trkpt lat="43.253003752714626" lon="11.554664429079885"><ele>232.0</ele><time>2026-04-30T14:33:43.001Z</time></trkpt><trkpt lat="43.25290272521777" lon="11.554684478004987"><ele>227.5</ele><time>2026-04-30T14:33:44.001Z</time></trkpt><trkpt lat="43.252803276568656" lon="11.554699566104414"><ele>223.0</ele><time>2026-04-30T14:33:45.001Z</time></trkpt><trkpt lat="43.252701347549355" lon="11.554708714214255"><ele>218.5</ele><time>2026-04-30T14:33:46.001Z</time></trkpt><trkpt lat="43.25259101994812" lon="11.55468592724754"><ele>214.0</ele><time>2026-04-30T14:33:47.001Z</time></trkpt><trkpt lat="43.25245419537965" lon="11.554678232970932"><ele>214.0</ele><time>2026-04-30T14:33:48.001Z</time></trkpt><trkpt lat="43.25233597958774" lon="11.554630671352479"><ele>213.99999999999997</ele><time>2026-04-30T14:33:49.001Z</time></trkpt><trkpt lat="43.252229331722894" lon="11.554588078132646"><ele>213.99999999999997</ele><time>2026-04-30T14:33:50.001Z</time></trkpt><trkpt lat="43.25213919803023" lon="11.554564781422973"><ele>214.0</ele><time>2026-04-30T14:33:51.001Z</time></trkpt><trkpt lat="43.25202791835481" lon="11.554582141769767"><ele>214.0</ele><time>2026-04-30T14:33:52.001Z</time></trkpt><trkpt lat="43.25191498732397" lon="11.554615372749163"><ele>213.75</ele><time>2026-04-30T14:33:53.001Z</time></trkpt><trkpt lat="43.251795299314246" lon="11.554635184838048"><ele>213.5</ele><time>2026-04-30T14:33:54.001Z</time></trkpt><trkpt lat="43.25167875676382" lon="11.554691703124831"><ele>213.25</ele><time>2026-04-30T14:33:55.001Z</time></trkpt><trkpt lat="43.25156137537609" lon="11.554730870859116"><ele>213.0</ele><time>2026-04-30T14:33:56Z</time></trkpt><trkpt lat="43.25144319276595" lon="11.554776751660423"><ele>213.4</ele><time>2026-04-30T14:33:57Z</time></trkpt><trkpt lat="43.251329864887104" lon="11.554819563542072"><ele>213.8</ele><time>2026-04-30T14:33:58Z</time></trkpt><trkpt lat="43.251225987046745" lon="11.554864464844526"><ele>214.2</ele><time>2026-04-30T14:33:59Z</time></trkpt><trkpt lat="43.251136963628184" lon="11.554904609512741"><ele>214.6</ele><time>2026-04-30T14:34:00Z</time></trkpt><trkpt lat="43.25103946187127" lon="11.554932166706292"><ele>215.0</ele><time>2026-04-30T14:34:01Z</time></trkpt><trkpt lat="43.25094773064834" lon="11.554999424178664"><ele>215.0</ele><time>2026-04-30T14:34:02Z</time></trkpt><trkpt lat="43.25085402394948" lon="11.555079127658871"><ele>215.0</ele><time>2026-04-30T14:34:03Z</time></trkpt><trkpt lat="43.250783055211755" lon="11.555156016570445"><ele>215.0</ele><time>2026-04-30T14:34:04Z</time></trkpt><trkpt lat="43.25070218874201" lon="11.555263487305332"><ele>215.0</ele><time>2026-04-30T14:34:05Z</time></trkpt><trkpt lat="43.250628245542146" lon="11.555370367245702"><ele>215.0</ele><time>2026-04-30T14:34:06Z</time></trkpt><trkpt lat="43.25053901968147" lon="11.555459345718965"><ele>211.0</ele><time>2026-04-30T14:34:07Z</time></trkpt><trkpt lat="43.250447370441655" lon="11.555556345751079"><ele>207.0</ele><time>2026-04-30T14:34:08Z</time></trkpt><trkpt lat="43.25034707259976" lon="11.555655866463596"><ele>203.0</ele><time>2026-04-30T14:34:09Z</time></trkpt><trkpt lat="43.250244856894" lon="11.555752564617901"><ele>199.0</ele><time>2026-04-30T14:34:10Z</time></trkpt><trkpt lat="43.25013467481759" lon="11.555843330159723"><ele>199.0</ele><time>2026-04-30T14:34:11Z</time></trkpt><trkpt lat="43.250025361727566" lon="11.555919151868377"><ele>199.0</ele><time>2026-04-30T14:34:12Z</time></trkpt><trkpt lat="43.249899752620834" lon="11.555934842489709"><ele>199.0</ele><time>2026-04-30T14:34:13Z</time></trkpt><trkpt lat="43.24977569873333" lon="11.555941893727406"><ele>199.0</ele><time>2026-04-30T14:34:14Z</time></trkpt><trkpt lat="43.24962387725034" lon="11.555960918414865"><ele>198.25</ele><time>2026-04-30T14:34:15Z</time></trkpt><trkpt lat="43.24949096339362" lon="11.555969613506848"><ele>197.5</ele><time>2026-04-30T14:34:16Z</time></trkpt><trkpt lat="43.249364162378505" lon="11.555988014022608"><ele>196.75</ele><time>2026-04-30T14:34:17Z</time></trkpt><trkpt lat="43.249241853140205" lon="11.556023312457938"><ele>196.0</ele><time>2026-04-30T14:34:18Z</time></trkpt><trkpt lat="43.249118096124384" lon="11.55606267324986"><ele>196.0</ele><time>2026-04-30T14:34:19Z</time></trkpt><trkpt lat="43.24899294128293" lon="11.556074585093887"><ele>196.0</ele><time>2026-04-30T14:34:20Z</time></trkpt><trkpt lat="43.248868634707804" lon="11.556055848164933"><ele>196.0</ele><time>2026-04-30T14:34:21Z</time></trkpt><trkpt lat="43.24874558846809" lon="11.55601027691791"><ele>196.0</ele><time>2026-04-30T14:34:22Z</time></trkpt><trkpt lat="43.24863047685253" lon="11.555917273205909"><ele>193.75</ele><time>2026-04-30T14:34:23Z</time></trkpt><trkpt lat="43.24849679438183" lon="11.555798230703633"><ele>191.5</ele><time>2026-04-30T14:34:24Z</time></trkpt><trkpt lat="43.24837682528839" lon="11.555702474533055"><ele>189.25</ele><time>2026-04-30T14:34:25Z</time></trkpt><trkpt lat="43.24827544830719" lon="11.555619200709051"><ele>187.0</ele><time>2026-04-30T14:34:26Z</time></trkpt><trkpt lat="43.24818379305384" lon="11.555531039689113"><ele>185.0</ele><time>2026-04-30T14:34:27Z</time></trkpt><trkpt lat="43.248104758150276" lon="11.555413381130652"><ele>183.0</ele><time>2026-04-30T14:34:28Z</time></trkpt><trkpt lat="43.248028864033856" lon="11.555289692216567"><ele>181.0</ele><time>2026-04-30T14:34:29.001Z</time></trkpt><trkpt lat="43.247949354069924" lon="11.55517929826885"><ele>179.0</ele><time>2026-04-30T14:34:30.001Z</time></trkpt><trkpt lat="43.24789345300072" lon="11.555053771044799"><ele>179.0</ele><time>2026-04-30T14:34:31.001Z</time></trkpt><trkpt lat="43.2478278879328" lon="11.554947672091206"><ele>179.0</ele><time>2026-04-30T14:34:32.001Z</time></trkpt><trkpt lat="43.24773613163825" lon="11.554856743119988"><ele>179.0</ele><time>2026-04-30T14:34:33.001Z</time></trkpt><trkpt lat="43.247620913504974" lon="11.55477142128954"><ele>179.0</ele><time>2026-04-30T14:34:34.001Z</time></trkpt><trkpt lat="43.24750613287768" lon="11.554669955278369"><ele>179.0</ele><time>2026-04-30T14:34:35.001Z</time></trkpt><trkpt lat="43.247397427121165" lon="11.554587581174783"><ele>179.0</ele><time>2026-04-30T14:34:36.001Z</time></trkpt><trkpt lat="43.24727974013874" lon="11.554523707181794"><ele>179.0</ele><time>2026-04-30T14:34:37.001Z</time></trkpt><trkpt lat="43.24716622136092" lon="11.554419926281216"><ele>179.0</ele><time>2026-04-30T14:34:38.001Z</time></trkpt><trkpt lat="43.24704298230733" lon="11.554343380786547"><ele>177.25</ele><time>2026-04-30T14:34:39.001Z</time></trkpt><trkpt lat="43.24693216239942" lon="11.554261867173073"><ele>175.5</ele><time>2026-04-30T14:34:40.001Z</time></trkpt><trkpt lat="43.24681878512652" lon="11.554178908869504"><ele>173.75</ele><time>2026-04-30T14:34:41.001Z</time></trkpt><trkpt lat="43.246698547562794" lon="11.554119636354798"><ele>172.0</ele><time>2026-04-30T14:34:42.001Z</time></trkpt><trkpt lat="43.246582491728276" lon="11.554091184542308"><ele>173.25</ele><time>2026-04-30T14:34:43.001Z</time></trkpt><trkpt lat="43.24645695052214" lon="11.554075752824332"><ele>174.5</ele><time>2026-04-30T14:34:44.001Z</time></trkpt><trkpt lat="43.246324251084104" lon="11.554083621266365"><ele>175.75</ele><time>2026-04-30T14:34:45.001Z</time></trkpt><trkpt lat="43.246175880184985" lon="11.554107894290873"><ele>177.0</ele><time>2026-04-30T14:34:46.001Z</time></trkpt><trkpt lat="43.246000931383335" lon="11.554121929194459"><ele>177.0</ele><time>2026-04-30T14:34:47.001Z</time></trkpt><trkpt lat="43.245805469979764" lon="11.554159105124906"><ele>177.0</ele><time>2026-04-30T14:34:48.001Z</time></trkpt><trkpt lat="43.24561751342024" lon="11.55419122014141"><ele>177.0</ele><time>2026-04-30T14:34:49.001Z</time></trkpt><trkpt lat="43.24542990651448" lon="11.554220080421366"><ele>180.0</ele><time>2026-04-30T14:34:50.001Z</time></trkpt><trkpt lat="43.24524722199893" lon="11.554253046219191"><ele>183.0</ele><time>2026-04-30T14:34:51.001Z</time></trkpt><trkpt lat="43.24505969798673" lon="11.554280768222386"><ele>186.0</ele><time>2026-04-30T14:34:52.001Z</time></trkpt><trkpt lat="43.24487223986939" lon="11.554308511389557"><ele>187.33333333333334</ele><time>2026-04-30T14:34:53.001Z</time></trkpt><trkpt lat="43.24467895482345" lon="11.554312332237417"><ele>188.66666666666669</ele><time>2026-04-30T14:34:54.001Z</time></trkpt><trkpt lat="43.244489770476356" lon="11.554349714222749"><ele>190.0</ele><time>2026-04-30T14:34:55.001Z</time></trkpt><trkpt lat="43.24430305391722" lon="11.55436518819948"><ele>190.0</ele><time>2026-04-30T14:34:56.001Z</time></trkpt><trkpt lat="43.24414986115555" lon="11.554384800715413"><ele>190.0</ele><time>2026-04-30T14:34:57.001Z</time></trkpt><trkpt lat="43.24401556953278" lon="11.554384048239386"><ele>190.0</ele><time>2026-04-30T14:34:58.001Z</time></trkpt><trkpt lat="43.24389382629449" lon="11.554402880391464"><ele>190.0</ele><time>2026-04-30T14:34:59.001Z</time></trkpt><trkpt lat="43.243771200684826" lon="11.554421027285404"><ele>192.5</ele><time>2026-04-30T14:35:00.001Z</time></trkpt><trkpt lat="43.243651751218586" lon="11.554437016666613"><ele>195.0</ele><time>2026-04-30T14:35:01.001Z</time></trkpt><trkpt lat="43.243528894665204" lon="11.554450612426738"><ele>197.5</ele><time>2026-04-30T14:35:02.001Z</time></trkpt><trkpt lat="43.24341247217411" lon="11.554483825214785"><ele>200.0</ele><time>2026-04-30T14:35:03.001Z</time></trkpt><trkpt lat="43.243301482510105" lon="11.554472087460285"><ele>200.0</ele><time>2026-04-30T14:35:04.001Z</time></trkpt><trkpt lat="43.24319985212479" lon="11.554479829644945"><ele>200.0</ele><time>2026-04-30T14:35:05.001Z</time></trkpt><trkpt lat="43.243110758176506" lon="11.554483232149147"><ele>200.0</ele><time>2026-04-30T14:35:06.001Z</time></trkpt><trkpt lat="43.243009653278065" lon="11.554472944004369"><ele>200.0</ele><time>2026-04-30T14:35:07.001Z</time></trkpt><trkpt lat="43.242895543315676" lon="11.55444878515982"><ele>200.0</ele><time>2026-04-30T14:35:08.001Z</time></trkpt><trkpt lat="43.24278666074958" lon="11.55440457238176"><ele>198.5</ele><time>2026-04-30T14:35:09.001Z</time></trkpt><trkpt lat="43.24268402188001" lon="11.554345054812295"><ele>197.0</ele><time>2026-04-30T14:35:10.001Z</time></trkpt><trkpt lat="43.24257815910001" lon="11.554269261258689"><ele>195.5</ele><time>2026-04-30T14:35:11.001Z</time></trkpt><trkpt lat="43.242470096714044" lon="11.554202197041786"><ele>194.0</ele><time>2026-04-30T14:35:12.001Z</time></trkpt><trkpt lat="43.24237423280544" lon="11.554103496275633"><ele>190.79999999999998</ele><time>2026-04-30T14:35:13.001Z</time></trkpt><trkpt lat="43.242282940236606" lon="11.554029465178656"><ele>187.6</ele><time>2026-04-30T14:35:14.001Z</time></trkpt><trkpt lat="43.242191018334104" lon="11.55397583807004"><ele>184.4</ele><time>2026-04-30T14:35:15.001Z</time></trkpt><trkpt lat="43.24211078923165" lon="11.553906692936645"><ele>181.2</ele><time>2026-04-30T14:35:16.001Z</time></trkpt><trkpt lat="43.2420283792366" lon="11.553857091385932"><ele>178.0</ele><time>2026-04-30T14:35:17.001Z</time></trkpt><trkpt lat="43.2419446625654" lon="11.55381672400292"><ele>178.0</ele><time>2026-04-30T14:35:18.001Z</time></trkpt><trkpt lat="43.241845402548506" lon="11.553787789636626"><ele>178.0</ele><time>2026-04-30T14:35:19.001Z</time></trkpt><trkpt lat="43.24174247544959" lon="11.553779305118857"><ele>178.0</ele><time>2026-04-30T14:35:20.001Z</time></trkpt><trkpt lat="43.241644331200135" lon="11.55378033915291"><ele>178.0</ele><time>2026-04-30T14:35:21.001Z</time></trkpt><trkpt lat="43.24155183838665" lon="11.553786681183201"><ele>178.0</ele><time>2026-04-30T14:35:22.001Z</time></trkpt><trkpt lat="43.241465810419434" lon="11.553776703122704"><ele>177.4</ele><time>2026-04-30T14:35:23.001Z</time></trkpt><trkpt lat="43.241377862860304" lon="11.553746322168788"><ele>176.8</ele><time>2026-04-30T14:35:24.001Z</time></trkpt><trkpt lat="43.241282152090065" lon="11.553701723127476"><ele>176.2</ele><time>2026-04-30T14:35:25.001Z</time></trkpt><trkpt lat="43.24118682318768" lon="11.553654346455588"><ele>175.6</ele><time>2026-04-30T14:35:26.001Z</time></trkpt><trkpt lat="43.24110483536725" lon="11.553585834948253"><ele>175.0</ele><time>2026-04-30T14:35:27.001Z</time></trkpt><trkpt lat="43.24103170858688" lon="11.553501058194856"><ele>175.0</ele><time>2026-04-30T14:35:28.001Z</time></trkpt><trkpt lat="43.24095832922187" lon="11.553442584759864"><ele>175.0</ele><time>2026-04-30T14:35:29.001Z</time></trkpt><trkpt lat="43.2408802054221" lon="11.553407552527231"><ele>175.0</ele><time>2026-04-30T14:35:30.001Z</time></trkpt><trkpt lat="43.240817556891955" lon="11.553346820200767"><ele>175.0</ele><time>2026-04-30T14:35:31.001Z</time></trkpt><trkpt lat="43.24074274012859" lon="11.55329842715944"><ele>175.0</ele><time>2026-04-30T14:35:32.001Z</time></trkpt><trkpt lat="43.24067649623543" lon="11.553242351276774"><ele>175.0</ele><time>2026-04-30T14:35:33.001Z</time></trkpt><trkpt lat="43.240602022700266" lon="11.553194182859784"><ele>174.66666666666669</ele><time>2026-04-30T14:35:34.001Z</time></trkpt><trkpt lat="43.2405215649654" lon="11.553151488902097"><ele>174.33333333333334</ele><time>2026-04-30T14:35:35.001Z</time></trkpt><trkpt lat="43.24045593831699" lon="11.553110309563376"><ele>174.0</ele><time>2026-04-30T14:35:36.001Z</time></trkpt><trkpt lat="43.24039866917345" lon="11.553063204034231"><ele>173.66666666666666</ele><time>2026-04-30T14:35:38.001Z</time></trkpt><trkpt lat="43.24033677847148" lon="11.553020980103824"><ele>173.33333333333331</ele><time>2026-04-30T14:35:55Z</time></trkpt><trkpt lat="43.240228758343186" lon="11.55314490605542"><ele>173.0</ele><time>2026-04-30T14:35:57Z</time></trkpt><trkpt lat="43.240176257578995" lon="11.553243103734713"><ele>173.0</ele><time>2026-04-30T14:35:59Z</time></trkpt><trkpt lat="43.24010689949327" lon="11.553335485694744"><ele>173.0</ele><time>2026-04-30T14:36:01Z</time></trkpt><trkpt lat="43.24003952833786" lon="11.553447073476274"><ele>173.0</ele><time>2026-04-30T14:36:03Z</time></trkpt><trkpt lat="43.23996916209034" lon="11.55356276975182"><ele>173.0</ele><time>2026-04-30T14:36:05Z</time></trkpt><trkpt lat="43.23989062622569" lon="11.553690302810791"><ele>173.0</ele><time>2026-04-30T14:36:07Z</time></trkpt><trkpt lat="43.23984807458407" lon="11.55375897647109"><ele>173.0</ele><time>2026-04-30T14:36:08Z</time></trkpt><trkpt lat="43.23980196344791" lon="11.553831164800592"><ele>173.0</ele><time>2026-04-30T14:36:09Z</time></trkpt><trkpt lat="43.23976782938244" lon="11.553912706624748"><ele>173.0</ele><time>2026-04-30T14:36:10Z</time></trkpt><trkpt lat="43.23971630173972" lon="11.553968817933084"><ele>173.0</ele><time>2026-04-30T14:36:11Z</time></trkpt><trkpt lat="43.239621133962395" lon="11.554094445846976"><ele>173.0</ele><time>2026-04-30T14:36:13Z</time></trkpt><trkpt lat="43.2395732156438" lon="11.554165870471696"><ele>173.0</ele><time>2026-04-30T14:36:14Z</time></trkpt><trkpt lat="43.239521776683986" lon="11.554237746953241"><ele>173.0</ele><time>2026-04-30T14:36:15Z</time></trkpt><trkpt lat="43.239458829272806" lon="11.554291840374649"><ele>173.0</ele><time>2026-04-30T14:36:16Z</time></trkpt><trkpt lat="43.23940261621468" lon="11.554358825916983"><ele>173.0</ele><time>2026-04-30T14:36:17Z</time></trkpt><trkpt lat="43.2393426853419" lon="11.554421414893936"><ele>173.0</ele><time>2026-04-30T14:36:18Z</time></trkpt><trkpt lat="43.23926513357923" lon="11.554514015218508"><ele>173.0</ele><time>2026-04-30T14:36:19Z</time></trkpt><trkpt lat="43.23919105130787" lon="11.554566216021692"><ele>173.0</ele><time>2026-04-30T14:36:20Z</time></trkpt><trkpt lat="43.23912881728778" lon="11.55461155101158"><ele>173.5</ele><time>2026-04-30T14:36:21Z</time></trkpt><trkpt lat="43.23904981640139" lon="11.55462514441391"><ele>174.0</ele><time>2026-04-30T14:36:22Z</time></trkpt><trkpt lat="43.23896771411365" lon="11.55458724171928"><ele>174.5</ele><time>2026-04-30T14:36:23Z</time></trkpt><trkpt lat="43.23889173442134" lon="11.55456384897626"><ele>175.0</ele><time>2026-04-30T14:36:24Z</time></trkpt><trkpt lat="43.23882454243154" lon="11.554584290783527"><ele>175.5</ele><time>2026-04-30T14:36:25Z</time></trkpt><trkpt lat="43.23874387200643" lon="11.554676962139993"><ele>176.0</ele><time>2026-04-30T14:36:27Z</time></trkpt><trkpt lat="43.23876184082589" lon="11.554782626257033"><ele>176.0</ele><time>2026-04-30T14:36:28Z</time></trkpt><trkpt lat="43.23882880229501" lon="11.554931891656965"><ele>176.0</ele><time>2026-04-30T14:36:30Z</time></trkpt><trkpt lat="43.238900335696634" lon="11.554954918347203"><ele>176.0</ele><time>2026-04-30T14:36:31Z</time></trkpt><trkpt lat="43.23897446408265" lon="11.55494104894203"><ele>176.0</ele><time>2026-04-30T14:36:32Z</time></trkpt><trkpt lat="43.239019731082635" lon="11.554832398272719"><ele>176.0</ele><time>2026-04-30T14:36:33Z</time></trkpt><trkpt lat="43.23903277933614" lon="11.55474230631432"><ele>176.0</ele><time>2026-04-30T14:36:34Z</time></trkpt><trkpt lat="43.2389823574924" lon="11.554605470367422"><ele>175.8</ele><time>2026-04-30T14:36:36Z</time></trkpt><trkpt lat="43.23886984776815" lon="11.554575422174931"><ele>175.60000000000002</ele><time>2026-04-30T14:36:38Z</time></trkpt><trkpt lat="43.23881063557389" lon="11.554543918282345"><ele>175.4</ele><time>2026-04-30T14:36:39Z</time></trkpt><trkpt lat="43.23870926619534" lon="11.554472669848415"><ele>175.2</ele><time>2026-04-30T14:36:42Z</time></trkpt><trkpt lat="43.23859514370167" lon="11.554378642451127"><ele>175.0</ele><time>2026-04-30T14:36:59Z</time></trkpt><trkpt lat="43.23849455702777" lon="11.554319605357598"><ele>175.0</ele><time>2026-04-30T14:37:01Z</time></trkpt><trkpt lat="43.23842918653124" lon="11.554266668021386"><ele>175.0</ele><time>2026-04-30T14:37:03Z</time></trkpt><trkpt lat="43.238378257831286" lon="11.554212519575412"><ele>175.0</ele><time>2026-04-30T14:37:06Z</time></trkpt><trkpt lat="43.23851517234713" lon="11.554410440977154"><ele>175.0</ele><time>2026-04-30T14:37:14Z</time></trkpt><trkpt lat="43.238614155059906" lon="11.554453948735661"><ele>175.0</ele><time>2026-04-30T14:37:15Z</time></trkpt><trkpt lat="43.23868636057544" lon="11.55451153302159"><ele>175.5</ele><time>2026-04-30T14:37:16Z</time></trkpt><trkpt lat="43.238736582756665" lon="11.554597262909995"><ele>176.0</ele><time>2026-04-30T14:37:17.001Z</time></trkpt><trkpt lat="43.238739756061236" lon="11.554713696823898"><ele>176.5</ele><time>2026-04-30T14:37:18.001Z</time></trkpt><trkpt lat="43.23873877113869" lon="11.55481808864631"><ele>177.0</ele><time>2026-04-30T14:37:19.001Z</time></trkpt><trkpt lat="43.23878803059783" lon="11.55491027196268"><ele>177.5</ele><time>2026-04-30T14:37:20.001Z</time></trkpt><trkpt lat="43.2388637204479" lon="11.554957251112615"><ele>178.0</ele><time>2026-04-30T14:37:21.001Z</time></trkpt><trkpt lat="43.23894826927468" lon="11.554937800104142"><ele>177.66666666666669</ele><time>2026-04-30T14:37:22.001Z</time></trkpt><trkpt lat="43.23901586386732" lon="11.554876576636142"><ele>177.33333333333334</ele><time>2026-04-30T14:37:23.001Z</time></trkpt><trkpt lat="43.23906104671915" lon="11.554782491393414"><ele>177.0</ele><time>2026-04-30T14:37:24.001Z</time></trkpt><trkpt lat="43.23909436627583" lon="11.554697001622717"><ele>176.66666666666666</ele><time>2026-04-30T14:37:25.001Z</time></trkpt><trkpt lat="43.23915351143849" lon="11.554628769398397"><ele>176.33333333333331</ele><time>2026-04-30T14:37:26.001Z</time></trkpt><trkpt lat="43.239232124472245" lon="11.554562285937951"><ele>176.0</ele><time>2026-04-30T14:37:27.001Z</time></trkpt><trkpt lat="43.23935358664489" lon="11.5544510745345"><ele>175.25</ele><time>2026-04-30T14:37:28.001Z</time></trkpt><trkpt lat="43.23947355220081" lon="11.554325881246292"><ele>174.5</ele><time>2026-04-30T14:37:29.001Z</time></trkpt><trkpt lat="43.239573896951676" lon="11.554212944196852"><ele>173.75</ele><time>2026-04-30T14:37:30.001Z</time></trkpt><trkpt lat="43.23966012543846" lon="11.554102319071202"><ele>173.0</ele><time>2026-04-30T14:37:31.001Z</time></trkpt><trkpt lat="43.23973774345676" lon="11.55398637718279"><ele>173.0</ele><time>2026-04-30T14:37:32.001Z</time></trkpt><trkpt lat="43.239812954044005" lon="11.553870560219142"><ele>173.0</ele><time>2026-04-30T14:37:33.001Z</time></trkpt><trkpt lat="43.23988389282485" lon="11.553760943661226"><ele>173.0</ele><time>2026-04-30T14:37:34.001Z</time></trkpt><trkpt lat="43.23993731957682" lon="11.553674836382392"><ele>173.0</ele><time>2026-04-30T14:37:35.001Z</time></trkpt><trkpt lat="43.2400116300851" lon="11.553560642132036"><ele>173.0</ele><time>2026-04-30T14:37:42.001Z</time></trkpt><trkpt lat="43.24007806859191" lon="11.5534501683077"><ele>173.0</ele><time>2026-04-30T14:37:44.001Z</time></trkpt><trkpt lat="43.24016148351599" lon="11.553326925745205"><ele>173.0</ele><time>2026-04-30T14:37:46.001Z</time></trkpt><trkpt lat="43.24020961216507" lon="11.553257985187077"><ele>173.0</ele><time>2026-04-30T14:37:47.001Z</time></trkpt><trkpt lat="43.240265269998474" lon="11.553172389487965"><ele>173.0</ele><time>2026-04-30T14:37:48.001Z</time></trkpt><trkpt lat="43.240327050736674" lon="11.553068863503583"><ele>173.0</ele><time>2026-04-30T14:37:49.001Z</time></trkpt><trkpt lat="43.24038375080037" lon="11.552971863551798"><ele>173.0</ele><time>2026-04-30T14:37:50.001Z</time></trkpt><trkpt lat="43.240443777470794" lon="11.552877290947876"><ele>173.0</ele><time>2026-04-30T14:37:51.001Z</time></trkpt><trkpt lat="43.240505442086416" lon="11.552779327933987"><ele>173.0</ele><time>2026-04-30T14:37:52.001Z</time></trkpt><trkpt lat="43.24057099964479" lon="11.55265860429761"><ele>173.0</ele><time>2026-04-30T14:37:53.001Z</time></trkpt><trkpt lat="43.24066374181087" lon="11.55252155526856"><ele>173.0</ele><time>2026-04-30T14:37:54.001Z</time></trkpt><trkpt lat="43.24069725455167" lon="11.552346529422165"><ele>174.2</ele><time>2026-04-30T14:37:55.001Z</time></trkpt><trkpt lat="43.24075313871837" lon="11.552210246715934"><ele>175.4</ele><time>2026-04-30T14:37:56.001Z</time></trkpt><trkpt lat="43.24080238937424" lon="11.552083936783008"><ele>176.6</ele><time>2026-04-30T14:37:57.001Z</time></trkpt><trkpt lat="43.24084194809629" lon="11.551963862202525"><ele>177.79999999999998</ele><time>2026-04-30T14:37:58Z</time></trkpt><trkpt lat="43.24085713664079" lon="11.551827195590294"><ele>179.0</ele><time>2026-04-30T14:37:59Z</time></trkpt><trkpt lat="43.24082889805063" lon="11.551683391083483"><ele>179.0</ele><time>2026-04-30T14:38:00Z</time></trkpt><trkpt lat="43.24074409703628" lon="11.551551770868823"><ele>179.0</ele><time>2026-04-30T14:38:01Z</time></trkpt><trkpt lat="43.240628120748674" lon="11.551410038121718"><ele>179.0</ele><time>2026-04-30T14:38:02Z</time></trkpt><trkpt lat="43.2404956288418" lon="11.551227509611323"><ele>177.0</ele><time>2026-04-30T14:38:03Z</time></trkpt><trkpt lat="43.24036792692939" lon="11.551049985958226"><ele>175.0</ele><time>2026-04-30T14:38:04Z</time></trkpt><trkpt lat="43.240238831468346" lon="11.550868912067791"><ele>173.0</ele><time>2026-04-30T14:38:05Z</time></trkpt><trkpt lat="43.2401092817125" lon="11.550693474269034"><ele>173.0</ele><time>2026-04-30T14:38:06Z</time></trkpt><trkpt lat="43.23999471445473" lon="11.550538940350235"><ele>173.0</ele><time>2026-04-30T14:38:07Z</time></trkpt><trkpt lat="43.23988680210122" lon="11.550393686175603"><ele>173.0</ele><time>2026-04-30T14:38:08Z</time></trkpt><trkpt lat="43.2397967203322" lon="11.550256525151203"><ele>173.0</ele><time>2026-04-30T14:38:09Z</time></trkpt><trkpt lat="43.23970613791325" lon="11.550128161827285"><ele>173.5</ele><time>2026-04-30T14:38:10Z</time></trkpt><trkpt lat="43.23962395390957" lon="11.550008482969835"><ele>174.0</ele><time>2026-04-30T14:38:11Z</time></trkpt><trkpt lat="43.23951536975008" lon="11.549863612263374"><ele>174.5</ele><time>2026-04-30T14:38:12Z</time></trkpt><trkpt lat="43.23938475966671" lon="11.549710409102833"><ele>175.0</ele><time>2026-04-30T14:38:13Z</time></trkpt><trkpt lat="43.239242379759794" lon="11.549558878097072"><ele>175.33333333333334</ele><time>2026-04-30T14:38:14Z</time></trkpt><trkpt lat="43.239083702793074" lon="11.549410626087385"><ele>175.66666666666666</ele><time>2026-04-30T14:38:15Z</time></trkpt><trkpt lat="43.23889887168313" lon="11.54926761881386"><ele>176.0</ele><time>2026-04-30T14:38:16Z</time></trkpt><trkpt lat="43.23871586236264" lon="11.549139186465245"><ele>176.0</ele><time>2026-04-30T14:38:17Z</time></trkpt><trkpt lat="43.238546258169045" lon="11.549020100071075"><ele>176.0</ele><time>2026-04-30T14:38:18Z</time></trkpt><trkpt lat="43.23838952337241" lon="11.548887966430964"><ele>176.0</ele><time>2026-04-30T14:38:19Z</time></trkpt><trkpt lat="43.23823031521623" lon="11.548744613542423"><ele>176.0</ele><time>2026-04-30T14:38:20Z</time></trkpt><trkpt lat="43.238069485384315" lon="11.548590448856206"><ele>176.0</ele><time>2026-04-30T14:38:21Z</time></trkpt><trkpt lat="43.23791042660512" lon="11.548440021608341"><ele>176.0</ele><time>2026-04-30T14:38:22Z</time></trkpt><trkpt lat="43.23776020993422" lon="11.548283922551057"><ele>176.0</ele><time>2026-04-30T14:38:23Z</time></trkpt><trkpt lat="43.237607568516566" lon="11.548119914119148"><ele>176.0</ele><time>2026-04-30T14:38:24Z</time></trkpt><trkpt lat="43.2374586660559" lon="11.547951268545386"><ele>176.0</ele><time>2026-04-30T14:38:25Z</time></trkpt><trkpt lat="43.23731193616563" lon="11.547783286082646"><ele>175.33333333333331</ele><time>2026-04-30T14:38:26Z</time></trkpt><trkpt lat="43.23717131862402" lon="11.547621645740572"><ele>174.66666666666666</ele><time>2026-04-30T14:38:27Z</time></trkpt><trkpt lat="43.23703167369522" lon="11.547461388275694"><ele>174.0</ele><time>2026-04-30T14:38:28Z</time></trkpt><trkpt lat="43.23688652891885" lon="11.547302074445966"><ele>174.0</ele><time>2026-04-30T14:38:29Z</time></trkpt><trkpt lat="43.23674481326117" lon="11.547136790231612"><ele>174.0</ele><time>2026-04-30T14:38:30Z</time></trkpt><trkpt lat="43.23661680769856" lon="11.546959455958895"><ele>174.0</ele><time>2026-04-30T14:38:31Z</time></trkpt><trkpt lat="43.236494862421" lon="11.546775238252508"><ele>173.66666666666666</ele><time>2026-04-30T14:38:32Z</time></trkpt><trkpt lat="43.23637170102524" lon="11.546592243544247"><ele>173.33333333333331</ele><time>2026-04-30T14:38:33Z</time></trkpt><trkpt lat="43.23625095176852" lon="11.546410495308955"><ele>173.0</ele><time>2026-04-30T14:38:34Z</time></trkpt><trkpt lat="43.236137783773195" lon="11.546224074535562"><ele>174.0</ele><time>2026-04-30T14:38:35Z</time></trkpt><trkpt lat="43.23604540043248" lon="11.546023673654195"><ele>175.0</ele><time>2026-04-30T14:38:36Z</time></trkpt><trkpt lat="43.23595875970808" lon="11.54580976354999"><ele>176.0</ele><time>2026-04-30T14:38:37Z</time></trkpt><trkpt lat="43.23588594890727" lon="11.545590019270946"><ele>176.0</ele><time>2026-04-30T14:38:38Z</time></trkpt><trkpt lat="43.23581860551464" lon="11.545371056628737"><ele>176.0</ele><time>2026-04-30T14:38:39Z</time></trkpt><trkpt lat="43.23576049293695" lon="11.545148453921042"><ele>176.0</ele><time>2026-04-30T14:38:40Z</time></trkpt><trkpt lat="43.235722481826464" lon="11.544908366456468"><ele>176.0</ele><time>2026-04-30T14:38:41Z</time></trkpt><trkpt lat="43.23571591191372" lon="11.544641184049198"><ele>176.0</ele><time>2026-04-30T14:38:42Z</time></trkpt><trkpt lat="43.235726343603666" lon="11.544353269468175"><ele>176.0</ele><time>2026-04-30T14:38:43Z</time></trkpt><trkpt lat="43.23573818727047" lon="11.544057051705234"><ele>176.33333333333331</ele><time>2026-04-30T14:38:44Z</time></trkpt><trkpt lat="43.235750621912004" lon="11.543771717191117"><ele>176.66666666666666</ele><time>2026-04-30T14:38:45Z</time></trkpt><trkpt lat="43.23576035197258" lon="11.543483458463687"><ele>177.0</ele><time>2026-04-30T14:38:46Z</time></trkpt><trkpt lat="43.23577166997428" lon="11.543183737849477"><ele>177.33333333333334</ele><time>2026-04-30T14:38:47Z</time></trkpt><trkpt lat="43.235780914812054" lon="11.542884287903712"><ele>177.66666666666669</ele><time>2026-04-30T14:38:48Z</time></trkpt><trkpt lat="43.23579286889866" lon="11.542591104633665"><ele>178.0</ele><time>2026-04-30T14:38:49Z</time></trkpt><trkpt lat="43.235808545005135" lon="11.542319902711661"><ele>178.33333333333334</ele><time>2026-04-30T14:38:50Z</time></trkpt><trkpt lat="43.23581733731582" lon="11.542071817707042"><ele>178.66666666666666</ele><time>2026-04-30T14:38:51Z</time></trkpt><trkpt lat="43.23582802419827" lon="11.54183651018692"><ele>179.0</ele><time>2026-04-30T14:38:52Z</time></trkpt><trkpt lat="43.235836756906636" lon="11.54161997261449"><ele>179.0</ele><time>2026-04-30T14:38:53Z</time></trkpt><trkpt lat="43.23584751969507" lon="11.541422589463078"><ele>179.0</ele><time>2026-04-30T14:38:54Z</time></trkpt><trkpt lat="43.23584700410873" lon="11.541225947687987"><ele>179.0</ele><time>2026-04-30T14:38:55Z</time></trkpt><trkpt lat="43.23585138576831" lon="11.54104503551368"><ele>179.0</ele><time>2026-04-30T14:38:56Z</time></trkpt><trkpt lat="43.235860156338084" lon="11.540858472568605"><ele>178.0</ele><time>2026-04-30T14:38:57Z</time></trkpt><trkpt lat="43.23587301375855" lon="11.540670699677698"><ele>177.0</ele><time>2026-04-30T14:38:58Z</time></trkpt><trkpt lat="43.23588401663455" lon="11.540467918014585"><ele>176.0</ele><time>2026-04-30T14:38:59Z</time></trkpt><trkpt lat="43.235892846181244" lon="11.540254528110669"><ele>175.0</ele><time>2026-04-30T14:39:00Z</time></trkpt><trkpt lat="43.23590599105727" lon="11.540046391169287"><ele>175.0</ele><time>2026-04-30T14:39:01Z</time></trkpt><trkpt lat="43.23590771766586" lon="11.53983302113431"><ele>175.0</ele><time>2026-04-30T14:39:02Z</time></trkpt><trkpt lat="43.23586603032141" lon="11.539629104141147"><ele>175.0</ele><time>2026-04-30T14:39:03Z</time></trkpt><trkpt lat="43.23577290735415" lon="11.53941314515126"><ele>175.33333333333334</ele><time>2026-04-30T14:39:04Z</time></trkpt><trkpt lat="43.23564824021018" lon="11.539191617713437"><ele>175.66666666666666</ele><time>2026-04-30T14:39:05Z</time></trkpt><trkpt lat="43.23551177904337" lon="11.538943557453782"><ele>176.0</ele><time>2026-04-30T14:39:06Z</time></trkpt><trkpt lat="43.23537710607845" lon="11.538692631745617"><ele>175.33333333333331</ele><time>2026-04-30T14:39:07Z</time></trkpt><trkpt lat="43.23524500915936" lon="11.538441578195231"><ele>174.66666666666666</ele><time>2026-04-30T14:39:08Z</time></trkpt><trkpt lat="43.23511278203139" lon="11.538200696277357"><ele>174.0</ele><time>2026-04-30T14:39:09Z</time></trkpt><trkpt lat="43.234986920515595" lon="11.537967570664938"><ele>174.66666666666666</ele><time>2026-04-30T14:39:10Z</time></trkpt><trkpt lat="43.23486603255359" lon="11.537737351005582"><ele>175.33333333333331</ele><time>2026-04-30T14:39:11Z</time></trkpt><trkpt lat="43.234741534597994" lon="11.537512730700687"><ele>176.0</ele><time>2026-04-30T14:39:12Z</time></trkpt><trkpt lat="43.23461607198677" lon="11.537285666241123"><ele>174.66666666666666</ele><time>2026-04-30T14:39:13Z</time></trkpt><trkpt lat="43.23449512772068" lon="11.537059311693861"><ele>173.33333333333334</ele><time>2026-04-30T14:39:14Z</time></trkpt><trkpt lat="43.23438224113492" lon="11.536838402423"><ele>172.0</ele><time>2026-04-30T14:39:15Z</time></trkpt><trkpt lat="43.234262691710285" lon="11.536616510066914"><ele>172.0</ele><time>2026-04-30T14:39:16Z</time></trkpt><trkpt lat="43.2341433997558" lon="11.536392806307322"><ele>172.0</ele><time>2026-04-30T14:39:17Z</time></trkpt><trkpt lat="43.23402480649486" lon="11.536165851159968"><ele>172.0</ele><time>2026-04-30T14:39:18Z</time></trkpt><trkpt lat="43.23391303404499" lon="11.535950499769967"><ele>172.66666666666669</ele><time>2026-04-30T14:39:19Z</time></trkpt><trkpt lat="43.23381132428815" lon="11.53574351504892"><ele>173.33333333333334</ele><time>2026-04-30T14:39:20Z</time></trkpt><trkpt lat="43.233703535647344" lon="11.535553263827893"><ele>174.0</ele><time>2026-04-30T14:39:21.001Z</time></trkpt><trkpt lat="43.23358939110929" lon="11.535381984371101"><ele>174.0</ele><time>2026-04-30T14:39:22.001Z</time></trkpt><trkpt lat="43.233446197916024" lon="11.53521323975061"><ele>174.0</ele><time>2026-04-30T14:39:23.001Z</time></trkpt><trkpt lat="43.23326239403307" lon="11.535069622978389"><ele>174.0</ele><time>2026-04-30T14:39:24.001Z</time></trkpt><trkpt lat="43.233074773290156" lon="11.53492943645052"><ele>173.33333333333334</ele><time>2026-04-30T14:39:25.001Z</time></trkpt><trkpt lat="43.23289672319794" lon="11.534789473694305"><ele>172.66666666666669</ele><time>2026-04-30T14:39:26.001Z</time></trkpt><trkpt lat="43.232709068121956" lon="11.534650846036854"><ele>172.0</ele><time>2026-04-30T14:39:27.001Z</time></trkpt><trkpt lat="43.23253959918227" lon="11.534534180600202"><ele>172.0</ele><time>2026-04-30T14:39:28.001Z</time></trkpt><trkpt lat="43.23238045572272" lon="11.534408329491468"><ele>172.0</ele><time>2026-04-30T14:39:29.001Z</time></trkpt><trkpt lat="43.23223023920076" lon="11.534260694494508"><ele>172.0</ele><time>2026-04-30T14:39:30.001Z</time></trkpt><trkpt lat="43.232115107144956" lon="11.53408451422274"><ele>171.33333333333334</ele><time>2026-04-30T14:39:31.001Z</time></trkpt><trkpt lat="43.23201564585152" lon="11.53387207790656"><ele>170.66666666666666</ele><time>2026-04-30T14:39:32.001Z</time></trkpt><trkpt lat="43.23194894332097" lon="11.533634330816728"><ele>170.0</ele><time>2026-04-30T14:39:33.001Z</time></trkpt><trkpt lat="43.23190927420043" lon="11.533371783296507"><ele>170.0</ele><time>2026-04-30T14:39:34.001Z</time></trkpt><trkpt lat="43.23185685989427" lon="11.5330911488604"><ele>170.0</ele><time>2026-04-30T14:39:35.001Z</time></trkpt><trkpt lat="43.23179897445297" lon="11.532807648621453"><ele>170.0</ele><time>2026-04-30T14:39:36.001Z</time></trkpt><trkpt lat="43.23173893812369" lon="11.532527265314032"><ele>170.0</ele><time>2026-04-30T14:39:37.001Z</time></trkpt><trkpt lat="43.231680486162446" lon="11.532245655129135"><ele>170.0</ele><time>2026-04-30T14:39:38.001Z</time></trkpt><trkpt lat="43.231620544442166" lon="11.531963737941913"><ele>170.0</ele><time>2026-04-30T14:39:39.001Z</time></trkpt><trkpt lat="43.23156312714172" lon="11.5316943396766"><ele>170.0</ele><time>2026-04-30T14:39:40.001Z</time></trkpt><trkpt lat="43.2315152000086" lon="11.531443892277398"><ele>170.0</ele><time>2026-04-30T14:39:41.001Z</time></trkpt><trkpt lat="43.23146302383169" lon="11.531210743179548"><ele>170.0</ele><time>2026-04-30T14:39:42.001Z</time></trkpt><trkpt lat="43.231403561394" lon="11.53098213790549"><ele>169.66666666666666</ele><time>2026-04-30T14:39:43.001Z</time></trkpt><trkpt lat="43.231323362274544" lon="11.530764537428858"><ele>169.33333333333334</ele><time>2026-04-30T14:39:44.001Z</time></trkpt><trkpt lat="43.23120656330871" lon="11.530545275184243"><ele>169.0</ele><time>2026-04-30T14:39:45.001Z</time></trkpt><trkpt lat="43.2310595355928" lon="11.530324693057096"><ele>169.33333333333334</ele><time>2026-04-30T14:39:46.001Z</time></trkpt><trkpt lat="43.230901785002935" lon="11.530110353805595"><ele>169.66666666666666</ele><time>2026-04-30T14:39:47.001Z</time></trkpt><trkpt lat="43.2307462351091" lon="11.529893393883182"><ele>170.0</ele><time>2026-04-30T14:39:48.001Z</time></trkpt><trkpt lat="43.230595605656625" lon="11.529684864793195"><ele>172.0</ele><time>2026-04-30T14:39:49.001Z</time></trkpt><trkpt lat="43.230454422617186" lon="11.529489875252183"><ele>174.0</ele><time>2026-04-30T14:39:50.001Z</time></trkpt><trkpt lat="43.23032675501412" lon="11.529326976370546"><ele>176.0</ele><time>2026-04-30T14:39:51.001Z</time></trkpt><trkpt lat="43.23021598632014" lon="11.529178278220268"><ele>176.0</ele><time>2026-04-30T14:39:52.001Z</time></trkpt><trkpt lat="43.23011997623168" lon="11.529046093164256"><ele>176.0</ele><time>2026-04-30T14:39:53.001Z</time></trkpt><trkpt lat="43.230040550958705" lon="11.528927930088981"><ele>176.0</ele><time>2026-04-30T14:39:54.001Z</time></trkpt><trkpt lat="43.2299660168694" lon="11.528830776353963"><ele>176.0</ele><time>2026-04-30T14:39:55.001Z</time></trkpt><trkpt lat="43.229906132873154" lon="11.528761150558998"><ele>176.0</ele><time>2026-04-30T14:39:56.001Z</time></trkpt><trkpt lat="43.22985093029984" lon="11.528674381621524"><ele>175.60000000000002</ele><time>2026-04-30T14:39:58.001Z</time></trkpt><trkpt lat="43.22977563835947" lon="11.528563809142051"><ele>175.2</ele><time>2026-04-30T14:40:01.001Z</time></trkpt><trkpt lat="43.22967062660024" lon="11.528600203922204"><ele>174.8</ele><time>2026-04-30T14:40:02.001Z</time></trkpt><trkpt lat="43.229578227924115" lon="11.528501012509262"><ele>174.39999999999998</ele><time>2026-04-30T14:40:04Z</time></trkpt><trkpt lat="43.22951389317285" lon="11.528426861197794"><ele>174.0</ele><time>2026-04-30T14:40:05Z</time></trkpt><trkpt lat="43.22943999945433" lon="11.528348676268457"><ele>174.0</ele><time>2026-04-30T14:40:06Z</time></trkpt><trkpt lat="43.22936176487223" lon="11.528256977689804"><ele>174.0</ele><time>2026-04-30T14:40:07Z</time></trkpt><trkpt lat="43.22929047667579" lon="11.528162040744034"><ele>174.0</ele><time>2026-04-30T14:40:08Z</time></trkpt><trkpt lat="43.22921138467785" lon="11.528070898421754"><ele>174.0</ele><time>2026-04-30T14:40:09Z</time></trkpt><trkpt lat="43.229129343053216" lon="11.527978132403176"><ele>174.0</ele><time>2026-04-30T14:40:10Z</time></trkpt><trkpt lat="43.229048167896885" lon="11.527873134163743"><ele>172.79999999999998</ele><time>2026-04-30T14:40:11Z</time></trkpt><trkpt lat="43.228962214648966" lon="11.527766475536794"><ele>171.6</ele><time>2026-04-30T14:40:12Z</time></trkpt><trkpt lat="43.22887881115821" lon="11.527674268584914"><ele>170.4</ele><time>2026-04-30T14:40:13Z</time></trkpt><trkpt lat="43.2287896989109" lon="11.527587230243025"><ele>169.2</ele><time>2026-04-30T14:40:14Z</time></trkpt><trkpt lat="43.22870588529907" lon="11.527501643145143"><ele>168.0</ele><time>2026-04-30T14:40:15Z</time></trkpt><trkpt lat="43.22860684098701" lon="11.527435362242132"><ele>168.0</ele><time>2026-04-30T14:40:16Z</time></trkpt><trkpt lat="43.22849233129101" lon="11.527394000502438"><ele>168.0</ele><time>2026-04-30T14:40:17Z</time></trkpt><trkpt lat="43.22837176529724" lon="11.52730715963901"><ele>168.0</ele><time>2026-04-30T14:40:18Z</time></trkpt><trkpt lat="43.228258021508175" lon="11.527266443922066"><ele>168.0</ele><time>2026-04-30T14:40:19Z</time></trkpt><trkpt lat="43.228161072308" lon="11.527228552115377"><ele>168.8</ele><time>2026-04-30T14:40:20Z</time></trkpt><trkpt lat="43.228069143271185" lon="11.527178201601332"><ele>169.60000000000002</ele><time>2026-04-30T14:40:21Z</time></trkpt><trkpt lat="43.22797627007815" lon="11.527125807141488"><ele>170.39999999999998</ele><time>2026-04-30T14:40:22Z</time></trkpt><trkpt lat="43.22788883258728" lon="11.527054272429217"><ele>171.2</ele><time>2026-04-30T14:40:23Z</time></trkpt><trkpt lat="43.22780192703799" lon="11.526949924280231"><ele>172.0</ele><time>2026-04-30T14:40:24Z</time></trkpt><trkpt lat="43.22770855348638" lon="11.52687226255792"><ele>172.16666666666669</ele><time>2026-04-30T14:40:25Z</time></trkpt><trkpt lat="43.227638470976345" lon="11.52681034920659"><ele>172.33333333333334</ele><time>2026-04-30T14:40:26Z</time></trkpt><trkpt lat="43.22757834231785" lon="11.526738740288252"><ele>172.5</ele><time>2026-04-30T14:40:27Z</time></trkpt><trkpt lat="43.22752186805065" lon="11.526679538667706"><ele>172.66666666666666</ele><time>2026-04-30T14:40:28Z</time></trkpt><trkpt lat="43.2274692560453" lon="11.526624543916313"><ele>172.83333333333331</ele><time>2026-04-30T14:40:29Z</time></trkpt><trkpt lat="43.22735777051374" lon="11.526520530277741"><ele>173.0</ele><time>2026-04-30T14:40:31Z</time></trkpt><trkpt lat="43.22729749689596" lon="11.526472261207912"><ele>173.66666666666666</ele><time>2026-04-30T14:40:32Z</time></trkpt><trkpt lat="43.22724167840102" lon="11.526419240725074"><ele>174.33333333333331</ele><time>2026-04-30T14:40:33Z</time></trkpt><trkpt lat="43.22718694409298" lon="11.526353390618967"><ele>175.0</ele><time>2026-04-30T14:40:34Z</time></trkpt><trkpt lat="43.227130923655345" lon="11.526304825973243"><ele>175.66666666666666</ele><time>2026-04-30T14:40:35Z</time></trkpt><trkpt lat="43.22703309221856" lon="11.52634522129472"><ele>176.33333333333334</ele><time>2026-04-30T14:40:36Z</time></trkpt><trkpt lat="43.22695614287052" lon="11.526348273780657"><ele>177.0</ele><time>2026-04-30T14:40:37Z</time></trkpt><trkpt lat="43.22687990169095" lon="11.52635368545483"><ele>177.0</ele><time>2026-04-30T14:40:38Z</time></trkpt><trkpt lat="43.22679422683555" lon="11.526359014527992"><ele>177.0</ele><time>2026-04-30T14:40:39Z</time></trkpt><trkpt lat="43.22670642358571" lon="11.526341578946973"><ele>177.0</ele><time>2026-04-30T14:40:40Z</time></trkpt><trkpt lat="43.22659797944426" lon="11.526344707979494"><ele>177.0</ele><time>2026-04-30T14:40:41Z</time></trkpt><trkpt lat="43.22647469385243" lon="11.52635574994528"><ele>177.0</ele><time>2026-04-30T14:40:42Z</time></trkpt><trkpt lat="43.22636621545166" lon="11.52635119954238"><ele>176.66666666666666</ele><time>2026-04-30T14:40:43Z</time></trkpt><trkpt lat="43.22629021763627" lon="11.526363260442448"><ele>176.33333333333334</ele><time>2026-04-30T14:40:44Z</time></trkpt><trkpt lat="43.22620419150333" lon="11.52637410518186"><ele>176.0</ele><time>2026-04-30T14:40:45Z</time></trkpt><trkpt lat="43.22611766900546" lon="11.526374152048565"><ele>175.66666666666669</ele><time>2026-04-30T14:40:46Z</time></trkpt><trkpt lat="43.22602820546171" lon="11.52637172084379"><ele>175.33333333333334</ele><time>2026-04-30T14:40:47Z</time></trkpt><trkpt lat="43.22594242785865" lon="11.526358848728297"><ele>175.0</ele><time>2026-04-30T14:40:48Z</time></trkpt><trkpt lat="43.22585041735379" lon="11.52632951167137"><ele>175.0</ele><time>2026-04-30T14:40:49Z</time></trkpt><trkpt lat="43.225742434547705" lon="11.526287077601435"><ele>175.0</ele><time>2026-04-30T14:40:50Z</time></trkpt><trkpt lat="43.22562317656702" lon="11.526236911689399"><ele>175.0</ele><time>2026-04-30T14:40:51Z</time></trkpt><trkpt lat="43.225491114377796" lon="11.526189105474444"><ele>175.0</ele><time>2026-04-30T14:40:52Z</time></trkpt><trkpt lat="43.22535873464966" lon="11.52615175251432"><ele>176.25</ele><time>2026-04-30T14:40:53Z</time></trkpt><trkpt lat="43.225226904024424" lon="11.526116792655957"><ele>177.5</ele><time>2026-04-30T14:40:54Z</time></trkpt><trkpt lat="43.22510113957289" lon="11.526083588073336"><ele>178.75</ele><time>2026-04-30T14:40:55Z</time></trkpt><trkpt lat="43.22497961883783" lon="11.526048658060242"><ele>180.0</ele><time>2026-04-30T14:40:56Z</time></trkpt><trkpt lat="43.22484813437722" lon="11.526012942789746"><ele>179.25</ele><time>2026-04-30T14:40:57Z</time></trkpt><trkpt lat="43.22471834028157" lon="11.525972147181665"><ele>178.5</ele><time>2026-04-30T14:40:58Z</time></trkpt><trkpt lat="43.22458329201248" lon="11.525931254539131"><ele>177.75</ele><time>2026-04-30T14:40:59Z</time></trkpt><trkpt lat="43.2244491674555" lon="11.525898990073872"><ele>177.0</ele><time>2026-04-30T14:41:00Z</time></trkpt><trkpt lat="43.22431439778516" lon="11.525877646755832"><ele>177.0</ele><time>2026-04-30T14:41:01Z</time></trkpt><trkpt lat="43.22417421610053" lon="11.525879589750131"><ele>177.0</ele><time>2026-04-30T14:41:02Z</time></trkpt><trkpt lat="43.2240297390526" lon="11.525905738782123"><ele>177.0</ele><time>2026-04-30T14:41:03Z</time></trkpt><trkpt lat="43.22390754507095" lon="11.525943751606698"><ele>177.0</ele><time>2026-04-30T14:41:04Z</time></trkpt><trkpt lat="43.22378231914551" lon="11.525941828426047"><ele>176.75</ele><time>2026-04-30T14:41:05Z</time></trkpt><trkpt lat="43.223658200792855" lon="11.525957120874603"><ele>176.5</ele><time>2026-04-30T14:41:06Z</time></trkpt><trkpt lat="43.223519680914514" lon="11.525945704928242"><ele>176.25</ele><time>2026-04-30T14:41:07Z</time></trkpt><trkpt lat="43.223400526637626" lon="11.525947349452073"><ele>176.0</ele><time>2026-04-30T14:41:08Z</time></trkpt><trkpt lat="43.22329712558452" lon="11.525953018322058"><ele>176.0</ele><time>2026-04-30T14:41:09Z</time></trkpt><trkpt lat="43.223196267895894" lon="11.525929585979506"><ele>176.0</ele><time>2026-04-30T14:41:10Z</time></trkpt><trkpt lat="43.223106060736036" lon="11.52587112993627"><ele>176.0</ele><time>2026-04-30T14:41:11Z</time></trkpt><trkpt lat="43.223016937191446" lon="11.52579369828186"><ele>176.0</ele><time>2026-04-30T14:41:12.001Z</time></trkpt><trkpt lat="43.22291738386214" lon="11.525681999799367"><ele>176.0</ele><time>2026-04-30T14:41:13.001Z</time></trkpt><trkpt lat="43.22282626716551" lon="11.525571273752675"><ele>174.25</ele><time>2026-04-30T14:41:14.001Z</time></trkpt><trkpt lat="43.22273874120542" lon="11.525490957180187"><ele>172.5</ele><time>2026-04-30T14:41:15.001Z</time></trkpt><trkpt lat="43.222645041057845" lon="11.525446709204783"><ele>170.75</ele><time>2026-04-30T14:41:16.001Z</time></trkpt><trkpt lat="43.22252885841693" lon="11.525434830066311"><ele>169.0</ele><time>2026-04-30T14:41:17.001Z</time></trkpt><trkpt lat="43.22239986329144" lon="11.525449666321554"><ele>169.5</ele><time>2026-04-30T14:41:18.001Z</time></trkpt><trkpt lat="43.22224909129445" lon="11.525442813261455"><ele>170.0</ele><time>2026-04-30T14:41:19.001Z</time></trkpt><trkpt lat="43.222126635999985" lon="11.525419103054164"><ele>170.5</ele><time>2026-04-30T14:41:20.001Z</time></trkpt><trkpt lat="43.22201496559214" lon="11.525380665483478"><ele>171.0</ele><time>2026-04-30T14:41:21.001Z</time></trkpt><trkpt lat="43.221914486310204" lon="11.525379546904574"><ele>172.4</ele><time>2026-04-30T14:41:22.001Z</time></trkpt><trkpt lat="43.221816791548804" lon="11.52536354721117"><ele>173.8</ele><time>2026-04-30T14:41:23.001Z</time></trkpt><trkpt lat="43.22172100628328" lon="11.525352680178568"><ele>175.20000000000002</ele><time>2026-04-30T14:41:24.001Z</time></trkpt><trkpt lat="43.221624841529625" lon="11.525344246026073"><ele>176.60000000000002</ele><time>2026-04-30T14:41:25.001Z</time></trkpt><trkpt lat="43.22153610945905" lon="11.525319561042872"><ele>178.0</ele><time>2026-04-30T14:41:26.001Z</time></trkpt><trkpt lat="43.221452338531634" lon="11.525293009165496"><ele>178.0</ele><time>2026-04-30T14:41:27.001Z</time></trkpt><trkpt lat="43.22135669231095" lon="11.525293375600459"><ele>178.0</ele><time>2026-04-30T14:41:28.001Z</time></trkpt><trkpt lat="43.22126521623154" lon="11.525272452097994"><ele>178.0</ele><time>2026-04-30T14:41:29.001Z</time></trkpt><trkpt lat="43.2211647284356" lon="11.52524759931612"><ele>178.0</ele><time>2026-04-30T14:41:30.001Z</time></trkpt><trkpt lat="43.22108024428908" lon="11.52521247738331"><ele>178.0</ele><time>2026-04-30T14:41:31.001Z</time></trkpt><trkpt lat="43.220993007222305" lon="11.525193299858953"><ele>178.0</ele><time>2026-04-30T14:41:32.001Z</time></trkpt><trkpt lat="43.22090005996961" lon="11.525150156887427"><ele>178.0</ele><time>2026-04-30T14:41:33.001Z</time></trkpt><trkpt lat="43.22082269011302" lon="11.525075968861353"><ele>178.0</ele><time>2026-04-30T14:41:34.001Z</time></trkpt><trkpt lat="43.22071554394939" lon="11.524997714013432"><ele>178.0</ele><time>2026-04-30T14:41:35.001Z</time></trkpt><trkpt lat="43.220630563460915" lon="11.524909666470364"><ele>178.0</ele><time>2026-04-30T14:41:36.001Z</time></trkpt><trkpt lat="43.22053777648447" lon="11.52483761822944"><ele>176.75</ele><time>2026-04-30T14:41:37.001Z</time></trkpt><trkpt lat="43.22043542322669" lon="11.524800921825534"><ele>175.5</ele><time>2026-04-30T14:41:38.001Z</time></trkpt><trkpt lat="43.22032678514152" lon="11.524805475293064"><ele>174.25</ele><time>2026-04-30T14:41:39.001Z</time></trkpt><trkpt lat="43.22020885628166" lon="11.524853220882305"><ele>173.0</ele><time>2026-04-30T14:41:40.001Z</time></trkpt><trkpt lat="43.22006127847665" lon="11.524919107680324"><ele>173.0</ele><time>2026-04-30T14:41:41.001Z</time></trkpt><trkpt lat="43.21993797933677" lon="11.524978119338718"><ele>173.0</ele><time>2026-04-30T14:41:42.001Z</time></trkpt><trkpt lat="43.219835256489255" lon="11.525014496003585"><ele>173.0</ele><time>2026-04-30T14:41:43.001Z</time></trkpt><trkpt lat="43.21974099722911" lon="11.525021572247253"><ele>173.0</ele><time>2026-04-30T14:41:44.001Z</time></trkpt><trkpt lat="43.21963980568754" lon="11.524960259172117"><ele>173.0</ele><time>2026-04-30T14:41:45.001Z</time></trkpt><trkpt lat="43.21952820490321" lon="11.524902329067965"><ele>172.75</ele><time>2026-04-30T14:41:46.001Z</time></trkpt><trkpt lat="43.21942606951745" lon="11.524784467542146"><ele>172.5</ele><time>2026-04-30T14:41:47.001Z</time></trkpt><trkpt lat="43.21934478496345" lon="11.524621836349638"><ele>172.25</ele><time>2026-04-30T14:41:48.001Z</time></trkpt><trkpt lat="43.219226049873015" lon="11.524453981466229"><ele>172.0</ele><time>2026-04-30T14:41:49.001Z</time></trkpt><trkpt lat="43.21912719381187" lon="11.5242889246338"><ele>172.0</ele><time>2026-04-30T14:41:50.001Z</time></trkpt><trkpt lat="43.219053467674435" lon="11.524130802593495"><ele>172.0</ele><time>2026-04-30T14:41:51.001Z</time></trkpt><trkpt lat="43.21895953850895" lon="11.524003887358944"><ele>172.0</ele><time>2026-04-30T14:41:52.001Z</time></trkpt><trkpt lat="43.218886753612026" lon="11.523862542256216"><ele>172.0</ele><time>2026-04-30T14:41:53.001Z</time></trkpt><trkpt lat="43.21881622977009" lon="11.523730723973262"><ele>172.0</ele><time>2026-04-30T14:41:54.001Z</time></trkpt><trkpt lat="43.21873819778213" lon="11.523600235438398"><ele>172.0</ele><time>2026-04-30T14:41:55.001Z</time></trkpt><trkpt lat="43.21866386780843" lon="11.523466246381947"><ele>172.0</ele><time>2026-04-30T14:41:56.001Z</time></trkpt><trkpt lat="43.21858819835504" lon="11.523317527492688"><ele>172.0</ele><time>2026-04-30T14:41:57.001Z</time></trkpt><trkpt lat="43.218505925127225" lon="11.52315321831689"><ele>172.0</ele><time>2026-04-30T14:41:58.001Z</time></trkpt><trkpt lat="43.21844339725641" lon="11.522997713318322"><ele>172.0</ele><time>2026-04-30T14:41:59.001Z</time></trkpt><trkpt lat="43.21839032458922" lon="11.522838592065332"><ele>172.0</ele><time>2026-04-30T14:42:00.001Z</time></trkpt><trkpt lat="43.218341356442615" lon="11.52267329977496"><ele>172.0</ele><time>2026-04-30T14:42:01.001Z</time></trkpt><trkpt lat="43.21829394869271" lon="11.522510367102058"><ele>173.6</ele><time>2026-04-30T14:42:02.001Z</time></trkpt><trkpt lat="43.21825333627062" lon="11.522358796969778"><ele>175.2</ele><time>2026-04-30T14:42:03.001Z</time></trkpt><trkpt lat="43.21821321333476" lon="11.522212515053699"><ele>176.8</ele><time>2026-04-30T14:42:04.001Z</time></trkpt><trkpt lat="43.21818944911921" lon="11.52206473284242"><ele>178.4</ele><time>2026-04-30T14:42:05.001Z</time></trkpt><trkpt lat="43.21819131710792" lon="11.521926071779804"><ele>180.0</ele><time>2026-04-30T14:42:06.001Z</time></trkpt><trkpt lat="43.21818772438405" lon="11.521796045712257"><ele>179.8</ele><time>2026-04-30T14:42:07.001Z</time></trkpt><trkpt lat="43.218161273720156" lon="11.521681760475133"><ele>179.6</ele><time>2026-04-30T14:42:08.001Z</time></trkpt><trkpt lat="43.21810521275368" lon="11.521587247835777"><ele>179.39999999999998</ele><time>2026-04-30T14:42:09.001Z</time></trkpt><trkpt lat="43.21801788551877" lon="11.521514415254329"><ele>179.2</ele><time>2026-04-30T14:42:10Z</time></trkpt><trkpt lat="43.217902016021625" lon="11.521454944943802"><ele>179.0</ele><time>2026-04-30T14:42:11Z</time></trkpt><trkpt lat="43.21777312440813" lon="11.521403777350502"><ele>179.0</ele><time>2026-04-30T14:42:12Z</time></trkpt><trkpt lat="43.21766336521589" lon="11.52132973703602"><ele>179.0</ele><time>2026-04-30T14:42:13Z</time></trkpt><trkpt lat="43.2175909924325" lon="11.521211662459546"><ele>179.0</ele><time>2026-04-30T14:42:14Z</time></trkpt><trkpt lat="43.21751068454583" lon="11.521107145653382"><ele>179.0</ele><time>2026-04-30T14:42:15Z</time></trkpt><trkpt lat="43.21745691975165" lon="11.52096756661204"><ele>179.2</ele><time>2026-04-30T14:42:16Z</time></trkpt><trkpt lat="43.217423925684564" lon="11.520843811662754"><ele>179.39999999999998</ele><time>2026-04-30T14:42:17Z</time></trkpt><trkpt lat="43.217406512923446" lon="11.5207244516569"><ele>179.6</ele><time>2026-04-30T14:42:18Z</time></trkpt><trkpt lat="43.21740772832727" lon="11.52058194976754"><ele>179.8</ele><time>2026-04-30T14:42:19Z</time></trkpt><trkpt lat="43.21741485467607" lon="11.52042331600402"><ele>180.0</ele><time>2026-04-30T14:42:20Z</time></trkpt><trkpt lat="43.217426972929246" lon="11.520253289251418"><ele>180.0</ele><time>2026-04-30T14:42:21Z</time></trkpt><trkpt lat="43.21743693896245" lon="11.520082478861262"><ele>180.0</ele><time>2026-04-30T14:42:22Z</time></trkpt><trkpt lat="43.21744649537755" lon="11.519921314716251"><ele>180.0</ele><time>2026-04-30T14:42:23Z</time></trkpt><trkpt lat="43.217457334058295" lon="11.519756316228063"><ele>180.0</ele><time>2026-04-30T14:42:24Z</time></trkpt><trkpt lat="43.21746756933155" lon="11.519597121644937"><ele>178.5</ele><time>2026-04-30T14:42:25Z</time></trkpt><trkpt lat="43.2174789919612" lon="11.519437261899014"><ele>177.0</ele><time>2026-04-30T14:42:26Z</time></trkpt><trkpt lat="43.217492386716266" lon="11.519278263635693"><ele>175.5</ele><time>2026-04-30T14:42:27Z</time></trkpt><trkpt lat="43.217497566634655" lon="11.519110932970328"><ele>174.0</ele><time>2026-04-30T14:42:28Z</time></trkpt><trkpt lat="43.21748424581482" lon="11.518944002176"><ele>174.0</ele><time>2026-04-30T14:42:29Z</time></trkpt><trkpt lat="43.21744983716279" lon="11.518770803385678"><ele>174.0</ele><time>2026-04-30T14:42:30Z</time></trkpt><trkpt lat="43.217396100008145" lon="11.518608060180439"><ele>174.0</ele><time>2026-04-30T14:42:31Z</time></trkpt><trkpt lat="43.21736224200154" lon="11.51846036324739"><ele>174.0</ele><time>2026-04-30T14:42:32Z</time></trkpt><trkpt lat="43.2173067183829" lon="11.518326354460562"><ele>173.0</ele><time>2026-04-30T14:42:33Z</time></trkpt><trkpt lat="43.217246524074554" lon="11.518176478354004"><ele>172.0</ele><time>2026-04-30T14:42:34Z</time></trkpt><trkpt lat="43.21718580579379" lon="11.518035667758912"><ele>171.0</ele><time>2026-04-30T14:42:35Z</time></trkpt><trkpt lat="43.21712378372616" lon="11.517899725265414"><ele>170.0</ele><time>2026-04-30T14:42:36Z</time></trkpt><trkpt lat="43.21707429699961" lon="11.517751840335318"><ele>170.0</ele><time>2026-04-30T14:42:37Z</time></trkpt><trkpt lat="43.21702344426435" lon="11.517603860283971"><ele>170.0</ele><time>2026-04-30T14:42:38Z</time></trkpt><trkpt lat="43.216969043744584" lon="11.51745402777859"><ele>170.0</ele><time>2026-04-30T14:42:39Z</time></trkpt><trkpt lat="43.21691025507839" lon="11.51730414419867"><ele>170.0</ele><time>2026-04-30T14:42:40Z</time></trkpt><trkpt lat="43.21684376094193" lon="11.51716071637125"><ele>169.75</ele><time>2026-04-30T14:42:41Z</time></trkpt><trkpt lat="43.21677324741037" lon="11.517014268125815"><ele>169.5</ele><time>2026-04-30T14:42:42Z</time></trkpt><trkpt lat="43.21670801648601" lon="11.516861829812052"><ele>169.25</ele><time>2026-04-30T14:42:43Z</time></trkpt><trkpt lat="43.216643228065124" lon="11.516716518184225"><ele>169.0</ele><time>2026-04-30T14:42:44Z</time></trkpt><trkpt lat="43.21657077931602" lon="11.516572151425489"><ele>169.0</ele><time>2026-04-30T14:42:45Z</time></trkpt><trkpt lat="43.21649859683525" lon="11.516442862902055"><ele>169.0</ele><time>2026-04-30T14:42:46Z</time></trkpt><trkpt lat="43.21642160234641" lon="11.516307367670414"><ele>169.0</ele><time>2026-04-30T14:42:47Z</time></trkpt><trkpt lat="43.21635270510466" lon="11.516164794856945"><ele>169.0</ele><time>2026-04-30T14:42:48Z</time></trkpt><trkpt lat="43.21627950922852" lon="11.516030889012958"><ele>168.75</ele><time>2026-04-30T14:42:49Z</time></trkpt><trkpt lat="43.216205438902996" lon="11.515885079619398"><ele>168.5</ele><time>2026-04-30T14:42:50Z</time></trkpt><trkpt lat="43.216135309207225" lon="11.515727079254871"><ele>168.25</ele><time>2026-04-30T14:42:51Z</time></trkpt><trkpt lat="43.21607082733088" lon="11.51557623542253"><ele>168.0</ele><time>2026-04-30T14:42:52Z</time></trkpt><trkpt lat="43.21601284260464" lon="11.515420142956208"><ele>169.5</ele><time>2026-04-30T14:42:53Z</time></trkpt><trkpt lat="43.215951235864665" lon="11.515261762262423"><ele>171.0</ele><time>2026-04-30T14:42:54Z</time></trkpt><trkpt lat="43.21589534264046" lon="11.51510098980238"><ele>172.5</ele><time>2026-04-30T14:42:55Z</time></trkpt><trkpt lat="43.215847956369615" lon="11.514945180017664"><ele>174.0</ele><time>2026-04-30T14:42:56Z</time></trkpt><trkpt lat="43.21579381228799" lon="11.514800220810011"><ele>174.0</ele><time>2026-04-30T14:42:57Z</time></trkpt><trkpt lat="43.21573657440662" lon="11.514653452670105"><ele>174.0</ele><time>2026-04-30T14:42:58Z</time></trkpt><trkpt lat="43.215691840995305" lon="11.514503174753369"><ele>174.0</ele><time>2026-04-30T14:42:59Z</time></trkpt><trkpt lat="43.21564431535457" lon="11.514345722123851"><ele>174.0</ele><time>2026-04-30T14:43:00Z</time></trkpt><trkpt lat="43.21559232901458" lon="11.51418270143374"><ele>175.2</ele><time>2026-04-30T14:43:01Z</time></trkpt><trkpt lat="43.21554807131704" lon="11.514030753243919"><ele>176.39999999999998</ele><time>2026-04-30T14:43:02Z</time></trkpt><trkpt lat="43.215524704163236" lon="11.51390083419749"><ele>177.6</ele><time>2026-04-30T14:43:03Z</time></trkpt><trkpt lat="43.215510807579314" lon="11.51378072305669"><ele>178.8</ele><time>2026-04-30T14:43:04Z</time></trkpt><trkpt lat="43.21550068745022" lon="11.51367015055422"><ele>180.0</ele><time>2026-04-30T14:43:05Z</time></trkpt><trkpt lat="43.2154776084085" lon="11.513569900059052"><ele>180.0</ele><time>2026-04-30T14:43:06Z</time></trkpt><trkpt lat="43.21543839316555" lon="11.51345088329982"><ele>180.0</ele><time>2026-04-30T14:43:07Z</time></trkpt><trkpt lat="43.21538332013125" lon="11.513321847097574"><ele>180.0</ele><time>2026-04-30T14:43:08Z</time></trkpt><trkpt lat="43.21531480407194" lon="11.513206425793586"><ele>180.0</ele><time>2026-04-30T14:43:09Z</time></trkpt><trkpt lat="43.21521692282031" lon="11.513086722361614"><ele>180.0</ele><time>2026-04-30T14:43:10Z</time></trkpt><trkpt lat="43.21510650602956" lon="11.512961312348617"><ele>179.5</ele><time>2026-04-30T14:43:11Z</time></trkpt><trkpt lat="43.215002707301586" lon="11.512861034648902"><ele>179.0</ele><time>2026-04-30T14:43:12Z</time></trkpt><trkpt lat="43.21489832181782" lon="11.512765550019871"><ele>178.5</ele><time>2026-04-30T14:43:13Z</time></trkpt><trkpt lat="43.21479853770789" lon="11.512669116770974"><ele>178.0</ele><time>2026-04-30T14:43:14Z</time></trkpt><trkpt lat="43.21470424736883" lon="11.512579704117371"><ele>176.0</ele><time>2026-04-30T14:43:15Z</time></trkpt><trkpt lat="43.21461396889283" lon="11.512488268829122"><ele>174.0</ele><time>2026-04-30T14:43:16Z</time></trkpt><trkpt lat="43.214524773746014" lon="11.512403307186212"><ele>172.0</ele><time>2026-04-30T14:43:17Z</time></trkpt><trkpt lat="43.21444170302007" lon="11.51232554639349"><ele>170.0</ele><time>2026-04-30T14:43:18Z</time></trkpt><trkpt lat="43.21436540398248" lon="11.512248837155655"><ele>168.0</ele><time>2026-04-30T14:43:19Z</time></trkpt><trkpt lat="43.21431120644599" lon="11.51214270639082"><ele>167.60000000000002</ele><time>2026-04-30T14:43:20Z</time></trkpt><trkpt lat="43.214245723457324" lon="11.5120227653777"><ele>167.20000000000002</ele><time>2026-04-30T14:43:21Z</time></trkpt><trkpt lat="43.214212351928126" lon="11.511884689031898"><ele>166.8</ele><time>2026-04-30T14:43:22Z</time></trkpt><trkpt lat="43.21419552668451" lon="11.51174021924313"><ele>166.4</ele><time>2026-04-30T14:43:23Z</time></trkpt><trkpt lat="43.21422280007637" lon="11.511612070908669"><ele>166.0</ele><time>2026-04-30T14:43:24.001Z</time></trkpt><trkpt lat="43.214235602193604" lon="11.51146963753318"><ele>166.0</ele><time>2026-04-30T14:43:25.001Z</time></trkpt><trkpt lat="43.214270815694526" lon="11.511335718560616"><ele>166.0</ele><time>2026-04-30T14:43:26.001Z</time></trkpt><trkpt lat="43.214287212077835" lon="11.511196853253956"><ele>166.0</ele><time>2026-04-30T14:43:27.001Z</time></trkpt><trkpt lat="43.21427379554605" lon="11.511052906084654"><ele>166.0</ele><time>2026-04-30T14:43:28.001Z</time></trkpt><trkpt lat="43.21422324893924" lon="11.510901684265944"><ele>166.0</ele><time>2026-04-30T14:43:29.001Z</time></trkpt><trkpt lat="43.21415212672613" lon="11.510750379214247"><ele>165.5</ele><time>2026-04-30T14:43:30.001Z</time></trkpt><trkpt lat="43.2140604247881" lon="11.510599067776932"><ele>165.0</ele><time>2026-04-30T14:43:31.001Z</time></trkpt><trkpt lat="43.21396021628444" lon="11.510435061697804"><ele>164.5</ele><time>2026-04-30T14:43:32.001Z</time></trkpt><trkpt lat="43.21387731295722" lon="11.510290741527115"><ele>164.0</ele><time>2026-04-30T14:43:33.001Z</time></trkpt><trkpt lat="43.21379945496864" lon="11.510163684179556"><ele>163.75</ele><time>2026-04-30T14:43:34.001Z</time></trkpt><trkpt lat="43.213722068507124" lon="11.510054822695698"><ele>163.5</ele><time>2026-04-30T14:43:35.001Z</time></trkpt><trkpt lat="43.213645974863645" lon="11.509941631712021"><ele>163.25</ele><time>2026-04-30T14:43:36.001Z</time></trkpt><trkpt lat="43.213551917841514" lon="11.509842921764262"><ele>163.0</ele><time>2026-04-30T14:43:37.001Z</time></trkpt><trkpt lat="43.21343873152577" lon="11.509730501371873"><ele>163.0</ele><time>2026-04-30T14:43:38.001Z</time></trkpt><trkpt lat="43.21334209260494" lon="11.509618030747054"><ele>163.0</ele><time>2026-04-30T14:43:39.001Z</time></trkpt><trkpt lat="43.213259946212226" lon="11.509506921760515"><ele>163.0</ele><time>2026-04-30T14:43:40.001Z</time></trkpt><trkpt lat="43.21320093742768" lon="11.509364813983709"><ele>163.0</ele><time>2026-04-30T14:43:41.001Z</time></trkpt><trkpt lat="43.21312159032295" lon="11.509245180598201"><ele>162.75</ele><time>2026-04-30T14:43:42.001Z</time></trkpt><trkpt lat="43.213060487051315" lon="11.509101422902297"><ele>162.5</ele><time>2026-04-30T14:43:43.001Z</time></trkpt><trkpt lat="43.21300008031419" lon="11.508960781575224"><ele>162.25</ele><time>2026-04-30T14:43:44.001Z</time></trkpt><trkpt lat="43.21293256273972" lon="11.508832379198243"><ele>162.0</ele><time>2026-04-30T14:43:45.001Z</time></trkpt><trkpt lat="43.21286586388556" lon="11.508702065302007"><ele>162.0</ele><time>2026-04-30T14:43:46.001Z</time></trkpt><trkpt lat="43.21281810967072" lon="11.50857992208599"><ele>162.0</ele><time>2026-04-30T14:43:47.001Z</time></trkpt><trkpt lat="43.21276127297551" lon="11.508452421399307"><ele>162.0</ele><time>2026-04-30T14:43:48.001Z</time></trkpt><trkpt lat="43.21269671420413" lon="11.508337032171676"><ele>162.0</ele><time>2026-04-30T14:43:49.001Z</time></trkpt><trkpt lat="43.21265257088954" lon="11.508211291416599"><ele>162.0</ele><time>2026-04-30T14:43:50.001Z</time></trkpt><trkpt lat="43.21259068137902" lon="11.50809103308492"><ele>162.0</ele><time>2026-04-30T14:43:51.001Z</time></trkpt><trkpt lat="43.212518084927446" lon="11.507981378099092"><ele>162.0</ele><time>2026-04-30T14:43:52.001Z</time></trkpt><trkpt lat="43.21242683482448" lon="11.507893695036907"><ele>162.0</ele><time>2026-04-30T14:43:53.001Z</time></trkpt><trkpt lat="43.21231744482486" lon="11.507818629885081"><ele>162.0</ele><time>2026-04-30T14:43:54.001Z</time></trkpt><trkpt lat="43.21221839620104" lon="11.507763493742985"><ele>162.0</ele><time>2026-04-30T14:43:55.001Z</time></trkpt><trkpt lat="43.212104577027155" lon="11.507713330638763"><ele>162.5</ele><time>2026-04-30T14:43:56.001Z</time></trkpt><trkpt lat="43.21202578863105" lon="11.507615028886846"><ele>163.0</ele><time>2026-04-30T14:43:57.001Z</time></trkpt><trkpt lat="43.21195554574839" lon="11.507493282008305"><ele>163.5</ele><time>2026-04-30T14:43:58.001Z</time></trkpt><trkpt lat="43.21190336259118" lon="11.507332711285173"><ele>164.0</ele><time>2026-04-30T14:43:59.001Z</time></trkpt><trkpt lat="43.21184421212239" lon="11.507133206163468"><ele>164.25</ele><time>2026-04-30T14:44:00.001Z</time></trkpt><trkpt lat="43.21177893197491" lon="11.506945926112353"><ele>164.5</ele><time>2026-04-30T14:44:01.001Z</time></trkpt><trkpt lat="43.211736051398795" lon="11.506762776842395"><ele>164.75</ele><time>2026-04-30T14:44:02.001Z</time></trkpt><trkpt lat="43.21168822093614" lon="11.506605450265381"><ele>165.0</ele><time>2026-04-30T14:44:03.001Z</time></trkpt><trkpt lat="43.21164500126844" lon="11.506460566524291"><ele>165.0</ele><time>2026-04-30T14:44:04.001Z</time></trkpt><trkpt lat="43.21160871348553" lon="11.506318966595517"><ele>165.0</ele><time>2026-04-30T14:44:05.001Z</time></trkpt><trkpt lat="43.21157653277396" lon="11.50619425858413"><ele>165.0</ele><time>2026-04-30T14:44:06.001Z</time></trkpt><trkpt lat="43.21154733708391" lon="11.506100587642798"><ele>165.0</ele><time>2026-04-30T14:44:07.001Z</time></trkpt><trkpt lat="43.21151794081113" lon="11.50600761843557"><ele>165.0</ele><time>2026-04-30T14:44:08.001Z</time></trkpt><trkpt lat="43.21149367777289" lon="11.50591942202232"><ele>165.0</ele><time>2026-04-30T14:44:09.001Z</time></trkpt><trkpt lat="43.21146645953823" lon="11.505829937147492"><ele>164.83333333333334</ele><time>2026-04-30T14:44:10.001Z</time></trkpt><trkpt lat="43.2114419593762" lon="11.505733867757439"><ele>164.66666666666666</ele><time>2026-04-30T14:44:11.001Z</time></trkpt><trkpt lat="43.21140827589707" lon="11.505633354575627"><ele>164.5</ele><time>2026-04-30T14:44:12.001Z</time></trkpt><trkpt lat="43.21137253995944" lon="11.505529763557963"><ele>164.33333333333331</ele><time>2026-04-30T14:44:13.001Z</time></trkpt><trkpt lat="43.21132753276126" lon="11.50543861257"><ele>164.16666666666666</ele><time>2026-04-30T14:44:14.001Z</time></trkpt><trkpt lat="43.21125644944636" lon="11.505364811716694"><ele>164.0</ele><time>2026-04-30T14:44:15.001Z</time></trkpt><trkpt lat="43.21117153436424" lon="11.505312802041523"><ele>164.0</ele><time>2026-04-30T14:44:16Z</time></trkpt><trkpt lat="43.2110671236185" lon="11.5053076072853"><ele>164.0</ele><time>2026-04-30T14:44:17Z</time></trkpt><trkpt lat="43.21096153353012" lon="11.50533894033076"><ele>164.0</ele><time>2026-04-30T14:44:18Z</time></trkpt><trkpt lat="43.21084730809254" lon="11.50539388581796"><ele>164.0</ele><time>2026-04-30T14:44:19Z</time></trkpt><trkpt lat="43.210726690481" lon="11.50544637067654"><ele>164.39999999999998</ele><time>2026-04-30T14:44:20Z</time></trkpt><trkpt lat="43.21061874861668" lon="11.505460832148986"><ele>164.8</ele><time>2026-04-30T14:44:21Z</time></trkpt><trkpt lat="43.210513830922594" lon="11.505425017142485"><ele>165.2</ele><time>2026-04-30T14:44:22Z</time></trkpt><trkpt lat="43.21040036526971" lon="11.505402403406867"><ele>165.60000000000002</ele><time>2026-04-30T14:44:23Z</time></trkpt><trkpt lat="43.21029085086682" lon="11.505389397816439"><ele>166.0</ele><time>2026-04-30T14:44:24Z</time></trkpt><trkpt lat="43.21019518561499" lon="11.505356150445468"><ele>168.20000000000002</ele><time>2026-04-30T14:44:25Z</time></trkpt><trkpt lat="43.21010217521976" lon="11.505298638060044"><ele>170.4</ele><time>2026-04-30T14:44:26Z</time></trkpt><trkpt lat="43.21001235713395" lon="11.505211439819899"><ele>172.6</ele><time>2026-04-30T14:44:27Z</time></trkpt><trkpt lat="43.209922122968116" lon="11.505109657544422"><ele>174.8</ele><time>2026-04-30T14:44:28Z</time></trkpt><trkpt lat="43.20983671459702" lon="11.505016334537498"><ele>177.0</ele><time>2026-04-30T14:44:29Z</time></trkpt><trkpt lat="43.209742576797254" lon="11.504933289930252"><ele>178.6</ele><time>2026-04-30T14:44:30Z</time></trkpt><trkpt lat="43.20965278178445" lon="11.504885069109646"><ele>180.2</ele><time>2026-04-30T14:44:31Z</time></trkpt><trkpt lat="43.209565566185155" lon="11.50486384963584"><ele>181.8</ele><time>2026-04-30T14:44:32Z</time></trkpt><trkpt lat="43.20946282814597" lon="11.504870136350675"><ele>183.4</ele><time>2026-04-30T14:44:33Z</time></trkpt><trkpt lat="43.20936657532663" lon="11.504907849480196"><ele>185.0</ele><time>2026-04-30T14:44:34Z</time></trkpt><trkpt lat="43.20928048646444" lon="11.50496491760776"><ele>185.0</ele><time>2026-04-30T14:44:35Z</time></trkpt><trkpt lat="43.20920760928399" lon="11.505026939237657"><ele>185.0</ele><time>2026-04-30T14:44:36Z</time></trkpt><trkpt lat="43.209141064591634" lon="11.505090784988207"><ele>185.0</ele><time>2026-04-30T14:44:37Z</time></trkpt><trkpt lat="43.20906667121522" lon="11.50513737956943"><ele>185.0</ele><time>2026-04-30T14:44:38Z</time></trkpt><trkpt lat="43.20898359652516" lon="11.505135733509096"><ele>185.0</ele><time>2026-04-30T14:44:39Z</time></trkpt><trkpt lat="43.20890224070299" lon="11.505123588198023"><ele>185.0</ele><time>2026-04-30T14:44:40Z</time></trkpt><trkpt lat="43.20879808117039" lon="11.505094317003486"><ele>186.4</ele><time>2026-04-30T14:44:41Z</time></trkpt><trkpt lat="43.208686289567225" lon="11.505081197241127"><ele>187.8</ele><time>2026-04-30T14:44:42Z</time></trkpt><trkpt lat="43.20857997892791" lon="11.505067037848567"><ele>189.2</ele><time>2026-04-30T14:44:43Z</time></trkpt><trkpt lat="43.208497965590205" lon="11.50504774889529"><ele>190.6</ele><time>2026-04-30T14:44:44Z</time></trkpt><trkpt lat="43.20840630156314" lon="11.505044062708613"><ele>192.0</ele><time>2026-04-30T14:44:45Z</time></trkpt><trkpt lat="43.20832414360465" lon="11.504974176536509"><ele>192.0</ele><time>2026-04-30T14:44:46Z</time></trkpt><trkpt lat="43.20821942831908" lon="11.504941306777265"><ele>192.0</ele><time>2026-04-30T14:44:47Z</time></trkpt><trkpt lat="43.2081140447821" lon="11.504864450618966"><ele>192.0</ele><time>2026-04-30T14:44:48Z</time></trkpt><trkpt lat="43.2080190763677" lon="11.504817474111164"><ele>192.0</ele><time>2026-04-30T14:44:49Z</time></trkpt><trkpt lat="43.20793931005" lon="11.504787746312374"><ele>192.0</ele><time>2026-04-30T14:44:50Z</time></trkpt><trkpt lat="43.20786508884949" lon="11.504754564867923"><ele>192.0</ele><time>2026-04-30T14:44:51Z</time></trkpt><trkpt lat="43.20781206074101" lon="11.504707437991783"><ele>192.0</ele><time>2026-04-30T14:44:52Z</time></trkpt><trkpt lat="43.2077417853324" lon="11.50459152034516"><ele>192.0</ele><time>2026-04-30T14:44:54Z</time></trkpt><trkpt lat="43.20778959612957" lon="11.504523621367191"><ele>192.0</ele><time>2026-04-30T14:44:56Z</time></trkpt><trkpt lat="43.207858194836916" lon="11.504545765483872"><ele>192.0</ele><time>2026-04-30T14:44:57Z</time></trkpt><trkpt lat="43.20791256348491" lon="11.504595480841614"><ele>192.0</ele><time>2026-04-30T14:44:58Z</time></trkpt><trkpt lat="43.20800593133046" lon="11.504621738266698"><ele>192.0</ele><time>2026-04-30T14:44:59Z</time></trkpt><trkpt lat="43.20811535088515" lon="11.504612405914603"><ele>192.0</ele><time>2026-04-30T14:45:00Z</time></trkpt><trkpt lat="43.20822999391982" lon="11.504614395536773"><ele>192.0</ele><time>2026-04-30T14:45:01Z</time></trkpt><trkpt lat="43.20834164719789" lon="11.504601830917075"><ele>192.0</ele><time>2026-04-30T14:45:02Z</time></trkpt><trkpt lat="43.20844438651995" lon="11.504584385313978"><ele>192.0</ele><time>2026-04-30T14:45:03Z</time></trkpt><trkpt lat="43.20851775026784" lon="11.504559264656793"><ele>195.2</ele><time>2026-04-30T14:45:04Z</time></trkpt><trkpt lat="43.20859230217146" lon="11.504526280513131"><ele>198.39999999999998</ele><time>2026-04-30T14:45:05Z</time></trkpt><trkpt lat="43.20867168856501" lon="11.504478313348457"><ele>201.60000000000002</ele><time>2026-04-30T14:45:06Z</time></trkpt><trkpt lat="43.20874762997495" lon="11.50440589655605"><ele>204.8</ele><time>2026-04-30T14:45:07Z</time></trkpt><trkpt lat="43.208811193805474" lon="11.504313252575818"><ele>208.0</ele><time>2026-04-30T14:45:08Z</time></trkpt><trkpt lat="43.20887712112264" lon="11.504206291215388"><ele>208.0</ele><time>2026-04-30T14:45:09Z</time></trkpt><trkpt lat="43.20893468913284" lon="11.504112653805473"><ele>208.0</ele><time>2026-04-30T14:45:10Z</time></trkpt><trkpt lat="43.208986002164984" lon="11.504008626498441"><ele>208.0</ele><time>2026-04-30T14:45:11Z</time></trkpt><trkpt lat="43.209041723551955" lon="11.50388875464337"><ele>208.0</ele><time>2026-04-30T14:45:12Z</time></trkpt><trkpt lat="43.20911171044448" lon="11.503767777081501"><ele>208.0</ele><time>2026-04-30T14:45:13Z</time></trkpt><trkpt lat="43.20917389998576" lon="11.503649445932341"><ele>210.2</ele><time>2026-04-30T14:45:14Z</time></trkpt><trkpt lat="43.209237503765266" lon="11.503536556652833"><ele>212.4</ele><time>2026-04-30T14:45:15Z</time></trkpt><trkpt lat="43.20930655355918" lon="11.503433487252217"><ele>214.59999999999997</ele><time>2026-04-30T14:45:16Z</time></trkpt><trkpt lat="43.20937790009957" lon="11.503331330762773"><ele>216.79999999999998</ele><time>2026-04-30T14:45:17Z</time></trkpt><trkpt lat="43.20946103301117" lon="11.5032256655871"><ele>219.0</ele><time>2026-04-30T14:45:18Z</time></trkpt><trkpt lat="43.20955547112899" lon="11.503122140465367"><ele>219.0</ele><time>2026-04-30T14:45:19Z</time></trkpt><trkpt lat="43.209652051131265" lon="11.50302739505126"><ele>219.0</ele><time>2026-04-30T14:45:20Z</time></trkpt><trkpt lat="43.20974507538481" lon="11.502929006690026"><ele>219.0</ele><time>2026-04-30T14:45:21Z</time></trkpt><trkpt lat="43.20983746809439" lon="11.50283262055825"><ele>219.0</ele><time>2026-04-30T14:45:22Z</time></trkpt><trkpt lat="43.209932380701154" lon="11.502742200371639"><ele>221.2</ele><time>2026-04-30T14:45:23Z</time></trkpt><trkpt lat="43.21002653634903" lon="11.502646373638989"><ele>223.39999999999998</ele><time>2026-04-30T14:45:24Z</time></trkpt><trkpt lat="43.2101071846866" lon="11.50256682476674"><ele>225.6</ele><time>2026-04-30T14:45:25Z</time></trkpt><trkpt lat="43.210180813310714" lon="11.502494326396407"><ele>227.8</ele><time>2026-04-30T14:45:26Z</time></trkpt><trkpt lat="43.21024963679248" lon="11.502428031190387"><ele>230.0</ele><time>2026-04-30T14:45:27Z</time></trkpt><trkpt lat="43.21032467044263" lon="11.50235431895575"><ele>230.0</ele><time>2026-04-30T14:45:28Z</time></trkpt><trkpt lat="43.21038108949637" lon="11.502278209310575"><ele>230.0</ele><time>2026-04-30T14:45:29Z</time></trkpt><trkpt lat="43.21042885050971" lon="11.50217844251333"><ele>230.0</ele><time>2026-04-30T14:45:30Z</time></trkpt><trkpt lat="43.21047759268782" lon="11.502047845985759"><ele>230.0</ele><time>2026-04-30T14:45:31.001Z</time></trkpt><trkpt lat="43.21052706335861" lon="11.501882780842637"><ele>230.0</ele><time>2026-04-30T14:45:32.001Z</time></trkpt><trkpt lat="43.21056927712491" lon="11.501708410324383"><ele>230.0</ele><time>2026-04-30T14:45:33.001Z</time></trkpt><trkpt lat="43.21061652857529" lon="11.501585113340566"><ele>230.0</ele><time>2026-04-30T14:45:34.001Z</time></trkpt><trkpt lat="43.21067646832787" lon="11.501478184377447"><ele>230.0</ele><time>2026-04-30T14:45:35.001Z</time></trkpt><trkpt lat="43.21074721831937" lon="11.501378270209928"><ele>230.0</ele><time>2026-04-30T14:45:36.001Z</time></trkpt><trkpt lat="43.210835329990324" lon="11.501287733506713"><ele>230.0</ele><time>2026-04-30T14:45:37.001Z</time></trkpt><trkpt lat="43.21093016370482" lon="11.50121642461014"><ele>227.8</ele><time>2026-04-30T14:45:38.001Z</time></trkpt><trkpt lat="43.21102234699586" lon="11.501149444235015"><ele>225.6</ele><time>2026-04-30T14:45:39.001Z</time></trkpt><trkpt lat="43.21111914063647" lon="11.50110016782485"><ele>223.39999999999998</ele><time>2026-04-30T14:45:40.001Z</time></trkpt><trkpt lat="43.211214419953926" lon="11.501055083365795"><ele>221.2</ele><time>2026-04-30T14:45:41.001Z</time></trkpt><trkpt lat="43.21129743699504" lon="11.501005799849715"><ele>219.0</ele><time>2026-04-30T14:45:42.001Z</time></trkpt><trkpt lat="43.21135806350875" lon="11.500937956665588"><ele>219.0</ele><time>2026-04-30T14:45:43.001Z</time></trkpt><trkpt lat="43.211411753252946" lon="11.500834195237564"><ele>218.99999999999997</ele><time>2026-04-30T14:45:44.001Z</time></trkpt><trkpt lat="43.211444109605374" lon="11.50070604071737"><ele>218.99999999999997</ele><time>2026-04-30T14:45:45.001Z</time></trkpt><trkpt lat="43.21147495607353" lon="11.500544513897355"><ele>219.0</ele><time>2026-04-30T14:45:46.001Z</time></trkpt><trkpt lat="43.21150170949854" lon="11.50036185259719"><ele>219.0</ele><time>2026-04-30T14:45:47.001Z</time></trkpt><trkpt lat="43.21153365264098" lon="11.500209698843094"><ele>221.39999999999998</ele><time>2026-04-30T14:45:48.001Z</time></trkpt><trkpt lat="43.21155874534804" lon="11.500072440454824"><ele>223.79999999999998</ele><time>2026-04-30T14:45:49.001Z</time></trkpt><trkpt lat="43.21158693464119" lon="11.499951356375089"><ele>226.20000000000002</ele><time>2026-04-30T14:45:50.001Z</time></trkpt><trkpt lat="43.21162017404712" lon="11.4998370895626"><ele>228.60000000000002</ele><time>2026-04-30T14:45:51.001Z</time></trkpt><trkpt lat="43.21168387650505" lon="11.499737803649666"><ele>231.0</ele><time>2026-04-30T14:45:52.001Z</time></trkpt><trkpt lat="43.21178524552889" lon="11.49970748263157"><ele>231.0</ele><time>2026-04-30T14:45:53.001Z</time></trkpt><trkpt lat="43.211870881837946" lon="11.499673168428556"><ele>231.0</ele><time>2026-04-30T14:45:54.001Z</time></trkpt><trkpt lat="43.211964440850736" lon="11.49961961954297"><ele>231.0</ele><time>2026-04-30T14:45:55.001Z</time></trkpt><trkpt lat="43.2120488125416" lon="11.499593828821467"><ele>231.0</ele><time>2026-04-30T14:45:56.001Z</time></trkpt><trkpt lat="43.21212301957626" lon="11.4995566908292"><ele>231.0</ele><time>2026-04-30T14:45:57.001Z</time></trkpt><trkpt lat="43.21218024307901" lon="11.499475880544319"><ele>231.0</ele><time>2026-04-30T14:45:58.001Z</time></trkpt><trkpt lat="43.21221777823595" lon="11.499371348784244"><ele>233.60000000000002</ele><time>2026-04-30T14:45:59.001Z</time></trkpt><trkpt lat="43.212237161701545" lon="11.499249641888177"><ele>236.20000000000002</ele><time>2026-04-30T14:46:00.001Z</time></trkpt><trkpt lat="43.21224435978101" lon="11.499132026997717"><ele>238.79999999999998</ele><time>2026-04-30T14:46:01.001Z</time></trkpt><trkpt lat="43.21222540370968" lon="11.49901585919102"><ele>241.39999999999998</ele><time>2026-04-30T14:46:02.001Z</time></trkpt><trkpt lat="43.212190889522596" lon="11.498901677430469"><ele>244.0</ele><time>2026-04-30T14:46:03.001Z</time></trkpt><trkpt lat="43.212141845569086" lon="11.498788221783665"><ele>244.99999999999997</ele><time>2026-04-30T14:46:04.001Z</time></trkpt><trkpt lat="43.21206892031351" lon="11.498686855120777"><ele>246.0</ele><time>2026-04-30T14:46:05.001Z</time></trkpt><trkpt lat="43.212004825123024" lon="11.498617262657255"><ele>247.0</ele><time>2026-04-30T14:46:06.001Z</time></trkpt><trkpt lat="43.211940536933135" lon="11.498572317605602"><ele>248.0</ele><time>2026-04-30T14:46:07.001Z</time></trkpt><trkpt lat="43.21186618496671" lon="11.498553389175303"><ele>248.99999999999997</ele><time>2026-04-30T14:46:08.001Z</time></trkpt><trkpt lat="43.21179392044011" lon="11.498569789889618"><ele>250.0</ele><time>2026-04-30T14:46:09.001Z</time></trkpt><trkpt lat="43.21170501526438" lon="11.498610146768607"><ele>249.99999999999997</ele><time>2026-04-30T14:46:10.001Z</time></trkpt><trkpt lat="43.21161647633151" lon="11.498619225391826"><ele>250.0</ele><time>2026-04-30T14:46:11.001Z</time></trkpt><trkpt lat="43.21154385582133" lon="11.49863556972878"><ele>250.0</ele><time>2026-04-30T14:46:12.001Z</time></trkpt><trkpt lat="43.211458252878515" lon="11.498648321191483"><ele>250.0</ele><time>2026-04-30T14:46:13.001Z</time></trkpt><trkpt lat="43.211376611177236" lon="11.498668558845294"><ele>249.99999999999997</ele><time>2026-04-30T14:46:14.001Z</time></trkpt><trkpt lat="43.21129313956897" lon="11.498663847484936"><ele>250.0</ele><time>2026-04-30T14:46:15.001Z</time></trkpt><trkpt lat="43.21120573859856" lon="11.49861182902903"><ele>251.8</ele><time>2026-04-30T14:46:16.001Z</time></trkpt><trkpt lat="43.211120620236194" lon="11.49858020925321"><ele>253.6</ele><time>2026-04-30T14:46:17.001Z</time></trkpt><trkpt lat="43.21103983829918" lon="11.498497086688129"><ele>255.39999999999998</ele><time>2026-04-30T14:46:18.001Z</time></trkpt><trkpt lat="43.21097304729132" lon="11.498387996253083"><ele>257.2</ele><time>2026-04-30T14:46:19.001Z</time></trkpt><trkpt lat="43.21094160172099" lon="11.498266119754392"><ele>259.0</ele><time>2026-04-30T14:46:20.001Z</time></trkpt><trkpt lat="43.21091831445841" lon="11.498123264135097"><ele>259.0</ele><time>2026-04-30T14:46:21.001Z</time></trkpt><trkpt lat="43.210906943745954" lon="11.497971625703538"><ele>259.0</ele><time>2026-04-30T14:46:22Z</time></trkpt><trkpt lat="43.21088200818323" lon="11.4978129299733"><ele>259.0</ele><time>2026-04-30T14:46:23Z</time></trkpt><trkpt lat="43.21085237418846" lon="11.497675231301585"><ele>259.0</ele><time>2026-04-30T14:46:24Z</time></trkpt><trkpt lat="43.210804361459715" lon="11.497547397563087"><ele>259.0</ele><time>2026-04-30T14:46:25Z</time></trkpt><trkpt lat="43.210738935111536" lon="11.49743470228438"><ele>260.0</ele><time>2026-04-30T14:46:26Z</time></trkpt><trkpt lat="43.210655920499775" lon="11.497345738303865"><ele>261.0</ele><time>2026-04-30T14:46:27Z</time></trkpt><trkpt lat="43.21053453075385" lon="11.497258872996115"><ele>262.0</ele><time>2026-04-30T14:46:28Z</time></trkpt><trkpt lat="43.210408402430204" lon="11.497169495309993"><ele>263.0</ele><time>2026-04-30T14:46:29Z</time></trkpt><trkpt lat="43.21028355890394" lon="11.497062934874053"><ele>263.5</ele><time>2026-04-30T14:46:30Z</time></trkpt><trkpt lat="43.21016149262492" lon="11.496972509085282"><ele>264.0</ele><time>2026-04-30T14:46:31Z</time></trkpt><trkpt lat="43.21004103410977" lon="11.496885187511536"><ele>264.5</ele><time>2026-04-30T14:46:32Z</time></trkpt><trkpt lat="43.20994462254031" lon="11.496807895319611"><ele>265.0</ele><time>2026-04-30T14:46:33Z</time></trkpt><trkpt lat="43.209850253210455" lon="11.496712433092638"><ele>264.5</ele><time>2026-04-30T14:46:34Z</time></trkpt><trkpt lat="43.20974980342565" lon="11.496595637691483"><ele>264.0</ele><time>2026-04-30T14:46:35Z</time></trkpt><trkpt lat="43.209671574862355" lon="11.496470393614018"><ele>263.5</ele><time>2026-04-30T14:46:36Z</time></trkpt><trkpt lat="43.20961119188196" lon="11.496351497358797"><ele>263.0</ele><time>2026-04-30T14:46:37Z</time></trkpt><trkpt lat="43.20955345762053" lon="11.496248050255238"><ele>263.0</ele><time>2026-04-30T14:46:38Z</time></trkpt><trkpt lat="43.209513291315446" lon="11.496137525533461"><ele>263.0</ele><time>2026-04-30T14:46:39Z</time></trkpt><trkpt lat="43.20948470593098" lon="11.496029741432219"><ele>263.0</ele><time>2026-04-30T14:46:40Z</time></trkpt><trkpt lat="43.209457692569366" lon="11.495918844723088"><ele>263.0</ele><time>2026-04-30T14:46:41Z</time></trkpt><trkpt lat="43.20942853441494" lon="11.495825662536033"><ele>263.0</ele><time>2026-04-30T14:46:42Z</time></trkpt><trkpt lat="43.20939214232963" lon="11.495734104806877"><ele>263.0</ele><time>2026-04-30T14:46:43Z</time></trkpt><trkpt lat="43.209353235904565" lon="11.495642150729942"><ele>263.0</ele><time>2026-04-30T14:46:44Z</time></trkpt><trkpt lat="43.209319276370245" lon="11.495543953594513"><ele>263.0</ele><time>2026-04-30T14:46:45Z</time></trkpt><trkpt lat="43.2092750744123" lon="11.49541342365707"><ele>263.0</ele><time>2026-04-30T14:46:47Z</time></trkpt><trkpt lat="43.2092504229731" lon="11.495318999676893"><ele>263.0</ele><time>2026-04-30T14:46:48Z</time></trkpt><trkpt lat="43.209232410306214" lon="11.495223591885175"><ele>263.0</ele><time>2026-04-30T14:46:49Z</time></trkpt><trkpt lat="43.209223454142496" lon="11.49511519525047"><ele>263.0</ele><time>2026-04-30T14:46:50Z</time></trkpt><trkpt lat="43.20921574684115" lon="11.495011103206757"><ele>262.6666666666667</ele><time>2026-04-30T14:46:51Z</time></trkpt><trkpt lat="43.2092002973693" lon="11.494899147488427"><ele>262.33333333333337</ele><time>2026-04-30T14:46:52Z</time></trkpt><trkpt lat="43.209181513103324" lon="11.494784346032654"><ele>262.0</ele><time>2026-04-30T14:46:53Z</time></trkpt><trkpt lat="43.20916299643381" lon="11.494676192355561"><ele>261.6666666666667</ele><time>2026-04-30T14:46:54Z</time></trkpt><trkpt lat="43.20913532777696" lon="11.494570889967353"><ele>261.3333333333333</ele><time>2026-04-30T14:46:55Z</time></trkpt><trkpt lat="43.20910661257765" lon="11.494457775374338"><ele>261.0</ele><time>2026-04-30T14:46:56Z</time></trkpt><trkpt lat="43.209077851679474" lon="11.494353614197841"><ele>260.6666666666667</ele><time>2026-04-30T14:46:57Z</time></trkpt><trkpt lat="43.20904449958373" lon="11.494249107089077"><ele>260.3333333333333</ele><time>2026-04-30T14:46:58Z</time></trkpt><trkpt lat="43.209009737080166" lon="11.494149238959617"><ele>260.0</ele><time>2026-04-30T14:46:59Z</time></trkpt><trkpt lat="43.20897558590712" lon="11.494048685004689"><ele>259.66666666666663</ele><time>2026-04-30T14:47:00Z</time></trkpt><trkpt lat="43.20893759933507" lon="11.49394872448852"><ele>259.3333333333333</ele><time>2026-04-30T14:47:01Z</time></trkpt><trkpt lat="43.20889518881747" lon="11.493858391421753"><ele>259.0</ele><time>2026-04-30T14:47:02Z</time></trkpt><trkpt lat="43.20884357149468" lon="11.493766047275807"><ele>257.5</ele><time>2026-04-30T14:47:03Z</time></trkpt><trkpt lat="43.208784908929665" lon="11.493678774409117"><ele>256.0</ele><time>2026-04-30T14:47:04Z</time></trkpt><trkpt lat="43.20872093910179" lon="11.493595391255203"><ele>254.5</ele><time>2026-04-30T14:47:05Z</time></trkpt><trkpt lat="43.20865578184354" lon="11.49352177101272"><ele>253.0</ele><time>2026-04-30T14:47:06Z</time></trkpt><trkpt lat="43.20857244528398" lon="11.49346402888124"><ele>251.49999999999997</ele><time>2026-04-30T14:47:07Z</time></trkpt><trkpt lat="43.20848774705408" lon="11.493404389081135"><ele>250.0</ele><time>2026-04-30T14:47:08Z</time></trkpt><trkpt lat="43.20839804532508" lon="11.493331379041015"><ele>250.0</ele><time>2026-04-30T14:47:09Z</time></trkpt><trkpt lat="43.20831057602809" lon="11.493261805491029"><ele>250.0</ele><time>2026-04-30T14:47:10Z</time></trkpt><trkpt lat="43.20822448208028" lon="11.49318312973973"><ele>250.0</ele><time>2026-04-30T14:47:11Z</time></trkpt><trkpt lat="43.20813800674979" lon="11.493096837142405"><ele>250.0</ele><time>2026-04-30T14:47:12Z</time></trkpt><trkpt lat="43.208041798530346" lon="11.492994789057882"><ele>250.0</ele><time>2026-04-30T14:47:13Z</time></trkpt><trkpt lat="43.207923707429245" lon="11.492872870229325"><ele>249.5</ele><time>2026-04-30T14:47:14Z</time></trkpt><trkpt lat="43.20779906949468" lon="11.492740039167913"><ele>249.0</ele><time>2026-04-30T14:47:15Z</time></trkpt><trkpt lat="43.20768522441634" lon="11.492622441437838"><ele>248.5</ele><time>2026-04-30T14:47:16Z</time></trkpt><trkpt lat="43.20758001431327" lon="11.492521258255824"><ele>248.0</ele><time>2026-04-30T14:47:17Z</time></trkpt><trkpt lat="43.20748137911337" lon="11.49242517418874"><ele>248.0</ele><time>2026-04-30T14:47:18Z</time></trkpt><trkpt lat="43.207387814591904" lon="11.49232308809575"><ele>248.0</ele><time>2026-04-30T14:47:19Z</time></trkpt><trkpt lat="43.20728797092537" lon="11.492225112852656"><ele>248.0</ele><time>2026-04-30T14:47:20Z</time></trkpt><trkpt lat="43.20718041773765" lon="11.492117836935103"><ele>248.0</ele><time>2026-04-30T14:47:21Z</time></trkpt><trkpt lat="43.207082621553475" lon="11.492023619942108"><ele>249.0</ele><time>2026-04-30T14:47:22Z</time></trkpt><trkpt lat="43.20701724567286" lon="11.491897770268247"><ele>250.0</ele><time>2026-04-30T14:47:23Z</time></trkpt><trkpt lat="43.206956593042314" lon="11.491789855253009"><ele>251.0</ele><time>2026-04-30T14:47:24Z</time></trkpt><trkpt lat="43.206912472742935" lon="11.491716516916252"><ele>252.0</ele><time>2026-04-30T14:47:25Z</time></trkpt><trkpt lat="43.20685775501495" lon="11.491595474446475"><ele>253.0</ele><time>2026-04-30T14:47:27Z</time></trkpt><trkpt lat="43.20679442754413" lon="11.491455434941198"><ele>252.99999999999997</ele><time>2026-04-30T14:47:29Z</time></trkpt><trkpt lat="43.206762368071736" lon="11.491374939902828"><ele>253.0</ele><time>2026-04-30T14:47:30Z</time></trkpt><trkpt lat="43.20671885057514" lon="11.491283952645965"><ele>253.0</ele><time>2026-04-30T14:47:31Z</time></trkpt><trkpt lat="43.20666623157543" lon="11.491181733927046"><ele>253.0</ele><time>2026-04-30T14:47:32Z</time></trkpt><trkpt lat="43.20661061439969" lon="11.491087539337965"><ele>252.99999999999997</ele><time>2026-04-30T14:47:33Z</time></trkpt><trkpt lat="43.20653604243014" lon="11.491001446774526"><ele>253.0</ele><time>2026-04-30T14:47:34Z</time></trkpt><trkpt lat="43.206428872371816" lon="11.490936883164466"><ele>254.0</ele><time>2026-04-30T14:47:35Z</time></trkpt><trkpt lat="43.2063318851494" lon="11.490894082676785"><ele>255.0</ele><time>2026-04-30T14:47:36Z</time></trkpt><trkpt lat="43.206229680831534" lon="11.490869746453871"><ele>256.0</ele><time>2026-04-30T14:47:37Z</time></trkpt><trkpt lat="43.206140634836466" lon="11.490861375148627"><ele>257.0</ele><time>2026-04-30T14:47:38Z</time></trkpt><trkpt lat="43.20605259257687" lon="11.490833632217251"><ele>258.0</ele><time>2026-04-30T14:47:39Z</time></trkpt><trkpt lat="43.20595623601218" lon="11.490828736663337"><ele>258.0</ele><time>2026-04-30T14:47:40Z</time></trkpt><trkpt lat="43.205863801058335" lon="11.490870507409177"><ele>258.0</ele><time>2026-04-30T14:47:41Z</time></trkpt><trkpt lat="43.20578338482988" lon="11.490887990869755"><ele>258.0</ele><time>2026-04-30T14:47:42Z</time></trkpt><trkpt lat="43.20569857913536" lon="11.490895542001086"><ele>258.0</ele><time>2026-04-30T14:47:43.001Z</time></trkpt><trkpt lat="43.20560603680892" lon="11.490902049806863"><ele>258.0</ele><time>2026-04-30T14:47:44.001Z</time></trkpt><trkpt lat="43.20552760017319" lon="11.490882027256431"><ele>258.0</ele><time>2026-04-30T14:47:45.001Z</time></trkpt><trkpt lat="43.2054472858124" lon="11.490874719622393"><ele>255.4</ele><time>2026-04-30T14:47:46.001Z</time></trkpt><trkpt lat="43.20537306427754" lon="11.490847280928087"><ele>252.8</ele><time>2026-04-30T14:47:47.001Z</time></trkpt><trkpt lat="43.205299900894744" lon="11.49081082156931"><ele>250.2</ele><time>2026-04-30T14:47:48.001Z</time></trkpt><trkpt lat="43.2052345739203" lon="11.4907532814775"><ele>247.6</ele><time>2026-04-30T14:47:49.001Z</time></trkpt><trkpt lat="43.20514715345262" lon="11.490666257474723"><ele>245.0</ele><time>2026-04-30T14:47:50.001Z</time></trkpt><trkpt lat="43.20505589040984" lon="11.49053368262467"><ele>243.0</ele><time>2026-04-30T14:47:51.001Z</time></trkpt><trkpt lat="43.20496760185301" lon="11.490416661545046"><ele>241.0</ele><time>2026-04-30T14:47:52.001Z</time></trkpt><trkpt lat="43.204893982814504" lon="11.490308002424296"><ele>239.0</ele><time>2026-04-30T14:47:53.001Z</time></trkpt><trkpt lat="43.20483543926704" lon="11.490202299841549"><ele>237.0</ele><time>2026-04-30T14:47:54.001Z</time></trkpt><trkpt lat="43.20477730440648" lon="11.490063105652188"><ele>235.0</ele><time>2026-04-30T14:47:55.001Z</time></trkpt><trkpt lat="43.20472261433665" lon="11.48988259999562"><ele>235.0</ele><time>2026-04-30T14:47:56.001Z</time></trkpt><trkpt lat="43.20467256875381" lon="11.489686456193585"><ele>235.0</ele><time>2026-04-30T14:47:57.001Z</time></trkpt><trkpt lat="43.20462226159819" lon="11.489525591423227"><ele>235.0</ele><time>2026-04-30T14:47:58.001Z</time></trkpt><trkpt lat="43.20457967414714" lon="11.489375501676703"><ele>235.0</ele><time>2026-04-30T14:47:59.001Z</time></trkpt><trkpt lat="43.204529445195895" lon="11.48923954257599"><ele>237.6</ele><time>2026-04-30T14:48:00.001Z</time></trkpt><trkpt lat="43.20447105069745" lon="11.489101767647416"><ele>240.2</ele><time>2026-04-30T14:48:01.001Z</time></trkpt><trkpt lat="43.20440288172489" lon="11.488978257068451"><ele>242.8</ele><time>2026-04-30T14:48:02.001Z</time></trkpt><trkpt lat="43.20432504097593" lon="11.488876567106535"><ele>245.4</ele><time>2026-04-30T14:48:03.001Z</time></trkpt><trkpt lat="43.20425277843702" lon="11.488758403270278"><ele>248.0</ele><time>2026-04-30T14:48:04.001Z</time></trkpt><trkpt lat="43.20416760345358" lon="11.488650199484649"><ele>245.60000000000002</ele><time>2026-04-30T14:48:05.001Z</time></trkpt><trkpt lat="43.20409537600117" lon="11.488538575392885"><ele>243.20000000000002</ele><time>2026-04-30T14:48:06.001Z</time></trkpt><trkpt lat="43.204034023251715" lon="11.48842563665217"><ele>240.8</ele><time>2026-04-30T14:48:07.001Z</time></trkpt><trkpt lat="43.20396614348054" lon="11.488317749501153"><ele>238.4</ele><time>2026-04-30T14:48:08.001Z</time></trkpt><trkpt lat="43.203908747610704" lon="11.488196633818287"><ele>236.0</ele><time>2026-04-30T14:48:09.001Z</time></trkpt><trkpt lat="43.20384808532516" lon="11.488089382450571"><ele>236.0</ele><time>2026-04-30T14:48:10.001Z</time></trkpt><trkpt lat="43.203786495986115" lon="11.487979908731162"><ele>236.00000000000003</ele><time>2026-04-30T14:48:11.001Z</time></trkpt><trkpt lat="43.203728826265376" lon="11.487874426689437"><ele>236.00000000000003</ele><time>2026-04-30T14:48:12.001Z</time></trkpt><trkpt lat="43.203677596573506" lon="11.487770180728644"><ele>236.0</ele><time>2026-04-30T14:48:13.001Z</time></trkpt><trkpt lat="43.20360848192796" lon="11.487665259032909"><ele>236.0</ele><time>2026-04-30T14:48:14.001Z</time></trkpt><trkpt lat="43.20353912747752" lon="11.487569625372798"><ele>235.75</ele><time>2026-04-30T14:48:15.001Z</time></trkpt><trkpt lat="43.20344153303719" lon="11.487448210781123"><ele>235.5</ele><time>2026-04-30T14:48:16.001Z</time></trkpt><trkpt lat="43.203347796331045" lon="11.487327296048017"><ele>235.25</ele><time>2026-04-30T14:48:17.001Z</time></trkpt><trkpt lat="43.2032518125421" lon="11.487218994309433"><ele>235.0</ele><time>2026-04-30T14:48:18.001Z</time></trkpt><trkpt lat="43.2031562872591" lon="11.487114344091005"><ele>237.6</ele><time>2026-04-30T14:48:19.001Z</time></trkpt><trkpt lat="43.20307715134745" lon="11.48700645421425"><ele>240.2</ele><time>2026-04-30T14:48:20.001Z</time></trkpt><trkpt lat="43.20299914338318" lon="11.486907588866247"><ele>242.8</ele><time>2026-04-30T14:48:21.001Z</time></trkpt><trkpt lat="43.20292846550736" lon="11.486795348579534"><ele>245.4</ele><time>2026-04-30T14:48:22.001Z</time></trkpt><trkpt lat="43.20285857731205" lon="11.486712205707631"><ele>248.0</ele><time>2026-04-30T14:48:23.001Z</time></trkpt><trkpt lat="43.20276352674783" lon="11.486630105512955"><ele>248.0</ele><time>2026-04-30T14:48:24.001Z</time></trkpt><trkpt lat="43.202687702285175" lon="11.486522269218325"><ele>248.0</ele><time>2026-04-30T14:48:25.001Z</time></trkpt><trkpt lat="43.20261060567948" lon="11.486438021537138"><ele>248.0</ele><time>2026-04-30T14:48:26.001Z</time></trkpt><trkpt lat="43.20254201659089" lon="11.486344712410395"><ele>248.0</ele><time>2026-04-30T14:48:27.001Z</time></trkpt><trkpt lat="43.2024711600486" lon="11.486235288807991"><ele>248.0</ele><time>2026-04-30T14:48:28Z</time></trkpt><trkpt lat="43.20240950239972" lon="11.486122229883852"><ele>249.2</ele><time>2026-04-30T14:48:29Z</time></trkpt><trkpt lat="43.2023559458967" lon="11.486010318070928"><ele>250.4</ele><time>2026-04-30T14:48:30Z</time></trkpt><trkpt lat="43.202330689700474" lon="11.48588932607851"><ele>251.59999999999997</ele><time>2026-04-30T14:48:31Z</time></trkpt><trkpt lat="43.202298974018234" lon="11.48578316092212"><ele>252.79999999999998</ele><time>2026-04-30T14:48:32Z</time></trkpt><trkpt lat="43.20225177999329" lon="11.485667784868138"><ele>254.0</ele><time>2026-04-30T14:48:33Z</time></trkpt><trkpt lat="43.20222974109191" lon="11.485549779413589"><ele>254.00000000000003</ele><time>2026-04-30T14:48:34Z</time></trkpt><trkpt lat="43.20220410643219" lon="11.485441547127728"><ele>254.0</ele><time>2026-04-30T14:48:35Z</time></trkpt><trkpt lat="43.20218365429961" lon="11.485346025823173"><ele>254.0</ele><time>2026-04-30T14:48:36Z</time></trkpt><trkpt lat="43.20216183653245" lon="11.48522897724001"><ele>254.0</ele><time>2026-04-30T14:48:37Z</time></trkpt><trkpt lat="43.20213282345697" lon="11.485106798835748"><ele>254.00000000000003</ele><time>2026-04-30T14:48:38Z</time></trkpt><trkpt lat="43.202102278795756" lon="11.484980534857057"><ele>254.0</ele><time>2026-04-30T14:48:39Z</time></trkpt><trkpt lat="43.20208418143803" lon="11.484864883931767"><ele>253.83333333333334</ele><time>2026-04-30T14:48:40Z</time></trkpt><trkpt lat="43.20206071182063" lon="11.484764197700338"><ele>253.66666666666669</ele><time>2026-04-30T14:48:41Z</time></trkpt><trkpt lat="43.20203302920875" lon="11.484669538188916"><ele>253.5</ele><time>2026-04-30T14:48:42Z</time></trkpt><trkpt lat="43.20200204453083" lon="11.484579851761094"><ele>253.33333333333331</ele><time>2026-04-30T14:48:43Z</time></trkpt><trkpt lat="43.20196231022" lon="11.48449321645995"><ele>253.16666666666666</ele><time>2026-04-30T14:48:44Z</time></trkpt><trkpt lat="43.20192215423926" lon="11.484426381675101"><ele>253.0</ele><time>2026-04-30T14:48:45Z</time></trkpt><trkpt lat="43.20185181897631" lon="11.484299174428031"><ele>252.99999999999997</ele><time>2026-04-30T14:48:47Z</time></trkpt><trkpt lat="43.20183342368694" lon="11.484212236812834"><ele>253.0</ele><time>2026-04-30T14:48:48Z</time></trkpt><trkpt lat="43.20180646399189" lon="11.484127223557765"><ele>253.0</ele><time>2026-04-30T14:48:49Z</time></trkpt><trkpt lat="43.20179907225868" lon="11.484030194024799"><ele>253.0</ele><time>2026-04-30T14:48:50Z</time></trkpt><trkpt lat="43.20180344404769" lon="11.483920098711765"><ele>252.99999999999997</ele><time>2026-04-30T14:48:51Z</time></trkpt><trkpt lat="43.201850621911134" lon="11.4838143896084"><ele>253.0</ele><time>2026-04-30T14:48:52Z</time></trkpt><trkpt lat="43.20190860238695" lon="11.483721399175142"><ele>250.33333333333331</ele><time>2026-04-30T14:48:53Z</time></trkpt><trkpt lat="43.201971806634596" lon="11.483633421955583"><ele>247.66666666666666</ele><time>2026-04-30T14:48:54Z</time></trkpt><trkpt lat="43.20203660455615" lon="11.483532088608357"><ele>245.0</ele><time>2026-04-30T14:48:55Z</time></trkpt><trkpt lat="43.202094187177394" lon="11.483429818107707"><ele>242.33333333333331</ele><time>2026-04-30T14:48:56Z</time></trkpt><trkpt lat="43.202145372610154" lon="11.483339931442872"><ele>239.66666666666666</ele><time>2026-04-30T14:48:57Z</time></trkpt><trkpt lat="43.20218957197194" lon="11.483255176641993"><ele>237.0</ele><time>2026-04-30T14:48:58Z</time></trkpt><trkpt lat="43.202223692343566" lon="11.483146745875235"><ele>237.0</ele><time>2026-04-30T14:48:59Z</time></trkpt><trkpt lat="43.202248119367" lon="11.483019619359698"><ele>237.0</ele><time>2026-04-30T14:49:00Z</time></trkpt><trkpt lat="43.20221969670814" lon="11.482844253615324"><ele>237.0</ele><time>2026-04-30T14:49:01Z</time></trkpt><trkpt lat="43.20223128076089" lon="11.482684621548207"><ele>237.0</ele><time>2026-04-30T14:49:02Z</time></trkpt><trkpt lat="43.20223960555786" lon="11.482526512259165"><ele>235.6</ele><time>2026-04-30T14:49:03Z</time></trkpt><trkpt lat="43.202259301122666" lon="11.482375372296413"><ele>234.2</ele><time>2026-04-30T14:49:04Z</time></trkpt><trkpt lat="43.20227433688691" lon="11.482230733814472"><ele>232.8</ele><time>2026-04-30T14:49:05Z</time></trkpt><trkpt lat="43.20230872342489" lon="11.482114339031561"><ele>231.4</ele><time>2026-04-30T14:49:06Z</time></trkpt><trkpt lat="43.202326744746294" lon="11.482023007220716"><ele>230.0</ele><time>2026-04-30T14:49:07Z</time></trkpt><trkpt lat="43.20233915976752" lon="11.481904092605888"><ele>230.0</ele><time>2026-04-30T14:49:08Z</time></trkpt><trkpt lat="43.20234578932394" lon="11.481764312245197"><ele>230.0</ele><time>2026-04-30T14:49:09Z</time></trkpt><trkpt lat="43.20233958410181" lon="11.481619975276507"><ele>230.0</ele><time>2026-04-30T14:49:10Z</time></trkpt><trkpt lat="43.20232421296699" lon="11.481482708694136"><ele>230.0</ele><time>2026-04-30T14:49:11Z</time></trkpt><trkpt lat="43.202291987188794" lon="11.48132333058465"><ele>230.0</ele><time>2026-04-30T14:49:12Z</time></trkpt><trkpt lat="43.20226208808193" lon="11.481138310614684"><ele>224.75</ele><time>2026-04-30T14:49:13Z</time></trkpt><trkpt lat="43.20224381300869" lon="11.480969525935375"><ele>219.5</ele><time>2026-04-30T14:49:14Z</time></trkpt><trkpt lat="43.202223204202255" lon="11.480822877102247"><ele>214.25</ele><time>2026-04-30T14:49:15Z</time></trkpt><trkpt lat="43.20219346790825" lon="11.480682025986448"><ele>209.0</ele><time>2026-04-30T14:49:16Z</time></trkpt><trkpt lat="43.20213763205568" lon="11.48053443298025"><ele>209.75</ele><time>2026-04-30T14:49:17Z</time></trkpt><trkpt lat="43.20208687806877" lon="11.480354246778573"><ele>210.5</ele><time>2026-04-30T14:49:18Z</time></trkpt><trkpt lat="43.202021784654285" lon="11.480198679957924"><ele>211.25</ele><time>2026-04-30T14:49:19Z</time></trkpt><trkpt lat="43.20196648065894" lon="11.480046068937977"><ele>212.0</ele><time>2026-04-30T14:49:20Z</time></trkpt><trkpt lat="43.20192062422321" lon="11.479891670517635"><ele>212.0</ele><time>2026-04-30T14:49:21Z</time></trkpt><trkpt lat="43.2018653020252" lon="11.479743644493551"><ele>212.0</ele><time>2026-04-30T14:49:22Z</time></trkpt><trkpt lat="43.201819321526635" lon="11.479577246076472"><ele>212.0</ele><time>2026-04-30T14:49:23Z</time></trkpt><trkpt lat="43.2017737820808" lon="11.479410639640715"><ele>212.0</ele><time>2026-04-30T14:49:24Z</time></trkpt><trkpt lat="43.201730050238" lon="11.479251037825303"><ele>212.25</ele><time>2026-04-30T14:49:25Z</time></trkpt><trkpt lat="43.20169249899793" lon="11.479085760028154"><ele>212.5</ele><time>2026-04-30T14:49:26Z</time></trkpt><trkpt lat="43.201631351616115" lon="11.478904316335674"><ele>212.75</ele><time>2026-04-30T14:49:27Z</time></trkpt><trkpt lat="43.2015626816615" lon="11.478723350513729"><ele>213.0</ele><time>2026-04-30T14:49:28Z</time></trkpt><trkpt lat="43.201491443440375" lon="11.478527949162231"><ele>209.0</ele><time>2026-04-30T14:49:29Z</time></trkpt><trkpt lat="43.20142285038064" lon="11.478354063580081"><ele>205.0</ele><time>2026-04-30T14:49:30Z</time></trkpt><trkpt lat="43.20133270617612" lon="11.478172838323058"><ele>201.0</ele><time>2026-04-30T14:49:31.001Z</time></trkpt><trkpt lat="43.20125341032227" lon="11.477988452407471"><ele>202.25</ele><time>2026-04-30T14:49:32.001Z</time></trkpt><trkpt lat="43.20118538969091" lon="11.477813058531865"><ele>203.5</ele><time>2026-04-30T14:49:33.001Z</time></trkpt><trkpt lat="43.20114010250462" lon="11.477639879783421"><ele>204.75</ele><time>2026-04-30T14:49:34.001Z</time></trkpt><trkpt lat="43.20107076750346" lon="11.477489046729598"><ele>206.0</ele><time>2026-04-30T14:49:35.001Z</time></trkpt><trkpt lat="43.201007347526556" lon="11.477324890671397"><ele>206.0</ele><time>2026-04-30T14:49:36.001Z</time></trkpt><trkpt lat="43.20092990565864" lon="11.47715725873314"><ele>206.0</ele><time>2026-04-30T14:49:37.001Z</time></trkpt><trkpt lat="43.20084829716727" lon="11.476967143194818"><ele>206.0</ele><time>2026-04-30T14:49:38.001Z</time></trkpt><trkpt lat="43.20076778173764" lon="11.476794776670012"><ele>206.0</ele><time>2026-04-30T14:49:39.001Z</time></trkpt><trkpt lat="43.20068494822603" lon="11.476644891486492"><ele>206.0</ele><time>2026-04-30T14:49:40.001Z</time></trkpt><trkpt lat="43.20059185282269" lon="11.476515977528416"><ele>206.0</ele><time>2026-04-30T14:49:41.001Z</time></trkpt><trkpt lat="43.200480586320474" lon="11.476389099736375"><ele>206.0</ele><time>2026-04-30T14:49:42.001Z</time></trkpt><trkpt lat="43.20034950267161" lon="11.476242974720067"><ele>206.0</ele><time>2026-04-30T14:49:43.001Z</time></trkpt><trkpt lat="43.20023007700277" lon="11.476114471443216"><ele>206.0</ele><time>2026-04-30T14:49:44.001Z</time></trkpt><trkpt lat="43.20013948096979" lon="11.476020114175885"><ele>206.0</ele><time>2026-04-30T14:49:45.001Z</time></trkpt><trkpt lat="43.20006082810279" lon="11.475959785400207"><ele>206.0</ele><time>2026-04-30T14:49:46.001Z</time></trkpt><trkpt lat="43.20000119270496" lon="11.475866057960333"><ele>206.0</ele><time>2026-04-30T14:49:47.001Z</time></trkpt><trkpt lat="43.199901333374804" lon="11.475781560190919"><ele>204.25</ele><time>2026-04-30T14:49:48.001Z</time></trkpt><trkpt lat="43.19977258089522" lon="11.475718221869679"><ele>202.5</ele><time>2026-04-30T14:49:49.001Z</time></trkpt><trkpt lat="43.19966933334058" lon="11.475622638918486"><ele>200.75</ele><time>2026-04-30T14:49:50.001Z</time></trkpt><trkpt lat="43.19956528837518" lon="11.475542056142345"><ele>199.0</ele><time>2026-04-30T14:49:51.001Z</time></trkpt><trkpt lat="43.19947737708129" lon="11.475403285104507"><ele>199.0</ele><time>2026-04-30T14:49:52.001Z</time></trkpt><trkpt lat="43.199376580603776" lon="11.475281695793534"><ele>199.0</ele><time>2026-04-30T14:49:53.001Z</time></trkpt><trkpt lat="43.19929536613117" lon="11.47514301477141"><ele>199.0</ele><time>2026-04-30T14:49:54.001Z</time></trkpt><trkpt lat="43.199206992310046" lon="11.474966812327711"><ele>199.0</ele><time>2026-04-30T14:49:55.001Z</time></trkpt><trkpt lat="43.199126085437136" lon="11.474811708349423"><ele>199.0</ele><time>2026-04-30T14:49:56.001Z</time></trkpt><trkpt lat="43.199052983477245" lon="11.474675125936324"><ele>199.0</ele><time>2026-04-30T14:49:57.001Z</time></trkpt><trkpt lat="43.19897728754442" lon="11.474537988199216"><ele>199.0</ele><time>2026-04-30T14:49:58.001Z</time></trkpt><trkpt lat="43.19890972163909" lon="11.474404024088077"><ele>199.0</ele><time>2026-04-30T14:49:59.001Z</time></trkpt><trkpt lat="43.19887223847134" lon="11.474243548481367"><ele>200.5</ele><time>2026-04-30T14:50:00.001Z</time></trkpt><trkpt lat="43.19886064340824" lon="11.474038955553663"><ele>202.0</ele><time>2026-04-30T14:50:01.001Z</time></trkpt><trkpt lat="43.198890790480206" lon="11.473826208484773"><ele>203.5</ele><time>2026-04-30T14:50:02.001Z</time></trkpt><trkpt lat="43.19887290121915" lon="11.473671354159277"><ele>205.0</ele><time>2026-04-30T14:50:03.001Z</time></trkpt><trkpt lat="43.1988505537683" lon="11.473539926590318"><ele>207.25</ele><time>2026-04-30T14:50:04.001Z</time></trkpt><trkpt lat="43.19879904009134" lon="11.47339444221641"><ele>209.5</ele><time>2026-04-30T14:50:05.001Z</time></trkpt><trkpt lat="43.19872288057214" lon="11.47323269684506"><ele>211.75</ele><time>2026-04-30T14:50:06.001Z</time></trkpt><trkpt lat="43.19865106956526" lon="11.473090169707326"><ele>214.0</ele><time>2026-04-30T14:50:07.001Z</time></trkpt><trkpt lat="43.19858706619105" lon="11.472981509187454"><ele>213.79999999999998</ele><time>2026-04-30T14:50:08.001Z</time></trkpt><trkpt lat="43.198557521235884" lon="11.472858368632926"><ele>213.59999999999997</ele><time>2026-04-30T14:50:09.001Z</time></trkpt><trkpt lat="43.198534111758235" lon="11.472753140705727"><ele>213.4</ele><time>2026-04-30T14:50:10.001Z</time></trkpt><trkpt lat="43.19852203549768" lon="11.472611416921888"><ele>213.2</ele><time>2026-04-30T14:50:11.001Z</time></trkpt><trkpt lat="43.19852820071524" lon="11.472436288398702"><ele>213.0</ele><time>2026-04-30T14:50:12.001Z</time></trkpt><trkpt lat="43.19855624819139" lon="11.472216247673142"><ele>212.25</ele><time>2026-04-30T14:50:13.001Z</time></trkpt><trkpt lat="43.198572662206935" lon="11.472021859884835"><ele>211.5</ele><time>2026-04-30T14:50:14.001Z</time></trkpt><trkpt lat="43.198572127884724" lon="11.471859661094687"><ele>210.75</ele><time>2026-04-30T14:50:15.001Z</time></trkpt><trkpt lat="43.19855075031418" lon="11.47171470132058"><ele>210.0</ele><time>2026-04-30T14:50:16.001Z</time></trkpt><trkpt lat="43.198531152254596" lon="11.47156771824138"><ele>210.0</ele><time>2026-04-30T14:50:17.001Z</time></trkpt><trkpt lat="43.19849305541772" lon="11.471431069198552"><ele>210.0</ele><time>2026-04-30T14:50:18.001Z</time></trkpt><trkpt lat="43.198454955254206" lon="11.471311017464277"><ele>210.0</ele><time>2026-04-30T14:50:19.001Z</time></trkpt><trkpt lat="43.198401241574" lon="11.471222494808906"><ele>210.0</ele><time>2026-04-30T14:50:20.001Z</time></trkpt><trkpt lat="43.19836617409602" lon="11.471130698150933"><ele>210.0</ele><time>2026-04-30T14:50:21.001Z</time></trkpt><trkpt lat="43.198292069854055" lon="11.470999660071357"><ele>209.14285714285714</ele><time>2026-04-30T14:50:23.001Z</time></trkpt><trkpt lat="43.198242586150194" lon="11.470939814011155"><ele>208.28571428571428</ele><time>2026-04-30T14:50:24.001Z</time></trkpt><trkpt lat="43.19819088094797" lon="11.470870233311809"><ele>207.42857142857144</ele><time>2026-04-30T14:50:25.001Z</time></trkpt><trkpt lat="43.19812993509772" lon="11.470800360254342"><ele>206.57142857142856</ele><time>2026-04-30T14:50:26.001Z</time></trkpt><trkpt lat="43.19807323094295" lon="11.470728433026226"><ele>205.71428571428572</ele><time>2026-04-30T14:50:27.001Z</time></trkpt><trkpt lat="43.19801218984444" lon="11.470677041290562"><ele>204.85714285714286</ele><time>2026-04-30T14:50:28.001Z</time></trkpt><trkpt lat="43.19795535471896" lon="11.470634229453152"><ele>204.0</ele><time>2026-04-30T14:50:29.001Z</time></trkpt><trkpt lat="43.197891927924736" lon="11.470603528948093"><ele>203.33333333333334</ele><time>2026-04-30T14:50:30.001Z</time></trkpt><trkpt lat="43.19781437408241" lon="11.470586849745468"><ele>202.66666666666669</ele><time>2026-04-30T14:50:31.001Z</time></trkpt><trkpt lat="43.19773997210324" lon="11.47057220108684"><ele>202.0</ele><time>2026-04-30T14:50:32.001Z</time></trkpt><trkpt lat="43.197670982537524" lon="11.470555798216122"><ele>201.33333333333334</ele><time>2026-04-30T14:50:33.001Z</time></trkpt><trkpt lat="43.197600953846404" lon="11.470537858687734"><ele>200.66666666666669</ele><time>2026-04-30T14:50:34Z</time></trkpt><trkpt lat="43.197533448171924" lon="11.470523193351939"><ele>200.0</ele><time>2026-04-30T14:50:35Z</time></trkpt><trkpt lat="43.19744363517354" lon="11.470504401832166"><ele>200.00000000000003</ele><time>2026-04-30T14:50:36Z</time></trkpt><trkpt lat="43.19736904799793" lon="11.470447101622495"><ele>200.0</ele><time>2026-04-30T14:50:37Z</time></trkpt><trkpt lat="43.19732930255489" lon="11.470345241819583"><ele>200.0</ele><time>2026-04-30T14:50:38Z</time></trkpt><trkpt lat="43.19729680157406" lon="11.470237684424466"><ele>200.0</ele><time>2026-04-30T14:50:39Z</time></trkpt><trkpt lat="43.19725959887158" lon="11.470144206288415"><ele>200.00000000000003</ele><time>2026-04-30T14:50:40Z</time></trkpt><trkpt lat="43.19723037952955" lon="11.470065781252801"><ele>200.0</ele><time>2026-04-30T14:50:41Z</time></trkpt><trkpt lat="43.19717414351565" lon="11.469947285898472"><ele>196.4</ele><time>2026-04-30T14:50:43Z</time></trkpt><trkpt lat="43.19712506172289" lon="11.469799359576902"><ele>192.8</ele><time>2026-04-30T14:50:45Z</time></trkpt><trkpt lat="43.19705932686849" lon="11.469648525637014"><ele>189.2</ele><time>2026-04-30T14:50:47Z</time></trkpt><trkpt lat="43.19699750193845" lon="11.469501877964047"><ele>185.6</ele><time>2026-04-30T14:50:49Z</time></trkpt><trkpt lat="43.196957988664956" lon="11.469420553915175"><ele>182.0</ele><time>2026-04-30T14:50:50Z</time></trkpt><trkpt lat="43.19690523355654" lon="11.469298517401572"><ele>181.83333333333331</ele><time>2026-04-30T14:50:52Z</time></trkpt><trkpt lat="43.19683637132826" lon="11.469189403361284"><ele>181.66666666666666</ele><time>2026-04-30T14:50:54Z</time></trkpt><trkpt lat="43.19676573229397" lon="11.469113876460085"><ele>181.5</ele><time>2026-04-30T14:50:55Z</time></trkpt><trkpt lat="43.196709465542575" lon="11.469027760585947"><ele>181.33333333333334</ele><time>2026-04-30T14:50:56Z</time></trkpt><trkpt lat="43.19666565660314" lon="11.468936993825388"><ele>181.16666666666669</ele><time>2026-04-30T14:50:57Z</time></trkpt><trkpt lat="43.19663089670597" lon="11.468834291041095"><ele>181.0</ele><time>2026-04-30T14:50:58Z</time></trkpt><trkpt lat="43.1966159742262" lon="11.468707038141169"><ele>179.8</ele><time>2026-04-30T14:50:59Z</time></trkpt><trkpt lat="43.19661182713288" lon="11.468584522107578"><ele>178.60000000000002</ele><time>2026-04-30T14:51:00Z</time></trkpt><trkpt lat="43.196582346134214" lon="11.468483140015046"><ele>177.4</ele><time>2026-04-30T14:51:01Z</time></trkpt><trkpt lat="43.19653674270142" lon="11.468361521653684"><ele>176.2</ele><time>2026-04-30T14:51:02Z</time></trkpt><trkpt lat="43.196451242305436" lon="11.468221996061313"><ele>175.0</ele><time>2026-04-30T14:51:03Z</time></trkpt><trkpt lat="43.196375942741824" lon="11.468101299578683"><ele>173.4</ele><time>2026-04-30T14:51:04Z</time></trkpt><trkpt lat="43.196304086999845" lon="11.467994537496386"><ele>171.8</ele><time>2026-04-30T14:51:05Z</time></trkpt><trkpt lat="43.19622317203819" lon="11.467898529491343"><ele>170.2</ele><time>2026-04-30T14:51:06Z</time></trkpt><trkpt lat="43.196144396644186" lon="11.467793196595897"><ele>168.6</ele><time>2026-04-30T14:51:07Z</time></trkpt><trkpt lat="43.1960509922906" lon="11.46772199966689"><ele>167.0</ele><time>2026-04-30T14:51:08Z</time></trkpt><trkpt lat="43.19594626262652" lon="11.467676182654488"><ele>166.66666666666666</ele><time>2026-04-30T14:51:09Z</time></trkpt><trkpt lat="43.19585322941309" lon="11.467649803820446"><ele>166.33333333333331</ele><time>2026-04-30T14:51:10Z</time></trkpt><trkpt lat="43.19577691193922" lon="11.467621712747798"><ele>166.0</ele><time>2026-04-30T14:51:11Z</time></trkpt><trkpt lat="43.19571075489232" lon="11.467586784059737"><ele>165.66666666666666</ele><time>2026-04-30T14:51:12Z</time></trkpt><trkpt lat="43.19563199874444" lon="11.467533984196692"><ele>165.33333333333334</ele><time>2026-04-30T14:51:13Z</time></trkpt><trkpt lat="43.1955729028067" lon="11.46746585210037"><ele>165.0</ele><time>2026-04-30T14:51:14Z</time></trkpt><trkpt lat="43.19551587323641" lon="11.467357012257688"><ele>164.0</ele><time>2026-04-30T14:51:15Z</time></trkpt><trkpt lat="43.19549917278841" lon="11.467223890712248"><ele>163.0</ele><time>2026-04-30T14:51:16Z</time></trkpt><trkpt lat="43.195486482409265" lon="11.467095176163733"><ele>162.0</ele><time>2026-04-30T14:51:17Z</time></trkpt><trkpt lat="43.19547078340131" lon="11.46695734292918"><ele>161.0</ele><time>2026-04-30T14:51:18Z</time></trkpt><trkpt lat="43.19545172736755" lon="11.466813417738411"><ele>160.0</ele><time>2026-04-30T14:51:19Z</time></trkpt><trkpt lat="43.19543739696074" lon="11.466666271300316"><ele>159.5</ele><time>2026-04-30T14:51:20Z</time></trkpt><trkpt lat="43.19542263311732" lon="11.46653327319344"><ele>159.0</ele><time>2026-04-30T14:51:21Z</time></trkpt><trkpt lat="43.1953261174712" lon="11.46629691621237"><ele>158.5</ele><time>2026-04-30T14:51:23Z</time></trkpt><trkpt lat="43.19525610900875" lon="11.46620041672679"><ele>158.0</ele><time>2026-04-30T14:51:24Z</time></trkpt><trkpt lat="43.19518447583997" lon="11.466125220059393"><ele>157.5</ele><time>2026-04-30T14:51:25Z</time></trkpt><trkpt lat="43.19513196262015" lon="11.466029318164484"><ele>157.0</ele><time>2026-04-30T14:51:26Z</time></trkpt><trkpt lat="43.19507359330515" lon="11.465957151585075"><ele>156.5</ele><time>2026-04-30T14:51:27Z</time></trkpt><trkpt lat="43.19501752237773" lon="11.465887121663192"><ele>156.0</ele><time>2026-04-30T14:51:28Z</time></trkpt><trkpt lat="43.19495412618897" lon="11.465828752035822"><ele>155.5</ele><time>2026-04-30T14:51:29Z</time></trkpt><trkpt lat="43.194916776186616" lon="11.465726986793229"><ele>155.0</ele><time>2026-04-30T14:51:30Z</time></trkpt><trkpt lat="43.19489430168153" lon="11.465636967152097"><ele>154.33333333333331</ele><time>2026-04-30T14:51:31Z</time></trkpt><trkpt lat="43.194962675051755" lon="11.465396381468217"><ele>153.66666666666666</ele><time>2026-04-30T14:51:33Z</time></trkpt><trkpt lat="43.195030470267106" lon="11.465238000322712"><ele>153.0</ele><time>2026-04-30T14:51:34Z</time></trkpt><trkpt lat="43.19510697393062" lon="11.465071572176777"><ele>153.0</ele><time>2026-04-30T14:51:35Z</time></trkpt><trkpt lat="43.19517364183973" lon="11.464911291024428"><ele>153.0</ele><time>2026-04-30T14:51:36Z</time></trkpt><trkpt lat="43.19524613479012" lon="11.464728304739948"><ele>153.0</ele><time>2026-04-30T14:51:37Z</time></trkpt><trkpt lat="43.1953157492964" lon="11.46453890141761"><ele>153.0</ele><time>2026-04-30T14:51:38Z</time></trkpt><trkpt lat="43.19539652864719" lon="11.464328082710878"><ele>152.33333333333334</ele><time>2026-04-30T14:51:39Z</time></trkpt><trkpt lat="43.195491917231905" lon="11.46413723091308"><ele>151.66666666666669</ele><time>2026-04-30T14:51:40Z</time></trkpt><trkpt lat="43.19557343064898" lon="11.463938968598821"><ele>151.0</ele><time>2026-04-30T14:51:41Z</time></trkpt><trkpt lat="43.195640120895995" lon="11.463744337119335"><ele>150.75</ele><time>2026-04-30T14:51:42Z</time></trkpt><trkpt lat="43.19571600339454" lon="11.46355892199622"><ele>150.5</ele><time>2026-04-30T14:51:43Z</time></trkpt><trkpt lat="43.19578323627462" lon="11.463385273565548"><ele>150.25</ele><time>2026-04-30T14:51:44Z</time></trkpt><trkpt lat="43.1958772211007" lon="11.46323054429209"><ele>150.0</ele><time>2026-04-30T14:51:45Z</time></trkpt><trkpt lat="43.195981365232285" lon="11.463066093317765"><ele>150.25</ele><time>2026-04-30T14:51:46.001Z</time></trkpt><trkpt lat="43.19606582996385" lon="11.462877170055545"><ele>150.5</ele><time>2026-04-30T14:51:47.001Z</time></trkpt><trkpt lat="43.196144359157316" lon="11.46271701651691"><ele>150.75</ele><time>2026-04-30T14:51:48.001Z</time></trkpt><trkpt lat="43.19622807641055" lon="11.462559964355751"><ele>151.0</ele><time>2026-04-30T14:51:49.001Z</time></trkpt><trkpt lat="43.196305681517146" lon="11.462382535453727"><ele>151.0</ele><time>2026-04-30T14:51:50.001Z</time></trkpt><trkpt lat="43.19636301242819" lon="11.462234562095686"><ele>151.0</ele><time>2026-04-30T14:51:51.001Z</time></trkpt><trkpt lat="43.19642709348116" lon="11.462098434280765"><ele>151.0</ele><time>2026-04-30T14:51:52.001Z</time></trkpt><trkpt lat="43.19650813413445" lon="11.461963917559428"><ele>151.0</ele><time>2026-04-30T14:51:53.001Z</time></trkpt><trkpt lat="43.19654070153312" lon="11.461798893632857"><ele>152.0</ele><time>2026-04-30T14:51:54.001Z</time></trkpt><trkpt lat="43.1966006849524" lon="11.461648156071883"><ele>153.0</ele><time>2026-04-30T14:51:55.001Z</time></trkpt><trkpt lat="43.19667701663286" lon="11.461524782288778"><ele>154.0</ele><time>2026-04-30T14:51:56.001Z</time></trkpt><trkpt lat="43.196758127747295" lon="11.461419108462916"><ele>155.0</ele><time>2026-04-30T14:51:57.001Z</time></trkpt><trkpt lat="43.196825226263954" lon="11.461285135714835"><ele>155.25</ele><time>2026-04-30T14:51:58.001Z</time></trkpt><trkpt lat="43.19691592418473" lon="11.461156933513077"><ele>155.5</ele><time>2026-04-30T14:51:59.001Z</time></trkpt><trkpt lat="43.19701003893735" lon="11.461024724382884"><ele>155.75</ele><time>2026-04-30T14:52:00.001Z</time></trkpt><trkpt lat="43.19709244534968" lon="11.46089793686879"><ele>156.0</ele><time>2026-04-30T14:52:01.001Z</time></trkpt><trkpt lat="43.19717741500323" lon="11.460763826863039"><ele>156.0</ele><time>2026-04-30T14:52:02.001Z</time></trkpt><trkpt lat="43.19726110680573" lon="11.460630158047874"><ele>156.0</ele><time>2026-04-30T14:52:03.001Z</time></trkpt><trkpt lat="43.19734832599724" lon="11.460494712725328"><ele>156.0</ele><time>2026-04-30T14:52:04.001Z</time></trkpt><trkpt lat="43.19743685138246" lon="11.460360944359891"><ele>156.0</ele><time>2026-04-30T14:52:05.001Z</time></trkpt><trkpt lat="43.1975246869302" lon="11.46022475111705"><ele>155.75</ele><time>2026-04-30T14:52:06.001Z</time></trkpt><trkpt lat="43.19761196247876" lon="11.460081722095067"><ele>155.5</ele><time>2026-04-30T14:52:07.001Z</time></trkpt><trkpt lat="43.19769902565117" lon="11.459947020804755"><ele>155.25</ele><time>2026-04-30T14:52:08.001Z</time></trkpt><trkpt lat="43.19778594142891" lon="11.459812406905169"><ele>155.0</ele><time>2026-04-30T14:52:09.001Z</time></trkpt><trkpt lat="43.19786984257325" lon="11.459678664516083"><ele>155.0</ele><time>2026-04-30T14:52:10.001Z</time></trkpt><trkpt lat="43.19795504200179" lon="11.459550128176845"><ele>155.0</ele><time>2026-04-30T14:52:11.001Z</time></trkpt><trkpt lat="43.19803041607201" lon="11.459417543779335"><ele>155.0</ele><time>2026-04-30T14:52:12.001Z</time></trkpt><trkpt lat="43.19810612597055" lon="11.459288421704043"><ele>155.0</ele><time>2026-04-30T14:52:13.001Z</time></trkpt><trkpt lat="43.198189239860675" lon="11.45915444402911"><ele>156.0</ele><time>2026-04-30T14:52:14.001Z</time></trkpt><trkpt lat="43.198288826121946" lon="11.458979027644716"><ele>157.0</ele><time>2026-04-30T14:52:15.001Z</time></trkpt><trkpt lat="43.19839939121317" lon="11.458795945795423"><ele>158.0</ele><time>2026-04-30T14:52:16.001Z</time></trkpt><trkpt lat="43.19849821329393" lon="11.458637972710111"><ele>158.4</ele><time>2026-04-30T14:52:17.001Z</time></trkpt><trkpt lat="43.19859428464779" lon="11.458496321901798"><ele>158.8</ele><time>2026-04-30T14:52:18.001Z</time></trkpt><trkpt lat="43.19866255025189" lon="11.458382415660557"><ele>159.2</ele><time>2026-04-30T14:52:19.001Z</time></trkpt><trkpt lat="43.198729987796824" lon="11.458281583489512"><ele>159.6</ele><time>2026-04-30T14:52:20.001Z</time></trkpt><trkpt lat="43.19878910361385" lon="11.458187430655123"><ele>160.0</ele><time>2026-04-30T14:52:21.001Z</time></trkpt><trkpt lat="43.198846679579844" lon="11.45811210989722"><ele>160.0</ele><time>2026-04-30T14:52:22.001Z</time></trkpt><trkpt lat="43.19890084999639" lon="11.45806346125517"><ele>160.0</ele><time>2026-04-30T14:52:23.001Z</time></trkpt><trkpt lat="43.19894972433468" lon="11.457994153877559"><ele>160.0</ele><time>2026-04-30T14:52:24.001Z</time></trkpt><trkpt lat="43.19901107036396" lon="11.457923747593346"><ele>160.0</ele><time>2026-04-30T14:52:25.001Z</time></trkpt><trkpt lat="43.19907704050749" lon="11.457822991392772"><ele>160.0</ele><time>2026-04-30T14:52:26.001Z</time></trkpt><trkpt lat="43.199150345194376" lon="11.45773389183333"><ele>160.0</ele><time>2026-04-30T14:52:27.001Z</time></trkpt><trkpt lat="43.19922809984106" lon="11.45765700456183"><ele>161.0</ele><time>2026-04-30T14:52:28.001Z</time></trkpt><trkpt lat="43.199296951871574" lon="11.457578352849563"><ele>162.0</ele><time>2026-04-30T14:52:29.001Z</time></trkpt><trkpt lat="43.199367543893686" lon="11.457492635841277"><ele>163.0</ele><time>2026-04-30T14:52:30.001Z</time></trkpt><trkpt lat="43.199442717750784" lon="11.45741596334971"><ele>164.0</ele><time>2026-04-30T14:52:31.001Z</time></trkpt><trkpt lat="43.19951609651534" lon="11.457334680537118"><ele>165.0</ele><time>2026-04-30T14:52:32.001Z</time></trkpt><trkpt lat="43.19959066615563" lon="11.457244895998992"><ele>165.0</ele><time>2026-04-30T14:52:33.001Z</time></trkpt><trkpt lat="43.19965148937347" lon="11.457164498218887"><ele>165.0</ele><time>2026-04-30T14:52:34.001Z</time></trkpt><trkpt lat="43.19971537648369" lon="11.45708506397395"><ele>165.0</ele><time>2026-04-30T14:52:35.001Z</time></trkpt><trkpt lat="43.19977072630373" lon="11.457017228387551"><ele>165.0</ele><time>2026-04-30T14:52:36.001Z</time></trkpt><trkpt lat="43.199818232527534" lon="11.456944044981519"><ele>165.0</ele><time>2026-04-30T14:52:37.001Z</time></trkpt><trkpt lat="43.199922127429595" lon="11.456779914264096"><ele>165.2</ele><time>2026-04-30T14:52:39.001Z</time></trkpt><trkpt lat="43.200000979591266" lon="11.456684599281056"><ele>165.4</ele><time>2026-04-30T14:52:40Z</time></trkpt><trkpt lat="43.200092089778096" lon="11.456578004660344"><ele>165.60000000000002</ele><time>2026-04-30T14:52:41Z</time></trkpt><trkpt lat="43.20016797974054" lon="11.45647699466399"><ele>165.8</ele><time>2026-04-30T14:52:42Z</time></trkpt><trkpt lat="43.200233921965186" lon="11.456398625768982"><ele>166.0</ele><time>2026-04-30T14:52:43Z</time></trkpt><trkpt lat="43.20030841582685" lon="11.456308629822018"><ele>164.8</ele><time>2026-04-30T14:52:44Z</time></trkpt><trkpt lat="43.200375548961354" lon="11.45620276315919"><ele>163.60000000000002</ele><time>2026-04-30T14:52:45Z</time></trkpt><trkpt lat="43.20044429382938" lon="11.4560995710665"><ele>162.4</ele><time>2026-04-30T14:52:46Z</time></trkpt><trkpt lat="43.20051820825406" lon="11.455990092813007"><ele>161.2</ele><time>2026-04-30T14:52:47Z</time></trkpt><trkpt lat="43.200585593555736" lon="11.455890636459133"><ele>160.0</ele><time>2026-04-30T14:52:48Z</time></trkpt><trkpt lat="43.20064024852103" lon="11.45581049685919"><ele>160.5</ele><time>2026-04-30T14:52:49Z</time></trkpt><trkpt lat="43.200695397049685" lon="11.455723804858433"><ele>161.0</ele><time>2026-04-30T14:52:50Z</time></trkpt><trkpt lat="43.200745001751734" lon="11.455650430330495"><ele>161.5</ele><time>2026-04-30T14:52:51Z</time></trkpt><trkpt lat="43.20080432711818" lon="11.455580579970624"><ele>162.0</ele><time>2026-04-30T14:52:52Z</time></trkpt><trkpt lat="43.2008801136861" lon="11.45548735649602"><ele>162.5</ele><time>2026-04-30T14:52:53Z</time></trkpt><trkpt lat="43.200943296039085" lon="11.455392911465223"><ele>163.0</ele><time>2026-04-30T14:52:54Z</time></trkpt><trkpt lat="43.20098744453232" lon="11.45527969167283"><ele>163.0</ele><time>2026-04-30T14:52:55Z</time></trkpt><trkpt lat="43.2009954484602" lon="11.455129512813429"><ele>163.0</ele><time>2026-04-30T14:52:56Z</time></trkpt><trkpt lat="43.20098465393903" lon="11.454966118334635"><ele>163.0</ele><time>2026-04-30T14:52:57Z</time></trkpt><trkpt lat="43.200978800851054" lon="11.454813051407802"><ele>163.0</ele><time>2026-04-30T14:52:58Z</time></trkpt><trkpt lat="43.2009749710632" lon="11.454679789605384"><ele>163.0</ele><time>2026-04-30T14:52:59Z</time></trkpt><trkpt lat="43.20098226782895" lon="11.454540152460734"><ele>162.0</ele><time>2026-04-30T14:53:00Z</time></trkpt><trkpt lat="43.200976603555915" lon="11.454374986079927"><ele>161.0</ele><time>2026-04-30T14:53:01Z</time></trkpt><trkpt lat="43.20094758626301" lon="11.45420877433634"><ele>160.0</ele><time>2026-04-30T14:53:02Z</time></trkpt><trkpt lat="43.200911781889396" lon="11.454036851776964"><ele>159.0</ele><time>2026-04-30T14:53:03Z</time></trkpt><trkpt lat="43.20088376106714" lon="11.453815648705303"><ele>157.25</ele><time>2026-04-30T14:53:04Z</time></trkpt><trkpt lat="43.200880716765774" lon="11.453627746625301"><ele>155.5</ele><time>2026-04-30T14:53:05Z</time></trkpt><trkpt lat="43.20088492761035" lon="11.453458911000299"><ele>153.75</ele><time>2026-04-30T14:53:06Z</time></trkpt><trkpt lat="43.20088748923989" lon="11.45330105551829"><ele>152.0</ele><time>2026-04-30T14:53:07Z</time></trkpt><trkpt lat="43.20088827195616" lon="11.453147689771372"><ele>152.0</ele><time>2026-04-30T14:53:08Z</time></trkpt><trkpt lat="43.20087911245716" lon="11.452989043315588"><ele>152.0</ele><time>2026-04-30T14:53:09Z</time></trkpt><trkpt lat="43.20083960459994" lon="11.452844348846737"><ele>152.0</ele><time>2026-04-30T14:53:10Z</time></trkpt><trkpt lat="43.20077918235744" lon="11.452715861973346"><ele>152.0</ele><time>2026-04-30T14:53:11Z</time></trkpt><trkpt lat="43.20072889849633" lon="11.452622354470488"><ele>152.0</ele><time>2026-04-30T14:53:12Z</time></trkpt><trkpt lat="43.20068759484251" lon="11.452534123467123"><ele>152.16666666666666</ele><time>2026-04-30T14:53:13Z</time></trkpt><trkpt lat="43.200653868264816" lon="11.452437589702754"><ele>152.33333333333331</ele><time>2026-04-30T14:53:14Z</time></trkpt><trkpt lat="43.20062866257314" lon="11.452335979508165"><ele>152.5</ele><time>2026-04-30T14:53:15Z</time></trkpt><trkpt lat="43.20060644806367" lon="11.45224007081658"><ele>152.66666666666666</ele><time>2026-04-30T14:53:16Z</time></trkpt><trkpt lat="43.20058872450411" lon="11.452136699445553"><ele>152.83333333333334</ele><time>2026-04-30T14:53:17Z</time></trkpt><trkpt lat="43.20057246294586" lon="11.45202326193648"><ele>153.0</ele><time>2026-04-30T14:53:18Z</time></trkpt><trkpt lat="43.20054423729762" lon="11.451883462247634"><ele>153.25</ele><time>2026-04-30T14:53:19Z</time></trkpt><trkpt lat="43.20052101276024" lon="11.451762486714525"><ele>153.5</ele><time>2026-04-30T14:53:20Z</time></trkpt><trkpt lat="43.20049264937366" lon="11.451622283866206"><ele>153.75</ele><time>2026-04-30T14:53:21Z</time></trkpt><trkpt lat="43.20045392559363" lon="11.45144673584062"><ele>154.0</ele><time>2026-04-30T14:53:22Z</time></trkpt><trkpt lat="43.20041255870923" lon="11.451233311910014"><ele>154.66666666666669</ele><time>2026-04-30T14:53:23Z</time></trkpt><trkpt lat="43.2003544083447" lon="11.451014668829039"><ele>155.33333333333334</ele><time>2026-04-30T14:53:24Z</time></trkpt><trkpt lat="43.20029544239289" lon="11.450767815868627"><ele>156.0</ele><time>2026-04-30T14:53:25Z</time></trkpt><trkpt lat="43.20023306216999" lon="11.45050522882931"><ele>156.0</ele><time>2026-04-30T14:53:26Z</time></trkpt><trkpt lat="43.20017284754828" lon="11.4502430672368"><ele>156.0</ele><time>2026-04-30T14:53:27Z</time></trkpt><trkpt lat="43.20010838649522" lon="11.44995057977632"><ele>156.0</ele><time>2026-04-30T14:53:28Z</time></trkpt><trkpt lat="43.200036321497414" lon="11.449649752293269"><ele>156.0</ele><time>2026-04-30T14:53:29Z</time></trkpt><trkpt lat="43.19997022740483" lon="11.449377314878216"><ele>156.0</ele><time>2026-04-30T14:53:30Z</time></trkpt><trkpt lat="43.19990675744299" lon="11.44911734373048"><ele>156.0</ele><time>2026-04-30T14:53:31Z</time></trkpt><trkpt lat="43.199842135384316" lon="11.44886821569107"><ele>155.66666666666666</ele><time>2026-04-30T14:53:32Z</time></trkpt><trkpt lat="43.19978029213707" lon="11.448619240317583"><ele>155.33333333333331</ele><time>2026-04-30T14:53:33Z</time></trkpt><trkpt lat="43.19972317405913" lon="11.448369647085578"><ele>155.0</ele><time>2026-04-30T14:53:34Z</time></trkpt><trkpt lat="43.199665547568145" lon="11.448112055162625"><ele>155.0</ele><time>2026-04-30T14:53:35Z</time></trkpt><trkpt lat="43.19960958802886" lon="11.447886151121804"><ele>155.0</ele><time>2026-04-30T14:53:36Z</time></trkpt><trkpt lat="43.1995567782921" lon="11.447659279587759"><ele>155.0</ele><time>2026-04-30T14:53:37Z</time></trkpt><trkpt lat="43.199497963512435" lon="11.44742258443908"><ele>155.0</ele><time>2026-04-30T14:53:38Z</time></trkpt><trkpt lat="43.19944388095105" lon="11.447197298155903"><ele>155.0</ele><time>2026-04-30T14:53:39Z</time></trkpt><trkpt lat="43.199381748581" lon="11.446959004648464"><ele>155.0</ele><time>2026-04-30T14:53:40Z</time></trkpt><trkpt lat="43.19932593252429" lon="11.446722691489024"><ele>155.0</ele><time>2026-04-30T14:53:41Z</time></trkpt><trkpt lat="43.199270689376" lon="11.446485146457379"><ele>155.0</ele><time>2026-04-30T14:53:42Z</time></trkpt><trkpt lat="43.199218205656315" lon="11.44626110523717"><ele>155.0</ele><time>2026-04-30T14:53:43Z</time></trkpt><trkpt lat="43.19916307911024" lon="11.446035313347538"><ele>155.0</ele><time>2026-04-30T14:53:44Z</time></trkpt><trkpt lat="43.19910511054535" lon="11.44581066180793"><ele>155.0</ele><time>2026-04-30T14:53:45Z</time></trkpt><trkpt lat="43.19905371490279" lon="11.445591328628545"><ele>155.0</ele><time>2026-04-30T14:53:46Z</time></trkpt><trkpt lat="43.199001886067144" lon="11.445372827416593"><ele>155.33333333333331</ele><time>2026-04-30T14:53:47Z</time></trkpt><trkpt lat="43.1989506309008" lon="11.445158127133693"><ele>155.66666666666666</ele><time>2026-04-30T14:53:48Z</time></trkpt><trkpt lat="43.198899392673894" lon="11.44494529455093"><ele>156.0</ele><time>2026-04-30T14:53:49Z</time></trkpt><trkpt lat="43.19885119178446" lon="11.4447395909222"><ele>156.25</ele><time>2026-04-30T14:53:50Z</time></trkpt><trkpt lat="43.19880862618124" lon="11.444542969256542"><ele>156.5</ele><time>2026-04-30T14:53:51Z</time></trkpt><trkpt lat="43.198762721776575" lon="11.444369019890708"><ele>156.75</ele><time>2026-04-30T14:53:52Z</time></trkpt><trkpt lat="43.198718269065374" lon="11.444209975478659"><ele>157.0</ele><time>2026-04-30T14:53:53Z</time></trkpt><trkpt lat="43.19867854467806" lon="11.444057519273668"><ele>157.0</ele><time>2026-04-30T14:53:54Z</time></trkpt><trkpt lat="43.198650590053134" lon="11.44390969458532"><ele>157.0</ele><time>2026-04-30T14:53:55Z</time></trkpt><trkpt lat="43.19862112790289" lon="11.443770761299755"><ele>157.0</ele><time>2026-04-30T14:53:56Z</time></trkpt><trkpt lat="43.19858305973115" lon="11.44364633396685"><ele>157.0</ele><time>2026-04-30T14:53:57Z</time></trkpt><trkpt lat="43.198553397739175" lon="11.443534993604986"><ele>157.0</ele><time>2026-04-30T14:53:58Z</time></trkpt><trkpt lat="43.19852973246017" lon="11.443439377887124"><ele>157.2</ele><time>2026-04-30T14:53:59Z</time></trkpt><trkpt lat="43.19853240110928" lon="11.443351967409678"><ele>157.39999999999998</ele><time>2026-04-30T14:54:01Z</time></trkpt><trkpt lat="43.19860328124687" lon="11.443327700742662"><ele>157.60000000000002</ele><time>2026-04-30T14:54:02Z</time></trkpt><trkpt lat="43.19869279838209" lon="11.443316336657263"><ele>157.8</ele><time>2026-04-30T14:54:03Z</time></trkpt><trkpt lat="43.19881932026546" lon="11.443279864063724"><ele>158.0</ele><time>2026-04-30T14:54:04Z</time></trkpt><trkpt lat="43.198984458657804" lon="11.443230848255709"><ele>157.66666666666666</ele><time>2026-04-30T14:54:05Z</time></trkpt><trkpt lat="43.199163375354765" lon="11.443195419606848"><ele>157.33333333333334</ele><time>2026-04-30T14:54:06Z</time></trkpt><trkpt lat="43.19935797374117" lon="11.443177257650458"><ele>157.0</ele><time>2026-04-30T14:54:07Z</time></trkpt><trkpt lat="43.19955590697079" lon="11.443160298165074"><ele>157.0</ele><time>2026-04-30T14:54:08Z</time></trkpt><trkpt lat="43.1997598439871" lon="11.44314398668828"><ele>157.0</ele><time>2026-04-30T14:54:09Z</time></trkpt><trkpt lat="43.199974546248576" lon="11.443125336668828"><ele>157.0</ele><time>2026-04-30T14:54:10Z</time></trkpt><trkpt lat="43.200217913144954" lon="11.443103947480266"><ele>157.5</ele><time>2026-04-30T14:54:11Z</time></trkpt><trkpt lat="43.200468930325435" lon="11.443079465787173"><ele>158.0</ele><time>2026-04-30T14:54:12Z</time></trkpt><trkpt lat="43.200697692368266" lon="11.443058780899197"><ele>157.33333333333331</ele><time>2026-04-30T14:54:13Z</time></trkpt><trkpt lat="43.2009144270897" lon="11.443039536509103"><ele>156.66666666666666</ele><time>2026-04-30T14:54:14Z</time></trkpt><trkpt lat="43.201117031831195" lon="11.443015758770908"><ele>156.0</ele><time>2026-04-30T14:54:15Z</time></trkpt><trkpt lat="43.20131025924068" lon="11.442991271301313"><ele>156.0</ele><time>2026-04-30T14:54:16.001Z</time></trkpt><trkpt lat="43.20149953570423" lon="11.442972091809098"><ele>156.0</ele><time>2026-04-30T14:54:17.001Z</time></trkpt><trkpt lat="43.201681191859755" lon="11.44295639393899"><ele>156.0</ele><time>2026-04-30T14:54:18.001Z</time></trkpt><trkpt lat="43.20187212497058" lon="11.442939566238673"><ele>157.0</ele><time>2026-04-30T14:54:19.001Z</time></trkpt><trkpt lat="43.20206735128472" lon="11.442921009608321"><ele>158.0</ele><time>2026-04-30T14:54:20.001Z</time></trkpt><trkpt lat="43.20225475640179" lon="11.442903079708035"><ele>159.0</ele><time>2026-04-30T14:54:21.001Z</time></trkpt><trkpt lat="43.20243263306015" lon="11.44289090632191"><ele>159.33333333333334</ele><time>2026-04-30T14:54:22.001Z</time></trkpt><trkpt lat="43.20261276979127" lon="11.44287111099026"><ele>159.66666666666669</ele><time>2026-04-30T14:54:23.001Z</time></trkpt><trkpt lat="43.20279038690021" lon="11.442815450334752"><ele>160.0</ele><time>2026-04-30T14:54:24.001Z</time></trkpt><trkpt lat="43.20298139144879" lon="11.442689790949125"><ele>160.0</ele><time>2026-04-30T14:54:25.001Z</time></trkpt><trkpt lat="43.20313963541051" lon="11.442527731013437"><ele>160.0</ele><time>2026-04-30T14:54:26.001Z</time></trkpt><trkpt lat="43.20329012954382" lon="11.442317546899243"><ele>160.0</ele><time>2026-04-30T14:54:27.001Z</time></trkpt><trkpt lat="43.203445897586874" lon="11.44209649486213"><ele>160.33333333333334</ele><time>2026-04-30T14:54:28.001Z</time></trkpt><trkpt lat="43.203601681416416" lon="11.441889088996717"><ele>160.66666666666666</ele><time>2026-04-30T14:54:29.001Z</time></trkpt><trkpt lat="43.20375920316191" lon="11.441695544619606"><ele>161.0</ele><time>2026-04-30T14:54:30.001Z</time></trkpt><trkpt lat="43.20395261329834" lon="11.441490362311647"><ele>160.0</ele><time>2026-04-30T14:54:31.001Z</time></trkpt><trkpt lat="43.20417501955132" lon="11.441294083707417"><ele>159.0</ele><time>2026-04-30T14:54:32.001Z</time></trkpt><trkpt lat="43.20438590072138" lon="11.44113181007664"><ele>159.0</ele><time>2026-04-30T14:54:33.001Z</time></trkpt><trkpt lat="43.20477043652314" lon="11.440878767378859"><ele>159.0</ele><time>2026-04-30T14:54:35.001Z</time></trkpt><trkpt lat="43.20495004536954" lon="11.440772297220821"><ele>158.66666666666666</ele><time>2026-04-30T14:54:36.001Z</time></trkpt><trkpt lat="43.205120432661296" lon="11.440671795126498"><ele>158.33333333333331</ele><time>2026-04-30T14:54:37.001Z</time></trkpt><trkpt lat="43.20528312358317" lon="11.440566341294199"><ele>158.0</ele><time>2026-04-30T14:54:38.001Z</time></trkpt><trkpt lat="43.20546580592256" lon="11.440461985653824"><ele>158.0</ele><time>2026-04-30T14:54:39.001Z</time></trkpt><trkpt lat="43.20564632931189" lon="11.44035326276286"><ele>158.0</ele><time>2026-04-30T14:54:40.001Z</time></trkpt><trkpt lat="43.20583186392404" lon="11.440241972768254"><ele>158.0</ele><time>2026-04-30T14:54:41.001Z</time></trkpt><trkpt lat="43.20601947600553" lon="11.44013276887135"><ele>157.66666666666666</ele><time>2026-04-30T14:54:42.001Z</time></trkpt><trkpt lat="43.20620694790566" lon="11.440019827032767"><ele>157.33333333333334</ele><time>2026-04-30T14:54:43.001Z</time></trkpt><trkpt lat="43.20639081975814" lon="11.43990941569914"><ele>157.0</ele><time>2026-04-30T14:54:44.001Z</time></trkpt><trkpt lat="43.20656931011481" lon="11.43979918022997"><ele>157.0</ele><time>2026-04-30T14:54:45.001Z</time></trkpt><trkpt lat="43.20674291563166" lon="11.439695981718103"><ele>157.0</ele><time>2026-04-30T14:54:46Z</time></trkpt><trkpt lat="43.206910562307534" lon="11.439600217090979"><ele>157.0</ele><time>2026-04-30T14:54:47Z</time></trkpt><trkpt lat="43.20707839928457" lon="11.439498379516802"><ele>157.0</ele><time>2026-04-30T14:54:48Z</time></trkpt><trkpt lat="43.207243167121426" lon="11.43939434283097"><ele>157.0</ele><time>2026-04-30T14:54:49Z</time></trkpt><trkpt lat="43.20739888089247" lon="11.43927913957421"><ele>157.0</ele><time>2026-04-30T14:54:50Z</time></trkpt><trkpt lat="43.20753310057654" lon="11.439121096994162"><ele>157.0</ele><time>2026-04-30T14:54:51Z</time></trkpt><trkpt lat="43.20765018624416" lon="11.438895770984084"><ele>157.0</ele><time>2026-04-30T14:54:52Z</time></trkpt><trkpt lat="43.20775196680289" lon="11.438623193577433"><ele>157.0</ele><time>2026-04-30T14:54:53Z</time></trkpt><trkpt lat="43.207850765912944" lon="11.438337202999275"><ele>157.0</ele><time>2026-04-30T14:54:54Z</time></trkpt><trkpt lat="43.20793998861863" lon="11.438064955900725"><ele>157.0</ele><time>2026-04-30T14:54:55Z</time></trkpt><trkpt lat="43.20803509050274" lon="11.437786940634586"><ele>157.0</ele><time>2026-04-30T14:54:56Z</time></trkpt><trkpt lat="43.20812914462028" lon="11.437501260643046"><ele>157.5</ele><time>2026-04-30T14:54:57Z</time></trkpt><trkpt lat="43.2082281260103" lon="11.43721392069745"><ele>158.0</ele><time>2026-04-30T14:54:58Z</time></trkpt><trkpt lat="43.20832038169241" lon="11.436919971356197"><ele>158.5</ele><time>2026-04-30T14:54:59Z</time></trkpt><trkpt lat="43.20840317892286" lon="11.436614270046078"><ele>159.0</ele><time>2026-04-30T14:55:00Z</time></trkpt><trkpt lat="43.208475071910314" lon="11.436323784511085"><ele>159.0</ele><time>2026-04-30T14:55:01Z</time></trkpt><trkpt lat="43.2085403207906" lon="11.436047058989532"><ele>159.0</ele><time>2026-04-30T14:55:02Z</time></trkpt><trkpt lat="43.20860242787047" lon="11.435795834005287"><ele>159.0</ele><time>2026-04-30T14:55:03Z</time></trkpt><trkpt lat="43.20865955009046" lon="11.435554394302208"><ele>159.33333333333334</ele><time>2026-04-30T14:55:04Z</time></trkpt><trkpt lat="43.208690043682786" lon="11.435303972432227"><ele>159.66666666666669</ele><time>2026-04-30T14:55:05Z</time></trkpt><trkpt lat="43.20868944769169" lon="11.4350086003271"><ele>160.0</ele><time>2026-04-30T14:55:06Z</time></trkpt><trkpt lat="43.208653960324824" lon="11.434703449635707"><ele>161.0</ele><time>2026-04-30T14:55:07Z</time></trkpt><trkpt lat="43.20861454917673" lon="11.434444529399743"><ele>162.0</ele><time>2026-04-30T14:55:08Z</time></trkpt><trkpt lat="43.208590648171125" lon="11.43421111672229"><ele>163.0</ele><time>2026-04-30T14:55:09Z</time></trkpt><trkpt lat="43.20859378712075" lon="11.434000549189072"><ele>163.0</ele><time>2026-04-30T14:55:10Z</time></trkpt><trkpt lat="43.20864734763003" lon="11.433783257852697"><ele>163.0</ele><time>2026-04-30T14:55:11Z</time></trkpt><trkpt lat="43.208735733020575" lon="11.433496718092739"><ele>163.0</ele><time>2026-04-30T14:55:12Z</time></trkpt><trkpt lat="43.208816866810686" lon="11.433277969177508"><ele>163.0</ele><time>2026-04-30T14:55:13Z</time></trkpt><trkpt lat="43.208891124830295" lon="11.433059433730298"><ele>163.0</ele><time>2026-04-30T14:55:14Z</time></trkpt><trkpt lat="43.20896858544027" lon="11.432852565221447"><ele>163.0</ele><time>2026-04-30T14:55:15Z</time></trkpt><trkpt lat="43.20904717945107" lon="11.432653291483003"><ele>163.66666666666669</ele><time>2026-04-30T14:55:16Z</time></trkpt><trkpt lat="43.20910776916426" lon="11.432451051822483"><ele>164.33333333333334</ele><time>2026-04-30T14:55:17Z</time></trkpt><trkpt lat="43.209192096573645" lon="11.432262236965153"><ele>165.0</ele><time>2026-04-30T14:55:18Z</time></trkpt><trkpt lat="43.209329333064815" lon="11.432120144063589"><ele>165.0</ele><time>2026-04-30T14:55:19Z</time></trkpt><trkpt lat="43.209497851673255" lon="11.432038703643627"><ele>165.0</ele><time>2026-04-30T14:55:20Z</time></trkpt><trkpt lat="43.20969830489078" lon="11.432013154596348"><ele>165.0</ele><time>2026-04-30T14:55:21Z</time></trkpt><trkpt lat="43.20991809587673" lon="11.432021841820276"><ele>165.5</ele><time>2026-04-30T14:55:22Z</time></trkpt><trkpt lat="43.21016159245746" lon="11.432007472704111"><ele>166.0</ele><time>2026-04-30T14:55:23Z</time></trkpt><trkpt lat="43.21041721064504" lon="11.431985023130576"><ele>165.5</ele><time>2026-04-30T14:55:24Z</time></trkpt><trkpt lat="43.210657972791125" lon="11.431965324722377"><ele>165.0</ele><time>2026-04-30T14:55:25Z</time></trkpt><trkpt lat="43.210905330934274" lon="11.431947217354194"><ele>165.0</ele><time>2026-04-30T14:55:26Z</time></trkpt><trkpt lat="43.21114910493773" lon="11.431932400429556"><ele>165.0</ele><time>2026-04-30T14:55:27Z</time></trkpt><trkpt lat="43.21139223405336" lon="11.431923598910931"><ele>165.5</ele><time>2026-04-30T14:55:28Z</time></trkpt><trkpt lat="43.21163030900901" lon="11.43191106412233"><ele>166.0</ele><time>2026-04-30T14:55:29Z</time></trkpt><trkpt lat="43.21185581631828" lon="11.431897826270054"><ele>166.0</ele><time>2026-04-30T14:55:30Z</time></trkpt><trkpt lat="43.21206263850447" lon="11.431884546903738"><ele>166.0</ele><time>2026-04-30T14:55:31Z</time></trkpt><trkpt lat="43.212251820882834" lon="11.431876940216133"><ele>166.0</ele><time>2026-04-30T14:55:32Z</time></trkpt><trkpt lat="43.21242888170123" lon="11.431870532266796"><ele>165.66666666666669</ele><time>2026-04-30T14:55:33Z</time></trkpt><trkpt lat="43.212596979414585" lon="11.431866380743246"><ele>165.33333333333334</ele><time>2026-04-30T14:55:34Z</time></trkpt><trkpt lat="43.212759352553164" lon="11.431866501676295"><ele>165.0</ele><time>2026-04-30T14:55:35Z</time></trkpt><trkpt lat="43.21292334622524" lon="11.431884308558928"><ele>165.0</ele><time>2026-04-30T14:55:36Z</time></trkpt><trkpt lat="43.21308472883069" lon="11.431917861484107"><ele>165.0</ele><time>2026-04-30T14:55:37Z</time></trkpt><trkpt lat="43.213247577102834" lon="11.431955650617406"><ele>165.0</ele><time>2026-04-30T14:55:38Z</time></trkpt><trkpt lat="43.2134153452059" lon="11.432000623599702"><ele>165.0</ele><time>2026-04-30T14:55:39Z</time></trkpt><trkpt lat="43.213586210269156" lon="11.432043379058916"><ele>165.0</ele><time>2026-04-30T14:55:40Z</time></trkpt><trkpt lat="43.21375805789702" lon="11.432088629301642"><ele>165.0</ele><time>2026-04-30T14:55:41Z</time></trkpt><trkpt lat="43.21392987172703" lon="11.432142000806476"><ele>164.66666666666666</ele><time>2026-04-30T14:55:42Z</time></trkpt><trkpt lat="43.21409858573922" lon="11.43218408308884"><ele>164.33333333333331</ele><time>2026-04-30T14:55:43Z</time></trkpt><trkpt lat="43.214260703590206" lon="11.432231301523073"><ele>164.0</ele><time>2026-04-30T14:55:44Z</time></trkpt><trkpt lat="43.214415768428594" lon="11.432316503211675"><ele>164.0</ele><time>2026-04-30T14:55:45Z</time></trkpt><trkpt lat="43.214576222479934" lon="11.43237735583175"><ele>164.0</ele><time>2026-04-30T14:55:46Z</time></trkpt><trkpt lat="43.21472497872554" lon="11.432463955018145"><ele>164.0</ele><time>2026-04-30T14:55:47Z</time></trkpt><trkpt lat="43.214872479964484" lon="11.432540645685032"><ele>163.25</ele><time>2026-04-30T14:55:48Z</time></trkpt><trkpt lat="43.21500884289471" lon="11.432609353078258"><ele>162.5</ele><time>2026-04-30T14:55:49Z</time></trkpt><trkpt lat="43.21513201656582" lon="11.432670585167186"><ele>161.75</ele><time>2026-04-30T14:55:50Z</time></trkpt><trkpt lat="43.21523650092391" lon="11.432731010170068"><ele>161.0</ele><time>2026-04-30T14:55:51Z</time></trkpt><trkpt lat="43.21532063785545" lon="11.432782784548973"><ele>161.0</ele><time>2026-04-30T14:55:52Z</time></trkpt><trkpt lat="43.2153743088291" lon="11.432872274864282"><ele>161.0</ele><time>2026-04-30T14:55:53Z</time></trkpt><trkpt lat="43.215394838462736" lon="11.432980559527536"><ele>161.0</ele><time>2026-04-30T14:55:54Z</time></trkpt><trkpt lat="43.215431225470105" lon="11.433121225737692"><ele>161.0</ele><time>2026-04-30T14:55:55Z</time></trkpt><trkpt lat="43.2154770953746" lon="11.433233456362638"><ele>161.0</ele><time>2026-04-30T14:55:56Z</time></trkpt><trkpt lat="43.215539949539966" lon="11.43334067501654"><ele>160.8</ele><time>2026-04-30T14:55:57Z</time></trkpt><trkpt lat="43.21562580096039" lon="11.433430632321924"><ele>160.60000000000002</ele><time>2026-04-30T14:55:58Z</time></trkpt><trkpt lat="43.21572185036823" lon="11.433464244706546"><ele>160.4</ele><time>2026-04-30T14:55:59Z</time></trkpt><trkpt lat="43.21582960969084" lon="11.43344535587802"><ele>160.2</ele><time>2026-04-30T14:56:00Z</time></trkpt><trkpt lat="43.21592677850829" lon="11.433389666082153"><ele>160.0</ele><time>2026-04-30T14:56:01Z</time></trkpt><trkpt lat="43.21600486967704" lon="11.433297304346738"><ele>160.0</ele><time>2026-04-30T14:56:02Z</time></trkpt><trkpt lat="43.216058577531356" lon="11.433184428029776"><ele>160.0</ele><time>2026-04-30T14:56:03Z</time></trkpt><trkpt lat="43.216085720157785" lon="11.433054967253575"><ele>160.0</ele><time>2026-04-30T14:56:04Z</time></trkpt><trkpt lat="43.21607014954307" lon="11.432925500184659"><ele>160.0</ele><time>2026-04-30T14:56:05Z</time></trkpt><trkpt lat="43.21604017890297" lon="11.432805865076016"><ele>160.0</ele><time>2026-04-30T14:56:06Z</time></trkpt><trkpt lat="43.215989697863186" lon="11.43269663565026"><ele>160.0</ele><time>2026-04-30T14:56:07Z</time></trkpt><trkpt lat="43.21590907279298" lon="11.432620318817202"><ele>160.0</ele><time>2026-04-30T14:56:08Z</time></trkpt><trkpt lat="43.21579569449947" lon="11.432573462220928"><ele>160.0</ele><time>2026-04-30T14:56:09Z</time></trkpt><trkpt lat="43.21567713315063" lon="11.432578869704763"><ele>160.0</ele><time>2026-04-30T14:56:10Z</time></trkpt><trkpt lat="43.21557026760786" lon="11.432638317036277"><ele>160.0</ele><time>2026-04-30T14:56:11Z</time></trkpt><trkpt lat="43.215482366003954" lon="11.432745990320816"><ele>160.0</ele><time>2026-04-30T14:56:12Z</time></trkpt><trkpt lat="43.215432075460605" lon="11.432887408937308"><ele>160.0</ele><time>2026-04-30T14:56:13Z</time></trkpt><trkpt lat="43.215421647163595" lon="11.433036950398398"><ele>160.0</ele><time>2026-04-30T14:56:14Z</time></trkpt><trkpt lat="43.21545137046393" lon="11.433148516621603"><ele>160.0</ele><time>2026-04-30T14:56:15Z</time></trkpt><trkpt lat="43.21551347995941" lon="11.433312692254301"><ele>160.0</ele><time>2026-04-30T14:56:16Z</time></trkpt><trkpt lat="43.215588169969315" lon="11.43339447648808"><ele>160.0</ele><time>2026-04-30T14:56:17Z</time></trkpt><trkpt lat="43.21566101583218" lon="11.433456611729206"><ele>160.0</ele><time>2026-04-30T14:56:18Z</time></trkpt><trkpt lat="43.21573120896711" lon="11.433503705148988"><ele>160.0</ele><time>2026-04-30T14:56:19Z</time></trkpt><trkpt lat="43.21583060478512" lon="11.43352350034321"><ele>160.0</ele><time>2026-04-30T14:56:21Z</time></trkpt><trkpt lat="43.215884731549856" lon="11.433585633799002"><ele>160.0</ele><time>2026-04-30T14:56:23Z</time></trkpt><trkpt lat="43.21590101586738" lon="11.433459290388491"><ele>160.0</ele><time>2026-04-30T14:56:27.001Z</time></trkpt><trkpt lat="43.21596875366979" lon="11.433374182151052"><ele>160.0</ele><time>2026-04-30T14:59:21Z</time></trkpt><trkpt lat="43.21601107087979" lon="11.43330205966921"><ele>160.0</ele><time>2026-04-30T14:59:22Z</time></trkpt><trkpt lat="43.21604981801245" lon="11.43322319673815"><ele>160.0</ele><time>2026-04-30T14:59:23Z</time></trkpt><trkpt lat="43.216076011844656" lon="11.433044439322611"><ele>160.0</ele><time>2026-04-30T14:59:25Z</time></trkpt><trkpt lat="43.21605994550295" lon="11.432954097163755"><ele>160.0</ele><time>2026-04-30T14:59:26Z</time></trkpt><trkpt lat="43.216034731826" lon="11.432870288972762"><ele>160.0</ele><time>2026-04-30T14:59:27Z</time></trkpt><trkpt lat="43.21598958507863" lon="11.432783679305262"><ele>160.0</ele><time>2026-04-30T14:59:28Z</time></trkpt><trkpt lat="43.2159318456879" lon="11.432700067866959"><ele>160.0</ele><time>2026-04-30T14:59:29Z</time></trkpt><trkpt lat="43.215842908149206" lon="11.4326316134269"><ele>160.0</ele><time>2026-04-30T14:59:30Z</time></trkpt><trkpt lat="43.21575001129262" lon="11.432609298727337"><ele>160.0</ele><time>2026-04-30T14:59:31Z</time></trkpt><trkpt lat="43.215644731934134" lon="11.432622710643386"><ele>160.2</ele><time>2026-04-30T14:59:32Z</time></trkpt><trkpt lat="43.215546802781176" lon="11.432663230962525"><ele>160.4</ele><time>2026-04-30T14:59:33Z</time></trkpt><trkpt lat="43.21544066728264" lon="11.432692053360059"><ele>160.60000000000002</ele><time>2026-04-30T14:59:34Z</time></trkpt><trkpt lat="43.21533747629043" lon="11.432693412191671"><ele>160.8</ele><time>2026-04-30T14:59:35Z</time></trkpt><trkpt lat="43.215236124542756" lon="11.432679941431108"><ele>161.0</ele><time>2026-04-30T14:59:36Z</time></trkpt><trkpt lat="43.21512629028063" lon="11.432644851605554"><ele>161.0</ele><time>2026-04-30T14:59:37Z</time></trkpt><trkpt lat="43.21501895477881" lon="11.432591288311121"><ele>161.0</ele><time>2026-04-30T14:59:38Z</time></trkpt><trkpt lat="43.214912396284106" lon="11.432528208704394"><ele>161.0</ele><time>2026-04-30T14:59:39Z</time></trkpt><trkpt lat="43.21479587714333" lon="11.432472812420992"><ele>161.0</ele><time>2026-04-30T14:59:40Z</time></trkpt><trkpt lat="43.214681423396705" lon="11.432414950898606"><ele>161.75</ele><time>2026-04-30T14:59:41Z</time></trkpt><trkpt lat="43.21455984436875" lon="11.432350327774781"><ele>162.5</ele><time>2026-04-30T14:59:42Z</time></trkpt><trkpt lat="43.21442672868688" lon="11.432288253504348"><ele>163.25</ele><time>2026-04-30T14:59:43Z</time></trkpt><trkpt lat="43.21429785901857" lon="11.43221579953401"><ele>164.0</ele><time>2026-04-30T14:59:44Z</time></trkpt><trkpt lat="43.21415026176909" lon="11.432161045130709"><ele>163.66666666666666</ele><time>2026-04-30T14:59:45Z</time></trkpt><trkpt lat="43.21396950498187" lon="11.432108362767154"><ele>163.33333333333334</ele><time>2026-04-30T14:59:46Z</time></trkpt><trkpt lat="43.21375112829408" lon="11.43205487767418"><ele>163.0</ele><time>2026-04-30T14:59:47Z</time></trkpt><trkpt lat="43.21353328540343" lon="11.431990693673644"><ele>163.0</ele><time>2026-04-30T14:59:48Z</time></trkpt><trkpt lat="43.213297562552896" lon="11.431931394546572"><ele>163.0</ele><time>2026-04-30T14:59:49Z</time></trkpt><trkpt lat="43.21307523131878" lon="11.431885569353009"><ele>163.66666666666669</ele><time>2026-04-30T14:59:50Z</time></trkpt><trkpt lat="43.21285584031579" lon="11.431843419280456"><ele>164.33333333333334</ele><time>2026-04-30T14:59:51Z</time></trkpt><trkpt lat="43.21263905118343" lon="11.431823597081012"><ele>165.0</ele><time>2026-04-30T14:59:52Z</time></trkpt><trkpt lat="43.21242138168203" lon="11.431827700064087"><ele>165.33333333333334</ele><time>2026-04-30T14:59:53Z</time></trkpt><trkpt lat="43.21220819926844" lon="11.431845034538304"><ele>165.66666666666669</ele><time>2026-04-30T14:59:54Z</time></trkpt><trkpt lat="43.21200294152383" lon="11.43185995861079"><ele>166.0</ele><time>2026-04-30T14:59:55Z</time></trkpt><trkpt lat="43.21180526045326" lon="11.431872379284837"><ele>166.0</ele><time>2026-04-30T14:59:56Z</time></trkpt><trkpt lat="43.21161252377332" lon="11.431888295599196"><ele>166.0</ele><time>2026-04-30T14:59:57Z</time></trkpt><trkpt lat="43.21142074543353" lon="11.431901781322512"><ele>166.0</ele><time>2026-04-30T14:59:58Z</time></trkpt><trkpt lat="43.21123415900565" lon="11.431907323999637"><ele>165.66666666666669</ele><time>2026-04-30T14:59:59Z</time></trkpt><trkpt lat="43.21104666866303" lon="11.431913376159237"><ele>165.33333333333334</ele><time>2026-04-30T15:00:00Z</time></trkpt><trkpt lat="43.210862957173894" lon="11.431921024063339"><ele>165.0</ele><time>2026-04-30T15:00:01Z</time></trkpt><trkpt lat="43.210683561290075" lon="11.431929051668048"><ele>165.33333333333334</ele><time>2026-04-30T15:00:02Z</time></trkpt><trkpt lat="43.210501822828874" lon="11.431943005468723"><ele>165.66666666666669</ele><time>2026-04-30T15:00:03Z</time></trkpt><trkpt lat="43.21031625757971" lon="11.43195722113018"><ele>166.0</ele><time>2026-04-30T15:00:04Z</time></trkpt><trkpt lat="43.2101341601107" lon="11.431967443827302"><ele>166.0</ele><time>2026-04-30T15:00:05Z</time></trkpt><trkpt lat="43.209965228127786" lon="11.431975283210294"><ele>166.0</ele><time>2026-04-30T15:00:06Z</time></trkpt><trkpt lat="43.20981180590778" lon="11.43198393074359"><ele>166.0</ele><time>2026-04-30T15:00:07Z</time></trkpt><trkpt lat="43.20966749909487" lon="11.431990745988998"><ele>165.75</ele><time>2026-04-30T15:00:08Z</time></trkpt><trkpt lat="43.20953118877315" lon="11.431998115066241"><ele>165.5</ele><time>2026-04-30T15:00:09Z</time></trkpt><trkpt lat="43.20939847465523" lon="11.43202764698778"><ele>165.25</ele><time>2026-04-30T15:00:10Z</time></trkpt><trkpt lat="43.20928059776089" lon="11.43210262993198"><ele>165.0</ele><time>2026-04-30T15:00:11Z</time></trkpt><trkpt lat="43.209187982999794" lon="11.432216033335983"><ele>165.0</ele><time>2026-04-30T15:00:12Z</time></trkpt><trkpt lat="43.20911895136503" lon="11.432346471842298"><ele>165.0</ele><time>2026-04-30T15:00:13Z</time></trkpt><trkpt lat="43.209058418206986" lon="11.432472343235032"><ele>165.0</ele><time>2026-04-30T15:00:14Z</time></trkpt><trkpt lat="43.209014918008585" lon="11.432596114808156"><ele>165.0</ele><time>2026-04-30T15:00:15Z</time></trkpt><trkpt lat="43.208974079915336" lon="11.432728679485894"><ele>165.0</ele><time>2026-04-30T15:00:16Z</time></trkpt><trkpt lat="43.20887145682014" lon="11.432840387046523"><ele>164.33333333333334</ele><time>2026-04-30T15:00:17.001Z</time></trkpt><trkpt lat="43.20873825590329" lon="11.432906912155456"><ele>163.66666666666669</ele><time>2026-04-30T15:00:18.001Z</time></trkpt><trkpt lat="43.208601549518136" lon="11.432959976191416"><ele>163.0</ele><time>2026-04-30T15:00:19.001Z</time></trkpt><trkpt lat="43.20843661348915" lon="11.43286607129481"><ele>163.0</ele><time>2026-04-30T15:00:20.001Z</time></trkpt><trkpt lat="43.20828413668176" lon="11.432770552072618"><ele>163.0</ele><time>2026-04-30T15:00:21.001Z</time></trkpt><trkpt lat="43.20812836045621" lon="11.432687978702164"><ele>163.0</ele><time>2026-04-30T15:00:22.001Z</time></trkpt><trkpt lat="43.20797153183104" lon="11.432627013441211"><ele>162.66666666666669</ele><time>2026-04-30T15:00:23.001Z</time></trkpt><trkpt lat="43.20781168658112" lon="11.432606890152975"><ele>162.33333333333334</ele><time>2026-04-30T15:00:24.001Z</time></trkpt><trkpt lat="43.207642166637264" lon="11.432643944776302"><ele>162.0</ele><time>2026-04-30T15:00:25.001Z</time></trkpt><trkpt lat="43.20745071722013" lon="11.432738652236479"><ele>163.0</ele><time>2026-04-30T15:00:26.001Z</time></trkpt><trkpt lat="43.207267848671904" lon="11.432868052129463"><ele>164.0</ele><time>2026-04-30T15:00:27.001Z</time></trkpt><trkpt lat="43.20707026440131" lon="11.433040627115384"><ele>165.0</ele><time>2026-04-30T15:00:28.001Z</time></trkpt><trkpt lat="43.20686809346766" lon="11.433211521637256"><ele>165.0</ele><time>2026-04-30T15:00:29.001Z</time></trkpt><trkpt lat="43.20667077416228" lon="11.433415767420662"><ele>165.0</ele><time>2026-04-30T15:00:30.001Z</time></trkpt><trkpt lat="43.20648552042572" lon="11.433619066567214"><ele>166.66666666666666</ele><time>2026-04-30T15:00:31.001Z</time></trkpt><trkpt lat="43.20633260454601" lon="11.433832615551243"><ele>168.33333333333331</ele><time>2026-04-30T15:00:32.001Z</time></trkpt><trkpt lat="43.206183431678255" lon="11.43403197444854"><ele>170.0</ele><time>2026-04-30T15:00:33.001Z</time></trkpt><trkpt lat="43.20602579540169" lon="11.434217438284211"><ele>170.0</ele><time>2026-04-30T15:00:34.001Z</time></trkpt><trkpt lat="43.205896017322196" lon="11.434397609220696"><ele>170.0</ele><time>2026-04-30T15:00:35.001Z</time></trkpt><trkpt lat="43.20578254341711" lon="11.43457962427111"><ele>170.0</ele><time>2026-04-30T15:00:36.001Z</time></trkpt><trkpt lat="43.205650676233915" lon="11.434738194488935"><ele>171.66666666666666</ele><time>2026-04-30T15:00:37.001Z</time></trkpt><trkpt lat="43.20550096032575" lon="11.434862328311471"><ele>173.33333333333334</ele><time>2026-04-30T15:00:38.001Z</time></trkpt><trkpt lat="43.20533565818428" lon="11.434915765372935"><ele>175.0</ele><time>2026-04-30T15:00:39.001Z</time></trkpt><trkpt lat="43.205176818296934" lon="11.434891600845118"><ele>175.0</ele><time>2026-04-30T15:00:40.001Z</time></trkpt><trkpt lat="43.20501220392665" lon="11.4348008684948"><ele>175.0</ele><time>2026-04-30T15:00:41.001Z</time></trkpt><trkpt lat="43.20486771897354" lon="11.434669390818886"><ele>175.0</ele><time>2026-04-30T15:00:42.001Z</time></trkpt><trkpt lat="43.20477244155708" lon="11.434492807299648"><ele>179.33333333333334</ele><time>2026-04-30T15:00:43.001Z</time></trkpt><trkpt lat="43.20469753777049" lon="11.434254537127089"><ele>183.66666666666666</ele><time>2026-04-30T15:00:44.001Z</time></trkpt><trkpt lat="43.204624779402444" lon="11.433980896592397"><ele>188.0</ele><time>2026-04-30T15:00:45.001Z</time></trkpt><trkpt lat="43.20453596539402" lon="11.433688186250182"><ele>188.5</ele><time>2026-04-30T15:00:46.001Z</time></trkpt><trkpt lat="43.204450963647204" lon="11.433393612000108"><ele>189.0</ele><time>2026-04-30T15:00:47.001Z</time></trkpt><trkpt lat="43.204365810789966" lon="11.433115940029523"><ele>188.66666666666666</ele><time>2026-04-30T15:00:48.001Z</time></trkpt><trkpt lat="43.204285463537836" lon="11.432854507987388"><ele>188.33333333333331</ele><time>2026-04-30T15:00:49.001Z</time></trkpt><trkpt lat="43.204209226404835" lon="11.432601130956003"><ele>188.0</ele><time>2026-04-30T15:00:50.001Z</time></trkpt><trkpt lat="43.20413904771376" lon="11.432346263488174"><ele>188.0</ele><time>2026-04-30T15:00:51.001Z</time></trkpt><trkpt lat="43.20407360679642" lon="11.43210450013856"><ele>188.0</ele><time>2026-04-30T15:00:52.001Z</time></trkpt><trkpt lat="43.2039993478106" lon="11.431842363563025"><ele>188.0</ele><time>2026-04-30T15:00:53.001Z</time></trkpt><trkpt lat="43.203919134705735" lon="11.431564684659076"><ele>182.33333333333331</ele><time>2026-04-30T15:00:54.001Z</time></trkpt><trkpt lat="43.203842419080985" lon="11.431301971931056"><ele>176.66666666666666</ele><time>2026-04-30T15:00:55.001Z</time></trkpt><trkpt lat="43.20377021552653" lon="11.43104512894955"><ele>171.0</ele><time>2026-04-30T15:00:56.001Z</time></trkpt><trkpt lat="43.20369920747494" lon="11.430784163458853"><ele>171.0</ele><time>2026-04-30T15:00:57.001Z</time></trkpt><trkpt lat="43.20362751700489" lon="11.43052733754012"><ele>171.0</ele><time>2026-04-30T15:00:58.001Z</time></trkpt><trkpt lat="43.20355356047168" lon="11.430261220641174"><ele>171.0</ele><time>2026-04-30T15:00:59.001Z</time></trkpt><trkpt lat="43.20347723029843" lon="11.429999814269957"><ele>171.33333333333334</ele><time>2026-04-30T15:01:00.001Z</time></trkpt><trkpt lat="43.203402381484075" lon="11.42973966754965"><ele>171.66666666666669</ele><time>2026-04-30T15:01:01.001Z</time></trkpt><trkpt lat="43.20332915510481" lon="11.429473088498751"><ele>172.0</ele><time>2026-04-30T15:01:02.001Z</time></trkpt><trkpt lat="43.20326154597261" lon="11.429228062125652"><ele>172.0</ele><time>2026-04-30T15:01:03.001Z</time></trkpt><trkpt lat="43.20319667959421" lon="11.428995640786619"><ele>172.0</ele><time>2026-04-30T15:01:03.999Z</time></trkpt><trkpt lat="43.20313111393555" lon="11.428763754146562"><ele>172.0</ele><time>2026-04-30T15:01:04.999Z</time></trkpt><trkpt lat="43.20305288678924" lon="11.428540610830844"><ele>169.66666666666669</ele><time>2026-04-30T15:01:05.999Z</time></trkpt><trkpt lat="43.202948825330026" lon="11.42833780998869"><ele>167.33333333333334</ele><time>2026-04-30T15:01:06.999Z</time></trkpt><trkpt lat="43.20281545633546" lon="11.42816156600242"><ele>165.0</ele><time>2026-04-30T15:01:07.999Z</time></trkpt><trkpt lat="43.20265276403801" lon="11.428021064798825"><ele>164.5</ele><time>2026-04-30T15:01:08.999Z</time></trkpt><trkpt lat="43.20243231751076" lon="11.427927320835066"><ele>164.0</ele><time>2026-04-30T15:01:09.999Z</time></trkpt><trkpt lat="43.202214936523426" lon="11.427845723600049"><ele>162.5</ele><time>2026-04-30T15:01:10.999Z</time></trkpt><trkpt lat="43.20199208453403" lon="11.427767479399762"><ele>161.0</ele><time>2026-04-30T15:01:11.999Z</time></trkpt><trkpt lat="43.20175597942464" lon="11.427686648267063"><ele>160.5</ele><time>2026-04-30T15:01:12.999Z</time></trkpt><trkpt lat="43.20149322715301" lon="11.427592613075648"><ele>160.0</ele><time>2026-04-30T15:01:13.999Z</time></trkpt><trkpt lat="43.20119067433569" lon="11.427487748281303"><ele>160.0</ele><time>2026-04-30T15:01:14.999Z</time></trkpt><trkpt lat="43.20087507014879" lon="11.427375397676617"><ele>160.0</ele><time>2026-04-30T15:01:15.999Z</time></trkpt><trkpt lat="43.20057086382664" lon="11.42724588459581"><ele>159.0</ele><time>2026-04-30T15:01:16.999Z</time></trkpt><trkpt lat="43.20027206623152" lon="11.427136669611828"><ele>158.0</ele><time>2026-04-30T15:01:17.999Z</time></trkpt><trkpt lat="43.19999296372797" lon="11.42703560119468"><ele>158.0</ele><time>2026-04-30T15:01:19Z</time></trkpt><trkpt lat="43.199719524259145" lon="11.426936583438236"><ele>158.0</ele><time>2026-04-30T15:01:20Z</time></trkpt><trkpt lat="43.19943173412741" lon="11.426831406024462"><ele>158.0</ele><time>2026-04-30T15:01:21Z</time></trkpt><trkpt lat="43.19913988091096" lon="11.426723993577866"><ele>158.0</ele><time>2026-04-30T15:01:22Z</time></trkpt><trkpt lat="43.198865759670866" lon="11.426623104706806"><ele>158.5</ele><time>2026-04-30T15:01:23Z</time></trkpt><trkpt lat="43.1985694072253" lon="11.426514030745144"><ele>159.0</ele><time>2026-04-30T15:01:24Z</time></trkpt><trkpt lat="43.19826975676699" lon="11.42640643915532"><ele>159.5</ele><time>2026-04-30T15:01:25Z</time></trkpt><trkpt lat="43.19799247277015" lon="11.426337056076537"><ele>160.0</ele><time>2026-04-30T15:01:26Z</time></trkpt><trkpt lat="43.19772497790035" lon="11.426221498532552"><ele>160.0</ele><time>2026-04-30T15:01:27Z</time></trkpt><trkpt lat="43.19745986186738" lon="11.426117525931888"><ele>160.0</ele><time>2026-04-30T15:01:28Z</time></trkpt><trkpt lat="43.19718963725104" lon="11.426021358074117"><ele>163.5</ele><time>2026-04-30T15:01:29Z</time></trkpt><trkpt lat="43.196917753565344" lon="11.425930664160727"><ele>167.0</ele><time>2026-04-30T15:01:30Z</time></trkpt><trkpt lat="43.19667052462375" lon="11.425842341764099"><ele>170.0</ele><time>2026-04-30T15:01:31Z</time></trkpt><trkpt lat="43.196437646562444" lon="11.425752315999386"><ele>173.0</ele><time>2026-04-30T15:01:32Z</time></trkpt><trkpt lat="43.1962067564187" lon="11.42566355416692"><ele>173.0</ele><time>2026-04-30T15:01:33Z</time></trkpt><trkpt lat="43.19599113046988" lon="11.42558300298541"><ele>173.0</ele><time>2026-04-30T15:01:34Z</time></trkpt><trkpt lat="43.19579650100886" lon="11.42551314042494"><ele>173.0</ele><time>2026-04-30T15:01:35Z</time></trkpt><trkpt lat="43.195622880902775" lon="11.425449097719618"><ele>176.33333333333331</ele><time>2026-04-30T15:01:36Z</time></trkpt><trkpt lat="43.19544917701188" lon="11.425385479142145"><ele>179.66666666666666</ele><time>2026-04-30T15:01:37Z</time></trkpt><trkpt lat="43.19528207526203" lon="11.425346477302234"><ele>183.0</ele><time>2026-04-30T15:01:38Z</time></trkpt><trkpt lat="43.195115591691646" lon="11.425360503299828"><ele>183.0</ele><time>2026-04-30T15:01:39Z</time></trkpt><trkpt lat="43.194955576538064" lon="11.425443130333365"><ele>183.0</ele><time>2026-04-30T15:01:40Z</time></trkpt><trkpt lat="43.19481930238552" lon="11.425596344655423"><ele>183.0</ele><time>2026-04-30T15:01:41Z</time></trkpt><trkpt lat="43.19472121918505" lon="11.425795092599339"><ele>182.66666666666666</ele><time>2026-04-30T15:01:42Z</time></trkpt><trkpt lat="43.194639359632895" lon="11.426012284470731"><ele>182.33333333333331</ele><time>2026-04-30T15:01:43Z</time></trkpt><trkpt lat="43.19456413612464" lon="11.426208455876164"><ele>182.0</ele><time>2026-04-30T15:01:44Z</time></trkpt><trkpt lat="43.19448488263249" lon="11.426374797559388"><ele>182.0</ele><time>2026-04-30T15:01:45Z</time></trkpt><trkpt lat="43.19438650962258" lon="11.426490576004579"><ele>182.0</ele><time>2026-04-30T15:01:46Z</time></trkpt><trkpt lat="43.194259303280745" lon="11.426526554600029"><ele>182.0</ele><time>2026-04-30T15:01:47Z</time></trkpt><trkpt lat="43.1941324442528" lon="11.42648887926034"><ele>182.0</ele><time>2026-04-30T15:01:48Z</time></trkpt><trkpt lat="43.19403648465597" lon="11.426378349541054"><ele>183.5</ele><time>2026-04-30T15:01:49Z</time></trkpt><trkpt lat="43.19398521730699" lon="11.426216973669069"><ele>185.0</ele><time>2026-04-30T15:01:50Z</time></trkpt><trkpt lat="43.19401188689386" lon="11.425995024858333"><ele>186.5</ele><time>2026-04-30T15:01:51Z</time></trkpt><trkpt lat="43.19405047591284" lon="11.425805721956403"><ele>188.0</ele><time>2026-04-30T15:01:52Z</time></trkpt><trkpt lat="43.194126740375204" lon="11.425586813351119"><ele>190.66666666666666</ele><time>2026-04-30T15:01:53Z</time></trkpt><trkpt lat="43.19419241779982" lon="11.425365186869362"><ele>193.33333333333331</ele><time>2026-04-30T15:01:54Z</time></trkpt><trkpt lat="43.19425916243804" lon="11.425138864818068"><ele>196.0</ele><time>2026-04-30T15:01:55Z</time></trkpt><trkpt lat="43.19432783649155" lon="11.424914233172542"><ele>196.0</ele><time>2026-04-30T15:01:56Z</time></trkpt><trkpt lat="43.19439374024403" lon="11.424689466802286"><ele>196.0</ele><time>2026-04-30T15:01:57Z</time></trkpt><trkpt lat="43.19445758366027" lon="11.424451495020955"><ele>196.0</ele><time>2026-04-30T15:01:58Z</time></trkpt><trkpt lat="43.194522836451476" lon="11.42421406399395"><ele>198.33333333333331</ele><time>2026-04-30T15:01:59Z</time></trkpt><trkpt lat="43.194590007982185" lon="11.423981611221256"><ele>200.66666666666669</ele><time>2026-04-30T15:02:00Z</time></trkpt><trkpt lat="43.19464906113667" lon="11.423789378283576"><ele>203.0</ele><time>2026-04-30T15:02:01Z</time></trkpt><trkpt lat="43.1946797008542" lon="11.423602435729753"><ele>204.66666666666669</ele><time>2026-04-30T15:02:02Z</time></trkpt><trkpt lat="43.19467166933094" lon="11.423393532643093"><ele>206.33333333333331</ele><time>2026-04-30T15:02:03Z</time></trkpt><trkpt lat="43.19462715649119" lon="11.423181780109072"><ele>208.0</ele><time>2026-04-30T15:02:04Z</time></trkpt><trkpt lat="43.194543357761965" lon="11.423000424196962"><ele>208.0</ele><time>2026-04-30T15:02:05Z</time></trkpt><trkpt lat="43.19442842569844" lon="11.422854884553546"><ele>208.0</ele><time>2026-04-30T15:02:06Z</time></trkpt><trkpt lat="43.194284911729135" lon="11.422752401794112"><ele>208.0</ele><time>2026-04-30T15:02:07Z</time></trkpt><trkpt lat="43.19410781166709" lon="11.42267124481426"><ele>210.0</ele><time>2026-04-30T15:02:08Z</time></trkpt><trkpt lat="43.1939127968068" lon="11.422589515965866"><ele>212.0</ele><time>2026-04-30T15:02:09Z</time></trkpt><trkpt lat="43.19371705562609" lon="11.422505232216983"><ele>214.0</ele><time>2026-04-30T15:02:10Z</time></trkpt><trkpt lat="43.193522743135354" lon="11.422427408977175"><ele>214.0</ele><time>2026-04-30T15:02:11Z</time></trkpt><trkpt lat="43.19333239875957" lon="11.422347428903187"><ele>214.0</ele><time>2026-04-30T15:02:12Z</time></trkpt><trkpt lat="43.19314376323579" lon="11.422268524676314"><ele>214.0</ele><time>2026-04-30T15:02:13Z</time></trkpt><trkpt lat="43.192957949222816" lon="11.422188095781157"><ele>214.66666666666666</ele><time>2026-04-30T15:02:14Z</time></trkpt><trkpt lat="43.19277977220043" lon="11.422105044004752"><ele>215.33333333333331</ele><time>2026-04-30T15:02:15Z</time></trkpt><trkpt lat="43.19260641961362" lon="11.422031011061696"><ele>216.0</ele><time>2026-04-30T15:02:16Z</time></trkpt><trkpt lat="43.19244142030017" lon="11.42197519779211"><ele>218.0</ele><time>2026-04-30T15:02:17Z</time></trkpt><trkpt lat="43.19227987052744" lon="11.42189703009855"><ele>220.0</ele><time>2026-04-30T15:02:18Z</time></trkpt><trkpt lat="43.192129093746395" lon="11.421815599354446"><ele>222.0</ele><time>2026-04-30T15:02:19Z</time></trkpt><trkpt lat="43.192008856560875" lon="11.42170046860303"><ele>222.0</ele><time>2026-04-30T15:02:20Z</time></trkpt><trkpt lat="43.19191615309255" lon="11.421523492626804"><ele>222.0</ele><time>2026-04-30T15:02:21Z</time></trkpt><trkpt lat="43.191821845984535" lon="11.421324368323985"><ele>222.0</ele><time>2026-04-30T15:02:22Z</time></trkpt><trkpt lat="43.19175692498794" lon="11.421120543087602"><ele>224.33333333333331</ele><time>2026-04-30T15:02:23Z</time></trkpt><trkpt lat="43.191701931390526" lon="11.42091060074618"><ele>226.66666666666666</ele><time>2026-04-30T15:02:24Z</time></trkpt><trkpt lat="43.191658157880426" lon="11.420682673113465"><ele>229.0</ele><time>2026-04-30T15:02:25Z</time></trkpt><trkpt lat="43.191633590849584" lon="11.420430602301339"><ele>229.66666666666666</ele><time>2026-04-30T15:02:26Z</time></trkpt><trkpt lat="43.191620469744464" lon="11.420139110270835"><ele>230.33333333333331</ele><time>2026-04-30T15:02:27Z</time></trkpt><trkpt lat="43.19160791353119" lon="11.419863020678834"><ele>231.0</ele><time>2026-04-30T15:02:28Z</time></trkpt><trkpt lat="43.191584609779795" lon="11.419586420456408"><ele>231.0</ele><time>2026-04-30T15:02:29Z</time></trkpt><trkpt lat="43.19154218773941" lon="11.419306925328675"><ele>231.0</ele><time>2026-04-30T15:02:30Z</time></trkpt><trkpt lat="43.19148588376356" lon="11.41904116545259"><ele>231.0</ele><time>2026-04-30T15:02:31Z</time></trkpt><trkpt lat="43.19141918280906" lon="11.418769665831242"><ele>229.33333333333331</ele><time>2026-04-30T15:02:32Z</time></trkpt><trkpt lat="43.19135562576906" lon="11.418507167278841"><ele>227.66666666666666</ele><time>2026-04-30T15:02:33Z</time></trkpt><trkpt lat="43.191289544407674" lon="11.418254209199935"><ele>226.0</ele><time>2026-04-30T15:02:34Z</time></trkpt><trkpt lat="43.19121552441113" lon="11.418032221168898"><ele>227.0</ele><time>2026-04-30T15:02:35Z</time></trkpt><trkpt lat="43.19112329428965" lon="11.417831447968554"><ele>228.0</ele><time>2026-04-30T15:02:36Z</time></trkpt><trkpt lat="43.19098800135543" lon="11.417670038014425"><ele>229.0</ele><time>2026-04-30T15:02:37Z</time></trkpt><trkpt lat="43.19081771576641" lon="11.417534610964843"><ele>225.5</ele><time>2026-04-30T15:02:38Z</time></trkpt><trkpt lat="43.19061158210932" lon="11.417422146457401"><ele>222.0</ele><time>2026-04-30T15:02:39Z</time></trkpt><trkpt lat="43.19037033399911" lon="11.417326582688661"><ele>222.0</ele><time>2026-04-30T15:02:40Z</time></trkpt><trkpt lat="43.19010223530729" lon="11.417208846764755"><ele>222.0</ele><time>2026-04-30T15:02:41Z</time></trkpt><trkpt lat="43.18982696262771" lon="11.417072294633867"><ele>221.5</ele><time>2026-04-30T15:02:42Z</time></trkpt><trkpt lat="43.18953812379934" lon="11.416927752880929"><ele>221.0</ele><time>2026-04-30T15:02:43Z</time></trkpt><trkpt lat="43.18923745929743" lon="11.416772247221338"><ele>216.0</ele><time>2026-04-30T15:02:44Z</time></trkpt><trkpt lat="43.188912785179504" lon="11.416611092371463"><ele>211.0</ele><time>2026-04-30T15:02:45Z</time></trkpt><trkpt lat="43.18857031279377" lon="11.41644950400783"><ele>214.0</ele><time>2026-04-30T15:02:46Z</time></trkpt><trkpt lat="43.18821395135254" lon="11.416277105757763"><ele>217.0</ele><time>2026-04-30T15:02:47Z</time></trkpt><trkpt lat="43.18787486537355" lon="11.416115062404057"><ele>217.0</ele><time>2026-04-30T15:02:48Z</time></trkpt><trkpt lat="43.18757119532838" lon="11.41594399512337"><ele>217.0</ele><time>2026-04-30T15:02:49Z</time></trkpt><trkpt lat="43.187272336147295" lon="11.415797333159698"><ele>212.0</ele><time>2026-04-30T15:02:50Z</time></trkpt><trkpt lat="43.18697056843972" lon="11.415671406093901"><ele>207.0</ele><time>2026-04-30T15:02:51Z</time></trkpt><trkpt lat="43.186682285786254" lon="11.415525330006126"><ele>208.0</ele><time>2026-04-30T15:02:52Z</time></trkpt><trkpt lat="43.18639958029819" lon="11.415389850696853"><ele>209.0</ele><time>2026-04-30T15:02:53Z</time></trkpt><trkpt lat="43.186131333368685" lon="11.415234097395727"><ele>209.0</ele><time>2026-04-30T15:02:54Z</time></trkpt><trkpt lat="43.185871410715045" lon="11.41510572030992"><ele>209.0</ele><time>2026-04-30T15:02:55Z</time></trkpt><trkpt lat="43.18562893493265" lon="11.414985961726016"><ele>206.5</ele><time>2026-04-30T15:02:56Z</time></trkpt><trkpt lat="43.185390495328534" lon="11.414889056126595"><ele>204.0</ele><time>2026-04-30T15:02:57Z</time></trkpt><trkpt lat="43.18516934528177" lon="11.41477509264253"><ele>204.0</ele><time>2026-04-30T15:02:58Z</time></trkpt><trkpt lat="43.18493822842579" lon="11.414662797149122"><ele>204.0</ele><time>2026-04-30T15:02:59Z</time></trkpt><trkpt lat="43.18468533575551" lon="11.414540699967013"><ele>203.0</ele><time>2026-04-30T15:03:00Z</time></trkpt><trkpt lat="43.184429970951506" lon="11.414391759704593"><ele>202.0</ele><time>2026-04-30T15:03:01Z</time></trkpt><trkpt lat="43.18419007205449" lon="11.414295820223723"><ele>198.0</ele><time>2026-04-30T15:03:02Z</time></trkpt><trkpt lat="43.18397337943653" lon="11.41416904075871"><ele>194.0</ele><time>2026-04-30T15:03:03Z</time></trkpt><trkpt lat="43.18376258289564" lon="11.414067075032035"><ele>194.0</ele><time>2026-04-30T15:03:04Z</time></trkpt><trkpt lat="43.183558868652575" lon="11.41396701130984"><ele>194.0</ele><time>2026-04-30T15:03:05Z</time></trkpt><trkpt lat="43.18336530365704" lon="11.413871932861428"><ele>194.0</ele><time>2026-04-30T15:03:06Z</time></trkpt><trkpt lat="43.18317776177947" lon="11.413771074063826"><ele>193.33333333333334</ele><time>2026-04-30T15:03:07Z</time></trkpt><trkpt lat="43.18298486917577" lon="11.413656188355288"><ele>192.66666666666669</ele><time>2026-04-30T15:03:08Z</time></trkpt><trkpt lat="43.182829217606866" lon="11.413495457319064"><ele>192.0</ele><time>2026-04-30T15:03:09Z</time></trkpt><trkpt lat="43.18269830588551" lon="11.4133058895481"><ele>192.0</ele><time>2026-04-30T15:03:09.999Z</time></trkpt><trkpt lat="43.18258704225744" lon="11.41309690268556"><ele>192.0</ele><time>2026-04-30T15:03:10.999Z</time></trkpt><trkpt lat="43.182498757836655" lon="11.412879737077683"><ele>192.0</ele><time>2026-04-30T15:03:11.999Z</time></trkpt><trkpt lat="43.18244913818066" lon="11.41264057571241"><ele>192.0</ele><time>2026-04-30T15:03:12.999Z</time></trkpt><trkpt lat="43.18242600272474" lon="11.412384268621143"><ele>192.0</ele><time>2026-04-30T15:03:13.999Z</time></trkpt><trkpt lat="43.18243450938193" lon="11.412104572210575"><ele>192.0</ele><time>2026-04-30T15:03:14.999Z</time></trkpt><trkpt lat="43.18248830708156" lon="11.41182469771407"><ele>192.0</ele><time>2026-04-30T15:03:15.999Z</time></trkpt><trkpt lat="43.18255721912813" lon="11.411570150626703"><ele>192.0</ele><time>2026-04-30T15:03:16.999Z</time></trkpt><trkpt lat="43.18260260093582" lon="11.411337525821263"><ele>192.0</ele><time>2026-04-30T15:03:17.999Z</time></trkpt><trkpt lat="43.182600171961404" lon="11.411093163128564"><ele>190.66666666666666</ele><time>2026-04-30T15:03:18.999Z</time></trkpt><trkpt lat="43.18259655169502" lon="11.41084023139594"><ele>189.33333333333331</ele><time>2026-04-30T15:03:19.999Z</time></trkpt><trkpt lat="43.18259655169699" lon="11.410600742426066"><ele>188.0</ele><time>2026-04-30T15:03:20.999Z</time></trkpt><trkpt lat="43.18235448086275" lon="11.410381104712982"><ele>187.5</ele><time>2026-04-30T15:03:21.999Z</time></trkpt><trkpt lat="43.182188252817575" lon="11.410157947835929"><ele>187.0</ele><time>2026-04-30T15:03:22.999Z</time></trkpt><trkpt lat="43.18201012208988" lon="11.409926427919123"><ele>187.0</ele><time>2026-04-30T15:03:23.999Z</time></trkpt><trkpt lat="43.181835809031995" lon="11.409690277660397"><ele>187.0</ele><time>2026-04-30T15:03:24.999Z</time></trkpt><trkpt lat="43.181669847073564" lon="11.409459617178381"><ele>187.66666666666669</ele><time>2026-04-30T15:03:25.999Z</time></trkpt><trkpt lat="43.181524640525666" lon="11.409266781226965"><ele>188.33333333333334</ele><time>2026-04-30T15:03:26.999Z</time></trkpt><trkpt lat="43.18138950958304" lon="11.409082969167576"><ele>189.0</ele><time>2026-04-30T15:03:27.999Z</time></trkpt><trkpt lat="43.18128293687678" lon="11.408909252100255"><ele>191.66666666666669</ele><time>2026-04-30T15:03:28.999Z</time></trkpt><trkpt lat="43.181185610589175" lon="11.408694100651184"><ele>194.33333333333334</ele><time>2026-04-30T15:03:29.999Z</time></trkpt><trkpt lat="43.18112549559916" lon="11.408452081241448"><ele>197.0</ele><time>2026-04-30T15:03:30.999Z</time></trkpt><trkpt lat="43.18111879706338" lon="11.408188754309517"><ele>199.66666666666669</ele><time>2026-04-30T15:03:31.999Z</time></trkpt><trkpt lat="43.18116945991972" lon="11.407910309242547"><ele>202.33333333333331</ele><time>2026-04-30T15:03:32.999Z</time></trkpt><trkpt lat="43.18126667615399" lon="11.407647180642876"><ele>205.0</ele><time>2026-04-30T15:03:33.999Z</time></trkpt><trkpt lat="43.181363647076346" lon="11.407393393100788"><ele>207.0</ele><time>2026-04-30T15:03:34.999Z</time></trkpt><trkpt lat="43.18142703359291" lon="11.407126019259684"><ele>209.0</ele><time>2026-04-30T15:03:35.999Z</time></trkpt><trkpt lat="43.18144728356583" lon="11.406860086020366"><ele>211.0</ele><time>2026-04-30T15:03:36.999Z</time></trkpt><trkpt lat="43.18141200338738" lon="11.40657789631649"><ele>211.66666666666666</ele><time>2026-04-30T15:03:37.999Z</time></trkpt><trkpt lat="43.18136805262538" lon="11.406303827043363"><ele>212.33333333333331</ele><time>2026-04-30T15:03:38.999Z</time></trkpt><trkpt lat="43.18128840564309" lon="11.406033455671741"><ele>213.0</ele><time>2026-04-30T15:03:39.999Z</time></trkpt><trkpt lat="43.181174661342745" lon="11.405758519023049"><ele>211.5</ele><time>2026-04-30T15:03:40.999Z</time></trkpt><trkpt lat="43.1810567396914" lon="11.405477843252264"><ele>210.0</ele><time>2026-04-30T15:03:41.999Z</time></trkpt><trkpt lat="43.18092641065492" lon="11.405193432210051"><ele>210.0</ele><time>2026-04-30T15:03:42.999Z</time></trkpt><trkpt lat="43.18077296041164" lon="11.40491802403196"><ele>210.0</ele><time>2026-04-30T15:03:43.999Z</time></trkpt><trkpt lat="43.18060563994465" lon="11.404658769356105"><ele>214.5</ele><time>2026-04-30T15:03:44.999Z</time></trkpt><trkpt lat="43.180420649593984" lon="11.40441588596099"><ele>219.0</ele><time>2026-04-30T15:03:45.999Z</time></trkpt><trkpt lat="43.180232986596316" lon="11.404176574192267"><ele>219.0</ele><time>2026-04-30T15:03:46.999Z</time></trkpt><trkpt lat="43.18004775605643" lon="11.403942048039351"><ele>219.0</ele><time>2026-04-30T15:03:47.999Z</time></trkpt><trkpt lat="43.17986940708266" lon="11.403718507800871"><ele>221.33333333333331</ele><time>2026-04-30T15:03:48.999Z</time></trkpt><trkpt lat="43.179701378596725" lon="11.403503259208614"><ele>223.66666666666666</ele><time>2026-04-30T15:03:49.999Z</time></trkpt><trkpt lat="43.17955692250577" lon="11.403310421458459"><ele>226.0</ele><time>2026-04-30T15:03:50.999Z</time></trkpt><trkpt lat="43.17943276190225" lon="11.403115367293456"><ele>226.33333333333331</ele><time>2026-04-30T15:03:51.999Z</time></trkpt><trkpt lat="43.179323142352075" lon="11.402887981262364"><ele>226.66666666666669</ele><time>2026-04-30T15:03:52.999Z</time></trkpt><trkpt lat="43.179230605786216" lon="11.40261878081221"><ele>227.0</ele><time>2026-04-30T15:03:53.999Z</time></trkpt><trkpt lat="43.17916138017755" lon="11.40232630662839"><ele>227.0</ele><time>2026-04-30T15:03:54.999Z</time></trkpt><trkpt lat="43.17911189055457" lon="11.402034526352981"><ele>227.0</ele><time>2026-04-30T15:03:55.999Z</time></trkpt><trkpt lat="43.179041386086546" lon="11.401778295696966"><ele>227.0</ele><time>2026-04-30T15:03:56.999Z</time></trkpt><trkpt lat="43.178924628155606" lon="11.401541707265288"><ele>227.5</ele><time>2026-04-30T15:03:57.999Z</time></trkpt><trkpt lat="43.17876264882413" lon="11.401311407880957"><ele>228.0</ele><time>2026-04-30T15:03:58.999Z</time></trkpt><trkpt lat="43.17857343052883" lon="11.401087333374234"><ele>228.0</ele><time>2026-04-30T15:03:59.999Z</time></trkpt><trkpt lat="43.1783868048179" lon="11.400858288295272"><ele>228.0</ele><time>2026-04-30T15:04:00.999Z</time></trkpt><trkpt lat="43.1782099865969" lon="11.400624631937502"><ele>229.0</ele><time>2026-04-30T15:04:01.999Z</time></trkpt><trkpt lat="43.178031015748765" lon="11.400393914024841"><ele>230.0</ele><time>2026-04-30T15:04:02.999Z</time></trkpt><trkpt lat="43.17784788366226" lon="11.400155614611952"><ele>230.0</ele><time>2026-04-30T15:04:03.999Z</time></trkpt><trkpt lat="43.17765033269096" lon="11.399890619252096"><ele>230.0</ele><time>2026-04-30T15:04:04.999Z</time></trkpt><trkpt lat="43.17743803468859" lon="11.399615850961887"><ele>230.5</ele><time>2026-04-30T15:04:05.999Z</time></trkpt><trkpt lat="43.177214664929465" lon="11.399316254413058"><ele>231.0</ele><time>2026-04-30T15:04:06.999Z</time></trkpt><trkpt lat="43.17697846520716" lon="11.39900902260606"><ele>232.5</ele><time>2026-04-30T15:04:07.999Z</time></trkpt><trkpt lat="43.176733640094156" lon="11.398679491150864"><ele>234.0</ele><time>2026-04-30T15:04:09Z</time></trkpt><trkpt lat="43.17649606160015" lon="11.39836536645791"><ele>235.0</ele><time>2026-04-30T15:04:10Z</time></trkpt><trkpt lat="43.17626898768121" lon="11.398076199726427"><ele>236.0</ele><time>2026-04-30T15:04:11Z</time></trkpt><trkpt lat="43.17604471730037" lon="11.397785012513847"><ele>239.0</ele><time>2026-04-30T15:04:12Z</time></trkpt><trkpt lat="43.175826483218465" lon="11.397509650029532"><ele>242.0</ele><time>2026-04-30T15:04:13Z</time></trkpt><trkpt lat="43.17564010932023" lon="11.397248632562158"><ele>247.5</ele><time>2026-04-30T15:04:14Z</time></trkpt><trkpt lat="43.17544777851491" lon="11.397007169327013"><ele>253.0</ele><time>2026-04-30T15:04:15Z</time></trkpt><trkpt lat="43.17524617905293" lon="11.396746365811484"><ele>253.0</ele><time>2026-04-30T15:04:16Z</time></trkpt><trkpt lat="43.175057834374236" lon="11.396497883990333"><ele>253.0</ele><time>2026-04-30T15:04:17Z</time></trkpt><trkpt lat="43.174880796354664" lon="11.396265026806754"><ele>256.66666666666663</ele><time>2026-04-30T15:04:18Z</time></trkpt><trkpt lat="43.17471382617618" lon="11.396054061207062"><ele>260.3333333333333</ele><time>2026-04-30T15:04:19Z</time></trkpt><trkpt lat="43.17455982866453" lon="11.395849484949816"><ele>264.0</ele><time>2026-04-30T15:04:20Z</time></trkpt><trkpt lat="43.1744209968932" lon="11.395668167842667"><ele>264.6666666666667</ele><time>2026-04-30T15:04:21Z</time></trkpt><trkpt lat="43.174290446747655" lon="11.395496149151468"><ele>265.33333333333337</ele><time>2026-04-30T15:04:22Z</time></trkpt><trkpt lat="43.174168936801294" lon="11.395345724885816"><ele>266.0</ele><time>2026-04-30T15:04:23Z</time></trkpt><trkpt lat="43.174072303604625" lon="11.395210492397766"><ele>268.25</ele><time>2026-04-30T15:04:24Z</time></trkpt><trkpt lat="43.17399720115658" lon="11.39505597174189"><ele>270.5</ele><time>2026-04-30T15:04:25Z</time></trkpt><trkpt lat="43.17394067424722" lon="11.394855408378296"><ele>272.75</ele><time>2026-04-30T15:04:26Z</time></trkpt><trkpt lat="43.173922350164446" lon="11.394642323391617"><ele>275.0</ele><time>2026-04-30T15:04:27Z</time></trkpt><trkpt lat="43.17392356876195" lon="11.39442789419959"><ele>275.6666666666667</ele><time>2026-04-30T15:04:28Z</time></trkpt><trkpt lat="43.1739214739162" lon="11.394213097683215"><ele>276.3333333333333</ele><time>2026-04-30T15:04:29Z</time></trkpt><trkpt lat="43.1739091458286" lon="11.39395436571429"><ele>277.0</ele><time>2026-04-30T15:04:30Z</time></trkpt><trkpt lat="43.17388247071249" lon="11.393684302691959"><ele>278.3333333333333</ele><time>2026-04-30T15:04:31Z</time></trkpt><trkpt lat="43.17384473096588" lon="11.393382515604197"><ele>279.6666666666667</ele><time>2026-04-30T15:04:32Z</time></trkpt><trkpt lat="43.173801146346456" lon="11.393100201625113"><ele>281.0</ele><time>2026-04-30T15:04:33Z</time></trkpt><trkpt lat="43.17375236902067" lon="11.392837526152357"><ele>281.0</ele><time>2026-04-30T15:04:34Z</time></trkpt><trkpt lat="43.1736978707202" lon="11.392583710967333"><ele>281.0</ele><time>2026-04-30T15:04:35Z</time></trkpt><trkpt lat="43.17364295604809" lon="11.392343379914635"><ele>281.0</ele><time>2026-04-30T15:04:36Z</time></trkpt><trkpt lat="43.17359313804835" lon="11.392106572631421"><ele>281.0</ele><time>2026-04-30T15:04:37Z</time></trkpt><trkpt lat="43.17353914835297" lon="11.391878170112562"><ele>281.0</ele><time>2026-04-30T15:04:38Z</time></trkpt><trkpt lat="43.17348648490867" lon="11.39165160019962"><ele>281.0</ele><time>2026-04-30T15:04:39Z</time></trkpt><trkpt lat="43.17345848985528" lon="11.391411154352998"><ele>281.33333333333337</ele><time>2026-04-30T15:04:40Z</time></trkpt><trkpt lat="43.173456094311305" lon="11.391150440229426"><ele>281.6666666666667</ele><time>2026-04-30T15:04:41Z</time></trkpt><trkpt lat="43.173473065930445" lon="11.390914454412476"><ele>282.0</ele><time>2026-04-30T15:04:42Z</time></trkpt><trkpt lat="43.17348962436814" lon="11.390718527172508"><ele>282.0</ele><time>2026-04-30T15:04:43Z</time></trkpt><trkpt lat="43.17350680990565" lon="11.3905579689789"><ele>282.0</ele><time>2026-04-30T15:04:44Z</time></trkpt><trkpt lat="43.17352187984875" lon="11.390421847209808"><ele>282.0</ele><time>2026-04-30T15:04:45Z</time></trkpt><trkpt lat="43.17354153279041" lon="11.390236115790517"><ele>282.0</ele><time>2026-04-30T15:04:46Z</time></trkpt><trkpt lat="43.173566646647366" lon="11.390032343229732"><ele>283.3333333333333</ele><time>2026-04-30T15:04:47Z</time></trkpt><trkpt lat="43.17360861226482" lon="11.38983344961763"><ele>284.66666666666663</ele><time>2026-04-30T15:04:48Z</time></trkpt><trkpt lat="43.173682806342384" lon="11.389650559614386"><ele>286.0</ele><time>2026-04-30T15:04:49Z</time></trkpt><trkpt lat="43.17378207476078" lon="11.389471231921926"><ele>287.66666666666663</ele><time>2026-04-30T15:04:50Z</time></trkpt><trkpt lat="43.17390792548057" lon="11.38930890859251"><ele>289.3333333333333</ele><time>2026-04-30T15:04:51Z</time></trkpt><trkpt lat="43.17405703691176" lon="11.38917690660859"><ele>291.0</ele><time>2026-04-30T15:04:52Z</time></trkpt><trkpt lat="43.1742295301075" lon="11.389077218970206"><ele>287.0</ele><time>2026-04-30T15:04:53Z</time></trkpt><trkpt lat="43.174413809047856" lon="11.38899713159191"><ele>283.0</ele><time>2026-04-30T15:04:54Z</time></trkpt><trkpt lat="43.174601997657525" lon="11.38891556616932"><ele>279.0</ele><time>2026-04-30T15:04:55Z</time></trkpt><trkpt lat="43.17479365946798" lon="11.38882788696671"><ele>277.0</ele><time>2026-04-30T15:04:56Z</time></trkpt><trkpt lat="43.174990132135854" lon="11.388739483659602"><ele>275.0</ele><time>2026-04-30T15:04:57Z</time></trkpt><trkpt lat="43.1751904354727" lon="11.388655837377387"><ele>273.0</ele><time>2026-04-30T15:04:58Z</time></trkpt><trkpt lat="43.1753914077921" lon="11.38857222397451"><ele>273.0</ele><time>2026-04-30T15:04:59Z</time></trkpt><trkpt lat="43.17557553684684" lon="11.388493862495359"><ele>273.0</ele><time>2026-04-30T15:05:00Z</time></trkpt><trkpt lat="43.17574997320973" lon="11.388415079900579"><ele>273.0</ele><time>2026-04-30T15:05:01Z</time></trkpt><trkpt lat="43.1759170296253" lon="11.388327960124316"><ele>273.3333333333333</ele><time>2026-04-30T15:05:02Z</time></trkpt><trkpt lat="43.176082415557936" lon="11.388193685972501"><ele>273.66666666666663</ele><time>2026-04-30T15:05:03Z</time></trkpt><trkpt lat="43.1762407288952" lon="11.38802888766652"><ele>274.0</ele><time>2026-04-30T15:05:04Z</time></trkpt><trkpt lat="43.176378019151535" lon="11.38783916820541"><ele>273.3333333333333</ele><time>2026-04-30T15:05:05Z</time></trkpt><trkpt lat="43.17650208792178" lon="11.38762255027879"><ele>272.6666666666667</ele><time>2026-04-30T15:05:06Z</time></trkpt><trkpt lat="43.17661029736534" lon="11.38737726704393"><ele>272.0</ele><time>2026-04-30T15:05:07Z</time></trkpt><trkpt lat="43.176711442745855" lon="11.387119700771082"><ele>272.0</ele><time>2026-04-30T15:05:08Z</time></trkpt><trkpt lat="43.17681213220557" lon="11.386871957156236"><ele>272.0</ele><time>2026-04-30T15:05:09Z</time></trkpt><trkpt lat="43.17690714019206" lon="11.386636107835132"><ele>272.0</ele><time>2026-04-30T15:05:10Z</time></trkpt><trkpt lat="43.17700235836261" lon="11.386411668364648"><ele>272.6666666666667</ele><time>2026-04-30T15:05:11Z</time></trkpt><trkpt lat="43.17709797392326" lon="11.38617983320175"><ele>273.3333333333333</ele><time>2026-04-30T15:05:12Z</time></trkpt><trkpt lat="43.17718901318918" lon="11.385957029347225"><ele>274.0</ele><time>2026-04-30T15:05:13Z</time></trkpt><trkpt lat="43.177275611119754" lon="11.385746796867377"><ele>274.3333333333333</ele><time>2026-04-30T15:05:14Z</time></trkpt><trkpt lat="43.177397696578396" lon="11.385549563299938"><ele>274.6666666666667</ele><time>2026-04-30T15:05:15Z</time></trkpt><trkpt lat="43.17755329517627" lon="11.385380255471734"><ele>275.0</ele><time>2026-04-30T15:05:15.998Z</time></trkpt><trkpt lat="43.17774052809873" lon="11.385226376647406"><ele>272.0</ele><time>2026-04-30T15:05:16.998Z</time></trkpt><trkpt lat="43.17793759275644" lon="11.385073833569379"><ele>269.0</ele><time>2026-04-30T15:05:17.998Z</time></trkpt><trkpt lat="43.17813304705149" lon="11.384900625845798"><ele>269.0</ele><time>2026-04-30T15:05:18.998Z</time></trkpt><trkpt lat="43.1783145147226" lon="11.384708199607026"><ele>269.0</ele><time>2026-04-30T15:05:19.998Z</time></trkpt><trkpt lat="43.1784764467315" lon="11.38449829296296"><ele>269.0</ele><time>2026-04-30T15:05:20.998Z</time></trkpt><trkpt lat="43.17863765485978" lon="11.384309917578971"><ele>269.0</ele><time>2026-04-30T15:05:21.998Z</time></trkpt><trkpt lat="43.17880035297729" lon="11.384136134552811"><ele>269.0</ele><time>2026-04-30T15:05:22.998Z</time></trkpt><trkpt lat="43.17896938643076" lon="11.38400716082506"><ele>267.0</ele><time>2026-04-30T15:05:23.998Z</time></trkpt><trkpt lat="43.17916525037079" lon="11.383902670177994"><ele>265.0</ele><time>2026-04-30T15:05:24.998Z</time></trkpt><trkpt lat="43.17936254638768" lon="11.383798634647826"><ele>263.0</ele><time>2026-04-30T15:05:25.998Z</time></trkpt><trkpt lat="43.179551984812555" lon="11.383693124645571"><ele>263.0</ele><time>2026-04-30T15:05:26.998Z</time></trkpt><trkpt lat="43.179730703463754" lon="11.383580965994277"><ele>263.0</ele><time>2026-04-30T15:05:27.998Z</time></trkpt><trkpt lat="43.179913444078714" lon="11.383487736943424"><ele>263.0</ele><time>2026-04-30T15:05:28.998Z</time></trkpt><trkpt lat="43.18009326908153" lon="11.383373186522473"><ele>264.0</ele><time>2026-04-30T15:05:29.998Z</time></trkpt><trkpt lat="43.180276716611964" lon="11.383219207922153"><ele>265.0</ele><time>2026-04-30T15:05:30.998Z</time></trkpt><trkpt lat="43.18045942191065" lon="11.3830405372818"><ele>266.0</ele><time>2026-04-30T15:05:31.999Z</time></trkpt><trkpt lat="43.18063226488006" lon="11.382867272895544"><ele>266.0</ele><time>2026-04-30T15:05:32.999Z</time></trkpt><trkpt lat="43.180800051433835" lon="11.382709040933216"><ele>266.0</ele><time>2026-04-30T15:05:33.999Z</time></trkpt><trkpt lat="43.18096382316862" lon="11.382553246072696"><ele>266.0</ele><time>2026-04-30T15:05:34.999Z</time></trkpt><trkpt lat="43.18112491503072" lon="11.382413173468823"><ele>266.0</ele><time>2026-04-30T15:05:35.999Z</time></trkpt><trkpt lat="43.181265251798976" lon="11.382275328506278"><ele>266.0</ele><time>2026-04-30T15:05:36.999Z</time></trkpt><trkpt lat="43.18139717685403" lon="11.382132111541715"><ele>266.0</ele><time>2026-04-30T15:05:37.999Z</time></trkpt><trkpt lat="43.181529644806275" lon="11.38190187475369"><ele>266.33333333333337</ele><time>2026-04-30T15:05:38.999Z</time></trkpt><trkpt lat="43.181607956152156" lon="11.381657082805296"><ele>266.6666666666667</ele><time>2026-04-30T15:05:39.999Z</time></trkpt><trkpt lat="43.181654202630554" lon="11.381374257567165"><ele>267.0</ele><time>2026-04-30T15:05:40.999Z</time></trkpt><trkpt lat="43.18167759341188" lon="11.381080868165546"><ele>267.0</ele><time>2026-04-30T15:05:41.999Z</time></trkpt><trkpt lat="43.181685615561626" lon="11.380818104483913"><ele>267.0</ele><time>2026-04-30T15:05:42.999Z</time></trkpt><trkpt lat="43.181712484926145" lon="11.380578133856652"><ele>267.0</ele><time>2026-04-30T15:05:43.999Z</time></trkpt><trkpt lat="43.18174872184622" lon="11.38034643198113"><ele>267.6666666666667</ele><time>2026-04-30T15:05:44.999Z</time></trkpt><trkpt lat="43.18178741512029" lon="11.380103395863312"><ele>268.33333333333337</ele><time>2026-04-30T15:05:45.999Z</time></trkpt><trkpt lat="43.18183636444991" lon="11.379855069518511"><ele>269.0</ele><time>2026-04-30T15:05:46.999Z</time></trkpt><trkpt lat="43.18189761126005" lon="11.379601284541865"><ele>268.6666666666667</ele><time>2026-04-30T15:05:47.999Z</time></trkpt><trkpt lat="43.18197214464312" lon="11.37934936988845"><ele>268.3333333333333</ele><time>2026-04-30T15:05:48.999Z</time></trkpt><trkpt lat="43.182046620147325" lon="11.379091998267086"><ele>268.0</ele><time>2026-04-30T15:05:49.999Z</time></trkpt><trkpt lat="43.18210048101039" lon="11.378835135142667"><ele>268.0</ele><time>2026-04-30T15:05:50.999Z</time></trkpt><trkpt lat="43.1821356376301" lon="11.37857735371398"><ele>268.0</ele><time>2026-04-30T15:05:51.999Z</time></trkpt><trkpt lat="43.182138822457404" lon="11.378312237853823"><ele>268.0</ele><time>2026-04-30T15:05:52.999Z</time></trkpt><trkpt lat="43.18215273280581" lon="11.378052537602157"><ele>270.3333333333333</ele><time>2026-04-30T15:05:53.999Z</time></trkpt><trkpt lat="43.18217700090639" lon="11.377796886319942"><ele>272.6666666666667</ele><time>2026-04-30T15:05:54.999Z</time></trkpt><trkpt lat="43.18220435533321" lon="11.377543992721211"><ele>275.0</ele><time>2026-04-30T15:05:55.999Z</time></trkpt><trkpt lat="43.18222484846252" lon="11.377281089007727"><ele>277.33333333333337</ele><time>2026-04-30T15:05:56.999Z</time></trkpt><trkpt lat="43.18224221741928" lon="11.377023633395753"><ele>279.6666666666667</ele><time>2026-04-30T15:05:57.999Z</time></trkpt><trkpt lat="43.18225814619183" lon="11.376761356442074"><ele>282.0</ele><time>2026-04-30T15:05:58.999Z</time></trkpt><trkpt lat="43.18228049856903" lon="11.37649299658099"><ele>281.6666666666667</ele><time>2026-04-30T15:05:59.999Z</time></trkpt><trkpt lat="43.18229904844536" lon="11.376239704494852"><ele>281.33333333333337</ele><time>2026-04-30T15:06:01Z</time></trkpt><trkpt lat="43.182345115336034" lon="11.375987116729819"><ele>281.0</ele><time>2026-04-30T15:06:02Z</time></trkpt><trkpt lat="43.182442247511126" lon="11.375762882205581"><ele>281.0</ele><time>2026-04-30T15:06:03Z</time></trkpt><trkpt lat="43.1825685993949" lon="11.375566799127737"><ele>281.0</ele><time>2026-04-30T15:06:04Z</time></trkpt><trkpt lat="43.182724244219926" lon="11.375407594287681"><ele>281.0</ele><time>2026-04-30T15:06:05Z</time></trkpt><trkpt lat="43.182888754500354" lon="11.3752781891055"><ele>281.33333333333337</ele><time>2026-04-30T15:06:06Z</time></trkpt><trkpt lat="43.183055822778734" lon="11.375148822208692"><ele>281.6666666666667</ele><time>2026-04-30T15:06:07Z</time></trkpt><trkpt lat="43.18322190913045" lon="11.375022357072655"><ele>282.0</ele><time>2026-04-30T15:06:08Z</time></trkpt><trkpt lat="43.18336264124546" lon="11.37490875412916"><ele>283.75</ele><time>2026-04-30T15:06:09Z</time></trkpt><trkpt lat="43.183489147624854" lon="11.37479974088885"><ele>285.5</ele><time>2026-04-30T15:06:10Z</time></trkpt><trkpt lat="43.18360474496555" lon="11.374698973192379"><ele>287.25</ele><time>2026-04-30T15:06:11Z</time></trkpt><trkpt lat="43.18371073699492" lon="11.374575554879232"><ele>289.0</ele><time>2026-04-30T15:06:12Z</time></trkpt><trkpt lat="43.183807470659566" lon="11.374408907600973"><ele>290.5</ele><time>2026-04-30T15:06:13Z</time></trkpt><trkpt lat="43.18389388616447" lon="11.374214447034435"><ele>292.0</ele><time>2026-04-30T15:06:14Z</time></trkpt><trkpt lat="43.18394395811006" lon="11.37403015856529"><ele>293.5</ele><time>2026-04-30T15:06:15Z</time></trkpt><trkpt lat="43.18394782383449" lon="11.373840370831452"><ele>295.0</ele><time>2026-04-30T15:06:16Z</time></trkpt><trkpt lat="43.18393811150677" lon="11.37366057388734"><ele>295.0</ele><time>2026-04-30T15:06:17Z</time></trkpt><trkpt lat="43.183927432354665" lon="11.37347033316625"><ele>295.0</ele><time>2026-04-30T15:06:18Z</time></trkpt><trkpt lat="43.18391154622215" lon="11.373275853010957"><ele>295.0</ele><time>2026-04-30T15:06:19Z</time></trkpt><trkpt lat="43.18390050744034" lon="11.373048423564716"><ele>295.0</ele><time>2026-04-30T15:06:20Z</time></trkpt><trkpt lat="43.18389267076063" lon="11.372797257839517"><ele>293.66666666666663</ele><time>2026-04-30T15:06:21Z</time></trkpt><trkpt lat="43.18387928268764" lon="11.372553671457053"><ele>292.3333333333333</ele><time>2026-04-30T15:06:22Z</time></trkpt><trkpt lat="43.183869032949644" lon="11.372322642208154"><ele>291.0</ele><time>2026-04-30T15:06:23Z</time></trkpt><trkpt lat="43.1838628647932" lon="11.372102300009523"><ele>291.0</ele><time>2026-04-30T15:06:24Z</time></trkpt><trkpt lat="43.18385716096493" lon="11.371887783123285"><ele>291.0</ele><time>2026-04-30T15:06:25Z</time></trkpt><trkpt lat="43.1838485037787" lon="11.371681255842347"><ele>291.0</ele><time>2026-04-30T15:06:26Z</time></trkpt><trkpt lat="43.18383739099301" lon="11.371479038266106"><ele>291.0</ele><time>2026-04-30T15:06:27Z</time></trkpt><trkpt lat="43.18382348281025" lon="11.371277984001841"><ele>291.0</ele><time>2026-04-30T15:06:28Z</time></trkpt><trkpt lat="43.183819529215405" lon="11.371068277757491"><ele>291.0</ele><time>2026-04-30T15:06:29Z</time></trkpt><trkpt lat="43.183815171984214" lon="11.370842295549648"><ele>291.0</ele><time>2026-04-30T15:06:30Z</time></trkpt><trkpt lat="43.18380182356724" lon="11.370597615202497"><ele>291.0</ele><time>2026-04-30T15:06:31Z</time></trkpt><trkpt lat="43.18379006172544" lon="11.370335734727954"><ele>291.0</ele><time>2026-04-30T15:06:32Z</time></trkpt><trkpt lat="43.18378068023767" lon="11.37007075371679"><ele>288.3333333333333</ele><time>2026-04-30T15:06:33Z</time></trkpt><trkpt lat="43.18377247298289" lon="11.36980684399238"><ele>285.66666666666663</ele><time>2026-04-30T15:06:34Z</time></trkpt><trkpt lat="43.183776214476985" lon="11.36955349200843"><ele>283.0</ele><time>2026-04-30T15:06:35Z</time></trkpt><trkpt lat="43.1837682963167" lon="11.369301366681775"><ele>283.0</ele><time>2026-04-30T15:06:36Z</time></trkpt><trkpt lat="43.183757303196174" lon="11.369065349008618"><ele>283.0</ele><time>2026-04-30T15:06:37Z</time></trkpt><trkpt lat="43.183741986257495" lon="11.36883509408642"><ele>283.0</ele><time>2026-04-30T15:06:38Z</time></trkpt><trkpt lat="43.18370043305893" lon="11.368612269975493"><ele>283.0</ele><time>2026-04-30T15:06:39Z</time></trkpt><trkpt lat="43.18362511814094" lon="11.36840987651729"><ele>283.0</ele><time>2026-04-30T15:06:40Z</time></trkpt><trkpt lat="43.183532998142745" lon="11.368242490099547"><ele>283.0</ele><time>2026-04-30T15:06:41Z</time></trkpt><trkpt lat="43.18347198111425" lon="11.368083639809079"><ele>283.0</ele><time>2026-04-30T15:06:42Z</time></trkpt><trkpt lat="43.183460551482604" lon="11.36791649436631"><ele>283.0</ele><time>2026-04-30T15:06:43Z</time></trkpt><trkpt lat="43.18350582903301" lon="11.367731424307904"><ele>283.0</ele><time>2026-04-30T15:06:44Z</time></trkpt><trkpt lat="43.18361078487399" lon="11.367572734969311"><ele>283.0</ele><time>2026-04-30T15:06:45Z</time></trkpt><trkpt lat="43.18375148433184" lon="11.367445724320033"><ele>283.0</ele><time>2026-04-30T15:06:46Z</time></trkpt><trkpt lat="43.18391412153572" lon="11.367274898988596"><ele>283.0</ele><time>2026-04-30T15:06:47Z</time></trkpt><trkpt lat="43.18409306051963" lon="11.367111442021509"><ele>283.0</ele><time>2026-04-30T15:06:48Z</time></trkpt><trkpt lat="43.184260903186704" lon="11.366952642211889"><ele>284.0</ele><time>2026-04-30T15:06:49Z</time></trkpt><trkpt lat="43.18441344144712" lon="11.366816617593614"><ele>285.0</ele><time>2026-04-30T15:06:50Z</time></trkpt><trkpt lat="43.18455098420938" lon="11.366687389069751"><ele>286.0</ele><time>2026-04-30T15:06:51Z</time></trkpt><trkpt lat="43.18467209480828" lon="11.366558744932652"><ele>286.0</ele><time>2026-04-30T15:06:52Z</time></trkpt><trkpt lat="43.184767364060434" lon="11.366410095249313"><ele>286.0</ele><time>2026-04-30T15:06:53Z</time></trkpt><trkpt lat="43.18482486096192" lon="11.366221052380062"><ele>286.0</ele><time>2026-04-30T15:06:54Z</time></trkpt><trkpt lat="43.1848302915206" lon="11.365994299076469"><ele>286.0</ele><time>2026-04-30T15:06:55Z</time></trkpt><trkpt lat="43.18478508334047" lon="11.365769695015677"><ele>286.0</ele><time>2026-04-30T15:06:56Z</time></trkpt><trkpt lat="43.184698157026176" lon="11.365549610545898"><ele>286.0</ele><time>2026-04-30T15:06:57Z</time></trkpt><trkpt lat="43.18462365731228" lon="11.365365596647823"><ele>286.0</ele><time>2026-04-30T15:06:58Z</time></trkpt><trkpt lat="43.184593646847155" lon="11.365188085188153"><ele>286.0</ele><time>2026-04-30T15:06:59Z</time></trkpt><trkpt lat="43.18460668339253" lon="11.36500134076001"><ele>286.0</ele><time>2026-04-30T15:07:00Z</time></trkpt><trkpt lat="43.184697890613855" lon="11.364822000533877"><ele>286.0</ele><time>2026-04-30T15:07:01Z</time></trkpt><trkpt lat="43.184815406032314" lon="11.364615276282475"><ele>288.3333333333333</ele><time>2026-04-30T15:07:02Z</time></trkpt><trkpt lat="43.18496942846278" lon="11.364418602941932"><ele>290.6666666666667</ele><time>2026-04-30T15:07:03Z</time></trkpt><trkpt lat="43.1850998392545" lon="11.364216189651046"><ele>293.0</ele><time>2026-04-30T15:07:04Z</time></trkpt><trkpt lat="43.185216350684776" lon="11.364027636684876"><ele>291.75</ele><time>2026-04-30T15:07:05Z</time></trkpt><trkpt lat="43.18532604039326" lon="11.363853176710737"><ele>290.5</ele><time>2026-04-30T15:07:06Z</time></trkpt><trkpt lat="43.18542115544391" lon="11.363702907292486"><ele>289.25</ele><time>2026-04-30T15:07:07.001Z</time></trkpt><trkpt lat="43.1854907171715" lon="11.36355583073122"><ele>288.0</ele><time>2026-04-30T15:07:08.001Z</time></trkpt><trkpt lat="43.18552109281705" lon="11.363373955212035"><ele>288.0</ele><time>2026-04-30T15:07:09.001Z</time></trkpt><trkpt lat="43.18548379598385" lon="11.363166076852265"><ele>288.0</ele><time>2026-04-30T15:07:10.001Z</time></trkpt><trkpt lat="43.18539498439656" lon="11.362963172052394"><ele>288.0</ele><time>2026-04-30T15:07:11.001Z</time></trkpt><trkpt lat="43.18533767447798" lon="11.362790482394926"><ele>292.3333333333333</ele><time>2026-04-30T15:07:12.001Z</time></trkpt><trkpt lat="43.18534400081414" lon="11.362607030054763"><ele>296.66666666666663</ele><time>2026-04-30T15:07:13.001Z</time></trkpt><trkpt lat="43.18543088522461" lon="11.362441606035357"><ele>301.0</ele><time>2026-04-30T15:07:14.001Z</time></trkpt><trkpt lat="43.1855512964908" lon="11.362232333392022"><ele>297.66666666666663</ele><time>2026-04-30T15:07:15.001Z</time></trkpt><trkpt lat="43.18564964582608" lon="11.36204756713469"><ele>294.3333333333333</ele><time>2026-04-30T15:07:16.001Z</time></trkpt><trkpt lat="43.18572982278129" lon="11.361843058583494"><ele>291.0</ele><time>2026-04-30T15:07:17.001Z</time></trkpt><trkpt lat="43.18577267635957" lon="11.361620163018427"><ele>291.0</ele><time>2026-04-30T15:07:18.001Z</time></trkpt><trkpt lat="43.18577178374789" lon="11.361393133658298"><ele>291.0</ele><time>2026-04-30T15:07:19.001Z</time></trkpt><trkpt lat="43.185735230480994" lon="11.361123258051325"><ele>291.0</ele><time>2026-04-30T15:07:20.001Z</time></trkpt><trkpt lat="43.18567195924186" lon="11.360834557060416"><ele>304.5</ele><time>2026-04-30T15:07:21.001Z</time></trkpt><trkpt lat="43.185596613589716" lon="11.360507444842193"><ele>318.0</ele><time>2026-04-30T15:07:22Z</time></trkpt><trkpt lat="43.18553223618584" lon="11.360175058489755"><ele>318.0</ele><time>2026-04-30T15:07:23Z</time></trkpt><trkpt lat="43.18547199088308" lon="11.359855894664811"><ele>318.0</ele><time>2026-04-30T15:07:24Z</time></trkpt><trkpt lat="43.18541900899335" lon="11.359559347785241"><ele>317.0</ele><time>2026-04-30T15:07:25Z</time></trkpt><trkpt lat="43.18537379943839" lon="11.359283664594965"><ele>316.0</ele><time>2026-04-30T15:07:26Z</time></trkpt><trkpt lat="43.18532373497012" lon="11.35901720654517"><ele>315.0</ele><time>2026-04-30T15:07:27Z</time></trkpt><trkpt lat="43.18527359752005" lon="11.358742396594389"><ele>313.6666666666667</ele><time>2026-04-30T15:07:28Z</time></trkpt><trkpt lat="43.18523080190063" lon="11.358460278941992"><ele>312.33333333333337</ele><time>2026-04-30T15:07:29Z</time></trkpt><trkpt lat="43.18518619839534" lon="11.358194111726569"><ele>311.0</ele><time>2026-04-30T15:07:30Z</time></trkpt><trkpt lat="43.18512605246201" lon="11.357936006948037"><ele>308.5</ele><time>2026-04-30T15:07:31Z</time></trkpt><trkpt lat="43.18503418518022" lon="11.357663707354897"><ele>306.0</ele><time>2026-04-30T15:07:32Z</time></trkpt><trkpt lat="43.18490935518132" lon="11.357377293935272"><ele>316.0</ele><time>2026-04-30T15:07:33Z</time></trkpt><trkpt lat="43.18477345294576" lon="11.357068348135599"><ele>326.0</ele><time>2026-04-30T15:07:34Z</time></trkpt><trkpt lat="43.18464154249824" lon="11.356763576063315"><ele>326.0</ele><time>2026-04-30T15:07:35Z</time></trkpt><trkpt lat="43.184517566674565" lon="11.35645960092204"><ele>326.0</ele><time>2026-04-30T15:07:36Z</time></trkpt><trkpt lat="43.18439785296339" lon="11.356178643968198"><ele>324.6666666666667</ele><time>2026-04-30T15:07:37Z</time></trkpt><trkpt lat="43.184294656499944" lon="11.355929786508604"><ele>323.3333333333333</ele><time>2026-04-30T15:07:38Z</time></trkpt><trkpt lat="43.18420259190755" lon="11.355702787700226"><ele>322.0</ele><time>2026-04-30T15:07:39Z</time></trkpt><trkpt lat="43.184096596200995" lon="11.355487232320396"><ele>323.3333333333333</ele><time>2026-04-30T15:07:40Z</time></trkpt><trkpt lat="43.18395065640855" lon="11.355277290415748"><ele>324.6666666666667</ele><time>2026-04-30T15:07:41Z</time></trkpt><trkpt lat="43.183760980290586" lon="11.355087754583508"><ele>326.0</ele><time>2026-04-30T15:07:42Z</time></trkpt><trkpt lat="43.183554819506256" lon="11.35492190029675"><ele>326.0</ele><time>2026-04-30T15:07:43Z</time></trkpt><trkpt lat="43.183373014021335" lon="11.354761783796599"><ele>326.0</ele><time>2026-04-30T15:07:44Z</time></trkpt><trkpt lat="43.183216841368946" lon="11.354616861280565"><ele>326.0</ele><time>2026-04-30T15:07:45Z</time></trkpt><trkpt lat="43.18307454555171" lon="11.354483536556062"><ele>327.6666666666667</ele><time>2026-04-30T15:07:46Z</time></trkpt><trkpt lat="43.18295124133507" lon="11.354364290109363"><ele>329.3333333333333</ele><time>2026-04-30T15:07:47Z</time></trkpt><trkpt lat="43.18282856914857" lon="11.35423131614468"><ele>331.0</ele><time>2026-04-30T15:07:48Z</time></trkpt><trkpt lat="43.18270749912614" lon="11.354060729390264"><ele>335.0</ele><time>2026-04-30T15:07:49Z</time></trkpt><trkpt lat="43.182603989379736" lon="11.353849022865111"><ele>339.0</ele><time>2026-04-30T15:07:50Z</time></trkpt><trkpt lat="43.18251054334178" lon="11.353615662935189"><ele>343.0</ele><time>2026-04-30T15:07:51Z</time></trkpt><trkpt lat="43.18243466826047" lon="11.35337279103292"><ele>343.0</ele><time>2026-04-30T15:07:52Z</time></trkpt><trkpt lat="43.1823670282388" lon="11.353130089777796"><ele>343.0</ele><time>2026-04-30T15:07:53Z</time></trkpt><trkpt lat="43.1822989253873" lon="11.352887614266074"><ele>343.0</ele><time>2026-04-30T15:07:54Z</time></trkpt><trkpt lat="43.182230918914506" lon="11.35266155255743"><ele>343.0</ele><time>2026-04-30T15:07:55Z</time></trkpt><trkpt lat="43.182165791194834" lon="11.352449338506663"><ele>343.0</ele><time>2026-04-30T15:07:56Z</time></trkpt><trkpt lat="43.1821078892978" lon="11.352243763453457"><ele>343.0</ele><time>2026-04-30T15:07:57Z</time></trkpt><trkpt lat="43.182056189476" lon="11.35205831913184"><ele>343.0</ele><time>2026-04-30T15:07:58Z</time></trkpt><trkpt lat="43.1820194992717" lon="11.351884031249334"><ele>343.0</ele><time>2026-04-30T15:07:59Z</time></trkpt><trkpt lat="43.18200235520638" lon="11.351702818562309"><ele>343.0</ele><time>2026-04-30T15:08:00Z</time></trkpt><trkpt lat="43.18200498359586" lon="11.351505248897364"><ele>343.0</ele><time>2026-04-30T15:08:01Z</time></trkpt><trkpt lat="43.182032787075045" lon="11.35130335484047"><ele>344.66666666666663</ele><time>2026-04-30T15:08:02Z</time></trkpt><trkpt lat="43.182084099880626" lon="11.351099671839522"><ele>346.3333333333333</ele><time>2026-04-30T15:08:03Z</time></trkpt><trkpt lat="43.182154111337056" lon="11.35090022973545"><ele>348.0</ele><time>2026-04-30T15:08:04Z</time></trkpt><trkpt lat="43.18224128487633" lon="11.35068373899285"><ele>348.3333333333333</ele><time>2026-04-30T15:08:05Z</time></trkpt><trkpt lat="43.182324497374054" lon="11.35046464488198"><ele>348.66666666666663</ele><time>2026-04-30T15:08:06Z</time></trkpt><trkpt lat="43.18240249569762" lon="11.350243638178151"><ele>349.0</ele><time>2026-04-30T15:08:07Z</time></trkpt><trkpt lat="43.18247372071579" lon="11.35002163935241"><ele>353.0</ele><time>2026-04-30T15:08:08Z</time></trkpt><trkpt lat="43.1825313986068" lon="11.349774257386185"><ele>357.0</ele><time>2026-04-30T15:08:09Z</time></trkpt><trkpt lat="43.18255189885212" lon="11.349497288404622"><ele>361.0</ele><time>2026-04-30T15:08:10Z</time></trkpt><trkpt lat="43.1825261695792" lon="11.349184248841741"><ele>364.0</ele><time>2026-04-30T15:08:11Z</time></trkpt><trkpt lat="43.18248316350388" lon="11.348869986770692"><ele>367.0</ele><time>2026-04-30T15:08:12Z</time></trkpt><trkpt lat="43.182454085680064" lon="11.34854406559382"><ele>367.0</ele><time>2026-04-30T15:08:13Z</time></trkpt><trkpt lat="43.18242202180952" lon="11.348227374726424"><ele>367.0</ele><time>2026-04-30T15:08:14Z</time></trkpt><trkpt lat="43.1823860127853" lon="11.347914605220412"><ele>368.3333333333333</ele><time>2026-04-30T15:08:15Z</time></trkpt><trkpt lat="43.18235640954333" lon="11.347620677543835"><ele>369.6666666666667</ele><time>2026-04-30T15:08:16Z</time></trkpt><trkpt lat="43.1823313202208" lon="11.347334391417498"><ele>371.0</ele><time>2026-04-30T15:08:17Z</time></trkpt><trkpt lat="43.182298848336295" lon="11.347058230625288"><ele>374.33333333333337</ele><time>2026-04-30T15:08:18Z</time></trkpt><trkpt lat="43.182247136018745" lon="11.346768650561579"><ele>377.6666666666667</ele><time>2026-04-30T15:08:19.001Z</time></trkpt><trkpt lat="43.182174351571014" lon="11.346470278349122"><ele>381.0</ele><time>2026-04-30T15:08:20.001Z</time></trkpt><trkpt lat="43.18208642258448" lon="11.346213691302376"><ele>382.66666666666663</ele><time>2026-04-30T15:08:21.001Z</time></trkpt><trkpt lat="43.18200710381204" lon="11.345979514020163"><ele>384.3333333333333</ele><time>2026-04-30T15:08:22.001Z</time></trkpt><trkpt lat="43.18192052707581" lon="11.34576975379753"><ele>386.0</ele><time>2026-04-30T15:08:23.001Z</time></trkpt><trkpt lat="43.18180623346675" lon="11.345590883904146"><ele>388.0</ele><time>2026-04-30T15:08:24.001Z</time></trkpt><trkpt lat="43.1816534307082" lon="11.34544516213195"><ele>390.0</ele><time>2026-04-30T15:08:25.001Z</time></trkpt><trkpt lat="43.18146046199505" lon="11.345333703300716"><ele>392.0</ele><time>2026-04-30T15:08:26.001Z</time></trkpt><trkpt lat="43.18125161179603" lon="11.345227841727981"><ele>394.0</ele><time>2026-04-30T15:08:27.001Z</time></trkpt><trkpt lat="43.18105822610679" lon="11.345119995928957"><ele>396.0</ele><time>2026-04-30T15:08:28.001Z</time></trkpt><trkpt lat="43.18088144309322" lon="11.345014897902923"><ele>398.0</ele><time>2026-04-30T15:08:29.001Z</time></trkpt><trkpt lat="43.180713852720935" lon="11.344916854751494"><ele>400.3333333333333</ele><time>2026-04-30T15:08:30.001Z</time></trkpt><trkpt lat="43.18054929869173" lon="11.344824785163418"><ele>402.66666666666663</ele><time>2026-04-30T15:08:31.001Z</time></trkpt><trkpt lat="43.1803932482065" lon="11.344735163747808"><ele>405.0</ele><time>2026-04-30T15:08:32.001Z</time></trkpt><trkpt lat="43.18025704529561" lon="11.344612484669991"><ele>405.0</ele><time>2026-04-30T15:08:33.001Z</time></trkpt><trkpt lat="43.180142521648364" lon="11.344446904430558"><ele>405.0</ele><time>2026-04-30T15:08:34.001Z</time></trkpt><trkpt lat="43.180058902375194" lon="11.34423841634448"><ele>405.0</ele><time>2026-04-30T15:08:35.001Z</time></trkpt><trkpt lat="43.180016703641485" lon="11.343997418350364"><ele>408.0</ele><time>2026-04-30T15:08:36.001Z</time></trkpt><trkpt lat="43.18002095076456" lon="11.343732574153647"><ele>411.0</ele><time>2026-04-30T15:08:37.001Z</time></trkpt><trkpt lat="43.18003270964816" lon="11.34345079108971"><ele>414.0</ele><time>2026-04-30T15:08:38.001Z</time></trkpt><trkpt lat="43.1800247652957" lon="11.343180674387037"><ele>417.0</ele><time>2026-04-30T15:08:39.001Z</time></trkpt><trkpt lat="43.18002006873421" lon="11.342936843835062"><ele>420.0</ele><time>2026-04-30T15:08:40.001Z</time></trkpt><trkpt lat="43.179991006103" lon="11.34268226146426"><ele>423.0</ele><time>2026-04-30T15:08:41.001Z</time></trkpt><trkpt lat="43.17993814703345" lon="11.342439573396438"><ele>425.0</ele><time>2026-04-30T15:08:42.001Z</time></trkpt><trkpt lat="43.17990791506731" lon="11.34221479346824"><ele>427.0</ele><time>2026-04-30T15:08:43.001Z</time></trkpt><trkpt lat="43.179911357096415" lon="11.341948127223587"><ele>429.0</ele><time>2026-04-30T15:08:44.001Z</time></trkpt><trkpt lat="43.17994028728319" lon="11.341669162971758"><ele>429.0</ele><time>2026-04-30T15:08:45.001Z</time></trkpt><trkpt lat="43.17997718088608" lon="11.341389833068684"><ele>429.0</ele><time>2026-04-30T15:08:46.001Z</time></trkpt><trkpt lat="43.180006965790305" lon="11.341114291931914"><ele>429.0</ele><time>2026-04-30T15:08:47.001Z</time></trkpt><trkpt lat="43.18003245874792" lon="11.340843414965237"><ele>430.33333333333337</ele><time>2026-04-30T15:08:48.001Z</time></trkpt><trkpt lat="43.180059153221904" lon="11.34057552910028"><ele>431.6666666666667</ele><time>2026-04-30T15:08:49.001Z</time></trkpt><trkpt lat="43.180087138775946" lon="11.340309114607518"><ele>433.0</ele><time>2026-04-30T15:08:50.001Z</time></trkpt><trkpt lat="43.180108622507404" lon="11.340049138036862"><ele>434.0</ele><time>2026-04-30T15:08:51.001Z</time></trkpt><trkpt lat="43.180117302801214" lon="11.339783610091697"><ele>435.0</ele><time>2026-04-30T15:08:52.001Z</time></trkpt><trkpt lat="43.18011613579929" lon="11.339501617886269"><ele>436.0</ele><time>2026-04-30T15:08:53.001Z</time></trkpt><trkpt lat="43.18011358165655" lon="11.339222890554082"><ele>438.6666666666667</ele><time>2026-04-30T15:08:54.001Z</time></trkpt><trkpt lat="43.180113562522166" lon="11.338942130387332"><ele>441.33333333333337</ele><time>2026-04-30T15:08:55.001Z</time></trkpt><trkpt lat="43.18011274294239" lon="11.338663899864686"><ele>444.0</ele><time>2026-04-30T15:08:56.001Z</time></trkpt><trkpt lat="43.18010607434878" lon="11.338393798833613"><ele>445.33333333333337</ele><time>2026-04-30T15:08:57.001Z</time></trkpt><trkpt lat="43.18010037849212" lon="11.33812467182898"><ele>446.6666666666667</ele><time>2026-04-30T15:08:58.001Z</time></trkpt><trkpt lat="43.180096000086984" lon="11.337853867452912"><ele>448.0</ele><time>2026-04-30T15:08:59.001Z</time></trkpt><trkpt lat="43.18009506327262" lon="11.337586081751109"><ele>449.6666666666667</ele><time>2026-04-30T15:09:00.001Z</time></trkpt><trkpt lat="43.18009260631995" lon="11.337325005046635"><ele>451.33333333333337</ele><time>2026-04-30T15:09:01.001Z</time></trkpt><trkpt lat="43.18008285772532" lon="11.337064003562475"><ele>453.0</ele><time>2026-04-30T15:09:02.001Z</time></trkpt><trkpt lat="43.180044698898364" lon="11.336796274597416"><ele>454.0</ele><time>2026-04-30T15:09:03.001Z</time></trkpt><trkpt lat="43.1799819587377" lon="11.336513746935028"><ele>455.0</ele><time>2026-04-30T15:09:04.001Z</time></trkpt><trkpt lat="43.179918699285246" lon="11.336226692991335"><ele>456.0</ele><time>2026-04-30T15:09:05.001Z</time></trkpt><trkpt lat="43.17986413986581" lon="11.335952860397343"><ele>461.66666666666663</ele><time>2026-04-30T15:09:06.001Z</time></trkpt><trkpt lat="43.179811552449706" lon="11.335702443405829"><ele>467.3333333333333</ele><time>2026-04-30T15:09:07.001Z</time></trkpt><trkpt lat="43.17977068288197" lon="11.335462423976933"><ele>473.0</ele><time>2026-04-30T15:09:08.001Z</time></trkpt><trkpt lat="43.17977418563041" lon="11.335228477361797"><ele>472.66666666666663</ele><time>2026-04-30T15:09:09.001Z</time></trkpt><trkpt lat="43.17983189328193" lon="11.334978977262551"><ele>472.33333333333337</ele><time>2026-04-30T15:09:10.001Z</time></trkpt><trkpt lat="43.1799263707039" lon="11.334760525590656"><ele>472.0</ele><time>2026-04-30T15:09:11.001Z</time></trkpt><trkpt lat="43.18002708627013" lon="11.334564692132005"><ele>472.0</ele><time>2026-04-30T15:09:12.001Z</time></trkpt><trkpt lat="43.18010084723585" lon="11.33437736390127"><ele>472.0</ele><time>2026-04-30T15:09:13.001Z</time></trkpt><trkpt lat="43.18015489602013" lon="11.33416674012327"><ele>472.0</ele><time>2026-04-30T15:09:14.001Z</time></trkpt><trkpt lat="43.180162453945755" lon="11.333928403243815"><ele>470.33333333333337</ele><time>2026-04-30T15:09:15.001Z</time></trkpt><trkpt lat="43.18012330997633" lon="11.33369388064522"><ele>468.66666666666663</ele><time>2026-04-30T15:09:16.001Z</time></trkpt><trkpt lat="43.18003880507902" lon="11.333493423159497"><ele>467.0</ele><time>2026-04-30T15:09:17.001Z</time></trkpt><trkpt lat="43.179915177804176" lon="11.333351291487064"><ele>470.3333333333333</ele><time>2026-04-30T15:09:18.001Z</time></trkpt><trkpt lat="43.179760480273956" lon="11.333245198668594"><ele>473.66666666666663</ele><time>2026-04-30T15:09:19.001Z</time></trkpt><trkpt lat="43.17959767849597" lon="11.333192777435759"><ele>477.0</ele><time>2026-04-30T15:09:20.001Z</time></trkpt><trkpt lat="43.179411577586414" lon="11.333205815981374"><ele>477.0</ele><time>2026-04-30T15:09:21.001Z</time></trkpt><trkpt lat="43.17922510943639" lon="11.333231015797953"><ele>477.0</ele><time>2026-04-30T15:09:22.001Z</time></trkpt><trkpt lat="43.17906620694938" lon="11.333216488260424"><ele>477.0</ele><time>2026-04-30T15:09:23.001Z</time></trkpt><trkpt lat="43.178922568001255" lon="11.333160174641275"><ele>475.0</ele><time>2026-04-30T15:09:24.001Z</time></trkpt><trkpt lat="43.17877835983297" lon="11.33304065047928"><ele>473.0</ele><time>2026-04-30T15:09:25.001Z</time></trkpt><trkpt lat="43.178660447480134" lon="11.332854975307596"><ele>471.0</ele><time>2026-04-30T15:09:26.001Z</time></trkpt><trkpt lat="43.17854034051037" lon="11.332627937046821"><ele>471.0</ele><time>2026-04-30T15:09:27.002Z</time></trkpt><trkpt lat="43.17842277739792" lon="11.33240113637778"><ele>471.0</ele><time>2026-04-30T15:09:28Z</time></trkpt><trkpt lat="43.178296774661064" lon="11.332176685988697"><ele>471.0</ele><time>2026-04-30T15:09:29Z</time></trkpt><trkpt lat="43.178182669785" lon="11.331955569175989"><ele>472.66666666666663</ele><time>2026-04-30T15:09:30Z</time></trkpt><trkpt lat="43.17806615861432" lon="11.331740653884644"><ele>474.3333333333333</ele><time>2026-04-30T15:09:31Z</time></trkpt><trkpt lat="43.1779555461406" lon="11.331527839229432"><ele>476.0</ele><time>2026-04-30T15:09:32Z</time></trkpt><trkpt lat="43.17785776382802" lon="11.33131113136478"><ele>476.0</ele><time>2026-04-30T15:09:33Z</time></trkpt><trkpt lat="43.177772528113785" lon="11.331089406349985"><ele>476.0</ele><time>2026-04-30T15:09:34Z</time></trkpt><trkpt lat="43.17771480139167" lon="11.33085439587699"><ele>476.0</ele><time>2026-04-30T15:09:35Z</time></trkpt><trkpt lat="43.177685910511855" lon="11.330605349314268"><ele>475.0</ele><time>2026-04-30T15:09:36Z</time></trkpt><trkpt lat="43.17766745075176" lon="11.330360625177553"><ele>474.0</ele><time>2026-04-30T15:09:37Z</time></trkpt><trkpt lat="43.17767713867" lon="11.330109352230082"><ele>473.0</ele><time>2026-04-30T15:09:38Z</time></trkpt><trkpt lat="43.177687959342116" lon="11.329843550545728"><ele>471.0</ele><time>2026-04-30T15:09:39Z</time></trkpt><trkpt lat="43.17769979565357" lon="11.329579807363494"><ele>469.0</ele><time>2026-04-30T15:09:40Z</time></trkpt><trkpt lat="43.17770765328304" lon="11.329315682358216"><ele>467.0</ele><time>2026-04-30T15:09:41Z</time></trkpt><trkpt lat="43.17771373176255" lon="11.329048379514477"><ele>465.3333333333333</ele><time>2026-04-30T15:09:42Z</time></trkpt><trkpt lat="43.17771605044663" lon="11.328779271662794"><ele>463.66666666666663</ele><time>2026-04-30T15:09:43Z</time></trkpt><trkpt lat="43.177717477445064" lon="11.328501516113338"><ele>462.0</ele><time>2026-04-30T15:09:44Z</time></trkpt><trkpt lat="43.17774086886828" lon="11.328200569782084"><ele>460.66666666666663</ele><time>2026-04-30T15:09:45Z</time></trkpt><trkpt lat="43.177771841368" lon="11.327923688156323"><ele>459.3333333333333</ele><time>2026-04-30T15:09:46Z</time></trkpt><trkpt lat="43.17780859058307" lon="11.327660355470258"><ele>458.0</ele><time>2026-04-30T15:09:47Z</time></trkpt><trkpt lat="43.17787948224034" lon="11.327414476610768"><ele>456.3333333333333</ele><time>2026-04-30T15:09:48Z</time></trkpt><trkpt lat="43.177952688529494" lon="11.327149547638003"><ele>454.66666666666663</ele><time>2026-04-30T15:09:49Z</time></trkpt><trkpt lat="43.178041595299405" lon="11.326913016305861"><ele>453.0</ele><time>2026-04-30T15:09:50Z</time></trkpt><trkpt lat="43.17811954810637" lon="11.326687751658412"><ele>451.0</ele><time>2026-04-30T15:09:51Z</time></trkpt><trkpt lat="43.178193776621036" lon="11.326495944811567"><ele>449.0</ele><time>2026-04-30T15:09:52Z</time></trkpt><trkpt lat="43.17828447496711" lon="11.326333457762567"><ele>447.0</ele><time>2026-04-30T15:09:53Z</time></trkpt><trkpt lat="43.178365216482376" lon="11.32617931935693"><ele>445.0</ele><time>2026-04-30T15:09:54Z</time></trkpt><trkpt lat="43.178426821832524" lon="11.326028296259027"><ele>444.75</ele><time>2026-04-30T15:09:55Z</time></trkpt><trkpt lat="43.178450741751924" lon="11.325869847893172"><ele>444.5</ele><time>2026-04-30T15:09:56Z</time></trkpt><trkpt lat="43.17842895013275" lon="11.325692242506978"><ele>444.25</ele><time>2026-04-30T15:09:57.001Z</time></trkpt><trkpt lat="43.178354458073954" lon="11.325524356292588"><ele>444.0</ele><time>2026-04-30T15:09:58.001Z</time></trkpt><trkpt lat="43.17826681091793" lon="11.325410167753645"><ele>443.3333333333333</ele><time>2026-04-30T15:09:59.001Z</time></trkpt><trkpt lat="43.178199409866274" lon="11.32535726170748"><ele>442.66666666666663</ele><time>2026-04-30T15:10:00.001Z</time></trkpt><trkpt lat="43.178132912746264" lon="11.325332214812983"><ele>442.0</ele><time>2026-04-30T15:10:02.001Z</time></trkpt><trkpt lat="43.178078715320346" lon="11.325275658920456"><ele>441.3333333333333</ele><time>2026-04-30T15:10:04.001Z</time></trkpt><trkpt lat="43.17801707147025" lon="11.325235281465439"><ele>440.66666666666663</ele><time>2026-04-30T15:10:05.001Z</time></trkpt><trkpt lat="43.17788173091922" lon="11.325328532500365"><ele>440.0</ele><time>2026-04-30T15:10:06.001Z</time></trkpt><trkpt lat="43.17775731016665" lon="11.325380035967473"><ele>440.0</ele><time>2026-04-30T15:10:07.001Z</time></trkpt><trkpt lat="43.17759919721086" lon="11.32546909992799"><ele>440.0</ele><time>2026-04-30T15:10:08.001Z</time></trkpt><trkpt lat="43.17742227079292" lon="11.325562324747752"><ele>440.0</ele><time>2026-04-30T15:10:09.001Z</time></trkpt><trkpt lat="43.177241389116716" lon="11.32562736901515"><ele>440.0</ele><time>2026-04-30T15:10:10.001Z</time></trkpt><trkpt lat="43.177092415916235" lon="11.32572356767811"><ele>440.0</ele><time>2026-04-30T15:10:11.001Z</time></trkpt><trkpt lat="43.17694990702508" lon="11.325792211758099"><ele>440.0</ele><time>2026-04-30T15:10:12.001Z</time></trkpt><trkpt lat="43.17681463709984" lon="11.325858309905225"><ele>440.0</ele><time>2026-04-30T15:10:13.001Z</time></trkpt><trkpt lat="43.17668128637169" lon="11.325922967843026"><ele>440.0</ele><time>2026-04-30T15:10:14.001Z</time></trkpt><trkpt lat="43.17654940460073" lon="11.325985214621122"><ele>440.0</ele><time>2026-04-30T15:10:15.001Z</time></trkpt><trkpt lat="43.17642143760991" lon="11.326048410731914"><ele>440.0</ele><time>2026-04-30T15:10:16.001Z</time></trkpt><trkpt lat="43.176294735550265" lon="11.326111293197192"><ele>439.0</ele><time>2026-04-30T15:10:17.001Z</time></trkpt><trkpt lat="43.17616663698587" lon="11.326174806464538"><ele>438.0</ele><time>2026-04-30T15:10:18.001Z</time></trkpt><trkpt lat="43.176034136362524" lon="11.326237903341497"><ele>437.0</ele><time>2026-04-30T15:10:19.001Z</time></trkpt><trkpt lat="43.17588386260541" lon="11.326304496162235"><ele>436.0</ele><time>2026-04-30T15:10:20.001Z</time></trkpt><trkpt lat="43.17572011804029" lon="11.32632734744086"><ele>439.33333333333337</ele><time>2026-04-30T15:10:21.001Z</time></trkpt><trkpt lat="43.17555987230708" lon="11.326291497729086"><ele>442.66666666666663</ele><time>2026-04-30T15:10:22.001Z</time></trkpt><trkpt lat="43.17541637748704" lon="11.32620927539507"><ele>446.0</ele><time>2026-04-30T15:10:23.001Z</time></trkpt><trkpt lat="43.17528990371346" lon="11.326072773723933"><ele>446.0</ele><time>2026-04-30T15:10:24.001Z</time></trkpt><trkpt lat="43.17517863338011" lon="11.32586625928591"><ele>446.0</ele><time>2026-04-30T15:10:25.001Z</time></trkpt><trkpt lat="43.17509597850059" lon="11.325617583354246"><ele>446.0</ele><time>2026-04-30T15:10:26.001Z</time></trkpt><trkpt lat="43.17500149993945" lon="11.32533732831627"><ele>444.66666666666663</ele><time>2026-04-30T15:10:27.001Z</time></trkpt><trkpt lat="43.17489949528639" lon="11.325052868452008"><ele>443.33333333333337</ele><time>2026-04-30T15:10:28.001Z</time></trkpt><trkpt lat="43.174804729774365" lon="11.324783794866748"><ele>442.0</ele><time>2026-04-30T15:10:29.001Z</time></trkpt><trkpt lat="43.17471301910791" lon="11.324534505344182"><ele>442.0</ele><time>2026-04-30T15:10:30.001Z</time></trkpt><trkpt lat="43.17463779371987" lon="11.324324614643558"><ele>442.0</ele><time>2026-04-30T15:10:31.001Z</time></trkpt><trkpt lat="43.17457885401611" lon="11.324148691196289"><ele>442.0</ele><time>2026-04-30T15:10:32.001Z</time></trkpt><trkpt lat="43.17452308333549" lon="11.323986105764492"><ele>442.0</ele><time>2026-04-30T15:10:33.001Z</time></trkpt><trkpt lat="43.17444304474934" lon="11.323842961281361"><ele>438.6666666666667</ele><time>2026-04-30T15:10:34.001Z</time></trkpt><trkpt lat="43.17432365918913" lon="11.323723168209714"><ele>435.33333333333337</ele><time>2026-04-30T15:10:35.001Z</time></trkpt><trkpt lat="43.17417686938916" lon="11.323659236204863"><ele>432.0</ele><time>2026-04-30T15:10:36.001Z</time></trkpt><trkpt lat="43.174016852614315" lon="11.323648240649304"><ele>431.75</ele><time>2026-04-30T15:10:37.001Z</time></trkpt><trkpt lat="43.17386986362005" lon="11.323656066565077"><ele>431.5</ele><time>2026-04-30T15:10:38.001Z</time></trkpt><trkpt lat="43.17373631752937" lon="11.32364458135527"><ele>431.25</ele><time>2026-04-30T15:10:39.001Z</time></trkpt><trkpt lat="43.17360214861698" lon="11.323617590931567"><ele>431.0</ele><time>2026-04-30T15:10:40.001Z</time></trkpt><trkpt lat="43.173467318830546" lon="11.323571768753952"><ele>431.0</ele><time>2026-04-30T15:10:41.001Z</time></trkpt><trkpt lat="43.17333893517252" lon="11.32351022143788"><ele>431.0</ele><time>2026-04-30T15:10:42.001Z</time></trkpt><trkpt lat="43.173225121421254" lon="11.323426226870724"><ele>431.0</ele><time>2026-04-30T15:10:43.001Z</time></trkpt><trkpt lat="43.173109138488755" lon="11.323345229268858"><ele>431.0</ele><time>2026-04-30T15:10:44.001Z</time></trkpt><trkpt lat="43.17299294975563" lon="11.323279903841104"><ele>430.25</ele><time>2026-04-30T15:10:45.001Z</time></trkpt><trkpt lat="43.17286405194024" lon="11.32323526795809"><ele>429.5</ele><time>2026-04-30T15:10:46.001Z</time></trkpt><trkpt lat="43.17272274710555" lon="11.323221037364945"><ele>428.75</ele><time>2026-04-30T15:10:47.001Z</time></trkpt><trkpt lat="43.172568799166726" lon="11.323202449766358"><ele>428.0</ele><time>2026-04-30T15:10:48.001Z</time></trkpt><trkpt lat="43.1723959860076" lon="11.32324493214636"><ele>424.66666666666663</ele><time>2026-04-30T15:10:49.001Z</time></trkpt><trkpt lat="43.17220214893494" lon="11.323315638316211"><ele>421.33333333333337</ele><time>2026-04-30T15:10:50.001Z</time></trkpt><trkpt lat="43.17198159479799" lon="11.323402806721985"><ele>418.0</ele><time>2026-04-30T15:10:51.001Z</time></trkpt><trkpt lat="43.17176640504551" lon="11.323489622119155"><ele>418.0</ele><time>2026-04-30T15:10:52.001Z</time></trkpt><trkpt lat="43.17154732381344" lon="11.323575830480166"><ele>418.0</ele><time>2026-04-30T15:10:53.001Z</time></trkpt><trkpt lat="43.17133593419818" lon="11.323656619370063"><ele>418.0</ele><time>2026-04-30T15:10:54.001Z</time></trkpt><trkpt lat="43.17114226122568" lon="11.323728552780889"><ele>416.0</ele><time>2026-04-30T15:10:55.001Z</time></trkpt><trkpt lat="43.17094494643164" lon="11.323797298573808"><ele>414.0</ele><time>2026-04-30T15:10:56.001Z</time></trkpt><trkpt lat="43.170743881214875" lon="11.32387855145651"><ele>412.0</ele><time>2026-04-30T15:10:57.001Z</time></trkpt><trkpt lat="43.17054981913666" lon="11.323892812689294"><ele>413.0</ele><time>2026-04-30T15:10:58.001Z</time></trkpt><trkpt lat="43.170381296025674" lon="11.323915335738631"><ele>414.0</ele><time>2026-04-30T15:10:59.001Z</time></trkpt><trkpt lat="43.17022267691414" lon="11.323930746925411"><ele>415.0</ele><time>2026-04-30T15:11:00.001Z</time></trkpt><trkpt lat="43.170072075514774" lon="11.323944301478265"><ele>415.0</ele><time>2026-04-30T15:11:01.001Z</time></trkpt><trkpt lat="43.169928312932676" lon="11.323956802560552"><ele>415.0</ele><time>2026-04-30T15:11:02.001Z</time></trkpt><trkpt lat="43.16979574698625" lon="11.323968052611646"><ele>415.0</ele><time>2026-04-30T15:11:03.001Z</time></trkpt><trkpt lat="43.169662037250326" lon="11.323978457278669"><ele>415.0</ele><time>2026-04-30T15:11:04.001Z</time></trkpt><trkpt lat="43.169534920340475" lon="11.323988348923871"><ele>415.25</ele><time>2026-04-30T15:11:05.001Z</time></trkpt><trkpt lat="43.16941525432606" lon="11.32399766078739"><ele>415.5</ele><time>2026-04-30T15:11:06.001Z</time></trkpt><trkpt lat="43.16928690388744" lon="11.324007398130297"><ele>415.75</ele><time>2026-04-30T15:11:07.001Z</time></trkpt><trkpt lat="43.169159977762135" lon="11.324017021728979"><ele>416.0</ele><time>2026-04-30T15:11:08.001Z</time></trkpt><trkpt lat="43.16903309846443" lon="11.324050848461056"><ele>415.0</ele><time>2026-04-30T15:11:09.001Z</time></trkpt><trkpt lat="43.16890892185471" lon="11.324047391907337"><ele>414.0</ele><time>2026-04-30T15:11:10.001Z</time></trkpt><trkpt lat="43.16878991427101" lon="11.324061437782865"><ele>413.0</ele><time>2026-04-30T15:11:11.002Z</time></trkpt><trkpt lat="43.168671348488296" lon="11.324084082982125"><ele>412.0</ele><time>2026-04-30T15:11:12.002Z</time></trkpt><trkpt lat="43.16853072944377" lon="11.324107647547686"><ele>412.0</ele><time>2026-04-30T15:11:13.002Z</time></trkpt><trkpt lat="43.168385750251986" lon="11.324143883138275"><ele>412.0</ele><time>2026-04-30T15:11:14.002Z</time></trkpt><trkpt lat="43.16825050683455" lon="11.324194484394742"><ele>412.0</ele><time>2026-04-30T15:11:15.002Z</time></trkpt><trkpt lat="43.16812155622742" lon="11.324228091808292"><ele>412.0</ele><time>2026-04-30T15:11:16.002Z</time></trkpt><trkpt lat="43.16800256110803" lon="11.3242440453533"><ele>412.0</ele><time>2026-04-30T15:11:17.002Z</time></trkpt><trkpt lat="43.16787932270297" lon="11.324238275492"><ele>412.0</ele><time>2026-04-30T15:11:18.002Z</time></trkpt><trkpt lat="43.16775979925357" lon="11.32410565687254"><ele>412.0</ele><time>2026-04-30T15:11:19.002Z</time></trkpt><trkpt lat="43.16763949495706" lon="11.323999993326053"><ele>412.0</ele><time>2026-04-30T15:11:20.002Z</time></trkpt><trkpt lat="43.1675469191451" lon="11.323840163096095"><ele>410.0</ele><time>2026-04-30T15:11:21.002Z</time></trkpt><trkpt lat="43.1674890917216" lon="11.323652980426298"><ele>408.0</ele><time>2026-04-30T15:11:22.002Z</time></trkpt><trkpt lat="43.16747078911518" lon="11.323453015826871"><ele>406.0</ele><time>2026-04-30T15:11:23.002Z</time></trkpt><trkpt lat="43.16748634390811" lon="11.32323038994801"><ele>403.0</ele><time>2026-04-30T15:11:24.002Z</time></trkpt><trkpt lat="43.167553864671426" lon="11.323030954469475"><ele>400.0</ele><time>2026-04-30T15:11:25.002Z</time></trkpt><trkpt lat="43.16766629163386" lon="11.32285862244213"><ele>397.0</ele><time>2026-04-30T15:11:26.002Z</time></trkpt><trkpt lat="43.167815881795335" lon="11.322721820028706"><ele>397.0</ele><time>2026-04-30T15:11:27.002Z</time></trkpt><trkpt lat="43.16798149535419" lon="11.322601872414653"><ele>397.0</ele><time>2026-04-30T15:11:28.002Z</time></trkpt><trkpt lat="43.16817280594609" lon="11.322484927791882"><ele>397.0</ele><time>2026-04-30T15:11:29.002Z</time></trkpt><trkpt lat="43.16831161703264" lon="11.322403860195953"><ele>397.0</ele><time>2026-04-30T15:11:30.002Z</time></trkpt><trkpt lat="43.16843548483073" lon="11.32233158499988"><ele>397.0</ele><time>2026-04-30T15:11:31.002Z</time></trkpt><trkpt lat="43.16854311673817" lon="11.322270948173449"><ele>397.0</ele><time>2026-04-30T15:11:32.002Z</time></trkpt><trkpt lat="43.168629930356865" lon="11.322218151575367"><ele>397.0</ele><time>2026-04-30T15:11:33.002Z</time></trkpt><trkpt lat="43.168706583972714" lon="11.32216642534254"><ele>397.0</ele><time>2026-04-30T15:11:34.001Z</time></trkpt><trkpt lat="43.16876787458024" lon="11.322135076172957"><ele>395.6666666666667</ele><time>2026-04-30T15:11:35.001Z</time></trkpt><trkpt lat="43.16885607647286" lon="11.32212334661083"><ele>394.33333333333337</ele><time>2026-04-30T15:11:37.001Z</time></trkpt><trkpt lat="43.1689359545931" lon="11.322097014108165"><ele>393.0</ele><time>2026-04-30T15:11:40.001Z</time></trkpt><trkpt lat="43.16901318334258" lon="11.322121332746518"><ele>391.66666666666663</ele><time>2026-04-30T15:11:43.001Z</time></trkpt><trkpt lat="43.168951690216275" lon="11.322090263755877"><ele>390.3333333333333</ele><time>2026-04-30T15:12:33.001Z</time></trkpt><trkpt lat="43.16901690535357" lon="11.322049543760421"><ele>389.0</ele><time>2026-04-30T15:14:45.001Z</time></trkpt><trkpt lat="43.169069162917594" lon="11.322229227051071"><ele>389.0</ele><time>2026-04-30T15:15:10.001Z</time></trkpt><trkpt lat="43.16902186445425" lon="11.32216975038524"><ele>389.0</ele><time>2026-04-30T15:15:25.001Z</time></trkpt><trkpt lat="43.16908078979865" lon="11.322111820078355"><ele>389.0</ele><time>2026-04-30T15:18:29.001Z</time></trkpt><trkpt lat="43.169142772636114" lon="11.322036114004524"><ele>389.0</ele><time>2026-04-30T15:18:32.001Z</time></trkpt><trkpt lat="43.16917948294851" lon="11.321928550008895"><ele>389.0</ele><time>2026-04-30T15:18:35.001Z</time></trkpt><trkpt lat="43.169217937063124" lon="11.321848319234821"><ele>389.0</ele><time>2026-04-30T15:18:37.001Z</time></trkpt><trkpt lat="43.16926843712527" lon="11.321793876924776"><ele>389.0</ele><time>2026-04-30T15:18:38.001Z</time></trkpt><trkpt lat="43.16933955092884" lon="11.321748926417431"><ele>389.0</ele><time>2026-04-30T15:18:39.001Z</time></trkpt><trkpt lat="43.16941889920694" lon="11.321713295250786"><ele>389.0</ele><time>2026-04-30T15:18:40.001Z</time></trkpt><trkpt lat="43.16951168849744" lon="11.32166472027158"><ele>389.0</ele><time>2026-04-30T15:18:41.001Z</time></trkpt><trkpt lat="43.169603416896635" lon="11.321605971706967"><ele>389.0</ele><time>2026-04-30T15:18:42.001Z</time></trkpt><trkpt lat="43.16969897667842" lon="11.321541313589572"><ele>389.0</ele><time>2026-04-30T15:18:43.001Z</time></trkpt><trkpt lat="43.16979838601299" lon="11.321475205839196"><ele>386.75</ele><time>2026-04-30T15:18:44.001Z</time></trkpt><trkpt lat="43.16990810406131" lon="11.321385993695378"><ele>384.5</ele><time>2026-04-30T15:18:45.001Z</time></trkpt><trkpt lat="43.17001044647454" lon="11.321293565608212"><ele>382.25</ele><time>2026-04-30T15:18:46.001Z</time></trkpt><trkpt lat="43.17010420126303" lon="11.321189318886923"><ele>380.0</ele><time>2026-04-30T15:18:47.001Z</time></trkpt><trkpt lat="43.17019067922984" lon="11.321080516284123"><ele>380.0</ele><time>2026-04-30T15:18:48.001Z</time></trkpt><trkpt lat="43.17029060425612" lon="11.320928541574366"><ele>380.0</ele><time>2026-04-30T15:18:49.001Z</time></trkpt><trkpt lat="43.17038444032399" lon="11.320757424963109"><ele>380.0</ele><time>2026-04-30T15:18:50.001Z</time></trkpt><trkpt lat="43.17047059071463" lon="11.320563666879323"><ele>378.6666666666667</ele><time>2026-04-30T15:18:51.001Z</time></trkpt><trkpt lat="43.17055431066983" lon="11.32034882860872"><ele>377.3333333333333</ele><time>2026-04-30T15:18:52.001Z</time></trkpt><trkpt lat="43.170641369920716" lon="11.320128613119252"><ele>376.0</ele><time>2026-04-30T15:18:53.001Z</time></trkpt><trkpt lat="43.17073017584422" lon="11.31991438020153"><ele>373.0</ele><time>2026-04-30T15:18:54.001Z</time></trkpt><trkpt lat="43.17082615454237" lon="11.319674590604503"><ele>370.0</ele><time>2026-04-30T15:18:55.001Z</time></trkpt><trkpt lat="43.170931232941214" lon="11.31942561559402"><ele>367.0</ele><time>2026-04-30T15:18:56.001Z</time></trkpt><trkpt lat="43.17103158664094" lon="11.319177623906175"><ele>367.0</ele><time>2026-04-30T15:18:57.001Z</time></trkpt><trkpt lat="43.17112914588448" lon="11.318932139321612"><ele>367.0</ele><time>2026-04-30T15:18:58.001Z</time></trkpt><trkpt lat="43.171227058337955" lon="11.318694428626081"><ele>367.0</ele><time>2026-04-30T15:18:59.001Z</time></trkpt><trkpt lat="43.17132262950223" lon="11.318468449842765"><ele>364.0</ele><time>2026-04-30T15:19:00.001Z</time></trkpt><trkpt lat="43.17141252221546" lon="11.318255532539084"><ele>361.0</ele><time>2026-04-30T15:19:01.001Z</time></trkpt><trkpt lat="43.17149674781169" lon="11.318043794730233"><ele>358.0</ele><time>2026-04-30T15:19:02.001Z</time></trkpt><trkpt lat="43.17157884199344" lon="11.317835625035979"><ele>357.3333333333333</ele><time>2026-04-30T15:19:03.001Z</time></trkpt><trkpt lat="43.171688549782864" lon="11.317629085059636"><ele>356.6666666666667</ele><time>2026-04-30T15:19:04.001Z</time></trkpt><trkpt lat="43.17178881596594" lon="11.317402281994438"><ele>356.0</ele><time>2026-04-30T15:19:05.001Z</time></trkpt><trkpt lat="43.17191977462287" lon="11.317207236436484"><ele>353.0</ele><time>2026-04-30T15:19:06.001Z</time></trkpt><trkpt lat="43.17206511876614" lon="11.317033836840537"><ele>350.0</ele><time>2026-04-30T15:19:07.001Z</time></trkpt><trkpt lat="43.17220921389639" lon="11.316881139402339"><ele>347.0</ele><time>2026-04-30T15:19:08.001Z</time></trkpt><trkpt lat="43.17234815542906" lon="11.316728541306283"><ele>348.33333333333337</ele><time>2026-04-30T15:19:09.001Z</time></trkpt><trkpt lat="43.17248522212704" lon="11.3165687770609"><ele>349.6666666666667</ele><time>2026-04-30T15:19:10.001Z</time></trkpt><trkpt lat="43.17262062881671" lon="11.316406334898403"><ele>351.0</ele><time>2026-04-30T15:19:11.001Z</time></trkpt><trkpt lat="43.17273388017269" lon="11.316235050455203"><ele>347.6666666666667</ele><time>2026-04-30T15:19:12.001Z</time></trkpt><trkpt lat="43.17282012802115" lon="11.316040432895846"><ele>344.33333333333337</ele><time>2026-04-30T15:19:13.001Z</time></trkpt><trkpt lat="43.17287203752925" lon="11.315831421749033"><ele>341.0</ele><time>2026-04-30T15:19:14.001Z</time></trkpt><trkpt lat="43.17289448441922" lon="11.31559633622501"><ele>339.0</ele><time>2026-04-30T15:19:15.001Z</time></trkpt><trkpt lat="43.17287836480316" lon="11.315338384741857"><ele>337.0</ele><time>2026-04-30T15:19:16.001Z</time></trkpt><trkpt lat="43.17283734254788" lon="11.315071712982347"><ele>335.0</ele><time>2026-04-30T15:19:17.001Z</time></trkpt><trkpt lat="43.17279350143141" lon="11.314818772227154"><ele>334.0</ele><time>2026-04-30T15:19:18.001Z</time></trkpt><trkpt lat="43.172747641849405" lon="11.31458373331188"><ele>333.0</ele><time>2026-04-30T15:19:19.001Z</time></trkpt><trkpt lat="43.17270884013241" lon="11.314356018130871"><ele>332.0</ele><time>2026-04-30T15:19:20.001Z</time></trkpt><trkpt lat="43.17268878533985" lon="11.314130173868406"><ele>329.33333333333337</ele><time>2026-04-30T15:19:21.001Z</time></trkpt><trkpt lat="43.17270470861971" lon="11.313900436228321"><ele>326.6666666666667</ele><time>2026-04-30T15:19:22.001Z</time></trkpt><trkpt lat="43.172789049792534" lon="11.31370313729981"><ele>324.0</ele><time>2026-04-30T15:19:23.001Z</time></trkpt><trkpt lat="43.172836069107646" lon="11.313497250866577"><ele>324.0</ele><time>2026-04-30T15:19:24.001Z</time></trkpt><trkpt lat="43.17287098437509" lon="11.31326811296058"><ele>324.0</ele><time>2026-04-30T15:19:25.001Z</time></trkpt><trkpt lat="43.172872665954905" lon="11.313022279612778"><ele>324.0</ele><time>2026-04-30T15:19:26.001Z</time></trkpt><trkpt lat="43.17284838546982" lon="11.312771218881634"><ele>322.6666666666667</ele><time>2026-04-30T15:19:27.001Z</time></trkpt><trkpt lat="43.17284727934385" lon="11.312538108472998"><ele>321.33333333333337</ele><time>2026-04-30T15:19:28.001Z</time></trkpt><trkpt lat="43.17285765061096" lon="11.312318242885626"><ele>320.0</ele><time>2026-04-30T15:19:29.001Z</time></trkpt><trkpt lat="43.17289138585659" lon="11.312080141155947"><ele>316.6666666666667</ele><time>2026-04-30T15:19:30.001Z</time></trkpt><trkpt lat="43.1729969174333" lon="11.311843930115488"><ele>313.3333333333333</ele><time>2026-04-30T15:19:31.001Z</time></trkpt><trkpt lat="43.1730828086201" lon="11.311594112881997"><ele>310.0</ele><time>2026-04-30T15:19:32.001Z</time></trkpt><trkpt lat="43.17314581283904" lon="11.311336695525688"><ele>314.66666666666663</ele><time>2026-04-30T15:19:33.001Z</time></trkpt><trkpt lat="43.173230020430964" lon="11.311104509708901"><ele>319.3333333333333</ele><time>2026-04-30T15:19:34.001Z</time></trkpt><trkpt lat="43.173271608566715" lon="11.310879104982071"><ele>324.0</ele><time>2026-04-30T15:19:35.001Z</time></trkpt><trkpt lat="43.173320938164366" lon="11.310678743576771"><ele>321.75</ele><time>2026-04-30T15:19:36.001Z</time></trkpt><trkpt lat="43.173365379851404" lon="11.31048952046928"><ele>319.5</ele><time>2026-04-30T15:19:37.001Z</time></trkpt><trkpt lat="43.173409795569704" lon="11.31031954226317"><ele>317.25</ele><time>2026-04-30T15:19:38.001Z</time></trkpt><trkpt lat="43.173455571864174" lon="11.31016478645889"><ele>315.0</ele><time>2026-04-30T15:19:39.001Z</time></trkpt><trkpt lat="43.17349208807715" lon="11.310042197870706"><ele>315.0</ele><time>2026-04-30T15:19:40.001Z</time></trkpt><trkpt lat="43.17350088546208" lon="11.309927549390526"><ele>315.0</ele><time>2026-04-30T15:19:41.001Z</time></trkpt><trkpt lat="43.17350543137862" lon="11.309826881742012"><ele>315.0</ele><time>2026-04-30T15:19:42.001Z</time></trkpt><trkpt lat="43.17349649370049" lon="11.309714131199724"><ele>315.0</ele><time>2026-04-30T15:19:43.001Z</time></trkpt><trkpt lat="43.173470678095654" lon="11.309604091622193"><ele>315.0</ele><time>2026-04-30T15:19:44.001Z</time></trkpt><trkpt lat="43.17342763189604" lon="11.309502718895963"><ele>315.0</ele><time>2026-04-30T15:19:45.001Z</time></trkpt><trkpt lat="43.173375069481644" lon="11.309407812020208"><ele>314.8333333333333</ele><time>2026-04-30T15:19:46.001Z</time></trkpt><trkpt lat="43.173323390905615" lon="11.30932052396391"><ele>314.6666666666667</ele><time>2026-04-30T15:19:47.001Z</time></trkpt><trkpt lat="43.17327616088424" lon="11.30922619724804"><ele>314.5</ele><time>2026-04-30T15:19:48.001Z</time></trkpt><trkpt lat="43.17324770615762" lon="11.309127909058045"><ele>314.33333333333337</ele><time>2026-04-30T15:19:49.001Z</time></trkpt><trkpt lat="43.173236448228494" lon="11.309023967272893"><ele>314.1666666666667</ele><time>2026-04-30T15:19:50.001Z</time></trkpt><trkpt lat="43.173241916803875" lon="11.308916030897073"><ele>314.0</ele><time>2026-04-30T15:19:51.001Z</time></trkpt><trkpt lat="43.17326484496589" lon="11.308804613821566"><ele>313.25</ele><time>2026-04-30T15:19:52.001Z</time></trkpt><trkpt lat="43.17328634721794" lon="11.308646443345676"><ele>312.5</ele><time>2026-04-30T15:19:53.001Z</time></trkpt><trkpt lat="43.17331069477025" lon="11.308483631308345"><ele>311.75</ele><time>2026-04-30T15:19:54.001Z</time></trkpt><trkpt lat="43.17333670839022" lon="11.308333635008934"><ele>311.0</ele><time>2026-04-30T15:19:55.001Z</time></trkpt><trkpt lat="43.17335607611694" lon="11.308186572094522"><ele>311.0</ele><time>2026-04-30T15:19:56.001Z</time></trkpt><trkpt lat="43.1733537675202" lon="11.308046050974859"><ele>311.0</ele><time>2026-04-30T15:19:57.001Z</time></trkpt><trkpt lat="43.17332717297685" lon="11.307927721295902"><ele>311.0</ele><time>2026-04-30T15:19:58Z</time></trkpt><trkpt lat="43.17328507636238" lon="11.307831872550329"><ele>311.0</ele><time>2026-04-30T15:19:59Z</time></trkpt><trkpt lat="43.17323214761129" lon="11.307750673668096"><ele>311.0</ele><time>2026-04-30T15:20:00Z</time></trkpt><trkpt lat="43.173169589709865" lon="11.307685873188085"><ele>311.0</ele><time>2026-04-30T15:20:01Z</time></trkpt><trkpt lat="43.17309685428394" lon="11.307638293409337"><ele>307.6666666666667</ele><time>2026-04-30T15:20:02Z</time></trkpt><trkpt lat="43.17300503565152" lon="11.307606022104807"><ele>304.33333333333337</ele><time>2026-04-30T15:20:03Z</time></trkpt><trkpt lat="43.17292019325593" lon="11.307580611237467"><ele>301.0</ele><time>2026-04-30T15:20:04Z</time></trkpt><trkpt lat="43.17283216450945" lon="11.307552764184456"><ele>297.6666666666667</ele><time>2026-04-30T15:20:05Z</time></trkpt><trkpt lat="43.17275432972767" lon="11.3075094534887"><ele>294.3333333333333</ele><time>2026-04-30T15:20:06Z</time></trkpt><trkpt lat="43.17267979354285" lon="11.307443941350737"><ele>291.0</ele><time>2026-04-30T15:20:07Z</time></trkpt><trkpt lat="43.17261850095178" lon="11.307330670787042"><ele>291.8</ele><time>2026-04-30T15:20:08Z</time></trkpt><trkpt lat="43.17258295390037" lon="11.307175010705022"><ele>292.6</ele><time>2026-04-30T15:20:09Z</time></trkpt><trkpt lat="43.17257676639515" lon="11.307013143790583"><ele>293.4</ele><time>2026-04-30T15:20:10Z</time></trkpt><trkpt lat="43.17259389042924" lon="11.306868045987903"><ele>294.2</ele><time>2026-04-30T15:20:11Z</time></trkpt><trkpt lat="43.17260044845742" lon="11.306729263093944"><ele>295.0</ele><time>2026-04-30T15:20:12Z</time></trkpt><trkpt lat="43.17259019037946" lon="11.306588326603551"><ele>295.0</ele><time>2026-04-30T15:20:13Z</time></trkpt><trkpt lat="43.172570612151134" lon="11.306453598577468"><ele>295.0</ele><time>2026-04-30T15:20:14Z</time></trkpt><trkpt lat="43.172533981676956" lon="11.306320850611817"><ele>295.0</ele><time>2026-04-30T15:20:15Z</time></trkpt><trkpt lat="43.17247783351845" lon="11.306177543805855"><ele>295.0</ele><time>2026-04-30T15:20:16Z</time></trkpt><trkpt lat="43.17241858126821" lon="11.306041748957824"><ele>295.0</ele><time>2026-04-30T15:20:17Z</time></trkpt><trkpt lat="43.17236695146018" lon="11.305908144689086"><ele>290.2</ele><time>2026-04-30T15:20:18Z</time></trkpt><trkpt lat="43.17232004514542" lon="11.305768744975104"><ele>285.4</ele><time>2026-04-30T15:20:19Z</time></trkpt><trkpt lat="43.17227181156311" lon="11.305630779456585"><ele>280.6</ele><time>2026-04-30T15:20:20Z</time></trkpt><trkpt lat="43.172231762298466" lon="11.305487580639111"><ele>275.8</ele><time>2026-04-30T15:20:21Z</time></trkpt><trkpt lat="43.172209357679904" lon="11.305338790379711"><ele>271.0</ele><time>2026-04-30T15:20:22Z</time></trkpt><trkpt lat="43.17220864448572" lon="11.30518424392843"><ele>270.0</ele><time>2026-04-30T15:20:23Z</time></trkpt><trkpt lat="43.17222438452011" lon="11.305030598698044"><ele>269.0</ele><time>2026-04-30T15:20:24Z</time></trkpt><trkpt lat="43.17224736845596" lon="11.304879274851166"><ele>268.0</ele><time>2026-04-30T15:20:25Z</time></trkpt><trkpt lat="43.17226750548323" lon="11.304749041889426"><ele>267.0</ele><time>2026-04-30T15:20:26Z</time></trkpt><trkpt lat="43.17228514812857" lon="11.304623010793096"><ele>266.0</ele><time>2026-04-30T15:20:27Z</time></trkpt><trkpt lat="43.172301200419376" lon="11.30449749105042"><ele>265.6</ele><time>2026-04-30T15:20:28Z</time></trkpt><trkpt lat="43.17231208808487" lon="11.304377788610163"><ele>265.20000000000005</ele><time>2026-04-30T15:20:29Z</time></trkpt><trkpt lat="43.17230547819591" lon="11.304255805553824"><ele>264.79999999999995</ele><time>2026-04-30T15:20:30Z</time></trkpt><trkpt lat="43.17228440591599" lon="11.304140315519716"><ele>264.4</ele><time>2026-04-30T15:20:31Z</time></trkpt><trkpt lat="43.17223958490518" lon="11.304025324847279"><ele>264.0</ele><time>2026-04-30T15:20:32Z</time></trkpt><trkpt lat="43.17218377652569" lon="11.303925432146254"><ele>265.2</ele><time>2026-04-30T15:20:33Z</time></trkpt><trkpt lat="43.17211040628675" lon="11.30384348088025"><ele>266.4</ele><time>2026-04-30T15:20:34Z</time></trkpt><trkpt lat="43.172026331968056" lon="11.303781925576615"><ele>267.6</ele><time>2026-04-30T15:20:35Z</time></trkpt><trkpt lat="43.171930392047166" lon="11.303740687199177"><ele>268.8</ele><time>2026-04-30T15:20:36Z</time></trkpt><trkpt lat="43.17182658792879" lon="11.303717272359185"><ele>270.0</ele><time>2026-04-30T15:20:37Z</time></trkpt><trkpt lat="43.17172121267402" lon="11.303700545292717"><ele>270.0</ele><time>2026-04-30T15:20:38Z</time></trkpt><trkpt lat="43.17161938986422" lon="11.303639952980028"><ele>270.0</ele><time>2026-04-30T15:20:39Z</time></trkpt><trkpt lat="43.17151167600791" lon="11.303596264096411"><ele>270.0</ele><time>2026-04-30T15:20:40Z</time></trkpt><trkpt lat="43.17142018985216" lon="11.303495879012651"><ele>270.0</ele><time>2026-04-30T15:20:41Z</time></trkpt><trkpt lat="43.17134557918622" lon="11.303362640545897"><ele>265.0</ele><time>2026-04-30T15:20:42Z</time></trkpt><trkpt lat="43.17129107788644" lon="11.303168712528954"><ele>260.0</ele><time>2026-04-30T15:20:43Z</time></trkpt><trkpt lat="43.17123660980298" lon="11.302968314940133"><ele>255.0</ele><time>2026-04-30T15:20:44Z</time></trkpt><trkpt lat="43.1712231174742" lon="11.302773791110324"><ele>255.0</ele><time>2026-04-30T15:20:45Z</time></trkpt><trkpt lat="43.17120211192551" lon="11.302590368918906"><ele>255.0</ele><time>2026-04-30T15:20:46Z</time></trkpt><trkpt lat="43.17117817479041" lon="11.302423264266602"><ele>255.0</ele><time>2026-04-30T15:20:47Z</time></trkpt><trkpt lat="43.171152603028034" lon="11.302277550902664"><ele>255.0</ele><time>2026-04-30T15:20:48Z</time></trkpt><trkpt lat="43.17112294289196" lon="11.302139447575264"><ele>255.8</ele><time>2026-04-30T15:20:49Z</time></trkpt><trkpt lat="43.17108482195677" lon="11.302010803957062"><ele>256.6</ele><time>2026-04-30T15:20:50Z</time></trkpt><trkpt lat="43.17103617209625" lon="11.30189057721687"><ele>257.4</ele><time>2026-04-30T15:20:51Z</time></trkpt><trkpt lat="43.1709757773277" lon="11.301778662732104"><ele>258.2</ele><time>2026-04-30T15:20:52Z</time></trkpt><trkpt lat="43.17089617832618" lon="11.301673072364082"><ele>259.0</ele><time>2026-04-30T15:20:53Z</time></trkpt><trkpt lat="43.170801996706" lon="11.301583017609808"><ele>259.0</ele><time>2026-04-30T15:20:54Z</time></trkpt><trkpt lat="43.17070166306011" lon="11.30151573999331"><ele>259.0</ele><time>2026-04-30T15:20:55Z</time></trkpt><trkpt lat="43.17057745979447" lon="11.301470658937628"><ele>259.0</ele><time>2026-04-30T15:20:56Z</time></trkpt><trkpt lat="43.170409836478505" lon="11.301415694471604"><ele>259.0</ele><time>2026-04-30T15:20:57Z</time></trkpt><trkpt lat="43.170246725064935" lon="11.301393099999338"><ele>256.5</ele><time>2026-04-30T15:20:58Z</time></trkpt><trkpt lat="43.17009849683507" lon="11.301371427519753"><ele>254.0</ele><time>2026-04-30T15:20:59Z</time></trkpt><trkpt lat="43.16998596068223" lon="11.3013517536318"><ele>251.5</ele><time>2026-04-30T15:21:00Z</time></trkpt><trkpt lat="43.16988424536714" lon="11.30132985345523"><ele>249.0</ele><time>2026-04-30T15:21:01Z</time></trkpt><trkpt lat="43.169785332387" lon="11.301291727123946"><ele>246.39999999999998</ele><time>2026-04-30T15:21:02Z</time></trkpt><trkpt lat="43.16969980000676" lon="11.301220744791813"><ele>243.79999999999998</ele><time>2026-04-30T15:21:03Z</time></trkpt><trkpt lat="43.16960675190388" lon="11.301160516541863"><ele>241.20000000000002</ele><time>2026-04-30T15:21:04Z</time></trkpt><trkpt lat="43.16953744886802" lon="11.301076195627333"><ele>238.60000000000002</ele><time>2026-04-30T15:21:05Z</time></trkpt><trkpt lat="43.16945713091686" lon="11.300995725811276"><ele>236.0</ele><time>2026-04-30T15:21:06Z</time></trkpt><trkpt lat="43.169368428868616" lon="11.300944299247279"><ele>236.0</ele><time>2026-04-30T15:21:07Z</time></trkpt><trkpt lat="43.1692706742902" lon="11.300917472062919"><ele>236.00000000000003</ele><time>2026-04-30T15:21:08Z</time></trkpt><trkpt lat="43.16916820233345" lon="11.300907942361397"><ele>236.00000000000003</ele><time>2026-04-30T15:21:09Z</time></trkpt><trkpt lat="43.16907221460582" lon="11.300911546628026"><ele>236.0</ele><time>2026-04-30T15:21:10Z</time></trkpt><trkpt lat="43.168972570962126" lon="11.300910903455367"><ele>236.0</ele><time>2026-04-30T15:21:11Z</time></trkpt><trkpt lat="43.16887472101299" lon="11.3008778608956"><ele>233.0</ele><time>2026-04-30T15:21:12Z</time></trkpt><trkpt lat="43.168779688544625" lon="11.300815788027203"><ele>230.00000000000003</ele><time>2026-04-30T15:21:13Z</time></trkpt><trkpt lat="43.16869316635573" lon="11.300716928436945"><ele>227.00000000000003</ele><time>2026-04-30T15:21:14Z</time></trkpt><trkpt lat="43.16863637978125" lon="11.300590632662121"><ele>224.0</ele><time>2026-04-30T15:21:15Z</time></trkpt><trkpt lat="43.168613002921326" lon="11.300453619339427"><ele>221.0</ele><time>2026-04-30T15:21:16Z</time></trkpt><trkpt lat="43.16862152308186" lon="11.30030227364413"><ele>221.0</ele><time>2026-04-30T15:21:17Z</time></trkpt><trkpt lat="43.16868156922699" lon="11.30012852475259"><ele>221.0</ele><time>2026-04-30T15:21:18Z</time></trkpt><trkpt lat="43.16874438026058" lon="11.299903108148891"><ele>221.0</ele><time>2026-04-30T15:21:19Z</time></trkpt><trkpt lat="43.16880498964031" lon="11.299641313117519"><ele>219.33333333333334</ele><time>2026-04-30T15:21:20Z</time></trkpt><trkpt lat="43.16888411233552" lon="11.299426111845978"><ele>217.66666666666669</ele><time>2026-04-30T15:21:21Z</time></trkpt><trkpt lat="43.168951032452895" lon="11.29924354465634"><ele>216.0</ele><time>2026-04-30T15:21:22Z</time></trkpt><trkpt lat="43.168979168064595" lon="11.299042634810037"><ele>216.33333333333331</ele><time>2026-04-30T15:21:23Z</time></trkpt><trkpt lat="43.16896566980127" lon="11.298814725675053"><ele>216.66666666666666</ele><time>2026-04-30T15:21:24Z</time></trkpt><trkpt lat="43.16890285027328" lon="11.298619414544632"><ele>217.0</ele><time>2026-04-30T15:21:25Z</time></trkpt><trkpt lat="43.16878549421862" lon="11.298467284792348"><ele>217.0</ele><time>2026-04-30T15:21:26Z</time></trkpt><trkpt lat="43.16862461392964" lon="11.298348764642602"><ele>217.0</ele><time>2026-04-30T15:21:27Z</time></trkpt><trkpt lat="43.168443978656875" lon="11.298270600570188"><ele>217.0</ele><time>2026-04-30T15:21:28Z</time></trkpt><trkpt lat="43.16827950706728" lon="11.298206337272152"><ele>212.66666666666666</ele><time>2026-04-30T15:21:29Z</time></trkpt><trkpt lat="43.16812692109963" lon="11.298129099649914"><ele>208.33333333333331</ele><time>2026-04-30T15:21:30Z</time></trkpt><trkpt lat="43.16799143386038" lon="11.298044053047436"><ele>204.0</ele><time>2026-04-30T15:21:31Z</time></trkpt><trkpt lat="43.16787785155131" lon="11.29791924747295"><ele>203.66666666666669</ele><time>2026-04-30T15:21:32Z</time></trkpt><trkpt lat="43.16781274963926" lon="11.297726818086865"><ele>203.33333333333334</ele><time>2026-04-30T15:21:33Z</time></trkpt><trkpt lat="43.1678224975354" lon="11.297514060606376"><ele>203.0</ele><time>2026-04-30T15:21:34Z</time></trkpt><trkpt lat="43.16789746178087" lon="11.297317172707528"><ele>202.0</ele><time>2026-04-30T15:21:35Z</time></trkpt><trkpt lat="43.168030304548424" lon="11.29715318814082"><ele>201.0</ele><time>2026-04-30T15:21:36Z</time></trkpt><trkpt lat="43.168188424595456" lon="11.297005975130311"><ele>200.0</ele><time>2026-04-30T15:21:37Z</time></trkpt><trkpt lat="43.16829342566954" lon="11.296852176107887"><ele>200.25</ele><time>2026-04-30T15:21:38Z</time></trkpt><trkpt lat="43.16836987138104" lon="11.296688434913074"><ele>200.5</ele><time>2026-04-30T15:21:39Z</time></trkpt><trkpt lat="43.16841872730989" lon="11.296505049283011"><ele>200.75</ele><time>2026-04-30T15:21:40Z</time></trkpt><trkpt lat="43.168410579178435" lon="11.296303078875834"><ele>201.0</ele><time>2026-04-30T15:21:41Z</time></trkpt><trkpt lat="43.16834480156751" lon="11.296102504712243"><ele>201.0</ele><time>2026-04-30T15:21:42Z</time></trkpt><trkpt lat="43.168241334189425" lon="11.295934741549477"><ele>201.0</ele><time>2026-04-30T15:21:43Z</time></trkpt><trkpt lat="43.16809368246897" lon="11.295815850450797"><ele>201.0</ele><time>2026-04-30T15:21:44Z</time></trkpt><trkpt lat="43.16791025659151" lon="11.295692908203813"><ele>199.0</ele><time>2026-04-30T15:21:45Z</time></trkpt><trkpt lat="43.16774106687226" lon="11.29552747674606"><ele>197.0</ele><time>2026-04-30T15:21:46Z</time></trkpt><trkpt lat="43.16757621810164" lon="11.29535468080803"><ele>195.0</ele><time>2026-04-30T15:21:47Z</time></trkpt><trkpt lat="43.167426566759126" lon="11.295164857833516"><ele>195.0</ele><time>2026-04-30T15:21:48Z</time></trkpt><trkpt lat="43.167285622552704" lon="11.294988079976976"><ele>195.0</ele><time>2026-04-30T15:21:49Z</time></trkpt><trkpt lat="43.16714569431794" lon="11.29481635444014"><ele>195.0</ele><time>2026-04-30T15:21:50Z</time></trkpt><trkpt lat="43.16700259356708" lon="11.294648606519168"><ele>194.33333333333331</ele><time>2026-04-30T15:21:51Z</time></trkpt><trkpt lat="43.166890244035145" lon="11.29443716986242"><ele>193.66666666666666</ele><time>2026-04-30T15:21:52Z</time></trkpt><trkpt lat="43.166803582212275" lon="11.294196057209584"><ele>193.0</ele><time>2026-04-30T15:21:53Z</time></trkpt><trkpt lat="43.166730411317516" lon="11.293960373960275"><ele>192.0</ele><time>2026-04-30T15:21:54Z</time></trkpt><trkpt lat="43.166678939002395" lon="11.293697784863207"><ele>191.0</ele><time>2026-04-30T15:21:55Z</time></trkpt><trkpt lat="43.16667628404993" lon="11.293414829516005"><ele>190.0</ele><time>2026-04-30T15:21:56Z</time></trkpt><trkpt lat="43.16666865200549" lon="11.293119411389837"><ele>189.5</ele><time>2026-04-30T15:21:57Z</time></trkpt><trkpt lat="43.16670034422218" lon="11.29280053518461"><ele>189.0</ele><time>2026-04-30T15:21:58Z</time></trkpt><trkpt lat="43.16673226145056" lon="11.292450440705585"><ele>187.0</ele><time>2026-04-30T15:21:59Z</time></trkpt><trkpt lat="43.16675895784839" lon="11.292111136117073"><ele>185.0</ele><time>2026-04-30T15:22:00Z</time></trkpt><trkpt lat="43.166781356973885" lon="11.291772713633273"><ele>185.0</ele><time>2026-04-30T15:22:01Z</time></trkpt><trkpt lat="43.16680790435144" lon="11.29146677158375"><ele>185.0</ele><time>2026-04-30T15:22:02Z</time></trkpt><trkpt lat="43.16683358017913" lon="11.291171759717352"><ele>185.0</ele><time>2026-04-30T15:22:03Z</time></trkpt><trkpt lat="43.16685794872941" lon="11.290870520074884"><ele>184.33333333333331</ele><time>2026-04-30T15:22:04Z</time></trkpt><trkpt lat="43.16687903277118" lon="11.290580482201026"><ele>183.66666666666666</ele><time>2026-04-30T15:22:05Z</time></trkpt><trkpt lat="43.166906441376575" lon="11.290295127251705"><ele>183.0</ele><time>2026-04-30T15:22:06Z</time></trkpt><trkpt lat="43.16693220343237" lon="11.29001406557213"><ele>182.0</ele><time>2026-04-30T15:22:07Z</time></trkpt><trkpt lat="43.1669499953338" lon="11.289748281228356"><ele>181.0</ele><time>2026-04-30T15:22:08Z</time></trkpt><trkpt lat="43.16696640346566" lon="11.289487467171378"><ele>180.0</ele><time>2026-04-30T15:22:09Z</time></trkpt><trkpt lat="43.16696838878353" lon="11.289225773906605"><ele>180.0</ele><time>2026-04-30T15:22:10Z</time></trkpt><trkpt lat="43.1669297229662" lon="11.288959034832018"><ele>180.0</ele><time>2026-04-30T15:22:11Z</time></trkpt><trkpt lat="43.16685207315612" lon="11.288721935772234"><ele>180.0</ele><time>2026-04-30T15:22:12Z</time></trkpt><trkpt lat="43.166760977145756" lon="11.288489179433727"><ele>179.33333333333334</ele><time>2026-04-30T15:22:13Z</time></trkpt><trkpt lat="43.166675031614" lon="11.288247925682509"><ele>178.66666666666669</ele><time>2026-04-30T15:22:14Z</time></trkpt><trkpt lat="43.166606838494495" lon="11.288025875952371"><ele>178.0</ele><time>2026-04-30T15:22:15Z</time></trkpt><trkpt lat="43.16654107749029" lon="11.287818561482343"><ele>177.0</ele><time>2026-04-30T15:22:16Z</time></trkpt><trkpt lat="43.16648169428143" lon="11.287639085277654"><ele>176.0</ele><time>2026-04-30T15:22:17Z</time></trkpt><trkpt lat="43.16643723252716" lon="11.287481181371524"><ele>175.0</ele><time>2026-04-30T15:22:18Z</time></trkpt><trkpt lat="43.166409396138604" lon="11.287336784456826"><ele>174.0</ele><time>2026-04-30T15:22:19Z</time></trkpt><trkpt lat="43.16640578629738" lon="11.287225066843524"><ele>173.6</ele><time>2026-04-30T15:22:20Z</time></trkpt><trkpt lat="43.16640014458458" lon="11.287130146234007"><ele>173.2</ele><time>2026-04-30T15:22:21Z</time></trkpt><trkpt lat="43.166351207309624" lon="11.287062516854583"><ele>172.79999999999998</ele><time>2026-04-30T15:22:25Z</time></trkpt><trkpt lat="43.16627043545161" lon="11.28698456584982"><ele>172.39999999999998</ele><time>2026-04-30T15:22:30Z</time></trkpt><trkpt lat="43.16613362604677" lon="11.287033293153579"><ele>172.0</ele><time>2026-04-30T15:22:31Z</time></trkpt><trkpt lat="43.16603113024361" lon="11.287078790056682"><ele>172.0</ele><time>2026-04-30T15:22:32Z</time></trkpt><trkpt lat="43.16590851755078" lon="11.287128540508126"><ele>172.0</ele><time>2026-04-30T15:22:33Z</time></trkpt><trkpt lat="43.16576931474549" lon="11.287170470779442"><ele>172.0</ele><time>2026-04-30T15:22:34Z</time></trkpt><trkpt lat="43.165601342438826" lon="11.28721427868773"><ele>172.0</ele><time>2026-04-30T15:22:35Z</time></trkpt><trkpt lat="43.16541744527088" lon="11.287267536130058"><ele>172.33333333333334</ele><time>2026-04-30T15:22:36Z</time></trkpt><trkpt lat="43.16521475769812" lon="11.287321270887029"><ele>172.66666666666666</ele><time>2026-04-30T15:22:37Z</time></trkpt><trkpt lat="43.16500259555049" lon="11.287375872026514"><ele>173.0</ele><time>2026-04-30T15:22:38Z</time></trkpt><trkpt lat="43.164785010111544" lon="11.287435989032595"><ele>173.33333333333331</ele><time>2026-04-30T15:22:39Z</time></trkpt><trkpt lat="43.16456875522302" lon="11.287495596701298"><ele>173.66666666666666</ele><time>2026-04-30T15:22:40Z</time></trkpt><trkpt lat="43.16436051905247" lon="11.287546692892759"><ele>174.0</ele><time>2026-04-30T15:22:41Z</time></trkpt><trkpt lat="43.16415327717943" lon="11.287604090079212"><ele>174.0</ele><time>2026-04-30T15:22:42Z</time></trkpt><trkpt lat="43.16394531975732" lon="11.28766349855481"><ele>174.0</ele><time>2026-04-30T15:22:43Z</time></trkpt><trkpt lat="43.16374234985095" lon="11.287720977410869"><ele>174.0</ele><time>2026-04-30T15:22:44Z</time></trkpt><trkpt lat="43.16354256689526" lon="11.287778571469502"><ele>174.0</ele><time>2026-04-30T15:22:45Z</time></trkpt><trkpt lat="43.16333618240709" lon="11.287812704048049"><ele>174.0</ele><time>2026-04-30T15:22:46Z</time></trkpt><trkpt lat="43.16313807535963" lon="11.287888580836306"><ele>174.0</ele><time>2026-04-30T15:22:47Z</time></trkpt><trkpt lat="43.16294241630494" lon="11.287948025729271"><ele>173.0</ele><time>2026-04-30T15:22:48Z</time></trkpt><trkpt lat="43.162751190160606" lon="11.288019618618584"><ele>172.0</ele><time>2026-04-30T15:22:49Z</time></trkpt><trkpt lat="43.16255433826819" lon="11.288073659298885"><ele>171.0</ele><time>2026-04-30T15:22:50Z</time></trkpt><trkpt lat="43.16235760328276" lon="11.28814742047029"><ele>171.0</ele><time>2026-04-30T15:22:51Z</time></trkpt><trkpt lat="43.162171003632324" lon="11.288332486095571"><ele>171.0</ele><time>2026-04-30T15:22:52Z</time></trkpt><trkpt lat="43.16197224521214" lon="11.288461156444312"><ele>171.0</ele><time>2026-04-30T15:22:53Z</time></trkpt><trkpt lat="43.161773985675445" lon="11.288587368656943"><ele>171.0</ele><time>2026-04-30T15:22:54Z</time></trkpt><trkpt lat="43.16157164505642" lon="11.288722649872215"><ele>171.0</ele><time>2026-04-30T15:22:55Z</time></trkpt><trkpt lat="43.16136730376533" lon="11.288853563407411"><ele>170.0</ele><time>2026-04-30T15:22:56Z</time></trkpt><trkpt lat="43.16116519607695" lon="11.288982150111305"><ele>169.0</ele><time>2026-04-30T15:22:57Z</time></trkpt><trkpt lat="43.16095874003969" lon="11.28911719508477"><ele>169.0</ele><time>2026-04-30T15:22:58Z</time></trkpt><trkpt lat="43.16075068040458" lon="11.289256125051882"><ele>169.0</ele><time>2026-04-30T15:22:59Z</time></trkpt><trkpt lat="43.160542319498994" lon="11.289396021532333"><ele>168.5</ele><time>2026-04-30T15:23:00Z</time></trkpt><trkpt lat="43.16033394954246" lon="11.289534204840734"><ele>168.0</ele><time>2026-04-30T15:23:01Z</time></trkpt><trkpt lat="43.160121053635606" lon="11.289672796252404"><ele>168.0</ele><time>2026-04-30T15:23:02Z</time></trkpt><trkpt lat="43.15991327215825" lon="11.289809142043099"><ele>168.0</ele><time>2026-04-30T15:23:03Z</time></trkpt><trkpt lat="43.15970686280124" lon="11.289947275584089"><ele>168.0</ele><time>2026-04-30T15:23:04Z</time></trkpt><trkpt lat="43.159500676853796" lon="11.290082281567082"><ele>168.0</ele><time>2026-04-30T15:23:05Z</time></trkpt><trkpt lat="43.159304580541594" lon="11.2902156120348"><ele>168.0</ele><time>2026-04-30T15:23:06Z</time></trkpt><trkpt lat="43.15911049568145" lon="11.29034605587485"><ele>167.66666666666666</ele><time>2026-04-30T15:23:07Z</time></trkpt><trkpt lat="43.15891903487512" lon="11.290469631148488"><ele>167.33333333333331</ele><time>2026-04-30T15:23:08Z</time></trkpt><trkpt lat="43.15873035188123" lon="11.290586886072896"><ele>167.0</ele><time>2026-04-30T15:23:09Z</time></trkpt><trkpt lat="43.15854550118817" lon="11.290689145821563"><ele>167.33333333333331</ele><time>2026-04-30T15:23:10Z</time></trkpt><trkpt lat="43.1583531989252" lon="11.290765493758535"><ele>167.66666666666666</ele><time>2026-04-30T15:23:11Z</time></trkpt><trkpt lat="43.158153700679094" lon="11.290823134546896"><ele>168.0</ele><time>2026-04-30T15:23:12Z</time></trkpt><trkpt lat="43.15794687839767" lon="11.290868479574758"><ele>168.0</ele><time>2026-04-30T15:23:13Z</time></trkpt><trkpt lat="43.15773783184809" lon="11.290894071298696"><ele>168.0</ele><time>2026-04-30T15:23:14Z</time></trkpt><trkpt lat="43.15752479542939" lon="11.290898798587168"><ele>168.0</ele><time>2026-04-30T15:23:15Z</time></trkpt><trkpt lat="43.15731077307405" lon="11.290879372756446"><ele>168.33333333333334</ele><time>2026-04-30T15:23:16Z</time></trkpt><trkpt lat="43.15709881433542" lon="11.290831165046173"><ele>168.66666666666669</ele><time>2026-04-30T15:23:17Z</time></trkpt><trkpt lat="43.1568923925519" lon="11.290764819969345"><ele>169.0</ele><time>2026-04-30T15:23:18Z</time></trkpt><trkpt lat="43.156692866950486" lon="11.290682500685062"><ele>170.0</ele><time>2026-04-30T15:23:19Z</time></trkpt><trkpt lat="43.156500473991464" lon="11.290592958987304"><ele>171.0</ele><time>2026-04-30T15:23:20Z</time></trkpt><trkpt lat="43.15630318759935" lon="11.290509381417877"><ele>172.0</ele><time>2026-04-30T15:23:21Z</time></trkpt><trkpt lat="43.15610940832763" lon="11.290431822001938"><ele>171.0</ele><time>2026-04-30T15:23:22Z</time></trkpt><trkpt lat="43.155927765997156" lon="11.290361328026378"><ele>170.0</ele><time>2026-04-30T15:23:23Z</time></trkpt><trkpt lat="43.15575263243249" lon="11.290290758111652"><ele>169.0</ele><time>2026-04-30T15:23:24Z</time></trkpt><trkpt lat="43.15557503258943" lon="11.290217374379823"><ele>169.0</ele><time>2026-04-30T15:23:25Z</time></trkpt><trkpt lat="43.15540248048332" lon="11.290146925029195"><ele>169.0</ele><time>2026-04-30T15:23:26Z</time></trkpt><trkpt lat="43.15523743585444" lon="11.29007902206821"><ele>169.0</ele><time>2026-04-30T15:23:27Z</time></trkpt><trkpt lat="43.1550714775277" lon="11.290012845760305"><ele>169.0</ele><time>2026-04-30T15:23:28Z</time></trkpt><trkpt lat="43.154911514079714" lon="11.289947442150215"><ele>169.0</ele><time>2026-04-30T15:23:29Z</time></trkpt><trkpt lat="43.15475746235677" lon="11.289885428286345"><ele>169.0</ele><time>2026-04-30T15:23:30Z</time></trkpt><trkpt lat="43.15461317821451" lon="11.289816671971488"><ele>167.75</ele><time>2026-04-30T15:23:31Z</time></trkpt><trkpt lat="43.15447140993818" lon="11.289748577131899"><ele>166.5</ele><time>2026-04-30T15:23:32Z</time></trkpt><trkpt lat="43.15433591708527" lon="11.289678709465688"><ele>165.25</ele><time>2026-04-30T15:23:33Z</time></trkpt><trkpt lat="43.15420431837357" lon="11.289610984427139"><ele>164.0</ele><time>2026-04-30T15:23:34Z</time></trkpt><trkpt lat="43.154075312868855" lon="11.289541766377642"><ele>164.5</ele><time>2026-04-30T15:23:35Z</time></trkpt><trkpt lat="43.153954315834476" lon="11.289469234705622"><ele>165.0</ele><time>2026-04-30T15:23:36Z</time></trkpt><trkpt lat="43.15383545720342" lon="11.28939300604429"><ele>165.5</ele><time>2026-04-30T15:23:37Z</time></trkpt><trkpt lat="43.153713775767486" lon="11.289320672951748"><ele>166.0</ele><time>2026-04-30T15:23:38Z</time></trkpt><trkpt lat="43.15359201897875" lon="11.28924879610099"><ele>166.0</ele><time>2026-04-30T15:23:39Z</time></trkpt><trkpt lat="43.15347163805462" lon="11.289178447962234"><ele>166.0</ele><time>2026-04-30T15:23:40Z</time></trkpt><trkpt lat="43.153324700628765" lon="11.289090972973446"><ele>166.0</ele><time>2026-04-30T15:23:41Z</time></trkpt><trkpt lat="43.15315798673429" lon="11.288988526689323"><ele>165.0</ele><time>2026-04-30T15:23:42Z</time></trkpt><trkpt lat="43.152991740274096" lon="11.288888443489398"><ele>164.0</ele><time>2026-04-30T15:23:43Z</time></trkpt><trkpt lat="43.152825587283566" lon="11.288788893201158"><ele>163.0</ele><time>2026-04-30T15:23:44Z</time></trkpt><trkpt lat="43.152658403783036" lon="11.288690094537015"><ele>163.0</ele><time>2026-04-30T15:23:45Z</time></trkpt><trkpt lat="43.15249248356573" lon="11.288591746081904"><ele>163.0</ele><time>2026-04-30T15:23:46Z</time></trkpt><trkpt lat="43.15233035545692" lon="11.288494081724163"><ele>163.0</ele><time>2026-04-30T15:23:47Z</time></trkpt><trkpt lat="43.15216994680119" lon="11.288398391274942"><ele>163.66666666666669</ele><time>2026-04-30T15:23:48Z</time></trkpt><trkpt lat="43.15201146534915" lon="11.288304855210495"><ele>164.33333333333334</ele><time>2026-04-30T15:23:49Z</time></trkpt><trkpt lat="43.15185330526041" lon="11.288207378684023"><ele>165.0</ele><time>2026-04-30T15:23:50Z</time></trkpt><trkpt lat="43.15169364588191" lon="11.288112953565339"><ele>163.33333333333334</ele><time>2026-04-30T15:23:51Z</time></trkpt><trkpt lat="43.15153972415656" lon="11.288019202630988"><ele>161.66666666666669</ele><time>2026-04-30T15:23:52Z</time></trkpt><trkpt lat="43.15138834927385" lon="11.287926979382098"><ele>160.0</ele><time>2026-04-30T15:23:53Z</time></trkpt><trkpt lat="43.15123904901932" lon="11.287836270430116"><ele>160.0</ele><time>2026-04-30T15:23:54Z</time></trkpt><trkpt lat="43.15108912536519" lon="11.287747223780078"><ele>160.0</ele><time>2026-04-30T15:23:55Z</time></trkpt><trkpt lat="43.150936132614845" lon="11.287658812854795"><ele>160.0</ele><time>2026-04-30T15:23:56Z</time></trkpt><trkpt lat="43.15078257355609" lon="11.287566997763943"><ele>160.0</ele><time>2026-04-30T15:23:57Z</time></trkpt><trkpt lat="43.15062856014274" lon="11.287472674218268"><ele>160.0</ele><time>2026-04-30T15:23:58Z</time></trkpt><trkpt lat="43.15047656975612" lon="11.287378814464214"><ele>160.0</ele><time>2026-04-30T15:23:59Z</time></trkpt><trkpt lat="43.15032572507621" lon="11.287288635948963"><ele>160.33333333333334</ele><time>2026-04-30T15:24:00Z</time></trkpt><trkpt lat="43.15017683849251" lon="11.287201309331603"><ele>160.66666666666666</ele><time>2026-04-30T15:24:01Z</time></trkpt><trkpt lat="43.150036547728334" lon="11.287117278533488"><ele>161.0</ele><time>2026-04-30T15:24:02Z</time></trkpt><trkpt lat="43.14990782930508" lon="11.287037865778375"><ele>162.0</ele><time>2026-04-30T15:24:03Z</time></trkpt><trkpt lat="43.14979116672306" lon="11.286963696437837"><ele>163.0</ele><time>2026-04-30T15:24:04Z</time></trkpt><trkpt lat="43.14968325986967" lon="11.28689571576218"><ele>164.0</ele><time>2026-04-30T15:24:05Z</time></trkpt><trkpt lat="43.14957534447906" lon="11.2868326128481"><ele>165.0</ele><time>2026-04-30T15:24:06Z</time></trkpt><trkpt lat="43.1494716710035" lon="11.28676927624251"><ele>165.0</ele><time>2026-04-30T15:24:07Z</time></trkpt><trkpt lat="43.14937219425685" lon="11.286707391377965"><ele>165.0</ele><time>2026-04-30T15:24:08Z</time></trkpt><trkpt lat="43.14925400689998" lon="11.286646525903006"><ele>165.0</ele><time>2026-04-30T15:24:09Z</time></trkpt><trkpt lat="43.14911995402359" lon="11.28657429372487"><ele>165.0</ele><time>2026-04-30T15:24:09.999Z</time></trkpt><trkpt lat="43.149002817423096" lon="11.286490794172835"><ele>165.75</ele><time>2026-04-30T15:24:10.999Z</time></trkpt><trkpt lat="43.14888176457938" lon="11.286417688773065"><ele>166.5</ele><time>2026-04-30T15:24:11.999Z</time></trkpt><trkpt lat="43.14875803778598" lon="11.286351010931668"><ele>167.25</ele><time>2026-04-30T15:24:12.999Z</time></trkpt><trkpt lat="43.14863254477322" lon="11.286285556707595"><ele>168.0</ele><time>2026-04-30T15:24:13.999Z</time></trkpt><trkpt lat="43.14850166616997" lon="11.286225243634306"><ele>168.0</ele><time>2026-04-30T15:24:14.999Z</time></trkpt><trkpt lat="43.14836611449724" lon="11.28616569611896"><ele>168.0</ele><time>2026-04-30T15:24:15.999Z</time></trkpt><trkpt lat="43.148223836005535" lon="11.28611564219365"><ele>168.0</ele><time>2026-04-30T15:24:16.999Z</time></trkpt><trkpt lat="43.148078070368086" lon="11.286073364723332"><ele>168.0</ele><time>2026-04-30T15:24:17.999Z</time></trkpt><trkpt lat="43.14793632849009" lon="11.28604727051158"><ele>168.5</ele><time>2026-04-30T15:24:18.999Z</time></trkpt><trkpt lat="43.147794724432146" lon="11.286028501282527"><ele>169.0</ele><time>2026-04-30T15:24:19.999Z</time></trkpt><trkpt lat="43.14764952005932" lon="11.286005981841633"><ele>169.5</ele><time>2026-04-30T15:24:20.999Z</time></trkpt><trkpt lat="43.14750012122437" lon="11.28599419700345"><ele>170.0</ele><time>2026-04-30T15:24:21.999Z</time></trkpt><trkpt lat="43.147343912414094" lon="11.285996444275874"><ele>170.0</ele><time>2026-04-30T15:24:22.999Z</time></trkpt><trkpt lat="43.147175272120165" lon="11.286003973318257"><ele>170.0</ele><time>2026-04-30T15:24:23.999Z</time></trkpt><trkpt lat="43.14700849672353" lon="11.286025539194958"><ele>170.0</ele><time>2026-04-30T15:24:25Z</time></trkpt><trkpt lat="43.14684107762136" lon="11.28605745124204"><ele>170.0</ele><time>2026-04-30T15:24:26Z</time></trkpt><trkpt lat="43.14667988988037" lon="11.28610340530377"><ele>170.0</ele><time>2026-04-30T15:24:27Z</time></trkpt><trkpt lat="43.146520179248746" lon="11.286158695050528"><ele>170.0</ele><time>2026-04-30T15:24:28Z</time></trkpt><trkpt lat="43.14636309290068" lon="11.286196664948895"><ele>170.25</ele><time>2026-04-30T15:24:29Z</time></trkpt><trkpt lat="43.146219665327315" lon="11.28625739224052"><ele>170.5</ele><time>2026-04-30T15:24:30Z</time></trkpt><trkpt lat="43.1460771996475" lon="11.286319526426757"><ele>170.75</ele><time>2026-04-30T15:24:31Z</time></trkpt><trkpt lat="43.14593652861348" lon="11.286381980806341"><ele>171.0</ele><time>2026-04-30T15:24:32Z</time></trkpt><trkpt lat="43.14580724445164" lon="11.28646162285793"><ele>170.75</ele><time>2026-04-30T15:24:33Z</time></trkpt><trkpt lat="43.1456798483825" lon="11.286494106816386"><ele>170.5</ele><time>2026-04-30T15:24:34Z</time></trkpt><trkpt lat="43.14556776008781" lon="11.286542429819649"><ele>170.25</ele><time>2026-04-30T15:24:35Z</time></trkpt><trkpt lat="43.14546497773599" lon="11.286585280795299"><ele>170.0</ele><time>2026-04-30T15:24:36Z</time></trkpt><trkpt lat="43.14537384679136" lon="11.286623227327771"><ele>170.0</ele><time>2026-04-30T15:24:37Z</time></trkpt><trkpt lat="43.14529625689424" lon="11.286655535424165"><ele>170.0</ele><time>2026-04-30T15:24:38Z</time></trkpt><trkpt lat="43.14522016128821" lon="11.286687477436477"><ele>170.0</ele><time>2026-04-30T15:24:39Z</time></trkpt><trkpt lat="43.14513693168598" lon="11.286722451235013"><ele>170.0</ele><time>2026-04-30T15:24:40Z</time></trkpt><trkpt lat="43.14504072986157" lon="11.286762876120866"><ele>170.0</ele><time>2026-04-30T15:24:41Z</time></trkpt><trkpt lat="43.1449402260234" lon="11.28680604889786"><ele>170.2</ele><time>2026-04-30T15:24:42Z</time></trkpt><trkpt lat="43.144838852584584" lon="11.286849856227233"><ele>170.4</ele><time>2026-04-30T15:24:43Z</time></trkpt><trkpt lat="43.14473433682908" lon="11.286895021478927"><ele>170.60000000000002</ele><time>2026-04-30T15:24:44Z</time></trkpt><trkpt lat="43.14462623519355" lon="11.28694173632701"><ele>170.8</ele><time>2026-04-30T15:24:45Z</time></trkpt><trkpt lat="43.14451349590383" lon="11.286990455261298"><ele>171.0</ele><time>2026-04-30T15:24:46Z</time></trkpt><trkpt lat="43.144407139285384" lon="11.287060019584242"><ele>171.0</ele><time>2026-04-30T15:24:47Z</time></trkpt><trkpt lat="43.144296678888" lon="11.287104660378002"><ele>171.0</ele><time>2026-04-30T15:24:48Z</time></trkpt><trkpt lat="43.14418708495592" lon="11.287154043839703"><ele>171.0</ele><time>2026-04-30T15:24:49Z</time></trkpt><trkpt lat="43.14408181592471" lon="11.287201109182334"><ele>171.0</ele><time>2026-04-30T15:24:50Z</time></trkpt><trkpt lat="43.14397464435009" lon="11.287246463825468"><ele>170.75</ele><time>2026-04-30T15:24:51Z</time></trkpt><trkpt lat="43.14386167753948" lon="11.28727366040227"><ele>170.5</ele><time>2026-04-30T15:24:52Z</time></trkpt><trkpt lat="43.143750824824714" lon="11.287321926089211"><ele>170.25</ele><time>2026-04-30T15:24:53Z</time></trkpt><trkpt lat="43.14363939294779" lon="11.287370105437674"><ele>170.0</ele><time>2026-04-30T15:24:54Z</time></trkpt><trkpt lat="43.143528140635084" lon="11.287417738476927"><ele>170.0</ele><time>2026-04-30T15:24:55Z</time></trkpt><trkpt lat="43.14341835616618" lon="11.28746474305286"><ele>170.0</ele><time>2026-04-30T15:24:56Z</time></trkpt><trkpt lat="43.14330665222688" lon="11.28751259095618"><ele>170.0</ele><time>2026-04-30T15:24:57Z</time></trkpt><trkpt lat="43.14319840266321" lon="11.287559578106757"><ele>170.0</ele><time>2026-04-30T15:24:58Z</time></trkpt><trkpt lat="43.143098931739466" lon="11.287602754765837"><ele>172.8</ele><time>2026-04-30T15:24:59Z</time></trkpt><trkpt lat="43.1430060871661" lon="11.287643055210495"><ele>175.6</ele><time>2026-04-30T15:25:00Z</time></trkpt><trkpt lat="43.142918338102035" lon="11.287681143836158"><ele>178.39999999999998</ele><time>2026-04-30T15:25:01Z</time></trkpt><trkpt lat="43.14282928653256" lon="11.287719657718023"><ele>181.2</ele><time>2026-04-30T15:25:02Z</time></trkpt><trkpt lat="43.14272408448976" lon="11.287765111378661"><ele>184.0</ele><time>2026-04-30T15:25:03Z</time></trkpt><trkpt lat="43.14262001663274" lon="11.287810076732686"><ele>184.0</ele><time>2026-04-30T15:25:04Z</time></trkpt><trkpt lat="43.142522551397896" lon="11.287868594482218"><ele>184.0</ele><time>2026-04-30T15:25:05Z</time></trkpt><trkpt lat="43.1424173075879" lon="11.287917283241438"><ele>184.0</ele><time>2026-04-30T15:25:06Z</time></trkpt><trkpt lat="43.14230950938801" lon="11.28794423468138"><ele>184.0</ele><time>2026-04-30T15:25:07Z</time></trkpt><trkpt lat="43.142211895097404" lon="11.287998027818366"><ele>184.0</ele><time>2026-04-30T15:25:08Z</time></trkpt><trkpt lat="43.1421181141576" lon="11.288042394855083"><ele>184.39999999999998</ele><time>2026-04-30T15:25:09Z</time></trkpt><trkpt lat="43.14202271840548" lon="11.288087444992284"><ele>184.8</ele><time>2026-04-30T15:25:10Z</time></trkpt><trkpt lat="43.14191916074285" lon="11.2881186583857"><ele>185.2</ele><time>2026-04-30T15:25:11Z</time></trkpt><trkpt lat="43.14181401224191" lon="11.288173145980172"><ele>185.60000000000002</ele><time>2026-04-30T15:25:12Z</time></trkpt><trkpt lat="43.1417010720281" lon="11.288224012942631"><ele>186.0</ele><time>2026-04-30T15:25:13Z</time></trkpt><trkpt lat="43.141585321240214" lon="11.288268480096441"><ele>188.5</ele><time>2026-04-30T15:25:14Z</time></trkpt><trkpt lat="43.141468030900306" lon="11.288309708124682"><ele>191.0</ele><time>2026-04-30T15:25:15Z</time></trkpt><trkpt lat="43.14135085714044" lon="11.288360669078315"><ele>193.5</ele><time>2026-04-30T15:25:16Z</time></trkpt><trkpt lat="43.141242192767386" lon="11.28842935687831"><ele>196.0</ele><time>2026-04-30T15:25:17Z</time></trkpt><trkpt lat="43.14112587481101" lon="11.288479598704768"><ele>196.0</ele><time>2026-04-30T15:25:18Z</time></trkpt><trkpt lat="43.14100005894826" lon="11.288510779424108"><ele>196.0</ele><time>2026-04-30T15:25:19Z</time></trkpt><trkpt lat="43.14088216817166" lon="11.288581344428774"><ele>196.0</ele><time>2026-04-30T15:25:20Z</time></trkpt><trkpt lat="43.14076075572046" lon="11.28863255459179"><ele>196.0</ele><time>2026-04-30T15:25:21Z</time></trkpt><trkpt lat="43.140646750414604" lon="11.288684228530807"><ele>198.0</ele><time>2026-04-30T15:25:22Z</time></trkpt><trkpt lat="43.14054112526768" lon="11.288727972195979"><ele>200.0</ele><time>2026-04-30T15:25:23Z</time></trkpt><trkpt lat="43.140436204731444" lon="11.288771457706089"><ele>202.0</ele><time>2026-04-30T15:25:24Z</time></trkpt><trkpt lat="43.140326927130296" lon="11.288818819906512"><ele>204.0</ele><time>2026-04-30T15:25:25Z</time></trkpt><trkpt lat="43.14022191899891" lon="11.288865047278978"><ele>206.0</ele><time>2026-04-30T15:25:26Z</time></trkpt><trkpt lat="43.14012438760847" lon="11.288906862926492"><ele>204.50000000000003</ele><time>2026-04-30T15:25:27Z</time></trkpt><trkpt lat="43.14003767173642" lon="11.288943923698088"><ele>203.0</ele><time>2026-04-30T15:25:28Z</time></trkpt><trkpt lat="43.13995879052075" lon="11.288976969013598"><ele>201.5</ele><time>2026-04-30T15:25:29Z</time></trkpt><trkpt lat="43.13988751074441" lon="11.289007977032792"><ele>200.0</ele><time>2026-04-30T15:25:30Z</time></trkpt><trkpt lat="43.13981537944835" lon="11.289033535047462"><ele>198.50000000000003</ele><time>2026-04-30T15:25:31Z</time></trkpt><trkpt lat="43.13973769982843" lon="11.289068785771327"><ele>197.0</ele><time>2026-04-30T15:25:32Z</time></trkpt><trkpt lat="43.13965348197732" lon="11.289099779931327"><ele>197.0</ele><time>2026-04-30T15:25:33Z</time></trkpt><trkpt lat="43.139567246105706" lon="11.289135208791082"><ele>197.0</ele><time>2026-04-30T15:25:34Z</time></trkpt><trkpt lat="43.13948152046279" lon="11.289172358864137"><ele>197.0</ele><time>2026-04-30T15:25:35Z</time></trkpt><trkpt lat="43.13939528137765" lon="11.289207842861655"><ele>197.0</ele><time>2026-04-30T15:25:36Z</time></trkpt><trkpt lat="43.13929823140869" lon="11.289252389255989"><ele>197.0</ele><time>2026-04-30T15:25:37Z</time></trkpt><trkpt lat="43.139193470125896" lon="11.289299300810224"><ele>197.0</ele><time>2026-04-30T15:25:38Z</time></trkpt><trkpt lat="43.13908671565214" lon="11.28934461758013"><ele>197.0</ele><time>2026-04-30T15:25:39Z</time></trkpt><trkpt lat="43.13898232820871" lon="11.289389184942566"><ele>197.0</ele><time>2026-04-30T15:25:40Z</time></trkpt><trkpt lat="43.13888533772526" lon="11.289424257347155"><ele>197.0</ele><time>2026-04-30T15:25:41Z</time></trkpt><trkpt lat="43.138789974473994" lon="11.289458911855624"><ele>197.0</ele><time>2026-04-30T15:25:42Z</time></trkpt><trkpt lat="43.138690223710405" lon="11.289511616202834"><ele>198.75</ele><time>2026-04-30T15:25:43Z</time></trkpt><trkpt lat="43.1385826053571" lon="11.289565843635454"><ele>200.5</ele><time>2026-04-30T15:25:44Z</time></trkpt><trkpt lat="43.13846416087674" lon="11.289613464759324"><ele>202.25</ele><time>2026-04-30T15:25:45Z</time></trkpt><trkpt lat="43.13834070411791" lon="11.28965914081774"><ele>204.0</ele><time>2026-04-30T15:25:46Z</time></trkpt><trkpt lat="43.138210593018584" lon="11.289708574414751"><ele>200.5</ele><time>2026-04-30T15:25:47Z</time></trkpt><trkpt lat="43.13807969744266" lon="11.289762008185217"><ele>197.0</ele><time>2026-04-30T15:25:48Z</time></trkpt><trkpt lat="43.1379451236666" lon="11.289818492235495"><ele>193.5</ele><time>2026-04-30T15:25:49Z</time></trkpt><trkpt lat="43.137810046528756" lon="11.28987648511021"><ele>190.0</ele><time>2026-04-30T15:25:50Z</time></trkpt><trkpt lat="43.13767345164941" lon="11.289936228870229"><ele>190.0</ele><time>2026-04-30T15:25:51Z</time></trkpt><trkpt lat="43.13754219884458" lon="11.289994514846917"><ele>190.0</ele><time>2026-04-30T15:25:52Z</time></trkpt><trkpt lat="43.13742001552009" lon="11.290046643436746"><ele>190.0</ele><time>2026-04-30T15:25:53Z</time></trkpt><trkpt lat="43.13730305630173" lon="11.290098356963338"><ele>190.0</ele><time>2026-04-30T15:25:54Z</time></trkpt><trkpt lat="43.13719371356617" lon="11.290122613956282"><ele>189.6</ele><time>2026-04-30T15:25:55Z</time></trkpt><trkpt lat="43.13709162135734" lon="11.290166249735393"><ele>189.2</ele><time>2026-04-30T15:25:56Z</time></trkpt><trkpt lat="43.136992611354" lon="11.290230030961306"><ele>188.8</ele><time>2026-04-30T15:25:57Z</time></trkpt><trkpt lat="43.136886911037365" lon="11.290272045158195"><ele>188.4</ele><time>2026-04-30T15:25:58Z</time></trkpt><trkpt lat="43.1367793141771" lon="11.290310637751327"><ele>188.0</ele><time>2026-04-30T15:25:59Z</time></trkpt><trkpt lat="43.136669123557425" lon="11.29034558054398"><ele>188.0</ele><time>2026-04-30T15:26:00Z</time></trkpt><trkpt lat="43.13655846285037" lon="11.290378624671302"><ele>188.0</ele><time>2026-04-30T15:26:01Z</time></trkpt><trkpt lat="43.136445673225936" lon="11.290403339819889"><ele>188.0</ele><time>2026-04-30T15:26:02Z</time></trkpt><trkpt lat="43.13633224011185" lon="11.29042806775652"><ele>188.0</ele><time>2026-04-30T15:26:03Z</time></trkpt><trkpt lat="43.136217989654845" lon="11.290455387964904"><ele>186.5</ele><time>2026-04-30T15:26:04Z</time></trkpt><trkpt lat="43.13610119489964" lon="11.290478636852185"><ele>185.0</ele><time>2026-04-30T15:26:05Z</time></trkpt><trkpt lat="43.135982851259214" lon="11.290491867427333"><ele>183.5</ele><time>2026-04-30T15:26:06Z</time></trkpt><trkpt lat="43.13585226667759" lon="11.290502997697693"><ele>182.0</ele><time>2026-04-30T15:26:07Z</time></trkpt><trkpt lat="43.135711798114336" lon="11.290513347240672"><ele>179.33333333333331</ele><time>2026-04-30T15:26:08Z</time></trkpt><trkpt lat="43.135560267734235" lon="11.290524347819968"><ele>176.66666666666666</ele><time>2026-04-30T15:26:09Z</time></trkpt><trkpt lat="43.13541200576407" lon="11.290523917711619"><ele>174.0</ele><time>2026-04-30T15:26:10Z</time></trkpt><trkpt lat="43.1352599170031" lon="11.29051768878902"><ele>174.0</ele><time>2026-04-30T15:26:11Z</time></trkpt><trkpt lat="43.13510672988115" lon="11.290516456232213"><ele>174.0</ele><time>2026-04-30T15:26:12Z</time></trkpt><trkpt lat="43.13495034585783" lon="11.290513437203387"><ele>174.0</ele><time>2026-04-30T15:26:13Z</time></trkpt><trkpt lat="43.1347966210593" lon="11.290507220381194"><ele>172.5</ele><time>2026-04-30T15:26:14Z</time></trkpt><trkpt lat="43.134649115405416" lon="11.29051079554745"><ele>171.0</ele><time>2026-04-30T15:26:15Z</time></trkpt><trkpt lat="43.13450352242597" lon="11.29052856509078"><ele>169.5</ele><time>2026-04-30T15:26:15.999Z</time></trkpt><trkpt lat="43.1343559144709" lon="11.290555770425295"><ele>168.0</ele><time>2026-04-30T15:26:16.999Z</time></trkpt><trkpt lat="43.13419859300019" lon="11.290594732676094"><ele>171.33333333333334</ele><time>2026-04-30T15:26:17.999Z</time></trkpt><trkpt lat="43.13404188075648" lon="11.290640228591219"><ele>174.66666666666669</ele><time>2026-04-30T15:26:18.999Z</time></trkpt><trkpt lat="43.1338893549642" lon="11.290695724598827"><ele>178.0</ele><time>2026-04-30T15:26:19.999Z</time></trkpt><trkpt lat="43.13374767252901" lon="11.29076178300905"><ele>178.0</ele><time>2026-04-30T15:26:20.999Z</time></trkpt><trkpt lat="43.13360793376773" lon="11.290836117697"><ele>178.0</ele><time>2026-04-30T15:26:21.999Z</time></trkpt><trkpt lat="43.1334600285636" lon="11.290927284370364"><ele>178.0</ele><time>2026-04-30T15:26:22.999Z</time></trkpt><trkpt lat="43.13331146506978" lon="11.291038932041694"><ele>178.0</ele><time>2026-04-30T15:26:23.999Z</time></trkpt><trkpt lat="43.13316712299679" lon="11.291160057785532"><ele>178.0</ele><time>2026-04-30T15:26:24.999Z</time></trkpt><trkpt lat="43.133029044688584" lon="11.291287662634575"><ele>178.0</ele><time>2026-04-30T15:26:25.999Z</time></trkpt><trkpt lat="43.13289636930243" lon="11.291424365236933"><ele>178.0</ele><time>2026-04-30T15:26:26.999Z</time></trkpt><trkpt lat="43.1327624726256" lon="11.291559630120428"><ele>178.0</ele><time>2026-04-30T15:26:27.999Z</time></trkpt><trkpt lat="43.13261776832304" lon="11.291697401653726"><ele>178.0</ele><time>2026-04-30T15:26:28.999Z</time></trkpt><trkpt lat="43.13247176814503" lon="11.291843192814229"><ele>177.66666666666669</ele><time>2026-04-30T15:26:29.999Z</time></trkpt><trkpt lat="43.132332506376116" lon="11.291979539268576"><ele>177.33333333333334</ele><time>2026-04-30T15:26:30.999Z</time></trkpt><trkpt lat="43.132195043719776" lon="11.292124644481797"><ele>177.0</ele><time>2026-04-30T15:26:31.999Z</time></trkpt><trkpt lat="43.13205578580974" lon="11.292265778606003"><ele>177.0</ele><time>2026-04-30T15:26:32.999Z</time></trkpt><trkpt lat="43.13191890747874" lon="11.292395718369782"><ele>177.0</ele><time>2026-04-30T15:26:33.999Z</time></trkpt><trkpt lat="43.13178419358291" lon="11.292533599983916"><ele>177.0</ele><time>2026-04-30T15:26:34.999Z</time></trkpt><trkpt lat="43.13165325099229" lon="11.292668528143048"><ele>180.0</ele><time>2026-04-30T15:26:35.999Z</time></trkpt><trkpt lat="43.131522456975524" lon="11.292799536003002"><ele>183.0</ele><time>2026-04-30T15:26:36.999Z</time></trkpt><trkpt lat="43.13139207571509" lon="11.292928770030375"><ele>186.0</ele><time>2026-04-30T15:26:37.999Z</time></trkpt><trkpt lat="43.13126223400355" lon="11.293062553319865"><ele>182.33333333333334</ele><time>2026-04-30T15:26:38.999Z</time></trkpt><trkpt lat="43.131128080002235" lon="11.293197613738899"><ele>178.66666666666669</ele><time>2026-04-30T15:26:39.999Z</time></trkpt><trkpt lat="43.1309902375592" lon="11.293335679581753"><ele>175.0</ele><time>2026-04-30T15:26:40.999Z</time></trkpt><trkpt lat="43.130852136065236" lon="11.293473776773128"><ele>177.33333333333334</ele><time>2026-04-30T15:26:41.999Z</time></trkpt><trkpt lat="43.130717351398054" lon="11.293608794129538"><ele>179.66666666666666</ele><time>2026-04-30T15:26:42.999Z</time></trkpt><trkpt lat="43.13059116479269" lon="11.293738312267362"><ele>182.0</ele><time>2026-04-30T15:26:43.999Z</time></trkpt><trkpt lat="43.130456008745625" lon="11.293846622259412"><ele>178.66666666666666</ele><time>2026-04-30T15:26:44.999Z</time></trkpt><trkpt lat="43.13033183582081" lon="11.29397135451037"><ele>175.33333333333334</ele><time>2026-04-30T15:26:45.999Z</time></trkpt><trkpt lat="43.130206074461086" lon="11.294097324538178"><ele>172.0</ele><time>2026-04-30T15:26:46.999Z</time></trkpt><trkpt lat="43.13007889129475" lon="11.294224573469117"><ele>172.0</ele><time>2026-04-30T15:26:48Z</time></trkpt><trkpt lat="43.12994909610798" lon="11.294354420537847"><ele>172.0</ele><time>2026-04-30T15:26:49Z</time></trkpt><trkpt lat="43.12982512220524" lon="11.294501291652612"><ele>172.0</ele><time>2026-04-30T15:26:50Z</time></trkpt><trkpt lat="43.12968906822428" lon="11.294633112821732"><ele>169.66666666666669</ele><time>2026-04-30T15:26:51Z</time></trkpt><trkpt lat="43.12955290559746" lon="11.294766743778116"><ele>167.33333333333334</ele><time>2026-04-30T15:26:52Z</time></trkpt><trkpt lat="43.12941630879339" lon="11.294899663631925"><ele>165.0</ele><time>2026-04-30T15:26:53Z</time></trkpt><trkpt lat="43.129281507322624" lon="11.295027183036806"><ele>165.0</ele><time>2026-04-30T15:26:54Z</time></trkpt><trkpt lat="43.12914908973537" lon="11.295151148276377"><ele>165.0</ele><time>2026-04-30T15:26:55Z</time></trkpt><trkpt lat="43.1290157921257" lon="11.295261962730207"><ele>165.0</ele><time>2026-04-30T15:26:56Z</time></trkpt><trkpt lat="43.12888065286085" lon="11.295362477324318"><ele>165.0</ele><time>2026-04-30T15:26:57Z</time></trkpt><trkpt lat="43.128744108458854" lon="11.295454542677675"><ele>165.0</ele><time>2026-04-30T15:26:58Z</time></trkpt><trkpt lat="43.12860100693107" lon="11.295538956213745"><ele>165.0</ele><time>2026-04-30T15:26:59Z</time></trkpt><trkpt lat="43.128463399345485" lon="11.295604879330032"><ele>165.0</ele><time>2026-04-30T15:27:00Z</time></trkpt><trkpt lat="43.128329930188116" lon="11.295659413620692"><ele>165.0</ele><time>2026-04-30T15:27:01Z</time></trkpt><trkpt lat="43.128199901484955" lon="11.295705121829323"><ele>165.0</ele><time>2026-04-30T15:27:02Z</time></trkpt><trkpt lat="43.12807407789065" lon="11.295748555905808"><ele>165.0</ele><time>2026-04-30T15:27:03Z</time></trkpt><trkpt lat="43.12794517364503" lon="11.295788148516758"><ele>166.0</ele><time>2026-04-30T15:27:04Z</time></trkpt><trkpt lat="43.127811609107496" lon="11.29581612999121"><ele>167.0</ele><time>2026-04-30T15:27:05Z</time></trkpt><trkpt lat="43.12768130489927" lon="11.295839430338795"><ele>168.0</ele><time>2026-04-30T15:27:06Z</time></trkpt><trkpt lat="43.127556601991564" lon="11.295859421966966"><ele>169.0</ele><time>2026-04-30T15:27:07Z</time></trkpt><trkpt lat="43.12743256995189" lon="11.295874297049696"><ele>169.5</ele><time>2026-04-30T15:27:08Z</time></trkpt><trkpt lat="43.12730882033872" lon="11.295888559770823"><ele>170.0</ele><time>2026-04-30T15:27:09Z</time></trkpt><trkpt lat="43.12718425552618" lon="11.295907840997094"><ele>170.5</ele><time>2026-04-30T15:27:10Z</time></trkpt><trkpt lat="43.127060230844826" lon="11.295927196360262"><ele>171.0</ele><time>2026-04-30T15:27:11Z</time></trkpt><trkpt lat="43.12693620800859" lon="11.295942787809095"><ele>171.0</ele><time>2026-04-30T15:27:12Z</time></trkpt><trkpt lat="43.12681127733878" lon="11.295957101199486"><ele>171.0</ele><time>2026-04-30T15:27:13Z</time></trkpt><trkpt lat="43.12668198706011" lon="11.295973318143847"><ele>171.0</ele><time>2026-04-30T15:27:14Z</time></trkpt><trkpt lat="43.12654873717962" lon="11.295993734891466"><ele>171.0</ele><time>2026-04-30T15:27:15Z</time></trkpt><trkpt lat="43.12641034102981" lon="11.296014331534575"><ele>171.25</ele><time>2026-04-30T15:27:16Z</time></trkpt><trkpt lat="43.12626880666735" lon="11.296033937412695"><ele>171.5</ele><time>2026-04-30T15:27:17Z</time></trkpt><trkpt lat="43.12612304711844" lon="11.296052992100337"><ele>171.75</ele><time>2026-04-30T15:27:18Z</time></trkpt><trkpt lat="43.12597525413705" lon="11.296049789020016"><ele>172.0</ele><time>2026-04-30T15:27:19Z</time></trkpt><trkpt lat="43.12582968356857" lon="11.296068838897915"><ele>171.0</ele><time>2026-04-30T15:27:20Z</time></trkpt><trkpt lat="43.12568893964095" lon="11.296087257001894"><ele>170.0</ele><time>2026-04-30T15:27:21Z</time></trkpt><trkpt lat="43.12555417514626" lon="11.296125291591823"><ele>169.0</ele><time>2026-04-30T15:27:22Z</time></trkpt><trkpt lat="43.12542006624919" lon="11.296138223035955"><ele>168.0</ele><time>2026-04-30T15:27:23Z</time></trkpt><trkpt lat="43.12529031879993" lon="11.296154191096395"><ele>168.0</ele><time>2026-04-30T15:27:24Z</time></trkpt><trkpt lat="43.125160849163066" lon="11.29617111674007"><ele>168.0</ele><time>2026-04-30T15:27:25Z</time></trkpt><trkpt lat="43.125034392521904" lon="11.296184849569233"><ele>168.0</ele><time>2026-04-30T15:27:26Z</time></trkpt><trkpt lat="43.12491178352075" lon="11.296197767697699"><ele>168.0</ele><time>2026-04-30T15:27:27Z</time></trkpt><trkpt lat="43.124788443418616" lon="11.296213681542806"><ele>168.5</ele><time>2026-04-30T15:27:28Z</time></trkpt><trkpt lat="43.124666692333086" lon="11.29623047927479"><ele>169.0</ele><time>2026-04-30T15:27:29Z</time></trkpt><trkpt lat="43.12454711634042" lon="11.296248367131504"><ele>169.5</ele><time>2026-04-30T15:27:30Z</time></trkpt><trkpt lat="43.12442792773906" lon="11.296267450492499"><ele>170.0</ele><time>2026-04-30T15:27:31Z</time></trkpt><trkpt lat="43.12431195177436" lon="11.29628915803626"><ele>170.0</ele><time>2026-04-30T15:27:32Z</time></trkpt><trkpt lat="43.124191003091944" lon="11.296304821902163"><ele>170.0</ele><time>2026-04-30T15:27:33Z</time></trkpt><trkpt lat="43.124051324980286" lon="11.296318372424773"><ele>170.0</ele><time>2026-04-30T15:27:34Z</time></trkpt><trkpt lat="43.12390727900935" lon="11.296334965715117"><ele>170.0</ele><time>2026-04-30T15:27:35Z</time></trkpt><trkpt lat="43.12376057611009" lon="11.296355059897722"><ele>171.66666666666666</ele><time>2026-04-30T15:27:36Z</time></trkpt><trkpt lat="43.12360826480091" lon="11.296374215943736"><ele>173.33333333333334</ele><time>2026-04-30T15:27:37Z</time></trkpt><trkpt lat="43.12344909111869" lon="11.296394585880785"><ele>175.0</ele><time>2026-04-30T15:27:38Z</time></trkpt><trkpt lat="43.12328793304878" lon="11.296415886809251"><ele>173.66666666666669</ele><time>2026-04-30T15:27:39Z</time></trkpt><trkpt lat="43.12312979801204" lon="11.296438052475919"><ele>172.33333333333334</ele><time>2026-04-30T15:27:40Z</time></trkpt><trkpt lat="43.12297609073804" lon="11.296460148135141"><ele>171.0</ele><time>2026-04-30T15:27:41Z</time></trkpt><trkpt lat="43.12282437328089" lon="11.296484249412508"><ele>171.0</ele><time>2026-04-30T15:27:42Z</time></trkpt><trkpt lat="43.12267141036966" lon="11.296505126995687"><ele>171.0</ele><time>2026-04-30T15:27:43Z</time></trkpt><trkpt lat="43.1225164565315" lon="11.29652399249499"><ele>171.0</ele><time>2026-04-30T15:27:44Z</time></trkpt><trkpt lat="43.12235972178882" lon="11.296544853670873"><ele>167.33333333333334</ele><time>2026-04-30T15:27:45Z</time></trkpt><trkpt lat="43.122202513335615" lon="11.29656438348357"><ele>163.66666666666669</ele><time>2026-04-30T15:27:46Z</time></trkpt><trkpt lat="43.12204508720505" lon="11.296583815215145"><ele>160.0</ele><time>2026-04-30T15:27:47Z</time></trkpt><trkpt lat="43.12188621045362" lon="11.296602421264625"><ele>160.0</ele><time>2026-04-30T15:27:48Z</time></trkpt><trkpt lat="43.121722979232956" lon="11.296623243879017"><ele>160.0</ele><time>2026-04-30T15:27:49Z</time></trkpt><trkpt lat="43.121555838172476" lon="11.296646179003627"><ele>160.0</ele><time>2026-04-30T15:27:50Z</time></trkpt><trkpt lat="43.12138740444341" lon="11.296668683558412"><ele>159.0</ele><time>2026-04-30T15:27:51Z</time></trkpt><trkpt lat="43.12122010727569" lon="11.29669361196009"><ele>158.0</ele><time>2026-04-30T15:27:52Z</time></trkpt><trkpt lat="43.12105576091599" lon="11.296714955523996"><ele>157.0</ele><time>2026-04-30T15:27:53Z</time></trkpt><trkpt lat="43.12089133730151" lon="11.296735840644534"><ele>159.33333333333334</ele><time>2026-04-30T15:27:54Z</time></trkpt><trkpt lat="43.120728523211234" lon="11.29675740158333"><ele>161.66666666666666</ele><time>2026-04-30T15:27:55Z</time></trkpt><trkpt lat="43.12057531189561" lon="11.296773927231143"><ele>164.0</ele><time>2026-04-30T15:27:56Z</time></trkpt><trkpt lat="43.120434145517955" lon="11.296789809754623"><ele>164.0</ele><time>2026-04-30T15:27:57Z</time></trkpt><trkpt lat="43.12029958329967" lon="11.296806856549438"><ele>164.0</ele><time>2026-04-30T15:27:58Z</time></trkpt><trkpt lat="43.12015395049123" lon="11.29682636305951"><ele>164.0</ele><time>2026-04-30T15:27:59Z</time></trkpt><trkpt lat="43.12000388507674" lon="11.29684502580348"><ele>164.0</ele><time>2026-04-30T15:28:00Z</time></trkpt><trkpt lat="43.11985108524741" lon="11.296854930329896"><ele>165.66666666666666</ele><time>2026-04-30T15:28:01Z</time></trkpt><trkpt lat="43.11968825338905" lon="11.296853367087373"><ele>167.33333333333334</ele><time>2026-04-30T15:28:02Z</time></trkpt><trkpt lat="43.11951478238771" lon="11.29684598355198"><ele>169.0</ele><time>2026-04-30T15:28:03Z</time></trkpt><trkpt lat="43.119336868024774" lon="11.296840762876394"><ele>169.0</ele><time>2026-04-30T15:28:04Z</time></trkpt><trkpt lat="43.11914341373945" lon="11.296836676068065"><ele>169.0</ele><time>2026-04-30T15:28:05Z</time></trkpt><trkpt lat="43.11893225158458" lon="11.296837254792136"><ele>169.0</ele><time>2026-04-30T15:28:06Z</time></trkpt><trkpt lat="43.118700196932856" lon="11.296850069018468"><ele>169.33333333333334</ele><time>2026-04-30T15:28:07Z</time></trkpt><trkpt lat="43.118478891114954" lon="11.296862266385721"><ele>169.66666666666666</ele><time>2026-04-30T15:28:08Z</time></trkpt><trkpt lat="43.11826319822624" lon="11.29687170544206"><ele>170.0</ele><time>2026-04-30T15:28:09Z</time></trkpt><trkpt lat="43.118051564789475" lon="11.296874652463561"><ele>171.0</ele><time>2026-04-30T15:28:10Z</time></trkpt><trkpt lat="43.11783163246757" lon="11.29687102273538"><ele>172.0</ele><time>2026-04-30T15:28:11Z</time></trkpt><trkpt lat="43.11758902888736" lon="11.296861878927775"><ele>172.5</ele><time>2026-04-30T15:28:12Z</time></trkpt><trkpt lat="43.117324376773276" lon="11.29684963610481"><ele>173.0</ele><time>2026-04-30T15:28:13Z</time></trkpt><trkpt lat="43.117038514323994" lon="11.296820089263013"><ele>173.0</ele><time>2026-04-30T15:28:14Z</time></trkpt><trkpt lat="43.11673606913077" lon="11.296769425138175"><ele>173.0</ele><time>2026-04-30T15:28:15Z</time></trkpt><trkpt lat="43.11642161318337" lon="11.296712020742298"><ele>174.5</ele><time>2026-04-30T15:28:16Z</time></trkpt><trkpt lat="43.1161273608266" lon="11.296651815686348"><ele>176.0</ele><time>2026-04-30T15:28:17Z</time></trkpt><trkpt lat="43.11583713929103" lon="11.296588504388392"><ele>176.5</ele><time>2026-04-30T15:28:18Z</time></trkpt><trkpt lat="43.11555038156601" lon="11.29653148513604"><ele>177.0</ele><time>2026-04-30T15:28:19Z</time></trkpt><trkpt lat="43.11526810035349" lon="11.29647597809766"><ele>177.0</ele><time>2026-04-30T15:28:20Z</time></trkpt><trkpt lat="43.114989246108905" lon="11.2964253198558"><ele>177.0</ele><time>2026-04-30T15:28:21Z</time></trkpt><trkpt lat="43.11472207404454" lon="11.296375599267035"><ele>181.0</ele><time>2026-04-30T15:28:21.999Z</time></trkpt><trkpt lat="43.114464960870116" lon="11.296327107053646"><ele>185.0</ele><time>2026-04-30T15:28:22.999Z</time></trkpt><trkpt lat="43.114211754719875" lon="11.296276222083678"><ele>187.0</ele><time>2026-04-30T15:28:23.999Z</time></trkpt><trkpt lat="43.11396049670181" lon="11.296222250310993"><ele>189.0</ele><time>2026-04-30T15:28:24.999Z</time></trkpt><trkpt lat="43.113707953982164" lon="11.296170529743867"><ele>189.0</ele><time>2026-04-30T15:28:25.999Z</time></trkpt><trkpt lat="43.113449735223234" lon="11.296119080323313"><ele>189.0</ele><time>2026-04-30T15:28:26.999Z</time></trkpt><trkpt lat="43.11318583340286" lon="11.296067470420162"><ele>191.5</ele><time>2026-04-30T15:28:27.999Z</time></trkpt><trkpt lat="43.11292439431147" lon="11.296018473229447"><ele>194.0</ele><time>2026-04-30T15:28:28.999Z</time></trkpt><trkpt lat="43.1126558480036" lon="11.295967728464598"><ele>197.0</ele><time>2026-04-30T15:28:29.999Z</time></trkpt><trkpt lat="43.112388038109465" lon="11.295911791727189"><ele>200.0</ele><time>2026-04-30T15:28:30.999Z</time></trkpt><trkpt lat="43.11212142885161" lon="11.295859061073932"><ele>200.0</ele><time>2026-04-30T15:28:31.999Z</time></trkpt><trkpt lat="43.11185528506044" lon="11.29580667032954"><ele>200.0</ele><time>2026-04-30T15:28:32.999Z</time></trkpt><trkpt lat="43.11159141125361" lon="11.295754040444303"><ele>202.5</ele><time>2026-04-30T15:28:33.999Z</time></trkpt><trkpt lat="43.111332568169225" lon="11.29570418749695"><ele>205.0</ele><time>2026-04-30T15:28:34.999Z</time></trkpt><trkpt lat="43.11107442331661" lon="11.295658150161014"><ele>205.0</ele><time>2026-04-30T15:28:35.999Z</time></trkpt><trkpt lat="43.11081872456416" lon="11.295611536290838"><ele>205.0</ele><time>2026-04-30T15:28:36.999Z</time></trkpt><trkpt lat="43.110557066637476" lon="11.295559977221597"><ele>215.5</ele><time>2026-04-30T15:28:37.999Z</time></trkpt><trkpt lat="43.11029319809517" lon="11.29550984294837"><ele>226.0</ele><time>2026-04-30T15:28:38.999Z</time></trkpt><trkpt lat="43.11002948149024" lon="11.295460530960737"><ele>225.5</ele><time>2026-04-30T15:28:39.999Z</time></trkpt><trkpt lat="43.109766902101065" lon="11.295417218744578"><ele>225.0</ele><time>2026-04-30T15:28:40.999Z</time></trkpt><trkpt lat="43.10950462351372" lon="11.295386881129737"><ele>225.0</ele><time>2026-04-30T15:28:41.999Z</time></trkpt><trkpt lat="43.10924714866563" lon="11.29536323234894"><ele>225.0</ele><time>2026-04-30T15:28:42.999Z</time></trkpt><trkpt lat="43.10899208684804" lon="11.295333128481932"><ele>225.5</ele><time>2026-04-30T15:28:43.999Z</time></trkpt><trkpt lat="43.10872996865722" lon="11.295336948877289"><ele>226.0</ele><time>2026-04-30T15:28:44.999Z</time></trkpt><trkpt lat="43.10847270225911" lon="11.29536731639996"><ele>225.5</ele><time>2026-04-30T15:28:46Z</time></trkpt><trkpt lat="43.10820871649267" lon="11.295409437188031"><ele>225.0</ele><time>2026-04-30T15:28:47Z</time></trkpt><trkpt lat="43.10794786433146" lon="11.295470865019494"><ele>225.0</ele><time>2026-04-30T15:28:48Z</time></trkpt><trkpt lat="43.10768876796284" lon="11.295548892721493"><ele>225.0</ele><time>2026-04-30T15:28:49Z</time></trkpt><trkpt lat="43.10743323438459" lon="11.2956393094689"><ele>224.5</ele><time>2026-04-30T15:28:50Z</time></trkpt><trkpt lat="43.107179286053004" lon="11.295716031315953"><ele>224.0</ele><time>2026-04-30T15:28:51Z</time></trkpt><trkpt lat="43.10692990465696" lon="11.29585228726569"><ele>224.0</ele><time>2026-04-30T15:28:52Z</time></trkpt><trkpt lat="43.1066883734053" lon="11.295998618197391"><ele>224.0</ele><time>2026-04-30T15:28:53Z</time></trkpt><trkpt lat="43.106451473723254" lon="11.296159951664551"><ele>231.5</ele><time>2026-04-30T15:28:54Z</time></trkpt><trkpt lat="43.10621898039394" lon="11.29633044616863"><ele>239.0</ele><time>2026-04-30T15:28:55Z</time></trkpt><trkpt lat="43.10599007863848" lon="11.296511457672336"><ele>239.0</ele><time>2026-04-30T15:28:56Z</time></trkpt><trkpt lat="43.10576657628665" lon="11.29669759571012"><ele>239.0</ele><time>2026-04-30T15:28:57Z</time></trkpt><trkpt lat="43.105542103387435" lon="11.29687073556524"><ele>249.5</ele><time>2026-04-30T15:28:58Z</time></trkpt><trkpt lat="43.10531754822918" lon="11.297044521070289"><ele>260.0</ele><time>2026-04-30T15:28:59Z</time></trkpt><trkpt lat="43.10508929524488" lon="11.297221631912155"><ele>258.0</ele><time>2026-04-30T15:29:00Z</time></trkpt><trkpt lat="43.10485381395279" lon="11.297393422430998"><ele>256.0</ele><time>2026-04-30T15:29:01Z</time></trkpt><trkpt lat="43.10461650494926" lon="11.29755810699591"><ele>256.0</ele><time>2026-04-30T15:29:02Z</time></trkpt><trkpt lat="43.10435097191413" lon="11.297710937636236"><ele>256.0</ele><time>2026-04-30T15:29:03Z</time></trkpt><trkpt lat="43.10408498398436" lon="11.29785640967277"><ele>252.0</ele><time>2026-04-30T15:29:04Z</time></trkpt><trkpt lat="43.103818653114516" lon="11.29798369096317"><ele>248.0</ele><time>2026-04-30T15:29:05Z</time></trkpt><trkpt lat="43.10356077294709" lon="11.298096435754495"><ele>248.0</ele><time>2026-04-30T15:29:06Z</time></trkpt><trkpt lat="43.10330755137978" lon="11.298189828129926"><ele>248.0</ele><time>2026-04-30T15:29:07Z</time></trkpt><trkpt lat="43.103059635637145" lon="11.298260101683177"><ele>255.5</ele><time>2026-04-30T15:29:08Z</time></trkpt><trkpt lat="43.10280462333406" lon="11.298312927700756"><ele>263.0</ele><time>2026-04-30T15:29:09Z</time></trkpt><trkpt lat="43.10254554456864" lon="11.298362471854523"><ele>268.0</ele><time>2026-04-30T15:29:10Z</time></trkpt><trkpt lat="43.10228246821577" lon="11.298410478392976"><ele>273.0</ele><time>2026-04-30T15:29:11Z</time></trkpt><trkpt lat="43.102011227930355" lon="11.298462712174107"><ele>273.0</ele><time>2026-04-30T15:29:12Z</time></trkpt><trkpt lat="43.101740987448615" lon="11.298509723286104"><ele>273.0</ele><time>2026-04-30T15:29:13Z</time></trkpt><trkpt lat="43.10146036209601" lon="11.298556422922353"><ele>275.5</ele><time>2026-04-30T15:29:14Z</time></trkpt><trkpt lat="43.10119240129202" lon="11.298611706579619"><ele>278.0</ele><time>2026-04-30T15:29:15Z</time></trkpt><trkpt lat="43.10092672233166" lon="11.298666093225934"><ele>281.0</ele><time>2026-04-30T15:29:16Z</time></trkpt><trkpt lat="43.100664325303796" lon="11.298720008807898"><ele>284.0</ele><time>2026-04-30T15:29:17Z</time></trkpt><trkpt lat="43.10040426893964" lon="11.298774002991593"><ele>284.0</ele><time>2026-04-30T15:29:18Z</time></trkpt><trkpt lat="43.10014025704246" lon="11.298825029937227"><ele>284.0</ele><time>2026-04-30T15:29:19Z</time></trkpt><trkpt lat="43.09987950440881" lon="11.29887334277923"><ele>283.0</ele><time>2026-04-30T15:29:20Z</time></trkpt><trkpt lat="43.099622126201695" lon="11.298926446318054"><ele>282.0</ele><time>2026-04-30T15:29:21Z</time></trkpt><trkpt lat="43.09936634472101" lon="11.298977542743941"><ele>282.0</ele><time>2026-04-30T15:29:22Z</time></trkpt><trkpt lat="43.09911919834387" lon="11.299023764867355"><ele>282.0</ele><time>2026-04-30T15:29:23Z</time></trkpt><trkpt lat="43.09887502676272" lon="11.299065296280725"><ele>283.0</ele><time>2026-04-30T15:29:24Z</time></trkpt><trkpt lat="43.098626130571" lon="11.299110802299783"><ele>284.0</ele><time>2026-04-30T15:29:25Z</time></trkpt><trkpt lat="43.098377031796794" lon="11.299159549275013"><ele>284.5</ele><time>2026-04-30T15:29:26Z</time></trkpt><trkpt lat="43.098126932194894" lon="11.299208944860341"><ele>285.0</ele><time>2026-04-30T15:29:27Z</time></trkpt><trkpt lat="43.097867448251094" lon="11.299263277096747"><ele>285.0</ele><time>2026-04-30T15:29:28Z</time></trkpt><trkpt lat="43.09761705129538" lon="11.2993090249437"><ele>285.0</ele><time>2026-04-30T15:29:29Z</time></trkpt><trkpt lat="43.097364520236255" lon="11.299353957648895"><ele>288.5</ele><time>2026-04-30T15:29:30Z</time></trkpt><trkpt lat="43.09710807271107" lon="11.299396102267345"><ele>292.0</ele><time>2026-04-30T15:29:31Z</time></trkpt><trkpt lat="43.09684078278958" lon="11.299423123667639"><ele>296.5</ele><time>2026-04-30T15:29:32Z</time></trkpt><trkpt lat="43.096574108777766" lon="11.299432087205206"><ele>301.0</ele><time>2026-04-30T15:29:33Z</time></trkpt><trkpt lat="43.096307074049946" lon="11.29943129947767"><ele>301.0</ele><time>2026-04-30T15:29:34Z</time></trkpt><trkpt lat="43.09604574037223" lon="11.299423485996439"><ele>301.0</ele><time>2026-04-30T15:29:35Z</time></trkpt><trkpt lat="43.09578395017758" lon="11.299424777942779"><ele>300.0</ele><time>2026-04-30T15:29:36Z</time></trkpt><trkpt lat="43.095521990454635" lon="11.299425272114727"><ele>299.0</ele><time>2026-04-30T15:29:37Z</time></trkpt><trkpt lat="43.0952636569975" lon="11.299427505102784"><ele>299.0</ele><time>2026-04-30T15:29:38Z</time></trkpt><trkpt lat="43.0949995028012" lon="11.299422826193949"><ele>299.0</ele><time>2026-04-30T15:29:39Z</time></trkpt><trkpt lat="43.09473830506715" lon="11.29937617634599"><ele>295.0</ele><time>2026-04-30T15:29:40Z</time></trkpt><trkpt lat="43.09447475293382" lon="11.29925330924667"><ele>291.0</ele><time>2026-04-30T15:29:41Z</time></trkpt><trkpt lat="43.09421779555056" lon="11.299187227841962"><ele>282.5</ele><time>2026-04-30T15:29:42Z</time></trkpt><trkpt lat="43.09397016653227" lon="11.299063355916102"><ele>274.0</ele><time>2026-04-30T15:29:43Z</time></trkpt><trkpt lat="43.093719204214516" lon="11.298924113989573"><ele>276.0</ele><time>2026-04-30T15:29:44Z</time></trkpt><trkpt lat="43.09347144711667" lon="11.298796460449447"><ele>278.0</ele><time>2026-04-30T15:29:45Z</time></trkpt><trkpt lat="43.09322449001708" lon="11.298657841740928"><ele>278.0</ele><time>2026-04-30T15:29:46Z</time></trkpt><trkpt lat="43.0929772121995" lon="11.298511659606497"><ele>278.0</ele><time>2026-04-30T15:29:47Z</time></trkpt><trkpt lat="43.092732806870096" lon="11.298362070548922"><ele>278.0</ele><time>2026-04-30T15:29:48Z</time></trkpt><trkpt lat="43.09249053119521" lon="11.298200607460982"><ele>278.0</ele><time>2026-04-30T15:29:49Z</time></trkpt><trkpt lat="43.09225450637891" lon="11.298031819986928"><ele>285.5</ele><time>2026-04-30T15:29:50Z</time></trkpt><trkpt lat="43.09202109469835" lon="11.297850437004659"><ele>293.0</ele><time>2026-04-30T15:29:51Z</time></trkpt><trkpt lat="43.091789367585946" lon="11.297663390057473"><ele>286.5</ele><time>2026-04-30T15:29:52Z</time></trkpt><trkpt lat="43.09155726272054" lon="11.29747269067192"><ele>280.0</ele><time>2026-04-30T15:29:53Z</time></trkpt><trkpt lat="43.091323406246325" lon="11.29727284241771"><ele>285.5</ele><time>2026-04-30T15:29:54Z</time></trkpt><trkpt lat="43.09109017414061" lon="11.297080131093873"><ele>291.0</ele><time>2026-04-30T15:29:55Z</time></trkpt><trkpt lat="43.090855043073276" lon="11.296887590823749"><ele>281.0</ele><time>2026-04-30T15:29:56Z</time></trkpt><trkpt lat="43.09062209595923" lon="11.296685917647917"><ele>271.0</ele><time>2026-04-30T15:29:57Z</time></trkpt><trkpt lat="43.09039148305999" lon="11.296502385398036"><ele>272.0</ele><time>2026-04-30T15:29:58Z</time></trkpt><trkpt lat="43.09014035338012" lon="11.296330358337839"><ele>273.0</ele><time>2026-04-30T15:29:59Z</time></trkpt><trkpt lat="43.0899030836928" lon="11.29615241308963"><ele>273.0</ele><time>2026-04-30T15:30:00Z</time></trkpt><trkpt lat="43.08967226794019" lon="11.295973162068428"><ele>273.0</ele><time>2026-04-30T15:30:01Z</time></trkpt><trkpt lat="43.08944490481648" lon="11.295788148104698"><ele>273.0</ele><time>2026-04-30T15:30:02Z</time></trkpt><trkpt lat="43.08922174338593" lon="11.295611165446292"><ele>273.0</ele><time>2026-04-30T15:30:03Z</time></trkpt><trkpt lat="43.08899460230802" lon="11.29544301184826"><ele>275.5</ele><time>2026-04-30T15:30:04Z</time></trkpt><trkpt lat="43.08877247977192" lon="11.295288494282934"><ele>278.0</ele><time>2026-04-30T15:30:05Z</time></trkpt><trkpt lat="43.088545733523155" lon="11.29514588041129"><ele>278.0</ele><time>2026-04-30T15:30:06Z</time></trkpt><trkpt lat="43.08831677528041" lon="11.295010868474117"><ele>278.0</ele><time>2026-04-30T15:30:07Z</time></trkpt><trkpt lat="43.08808062121816" lon="11.294886044252324"><ele>272.5</ele><time>2026-04-30T15:30:08Z</time></trkpt><trkpt lat="43.08784004663931" lon="11.29477680550297"><ele>267.0</ele><time>2026-04-30T15:30:09Z</time></trkpt><trkpt lat="43.08759558010147" lon="11.294675872312423"><ele>276.5</ele><time>2026-04-30T15:30:10Z</time></trkpt><trkpt lat="43.08734742508815" lon="11.294583992500971"><ele>286.0</ele><time>2026-04-30T15:30:11Z</time></trkpt><trkpt lat="43.08709449195636" lon="11.294498790225038"><ele>286.0</ele><time>2026-04-30T15:30:12Z</time></trkpt><trkpt lat="43.08683554437035" lon="11.294424434540167"><ele>286.0</ele><time>2026-04-30T15:30:13.001Z</time></trkpt><trkpt lat="43.086566664212015" lon="11.294357348165507"><ele>284.5</ele><time>2026-04-30T15:30:14.001Z</time></trkpt><trkpt lat="43.08629844066559" lon="11.294313254152463"><ele>283.0</ele><time>2026-04-30T15:30:15.001Z</time></trkpt><trkpt lat="43.086028842879536" lon="11.294279406654189"><ele>283.0</ele><time>2026-04-30T15:30:16.001Z</time></trkpt><trkpt lat="43.085757368741575" lon="11.29424567751617"><ele>283.0</ele><time>2026-04-30T15:30:17.001Z</time></trkpt><trkpt lat="43.08548098939669" lon="11.294219453393712"><ele>283.0</ele><time>2026-04-30T15:30:18.001Z</time></trkpt><trkpt lat="43.08521518976368" lon="11.294209719491695"><ele>283.0</ele><time>2026-04-30T15:30:19.001Z</time></trkpt><trkpt lat="43.08495023953452" lon="11.294238273930265"><ele>283.5</ele><time>2026-04-30T15:30:20.001Z</time></trkpt><trkpt lat="43.08466321127127" lon="11.29429248731969"><ele>284.0</ele><time>2026-04-30T15:30:21.001Z</time></trkpt><trkpt lat="43.08440602847921" lon="11.294340208096873"><ele>284.0</ele><time>2026-04-30T15:30:22.001Z</time></trkpt><trkpt lat="43.0841352328293" lon="11.294383941891276"><ele>284.0</ele><time>2026-04-30T15:30:23.001Z</time></trkpt><trkpt lat="43.0838683649835" lon="11.294422659996133"><ele>281.5</ele><time>2026-04-30T15:30:24.001Z</time></trkpt><trkpt lat="43.08360497737271" lon="11.294488940825849"><ele>279.0</ele><time>2026-04-30T15:30:25.001Z</time></trkpt><trkpt lat="43.08334049680076" lon="11.294551205664757"><ele>276.5</ele><time>2026-04-30T15:30:26.001Z</time></trkpt><trkpt lat="43.08307675098854" lon="11.294616034926444"><ele>274.0</ele><time>2026-04-30T15:30:27.001Z</time></trkpt><trkpt lat="43.08281298598271" lon="11.294680089359524"><ele>274.0</ele><time>2026-04-30T15:30:28Z</time></trkpt><trkpt lat="43.08254927058709" lon="11.294743700849777"><ele>274.0</ele><time>2026-04-30T15:30:29Z</time></trkpt><trkpt lat="43.0822840430154" lon="11.294807176069947"><ele>263.0</ele><time>2026-04-30T15:30:30.001Z</time></trkpt><trkpt lat="43.08202200087584" lon="11.294871432653357"><ele>252.0</ele><time>2026-04-30T15:30:31.001Z</time></trkpt><trkpt lat="43.0817551634811" lon="11.294940984033493"><ele>241.5</ele><time>2026-04-30T15:30:32.001Z</time></trkpt><trkpt lat="43.08149355176277" lon="11.29500922209099"><ele>231.0</ele><time>2026-04-30T15:30:33.001Z</time></trkpt><trkpt lat="43.081225710157995" lon="11.295074389272946"><ele>231.0</ele><time>2026-04-30T15:30:34.001Z</time></trkpt><trkpt lat="43.080940665865" lon="11.295141387375734"><ele>231.0</ele><time>2026-04-30T15:30:35.001Z</time></trkpt><trkpt lat="43.08064625681592" lon="11.295213211242132"><ele>221.5</ele><time>2026-04-30T15:30:36.001Z</time></trkpt><trkpt lat="43.08036100435167" lon="11.295282944684699"><ele>212.0</ele><time>2026-04-30T15:30:37.001Z</time></trkpt><trkpt lat="43.08009090099937" lon="11.295354204581383"><ele>207.5</ele><time>2026-04-30T15:30:38.001Z</time></trkpt><trkpt lat="43.07982715631729" lon="11.295427980059667"><ele>203.0</ele><time>2026-04-30T15:30:39Z</time></trkpt><trkpt lat="43.07956963703952" lon="11.295492152131635"><ele>203.0</ele><time>2026-04-30T15:30:40Z</time></trkpt><trkpt lat="43.07931696652012" lon="11.295553183406296"><ele>203.0</ele><time>2026-04-30T15:30:41Z</time></trkpt><trkpt lat="43.07907281846579" lon="11.295614759845085"><ele>200.0</ele><time>2026-04-30T15:30:42Z</time></trkpt><trkpt lat="43.078824818814866" lon="11.295678581633533"><ele>197.0</ele><time>2026-04-30T15:30:43Z</time></trkpt><trkpt lat="43.078575749034506" lon="11.295738149203036"><ele>197.0</ele><time>2026-04-30T15:30:44Z</time></trkpt><trkpt lat="43.078327777178124" lon="11.295794535644085"><ele>197.0</ele><time>2026-04-30T15:30:45Z</time></trkpt><trkpt lat="43.07808118726876" lon="11.29585712618953"><ele>183.5</ele><time>2026-04-30T15:30:46Z</time></trkpt><trkpt lat="43.07783519859418" lon="11.295920363937817"><ele>170.0</ele><time>2026-04-30T15:30:47Z</time></trkpt><trkpt lat="43.07758724651405" lon="11.295981921329895"><ele>179.5</ele><time>2026-04-30T15:30:48Z</time></trkpt><trkpt lat="43.07734006446648" lon="11.296059848242965"><ele>189.0</ele><time>2026-04-30T15:30:49Z</time></trkpt><trkpt lat="43.07709719333438" lon="11.296140022379209"><ele>189.0</ele><time>2026-04-30T15:30:50Z</time></trkpt><trkpt lat="43.07685307735366" lon="11.296204721261757"><ele>189.0</ele><time>2026-04-30T15:30:51Z</time></trkpt><trkpt lat="43.076605342352224" lon="11.296261587782157"><ele>212.0</ele><time>2026-04-30T15:30:52Z</time></trkpt><trkpt lat="43.076357180486085" lon="11.296318104710057"><ele>235.0</ele><time>2026-04-30T15:30:53Z</time></trkpt><trkpt lat="43.07610463009979" lon="11.296381511166588"><ele>238.5</ele><time>2026-04-30T15:30:54Z</time></trkpt><trkpt lat="43.075848908207476" lon="11.296448569056606"><ele>242.0</ele><time>2026-04-30T15:30:55.001Z</time></trkpt><trkpt lat="43.07559127452511" lon="11.296513532289934"><ele>257.5</ele><time>2026-04-30T15:30:56Z</time></trkpt><trkpt lat="43.07533811527069" lon="11.296574988879941"><ele>273.0</ele><time>2026-04-30T15:30:57Z</time></trkpt><trkpt lat="43.075084850792095" lon="11.296634563502064"><ele>273.5</ele><time>2026-04-30T15:30:58.001Z</time></trkpt><trkpt lat="43.0748391710219" lon="11.296689462184535"><ele>274.0</ele><time>2026-04-30T15:30:59.001Z</time></trkpt><trkpt lat="43.074589120275995" lon="11.296744085601253"><ele>274.0</ele><time>2026-04-30T15:31:00.001Z</time></trkpt><trkpt lat="43.074318982289974" lon="11.29678748500999"><ele>274.0</ele><time>2026-04-30T15:31:01.001Z</time></trkpt><trkpt lat="43.07404923349995" lon="11.296806847018237"><ele>275.0</ele><time>2026-04-30T15:31:02.001Z</time></trkpt><trkpt lat="43.073788506720106" lon="11.296825294462437"><ele>276.0</ele><time>2026-04-30T15:31:03.001Z</time></trkpt><trkpt lat="43.073516162630895" lon="11.296808295105285"><ele>277.0</ele><time>2026-04-30T15:31:04.001Z</time></trkpt><trkpt lat="43.0732403576667" lon="11.296773831427737"><ele>278.0</ele><time>2026-04-30T15:31:05.001Z</time></trkpt><trkpt lat="43.072999533271734" lon="11.296753155201804"><ele>278.0</ele><time>2026-04-30T15:31:06.001Z</time></trkpt><trkpt lat="43.07274739374065" lon="11.296710531079034"><ele>278.0</ele><time>2026-04-30T15:31:07.001Z</time></trkpt><trkpt lat="43.07248785377782" lon="11.296667751689354"><ele>279.0</ele><time>2026-04-30T15:31:08.001Z</time></trkpt><trkpt lat="43.072231022080615" lon="11.2966183700793"><ele>280.0</ele><time>2026-04-30T15:31:09.001Z</time></trkpt><trkpt lat="43.07198087123649" lon="11.296553560230258"><ele>280.0</ele><time>2026-04-30T15:31:10.001Z</time></trkpt><trkpt lat="43.071735263044644" lon="11.296479861960565"><ele>280.0</ele><time>2026-04-30T15:31:11.001Z</time></trkpt><trkpt lat="43.071491706558916" lon="11.296402636402494"><ele>286.0</ele><time>2026-04-30T15:31:12.001Z</time></trkpt><trkpt lat="43.071248924609755" lon="11.296321405592984"><ele>292.0</ele><time>2026-04-30T15:31:13.001Z</time></trkpt><trkpt lat="43.07101626541863" lon="11.29623829041005"><ele>292.0</ele><time>2026-04-30T15:31:14.001Z</time></trkpt><trkpt lat="43.07078426169254" lon="11.296147383146785"><ele>292.0</ele><time>2026-04-30T15:31:15.001Z</time></trkpt><trkpt lat="43.07055137108344" lon="11.296045864540105"><ele>295.0</ele><time>2026-04-30T15:31:16.001Z</time></trkpt><trkpt lat="43.070318259038594" lon="11.295942235161865"><ele>298.0</ele><time>2026-04-30T15:31:17.001Z</time></trkpt><trkpt lat="43.070090698859396" lon="11.29583556002672"><ele>297.5</ele><time>2026-04-30T15:31:18.001Z</time></trkpt><trkpt lat="43.069868019230526" lon="11.295716855653268"><ele>297.0</ele><time>2026-04-30T15:31:19.001Z</time></trkpt><trkpt lat="43.06964303236557" lon="11.295601811269472"><ele>305.5</ele><time>2026-04-30T15:31:20.001Z</time></trkpt><trkpt lat="43.06941602918507" lon="11.295487144777747"><ele>314.0</ele><time>2026-04-30T15:31:21.001Z</time></trkpt><trkpt lat="43.06918624881652" lon="11.295373694827544"><ele>310.0</ele><time>2026-04-30T15:31:22.019Z</time></trkpt><trkpt lat="43.06895938369148" lon="11.295261101402692"><ele>306.0</ele><time>2026-04-30T15:31:23.025Z</time></trkpt><trkpt lat="43.06873551735996" lon="11.295150802739897"><ele>306.0</ele><time>2026-04-30T15:31:24.022Z</time></trkpt><trkpt lat="43.068507722153306" lon="11.295038460940757"><ele>306.0</ele><time>2026-04-30T15:31:25.019Z</time></trkpt><trkpt lat="43.06827831089351" lon="11.294930398389836"><ele>310.0</ele><time>2026-04-30T15:31:26.023Z</time></trkpt><trkpt lat="43.068151655647036" lon="11.294595832015661"><ele>314.0</ele><time>2026-04-30T15:31:27.001Z</time></trkpt><trkpt lat="43.06794592009005" lon="11.294488525999192"><ele>314.0</ele><time>2026-04-30T15:31:28.001Z</time></trkpt><trkpt lat="43.06775315209697" lon="11.29434520062527"><ele>314.0</ele><time>2026-04-30T15:31:29.001Z</time></trkpt><trkpt lat="43.06755024838631" lon="11.294204045645307"><ele>314.0</ele><time>2026-04-30T15:31:30.001Z</time></trkpt><trkpt lat="43.067358221398926" lon="11.294061996662812"><ele>316.33333333333337</ele><time>2026-04-30T15:31:31.001Z</time></trkpt><trkpt lat="43.06716915530092" lon="11.293927852827327"><ele>318.6666666666667</ele><time>2026-04-30T15:31:32.001Z</time></trkpt><trkpt lat="43.066981844705076" lon="11.293795022406728"><ele>321.0</ele><time>2026-04-30T15:31:33.001Z</time></trkpt><trkpt lat="43.06679288232416" lon="11.293662821428631"><ele>326.3333333333333</ele><time>2026-04-30T15:31:34.022Z</time></trkpt><trkpt lat="43.066607475288116" lon="11.293534093363439"><ele>331.66666666666663</ele><time>2026-04-30T15:31:35.018Z</time></trkpt><trkpt lat="43.06642291386004" lon="11.293405483266204"><ele>337.0</ele><time>2026-04-30T15:31:36.021Z</time></trkpt><trkpt lat="43.06624551350105" lon="11.293280693337516"><ele>337.0</ele><time>2026-04-30T15:31:37.016Z</time></trkpt><trkpt lat="43.06606989749271" lon="11.293160783692796"><ele>337.0</ele><time>2026-04-30T15:31:38.021Z</time></trkpt><trkpt lat="43.06434530333204" lon="11.291958377813177"><ele>348.0</ele><time>2026-04-30T15:31:49.163Z</time></trkpt><trkpt lat="43.053364888805014" lon="11.284013343985457"><ele>345.0</ele><time>2026-04-30T15:32:57.001Z</time></trkpt><trkpt lat="43.05314433756188" lon="11.283893073715936"><ele>342.0</ele><time>2026-04-30T15:32:58.001Z</time></trkpt><trkpt lat="43.05299219662512" lon="11.284009752775267"><ele>339.0</ele><time>2026-04-30T15:32:59.001Z</time></trkpt><trkpt lat="43.0527567689271" lon="11.283958334271514"><ele>339.0</ele><time>2026-04-30T15:33:00.001Z</time></trkpt><trkpt lat="43.052542200260646" lon="11.283898669962683"><ele>339.0</ele><time>2026-04-30T15:33:01.001Z</time></trkpt><trkpt lat="43.0523249328761" lon="11.283854911904237"><ele>339.0</ele><time>2026-04-30T15:33:02.001Z</time></trkpt><trkpt lat="43.052105611204084" lon="11.283816862125892"><ele>341.6666666666667</ele><time>2026-04-30T15:33:03.001Z</time></trkpt><trkpt lat="43.051892489765464" lon="11.283789028844858"><ele>344.33333333333337</ele><time>2026-04-30T15:33:04.001Z</time></trkpt><trkpt lat="43.05167707603652" lon="11.283786712645469"><ele>347.0</ele><time>2026-04-30T15:33:05.001Z</time></trkpt><trkpt lat="43.05145612353686" lon="11.28379335951765"><ele>350.6666666666667</ele><time>2026-04-30T15:33:06.001Z</time></trkpt><trkpt lat="43.051232187050225" lon="11.283810010800352"><ele>354.3333333333333</ele><time>2026-04-30T15:33:07.001Z</time></trkpt><trkpt lat="43.051009309602385" lon="11.283835464661044"><ele>358.0</ele><time>2026-04-30T15:33:08.001Z</time></trkpt><trkpt lat="43.05078389606932" lon="11.283874060626866"><ele>363.0</ele><time>2026-04-30T15:33:09.001Z</time></trkpt><trkpt lat="43.05055598838266" lon="11.28392564255792"><ele>368.0</ele><time>2026-04-30T15:33:10.001Z</time></trkpt><trkpt lat="43.050328063058686" lon="11.283995553874467"><ele>361.0</ele><time>2026-04-30T15:33:11.001Z</time></trkpt><trkpt lat="43.050098039148914" lon="11.284077229691157"><ele>354.0</ele><time>2026-04-30T15:33:12.001Z</time></trkpt><trkpt lat="43.04986734650355" lon="11.284169051809792"><ele>354.0</ele><time>2026-04-30T15:33:13.001Z</time></trkpt><trkpt lat="43.04963399473409" lon="11.284265338002827"><ele>354.0</ele><time>2026-04-30T15:33:14.001Z</time></trkpt><trkpt lat="43.04940045297793" lon="11.28436076233418"><ele>354.0</ele><time>2026-04-30T15:33:15.001Z</time></trkpt><trkpt lat="43.04917178939626" lon="11.284453043164191"><ele>354.0</ele><time>2026-04-30T15:33:16.001Z</time></trkpt><trkpt lat="43.04894072920388" lon="11.28454088498644"><ele>355.0</ele><time>2026-04-30T15:33:17.001Z</time></trkpt><trkpt lat="43.048728830464775" lon="11.284618423353864"><ele>356.0</ele><time>2026-04-30T15:33:18.001Z</time></trkpt><trkpt lat="43.04852625601718" lon="11.284715640541704"><ele>357.0</ele><time>2026-04-30T15:33:19.001Z</time></trkpt><trkpt lat="43.0483432835485" lon="11.284897024172507"><ele>351.3333333333333</ele><time>2026-04-30T15:33:20.001Z</time></trkpt><trkpt lat="43.04813138432376" lon="11.28500075789144"><ele>345.66666666666663</ele><time>2026-04-30T15:33:21.001Z</time></trkpt><trkpt lat="43.047916346360225" lon="11.285084511083063"><ele>340.0</ele><time>2026-04-30T15:33:22.001Z</time></trkpt><trkpt lat="43.04769987135977" lon="11.285165969784517"><ele>340.0</ele><time>2026-04-30T15:33:23.001Z</time></trkpt><trkpt lat="43.04748355067483" lon="11.285242689473403"><ele>340.0</ele><time>2026-04-30T15:33:24.001Z</time></trkpt><trkpt lat="43.04726633017019" lon="11.28531409137916"><ele>340.0</ele><time>2026-04-30T15:33:25.001Z</time></trkpt><trkpt lat="43.04704821684752" lon="11.285380056980639"><ele>339.3333333333333</ele><time>2026-04-30T15:33:26.001Z</time></trkpt><trkpt lat="43.04682816462545" lon="11.285435463759185"><ele>338.6666666666667</ele><time>2026-04-30T15:33:27.001Z</time></trkpt><trkpt lat="43.04660584280211" lon="11.285481195585186"><ele>338.0</ele><time>2026-04-30T15:33:28.001Z</time></trkpt><trkpt lat="43.04637884205417" lon="11.285506409313827"><ele>337.5</ele><time>2026-04-30T15:33:29.001Z</time></trkpt><trkpt lat="43.04615165141782" lon="11.285552516025042"><ele>337.0</ele><time>2026-04-30T15:33:30.001Z</time></trkpt><trkpt lat="43.045926435213126" lon="11.285580045957175"><ele>336.66666666666663</ele><time>2026-04-30T15:33:31.001Z</time></trkpt><trkpt lat="43.04571851498236" lon="11.285593236612183"><ele>336.3333333333333</ele><time>2026-04-30T15:33:32.001Z</time></trkpt><trkpt lat="43.04551294337816" lon="11.285597278241289"><ele>336.0</ele><time>2026-04-30T15:33:33.001Z</time></trkpt><trkpt lat="43.045309192652105" lon="11.285595164490633"><ele>336.0</ele><time>2026-04-30T15:33:34.001Z</time></trkpt><trkpt lat="43.04509121730514" lon="11.285586007713146"><ele>336.0</ele><time>2026-04-30T15:33:35.001Z</time></trkpt><trkpt lat="43.04487145598047" lon="11.285567868154134"><ele>336.0</ele><time>2026-04-30T15:33:36.001Z</time></trkpt><trkpt lat="43.04464788767525" lon="11.285544786600205"><ele>334.0</ele><time>2026-04-30T15:33:37.001Z</time></trkpt><trkpt lat="43.044423024601755" lon="11.285509784043674"><ele>332.0</ele><time>2026-04-30T15:33:38.001Z</time></trkpt><trkpt lat="43.04420662258527" lon="11.285470829657644"><ele>330.0</ele><time>2026-04-30T15:33:39.001Z</time></trkpt><trkpt lat="43.04398885693819" lon="11.285428352080785"><ele>323.6666666666667</ele><time>2026-04-30T15:33:40.001Z</time></trkpt><trkpt lat="43.04377428266182" lon="11.28537771410661"><ele>317.33333333333337</ele><time>2026-04-30T15:33:41.001Z</time></trkpt><trkpt lat="43.04355846539338" lon="11.285319479794852"><ele>311.0</ele><time>2026-04-30T15:33:42.001Z</time></trkpt><trkpt lat="43.04335951821322" lon="11.285234673833376"><ele>303.0</ele><time>2026-04-30T15:33:43.001Z</time></trkpt><trkpt lat="43.04315337515771" lon="11.285148391042"><ele>295.0</ele><time>2026-04-30T15:33:44.001Z</time></trkpt><trkpt lat="43.04292865016894" lon="11.285020972380092"><ele>295.0</ele><time>2026-04-30T15:33:45.001Z</time></trkpt><trkpt lat="43.04270386595424" lon="11.28490901378321"><ele>295.0</ele><time>2026-04-30T15:33:46.001Z</time></trkpt><trkpt lat="43.0424809667333" lon="11.284815238840734"><ele>293.0</ele><time>2026-04-30T15:33:47.001Z</time></trkpt><trkpt lat="43.0422722889687" lon="11.284682935291045"><ele>291.0</ele><time>2026-04-30T15:33:48.001Z</time></trkpt><trkpt lat="43.04206779087725" lon="11.284532266039378"><ele>291.0</ele><time>2026-04-30T15:33:49.001Z</time></trkpt><trkpt lat="43.04186693812951" lon="11.284371339897973"><ele>291.0</ele><time>2026-04-30T15:33:50.001Z</time></trkpt><trkpt lat="43.04166862475017" lon="11.284199461075051"><ele>287.5</ele><time>2026-04-30T15:33:51.001Z</time></trkpt><trkpt lat="43.04147044574021" lon="11.28401241119643"><ele>284.0</ele><time>2026-04-30T15:33:52.001Z</time></trkpt><trkpt lat="43.04127886281609" lon="11.283801554630504"><ele>284.0</ele><time>2026-04-30T15:33:53.001Z</time></trkpt><trkpt lat="43.04109243752469" lon="11.283579984654994"><ele>284.0</ele><time>2026-04-30T15:33:54.001Z</time></trkpt><trkpt lat="43.04091264223449" lon="11.28334747410607"><ele>285.0</ele><time>2026-04-30T15:33:55.001Z</time></trkpt><trkpt lat="43.04073338628776" lon="11.283102676445106"><ele>286.0</ele><time>2026-04-30T15:33:56.001Z</time></trkpt><trkpt lat="43.04056360325279" lon="11.282840390738361"><ele>280.5</ele><time>2026-04-30T15:33:57.001Z</time></trkpt><trkpt lat="43.04040317431935" lon="11.282569560179976"><ele>275.0</ele><time>2026-04-30T15:33:58.001Z</time></trkpt><trkpt lat="43.04025520364814" lon="11.282288241632534"><ele>275.0</ele><time>2026-04-30T15:33:59.001Z</time></trkpt><trkpt lat="43.040113750374886" lon="11.28199725694481"><ele>275.0</ele><time>2026-04-30T15:34:00.001Z</time></trkpt><trkpt lat="43.039989149042775" lon="11.281697071924807"><ele>272.0</ele><time>2026-04-30T15:34:01.001Z</time></trkpt><trkpt lat="43.0398775622185" lon="11.28139162394916"><ele>269.0</ele><time>2026-04-30T15:34:02.001Z</time></trkpt><trkpt lat="43.03977353081295" lon="11.281083896151564"><ele>269.0</ele><time>2026-04-30T15:34:03.001Z</time></trkpt><trkpt lat="43.03968306433837" lon="11.280776554624484"><ele>269.0</ele><time>2026-04-30T15:34:04.001Z</time></trkpt><trkpt lat="43.03959495635367" lon="11.280470295106698"><ele>269.5</ele><time>2026-04-30T15:34:05.001Z</time></trkpt><trkpt lat="43.03951206225711" lon="11.280167906648614"><ele>270.0</ele><time>2026-04-30T15:34:06.001Z</time></trkpt><trkpt lat="43.03943157229155" lon="11.279860006890628"><ele>270.5</ele><time>2026-04-30T15:34:07.001Z</time></trkpt><trkpt lat="43.03934560131231" lon="11.279551245650342"><ele>271.0</ele><time>2026-04-30T15:34:08.001Z</time></trkpt><trkpt lat="43.03925411885899" lon="11.279255659826926"><ele>271.0</ele><time>2026-04-30T15:34:09.001Z</time></trkpt><trkpt lat="43.03915828885623" lon="11.278966622195338"><ele>271.0</ele><time>2026-04-30T15:34:10.001Z</time></trkpt><trkpt lat="43.0390582274769" lon="11.278680596563513"><ele>287.0</ele><time>2026-04-30T15:34:11.001Z</time></trkpt><trkpt lat="43.03895376048573" lon="11.278391289948667"><ele>303.0</ele><time>2026-04-30T15:34:12.001Z</time></trkpt><trkpt lat="43.03883285750101" lon="11.278106552902369"><ele>296.5</ele><time>2026-04-30T15:34:13.001Z</time></trkpt><trkpt lat="43.03869472336378" lon="11.277823309263677"><ele>290.0</ele><time>2026-04-30T15:34:14.015Z</time></trkpt><trkpt lat="43.03854917311047" lon="11.277548543310907"><ele>290.0</ele><time>2026-04-30T15:34:15.017Z</time></trkpt><trkpt lat="43.03839840929227" lon="11.277277559100467"><ele>290.0</ele><time>2026-04-30T15:34:16.015Z</time></trkpt><trkpt lat="43.03823672576021" lon="11.277021511553565"><ele>286.5</ele><time>2026-04-30T15:34:17.016Z</time></trkpt><trkpt lat="43.038073081507406" lon="11.276772984534688"><ele>283.0</ele><time>2026-04-30T15:34:18.02Z</time></trkpt><trkpt lat="43.036606195422856" lon="11.275661196570168"><ele>261.0</ele><time>2026-04-30T15:34:25.001Z</time></trkpt><trkpt lat="43.03637893771417" lon="11.27552839425408"><ele>239.0</ele><time>2026-04-30T15:34:26.001Z</time></trkpt><trkpt lat="43.03615487438943" lon="11.275444080909429"><ele>239.0</ele><time>2026-04-30T15:34:27.001Z</time></trkpt><trkpt lat="43.035899538616974" lon="11.275392605554131"><ele>239.0</ele><time>2026-04-30T15:34:28.001Z</time></trkpt><trkpt lat="43.03564363950287" lon="11.275343885537694"><ele>234.5</ele><time>2026-04-30T15:34:29.001Z</time></trkpt><trkpt lat="43.03537829565969" lon="11.275319509414809"><ele>230.0</ele><time>2026-04-30T15:34:30.001Z</time></trkpt><trkpt lat="43.035115506108454" lon="11.275309008069707"><ele>226.0</ele><time>2026-04-30T15:34:31.001Z</time></trkpt><trkpt lat="43.03485568272667" lon="11.275318604298361"><ele>222.0</ele><time>2026-04-30T15:34:32.001Z</time></trkpt><trkpt lat="43.034592224107165" lon="11.275342037331393"><ele>222.0</ele><time>2026-04-30T15:34:33.001Z</time></trkpt><trkpt lat="43.03432790403624" lon="11.27538702350194"><ele>222.0</ele><time>2026-04-30T15:34:34.001Z</time></trkpt><trkpt lat="43.034066151201905" lon="11.27544794316355"><ele>223.0</ele><time>2026-04-30T15:34:35.001Z</time></trkpt><trkpt lat="43.03380457452056" lon="11.27552071408768"><ele>224.0</ele><time>2026-04-30T15:34:36.001Z</time></trkpt><trkpt lat="43.0335451753361" lon="11.275607649412061"><ele>220.0</ele><time>2026-04-30T15:34:37.001Z</time></trkpt><trkpt lat="43.033285451389325" lon="11.27570261529374"><ele>216.0</ele><time>2026-04-30T15:34:38.001Z</time></trkpt><trkpt lat="43.03302710948089" lon="11.275804893333822"><ele>216.0</ele><time>2026-04-30T15:34:39.001Z</time></trkpt><trkpt lat="43.032767431409184" lon="11.275913523427223"><ele>216.0</ele><time>2026-04-30T15:34:40.001Z</time></trkpt><trkpt lat="43.032512948264724" lon="11.276026797217913"><ele>213.0</ele><time>2026-04-30T15:34:41.001Z</time></trkpt><trkpt lat="43.03225959724024" lon="11.276149006309515"><ele>210.0</ele><time>2026-04-30T15:34:42.001Z</time></trkpt><trkpt lat="43.032004728207184" lon="11.276276859611409"><ele>210.0</ele><time>2026-04-30T15:34:43.001Z</time></trkpt><trkpt lat="43.0317503410519" lon="11.276403579026471"><ele>210.0</ele><time>2026-04-30T15:34:44.001Z</time></trkpt><trkpt lat="43.031494928851" lon="11.276530056640844"><ele>211.5</ele><time>2026-04-30T15:34:45.001Z</time></trkpt><trkpt lat="43.03123922103117" lon="11.276659105328495"><ele>213.0</ele><time>2026-04-30T15:34:46.001Z</time></trkpt><trkpt lat="43.03098488819526" lon="11.276787568841591"><ele>210.0</ele><time>2026-04-30T15:34:47.001Z</time></trkpt><trkpt lat="43.03072904946259" lon="11.276913706429774"><ele>207.0</ele><time>2026-04-30T15:34:48.001Z</time></trkpt><trkpt lat="43.03047272468751" lon="11.277040826606397"><ele>207.0</ele><time>2026-04-30T15:34:49.001Z</time></trkpt><trkpt lat="43.03021517846267" lon="11.277171004277706"><ele>207.0</ele><time>2026-04-30T15:34:50.001Z</time></trkpt><trkpt lat="43.029956267244174" lon="11.277298979353837"><ele>207.5</ele><time>2026-04-30T15:34:51.001Z</time></trkpt><trkpt lat="43.02969888465049" lon="11.277427302540445"><ele>208.0</ele><time>2026-04-30T15:34:52.001Z</time></trkpt><trkpt lat="43.02944587789345" lon="11.277557106182748"><ele>208.0</ele><time>2026-04-30T15:34:53.001Z</time></trkpt><trkpt lat="43.02919086637077" lon="11.277688289398801"><ele>208.0</ele><time>2026-04-30T15:34:54.001Z</time></trkpt><trkpt lat="43.02893846227509" lon="11.277821212917697"><ele>207.5</ele><time>2026-04-30T15:34:55.001Z</time></trkpt><trkpt lat="43.0286849452621" lon="11.277955666234808"><ele>207.0</ele><time>2026-04-30T15:34:56.001Z</time></trkpt><trkpt lat="43.028416104990825" lon="11.27810329240111"><ele>202.5</ele><time>2026-04-30T15:34:57.001Z</time></trkpt><trkpt lat="43.02815060105955" lon="11.278256201898643"><ele>198.0</ele><time>2026-04-30T15:34:58.001Z</time></trkpt><trkpt lat="43.027884859691696" lon="11.278409887039935"><ele>198.0</ele><time>2026-04-30T15:34:59.001Z</time></trkpt><trkpt lat="43.0276085056117" lon="11.278568025134941"><ele>198.0</ele><time>2026-04-30T15:35:00.001Z</time></trkpt><trkpt lat="43.02733281916012" lon="11.278723330576232"><ele>197.0</ele><time>2026-04-30T15:35:01.001Z</time></trkpt><trkpt lat="43.02706195247612" lon="11.278873070830992"><ele>196.0</ele><time>2026-04-30T15:35:02.001Z</time></trkpt><trkpt lat="43.026802015264664" lon="11.279011815087228"><ele>194.0</ele><time>2026-04-30T15:35:03.001Z</time></trkpt><trkpt lat="43.02655317496112" lon="11.279141683869454"><ele>192.0</ele><time>2026-04-30T15:35:04.001Z</time></trkpt><trkpt lat="43.02630196424229" lon="11.279275606997237"><ele>192.0</ele><time>2026-04-30T15:35:05.001Z</time></trkpt><trkpt lat="43.02606108151599" lon="11.279408016963298"><ele>192.0</ele><time>2026-04-30T15:35:06.001Z</time></trkpt><trkpt lat="43.02583485637613" lon="11.279530863437888"><ele>191.5</ele><time>2026-04-30T15:35:07.001Z</time></trkpt><trkpt lat="43.02561307484278" lon="11.279653815067949"><ele>191.0</ele><time>2026-04-30T15:35:08.001Z</time></trkpt><trkpt lat="43.02538863623621" lon="11.279767720553492"><ele>191.0</ele><time>2026-04-30T15:35:09.001Z</time></trkpt><trkpt lat="43.025178048592885" lon="11.279866361753676"><ele>191.0</ele><time>2026-04-30T15:35:10.001Z</time></trkpt><trkpt lat="43.02497333728077" lon="11.27996323747928"><ele>191.0</ele><time>2026-04-30T15:35:11.001Z</time></trkpt><trkpt lat="43.02477531813478" lon="11.280057134659623"><ele>191.0</ele><time>2026-04-30T15:35:12.001Z</time></trkpt><trkpt lat="43.02458090548175" lon="11.28015581810494"><ele>191.0</ele><time>2026-04-30T15:35:13.001Z</time></trkpt><trkpt lat="43.024385027058166" lon="11.280254177035776"><ele>191.0</ele><time>2026-04-30T15:35:14.001Z</time></trkpt><trkpt lat="43.02419555156223" lon="11.280350946106338"><ele>190.66666666666666</ele><time>2026-04-30T15:35:15.001Z</time></trkpt><trkpt lat="43.024006737319134" lon="11.280447374296017"><ele>190.33333333333334</ele><time>2026-04-30T15:35:16.001Z</time></trkpt><trkpt lat="43.023810436965306" lon="11.280522837869475"><ele>190.0</ele><time>2026-04-30T15:35:17.001Z</time></trkpt><trkpt lat="43.02362349743355" lon="11.280618915646249"><ele>190.0</ele><time>2026-04-30T15:35:18.001Z</time></trkpt><trkpt lat="43.023444597752" lon="11.280733425464646"><ele>190.0</ele><time>2026-04-30T15:35:19.001Z</time></trkpt><trkpt lat="43.0232558866907" lon="11.280828976505088"><ele>190.0</ele><time>2026-04-30T15:35:20.001Z</time></trkpt><trkpt lat="43.02306755143412" lon="11.280926110662776"><ele>189.0</ele><time>2026-04-30T15:35:21.001Z</time></trkpt><trkpt lat="43.022881834660794" lon="11.28102074934193"><ele>188.0</ele><time>2026-04-30T15:35:22.001Z</time></trkpt><trkpt lat="43.02270493330347" lon="11.281117779068948"><ele>187.0</ele><time>2026-04-30T15:35:23.001Z</time></trkpt><trkpt lat="43.02253142400302" lon="11.28122198247289"><ele>187.0</ele><time>2026-04-30T15:35:24.001Z</time></trkpt><trkpt lat="43.0223659633865" lon="11.281334191483165"><ele>187.0</ele><time>2026-04-30T15:35:25.001Z</time></trkpt><trkpt lat="43.02220863855904" lon="11.281445410617644"><ele>187.0</ele><time>2026-04-30T15:35:26.001Z</time></trkpt><trkpt lat="43.02205067631514" lon="11.281560868771551"><ele>187.0</ele><time>2026-04-30T15:35:27Z</time></trkpt><trkpt lat="43.0218989568687" lon="11.281675389476089"><ele>187.0</ele><time>2026-04-30T15:35:28Z</time></trkpt><trkpt lat="43.021748209858806" lon="11.281797330436161"><ele>187.0</ele><time>2026-04-30T15:35:29Z</time></trkpt><trkpt lat="43.02160937834274" lon="11.28191360695185"><ele>186.0</ele><time>2026-04-30T15:35:30Z</time></trkpt><trkpt lat="43.02147047070768" lon="11.282031979190284"><ele>185.0</ele><time>2026-04-30T15:35:31Z</time></trkpt><trkpt lat="43.021326508265076" lon="11.282130493668735"><ele>184.0</ele><time>2026-04-30T15:35:32Z</time></trkpt><trkpt lat="43.02120001390175" lon="11.282238902603327"><ele>183.75</ele><time>2026-04-30T15:35:33Z</time></trkpt><trkpt lat="43.021070735369086" lon="11.282352886222398"><ele>183.5</ele><time>2026-04-30T15:35:34Z</time></trkpt><trkpt lat="43.02094527032083" lon="11.282463507520959"><ele>183.25</ele><time>2026-04-30T15:35:35Z</time></trkpt><trkpt lat="43.02083479137258" lon="11.282582202603823"><ele>183.0</ele><time>2026-04-30T15:35:36Z</time></trkpt><trkpt lat="43.02071981820482" lon="11.282678184367155"><ele>183.0</ele><time>2026-04-30T15:35:37Z</time></trkpt><trkpt lat="43.0206046064276" lon="11.282781878498396"><ele>183.0</ele><time>2026-04-30T15:35:38Z</time></trkpt><trkpt lat="43.02048619267936" lon="11.28288954766327"><ele>183.0</ele><time>2026-04-30T15:35:39Z</time></trkpt><trkpt lat="43.02036448660284" lon="11.282998690205085"><ele>183.0</ele><time>2026-04-30T15:35:40Z</time></trkpt><trkpt lat="43.020240893917844" lon="11.283109257584396"><ele>182.66666666666666</ele><time>2026-04-30T15:35:41Z</time></trkpt><trkpt lat="43.020113649810696" lon="11.283219232291563"><ele>182.33333333333331</ele><time>2026-04-30T15:35:42Z</time></trkpt><trkpt lat="43.01998195414441" lon="11.283333970930183"><ele>182.0</ele><time>2026-04-30T15:35:43Z</time></trkpt><trkpt lat="43.019845046788376" lon="11.283456081135656"><ele>182.0</ele><time>2026-04-30T15:35:44Z</time></trkpt><trkpt lat="43.019706820565425" lon="11.283578163082103"><ele>182.0</ele><time>2026-04-30T15:35:45Z</time></trkpt><trkpt lat="43.01956775679968" lon="11.283697562886806"><ele>182.0</ele><time>2026-04-30T15:35:46Z</time></trkpt><trkpt lat="43.01942885561556" lon="11.283814155580256"><ele>183.33333333333331</ele><time>2026-04-30T15:35:47Z</time></trkpt><trkpt lat="43.01928954900718" lon="11.283934788116989"><ele>184.66666666666666</ele><time>2026-04-30T15:35:48Z</time></trkpt><trkpt lat="43.019150809705444" lon="11.284057104624775"><ele>186.0</ele><time>2026-04-30T15:35:49Z</time></trkpt><trkpt lat="43.01901141531208" lon="11.284182646503675"><ele>186.0</ele><time>2026-04-30T15:35:50Z</time></trkpt><trkpt lat="43.01886864111139" lon="11.284307832038397"><ele>186.0</ele><time>2026-04-30T15:35:51Z</time></trkpt><trkpt lat="43.01872364152527" lon="11.284434817237502"><ele>186.0</ele><time>2026-04-30T15:35:52Z</time></trkpt><trkpt lat="43.01857679542682" lon="11.284565926587621"><ele>186.0</ele><time>2026-04-30T15:35:53Z</time></trkpt><trkpt lat="43.018430717726346" lon="11.284695413637946"><ele>186.0</ele><time>2026-04-30T15:35:54Z</time></trkpt><trkpt lat="43.01828304770451" lon="11.284825566177076"><ele>186.0</ele><time>2026-04-30T15:35:55Z</time></trkpt><trkpt lat="43.01813613432207" lon="11.284954914689063"><ele>186.33333333333334</ele><time>2026-04-30T15:35:56Z</time></trkpt><trkpt lat="43.017987480393856" lon="11.28508735041331"><ele>186.66666666666669</ele><time>2026-04-30T15:35:57Z</time></trkpt><trkpt lat="43.01783855995997" lon="11.285222290615069"><ele>187.0</ele><time>2026-04-30T15:35:58Z</time></trkpt><trkpt lat="43.01768917486826" lon="11.285354461655377"><ele>187.0</ele><time>2026-04-30T15:35:59Z</time></trkpt><trkpt lat="43.01753798428602" lon="11.285487162558026"><ele>187.0</ele><time>2026-04-30T15:36:00Z</time></trkpt><trkpt lat="43.01738425760622" lon="11.28562164938215"><ele>187.0</ele><time>2026-04-30T15:36:01Z</time></trkpt><trkpt lat="43.01723096073379" lon="11.285760443951622"><ele>193.0</ele><time>2026-04-30T15:36:02Z</time></trkpt><trkpt lat="43.01707857680511" lon="11.285893737489223"><ele>199.0</ele><time>2026-04-30T15:36:03Z</time></trkpt><trkpt lat="43.01693459444192" lon="11.28601970839809"><ele>205.0</ele><time>2026-04-30T15:36:04Z</time></trkpt><trkpt lat="43.016778181631025" lon="11.28613106285843"><ele>205.0</ele><time>2026-04-30T15:36:05Z</time></trkpt><trkpt lat="43.01663069768664" lon="11.286260370942404"><ele>205.0</ele><time>2026-04-30T15:36:06Z</time></trkpt><trkpt lat="43.0164856748872" lon="11.286387520965164"><ele>205.0</ele><time>2026-04-30T15:36:07Z</time></trkpt><trkpt lat="43.01633184030965" lon="11.286522396880573"><ele>199.33333333333331</ele><time>2026-04-30T15:36:08Z</time></trkpt><trkpt lat="43.01616315761714" lon="11.286670982493328"><ele>193.66666666666666</ele><time>2026-04-30T15:36:09Z</time></trkpt><trkpt lat="43.01600113062692" lon="11.286813977042234"><ele>188.0</ele><time>2026-04-30T15:36:10Z</time></trkpt><trkpt lat="43.01582994798069" lon="11.28698960643761"><ele>181.66666666666666</ele><time>2026-04-30T15:36:11Z</time></trkpt><trkpt lat="43.01566266485467" lon="11.287131005206739"><ele>175.33333333333334</ele><time>2026-04-30T15:36:12Z</time></trkpt><trkpt lat="43.01548449089585" lon="11.287284278238193"><ele>169.0</ele><time>2026-04-30T15:36:13Z</time></trkpt><trkpt lat="43.015282460397856" lon="11.28744575078804"><ele>168.5</ele><time>2026-04-30T15:36:14Z</time></trkpt><trkpt lat="43.01506609840804" lon="11.287598188095766"><ele>168.0</ele><time>2026-04-30T15:36:15Z</time></trkpt><trkpt lat="43.01484076717685" lon="11.287740463138759"><ele>171.0</ele><time>2026-04-30T15:36:16Z</time></trkpt><trkpt lat="43.014602174752675" lon="11.287838764659197"><ele>174.0</ele><time>2026-04-30T15:36:17Z</time></trkpt><trkpt lat="43.01436671064873" lon="11.287936874018868"><ele>174.5</ele><time>2026-04-30T15:36:18Z</time></trkpt><trkpt lat="43.01414309145123" lon="11.288019892776006"><ele>175.0</ele><time>2026-04-30T15:36:19Z</time></trkpt><trkpt lat="43.01392856726301" lon="11.288082495601621"><ele>178.33333333333334</ele><time>2026-04-30T15:36:20Z</time></trkpt><trkpt lat="43.013719468322584" lon="11.28815133847795"><ele>181.66666666666666</ele><time>2026-04-30T15:36:21Z</time></trkpt><trkpt lat="43.013525683441465" lon="11.28817950837638"><ele>185.0</ele><time>2026-04-30T15:36:22Z</time></trkpt><trkpt lat="43.01335034970365" lon="11.288189422967134"><ele>185.5</ele><time>2026-04-30T15:36:23Z</time></trkpt><trkpt lat="43.013191806022746" lon="11.288192382206086"><ele>186.0</ele><time>2026-04-30T15:36:24Z</time></trkpt><trkpt lat="43.01305541536922" lon="11.288183341281572"><ele>186.5</ele><time>2026-04-30T15:36:25Z</time></trkpt><trkpt lat="43.012938135217155" lon="11.288184522294094"><ele>187.0</ele><time>2026-04-30T15:36:26Z</time></trkpt><trkpt lat="43.01282887942028" lon="11.288168295213907"><ele>187.0</ele><time>2026-04-30T15:36:27Z</time></trkpt><trkpt lat="43.01273588106892" lon="11.288158739270974"><ele>187.0</ele><time>2026-04-30T15:36:28Z</time></trkpt><trkpt lat="43.01265527468232" lon="11.288149485025869"><ele>187.0</ele><time>2026-04-30T15:36:29Z</time></trkpt><trkpt lat="43.012537686183656" lon="11.28812910243293"><ele>187.0</ele><time>2026-04-30T15:36:30Z</time></trkpt><trkpt lat="43.0123778350333" lon="11.288095875327997"><ele>187.0</ele><time>2026-04-30T15:36:31Z</time></trkpt><trkpt lat="43.01220229209597" lon="11.288052137271078"><ele>187.0</ele><time>2026-04-30T15:36:32Z</time></trkpt><trkpt lat="43.01203818028208" lon="11.288006015843175"><ele>187.0</ele><time>2026-04-30T15:36:33Z</time></trkpt><trkpt lat="43.011860680642705" lon="11.287955839569955"><ele>187.0</ele><time>2026-04-30T15:36:34Z</time></trkpt><trkpt lat="43.01168026675371" lon="11.287906224236052"><ele>187.0</ele><time>2026-04-30T15:36:35Z</time></trkpt><trkpt lat="43.01152012775262" lon="11.287862601532387"><ele>187.0</ele><time>2026-04-30T15:36:36Z</time></trkpt><trkpt lat="43.01137354272093" lon="11.287822397391494"><ele>190.25</ele><time>2026-04-30T15:36:37Z</time></trkpt><trkpt lat="43.01122250842296" lon="11.287783813263841"><ele>193.5</ele><time>2026-04-30T15:36:38Z</time></trkpt><trkpt lat="43.011074359099744" lon="11.28774909645487"><ele>196.75</ele><time>2026-04-30T15:36:39Z</time></trkpt><trkpt lat="43.01093772270257" lon="11.287720916788688"><ele>200.0</ele><time>2026-04-30T15:36:40Z</time></trkpt><trkpt lat="43.010798720562576" lon="11.287695064305181"><ele>200.75</ele><time>2026-04-30T15:36:41Z</time></trkpt><trkpt lat="43.0106786043836" lon="11.287674525767079"><ele>201.5</ele><time>2026-04-30T15:36:42Z</time></trkpt><trkpt lat="43.010550540846154" lon="11.287654395136652"><ele>202.25</ele><time>2026-04-30T15:36:43Z</time></trkpt><trkpt lat="43.01042896454314" lon="11.28763870785734"><ele>203.0</ele><time>2026-04-30T15:36:44Z</time></trkpt><trkpt lat="43.01029594311741" lon="11.287622165741746"><ele>203.0</ele><time>2026-04-30T15:36:45Z</time></trkpt><trkpt lat="43.010176777477774" lon="11.287609211191542"><ele>203.0</ele><time>2026-04-30T15:36:46Z</time></trkpt><trkpt lat="43.01004042697013" lon="11.287597876120632"><ele>203.0</ele><time>2026-04-30T15:36:47Z</time></trkpt><trkpt lat="43.00989881516133" lon="11.287590072463399"><ele>203.0</ele><time>2026-04-30T15:36:48Z</time></trkpt><trkpt lat="43.009764154679516" lon="11.287587397834315"><ele>198.75</ele><time>2026-04-30T15:36:49Z</time></trkpt><trkpt lat="43.009643594379455" lon="11.28758650940148"><ele>194.5</ele><time>2026-04-30T15:36:50.001Z</time></trkpt><trkpt lat="43.00952734918079" lon="11.287587458498699"><ele>190.25</ele><time>2026-04-30T15:36:51.001Z</time></trkpt><trkpt lat="43.009411975484966" lon="11.287590293929025"><ele>186.0</ele><time>2026-04-30T15:36:52.001Z</time></trkpt><trkpt lat="43.00930081182979" lon="11.287594515320645"><ele>186.0</ele><time>2026-04-30T15:36:53.001Z</time></trkpt><trkpt lat="43.00918203432687" lon="11.287602198828768"><ele>186.0</ele><time>2026-04-30T15:36:54.001Z</time></trkpt><trkpt lat="43.00907135296321" lon="11.287609359608727"><ele>186.0</ele><time>2026-04-30T15:36:55.001Z</time></trkpt><trkpt lat="43.008945880588044" lon="11.28761731146034"><ele>186.0</ele><time>2026-04-30T15:36:56.001Z</time></trkpt><trkpt lat="43.00883831262885" lon="11.28762697706882"><ele>190.20000000000002</ele><time>2026-04-30T15:36:57.001Z</time></trkpt><trkpt lat="43.008733401923514" lon="11.287636403911476"><ele>194.4</ele><time>2026-04-30T15:36:58.001Z</time></trkpt><trkpt lat="43.008629609825384" lon="11.287645730248007"><ele>198.6</ele><time>2026-04-30T15:36:59.001Z</time></trkpt><trkpt lat="43.00852602103715" lon="11.287655038293385"><ele>202.8</ele><time>2026-04-30T15:37:00.001Z</time></trkpt><trkpt lat="43.00842387149516" lon="11.287664217036209"><ele>207.0</ele><time>2026-04-30T15:37:01.001Z</time></trkpt><trkpt lat="43.00832029547751" lon="11.287673523941491"><ele>210.8</ele><time>2026-04-30T15:37:02.001Z</time></trkpt><trkpt lat="43.00821605520026" lon="11.287682890538923"><ele>214.6</ele><time>2026-04-30T15:37:03.001Z</time></trkpt><trkpt lat="43.008115235171935" lon="11.287691859192076"><ele>218.40000000000003</ele><time>2026-04-30T15:37:04.001Z</time></trkpt><trkpt lat="43.0080041133342" lon="11.287701360323716"><ele>222.20000000000002</ele><time>2026-04-30T15:37:05.001Z</time></trkpt><trkpt lat="43.00789269419426" lon="11.287711251565812"><ele>226.0</ele><time>2026-04-30T15:37:06.001Z</time></trkpt><trkpt lat="43.00780477661732" lon="11.287719313734062"><ele>226.0</ele><time>2026-04-30T15:37:07.001Z</time></trkpt><trkpt lat="43.00772229450448" lon="11.28772687745468"><ele>226.00000000000003</ele><time>2026-04-30T15:37:08.001Z</time></trkpt><trkpt lat="43.00762636739445" lon="11.28775742008576"><ele>226.00000000000003</ele><time>2026-04-30T15:37:09.001Z</time></trkpt><trkpt lat="43.00751398088481" lon="11.287748702273962"><ele>226.0</ele><time>2026-04-30T15:37:10.001Z</time></trkpt><trkpt lat="43.00740423237208" lon="11.287766144426753"><ele>226.0</ele><time>2026-04-30T15:37:11.001Z</time></trkpt><trkpt lat="43.00729455704493" lon="11.287780099541372"><ele>223.4</ele><time>2026-04-30T15:37:12.001Z</time></trkpt><trkpt lat="43.007186777409075" lon="11.287793504201629"><ele>220.8</ele><time>2026-04-30T15:37:13.001Z</time></trkpt><trkpt lat="43.00708314189669" lon="11.287799501936462"><ele>218.20000000000002</ele><time>2026-04-30T15:37:14.001Z</time></trkpt><trkpt lat="43.006982051171676" lon="11.287807540489162"><ele>215.60000000000002</ele><time>2026-04-30T15:37:15.001Z</time></trkpt><trkpt lat="43.00688195769856" lon="11.287813592167723"><ele>213.0</ele><time>2026-04-30T15:37:16Z</time></trkpt><trkpt lat="43.0067846473872" lon="11.287822349777436"><ele>213.0</ele><time>2026-04-30T15:37:17Z</time></trkpt><trkpt lat="43.00669015648932" lon="11.287830944500568"><ele>213.0</ele><time>2026-04-30T15:37:18Z</time></trkpt><trkpt lat="43.006599206690254" lon="11.287840083370147"><ele>213.0</ele><time>2026-04-30T15:37:19Z</time></trkpt><trkpt lat="43.00650980248037" lon="11.287847004663151"><ele>213.0</ele><time>2026-04-30T15:37:20Z</time></trkpt><trkpt lat="43.00640943566886" lon="11.287850972574356"><ele>213.0</ele><time>2026-04-30T15:37:21Z</time></trkpt><trkpt lat="43.00631000328494" lon="11.287862418474292"><ele>214.8</ele><time>2026-04-30T15:37:22Z</time></trkpt><trkpt lat="43.00621060479824" lon="11.287868741068479"><ele>216.60000000000002</ele><time>2026-04-30T15:37:23Z</time></trkpt><trkpt lat="43.00611024086515" lon="11.287879329175476"><ele>218.39999999999998</ele><time>2026-04-30T15:37:24Z</time></trkpt><trkpt lat="43.006005296163465" lon="11.287891762473992"><ele>220.2</ele><time>2026-04-30T15:37:25Z</time></trkpt><trkpt lat="43.00589980874125" lon="11.287898107526532"><ele>222.0</ele><time>2026-04-30T15:37:26Z</time></trkpt><trkpt lat="43.00579501775944" lon="11.287907430664799"><ele>224.5</ele><time>2026-04-30T15:37:27Z</time></trkpt><trkpt lat="43.005684933501335" lon="11.28791684378663"><ele>227.0</ele><time>2026-04-30T15:37:28Z</time></trkpt><trkpt lat="43.00557004998046" lon="11.28792553477854"><ele>229.5</ele><time>2026-04-30T15:37:29Z</time></trkpt><trkpt lat="43.00545208225139" lon="11.287939300128539"><ele>232.0</ele><time>2026-04-30T15:37:30Z</time></trkpt><trkpt lat="43.005329142471666" lon="11.287951497169395"><ele>232.0</ele><time>2026-04-30T15:37:31Z</time></trkpt><trkpt lat="43.005201942940694" lon="11.28796311346824"><ele>232.0</ele><time>2026-04-30T15:37:32Z</time></trkpt><trkpt lat="43.005073698727806" lon="11.287975749026225"><ele>232.0</ele><time>2026-04-30T15:37:33Z</time></trkpt><trkpt lat="43.004944108998735" lon="11.287988669481836"><ele>232.0</ele><time>2026-04-30T15:37:34Z</time></trkpt><trkpt lat="43.004810588352456" lon="11.287995094513805"><ele>231.5</ele><time>2026-04-30T15:37:35Z</time></trkpt><trkpt lat="43.004675493773426" lon="11.28800380095755"><ele>231.0</ele><time>2026-04-30T15:37:36Z</time></trkpt><trkpt lat="43.00452636744105" lon="11.288019557609953"><ele>230.5</ele><time>2026-04-30T15:37:37Z</time></trkpt><trkpt lat="43.004370783050135" lon="11.28803384601862"><ele>230.0</ele><time>2026-04-30T15:37:38Z</time></trkpt><trkpt lat="43.00421476285348" lon="11.288048056845755"><ele>235.66666666666669</ele><time>2026-04-30T15:37:39Z</time></trkpt><trkpt lat="43.004060390959985" lon="11.288060794262185"><ele>241.33333333333331</ele><time>2026-04-30T15:37:40Z</time></trkpt><trkpt lat="43.00391415626231" lon="11.288069862975137"><ele>247.0</ele><time>2026-04-30T15:37:41Z</time></trkpt><trkpt lat="43.00376246207799" lon="11.28807801968008"><ele>247.0</ele><time>2026-04-30T15:37:42Z</time></trkpt><trkpt lat="43.00361512417073" lon="11.288076712809593"><ele>247.0</ele><time>2026-04-30T15:37:43Z</time></trkpt><trkpt lat="43.003470235901574" lon="11.288072893101583"><ele>247.0</ele><time>2026-04-30T15:37:44Z</time></trkpt><trkpt lat="43.003331470980115" lon="11.288065904960446"><ele>247.0</ele><time>2026-04-30T15:37:45Z</time></trkpt><trkpt lat="43.0031948946631" lon="11.28805127131792"><ele>249.0</ele><time>2026-04-30T15:37:46Z</time></trkpt><trkpt lat="43.003058631756524" lon="11.288031077761605"><ele>251.0</ele><time>2026-04-30T15:37:47Z</time></trkpt><trkpt lat="43.002925443586115" lon="11.288009610508361"><ele>253.0</ele><time>2026-04-30T15:37:48Z</time></trkpt><trkpt lat="43.00279448400237" lon="11.287983352806549"><ele>255.0</ele><time>2026-04-30T15:37:49Z</time></trkpt><trkpt lat="43.002665637859444" lon="11.28794898729268"><ele>255.0</ele><time>2026-04-30T15:37:50Z</time></trkpt><trkpt lat="43.00253837515527" lon="11.287915025880677"><ele>255.0</ele><time>2026-04-30T15:37:51Z</time></trkpt><trkpt lat="43.00241293832758" lon="11.28787996368912"><ele>255.0</ele><time>2026-04-30T15:37:52Z</time></trkpt><trkpt lat="43.00228860962403" lon="11.287849842895687"><ele>255.0</ele><time>2026-04-30T15:37:53Z</time></trkpt><trkpt lat="43.002171633436504" lon="11.287820363064169"><ele>256.2</ele><time>2026-04-30T15:37:54Z</time></trkpt><trkpt lat="43.00206176497097" lon="11.287790599368222"><ele>257.4</ele><time>2026-04-30T15:37:55Z</time></trkpt><trkpt lat="43.0019567544542" lon="11.287763091478332"><ele>258.6</ele><time>2026-04-30T15:37:56Z</time></trkpt><trkpt lat="43.00185839100458" lon="11.287738969301552"><ele>259.8</ele><time>2026-04-30T15:37:57Z</time></trkpt><trkpt lat="43.0017682301209" lon="11.287715208281062"><ele>261.0</ele><time>2026-04-30T15:37:58Z</time></trkpt><trkpt lat="43.00167216013778" lon="11.28769588194701"><ele>260.40000000000003</ele><time>2026-04-30T15:37:59Z</time></trkpt><trkpt lat="43.00157458472866" lon="11.287670577597344"><ele>259.8</ele><time>2026-04-30T15:38:00Z</time></trkpt><trkpt lat="43.00147061832281" lon="11.28764365808615"><ele>259.20000000000005</ele><time>2026-04-30T15:38:01Z</time></trkpt><trkpt lat="43.00135927484168" lon="11.287615543252539"><ele>258.6</ele><time>2026-04-30T15:38:02Z</time></trkpt><trkpt lat="43.00124483062203" lon="11.28758067028427"><ele>258.0</ele><time>2026-04-30T15:38:03Z</time></trkpt><trkpt lat="43.001124811891906" lon="11.287546711834189"><ele>258.0</ele><time>2026-04-30T15:38:04Z</time></trkpt><trkpt lat="43.00100367714221" lon="11.287517370499518"><ele>258.0</ele><time>2026-04-30T15:38:05Z</time></trkpt><trkpt lat="43.00087713450136" lon="11.287487141439764"><ele>258.0</ele><time>2026-04-30T15:38:06Z</time></trkpt><trkpt lat="43.00075319876639" lon="11.28745091290543"><ele>258.0</ele><time>2026-04-30T15:38:07Z</time></trkpt><trkpt lat="43.000624405649276" lon="11.28741819598233"><ele>258.0</ele><time>2026-04-30T15:38:08Z</time></trkpt><trkpt lat="43.000498832701695" lon="11.287386229186598"><ele>258.0</ele><time>2026-04-30T15:38:09Z</time></trkpt><trkpt lat="43.000376905521655" lon="11.287355902813317"><ele>258.0</ele><time>2026-04-30T15:38:10Z</time></trkpt><trkpt lat="43.00025261418414" lon="11.287322453010093"><ele>258.0</ele><time>2026-04-30T15:38:11Z</time></trkpt><trkpt lat="43.00012826399212" lon="11.287297388064623"><ele>258.0</ele><time>2026-04-30T15:38:12Z</time></trkpt><trkpt lat="43.00000448199312" lon="11.2872709303953"><ele>258.0</ele><time>2026-04-30T15:38:13Z</time></trkpt><trkpt lat="42.999876638926466" lon="11.287247334773875"><ele>258.0</ele><time>2026-04-30T15:38:14Z</time></trkpt><trkpt lat="42.99974494361974" lon="11.28722806205262"><ele>258.0</ele><time>2026-04-30T15:38:15Z</time></trkpt><trkpt lat="42.99961364233691" lon="11.28720827012166"><ele>262.25</ele><time>2026-04-30T15:38:16Z</time></trkpt><trkpt lat="42.99948301336831" lon="11.287184779318434"><ele>266.5</ele><time>2026-04-30T15:38:17Z</time></trkpt><trkpt lat="42.99935158961731" lon="11.287164780163943"><ele>270.75</ele><time>2026-04-30T15:38:18Z</time></trkpt><trkpt lat="42.99921708054808" lon="11.287157893323222"><ele>275.0</ele><time>2026-04-30T15:38:19Z</time></trkpt><trkpt lat="42.999075119672696" lon="11.287166954571083"><ele>275.0</ele><time>2026-04-30T15:38:20Z</time></trkpt><trkpt lat="42.99890205964207" lon="11.287188723552651"><ele>275.0</ele><time>2026-04-30T15:38:21Z</time></trkpt><trkpt lat="42.9987217789827" lon="11.28721219525652"><ele>275.0</ele><time>2026-04-30T15:38:22Z</time></trkpt><trkpt lat="42.99855775517572" lon="11.287239677478722"><ele>273.6666666666667</ele><time>2026-04-30T15:38:23Z</time></trkpt><trkpt lat="42.99839240094991" lon="11.287275964684621"><ele>272.3333333333333</ele><time>2026-04-30T15:38:24Z</time></trkpt><trkpt lat="42.99823002664509" lon="11.28732010977254"><ele>271.0</ele><time>2026-04-30T15:38:25Z</time></trkpt><trkpt lat="42.99807000354733" lon="11.287369262750712"><ele>271.0</ele><time>2026-04-30T15:38:26Z</time></trkpt><trkpt lat="42.99791061458862" lon="11.287418903820733"><ele>271.0</ele><time>2026-04-30T15:38:27Z</time></trkpt><trkpt lat="42.997753179092726" lon="11.287470151856159"><ele>271.0</ele><time>2026-04-30T15:38:28Z</time></trkpt><trkpt lat="42.997604969245266" lon="11.28752139945405"><ele>272.25</ele><time>2026-04-30T15:38:29Z</time></trkpt><trkpt lat="42.99747321939253" lon="11.287568627527522"><ele>273.5</ele><time>2026-04-30T15:38:30Z</time></trkpt><trkpt lat="42.99735544522543" lon="11.287610201006236"><ele>274.75</ele><time>2026-04-30T15:38:31Z</time></trkpt><trkpt lat="42.99724993661192" lon="11.287645399710277"><ele>276.0</ele><time>2026-04-30T15:38:32Z</time></trkpt><trkpt lat="42.997153574692184" lon="11.287677462027283"><ele>276.0</ele><time>2026-04-30T15:38:33Z</time></trkpt><trkpt lat="42.99707040348863" lon="11.287702720863207"><ele>276.0</ele><time>2026-04-30T15:38:34Z</time></trkpt><trkpt lat="42.99699278106043" lon="11.287717896038377"><ele>276.0</ele><time>2026-04-30T15:38:35Z</time></trkpt><trkpt lat="42.99691790258541" lon="11.28771453434307"><ele>276.0</ele><time>2026-04-30T15:38:36Z</time></trkpt><trkpt lat="42.99684084564943" lon="11.287696581971396"><ele>276.0</ele><time>2026-04-30T15:38:37Z</time></trkpt><trkpt lat="42.99677437550301" lon="11.287658815895067"><ele>276.0</ele><time>2026-04-30T15:38:38Z</time></trkpt><trkpt lat="42.996690843034685" lon="11.287551523905108"><ele>276.0</ele><time>2026-04-30T15:38:40Z</time></trkpt><trkpt lat="42.996614070337785" lon="11.287431439025202"><ele>276.0</ele><time>2026-04-30T15:38:42Z</time></trkpt><trkpt lat="42.99660258424445" lon="11.287321388307985"><ele>276.0</ele><time>2026-04-30T15:38:43Z</time></trkpt><trkpt lat="42.996567872574566" lon="11.287246063431727"><ele>276.0</ele><time>2026-04-30T15:38:44Z</time></trkpt><trkpt lat="42.99663126959024" lon="11.287041494023594"><ele>276.0</ele><time>2026-04-30T15:38:46Z</time></trkpt><trkpt lat="42.99668875094151" lon="11.28696568920543"><ele>277.5</ele><time>2026-04-30T15:38:47Z</time></trkpt><trkpt lat="42.99678262560388" lon="11.286899183726776"><ele>279.0</ele><time>2026-04-30T15:38:48Z</time></trkpt><trkpt lat="42.996900299421625" lon="11.286808832952193"><ele>280.5</ele><time>2026-04-30T15:38:49Z</time></trkpt><trkpt lat="42.9970306318898" lon="11.286710758835946"><ele>282.0</ele><time>2026-04-30T15:38:50Z</time></trkpt><trkpt lat="42.997141224058325" lon="11.286624773989525"><ele>282.0</ele><time>2026-04-30T15:38:51Z</time></trkpt><trkpt lat="42.99723979343582" lon="11.286527570459018"><ele>282.0</ele><time>2026-04-30T15:38:52Z</time></trkpt><trkpt lat="42.99731271307507" lon="11.286410682652576"><ele>282.0</ele><time>2026-04-30T15:38:53Z</time></trkpt><trkpt lat="42.99735172364645" lon="11.286267922642557"><ele>282.0</ele><time>2026-04-30T15:38:54Z</time></trkpt><trkpt lat="42.99735685703218" lon="11.286108322477434"><ele>283.25</ele><time>2026-04-30T15:38:55Z</time></trkpt><trkpt lat="42.99733578122274" lon="11.28594076175959"><ele>284.5</ele><time>2026-04-30T15:38:56Z</time></trkpt><trkpt lat="42.99730203653934" lon="11.285766707621573"><ele>285.75</ele><time>2026-04-30T15:38:57Z</time></trkpt><trkpt lat="42.997261948469784" lon="11.285600569547109"><ele>287.0</ele><time>2026-04-30T15:38:58Z</time></trkpt><trkpt lat="42.99722583357489" lon="11.285438578735294"><ele>287.75</ele><time>2026-04-30T15:38:59Z</time></trkpt><trkpt lat="42.99718878689094" lon="11.285275541940122"><ele>288.5</ele><time>2026-04-30T15:39:00Z</time></trkpt><trkpt lat="42.99715341342374" lon="11.285111988428884"><ele>289.25</ele><time>2026-04-30T15:39:01Z</time></trkpt><trkpt lat="42.99711957046038" lon="11.284945556488557"><ele>290.0</ele><time>2026-04-30T15:39:02Z</time></trkpt><trkpt lat="42.997079132919424" lon="11.284777163979204"><ele>290.25</ele><time>2026-04-30T15:39:03Z</time></trkpt><trkpt lat="42.997032998958" lon="11.284611066579512"><ele>290.5</ele><time>2026-04-30T15:39:04Z</time></trkpt><trkpt lat="42.99696990273421" lon="11.284444420008407"><ele>290.75</ele><time>2026-04-30T15:39:05Z</time></trkpt><trkpt lat="42.996897689813686" lon="11.284286896253485"><ele>291.0</ele><time>2026-04-30T15:39:06Z</time></trkpt><trkpt lat="42.996827242452525" lon="11.284132502338723"><ele>291.0</ele><time>2026-04-30T15:39:07Z</time></trkpt><trkpt lat="42.996761950860325" lon="11.283984439982001"><ele>291.0</ele><time>2026-04-30T15:39:08Z</time></trkpt><trkpt lat="42.99671544418574" lon="11.283853689409577"><ele>291.0</ele><time>2026-04-30T15:39:09Z</time></trkpt><trkpt lat="42.9966894963985" lon="11.283736527124567"><ele>291.0</ele><time>2026-04-30T15:39:10Z</time></trkpt><trkpt lat="42.996676583001545" lon="11.283630190356568"><ele>291.0</ele><time>2026-04-30T15:39:11Z</time></trkpt><trkpt lat="42.99668280633389" lon="11.28353642437406"><ele>291.0</ele><time>2026-04-30T15:39:12Z</time></trkpt><trkpt lat="42.99670496990842" lon="11.283450868778642"><ele>291.0</ele><time>2026-04-30T15:39:13Z</time></trkpt><trkpt lat="42.996747714356275" lon="11.28335793708774"><ele>291.0</ele><time>2026-04-30T15:39:14Z</time></trkpt><trkpt lat="42.996816449702266" lon="11.283283734712727"><ele>291.0</ele><time>2026-04-30T15:39:15Z</time></trkpt><trkpt lat="42.99690693538625" lon="11.283222501662573"><ele>291.0</ele><time>2026-04-30T15:39:16Z</time></trkpt><trkpt lat="42.99700662234848" lon="11.283156987663888"><ele>291.0</ele><time>2026-04-30T15:39:17Z</time></trkpt><trkpt lat="42.99710944466267" lon="11.283060810935321"><ele>289.3333333333333</ele><time>2026-04-30T15:39:18Z</time></trkpt><trkpt lat="42.99720587621416" lon="11.282913651777603"><ele>287.66666666666663</ele><time>2026-04-30T15:39:19Z</time></trkpt><trkpt lat="42.99729385151114" lon="11.282712943140387"><ele>286.0</ele><time>2026-04-30T15:39:20Z</time></trkpt><trkpt lat="42.997373229652965" lon="11.282493424389099"><ele>286.0</ele><time>2026-04-30T15:39:21Z</time></trkpt><trkpt lat="42.997450045465975" lon="11.282280228301605"><ele>286.0</ele><time>2026-04-30T15:39:22Z</time></trkpt><trkpt lat="42.99751896585378" lon="11.282082208174312"><ele>286.0</ele><time>2026-04-30T15:39:23Z</time></trkpt><trkpt lat="42.997587812978104" lon="11.28189373039582"><ele>285.75</ele><time>2026-04-30T15:39:24Z</time></trkpt><trkpt lat="42.997653283090756" lon="11.281718827644603"><ele>285.5</ele><time>2026-04-30T15:39:25Z</time></trkpt><trkpt lat="42.99773293465909" lon="11.281567789214998"><ele>285.25</ele><time>2026-04-30T15:39:26Z</time></trkpt><trkpt lat="42.99784333518952" lon="11.281426033860233"><ele>285.0</ele><time>2026-04-30T15:39:27Z</time></trkpt><trkpt lat="42.99797908580118" lon="11.28132338791805"><ele>286.0</ele><time>2026-04-30T15:39:28Z</time></trkpt><trkpt lat="42.998130171536225" lon="11.281254967526012"><ele>287.0</ele><time>2026-04-30T15:39:29Z</time></trkpt><trkpt lat="42.99828088265432" lon="11.28119136295018"><ele>288.0</ele><time>2026-04-30T15:39:30Z</time></trkpt><trkpt lat="42.99841218237388" lon="11.281100433291094"><ele>288.0</ele><time>2026-04-30T15:39:31Z</time></trkpt><trkpt lat="42.99853104171159" lon="11.280970295527196"><ele>288.0</ele><time>2026-04-30T15:39:32Z</time></trkpt><trkpt lat="42.998635145380504" lon="11.280785910995094"><ele>288.0</ele><time>2026-04-30T15:39:33Z</time></trkpt><trkpt lat="42.99873482865734" lon="11.280538475312555"><ele>279.5</ele><time>2026-04-30T15:39:34Z</time></trkpt><trkpt lat="42.998829445005434" lon="11.280248779091984"><ele>271.0</ele><time>2026-04-30T15:39:35Z</time></trkpt><trkpt lat="42.998940231857496" lon="11.27994377186967"><ele>266.0</ele><time>2026-04-30T15:39:36Z</time></trkpt><trkpt lat="42.9990410485826" lon="11.279669954265763"><ele>261.0</ele><time>2026-04-30T15:39:37Z</time></trkpt><trkpt lat="42.99914236687728" lon="11.279410508859188"><ele>256.0</ele><time>2026-04-30T15:39:38Z</time></trkpt><trkpt lat="42.99924788055443" lon="11.279168011294487"><ele>263.3333333333333</ele><time>2026-04-30T15:39:39Z</time></trkpt><trkpt lat="42.99935108231795" lon="11.27892999614275"><ele>270.6666666666667</ele><time>2026-04-30T15:39:40Z</time></trkpt><trkpt lat="42.99943379720522" lon="11.278703028343458"><ele>278.0</ele><time>2026-04-30T15:39:41Z</time></trkpt><trkpt lat="42.99949914093216" lon="11.278472119114953"><ele>278.0</ele><time>2026-04-30T15:39:42Z</time></trkpt><trkpt lat="42.99952126333755" lon="11.278225207292522"><ele>278.0</ele><time>2026-04-30T15:39:43Z</time></trkpt><trkpt lat="42.99947944555294" lon="11.277953431432943"><ele>278.0</ele><time>2026-04-30T15:39:44Z</time></trkpt><trkpt lat="42.99940786325238" lon="11.27768419569115"><ele>276.33333333333337</ele><time>2026-04-30T15:39:45Z</time></trkpt><trkpt lat="42.999359119541964" lon="11.277439250180255"><ele>274.6666666666667</ele><time>2026-04-30T15:39:46Z</time></trkpt><trkpt lat="42.99936436871199" lon="11.277167785986908"><ele>273.0</ele><time>2026-04-30T15:39:47Z</time></trkpt><trkpt lat="42.99940724948997" lon="11.276913549243359"><ele>271.0</ele><time>2026-04-30T15:39:48Z</time></trkpt><trkpt lat="42.99949397985185" lon="11.276687330285469"><ele>269.0</ele><time>2026-04-30T15:39:49Z</time></trkpt><trkpt lat="42.99958554212562" lon="11.276494862797263"><ele>267.0</ele><time>2026-04-30T15:39:50Z</time></trkpt><trkpt lat="42.99964503477998" lon="11.276320056004844"><ele>267.0</ele><time>2026-04-30T15:39:51Z</time></trkpt><trkpt lat="42.99965888012497" lon="11.276142879378535"><ele>267.0</ele><time>2026-04-30T15:39:52Z</time></trkpt><trkpt lat="42.99961463372676" lon="11.275978442170185"><ele>267.0</ele><time>2026-04-30T15:39:53Z</time></trkpt><trkpt lat="42.999510613724865" lon="11.275851186811204"><ele>267.0</ele><time>2026-04-30T15:39:54Z</time></trkpt><trkpt lat="42.999380728242066" lon="11.275784213601735"><ele>267.0</ele><time>2026-04-30T15:39:55Z</time></trkpt><trkpt lat="42.99922181531293" lon="11.275705492283313"><ele>267.0</ele><time>2026-04-30T15:39:56Z</time></trkpt><trkpt lat="42.99905112326782" lon="11.275582872026394"><ele>267.0</ele><time>2026-04-30T15:39:57Z</time></trkpt><trkpt lat="42.99888095737263" lon="11.275414280227906"><ele>259.0</ele><time>2026-04-30T15:39:58Z</time></trkpt><trkpt lat="42.99871364669211" lon="11.275180731326381"><ele>251.0</ele><time>2026-04-30T15:39:59Z</time></trkpt><trkpt lat="42.99857271285839" lon="11.27495019039465"><ele>251.33333333333334</ele><time>2026-04-30T15:40:00Z</time></trkpt><trkpt lat="42.99844512998972" lon="11.274728637479512"><ele>251.66666666666669</ele><time>2026-04-30T15:40:01Z</time></trkpt><trkpt lat="42.99832022411627" lon="11.274522628448898"><ele>252.0</ele><time>2026-04-30T15:40:02Z</time></trkpt><trkpt lat="42.998216655312476" lon="11.274355876507032"><ele>247.5</ele><time>2026-04-30T15:40:03Z</time></trkpt><trkpt lat="42.998146860088575" lon="11.274223646013006"><ele>243.0</ele><time>2026-04-30T15:40:04Z</time></trkpt><trkpt lat="42.998116420584836" lon="11.27406428124843"><ele>238.5</ele><time>2026-04-30T15:40:05Z</time></trkpt><trkpt lat="42.99815634273181" lon="11.27386264963207"><ele>234.0</ele><time>2026-04-30T15:40:06Z</time></trkpt><trkpt lat="42.99825917137957" lon="11.273670471777049"><ele>237.33333333333331</ele><time>2026-04-30T15:40:07Z</time></trkpt><trkpt lat="42.998389823035346" lon="11.273502895324384"><ele>240.66666666666666</ele><time>2026-04-30T15:40:08Z</time></trkpt><trkpt lat="42.99849778885855" lon="11.273352233114421"><ele>244.0</ele><time>2026-04-30T15:40:09Z</time></trkpt><trkpt lat="42.99856765910575" lon="11.273172907233091"><ele>241.0</ele><time>2026-04-30T15:40:10Z</time></trkpt><trkpt lat="42.998594251885116" lon="11.272970512919777"><ele>238.0</ele><time>2026-04-30T15:40:11Z</time></trkpt><trkpt lat="42.9985560015659" lon="11.272768893487553"><ele>235.0</ele><time>2026-04-30T15:40:12Z</time></trkpt><trkpt lat="42.99854492451833" lon="11.272596535900188"><ele>232.0</ele><time>2026-04-30T15:40:13Z</time></trkpt><trkpt lat="42.99861593401358" lon="11.272441627975276"><ele>232.0</ele><time>2026-04-30T15:40:14Z</time></trkpt><trkpt lat="42.99876173596129" lon="11.272318224565911"><ele>232.0</ele><time>2026-04-30T15:40:15Z</time></trkpt><trkpt lat="42.99894978393651" lon="11.272224737481194"><ele>232.0</ele><time>2026-04-30T15:40:16Z</time></trkpt><trkpt lat="42.9991346877964" lon="11.272120915653785"><ele>230.66666666666666</ele><time>2026-04-30T15:40:17Z</time></trkpt><trkpt lat="42.999301740857184" lon="11.27202519776752"><ele>229.33333333333331</ele><time>2026-04-30T15:40:18Z</time></trkpt><trkpt lat="42.99945440233044" lon="11.27194030992341"><ele>228.0</ele><time>2026-04-30T15:40:19Z</time></trkpt><trkpt lat="42.999581086707096" lon="11.271868962211924"><ele>228.0</ele><time>2026-04-30T15:40:20Z</time></trkpt><trkpt lat="42.99967927712992" lon="11.271804962914606"><ele>228.0</ele><time>2026-04-30T15:40:21Z</time></trkpt><trkpt lat="42.999757036963814" lon="11.271704478420249"><ele>228.0</ele><time>2026-04-30T15:40:22Z</time></trkpt><trkpt lat="42.99978905973272" lon="11.27155341014669"><ele>228.0</ele><time>2026-04-30T15:40:23Z</time></trkpt><trkpt lat="42.99976421648255" lon="11.271398920971153"><ele>228.0</ele><time>2026-04-30T15:40:24Z</time></trkpt><trkpt lat="42.99967746831459" lon="11.27129282618629"><ele>230.0</ele><time>2026-04-30T15:40:25Z</time></trkpt><trkpt lat="42.999545081542195" lon="11.271221224110182"><ele>232.0</ele><time>2026-04-30T15:40:26Z</time></trkpt><trkpt lat="42.999374427297596" lon="11.271143103737169"><ele>234.0</ele><time>2026-04-30T15:40:27Z</time></trkpt><trkpt lat="42.99917927248224" lon="11.27105127132247"><ele>229.33333333333331</ele><time>2026-04-30T15:40:28Z</time></trkpt><trkpt lat="42.99897199714522" lon="11.270946611328958"><ele>224.66666666666666</ele><time>2026-04-30T15:40:29Z</time></trkpt><trkpt lat="42.9987666082339" lon="11.270837710952808"><ele>220.0</ele><time>2026-04-30T15:40:30Z</time></trkpt><trkpt lat="42.998570393661566" lon="11.270738544311799"><ele>220.0</ele><time>2026-04-30T15:40:31Z</time></trkpt><trkpt lat="42.99838213131566" lon="11.270644978283324"><ele>220.0</ele><time>2026-04-30T15:40:32Z</time></trkpt><trkpt lat="42.99820976014596" lon="11.270549102952275"><ele>220.0</ele><time>2026-04-30T15:40:33Z</time></trkpt><trkpt lat="42.99806559336129" lon="11.270467398878937"><ele>217.75</ele><time>2026-04-30T15:40:34Z</time></trkpt><trkpt lat="42.997943323592615" lon="11.270405502161287"><ele>215.5</ele><time>2026-04-30T15:40:35Z</time></trkpt><trkpt lat="42.997846112320836" lon="11.270307875400368"><ele>213.25</ele><time>2026-04-30T15:40:36Z</time></trkpt><trkpt lat="42.99778165921705" lon="11.270154450199232"><ele>211.0</ele><time>2026-04-30T15:40:37Z</time></trkpt><trkpt lat="42.99776756444899" lon="11.269963599852352"><ele>211.0</ele><time>2026-04-30T15:40:38Z</time></trkpt><trkpt lat="42.99781994626133" lon="11.269777376416195"><ele>211.0</ele><time>2026-04-30T15:40:39Z</time></trkpt><trkpt lat="42.99791545826906" lon="11.269600846460149"><ele>211.0</ele><time>2026-04-30T15:40:40Z</time></trkpt><trkpt lat="42.99802926784381" lon="11.269375477873034"><ele>205.5</ele><time>2026-04-30T15:40:41Z</time></trkpt><trkpt lat="42.99814669158875" lon="11.269107878642231"><ele>200.0</ele><time>2026-04-30T15:40:42Z</time></trkpt><trkpt lat="42.99828025642891" lon="11.2688184549669"><ele>198.0</ele><time>2026-04-30T15:40:43Z</time></trkpt><trkpt lat="42.99840395150549" lon="11.268548365385634"><ele>196.0</ele><time>2026-04-30T15:40:44Z</time></trkpt><trkpt lat="42.9985218161037" lon="11.268288198927294"><ele>191.0</ele><time>2026-04-30T15:40:45Z</time></trkpt><trkpt lat="42.998634194955244" lon="11.268042331942763"><ele>186.0</ele><time>2026-04-30T15:40:46Z</time></trkpt><trkpt lat="42.99873605071542" lon="11.26782117989626"><ele>181.0</ele><time>2026-04-30T15:40:47Z</time></trkpt><trkpt lat="42.99882826318703" lon="11.267622466767522"><ele>181.0</ele><time>2026-04-30T15:40:48Z</time></trkpt><trkpt lat="42.99890009422594" lon="11.267444155628247"><ele>181.0</ele><time>2026-04-30T15:40:49Z</time></trkpt><trkpt lat="42.99893553946042" lon="11.267272814344661"><ele>181.0</ele><time>2026-04-30T15:40:50Z</time></trkpt><trkpt lat="42.99892541108641" lon="11.267071847389811"><ele>181.0</ele><time>2026-04-30T15:40:51Z</time></trkpt><trkpt lat="42.99886995951925" lon="11.26687258792749"><ele>178.33333333333334</ele><time>2026-04-30T15:40:52Z</time></trkpt><trkpt lat="42.99877377415388" lon="11.26670505665559"><ele>175.66666666666666</ele><time>2026-04-30T15:40:53Z</time></trkpt><trkpt lat="42.99864623499262" lon="11.266554722144265"><ele>173.0</ele><time>2026-04-30T15:40:54Z</time></trkpt><trkpt lat="42.99854555272607" lon="11.266379880909215"><ele>170.66666666666666</ele><time>2026-04-30T15:40:55Z</time></trkpt><trkpt lat="42.99843947816723" lon="11.266196160530097"><ele>168.33333333333334</ele><time>2026-04-30T15:40:56Z</time></trkpt><trkpt lat="42.998334035584506" lon="11.265991404207139"><ele>166.0</ele><time>2026-04-30T15:40:57Z</time></trkpt><trkpt lat="42.99822084868185" lon="11.265790722752557"><ele>164.66666666666669</ele><time>2026-04-30T15:40:58Z</time></trkpt><trkpt lat="42.9981119703726" lon="11.265592378464355"><ele>163.33333333333334</ele><time>2026-04-30T15:40:59Z</time></trkpt><trkpt lat="42.99801384174654" lon="11.265393223961231"><ele>162.0</ele><time>2026-04-30T15:41:00Z</time></trkpt><trkpt lat="42.9979121589822" lon="11.265205881710012"><ele>162.0</ele><time>2026-04-30T15:41:01Z</time></trkpt><trkpt lat="42.997847640725595" lon="11.265005443873166"><ele>162.0</ele><time>2026-04-30T15:41:02Z</time></trkpt><trkpt lat="42.99779012198787" lon="11.26480836800596"><ele>162.0</ele><time>2026-04-30T15:41:03Z</time></trkpt><trkpt lat="42.99775406981824" lon="11.264624164068048"><ele>161.0</ele><time>2026-04-30T15:41:04Z</time></trkpt><trkpt lat="42.99771383910572" lon="11.264437621382989"><ele>160.0</ele><time>2026-04-30T15:41:05Z</time></trkpt><trkpt lat="42.997676844416766" lon="11.264258971787768"><ele>159.0</ele><time>2026-04-30T15:41:06Z</time></trkpt><trkpt lat="42.997644643198534" lon="11.264088436192674"><ele>158.0</ele><time>2026-04-30T15:41:07Z</time></trkpt><trkpt lat="42.99760166965033" lon="11.263924671293156"><ele>156.33333333333331</ele><time>2026-04-30T15:41:08Z</time></trkpt><trkpt lat="42.99754759748051" lon="11.263771041299286"><ele>154.66666666666666</ele><time>2026-04-30T15:41:09Z</time></trkpt><trkpt lat="42.997455810440684" lon="11.263553908998055"><ele>153.0</ele><time>2026-04-30T15:41:10Z</time></trkpt><trkpt lat="42.99734135571078" lon="11.26332277909123"><ele>153.33333333333334</ele><time>2026-04-30T15:41:11Z</time></trkpt><trkpt lat="42.99722478958789" lon="11.263117530140702"><ele>153.66666666666669</ele><time>2026-04-30T15:41:12Z</time></trkpt><trkpt lat="42.997114109571875" lon="11.262922524458403"><ele>154.0</ele><time>2026-04-30T15:41:13Z</time></trkpt><trkpt lat="42.99699390984142" lon="11.262728830953751"><ele>154.0</ele><time>2026-04-30T15:41:14Z</time></trkpt><trkpt lat="42.99689019527353" lon="11.262539525001491"><ele>154.0</ele><time>2026-04-30T15:41:15Z</time></trkpt><trkpt lat="42.996790441324286" lon="11.262365988019013"><ele>154.0</ele><time>2026-04-30T15:41:16Z</time></trkpt><trkpt lat="42.99670257387133" lon="11.26219206104164"><ele>154.66666666666669</ele><time>2026-04-30T15:41:17Z</time></trkpt><trkpt lat="42.996639354824765" lon="11.262000157761136"><ele>155.33333333333334</ele><time>2026-04-30T15:41:18Z</time></trkpt><trkpt lat="42.996602742509666" lon="11.261790080344014"><ele>156.0</ele><time>2026-04-30T15:41:19Z</time></trkpt><trkpt lat="42.996587511460625" lon="11.261572379655776"><ele>154.33333333333334</ele><time>2026-04-30T15:41:20Z</time></trkpt><trkpt lat="42.996584623150994" lon="11.261357346096506"><ele>152.66666666666669</ele><time>2026-04-30T15:41:21Z</time></trkpt><trkpt lat="42.996623289438034" lon="11.261134759789062"><ele>151.0</ele><time>2026-04-30T15:41:22Z</time></trkpt><trkpt lat="42.99664319794722" lon="11.260881493741904"><ele>147.5</ele><time>2026-04-30T15:41:23Z</time></trkpt><trkpt lat="42.9966783716559" lon="11.260568066707018"><ele>144.0</ele><time>2026-04-30T15:41:24Z</time></trkpt><trkpt lat="42.99673159751097" lon="11.260246225160964"><ele>144.0</ele><time>2026-04-30T15:41:25Z</time></trkpt><trkpt lat="42.99677589572116" lon="11.259883440603668"><ele>144.0</ele><time>2026-04-30T15:41:26Z</time></trkpt><trkpt lat="42.996823292167235" lon="11.259503974027373"><ele>141.5</ele><time>2026-04-30T15:41:27Z</time></trkpt><trkpt lat="42.99687312383372" lon="11.259105010671382"><ele>139.0</ele><time>2026-04-30T15:41:27.999Z</time></trkpt><trkpt lat="42.99692418260527" lon="11.25869363867508"><ele>137.0</ele><time>2026-04-30T15:41:28.999Z</time></trkpt><trkpt lat="42.996973092312416" lon="11.258296933095345"><ele>135.0</ele><time>2026-04-30T15:41:29.999Z</time></trkpt><trkpt lat="42.99700538725712" lon="11.257911094185564"><ele>135.0</ele><time>2026-04-30T15:41:30.999Z</time></trkpt><trkpt lat="42.997063165522235" lon="11.257553413566082"><ele>135.0</ele><time>2026-04-30T15:41:31.999Z</time></trkpt><trkpt lat="42.997105621654626" lon="11.257211127647444"><ele>134.66666666666666</ele><time>2026-04-30T15:41:32.999Z</time></trkpt><trkpt lat="42.997144913801634" lon="11.256898718341704"><ele>134.33333333333331</ele><time>2026-04-30T15:41:33.999Z</time></trkpt><trkpt lat="42.997163269106906" lon="11.256617160878015"><ele>134.0</ele><time>2026-04-30T15:41:34.999Z</time></trkpt><trkpt lat="42.99720467345078" lon="11.256324682537372"><ele>133.33333333333331</ele><time>2026-04-30T15:41:35.999Z</time></trkpt><trkpt lat="42.997246113304456" lon="11.2560302004115"><ele>132.66666666666666</ele><time>2026-04-30T15:41:36.999Z</time></trkpt><trkpt lat="42.99728345909712" lon="11.255736015293806"><ele>132.0</ele><time>2026-04-30T15:41:37.999Z</time></trkpt><trkpt lat="42.9973160363246" lon="11.25544574394465"><ele>131.33333333333334</ele><time>2026-04-30T15:41:38.999Z</time></trkpt><trkpt lat="42.997353959838684" lon="11.255153431764564"><ele>130.66666666666669</ele><time>2026-04-30T15:41:39.999Z</time></trkpt><trkpt lat="42.99738969341429" lon="11.254861952413995"><ele>130.0</ele><time>2026-04-30T15:41:40.999Z</time></trkpt><trkpt lat="42.99742835914652" lon="11.254574435236622"><ele>130.5</ele><time>2026-04-30T15:41:41.999Z</time></trkpt><trkpt lat="42.99746858548796" lon="11.254268088740375"><ele>131.0</ele><time>2026-04-30T15:41:42.999Z</time></trkpt><trkpt lat="42.997508459330064" lon="11.253946455810706"><ele>131.0</ele><time>2026-04-30T15:41:43.999Z</time></trkpt><trkpt lat="42.99755193354006" lon="11.253622990150712"><ele>131.0</ele><time>2026-04-30T15:41:45Z</time></trkpt><trkpt lat="42.997598823973284" lon="11.253303277202223"><ele>130.0</ele><time>2026-04-30T15:41:46Z</time></trkpt><trkpt lat="42.9976412444669" lon="11.25299577443976"><ele>129.0</ele><time>2026-04-30T15:41:47Z</time></trkpt><trkpt lat="42.997676845490815" lon="11.252692652804306"><ele>129.0</ele><time>2026-04-30T15:41:48Z</time></trkpt><trkpt lat="42.99771436661639" lon="11.252392510618552"><ele>129.0</ele><time>2026-04-30T15:41:49Z</time></trkpt><trkpt lat="42.99775237803192" lon="11.252084573211851"><ele>129.0</ele><time>2026-04-30T15:41:50Z</time></trkpt><trkpt lat="42.99779222870463" lon="11.251778109230537"><ele>129.0</ele><time>2026-04-30T15:41:51Z</time></trkpt><trkpt lat="42.997832710829876" lon="11.251479047415424"><ele>129.33333333333334</ele><time>2026-04-30T15:41:52Z</time></trkpt><trkpt lat="42.997868676247855" lon="11.251188199453138"><ele>129.66666666666669</ele><time>2026-04-30T15:41:53Z</time></trkpt><trkpt lat="42.99790728829296" lon="11.25089943966435"><ele>130.0</ele><time>2026-04-30T15:41:54Z</time></trkpt><trkpt lat="42.99794887538789" lon="11.250608464132362"><ele>130.0</ele><time>2026-04-30T15:41:55Z</time></trkpt><trkpt lat="42.99798816867064" lon="11.250313405458218"><ele>130.0</ele><time>2026-04-30T15:41:56Z</time></trkpt><trkpt lat="42.9980270609232" lon="11.250014456901866"><ele>130.0</ele><time>2026-04-30T15:41:57Z</time></trkpt><trkpt lat="42.998060589041614" lon="11.249713862303922"><ele>128.5</ele><time>2026-04-30T15:41:58Z</time></trkpt><trkpt lat="42.99809013229137" lon="11.249409484508977"><ele>127.0</ele><time>2026-04-30T15:41:59Z</time></trkpt><trkpt lat="42.99812571025566" lon="11.249104053283803"><ele>126.5</ele><time>2026-04-30T15:42:00Z</time></trkpt><trkpt lat="42.99816582260349" lon="11.248793647844408"><ele>126.0</ele><time>2026-04-30T15:42:01Z</time></trkpt><trkpt lat="42.9982049620004" lon="11.248483678209022"><ele>126.0</ele><time>2026-04-30T15:42:02Z</time></trkpt><trkpt lat="42.998245167856396" lon="11.248172774876316"><ele>126.0</ele><time>2026-04-30T15:42:03Z</time></trkpt><trkpt lat="42.99828650968094" lon="11.247861782137669"><ele>126.5</ele><time>2026-04-30T15:42:04Z</time></trkpt><trkpt lat="42.9983267428867" lon="11.247550080470134"><ele>127.0</ele><time>2026-04-30T15:42:05Z</time></trkpt><trkpt lat="42.99836827443418" lon="11.247246008331658"><ele>128.66666666666669</ele><time>2026-04-30T15:42:06Z</time></trkpt><trkpt lat="42.99840952832314" lon="11.246946285501942"><ele>130.33333333333334</ele><time>2026-04-30T15:42:07Z</time></trkpt><trkpt lat="42.998448368355135" lon="11.24665001147978"><ele>132.0</ele><time>2026-04-30T15:42:08Z</time></trkpt><trkpt lat="42.99848488853335" lon="11.246353308950077"><ele>132.66666666666666</ele><time>2026-04-30T15:42:09Z</time></trkpt><trkpt lat="42.99852158135188" lon="11.24605569485588"><ele>133.33333333333331</ele><time>2026-04-30T15:42:10Z</time></trkpt><trkpt lat="42.99856223570388" lon="11.24575747015422"><ele>134.0</ele><time>2026-04-30T15:42:11Z</time></trkpt><trkpt lat="42.99860103938666" lon="11.245456573730905"><ele>132.0</ele><time>2026-04-30T15:42:12Z</time></trkpt><trkpt lat="42.99864036394712" lon="11.245151702890617"><ele>130.0</ele><time>2026-04-30T15:42:13Z</time></trkpt><trkpt lat="42.99867804902293" lon="11.244845919321891"><ele>129.0</ele><time>2026-04-30T15:42:14Z</time></trkpt><trkpt lat="42.9987169293149" lon="11.244548327279487"><ele>128.0</ele><time>2026-04-30T15:42:15Z</time></trkpt><trkpt lat="42.99874593693067" lon="11.244252924248329"><ele>127.0</ele><time>2026-04-30T15:42:16Z</time></trkpt><trkpt lat="42.99877770079936" lon="11.24394090243809"><ele>125.0</ele><time>2026-04-30T15:42:17Z</time></trkpt><trkpt lat="42.99881657086164" lon="11.243616145929922"><ele>123.0</ele><time>2026-04-30T15:42:18Z</time></trkpt><trkpt lat="42.998856146135516" lon="11.243289974169508"><ele>122.0</ele><time>2026-04-30T15:42:19Z</time></trkpt><trkpt lat="42.99889989882766" lon="11.242938722469514"><ele>121.0</ele><time>2026-04-30T15:42:20Z</time></trkpt><trkpt lat="42.99894828315714" lon="11.242563266108682"><ele>121.5</ele><time>2026-04-30T15:42:21Z</time></trkpt><trkpt lat="42.9989991061021" lon="11.242166731197075"><ele>122.0</ele><time>2026-04-30T15:42:22Z</time></trkpt><trkpt lat="42.99905330061814" lon="11.241769390397687"><ele>122.0</ele><time>2026-04-30T15:42:23Z</time></trkpt><trkpt lat="42.99910530656662" lon="11.241370679666987"><ele>122.0</ele><time>2026-04-30T15:42:24Z</time></trkpt><trkpt lat="42.99915778449642" lon="11.240971602892525"><ele>122.5</ele><time>2026-04-30T15:42:25Z</time></trkpt><trkpt lat="42.999209819954906" lon="11.240578963876073"><ele>123.0</ele><time>2026-04-30T15:42:26Z</time></trkpt><trkpt lat="42.999260361736496" lon="11.24018635992368"><ele>122.0</ele><time>2026-04-30T15:42:27Z</time></trkpt><trkpt lat="42.99930792091989" lon="11.239794475870626"><ele>121.0</ele><time>2026-04-30T15:42:28Z</time></trkpt><trkpt lat="42.99935782567125" lon="11.239404297079266"><ele>121.0</ele><time>2026-04-30T15:42:29Z</time></trkpt><trkpt lat="42.9994086122901" lon="11.239016812338926"><ele>121.0</ele><time>2026-04-30T15:42:30Z</time></trkpt><trkpt lat="42.99945434848792" lon="11.238637655634266"><ele>121.5</ele><time>2026-04-30T15:42:31Z</time></trkpt><trkpt lat="42.999498994375315" lon="11.238261884989262"><ele>122.0</ele><time>2026-04-30T15:42:32Z</time></trkpt><trkpt lat="42.999543616133245" lon="11.237888845842486"><ele>123.5</ele><time>2026-04-30T15:42:33Z</time></trkpt><trkpt lat="42.99959103465693" lon="11.237519589711571"><ele>125.0</ele><time>2026-04-30T15:42:34Z</time></trkpt><trkpt lat="42.99963617049854" lon="11.23715447002581"><ele>126.5</ele><time>2026-04-30T15:42:35Z</time></trkpt><trkpt lat="42.99968287567449" lon="11.236793113085914"><ele>128.0</ele><time>2026-04-30T15:42:36Z</time></trkpt><trkpt lat="42.99973164506547" lon="11.2364332814447"><ele>130.0</ele><time>2026-04-30T15:42:37Z</time></trkpt><trkpt lat="42.999778222184005" lon="11.23607758266086"><ele>132.0</ele><time>2026-04-30T15:42:38Z</time></trkpt><trkpt lat="42.99982490395154" lon="11.235718818340041"><ele>132.0</ele><time>2026-04-30T15:42:39Z</time></trkpt><trkpt lat="42.999871364541335" lon="11.235356572790563"><ele>132.0</ele><time>2026-04-30T15:42:40Z</time></trkpt><trkpt lat="42.99991570725945" lon="11.234994328502232"><ele>133.0</ele><time>2026-04-30T15:42:41Z</time></trkpt><trkpt lat="42.99995862611284" lon="11.234631164458255"><ele>134.0</ele><time>2026-04-30T15:42:42Z</time></trkpt><trkpt lat="43.000001251643596" lon="11.234268637383144"><ele>136.0</ele><time>2026-04-30T15:42:43Z</time></trkpt><trkpt lat="43.00004617912827" lon="11.233911923007557"><ele>138.0</ele><time>2026-04-30T15:42:44Z</time></trkpt><trkpt lat="43.00009282676076" lon="11.233562469778354"><ele>138.0</ele><time>2026-04-30T15:42:45Z</time></trkpt><trkpt lat="43.000136642539985" lon="11.233219046526141"><ele>138.0</ele><time>2026-04-30T15:42:46Z</time></trkpt><trkpt lat="43.00017885038008" lon="11.232884710542518"><ele>139.0</ele><time>2026-04-30T15:42:47Z</time></trkpt><trkpt lat="43.00022405958883" lon="11.23255325079272"><ele>140.0</ele><time>2026-04-30T15:42:48Z</time></trkpt><trkpt lat="43.00026837296953" lon="11.23222225914089"><ele>140.0</ele><time>2026-04-30T15:42:49Z</time></trkpt><trkpt lat="43.000305122962324" lon="11.23189097058047"><ele>140.0</ele><time>2026-04-30T15:42:50Z</time></trkpt><trkpt lat="43.00034441013117" lon="11.231555924034874"><ele>139.5</ele><time>2026-04-30T15:42:51Z</time></trkpt><trkpt lat="43.00038459358236" lon="11.231219014664005"><ele>139.0</ele><time>2026-04-30T15:42:52Z</time></trkpt><trkpt lat="43.00042790908334" lon="11.230876436139507"><ele>138.5</ele><time>2026-04-30T15:42:53Z</time></trkpt><trkpt lat="43.000468037266955" lon="11.230538423632872"><ele>138.0</ele><time>2026-04-30T15:42:54Z</time></trkpt><trkpt lat="43.00050979008205" lon="11.230199497983076"><ele>138.0</ele><time>2026-04-30T15:42:55Z</time></trkpt><trkpt lat="43.000550927303244" lon="11.22986409837474"><ele>138.0</ele><time>2026-04-30T15:42:56Z</time></trkpt><trkpt lat="43.000589762698716" lon="11.229529578617178"><ele>138.0</ele><time>2026-04-30T15:42:57Z</time></trkpt><trkpt lat="43.00063553315015" lon="11.22920068998443"><ele>138.0</ele><time>2026-04-30T15:42:58Z</time></trkpt><trkpt lat="43.0006737922348" lon="11.228877125680999"><ele>138.0</ele><time>2026-04-30T15:42:59Z</time></trkpt><trkpt lat="43.00071254620322" lon="11.228568113493138"><ele>138.0</ele><time>2026-04-30T15:43:00Z</time></trkpt><trkpt lat="43.00075018123742" lon="11.228262972914761"><ele>136.5</ele><time>2026-04-30T15:43:01Z</time></trkpt><trkpt lat="43.000788464405574" lon="11.227958624836926"><ele>135.0</ele><time>2026-04-30T15:43:02Z</time></trkpt><trkpt lat="43.00082910707328" lon="11.227656123676422"><ele>135.0</ele><time>2026-04-30T15:43:03Z</time></trkpt><trkpt lat="43.00087393553338" lon="11.227349815652676"><ele>135.0</ele><time>2026-04-30T15:43:04Z</time></trkpt><trkpt lat="43.00091809147697" lon="11.227035289259673"><ele>135.0</ele><time>2026-04-30T15:43:05Z</time></trkpt><trkpt lat="43.000955963311576" lon="11.226712719000226"><ele>135.0</ele><time>2026-04-30T15:43:06Z</time></trkpt><trkpt lat="43.0009937932095" lon="11.22638680454394"><ele>133.0</ele><time>2026-04-30T15:43:07Z</time></trkpt><trkpt lat="43.00102946241554" lon="11.226060686092184"><ele>131.0</ele><time>2026-04-30T15:43:08Z</time></trkpt><trkpt lat="43.001066938392746" lon="11.225733080615925"><ele>130.0</ele><time>2026-04-30T15:43:09Z</time></trkpt><trkpt lat="43.001108610847986" lon="11.225403462256363"><ele>129.0</ele><time>2026-04-30T15:43:10Z</time></trkpt><trkpt lat="43.00115327334402" lon="11.225071701568751"><ele>129.0</ele><time>2026-04-30T15:43:11Z</time></trkpt><trkpt lat="43.00119674377591" lon="11.224737923633743"><ele>129.0</ele><time>2026-04-30T15:43:12Z</time></trkpt><trkpt lat="43.00123868186198" lon="11.224404540290807"><ele>129.0</ele><time>2026-04-30T15:43:13Z</time></trkpt><trkpt lat="43.001278120232385" lon="11.224071777476581"><ele>129.0</ele><time>2026-04-30T15:43:14Z</time></trkpt><trkpt lat="43.00132099150171" lon="11.22373780128569"><ele>129.5</ele><time>2026-04-30T15:43:15Z</time></trkpt><trkpt lat="43.001363352143585" lon="11.223397533496932"><ele>130.0</ele><time>2026-04-30T15:43:16Z</time></trkpt><trkpt lat="43.00140363861028" lon="11.22305721390682"><ele>130.0</ele><time>2026-04-30T15:43:17Z</time></trkpt><trkpt lat="43.00144179873624" lon="11.222742891251679"><ele>130.0</ele><time>2026-04-30T15:43:18Z</time></trkpt><trkpt lat="43.00148204350688" lon="11.222447397591747"><ele>129.66666666666669</ele><time>2026-04-30T15:43:19Z</time></trkpt><trkpt lat="43.00151734049271" lon="11.222168607469747"><ele>129.33333333333334</ele><time>2026-04-30T15:43:20Z</time></trkpt><trkpt lat="43.0015552986639" lon="11.221872974020599"><ele>129.0</ele><time>2026-04-30T15:43:21Z</time></trkpt><trkpt lat="43.00159964801089" lon="11.221542617801758"><ele>129.0</ele><time>2026-04-30T15:43:22Z</time></trkpt><trkpt lat="43.001642560779736" lon="11.221216116226586"><ele>129.0</ele><time>2026-04-30T15:43:23Z</time></trkpt><trkpt lat="43.00168339990128" lon="11.22088667116089"><ele>129.0</ele><time>2026-04-30T15:43:24Z</time></trkpt><trkpt lat="43.00172257489228" lon="11.220560917424342"><ele>129.0</ele><time>2026-04-30T15:43:25Z</time></trkpt><trkpt lat="43.001762179390695" lon="11.220234900568682"><ele>129.0</ele><time>2026-04-30T15:43:26Z</time></trkpt><trkpt lat="43.00179815455295" lon="11.21991506201341"><ele>129.0</ele><time>2026-04-30T15:43:27Z</time></trkpt><trkpt lat="43.00183784192582" lon="11.21959413691309"><ele>129.5</ele><time>2026-04-30T15:43:28Z</time></trkpt><trkpt lat="43.00188070132326" lon="11.219272418641436"><ele>130.0</ele><time>2026-04-30T15:43:29Z</time></trkpt><trkpt lat="43.001923646698685" lon="11.218951328604156"><ele>130.0</ele><time>2026-04-30T15:43:30Z</time></trkpt><trkpt lat="43.00196366475017" lon="11.218630118293925"><ele>130.0</ele><time>2026-04-30T15:43:31Z</time></trkpt><trkpt lat="43.00200373131004" lon="11.218308029406932"><ele>130.5</ele><time>2026-04-30T15:43:32Z</time></trkpt><trkpt lat="43.00204371419682" lon="11.217989118794124"><ele>131.0</ele><time>2026-04-30T15:43:33Z</time></trkpt><trkpt lat="43.00208120467058" lon="11.217672515202567"><ele>131.0</ele><time>2026-04-30T15:43:34Z</time></trkpt><trkpt lat="43.002114981313845" lon="11.217356134344366"><ele>131.0</ele><time>2026-04-30T15:43:35Z</time></trkpt><trkpt lat="43.00214969095784" lon="11.217045593947796"><ele>131.5</ele><time>2026-04-30T15:43:36Z</time></trkpt><trkpt lat="43.002190730400834" lon="11.21672186630694"><ele>132.0</ele><time>2026-04-30T15:43:37Z</time></trkpt><trkpt lat="43.00223540645495" lon="11.216384633883667"><ele>132.0</ele><time>2026-04-30T15:43:38Z</time></trkpt><trkpt lat="43.002279758200324" lon="11.216041421955259"><ele>132.0</ele><time>2026-04-30T15:43:39Z</time></trkpt><trkpt lat="43.002325035803935" lon="11.215692199248078"><ele>132.0</ele><time>2026-04-30T15:43:40Z</time></trkpt><trkpt lat="43.00236971856216" lon="11.21534940650349"><ele>132.0</ele><time>2026-04-30T15:43:41Z</time></trkpt><trkpt lat="43.00241378091185" lon="11.21500691441298"><ele>132.0</ele><time>2026-04-30T15:43:42Z</time></trkpt><trkpt lat="43.00245620007539" lon="11.214668783081569"><ele>132.0</ele><time>2026-04-30T15:43:43Z</time></trkpt><trkpt lat="43.002496744366894" lon="11.214337610402573"><ele>132.5</ele><time>2026-04-30T15:43:44Z</time></trkpt><trkpt lat="43.00253822189359" lon="11.21400327802911"><ele>133.0</ele><time>2026-04-30T15:43:45Z</time></trkpt><trkpt lat="43.002580315835715" lon="11.213670390364092"><ele>134.5</ele><time>2026-04-30T15:43:46Z</time></trkpt><trkpt lat="43.00261953247562" lon="11.213343163155786"><ele>136.0</ele><time>2026-04-30T15:43:47Z</time></trkpt><trkpt lat="43.002660129926696" lon="11.213015860188028"><ele>136.0</ele><time>2026-04-30T15:43:48Z</time></trkpt><trkpt lat="43.00270245048565" lon="11.212691131795587"><ele>136.0</ele><time>2026-04-30T15:43:49Z</time></trkpt><trkpt lat="43.00274479694203" lon="11.212365066804502"><ele>136.0</ele><time>2026-04-30T15:43:50Z</time></trkpt><trkpt lat="43.00278658229761" lon="11.21203599259355"><ele>136.0</ele><time>2026-04-30T15:43:51Z</time></trkpt><trkpt lat="43.002827597084135" lon="11.211703709623462"><ele>136.0</ele><time>2026-04-30T15:43:52Z</time></trkpt><trkpt lat="43.00286608502603" lon="11.211374949114974"><ele>136.0</ele><time>2026-04-30T15:43:53Z</time></trkpt><trkpt lat="43.00290605882366" lon="11.211047844421778"><ele>136.0</ele><time>2026-04-30T15:43:54Z</time></trkpt><trkpt lat="43.002944819031995" lon="11.21072517527107"><ele>136.0</ele><time>2026-04-30T15:43:55Z</time></trkpt><trkpt lat="43.00298579347938" lon="11.210400754172328"><ele>135.5</ele><time>2026-04-30T15:43:56Z</time></trkpt><trkpt lat="43.003028383015604" lon="11.210081153112887"><ele>135.0</ele><time>2026-04-30T15:43:57Z</time></trkpt><trkpt lat="43.0030709777423" lon="11.209761345803415"><ele>137.0</ele><time>2026-04-30T15:43:58Z</time></trkpt><trkpt lat="43.0031123048499" lon="11.209438987700128"><ele>139.0</ele><time>2026-04-30T15:43:59Z</time></trkpt><trkpt lat="43.00315367113281" lon="11.209108393432157"><ele>140.5</ele><time>2026-04-30T15:44:00Z</time></trkpt><trkpt lat="43.00319900216101" lon="11.208756050265311"><ele>142.0</ele><time>2026-04-30T15:44:01Z</time></trkpt><trkpt lat="43.00324685397526" lon="11.20837894812744"><ele>143.5</ele><time>2026-04-30T15:44:02Z</time></trkpt><trkpt lat="43.00329306079874" lon="11.20798572004221"><ele>145.0</ele><time>2026-04-30T15:44:03Z</time></trkpt><trkpt lat="43.00334113676938" lon="11.207571889793918"><ele>146.5</ele><time>2026-04-30T15:44:04Z</time></trkpt><trkpt lat="43.003387602858176" lon="11.207157660316579"><ele>148.0</ele><time>2026-04-30T15:44:05Z</time></trkpt><trkpt lat="43.003433461343064" lon="11.206716923437538"><ele>150.5</ele><time>2026-04-30T15:44:06Z</time></trkpt><trkpt lat="43.00350252090004" lon="11.206269315314044"><ele>153.0</ele><time>2026-04-30T15:44:07Z</time></trkpt><trkpt lat="43.00355717671893" lon="11.205829470082598"><ele>157.0</ele><time>2026-04-30T15:44:08Z</time></trkpt><trkpt lat="43.00360893987414" lon="11.205412903797344"><ele>161.0</ele><time>2026-04-30T15:44:09Z</time></trkpt><trkpt lat="43.00365101182103" lon="11.205018015975737"><ele>163.5</ele><time>2026-04-30T15:44:10Z</time></trkpt><trkpt lat="43.00370991364816" lon="11.204643729100459"><ele>166.0</ele><time>2026-04-30T15:44:11Z</time></trkpt><trkpt lat="43.00376223831267" lon="11.204279188820292"><ele>169.5</ele><time>2026-04-30T15:44:12Z</time></trkpt><trkpt lat="43.00380697419478" lon="11.203935783841784"><ele>173.0</ele><time>2026-04-30T15:44:13Z</time></trkpt><trkpt lat="43.00384141013718" lon="11.20361218050714"><ele>173.0</ele><time>2026-04-30T15:44:14Z</time></trkpt><trkpt lat="43.003876767031436" lon="11.203301609725655"><ele>173.0</ele><time>2026-04-30T15:44:15Z</time></trkpt><trkpt lat="43.00391753357097" lon="11.203023024073115"><ele>173.0</ele><time>2026-04-30T15:44:16Z</time></trkpt><trkpt lat="43.00395356506799" lon="11.20276181749885"><ele>173.66666666666666</ele><time>2026-04-30T15:44:17Z</time></trkpt><trkpt lat="43.0039761905329" lon="11.202518360780145"><ele>174.33333333333334</ele><time>2026-04-30T15:44:18Z</time></trkpt><trkpt lat="43.00397329730049" lon="11.202260031903743"><ele>175.0</ele><time>2026-04-30T15:44:19Z</time></trkpt><trkpt lat="43.003922601205595" lon="11.20197290046715"><ele>175.0</ele><time>2026-04-30T15:44:20Z</time></trkpt><trkpt lat="43.003848880887695" lon="11.20168190254616"><ele>175.0</ele><time>2026-04-30T15:44:21Z</time></trkpt><trkpt lat="43.00376952759086" lon="11.201360151350125"><ele>175.0</ele><time>2026-04-30T15:44:22Z</time></trkpt><trkpt lat="43.00368734664063" lon="11.201082628779083"><ele>175.0</ele><time>2026-04-30T15:44:23Z</time></trkpt><trkpt lat="43.00360775975493" lon="11.200819386140065"><ele>175.0</ele><time>2026-04-30T15:44:24Z</time></trkpt><trkpt lat="43.00351244965048" lon="11.200563117888262"><ele>176.0</ele><time>2026-04-30T15:44:25Z</time></trkpt><trkpt lat="43.00338542039244" lon="11.200330545323357"><ele>177.0</ele><time>2026-04-30T15:44:26Z</time></trkpt><trkpt lat="43.003234289604414" lon="11.200106316879332"><ele>178.0</ele><time>2026-04-30T15:44:27Z</time></trkpt><trkpt lat="43.00307064661323" lon="11.199896151937894"><ele>181.33333333333334</ele><time>2026-04-30T15:44:28Z</time></trkpt><trkpt lat="43.00289190772819" lon="11.199721729440057"><ele>184.66666666666666</ele><time>2026-04-30T15:44:29Z</time></trkpt><trkpt lat="43.002706809790666" lon="11.19955767339605"><ele>188.0</ele><time>2026-04-30T15:44:30Z</time></trkpt><trkpt lat="43.00251017536299" lon="11.199400332941424"><ele>187.66666666666666</ele><time>2026-04-30T15:44:31Z</time></trkpt><trkpt lat="43.002339935742505" lon="11.199242744621452"><ele>187.33333333333334</ele><time>2026-04-30T15:44:32Z</time></trkpt><trkpt lat="43.002192713556084" lon="11.19905282616784"><ele>187.0</ele><time>2026-04-30T15:44:33Z</time></trkpt><trkpt lat="43.002072087028246" lon="11.198818226715687"><ele>189.5</ele><time>2026-04-30T15:44:34Z</time></trkpt><trkpt lat="43.00196675232076" lon="11.198544365211102"><ele>192.0</ele><time>2026-04-30T15:44:35Z</time></trkpt><trkpt lat="43.00188986170319" lon="11.198251175517203"><ele>193.5</ele><time>2026-04-30T15:44:36Z</time></trkpt><trkpt lat="43.00184906073781" lon="11.197942095422238"><ele>195.0</ele><time>2026-04-30T15:44:37Z</time></trkpt><trkpt lat="43.00184865908889" lon="11.197623550502334"><ele>196.5</ele><time>2026-04-30T15:44:38Z</time></trkpt><trkpt lat="43.00188445550813" lon="11.197292886117303"><ele>198.0</ele><time>2026-04-30T15:44:39Z</time></trkpt><trkpt lat="43.001934274347036" lon="11.19694201063283"><ele>198.0</ele><time>2026-04-30T15:44:40Z</time></trkpt><trkpt lat="43.001979932545765" lon="11.196577342153816"><ele>198.0</ele><time>2026-04-30T15:44:41Z</time></trkpt><trkpt lat="43.00202550163481" lon="11.19619380591998"><ele>199.0</ele><time>2026-04-30T15:44:42Z</time></trkpt><trkpt lat="43.00207420905604" lon="11.195819394200724"><ele>200.0</ele><time>2026-04-30T15:44:43Z</time></trkpt><trkpt lat="43.002123325694" lon="11.195452118828914"><ele>202.5</ele><time>2026-04-30T15:44:44Z</time></trkpt><trkpt lat="43.00216899024344" lon="11.195091302526507"><ele>205.0</ele><time>2026-04-30T15:44:45Z</time></trkpt><trkpt lat="43.00221134892723" lon="11.19473700642798"><ele>206.5</ele><time>2026-04-30T15:44:46Z</time></trkpt><trkpt lat="43.002254170367685" lon="11.194388705282925"><ele>208.0</ele><time>2026-04-30T15:44:47Z</time></trkpt><trkpt lat="43.00229846345975" lon="11.194045161082569"><ele>207.5</ele><time>2026-04-30T15:44:48Z</time></trkpt><trkpt lat="43.00234201287944" lon="11.193687320187184"><ele>207.0</ele><time>2026-04-30T15:44:49Z</time></trkpt><trkpt lat="43.00238394630696" lon="11.193352678619942"><ele>205.0</ele><time>2026-04-30T15:44:50Z</time></trkpt><trkpt lat="43.002422053889006" lon="11.193035905081311"><ele>203.0</ele><time>2026-04-30T15:44:51Z</time></trkpt><trkpt lat="43.00247053644202" lon="11.192712117273478"><ele>212.0</ele><time>2026-04-30T15:44:52Z</time></trkpt><trkpt lat="43.002546113919365" lon="11.192408234946962"><ele>221.0</ele><time>2026-04-30T15:44:53Z</time></trkpt><trkpt lat="43.002661248156215" lon="11.192133003188983"><ele>221.0</ele><time>2026-04-30T15:44:54Z</time></trkpt><trkpt lat="43.002810949085436" lon="11.191856933220377"><ele>221.0</ele><time>2026-04-30T15:44:55Z</time></trkpt><trkpt lat="43.00297514523599" lon="11.191575565443793"><ele>221.5</ele><time>2026-04-30T15:44:56Z</time></trkpt><trkpt lat="43.00314816551739" lon="11.191285114412072"><ele>222.0</ele><time>2026-04-30T15:44:57Z</time></trkpt><trkpt lat="43.003317942608824" lon="11.190987597925771"><ele>228.5</ele><time>2026-04-30T15:44:58Z</time></trkpt><trkpt lat="43.00348471822284" lon="11.190695066087322"><ele>235.0</ele><time>2026-04-30T15:44:59Z</time></trkpt><trkpt lat="43.00364615696613" lon="11.190413069539897"><ele>235.0</ele><time>2026-04-30T15:45:00Z</time></trkpt><trkpt lat="43.00380839358427" lon="11.190136120115387"><ele>235.0</ele><time>2026-04-30T15:45:01Z</time></trkpt><trkpt lat="43.00396865999017" lon="11.189858318629177"><ele>237.5</ele><time>2026-04-30T15:45:02Z</time></trkpt><trkpt lat="43.00413034980766" lon="11.18958193332012"><ele>240.0</ele><time>2026-04-30T15:45:03Z</time></trkpt><trkpt lat="43.00428606004724" lon="11.189304874663238"><ele>245.0</ele><time>2026-04-30T15:45:04Z</time></trkpt><trkpt lat="43.00443925706714" lon="11.18903522525978"><ele>250.0</ele><time>2026-04-30T15:45:05Z</time></trkpt><trkpt lat="43.00458985169433" lon="11.188773950337493"><ele>250.0</ele><time>2026-04-30T15:45:06Z</time></trkpt><trkpt lat="43.00474256453068" lon="11.188516009945015"><ele>250.0</ele><time>2026-04-30T15:45:07Z</time></trkpt><trkpt lat="43.004888733628846" lon="11.188262740946358"><ele>252.0</ele><time>2026-04-30T15:45:08Z</time></trkpt><trkpt lat="43.00502709388505" lon="11.188017797061585"><ele>254.0</ele><time>2026-04-30T15:45:09Z</time></trkpt><trkpt lat="43.005165710493564" lon="11.187772276632797"><ele>254.0</ele><time>2026-04-30T15:45:10Z</time></trkpt><trkpt lat="43.00531235841039" lon="11.187539113708226"><ele>254.0</ele><time>2026-04-30T15:45:11Z</time></trkpt><trkpt lat="43.0054623029192" lon="11.187316219833317"><ele>254.0</ele><time>2026-04-30T15:45:12Z</time></trkpt><trkpt lat="43.00561171390473" lon="11.187101351470636"><ele>254.33333333333334</ele><time>2026-04-30T15:45:13Z</time></trkpt><trkpt lat="43.00575926736413" lon="11.186888016437495"><ele>254.66666666666669</ele><time>2026-04-30T15:45:14Z</time></trkpt><trkpt lat="43.005908923072994" lon="11.18666434962674"><ele>255.0</ele><time>2026-04-30T15:45:15Z</time></trkpt><trkpt lat="43.006051140248616" lon="11.186462648007394"><ele>257.3333333333333</ele><time>2026-04-30T15:45:16Z</time></trkpt><trkpt lat="43.00620515113033" lon="11.186291818570709"><ele>259.66666666666663</ele><time>2026-04-30T15:45:17Z</time></trkpt><trkpt lat="43.00638646741273" lon="11.186121040061764"><ele>262.0</ele><time>2026-04-30T15:45:18Z</time></trkpt><trkpt lat="43.00658709779483" lon="11.185959828391278"><ele>266.5</ele><time>2026-04-30T15:45:19Z</time></trkpt><trkpt lat="43.00679097364688" lon="11.185806125494887"><ele>271.0</ele><time>2026-04-30T15:45:20Z</time></trkpt><trkpt lat="43.00699497751031" lon="11.185647841682295"><ele>272.5</ele><time>2026-04-30T15:45:21Z</time></trkpt><trkpt lat="43.00719514371537" lon="11.185493726005589"><ele>274.0</ele><time>2026-04-30T15:45:22Z</time></trkpt><trkpt lat="43.00738867648914" lon="11.185346084049177"><ele>274.66666666666663</ele><time>2026-04-30T15:45:23Z</time></trkpt><trkpt lat="43.007569458587675" lon="11.18521252546402"><ele>275.3333333333333</ele><time>2026-04-30T15:45:24.001Z</time></trkpt><trkpt lat="43.00773062403392" lon="11.185090224491704"><ele>276.0</ele><time>2026-04-30T15:45:25.001Z</time></trkpt><trkpt lat="43.00787864124181" lon="11.184972277534477"><ele>276.0</ele><time>2026-04-30T15:45:26.001Z</time></trkpt><trkpt lat="43.008005740144775" lon="11.184867780941302"><ele>276.0</ele><time>2026-04-30T15:45:27.001Z</time></trkpt><trkpt lat="43.00811193157842" lon="11.184741031173807"><ele>276.0</ele><time>2026-04-30T15:45:28.001Z</time></trkpt><trkpt lat="43.00817870947796" lon="11.184567655416355"><ele>276.0</ele><time>2026-04-30T15:45:29.001Z</time></trkpt><trkpt lat="43.00819883442148" lon="11.18437213498409"><ele>278.25</ele><time>2026-04-30T15:45:30.001Z</time></trkpt><trkpt lat="43.008166637582555" lon="11.184179851280945"><ele>280.5</ele><time>2026-04-30T15:45:31.001Z</time></trkpt><trkpt lat="43.00808380716958" lon="11.184007056599748"><ele>282.75</ele><time>2026-04-30T15:45:32.001Z</time></trkpt><trkpt lat="43.00796083885526" lon="11.183887058711996"><ele>285.0</ele><time>2026-04-30T15:45:33.001Z</time></trkpt><trkpt lat="43.007816627518594" lon="11.183834193257601"><ele>293.0</ele><time>2026-04-30T15:45:34.001Z</time></trkpt><trkpt lat="43.00765780761336" lon="11.183846181048315"><ele>301.0</ele><time>2026-04-30T15:45:35.001Z</time></trkpt><trkpt lat="43.0074799516216" lon="11.183895177119188"><ele>309.0</ele><time>2026-04-30T15:45:36.001Z</time></trkpt><trkpt lat="43.00729055019494" lon="11.183939120067155"><ele>309.3333333333333</ele><time>2026-04-30T15:45:37.001Z</time></trkpt><trkpt lat="43.007109504239324" lon="11.183970601427056"><ele>309.66666666666663</ele><time>2026-04-30T15:45:38.001Z</time></trkpt><trkpt lat="43.00692278562058" lon="11.183970034353672"><ele>310.0</ele><time>2026-04-30T15:45:39.001Z</time></trkpt><trkpt lat="43.00674302237415" lon="11.183911450503926"><ele>307.0</ele><time>2026-04-30T15:45:40Z</time></trkpt><trkpt lat="43.00656109845374" lon="11.183810962049966"><ele>304.0</ele><time>2026-04-30T15:45:41Z</time></trkpt><trkpt lat="43.0063771064049" lon="11.183684817569787"><ele>301.0</ele><time>2026-04-30T15:45:42Z</time></trkpt><trkpt lat="43.00620726440001" lon="11.18356936973439"><ele>301.0</ele><time>2026-04-30T15:45:43Z</time></trkpt><trkpt lat="43.00604589418708" lon="11.183441755771286"><ele>301.0</ele><time>2026-04-30T15:45:44Z</time></trkpt><trkpt lat="43.00589468943234" lon="11.18329619851206"><ele>301.0</ele><time>2026-04-30T15:45:45Z</time></trkpt><trkpt lat="43.005757913416765" lon="11.183090509294962"><ele>304.3333333333333</ele><time>2026-04-30T15:45:46Z</time></trkpt><trkpt lat="43.00563355554617" lon="11.18285515594668"><ele>307.6666666666667</ele><time>2026-04-30T15:45:47Z</time></trkpt><trkpt lat="43.005502607241944" lon="11.182616475667121"><ele>311.0</ele><time>2026-04-30T15:45:48Z</time></trkpt><trkpt lat="43.00536883363338" lon="11.182364063780318"><ele>315.5</ele><time>2026-04-30T15:45:49Z</time></trkpt><trkpt lat="43.00522738173285" lon="11.182085127974172"><ele>320.0</ele><time>2026-04-30T15:45:50Z</time></trkpt><trkpt lat="43.005075115876636" lon="11.181794996422171"><ele>320.5</ele><time>2026-04-30T15:45:51Z</time></trkpt><trkpt lat="43.004917703050005" lon="11.181490825873489"><ele>321.0</ele><time>2026-04-30T15:45:52Z</time></trkpt><trkpt lat="43.00476341564905" lon="11.181198020105802"><ele>321.0</ele><time>2026-04-30T15:45:53Z</time></trkpt><trkpt lat="43.00460270201394" lon="11.180888574877518"><ele>321.0</ele><time>2026-04-30T15:45:54Z</time></trkpt><trkpt lat="43.00443778437933" lon="11.180579729220291"><ele>324.0</ele><time>2026-04-30T15:45:55Z</time></trkpt><trkpt lat="43.00427903841921" lon="11.180272801113457"><ele>327.0</ele><time>2026-04-30T15:45:56Z</time></trkpt><trkpt lat="43.0041278865656" lon="11.179976913480942"><ele>330.5</ele><time>2026-04-30T15:45:57Z</time></trkpt><trkpt lat="43.00397772842512" lon="11.179686190538394"><ele>334.0</ele><time>2026-04-30T15:45:58Z</time></trkpt><trkpt lat="43.00382852401558" lon="11.179407535248188"><ele>334.0</ele><time>2026-04-30T15:45:59Z</time></trkpt><trkpt lat="43.00366681564181" lon="11.179143659380955"><ele>334.0</ele><time>2026-04-30T15:46:00Z</time></trkpt><trkpt lat="43.00350378263646" lon="11.178913868022889"><ele>339.5</ele><time>2026-04-30T15:46:01Z</time></trkpt><trkpt lat="43.00331693908385" lon="11.178721636818418"><ele>345.0</ele><time>2026-04-30T15:46:02Z</time></trkpt><trkpt lat="43.00309923367448" lon="11.178560768208296"><ele>345.0</ele><time>2026-04-30T15:46:03Z</time></trkpt><trkpt lat="43.00288604100082" lon="11.178445608438953"><ele>345.0</ele><time>2026-04-30T15:46:04Z</time></trkpt><trkpt lat="43.00268440594763" lon="11.178335415784522"><ele>345.0</ele><time>2026-04-30T15:46:05Z</time></trkpt><trkpt lat="43.002484559727606" lon="11.17818212297917"><ele>346.5</ele><time>2026-04-30T15:46:06Z</time></trkpt><trkpt lat="43.00228762274663" lon="11.177980148092853"><ele>348.0</ele><time>2026-04-30T15:46:07Z</time></trkpt><trkpt lat="43.00210202275675" lon="11.17776364807016"><ele>348.0</ele><time>2026-04-30T15:46:08Z</time></trkpt><trkpt lat="43.00193792002853" lon="11.177563865304874"><ele>348.0</ele><time>2026-04-30T15:46:09Z</time></trkpt><trkpt lat="43.001786863497856" lon="11.177381416794676"><ele>348.0</ele><time>2026-04-30T15:46:10Z</time></trkpt><trkpt lat="43.00164357165821" lon="11.177204314130746"><ele>351.6666666666667</ele><time>2026-04-30T15:46:11Z</time></trkpt><trkpt lat="43.001504109217294" lon="11.177027724815682"><ele>355.33333333333337</ele><time>2026-04-30T15:46:12Z</time></trkpt><trkpt lat="43.00136388930796" lon="11.176857237764796"><ele>359.0</ele><time>2026-04-30T15:46:13Z</time></trkpt><trkpt lat="43.00122140789633" lon="11.176688644632117"><ele>361.33333333333337</ele><time>2026-04-30T15:46:14Z</time></trkpt><trkpt lat="43.001077320320995" lon="11.176515768951125"><ele>363.6666666666667</ele><time>2026-04-30T15:46:15Z</time></trkpt><trkpt lat="43.00095032721268" lon="11.176356763037479"><ele>366.0</ele><time>2026-04-30T15:46:16Z</time></trkpt><trkpt lat="43.000831567823255" lon="11.176197889590902"><ele>366.0</ele><time>2026-04-30T15:46:17Z</time></trkpt><trkpt lat="43.00073519318616" lon="11.175999040041972"><ele>366.0</ele><time>2026-04-30T15:46:18Z</time></trkpt><trkpt lat="43.000649889138835" lon="11.175781590753052"><ele>366.0</ele><time>2026-04-30T15:46:19Z</time></trkpt><trkpt lat="43.00057275794202" lon="11.175511684464082"><ele>368.3333333333333</ele><time>2026-04-30T15:46:20Z</time></trkpt><trkpt lat="43.000507274879396" lon="11.175237574297123"><ele>370.66666666666663</ele><time>2026-04-30T15:46:21Z</time></trkpt><trkpt lat="43.00045282336728" lon="11.174993701283647"><ele>373.0</ele><time>2026-04-30T15:46:22Z</time></trkpt><trkpt lat="43.00040094477923" lon="11.174763548140811"><ele>376.0</ele><time>2026-04-30T15:46:23Z</time></trkpt><trkpt lat="43.00035731070521" lon="11.174551435481485"><ele>379.0</ele><time>2026-04-30T15:46:24Z</time></trkpt><trkpt lat="43.00031181413957" lon="11.174348102196436"><ele>382.0</ele><time>2026-04-30T15:46:25Z</time></trkpt><trkpt lat="43.00026890553734" lon="11.174163902539574"><ele>382.40000000000003</ele><time>2026-04-30T15:46:26Z</time></trkpt><trkpt lat="43.000231881064245" lon="11.173994006722305"><ele>382.8</ele><time>2026-04-30T15:46:27Z</time></trkpt><trkpt lat="43.00020792245892" lon="11.17385348071472"><ele>383.2</ele><time>2026-04-30T15:46:28Z</time></trkpt><trkpt lat="43.00019726124711" lon="11.173730965875837"><ele>383.6</ele><time>2026-04-30T15:46:29Z</time></trkpt><trkpt lat="43.000207815948045" lon="11.17362755623599"><ele>384.0</ele><time>2026-04-30T15:46:30Z</time></trkpt><trkpt lat="43.00024117933924" lon="11.173554025074873"><ele>384.0</ele><time>2026-04-30T15:46:31Z</time></trkpt><trkpt lat="43.00029574154511" lon="11.173430993937501"><ele>384.0</ele><time>2026-04-30T15:46:33Z</time></trkpt><trkpt lat="43.000350656272246" lon="11.173334987189776"><ele>384.0</ele><time>2026-04-30T15:46:35Z</time></trkpt><trkpt lat="43.0003895644638" lon="11.173259135410964"><ele>384.0</ele><time>2026-04-30T15:46:37Z</time></trkpt><trkpt lat="43.000469012437485" lon="11.173087780243584"><ele>384.0</ele><time>2026-04-30T15:46:39Z</time></trkpt><trkpt lat="43.00052641583839" lon="11.172953165555711"><ele>380.6666666666667</ele><time>2026-04-30T15:46:40Z</time></trkpt><trkpt lat="43.0006052848015" lon="11.172772946406763"><ele>377.33333333333337</ele><time>2026-04-30T15:46:41Z</time></trkpt><trkpt lat="43.000690104245656" lon="11.172582879590239"><ele>374.0</ele><time>2026-04-30T15:46:42Z</time></trkpt><trkpt lat="43.00078571699616" lon="11.172375231906202"><ele>373.33333333333337</ele><time>2026-04-30T15:46:43Z</time></trkpt><trkpt lat="43.000886118471534" lon="11.172158379217926"><ele>372.6666666666667</ele><time>2026-04-30T15:46:44Z</time></trkpt><trkpt lat="43.000981787055544" lon="11.17195052552929"><ele>372.0</ele><time>2026-04-30T15:46:45Z</time></trkpt><trkpt lat="43.00107519006873" lon="11.17174407842591"><ele>372.0</ele><time>2026-04-30T15:46:46Z</time></trkpt><trkpt lat="43.00116691694506" lon="11.171544203843457"><ele>372.0</ele><time>2026-04-30T15:46:47Z</time></trkpt><trkpt lat="43.00126263512239" lon="11.171337771308593"><ele>372.0</ele><time>2026-04-30T15:46:48Z</time></trkpt><trkpt lat="43.00136607048573" lon="11.171130304157831"><ele>371.0</ele><time>2026-04-30T15:46:49Z</time></trkpt><trkpt lat="43.00146424940738" lon="11.170929026623133"><ele>370.0</ele><time>2026-04-30T15:46:50Z</time></trkpt><trkpt lat="43.00155237609991" lon="11.170729352175119"><ele>369.0</ele><time>2026-04-30T15:46:51Z</time></trkpt><trkpt lat="43.001633570615695" lon="11.170533337703374"><ele>369.3333333333333</ele><time>2026-04-30T15:46:52Z</time></trkpt><trkpt lat="43.001703688649116" lon="11.170323811837191"><ele>369.66666666666663</ele><time>2026-04-30T15:46:53Z</time></trkpt><trkpt lat="43.00175120595287" lon="11.17009190762323"><ele>370.0</ele><time>2026-04-30T15:46:54Z</time></trkpt><trkpt lat="43.00177266841141" lon="11.169844753970674"><ele>370.0</ele><time>2026-04-30T15:46:55Z</time></trkpt><trkpt lat="43.001759974320386" lon="11.16961104484649"><ele>370.0</ele><time>2026-04-30T15:46:56Z</time></trkpt><trkpt lat="43.001713541958495" lon="11.169372243733351"><ele>370.0</ele><time>2026-04-30T15:46:57Z</time></trkpt><trkpt lat="43.001639943495576" lon="11.169132657782903"><ele>369.3333333333333</ele><time>2026-04-30T15:46:58Z</time></trkpt><trkpt lat="43.00155105034422" lon="11.168899463391439"><ele>368.6666666666667</ele><time>2026-04-30T15:46:59Z</time></trkpt><trkpt lat="43.001466612569196" lon="11.168675963610445"><ele>368.0</ele><time>2026-04-30T15:47:00Z</time></trkpt><trkpt lat="43.00138421117551" lon="11.168462320290551"><ele>368.0</ele><time>2026-04-30T15:47:01.001Z</time></trkpt><trkpt lat="43.00130089589598" lon="11.168246516394577"><ele>368.0</ele><time>2026-04-30T15:47:02.001Z</time></trkpt><trkpt lat="43.00121723243333" lon="11.168030838100856"><ele>368.0</ele><time>2026-04-30T15:47:03.001Z</time></trkpt><trkpt lat="43.001135177592694" lon="11.167809751850807"><ele>366.0</ele><time>2026-04-30T15:47:04.001Z</time></trkpt><trkpt lat="43.001052633602534" lon="11.167582797969155"><ele>364.0</ele><time>2026-04-30T15:47:05.001Z</time></trkpt><trkpt lat="43.00097227501908" lon="11.167353483658896"><ele>362.0</ele><time>2026-04-30T15:47:06.001Z</time></trkpt><trkpt lat="43.000884292239306" lon="11.167145044665153"><ele>359.0</ele><time>2026-04-30T15:47:07.001Z</time></trkpt><trkpt lat="43.00078841159324" lon="11.166954273316192"><ele>356.0</ele><time>2026-04-30T15:47:08.001Z</time></trkpt><trkpt lat="43.00067981810366" lon="11.166790609995832"><ele>353.0</ele><time>2026-04-30T15:47:09.001Z</time></trkpt><trkpt lat="43.00054795502153" lon="11.16666206491067"><ele>353.0</ele><time>2026-04-30T15:47:10.001Z</time></trkpt><trkpt lat="43.000393839288805" lon="11.166567380047205"><ele>353.0</ele><time>2026-04-30T15:47:11.001Z</time></trkpt><trkpt lat="43.00021997702262" lon="11.166525635793345"><ele>353.0</ele><time>2026-04-30T15:47:12.001Z</time></trkpt><trkpt lat="43.000038817623405" lon="11.166539791771527"><ele>353.0</ele><time>2026-04-30T15:47:13.001Z</time></trkpt><trkpt lat="42.99984884744916" lon="11.166617490012392"><ele>353.0</ele><time>2026-04-30T15:47:14.001Z</time></trkpt><trkpt lat="42.99964627439683" lon="11.166712902670897"><ele>353.0</ele><time>2026-04-30T15:47:15.001Z</time></trkpt><trkpt lat="42.99945446486154" lon="11.166800367808472"><ele>353.0</ele><time>2026-04-30T15:47:16.001Z</time></trkpt><trkpt lat="42.99926857853871" lon="11.166892350855735"><ele>353.0</ele><time>2026-04-30T15:47:17.001Z</time></trkpt><trkpt lat="42.999078709767495" lon="11.166987206725278"><ele>353.0</ele><time>2026-04-30T15:47:18.001Z</time></trkpt><trkpt lat="42.99888359281614" lon="11.167052340200364"><ele>351.6666666666667</ele><time>2026-04-30T15:47:19.001Z</time></trkpt><trkpt lat="42.998678881793595" lon="11.167073144604107"><ele>350.3333333333333</ele><time>2026-04-30T15:47:20.001Z</time></trkpt><trkpt lat="42.99847589548271" lon="11.16707193158054"><ele>349.0</ele><time>2026-04-30T15:47:21.001Z</time></trkpt><trkpt lat="42.99828464498959" lon="11.167076740923843"><ele>347.66666666666663</ele><time>2026-04-30T15:47:22.001Z</time></trkpt><trkpt lat="42.99810706209945" lon="11.167077041329275"><ele>346.3333333333333</ele><time>2026-04-30T15:47:23.001Z</time></trkpt><trkpt lat="42.99794153434275" lon="11.167059404743856"><ele>345.0</ele><time>2026-04-30T15:47:24.001Z</time></trkpt><trkpt lat="42.99778737042986" lon="11.166999624082143"><ele>345.0</ele><time>2026-04-30T15:47:25.001Z</time></trkpt><trkpt lat="42.99764182347613" lon="11.166870752423625"><ele>345.0</ele><time>2026-04-30T15:47:26.001Z</time></trkpt><trkpt lat="42.99752575889936" lon="11.166705082354042"><ele>345.0</ele><time>2026-04-30T15:47:27.001Z</time></trkpt><trkpt lat="42.9974387516779" lon="11.166502207484841"><ele>339.3333333333333</ele><time>2026-04-30T15:47:28.001Z</time></trkpt><trkpt lat="42.99737778817679" lon="11.166267812825911"><ele>333.66666666666663</ele><time>2026-04-30T15:47:29.001Z</time></trkpt><trkpt lat="42.99735492830688" lon="11.166041582394282"><ele>328.0</ele><time>2026-04-30T15:47:30.001Z</time></trkpt><trkpt lat="42.99735359795328" lon="11.165791471861974"><ele>329.3333333333333</ele><time>2026-04-30T15:47:31.001Z</time></trkpt><trkpt lat="42.99740154762302" lon="11.165512100311025"><ele>330.6666666666667</ele><time>2026-04-30T15:47:32.001Z</time></trkpt><trkpt lat="42.99746284973819" lon="11.165253108209278"><ele>332.0</ele><time>2026-04-30T15:47:33.001Z</time></trkpt><trkpt lat="42.99753685803624" lon="11.165033428612572"><ele>326.33333333333337</ele><time>2026-04-30T15:47:34.001Z</time></trkpt><trkpt lat="42.99764925359651" lon="11.164841482154012"><ele>320.6666666666667</ele><time>2026-04-30T15:47:35.001Z</time></trkpt><trkpt lat="42.99780734365367" lon="11.164697192051703"><ele>315.0</ele><time>2026-04-30T15:47:36.001Z</time></trkpt><trkpt lat="42.99799017774469" lon="11.16459687921681"><ele>315.0</ele><time>2026-04-30T15:47:37.001Z</time></trkpt><trkpt lat="42.99815281546161" lon="11.164501692463185"><ele>315.0</ele><time>2026-04-30T15:47:38.001Z</time></trkpt><trkpt lat="42.998301300060064" lon="11.164336315678778"><ele>315.0</ele><time>2026-04-30T15:47:39.001Z</time></trkpt><trkpt lat="42.998428626286476" lon="11.164089609750397"><ele>316.3333333333333</ele><time>2026-04-30T15:47:40.001Z</time></trkpt><trkpt lat="42.9985240570684" lon="11.163821286738841"><ele>317.66666666666663</ele><time>2026-04-30T15:47:41.001Z</time></trkpt><trkpt lat="42.99862652742278" lon="11.163565007377207"><ele>319.0</ele><time>2026-04-30T15:47:42.001Z</time></trkpt><trkpt lat="42.998745486936905" lon="11.163341823337744"><ele>315.0</ele><time>2026-04-30T15:47:43.001Z</time></trkpt><trkpt lat="42.99886339766505" lon="11.163136609441262"><ele>311.0</ele><time>2026-04-30T15:47:44.001Z</time></trkpt><trkpt lat="42.99899532807876" lon="11.162929471576014"><ele>307.0</ele><time>2026-04-30T15:47:45.001Z</time></trkpt><trkpt lat="42.99912219671347" lon="11.162726769145191"><ele>310.0</ele><time>2026-04-30T15:47:46Z</time></trkpt><trkpt lat="42.9992260136147" lon="11.162503335929665"><ele>313.0</ele><time>2026-04-30T15:47:47Z</time></trkpt><trkpt lat="42.99930524254257" lon="11.162238516517144"><ele>316.0</ele><time>2026-04-30T15:47:48Z</time></trkpt><trkpt lat="42.99935350923935" lon="11.161958267852633"><ele>316.0</ele><time>2026-04-30T15:47:49Z</time></trkpt><trkpt lat="42.99936926220434" lon="11.161673678287215"><ele>316.0</ele><time>2026-04-30T15:47:50Z</time></trkpt><trkpt lat="42.99935077739558" lon="11.161371863217333"><ele>316.0</ele><time>2026-04-30T15:47:51Z</time></trkpt><trkpt lat="42.999295304738084" lon="11.16103908870766"><ele>309.0</ele><time>2026-04-30T15:47:52Z</time></trkpt><trkpt lat="42.999228247512605" lon="11.160689529793755"><ele>302.0</ele><time>2026-04-30T15:47:53Z</time></trkpt><trkpt lat="42.99915813753266" lon="11.16031247505868"><ele>296.5</ele><time>2026-04-30T15:47:54Z</time></trkpt><trkpt lat="42.99908853011858" lon="11.15993086631568"><ele>291.0</ele><time>2026-04-30T15:47:55Z</time></trkpt><trkpt lat="42.99902247846389" lon="11.15954935863888"><ele>285.5</ele><time>2026-04-30T15:47:56Z</time></trkpt><trkpt lat="42.99895809570298" lon="11.159175002843552"><ele>280.0</ele><time>2026-04-30T15:47:57Z</time></trkpt><trkpt lat="42.998895459457344" lon="11.15881621700883"><ele>277.5</ele><time>2026-04-30T15:47:58Z</time></trkpt><trkpt lat="42.99883183991993" lon="11.158467017408375"><ele>275.0</ele><time>2026-04-30T15:47:59Z</time></trkpt><trkpt lat="42.99876957434813" lon="11.158124911039927"><ele>271.0</ele><time>2026-04-30T15:48:00Z</time></trkpt><trkpt lat="42.998710089067664" lon="11.15779542493228"><ele>267.0</ele><time>2026-04-30T15:48:01Z</time></trkpt><trkpt lat="42.99864683133904" lon="11.157475193987553"><ele>262.0</ele><time>2026-04-30T15:48:02Z</time></trkpt><trkpt lat="42.99855880199971" lon="11.157176754657021"><ele>257.0</ele><time>2026-04-30T15:48:03Z</time></trkpt><trkpt lat="42.99845131333777" lon="11.15690451384714"><ele>257.33333333333337</ele><time>2026-04-30T15:48:04Z</time></trkpt><trkpt lat="42.99832528775154" lon="11.156650032186503"><ele>257.6666666666667</ele><time>2026-04-30T15:48:05Z</time></trkpt><trkpt lat="42.99819883920804" lon="11.156397451792383"><ele>258.0</ele><time>2026-04-30T15:48:06Z</time></trkpt><trkpt lat="42.99807762787665" lon="11.15614307440375"><ele>255.33333333333331</ele><time>2026-04-30T15:48:07Z</time></trkpt><trkpt lat="42.99796048653819" lon="11.155885740536325"><ele>252.66666666666666</ele><time>2026-04-30T15:48:08Z</time></trkpt><trkpt lat="42.997857964806144" lon="11.155642245261342"><ele>250.0</ele><time>2026-04-30T15:48:09Z</time></trkpt><trkpt lat="42.99777336882973" lon="11.155396391551614"><ele>248.33333333333331</ele><time>2026-04-30T15:48:10Z</time></trkpt><trkpt lat="42.997716848041954" lon="11.15515233462364"><ele>246.66666666666669</ele><time>2026-04-30T15:48:11Z</time></trkpt><trkpt lat="42.99768405764709" lon="11.154900580290482"><ele>245.0</ele><time>2026-04-30T15:48:12Z</time></trkpt><trkpt lat="42.997665843504116" lon="11.154649156114788"><ele>244.66666666666669</ele><time>2026-04-30T15:48:13Z</time></trkpt><trkpt lat="42.99764872945342" lon="11.154401893818042"><ele>244.33333333333331</ele><time>2026-04-30T15:48:14Z</time></trkpt><trkpt lat="42.99762463447478" lon="11.15413553948244"><ele>244.0</ele><time>2026-04-30T15:48:15Z</time></trkpt><trkpt lat="42.99760219509953" lon="11.153895385778567"><ele>243.66666666666666</ele><time>2026-04-30T15:48:16Z</time></trkpt><trkpt lat="42.997582181720006" lon="11.153668006936567"><ele>243.33333333333331</ele><time>2026-04-30T15:48:17Z</time></trkpt><trkpt lat="42.997563514978175" lon="11.15344635338636"><ele>243.0</ele><time>2026-04-30T15:48:18Z</time></trkpt><trkpt lat="42.99754178215763" lon="11.15324135012614"><ele>242.0</ele><time>2026-04-30T15:48:19Z</time></trkpt><trkpt lat="42.997512701434616" lon="11.153049972090184"><ele>241.0</ele><time>2026-04-30T15:48:20Z</time></trkpt><trkpt lat="42.99747650298138" lon="11.15287162476889"><ele>240.0</ele><time>2026-04-30T15:48:21Z</time></trkpt><trkpt lat="42.997428967651395" lon="11.152674653440828"><ele>239.0</ele><time>2026-04-30T15:48:22Z</time></trkpt><trkpt lat="42.99735910784953" lon="11.152446213525684"><ele>240.66666666666669</ele><time>2026-04-30T15:48:23Z</time></trkpt><trkpt lat="42.99726217398592" lon="11.152190628046984"><ele>242.33333333333331</ele><time>2026-04-30T15:48:24Z</time></trkpt><trkpt lat="42.99718053979706" lon="11.151913568204938"><ele>244.0</ele><time>2026-04-30T15:48:25Z</time></trkpt><trkpt lat="42.99708520306533" lon="11.1516812834441"><ele>241.33333333333331</ele><time>2026-04-30T15:48:26Z</time></trkpt><trkpt lat="42.9970082903671" lon="11.151429487837227"><ele>238.66666666666669</ele><time>2026-04-30T15:48:27Z</time></trkpt><trkpt lat="42.99692833961468" lon="11.151166546158175"><ele>236.0</ele><time>2026-04-30T15:48:28Z</time></trkpt><trkpt lat="42.99685859824629" lon="11.150874431894332"><ele>234.33333333333334</ele><time>2026-04-30T15:48:29Z</time></trkpt><trkpt lat="42.99681910737976" lon="11.150573916865978"><ele>232.66666666666669</ele><time>2026-04-30T15:48:30Z</time></trkpt><trkpt lat="42.996810796820746" lon="11.150265502180993"><ele>231.0</ele><time>2026-04-30T15:48:31Z</time></trkpt><trkpt lat="42.996812047529225" lon="11.149957337791067"><ele>231.0</ele><time>2026-04-30T15:48:32Z</time></trkpt><trkpt lat="42.9968081824979" lon="11.149672235865692"><ele>231.0</ele><time>2026-04-30T15:48:33Z</time></trkpt><trkpt lat="42.99680214966156" lon="11.149399894294085"><ele>231.0</ele><time>2026-04-30T15:48:34Z</time></trkpt><trkpt lat="42.99679674226596" lon="11.149138714674468"><ele>231.0</ele><time>2026-04-30T15:48:35Z</time></trkpt><trkpt lat="42.9967966313373" lon="11.148869465145095"><ele>231.0</ele><time>2026-04-30T15:48:36Z</time></trkpt><trkpt lat="42.99679022849232" lon="11.148595412348568"><ele>231.0</ele><time>2026-04-30T15:48:37Z</time></trkpt><trkpt lat="42.99675862038663" lon="11.148324962457169"><ele>231.66666666666669</ele><time>2026-04-30T15:48:38Z</time></trkpt><trkpt lat="42.99669559655075" lon="11.148060293470717"><ele>232.33333333333334</ele><time>2026-04-30T15:48:39Z</time></trkpt><trkpt lat="42.99659884517455" lon="11.147818675489837"><ele>233.0</ele><time>2026-04-30T15:48:40Z</time></trkpt><trkpt lat="42.99647016647083" lon="11.147603697195654"><ele>233.0</ele><time>2026-04-30T15:48:41Z</time></trkpt><trkpt lat="42.99631531705662" lon="11.147417927616909"><ele>233.0</ele><time>2026-04-30T15:48:42Z</time></trkpt><trkpt lat="42.996140193881935" lon="11.147263816773766"><ele>233.0</ele><time>2026-04-30T15:48:43Z</time></trkpt><trkpt lat="42.99594623597822" lon="11.147162648838604"><ele>230.5</ele><time>2026-04-30T15:48:44Z</time></trkpt><trkpt lat="42.99571765517253" lon="11.147090715456937"><ele>228.0</ele><time>2026-04-30T15:48:45Z</time></trkpt><trkpt lat="42.99549229239083" lon="11.147019330398294"><ele>228.0</ele><time>2026-04-30T15:48:46Z</time></trkpt><trkpt lat="42.995265412700036" lon="11.146948551331215"><ele>228.0</ele><time>2026-04-30T15:48:47Z</time></trkpt><trkpt lat="42.99502614083583" lon="11.14690669945011"><ele>227.0</ele><time>2026-04-30T15:48:48.001Z</time></trkpt><trkpt lat="42.99478354626235" lon="11.146908498177156"><ele>226.0</ele><time>2026-04-30T15:48:49.001Z</time></trkpt><trkpt lat="42.99454553342852" lon="11.14691926825433"><ele>226.0</ele><time>2026-04-30T15:48:50.001Z</time></trkpt><trkpt lat="42.99431654467838" lon="11.146919435956713"><ele>226.0</ele><time>2026-04-30T15:48:51.001Z</time></trkpt><trkpt lat="42.994099941288134" lon="11.146927026968138"><ele>226.0</ele><time>2026-04-30T15:48:52.001Z</time></trkpt><trkpt lat="42.99388374978898" lon="11.146938883549002"><ele>225.33333333333331</ele><time>2026-04-30T15:48:53.001Z</time></trkpt><trkpt lat="42.99367249908733" lon="11.146915446924632"><ele>224.66666666666669</ele><time>2026-04-30T15:48:54.001Z</time></trkpt><trkpt lat="42.99346134119265" lon="11.146853730330811"><ele>224.0</ele><time>2026-04-30T15:48:55.001Z</time></trkpt><trkpt lat="42.993267081488355" lon="11.146752351401231"><ele>222.66666666666669</ele><time>2026-04-30T15:48:56.001Z</time></trkpt><trkpt lat="42.9930822743222" lon="11.146616199196561"><ele>221.33333333333331</ele><time>2026-04-30T15:48:57.001Z</time></trkpt><trkpt lat="42.9929103035661" lon="11.146460348721975"><ele>220.0</ele><time>2026-04-30T15:48:58.001Z</time></trkpt><trkpt lat="42.99274205161841" lon="11.146265616788265"><ele>217.0</ele><time>2026-04-30T15:48:59.001Z</time></trkpt><trkpt lat="42.99257471905534" lon="11.146021676963919"><ele>214.0</ele><time>2026-04-30T15:49:00.001Z</time></trkpt><trkpt lat="42.992400731327656" lon="11.145759089017789"><ele>210.5</ele><time>2026-04-30T15:49:01.001Z</time></trkpt><trkpt lat="42.99222526137497" lon="11.145502480979129"><ele>207.0</ele><time>2026-04-30T15:49:02.001Z</time></trkpt><trkpt lat="42.99203887670229" lon="11.145230405090828"><ele>207.0</ele><time>2026-04-30T15:49:03.001Z</time></trkpt><trkpt lat="42.9918580834776" lon="11.144956264484735"><ele>207.0</ele><time>2026-04-30T15:49:04.001Z</time></trkpt><trkpt lat="42.9916759045271" lon="11.144688384830491"><ele>208.0</ele><time>2026-04-30T15:49:05.001Z</time></trkpt><trkpt lat="42.99149209561542" lon="11.144423775246109"><ele>209.0</ele><time>2026-04-30T15:49:06.001Z</time></trkpt><trkpt lat="42.991312301942564" lon="11.144161191809653"><ele>205.0</ele><time>2026-04-30T15:49:07.001Z</time></trkpt><trkpt lat="42.991136730233116" lon="11.143903495669328"><ele>201.0</ele><time>2026-04-30T15:49:08.001Z</time></trkpt><trkpt lat="42.99096150176493" lon="11.14364774862267"><ele>203.0</ele><time>2026-04-30T15:49:09.001Z</time></trkpt><trkpt lat="42.99078583334924" lon="11.143389784849456"><ele>205.0</ele><time>2026-04-30T15:49:10.001Z</time></trkpt><trkpt lat="42.99061094004497" lon="11.143137976661698"><ele>205.0</ele><time>2026-04-30T15:49:11.001Z</time></trkpt><trkpt lat="42.99043539777494" lon="11.142881281722612"><ele>205.0</ele><time>2026-04-30T15:49:12.001Z</time></trkpt><trkpt lat="42.99026410673793" lon="11.142628246188888"><ele>205.5</ele><time>2026-04-30T15:49:13.001Z</time></trkpt><trkpt lat="42.990100638236584" lon="11.14237923345682"><ele>206.0</ele><time>2026-04-30T15:49:14.001Z</time></trkpt><trkpt lat="42.98994205855683" lon="11.142132999007059"><ele>208.5</ele><time>2026-04-30T15:49:15.001Z</time></trkpt><trkpt lat="42.989785844491735" lon="11.141880035143735"><ele>211.0</ele><time>2026-04-30T15:49:16.001Z</time></trkpt><trkpt lat="42.989633512060585" lon="11.14162641811628"><ele>209.5</ele><time>2026-04-30T15:49:17.001Z</time></trkpt><trkpt lat="42.989483049785825" lon="11.141370512648399"><ele>208.0</ele><time>2026-04-30T15:49:18.001Z</time></trkpt><trkpt lat="42.9893288467578" lon="11.141118202315278"><ele>206.5</ele><time>2026-04-30T15:49:19.001Z</time></trkpt><trkpt lat="42.98917387473122" lon="11.140870136326267"><ele>205.0</ele><time>2026-04-30T15:49:20.001Z</time></trkpt><trkpt lat="42.98902459402048" lon="11.140625169287777"><ele>202.33333333333331</ele><time>2026-04-30T15:49:21.001Z</time></trkpt><trkpt lat="42.98888100073199" lon="11.140386837053514"><ele>199.66666666666669</ele><time>2026-04-30T15:49:22.001Z</time></trkpt><trkpt lat="42.98874390192815" lon="11.140162060310674"><ele>197.0</ele><time>2026-04-30T15:49:23.001Z</time></trkpt><trkpt lat="42.98861933278253" lon="11.1399564414441"><ele>194.66666666666669</ele><time>2026-04-30T15:49:24.001Z</time></trkpt><trkpt lat="42.988520525200016" lon="11.1397326166619"><ele>192.33333333333334</ele><time>2026-04-30T15:49:25.001Z</time></trkpt><trkpt lat="42.98845838389083" lon="11.139478031353448"><ele>190.0</ele><time>2026-04-30T15:49:26.001Z</time></trkpt><trkpt lat="42.98842847706319" lon="11.139206971016552"><ele>188.33333333333334</ele><time>2026-04-30T15:49:27.001Z</time></trkpt><trkpt lat="42.988442722812124" lon="11.13893489744886"><ele>186.66666666666666</ele><time>2026-04-30T15:49:28.001Z</time></trkpt><trkpt lat="42.98849782081375" lon="11.138673443871378"><ele>185.0</ele><time>2026-04-30T15:49:29.001Z</time></trkpt><trkpt lat="42.988591023777126" lon="11.13843333841168"><ele>186.33333333333331</ele><time>2026-04-30T15:49:30.001Z</time></trkpt><trkpt lat="42.98872379278467" lon="11.138211783971352"><ele>187.66666666666666</ele><time>2026-04-30T15:49:31.001Z</time></trkpt><trkpt lat="42.98887735959567" lon="11.13801084413604"><ele>189.0</ele><time>2026-04-30T15:49:32.001Z</time></trkpt><trkpt lat="42.9890240419369" lon="11.13781602506149"><ele>189.0</ele><time>2026-04-30T15:49:33.001Z</time></trkpt><trkpt lat="42.98915552599696" lon="11.137625034092498"><ele>189.0</ele><time>2026-04-30T15:49:34.001Z</time></trkpt><trkpt lat="42.9892659084768" lon="11.137434569721027"><ele>189.0</ele><time>2026-04-30T15:49:35.001Z</time></trkpt><trkpt lat="42.98935282401264" lon="11.137223861723195"><ele>184.33333333333334</ele><time>2026-04-30T15:49:36.001Z</time></trkpt><trkpt lat="42.98941923911311" lon="11.136959101878883"><ele>179.66666666666669</ele><time>2026-04-30T15:49:37.001Z</time></trkpt><trkpt lat="42.98945706169125" lon="11.136681119084187"><ele>175.0</ele><time>2026-04-30T15:49:38.001Z</time></trkpt><trkpt lat="42.98948822469064" lon="11.136413418890294"><ele>174.33333333333334</ele><time>2026-04-30T15:49:39.001Z</time></trkpt><trkpt lat="42.989513976299996" lon="11.136161983381493"><ele>173.66666666666666</ele><time>2026-04-30T15:49:40.001Z</time></trkpt><trkpt lat="42.989504135206175" lon="11.13591932061636"><ele>173.0</ele><time>2026-04-30T15:49:41.001Z</time></trkpt><trkpt lat="42.98945214073988" lon="11.135672051958275"><ele>171.33333333333331</ele><time>2026-04-30T15:49:42.001Z</time></trkpt><trkpt lat="42.989370655498526" lon="11.135431724539647"><ele>169.66666666666666</ele><time>2026-04-30T15:49:43.001Z</time></trkpt><trkpt lat="42.98924154404696" lon="11.13519371999573"><ele>168.0</ele><time>2026-04-30T15:49:44.001Z</time></trkpt><trkpt lat="42.98908818767864" lon="11.134960957698818"><ele>169.0</ele><time>2026-04-30T15:49:45.001Z</time></trkpt><trkpt lat="42.98892778812412" lon="11.134728332415236"><ele>170.0</ele><time>2026-04-30T15:49:46.001Z</time></trkpt><trkpt lat="42.98876756196026" lon="11.134493702264658"><ele>170.0</ele><time>2026-04-30T15:49:47.001Z</time></trkpt><trkpt lat="42.98861759088888" lon="11.134254176333748"><ele>170.0</ele><time>2026-04-30T15:49:48.001Z</time></trkpt><trkpt lat="42.98846757720073" lon="11.134043104032504"><ele>170.0</ele><time>2026-04-30T15:49:49.001Z</time></trkpt><trkpt lat="42.988317565340274" lon="11.133821963966644"><ele>169.0</ele><time>2026-04-30T15:49:50.001Z</time></trkpt><trkpt lat="42.98817008974092" lon="11.133598605232793"><ele>168.0</ele><time>2026-04-30T15:49:51.001Z</time></trkpt><trkpt lat="42.988025654626114" lon="11.133384317335734"><ele>167.0</ele><time>2026-04-30T15:49:52.001Z</time></trkpt><trkpt lat="42.9878804525059" lon="11.133164850937675"><ele>159.0</ele><time>2026-04-30T15:49:53.001Z</time></trkpt><trkpt lat="42.98771579992517" lon="11.132959768449266"><ele>151.0</ele><time>2026-04-30T15:49:54.001Z</time></trkpt><trkpt lat="42.98753501977292" lon="11.132772158170907"><ele>155.5</ele><time>2026-04-30T15:49:55.001Z</time></trkpt><trkpt lat="42.9873329818517" lon="11.132598845475316"><ele>160.0</ele><time>2026-04-30T15:49:56.001Z</time></trkpt><trkpt lat="42.987127108715114" lon="11.132425983191075"><ele>152.5</ele><time>2026-04-30T15:49:57.001Z</time></trkpt><trkpt lat="42.9869205150548" lon="11.132258475255275"><ele>145.0</ele><time>2026-04-30T15:49:58Z</time></trkpt><trkpt lat="42.98671573064191" lon="11.13209234278344"><ele>149.0</ele><time>2026-04-30T15:49:59Z</time></trkpt><trkpt lat="42.98650277071957" lon="11.13192013889986"><ele>153.0</ele><time>2026-04-30T15:50:00Z</time></trkpt><trkpt lat="42.98629082506667" lon="11.131745013826173"><ele>153.0</ele><time>2026-04-30T15:50:01Z</time></trkpt><trkpt lat="42.98607463704008" lon="11.131563630148053"><ele>153.0</ele><time>2026-04-30T15:50:02Z</time></trkpt><trkpt lat="42.98585957900176" lon="11.131389444385858"><ele>150.5</ele><time>2026-04-30T15:50:03Z</time></trkpt><trkpt lat="42.985651378263" lon="11.131214670511012"><ele>148.0</ele><time>2026-04-30T15:50:04Z</time></trkpt><trkpt lat="42.985449085809925" lon="11.131038255200028"><ele>148.0</ele><time>2026-04-30T15:50:05Z</time></trkpt><trkpt lat="42.985262181462026" lon="11.130883100518096"><ele>148.0</ele><time>2026-04-30T15:50:06Z</time></trkpt><trkpt lat="42.985075826775365" lon="11.13072271810964"><ele>148.0</ele><time>2026-04-30T15:50:07Z</time></trkpt><trkpt lat="42.9848972251487" lon="11.130573176679956"><ele>146.33333333333334</ele><time>2026-04-30T15:50:08Z</time></trkpt><trkpt lat="42.9847245502485" lon="11.13043117325803"><ele>144.66666666666666</ele><time>2026-04-30T15:50:09Z</time></trkpt><trkpt lat="42.984562949487014" lon="11.130289634073344"><ele>143.0</ele><time>2026-04-30T15:50:10Z</time></trkpt><trkpt lat="42.98440190077746" lon="11.130150977786165"><ele>143.0</ele><time>2026-04-30T15:50:11Z</time></trkpt><trkpt lat="42.98424432490115" lon="11.130013503339699"><ele>143.0</ele><time>2026-04-30T15:50:12Z</time></trkpt><trkpt lat="42.984086798606654" lon="11.129868407587495"><ele>143.0</ele><time>2026-04-30T15:50:13Z</time></trkpt><trkpt lat="42.983936490467" lon="11.129718842272178"><ele>138.66666666666666</ele><time>2026-04-30T15:50:14Z</time></trkpt><trkpt lat="42.98380515729375" lon="11.129542896457572"><ele>134.33333333333334</ele><time>2026-04-30T15:50:15Z</time></trkpt><trkpt lat="42.983699706294985" lon="11.12933761002574"><ele>130.0</ele><time>2026-04-30T15:50:16Z</time></trkpt><trkpt lat="42.983632114870495" lon="11.12910344917219"><ele>128.66666666666669</ele><time>2026-04-30T15:50:17Z</time></trkpt><trkpt lat="42.98359174777605" lon="11.128844218464362"><ele>127.33333333333334</ele><time>2026-04-30T15:50:18Z</time></trkpt><trkpt lat="42.98357617695495" lon="11.128562926184191"><ele>126.0</ele><time>2026-04-30T15:50:19Z</time></trkpt><trkpt lat="42.98359603822953" lon="11.128269059306257"><ele>124.0</ele><time>2026-04-30T15:50:20Z</time></trkpt><trkpt lat="42.9836474618037" lon="11.12797630388345"><ele>122.0</ele><time>2026-04-30T15:50:21Z</time></trkpt><trkpt lat="42.983712018488404" lon="11.127674963191872"><ele>120.66666666666666</ele><time>2026-04-30T15:50:22Z</time></trkpt><trkpt lat="42.98377055220481" lon="11.127377751437374"><ele>119.33333333333334</ele><time>2026-04-30T15:50:23Z</time></trkpt><trkpt lat="42.983824579615366" lon="11.127086200915402"><ele>118.0</ele><time>2026-04-30T15:50:24Z</time></trkpt><trkpt lat="42.983865984635365" lon="11.126807405009894"><ele>116.66666666666667</ele><time>2026-04-30T15:50:25Z</time></trkpt><trkpt lat="42.98387228056904" lon="11.126529579959021"><ele>115.33333333333334</ele><time>2026-04-30T15:50:26Z</time></trkpt><trkpt lat="42.98383349703805" lon="11.126255041311646"><ele>114.0</ele><time>2026-04-30T15:50:27Z</time></trkpt><trkpt lat="42.98375471663556" lon="11.125992054832045"><ele>114.0</ele><time>2026-04-30T15:50:28Z</time></trkpt><trkpt lat="42.983657417145686" lon="11.12574584441037"><ele>114.0</ele><time>2026-04-30T15:50:29Z</time></trkpt><trkpt lat="42.98352752032693" lon="11.12552694256982"><ele>114.0</ele><time>2026-04-30T15:50:30Z</time></trkpt><trkpt lat="42.983371196151495" lon="11.125310113876179"><ele>111.0</ele><time>2026-04-30T15:50:31Z</time></trkpt><trkpt lat="42.98319959702489" lon="11.125072087882264"><ele>108.0</ele><time>2026-04-30T15:50:32Z</time></trkpt><trkpt lat="42.98302377545336" lon="11.124815406707189"><ele>106.5</ele><time>2026-04-30T15:50:33Z</time></trkpt><trkpt lat="42.98284111147144" lon="11.12454104689158"><ele>105.0</ele><time>2026-04-30T15:50:34Z</time></trkpt><trkpt lat="42.98264579551349" lon="11.124247970080264"><ele>104.5</ele><time>2026-04-30T15:50:35Z</time></trkpt><trkpt lat="42.98244240938209" lon="11.123943342382228"><ele>104.0</ele><time>2026-04-30T15:50:36Z</time></trkpt><trkpt lat="42.98223696795552" lon="11.123626290627433"><ele>104.0</ele><time>2026-04-30T15:50:37Z</time></trkpt><trkpt lat="42.98203472913178" lon="11.123322109036147"><ele>104.0</ele><time>2026-04-30T15:50:38Z</time></trkpt><trkpt lat="42.98184182195976" lon="11.123025472668365"><ele>103.0</ele><time>2026-04-30T15:50:39Z</time></trkpt><trkpt lat="42.98165281795228" lon="11.12274208043863"><ele>102.0</ele><time>2026-04-30T15:50:40Z</time></trkpt><trkpt lat="42.98146575148251" lon="11.122464632510736"><ele>102.0</ele><time>2026-04-30T15:50:41Z</time></trkpt><trkpt lat="42.981281314179014" lon="11.122191339335822"><ele>102.0</ele><time>2026-04-30T15:50:42Z</time></trkpt><trkpt lat="42.98110412114206" lon="11.121918202640082"><ele>102.0</ele><time>2026-04-30T15:50:43Z</time></trkpt><trkpt lat="42.98092471932774" lon="11.121648439272857"><ele>102.0</ele><time>2026-04-30T15:50:44Z</time></trkpt><trkpt lat="42.98074508140166" lon="11.121380271274298"><ele>101.0</ele><time>2026-04-30T15:50:45Z</time></trkpt><trkpt lat="42.98056184259621" lon="11.121105277357398"><ele>100.0</ele><time>2026-04-30T15:50:46Z</time></trkpt><trkpt lat="42.980377372789775" lon="11.12083191749251"><ele>99.5</ele><time>2026-04-30T15:50:47Z</time></trkpt><trkpt lat="42.9801962934574" lon="11.120559697120331"><ele>99.0</ele><time>2026-04-30T15:50:48Z</time></trkpt><trkpt lat="42.98001794125607" lon="11.120288524367028"><ele>99.5</ele><time>2026-04-30T15:50:49.001Z</time></trkpt><trkpt lat="42.97984153809666" lon="11.120023474689477"><ele>100.0</ele><time>2026-04-30T15:50:50.001Z</time></trkpt><trkpt lat="42.97966742752309" lon="11.11976634391287"><ele>99.0</ele><time>2026-04-30T15:50:51.001Z</time></trkpt><trkpt lat="42.97949989452822" lon="11.119523895225202"><ele>98.0</ele><time>2026-04-30T15:50:52.001Z</time></trkpt><trkpt lat="42.97934131758799" lon="11.119293477251432"><ele>97.33333333333333</ele><time>2026-04-30T15:50:53.001Z</time></trkpt><trkpt lat="42.97919366018329" lon="11.11906700631692"><ele>96.66666666666666</ele><time>2026-04-30T15:50:54.001Z</time></trkpt><trkpt lat="42.979059474163506" lon="11.118841296060355"><ele>96.0</ele><time>2026-04-30T15:50:55.001Z</time></trkpt><trkpt lat="42.978943748634386" lon="11.118598904765022"><ele>95.0</ele><time>2026-04-30T15:50:56.001Z</time></trkpt><trkpt lat="42.97884592433845" lon="11.118329811516572"><ele>94.0</ele><time>2026-04-30T15:50:57.001Z</time></trkpt><trkpt lat="42.978793462281715" lon="11.118039877186437"><ele>93.0</ele><time>2026-04-30T15:50:58.001Z</time></trkpt><trkpt lat="42.978766760199534" lon="11.1177186257169"><ele>94.0</ele><time>2026-04-30T15:50:59.001Z</time></trkpt><trkpt lat="42.978741551457766" lon="11.117382055997274"><ele>95.0</ele><time>2026-04-30T15:51:00.001Z</time></trkpt><trkpt lat="42.97871433347705" lon="11.117039936423122"><ele>95.0</ele><time>2026-04-30T15:51:01.001Z</time></trkpt><trkpt lat="42.978690894480344" lon="11.116694617838496"><ele>95.0</ele><time>2026-04-30T15:51:02.001Z</time></trkpt><trkpt lat="42.9786666373974" lon="11.116352456850953"><ele>95.0</ele><time>2026-04-30T15:51:03.001Z</time></trkpt><trkpt lat="42.9786422426548" lon="11.116009371057405"><ele>95.0</ele><time>2026-04-30T15:51:04.001Z</time></trkpt><trkpt lat="42.97861659537695" lon="11.115666495602408"><ele>95.0</ele><time>2026-04-30T15:51:05.001Z</time></trkpt><trkpt lat="42.97859258392046" lon="11.115329038699233"><ele>95.0</ele><time>2026-04-30T15:51:06.001Z</time></trkpt><trkpt lat="42.97856706684628" lon="11.11499383708171"><ele>94.5</ele><time>2026-04-30T15:51:07.001Z</time></trkpt><trkpt lat="42.97854371301754" lon="11.114661313121463"><ele>94.0</ele><time>2026-04-30T15:51:08.001Z</time></trkpt><trkpt lat="42.97851678602278" lon="11.114334269138523"><ele>93.0</ele><time>2026-04-30T15:51:09.001Z</time></trkpt><trkpt lat="42.97849206841494" lon="11.114013962374907"><ele>92.0</ele><time>2026-04-30T15:51:10.001Z</time></trkpt><trkpt lat="42.97846844284322" lon="11.113702352370744"><ele>92.0</ele><time>2026-04-30T15:51:11.001Z</time></trkpt><trkpt lat="42.97844209547248" lon="11.11339955491555"><ele>92.0</ele><time>2026-04-30T15:51:12.001Z</time></trkpt><trkpt lat="42.97842155851432" lon="11.11309396081583"><ele>92.0</ele><time>2026-04-30T15:51:13.001Z</time></trkpt><trkpt lat="42.978412572764945" lon="11.112786118379171"><ele>92.5</ele><time>2026-04-30T15:51:14.001Z</time></trkpt><trkpt lat="42.978433776084756" lon="11.112459786508829"><ele>93.0</ele><time>2026-04-30T15:51:15.001Z</time></trkpt><trkpt lat="42.978472144635376" lon="11.112122473673542"><ele>94.5</ele><time>2026-04-30T15:51:16.001Z</time></trkpt><trkpt lat="42.97851783578332" lon="11.111801460265214"><ele>96.0</ele><time>2026-04-30T15:51:17.001Z</time></trkpt><trkpt lat="42.978561974635475" lon="11.111468683094467"><ele>96.0</ele><time>2026-04-30T15:51:18.001Z</time></trkpt><trkpt lat="42.97860197415637" lon="11.111131979613324"><ele>96.0</ele><time>2026-04-30T15:51:19.001Z</time></trkpt><trkpt lat="42.97864275845041" lon="11.11079815953273"><ele>95.5</ele><time>2026-04-30T15:51:20.001Z</time></trkpt><trkpt lat="42.978680896806026" lon="11.110463650847102"><ele>95.0</ele><time>2026-04-30T15:51:21.001Z</time></trkpt><trkpt lat="42.978717590950666" lon="11.110131101881235"><ele>93.5</ele><time>2026-04-30T15:51:22.001Z</time></trkpt><trkpt lat="42.978754067871726" lon="11.10980581634152"><ele>92.0</ele><time>2026-04-30T15:51:23.001Z</time></trkpt><trkpt lat="42.978794712208924" lon="11.109485889186674"><ele>92.0</ele><time>2026-04-30T15:51:24.001Z</time></trkpt><trkpt lat="42.97883632624638" lon="11.109175697462526"><ele>92.0</ele><time>2026-04-30T15:51:25.001Z</time></trkpt><trkpt lat="42.978876288467816" lon="11.10887894003362"><ele>92.66666666666667</ele><time>2026-04-30T15:51:26.001Z</time></trkpt><trkpt lat="42.97891380790497" lon="11.108593535104632"><ele>93.33333333333333</ele><time>2026-04-30T15:51:27.001Z</time></trkpt><trkpt lat="42.97895296701664" lon="11.108308025160635"><ele>94.0</ele><time>2026-04-30T15:51:28.001Z</time></trkpt><trkpt lat="42.9790087041782" lon="11.108018249837505"><ele>94.33333333333333</ele><time>2026-04-30T15:51:29.001Z</time></trkpt><trkpt lat="42.979081006816926" lon="11.1077316615712"><ele>94.66666666666667</ele><time>2026-04-30T15:51:30.001Z</time></trkpt><trkpt lat="42.97916239173068" lon="11.107447562919178"><ele>95.0</ele><time>2026-04-30T15:51:31.001Z</time></trkpt><trkpt lat="42.97924389762092" lon="11.107165809151445"><ele>94.0</ele><time>2026-04-30T15:51:32.001Z</time></trkpt><trkpt lat="42.979314355490466" lon="11.106879070476612"><ele>93.0</ele><time>2026-04-30T15:51:33.001Z</time></trkpt><trkpt lat="42.9793912585719" lon="11.10660045868953"><ele>92.0</ele><time>2026-04-30T15:51:34.001Z</time></trkpt><trkpt lat="42.97946470224527" lon="11.10631826006993"><ele>92.0</ele><time>2026-04-30T15:51:35.001Z</time></trkpt><trkpt lat="42.979540241761285" lon="11.106033940554507"><ele>92.0</ele><time>2026-04-30T15:51:36.001Z</time></trkpt><trkpt lat="42.979629796115645" lon="11.105726251680423"><ele>91.5</ele><time>2026-04-30T15:51:37.001Z</time></trkpt><trkpt lat="42.979721222498334" lon="11.105400445426293"><ele>91.0</ele><time>2026-04-30T15:51:38.001Z</time></trkpt><trkpt lat="42.979816150729334" lon="11.105057738221205"><ele>90.5</ele><time>2026-04-30T15:51:39.001Z</time></trkpt><trkpt lat="42.979912077831806" lon="11.104719464903578"><ele>90.0</ele><time>2026-04-30T15:51:40.001Z</time></trkpt><trkpt lat="42.980010675312265" lon="11.104362239775796"><ele>92.0</ele><time>2026-04-30T15:51:41.001Z</time></trkpt><trkpt lat="42.9801103993581" lon="11.1040032797123"><ele>94.0</ele><time>2026-04-30T15:51:42.001Z</time></trkpt><trkpt lat="42.980207133313044" lon="11.103656858777436"><ele>94.0</ele><time>2026-04-30T15:51:43.001Z</time></trkpt><trkpt lat="42.98030429209089" lon="11.10330650886585"><ele>94.0</ele><time>2026-04-30T15:51:44.001Z</time></trkpt><trkpt lat="42.980394414042166" lon="11.102962882368349"><ele>95.0</ele><time>2026-04-30T15:51:45.001Z</time></trkpt><trkpt lat="42.98048657748311" lon="11.102621297637699"><ele>96.0</ele><time>2026-04-30T15:51:46.001Z</time></trkpt><trkpt lat="42.98058174192147" lon="11.10228663150912"><ele>94.0</ele><time>2026-04-30T15:51:47.001Z</time></trkpt><trkpt lat="42.98067430022586" lon="11.10195798471127"><ele>92.0</ele><time>2026-04-30T15:51:48.001Z</time></trkpt><trkpt lat="42.980767065132305" lon="11.10163596428618"><ele>94.5</ele><time>2026-04-30T15:51:49.001Z</time></trkpt><trkpt lat="42.980854793375315" lon="11.101321113741871"><ele>97.0</ele><time>2026-04-30T15:51:50.001Z</time></trkpt><trkpt lat="42.980940415721165" lon="11.101008149977877"><ele>98.5</ele><time>2026-04-30T15:51:51.001Z</time></trkpt><trkpt lat="42.981024355866744" lon="11.100697622338114"><ele>100.0</ele><time>2026-04-30T15:51:52.001Z</time></trkpt><trkpt lat="42.98110943940269" lon="11.100391004573002"><ele>100.0</ele><time>2026-04-30T15:51:53.001Z</time></trkpt><trkpt lat="42.98119707227212" lon="11.100083469751507"><ele>100.0</ele><time>2026-04-30T15:51:54.001Z</time></trkpt><trkpt lat="42.981284060026375" lon="11.099775214423412"><ele>98.0</ele><time>2026-04-30T15:51:55.001Z</time></trkpt><trkpt lat="42.98136932782877" lon="11.09946826856926"><ele>96.0</ele><time>2026-04-30T15:51:56.001Z</time></trkpt><trkpt lat="42.98145055269714" lon="11.09915804645802"><ele>94.5</ele><time>2026-04-30T15:51:57.001Z</time></trkpt><trkpt lat="42.98153108010862" lon="11.098843538163614"><ele>93.0</ele><time>2026-04-30T15:51:58Z</time></trkpt><trkpt lat="42.981607643759446" lon="11.0985378596707"><ele>95.0</ele><time>2026-04-30T15:51:59Z</time></trkpt><trkpt lat="42.98168432642244" lon="11.098227172592615"><ele>97.0</ele><time>2026-04-30T15:52:00Z</time></trkpt><trkpt lat="42.98176443941955" lon="11.09792360758625"><ele>97.0</ele><time>2026-04-30T15:52:01Z</time></trkpt><trkpt lat="42.98184470826811" lon="11.09761925406454"><ele>97.0</ele><time>2026-04-30T15:52:02Z</time></trkpt><trkpt lat="42.98193004150676" lon="11.097323983818077"><ele>96.5</ele><time>2026-04-30T15:52:03Z</time></trkpt><trkpt lat="42.98200947310454" lon="11.097023809382431"><ele>96.0</ele><time>2026-04-30T15:52:04Z</time></trkpt><trkpt lat="42.98209404846634" lon="11.09671761995517"><ele>94.66666666666667</ele><time>2026-04-30T15:52:05Z</time></trkpt><trkpt lat="42.982168998891936" lon="11.096425276803194"><ele>93.33333333333334</ele><time>2026-04-30T15:52:06Z</time></trkpt><trkpt lat="42.982242934022246" lon="11.096153315441263"><ele>92.0</ele><time>2026-04-30T15:52:07Z</time></trkpt><trkpt lat="42.98230781473512" lon="11.095885175575079"><ele>92.0</ele><time>2026-04-30T15:52:08Z</time></trkpt><trkpt lat="42.98237487737531" lon="11.095605845126823"><ele>92.0</ele><time>2026-04-30T15:52:09Z</time></trkpt><trkpt lat="42.98242539973065" lon="11.09533092042249"><ele>92.0</ele><time>2026-04-30T15:52:10Z</time></trkpt><trkpt lat="42.98246314543031" lon="11.095045760382357"><ele>92.0</ele><time>2026-04-30T15:52:11Z</time></trkpt><trkpt lat="42.98250039478192" lon="11.094750634299643"><ele>92.0</ele><time>2026-04-30T15:52:12Z</time></trkpt><trkpt lat="42.98254505832883" lon="11.094455019787478"><ele>92.0</ele><time>2026-04-30T15:52:13Z</time></trkpt><trkpt lat="42.98258454132906" lon="11.09417388080483"><ele>92.33333333333334</ele><time>2026-04-30T15:52:14Z</time></trkpt><trkpt lat="42.98261574642134" lon="11.093893213292608"><ele>92.66666666666667</ele><time>2026-04-30T15:52:15Z</time></trkpt><trkpt lat="42.98264662248592" lon="11.093607969684008"><ele>93.0</ele><time>2026-04-30T15:52:16Z</time></trkpt><trkpt lat="42.98268050912934" lon="11.093333840363707"><ele>92.66666666666667</ele><time>2026-04-30T15:52:17Z</time></trkpt><trkpt lat="42.9827334454248" lon="11.093078741827402"><ele>92.33333333333334</ele><time>2026-04-30T15:52:18Z</time></trkpt><trkpt lat="42.98281082821475" lon="11.092852177485803"><ele>92.0</ele><time>2026-04-30T15:52:19Z</time></trkpt><trkpt lat="42.982868636863216" lon="11.09261199433533"><ele>92.0</ele><time>2026-04-30T15:52:20Z</time></trkpt><trkpt lat="42.9830868914054" lon="11.09243831269907"><ele>92.0</ele><time>2026-04-30T15:52:21Z</time></trkpt><trkpt lat="42.9832714909414" lon="11.092247171656757"><ele>92.5</ele><time>2026-04-30T15:52:22Z</time></trkpt><trkpt lat="42.9834667512583" lon="11.092050519503578"><ele>93.0</ele><time>2026-04-30T15:52:23Z</time></trkpt><trkpt lat="42.9836541379424" lon="11.091856032888247"><ele>93.0</ele><time>2026-04-30T15:52:24Z</time></trkpt><trkpt lat="42.983834672901004" lon="11.091659978262804"><ele>93.0</ele><time>2026-04-30T15:52:25Z</time></trkpt><trkpt lat="42.984014009316276" lon="11.091469186305078"><ele>93.5</ele><time>2026-04-30T15:52:26Z</time></trkpt><trkpt lat="42.984192714252096" lon="11.091278966501143"><ele>94.0</ele><time>2026-04-30T15:52:27Z</time></trkpt><trkpt lat="42.984369149453386" lon="11.091088506097307"><ele>94.0</ele><time>2026-04-30T15:52:28Z</time></trkpt><trkpt lat="42.9845422078975" lon="11.09089294109429"><ele>94.0</ele><time>2026-04-30T15:52:29Z</time></trkpt><trkpt lat="42.984715490018935" lon="11.090705380720879"><ele>94.0</ele><time>2026-04-30T15:52:30Z</time></trkpt><trkpt lat="42.984889805765214" lon="11.090524309794974"><ele>95.66666666666666</ele><time>2026-04-30T15:52:31Z</time></trkpt><trkpt lat="42.98506125928999" lon="11.090344822276817"><ele>97.33333333333333</ele><time>2026-04-30T15:52:32Z</time></trkpt><trkpt lat="42.98522992494416" lon="11.09017091652593"><ele>99.0</ele><time>2026-04-30T15:52:33Z</time></trkpt><trkpt lat="42.98539568428639" lon="11.089989370401787"><ele>98.66666666666666</ele><time>2026-04-30T15:52:34Z</time></trkpt><trkpt lat="42.98556574431396" lon="11.089808700077716"><ele>98.33333333333333</ele><time>2026-04-30T15:52:35Z</time></trkpt><trkpt lat="42.98573326998031" lon="11.089635955019048"><ele>98.0</ele><time>2026-04-30T15:52:36Z</time></trkpt><trkpt lat="42.98589153958182" lon="11.089461630467751"><ele>98.66666666666666</ele><time>2026-04-30T15:52:37Z</time></trkpt><trkpt lat="42.986050789644175" lon="11.089287409272362"><ele>99.33333333333334</ele><time>2026-04-30T15:52:38Z</time></trkpt><trkpt lat="42.98621669488073" lon="11.089111813929236"><ele>100.0</ele><time>2026-04-30T15:52:39Z</time></trkpt><trkpt lat="42.986382844380586" lon="11.088933461582322"><ele>100.33333333333334</ele><time>2026-04-30T15:52:40Z</time></trkpt><trkpt lat="42.98655471167841" lon="11.088745338359445"><ele>100.66666666666666</ele><time>2026-04-30T15:52:41Z</time></trkpt><trkpt lat="42.98672983753161" lon="11.088561484400897"><ele>101.0</ele><time>2026-04-30T15:52:42Z</time></trkpt><trkpt lat="42.986901582907194" lon="11.088377657167685"><ele>101.66666666666666</ele><time>2026-04-30T15:52:43Z</time></trkpt><trkpt lat="42.987065459883596" lon="11.088201045018009"><ele>102.33333333333334</ele><time>2026-04-30T15:52:44Z</time></trkpt><trkpt lat="42.98722844782752" lon="11.08802349877644"><ele>103.0</ele><time>2026-04-30T15:52:45Z</time></trkpt><trkpt lat="42.987390080133316" lon="11.087849712118208"><ele>103.66666666666667</ele><time>2026-04-30T15:52:46Z</time></trkpt><trkpt lat="42.98755297457989" lon="11.087676734933629"><ele>104.33333333333334</ele><time>2026-04-30T15:52:47Z</time></trkpt><trkpt lat="42.98771290453768" lon="11.087500811512662"><ele>105.0</ele><time>2026-04-30T15:52:48Z</time></trkpt><trkpt lat="42.98788538506286" lon="11.087321644422403"><ele>106.0</ele><time>2026-04-30T15:52:49Z</time></trkpt><trkpt lat="42.98805311098492" lon="11.087140043189397"><ele>107.0</ele><time>2026-04-30T15:52:50Z</time></trkpt><trkpt lat="42.988224454280605" lon="11.086956634538412"><ele>108.0</ele><time>2026-04-30T15:52:51Z</time></trkpt><trkpt lat="42.988388331858694" lon="11.086778149523154"><ele>108.0</ele><time>2026-04-30T15:52:52Z</time></trkpt><trkpt lat="42.98855570065708" lon="11.086602498250645"><ele>108.0</ele><time>2026-04-30T15:52:53Z</time></trkpt><trkpt lat="42.98871215113249" lon="11.086425369789511"><ele>108.0</ele><time>2026-04-30T15:52:54Z</time></trkpt><trkpt lat="42.98885817429315" lon="11.086250555025055"><ele>109.0</ele><time>2026-04-30T15:52:55Z</time></trkpt><trkpt lat="42.989011712557584" lon="11.086090076867013"><ele>110.0</ele><time>2026-04-30T15:52:56Z</time></trkpt><trkpt lat="42.98915793303174" lon="11.085922738988568"><ele>111.0</ele><time>2026-04-30T15:52:57Z</time></trkpt><trkpt lat="42.9892014925861" lon="11.085556131361498"><ele>111.33333333333334</ele><time>2026-04-30T15:52:58Z</time></trkpt><trkpt lat="42.98929114496778" lon="11.085283345017647"><ele>111.66666666666667</ele><time>2026-04-30T15:52:59Z</time></trkpt><trkpt lat="42.98935596380468" lon="11.085004424353496"><ele>112.0</ele><time>2026-04-30T15:53:00Z</time></trkpt><trkpt lat="42.989382091955996" lon="11.084725207760533"><ele>112.0</ele><time>2026-04-30T15:53:01Z</time></trkpt><trkpt lat="42.989386661303655" lon="11.084429994404216"><ele>112.0</ele><time>2026-04-30T15:53:02Z</time></trkpt><trkpt lat="42.989374524875345" lon="11.084131803533573"><ele>112.0</ele><time>2026-04-30T15:53:03Z</time></trkpt><trkpt lat="42.98933123281122" lon="11.083831747073503"><ele>112.0</ele><time>2026-04-30T15:53:04Z</time></trkpt><trkpt lat="42.98926439129291" lon="11.08353956085087"><ele>112.0</ele><time>2026-04-30T15:53:05Z</time></trkpt><trkpt lat="42.989168523503835" lon="11.083262398529586"><ele>112.0</ele><time>2026-04-30T15:53:06Z</time></trkpt><trkpt lat="42.98903866051766" lon="11.083006122268962"><ele>111.5</ele><time>2026-04-30T15:53:07Z</time></trkpt><trkpt lat="42.98888615046127" lon="11.082762621189543"><ele>111.0</ele><time>2026-04-30T15:53:08Z</time></trkpt><trkpt lat="42.98872517945719" lon="11.082511966973051"><ele>111.5</ele><time>2026-04-30T15:53:09Z</time></trkpt><trkpt lat="42.988565724672426" lon="11.082281924884745"><ele>112.0</ele><time>2026-04-30T15:53:10Z</time></trkpt><trkpt lat="42.98840481014785" lon="11.082055621720746"><ele>111.5</ele><time>2026-04-30T15:53:11Z</time></trkpt><trkpt lat="42.98824596554057" lon="11.081822308081357"><ele>111.0</ele><time>2026-04-30T15:53:12Z</time></trkpt><trkpt lat="42.988089200042225" lon="11.081591920754606"><ele>112.0</ele><time>2026-04-30T15:53:13Z</time></trkpt><trkpt lat="42.98793370379657" lon="11.08136275930081"><ele>113.0</ele><time>2026-04-30T15:53:14Z</time></trkpt><trkpt lat="42.98777723181206" lon="11.081137254722028"><ele>113.0</ele><time>2026-04-30T15:53:15Z</time></trkpt><trkpt lat="42.98762693469833" lon="11.080912043178106"><ele>113.0</ele><time>2026-04-30T15:53:16Z</time></trkpt><trkpt lat="42.9874798606904" lon="11.080695822105662"><ele>113.0</ele><time>2026-04-30T15:53:17Z</time></trkpt><trkpt lat="42.98733987579474" lon="11.080487913103577"><ele>115.0</ele><time>2026-04-30T15:53:18Z</time></trkpt><trkpt lat="42.987206995682214" lon="11.080253767420407"><ele>117.0</ele><time>2026-04-30T15:53:19Z</time></trkpt><trkpt lat="42.98709961181644" lon="11.079995487395824"><ele>119.0</ele><time>2026-04-30T15:53:20Z</time></trkpt><trkpt lat="42.98700428263509" lon="11.079730106521508"><ele>120.0</ele><time>2026-04-30T15:53:21Z</time></trkpt><trkpt lat="42.986931511900444" lon="11.079448003446657"><ele>121.0</ele><time>2026-04-30T15:53:22Z</time></trkpt><trkpt lat="42.98688471339193" lon="11.079165581849816"><ele>122.0</ele><time>2026-04-30T15:53:23Z</time></trkpt><trkpt lat="42.986865285736535" lon="11.078885338257109"><ele>122.0</ele><time>2026-04-30T15:53:24Z</time></trkpt><trkpt lat="42.98687175663319" lon="11.07860387515783"><ele>122.0</ele><time>2026-04-30T15:53:25Z</time></trkpt><trkpt lat="42.98689565925752" lon="11.07831523901138"><ele>122.0</ele><time>2026-04-30T15:53:26Z</time></trkpt><trkpt lat="42.98693511374461" lon="11.078029889264528"><ele>121.0</ele><time>2026-04-30T15:53:27Z</time></trkpt><trkpt lat="42.986989308183645" lon="11.077748327585052"><ele>120.0</ele><time>2026-04-30T15:53:28.001Z</time></trkpt><trkpt lat="42.98705391025303" lon="11.077459188873993"><ele>119.0</ele><time>2026-04-30T15:53:29.001Z</time></trkpt><trkpt lat="42.98711650547219" lon="11.0771709589382"><ele>118.66666666666666</ele><time>2026-04-30T15:53:30.001Z</time></trkpt><trkpt lat="42.98717192225177" lon="11.076885379875234"><ele>118.33333333333334</ele><time>2026-04-30T15:53:31.001Z</time></trkpt><trkpt lat="42.98722399318929" lon="11.076619379585264"><ele>118.0</ele><time>2026-04-30T15:53:32.001Z</time></trkpt><trkpt lat="42.98727629929117" lon="11.07636370300059"><ele>118.66666666666667</ele><time>2026-04-30T15:53:33.001Z</time></trkpt><trkpt lat="42.987326970242044" lon="11.076113433189601"><ele>119.33333333333334</ele><time>2026-04-30T15:53:34.001Z</time></trkpt><trkpt lat="42.98736306803113" lon="11.075893967137828"><ele>120.0</ele><time>2026-04-30T15:53:35.001Z</time></trkpt><trkpt lat="42.98740661527811" lon="11.075697930580336"><ele>120.0</ele><time>2026-04-30T15:53:36.001Z</time></trkpt><trkpt lat="42.987432180715516" lon="11.075518713201829"><ele>120.0</ele><time>2026-04-30T15:53:37.001Z</time></trkpt><trkpt lat="42.9874689468538" lon="11.07538313414429"><ele>120.0</ele><time>2026-04-30T15:53:38.001Z</time></trkpt><trkpt lat="42.987493877229404" lon="11.075266717717481"><ele>120.0</ele><time>2026-04-30T15:53:39.001Z</time></trkpt><trkpt lat="42.98747264425068" lon="11.075152220460462"><ele>120.0</ele><time>2026-04-30T15:53:40.001Z</time></trkpt><trkpt lat="42.98739411125036" lon="11.075057304078237"><ele>120.0</ele><time>2026-04-30T15:53:41.001Z</time></trkpt><trkpt lat="42.987288788653174" lon="11.074998345346147"><ele>120.0</ele><time>2026-04-30T15:53:42.001Z</time></trkpt><trkpt lat="42.98716311044011" lon="11.075003123206983"><ele>120.0</ele><time>2026-04-30T15:53:43.001Z</time></trkpt><trkpt lat="42.9870174575768" lon="11.075002727869977"><ele>120.0</ele><time>2026-04-30T15:53:44.001Z</time></trkpt><trkpt lat="42.986862579655075" lon="11.07497421681639"><ele>120.0</ele><time>2026-04-30T15:53:45.001Z</time></trkpt><trkpt lat="42.98670164746701" lon="11.07493773682021"><ele>120.0</ele><time>2026-04-30T15:53:46.001Z</time></trkpt><trkpt lat="42.98651831319174" lon="11.074897025899826"><ele>120.0</ele><time>2026-04-30T15:53:47.001Z</time></trkpt><trkpt lat="42.98633461824983" lon="11.074847515967708"><ele>118.66666666666666</ele><time>2026-04-30T15:53:48.001Z</time></trkpt><trkpt lat="42.98614474994347" lon="11.074793726194518"><ele>117.33333333333333</ele><time>2026-04-30T15:53:49.001Z</time></trkpt><trkpt lat="42.98595032904437" lon="11.074735948766039"><ele>116.0</ele><time>2026-04-30T15:53:50.001Z</time></trkpt><trkpt lat="42.98575230183133" lon="11.074668178909508"><ele>114.33333333333333</ele><time>2026-04-30T15:53:51.001Z</time></trkpt><trkpt lat="42.98556197097001" lon="11.074586479634771"><ele>112.66666666666666</ele><time>2026-04-30T15:53:52.001Z</time></trkpt><trkpt lat="42.985382598567" lon="11.074489252303618"><ele>111.0</ele><time>2026-04-30T15:53:53.001Z</time></trkpt><trkpt lat="42.985207483466084" lon="11.074380116092835"><ele>111.0</ele><time>2026-04-30T15:53:54.001Z</time></trkpt><trkpt lat="42.98503896086993" lon="11.074264709285526"><ele>111.0</ele><time>2026-04-30T15:53:55.001Z</time></trkpt><trkpt lat="42.98487034045871" lon="11.074131434043911"><ele>111.0</ele><time>2026-04-30T15:53:56.001Z</time></trkpt><trkpt lat="42.98470056170028" lon="11.073988195983139"><ele>110.33333333333334</ele><time>2026-04-30T15:53:57.001Z</time></trkpt><trkpt lat="42.984529789004014" lon="11.073834758079743"><ele>109.66666666666667</ele><time>2026-04-30T15:53:58.001Z</time></trkpt><trkpt lat="42.984361122891194" lon="11.07366970352038"><ele>109.0</ele><time>2026-04-30T15:53:59.001Z</time></trkpt><trkpt lat="42.984195263874604" lon="11.073491947884893"><ele>109.5</ele><time>2026-04-30T15:54:00.001Z</time></trkpt><trkpt lat="42.984029800166574" lon="11.073285662107612"><ele>110.0</ele><time>2026-04-30T15:54:01.001Z</time></trkpt><trkpt lat="42.98386342002038" lon="11.07307444549385"><ele>109.0</ele><time>2026-04-30T15:54:02.001Z</time></trkpt><trkpt lat="42.98369452152806" lon="11.072864836190833"><ele>108.0</ele><time>2026-04-30T15:54:03.001Z</time></trkpt><trkpt lat="42.98352503550716" lon="11.07265676454253"><ele>108.0</ele><time>2026-04-30T15:54:04Z</time></trkpt><trkpt lat="42.98335452830149" lon="11.072446593052664"><ele>108.0</ele><time>2026-04-30T15:54:05Z</time></trkpt><trkpt lat="42.98318252747142" lon="11.072239469418957"><ele>104.0</ele><time>2026-04-30T15:54:06Z</time></trkpt><trkpt lat="42.9830088607202" lon="11.072027964187653"><ele>100.0</ele><time>2026-04-30T15:54:07Z</time></trkpt><trkpt lat="42.98283796884526" lon="11.071813171110257"><ele>99.0</ele><time>2026-04-30T15:54:08Z</time></trkpt><trkpt lat="42.98266690866054" lon="11.07159670877883"><ele>98.0</ele><time>2026-04-30T15:54:09Z</time></trkpt><trkpt lat="42.98249058948494" lon="11.07137256426728"><ele>98.0</ele><time>2026-04-30T15:54:10Z</time></trkpt><trkpt lat="42.98231294393631" lon="11.071156825997512"><ele>98.0</ele><time>2026-04-30T15:54:11Z</time></trkpt><trkpt lat="42.9821368369389" lon="11.070946175564973"><ele>96.5</ele><time>2026-04-30T15:54:12Z</time></trkpt><trkpt lat="42.981957087581556" lon="11.070725319554379"><ele>95.0</ele><time>2026-04-30T15:54:13Z</time></trkpt><trkpt lat="42.981779717329374" lon="11.07050673307593"><ele>97.5</ele><time>2026-04-30T15:54:14Z</time></trkpt><trkpt lat="42.9816004418015" lon="11.070287134364783"><ele>100.0</ele><time>2026-04-30T15:54:15Z</time></trkpt><trkpt lat="42.981421272761104" lon="11.070068009216726"><ele>98.5</ele><time>2026-04-30T15:54:16Z</time></trkpt><trkpt lat="42.981241190437764" lon="11.069850909856482"><ele>97.0</ele><time>2026-04-30T15:54:17Z</time></trkpt><trkpt lat="42.9810593007802" lon="11.069632066739123"><ele>97.0</ele><time>2026-04-30T15:54:18Z</time></trkpt><trkpt lat="42.980878217488375" lon="11.06941183570894"><ele>97.0</ele><time>2026-04-30T15:54:19Z</time></trkpt><trkpt lat="42.98070216861743" lon="11.069192384485014"><ele>95.5</ele><time>2026-04-30T15:54:20Z</time></trkpt><trkpt lat="42.98052483692501" lon="11.068972227175035"><ele>94.0</ele><time>2026-04-30T15:54:21Z</time></trkpt><trkpt lat="42.98034491947548" lon="11.068754079914887"><ele>94.0</ele><time>2026-04-30T15:54:22Z</time></trkpt><trkpt lat="42.980162013722676" lon="11.068537159198979"><ele>94.0</ele><time>2026-04-30T15:54:23Z</time></trkpt><trkpt lat="42.97997910554764" lon="11.06831459897784"><ele>91.5</ele><time>2026-04-30T15:54:24Z</time></trkpt><trkpt lat="42.979798469952115" lon="11.06809086456555"><ele>89.0</ele><time>2026-04-30T15:54:25Z</time></trkpt><trkpt lat="42.97961668815509" lon="11.0678664799109"><ele>89.0</ele><time>2026-04-30T15:54:26Z</time></trkpt><trkpt lat="42.97943131594905" lon="11.067642832940017"><ele>89.0</ele><time>2026-04-30T15:54:27Z</time></trkpt><trkpt lat="42.979245354082174" lon="11.067419177823389"><ele>87.0</ele><time>2026-04-30T15:54:28Z</time></trkpt><trkpt lat="42.97905993796164" lon="11.067191572890163"><ele>85.0</ele><time>2026-04-30T15:54:29Z</time></trkpt><trkpt lat="42.97887674796636" lon="11.06696162957374"><ele>85.0</ele><time>2026-04-30T15:54:30Z</time></trkpt><trkpt lat="42.97869009199535" lon="11.066733299905698"><ele>85.0</ele><time>2026-04-30T15:54:31Z</time></trkpt><trkpt lat="42.978500739886776" lon="11.066507350634083"><ele>85.0</ele><time>2026-04-30T15:54:32Z</time></trkpt><trkpt lat="42.97831125680449" lon="11.066276048232952"><ele>85.0</ele><time>2026-04-30T15:54:33Z</time></trkpt><trkpt lat="42.978121609603264" lon="11.06604411463706"><ele>85.0</ele><time>2026-04-30T15:54:34Z</time></trkpt><trkpt lat="42.97793215015126" lon="11.065810261723385"><ele>85.0</ele><time>2026-04-30T15:54:35Z</time></trkpt><trkpt lat="42.97774015444457" lon="11.065575721980933"><ele>85.5</ele><time>2026-04-30T15:54:36Z</time></trkpt><trkpt lat="42.977550259305445" lon="11.065342652155818"><ele>86.0</ele><time>2026-04-30T15:54:37Z</time></trkpt><trkpt lat="42.9773583324041" lon="11.065102906478721"><ele>84.5</ele><time>2026-04-30T15:54:38Z</time></trkpt><trkpt lat="42.97715318450107" lon="11.064850881822089"><ele>83.0</ele><time>2026-04-30T15:54:39Z</time></trkpt><trkpt lat="42.9769526210823" lon="11.064597036274934"><ele>83.0</ele><time>2026-04-30T15:54:40Z</time></trkpt><trkpt lat="42.976752899530645" lon="11.064345443066166"><ele>83.0</ele><time>2026-04-30T15:54:41Z</time></trkpt><trkpt lat="42.97656153807092" lon="11.064101228832318"><ele>83.5</ele><time>2026-04-30T15:54:42Z</time></trkpt><trkpt lat="42.976373616932946" lon="11.063868618820948"><ele>84.0</ele><time>2026-04-30T15:54:43Z</time></trkpt><trkpt lat="42.97619812026889" lon="11.063645206012088"><ele>84.0</ele><time>2026-04-30T15:54:44Z</time></trkpt><trkpt lat="42.97603062850385" lon="11.063443350950758"><ele>84.0</ele><time>2026-04-30T15:54:45Z</time></trkpt><trkpt lat="42.975875017688004" lon="11.063244300299905"><ele>84.0</ele><time>2026-04-30T15:54:46Z</time></trkpt><trkpt lat="42.97573052499865" lon="11.063053678575296"><ele>84.0</ele><time>2026-04-30T15:54:47Z</time></trkpt><trkpt lat="42.975596527579725" lon="11.062863582601215"><ele>84.0</ele><time>2026-04-30T15:54:48Z</time></trkpt><trkpt lat="42.975463376248946" lon="11.062663185080314"><ele>84.0</ele><time>2026-04-30T15:54:49Z</time></trkpt><trkpt lat="42.97534780537837" lon="11.062435315069045"><ele>83.66666666666667</ele><time>2026-04-30T15:54:50Z</time></trkpt><trkpt lat="42.975238250342294" lon="11.062206739989511"><ele>83.33333333333334</ele><time>2026-04-30T15:54:51Z</time></trkpt><trkpt lat="42.975127737585886" lon="11.061967759566294"><ele>83.0</ele><time>2026-04-30T15:54:52Z</time></trkpt><trkpt lat="42.97501043843963" lon="11.061730956492031"><ele>82.0</ele><time>2026-04-30T15:54:53Z</time></trkpt><trkpt lat="42.97490029835654" lon="11.06150153260626"><ele>81.0</ele><time>2026-04-30T15:54:54Z</time></trkpt><trkpt lat="42.97478697795577" lon="11.061270492168951"><ele>80.0</ele><time>2026-04-30T15:54:55Z</time></trkpt><trkpt lat="42.97466852404215" lon="11.061025126581322"><ele>80.0</ele><time>2026-04-30T15:54:56Z</time></trkpt><trkpt lat="42.97455296322453" lon="11.060778243407908"><ele>80.0</ele><time>2026-04-30T15:54:57Z</time></trkpt><trkpt lat="42.9744366060322" lon="11.060537991311527"><ele>80.0</ele><time>2026-04-30T15:54:58Z</time></trkpt><trkpt lat="42.974324609558614" lon="11.060294215947728"><ele>80.0</ele><time>2026-04-30T15:54:59Z</time></trkpt><trkpt lat="42.974217983778274" lon="11.060048689976458"><ele>80.0</ele><time>2026-04-30T15:55:00Z</time></trkpt><trkpt lat="42.97411175775078" lon="11.059803852644823"><ele>80.0</ele><time>2026-04-30T15:55:01Z</time></trkpt><trkpt lat="42.97400600226586" lon="11.059559963282624"><ele>79.33333333333334</ele><time>2026-04-30T15:55:02Z</time></trkpt><trkpt lat="42.9739165798344" lon="11.059289293479141"><ele>78.66666666666667</ele><time>2026-04-30T15:55:03Z</time></trkpt><trkpt lat="42.97385011212834" lon="11.05900778304113"><ele>78.0</ele><time>2026-04-30T15:55:04Z</time></trkpt><trkpt lat="42.9737967756278" lon="11.058723505191383"><ele>77.33333333333333</ele><time>2026-04-30T15:55:05Z</time></trkpt><trkpt lat="42.97373703042348" lon="11.058439486122262"><ele>76.66666666666666</ele><time>2026-04-30T15:55:06Z</time></trkpt><trkpt lat="42.973671895906435" lon="11.058154137143275"><ele>76.0</ele><time>2026-04-30T15:55:07Z</time></trkpt><trkpt lat="42.97360960650793" lon="11.057868992586574"><ele>75.0</ele><time>2026-04-30T15:55:08Z</time></trkpt><trkpt lat="42.973546641349" lon="11.057585382671574"><ele>74.0</ele><time>2026-04-30T15:55:09Z</time></trkpt><trkpt lat="42.97348482192077" lon="11.057298663845138"><ele>73.0</ele><time>2026-04-30T15:55:10Z</time></trkpt><trkpt lat="42.97342606402155" lon="11.057020776677899"><ele>71.33333333333333</ele><time>2026-04-30T15:55:11Z</time></trkpt><trkpt lat="42.97336515361042" lon="11.05674844611804"><ele>69.66666666666667</ele><time>2026-04-30T15:55:12Z</time></trkpt><trkpt lat="42.97330133326072" lon="11.056483171407141"><ele>68.0</ele><time>2026-04-30T15:55:13Z</time></trkpt><trkpt lat="42.97322874150127" lon="11.05621893651674"><ele>66.33333333333334</ele><time>2026-04-30T15:55:14Z</time></trkpt><trkpt lat="42.973143004591684" lon="11.055964992909407"><ele>64.66666666666667</ele><time>2026-04-30T15:55:15Z</time></trkpt><trkpt lat="42.9730471333147" lon="11.055729213452224"><ele>63.0</ele><time>2026-04-30T15:55:16Z</time></trkpt><trkpt lat="42.972944804121404" lon="11.055487840964929"><ele>62.0</ele><time>2026-04-30T15:55:17Z</time></trkpt><trkpt lat="42.972838868337206" lon="11.055249706527755"><ele>61.0</ele><time>2026-04-30T15:55:18Z</time></trkpt><trkpt lat="42.97273158988058" lon="11.055011373236422"><ele>60.0</ele><time>2026-04-30T15:55:19Z</time></trkpt><trkpt lat="42.97263152050926" lon="11.05477771142655"><ele>59.33333333333333</ele><time>2026-04-30T15:55:20Z</time></trkpt><trkpt lat="42.972533717436995" lon="11.054540835713304"><ele>58.666666666666664</ele><time>2026-04-30T15:55:21Z</time></trkpt><trkpt lat="42.9724322335947" lon="11.05430666453547"><ele>58.0</ele><time>2026-04-30T15:55:22Z</time></trkpt><trkpt lat="42.97232349432129" lon="11.054081228105439"><ele>56.666666666666664</ele><time>2026-04-30T15:55:23Z</time></trkpt><trkpt lat="42.97220150663731" lon="11.053882437453492"><ele>55.33333333333333</ele><time>2026-04-30T15:55:24Z</time></trkpt><trkpt lat="42.97208313693276" lon="11.053671855800713"><ele>54.0</ele><time>2026-04-30T15:55:25Z</time></trkpt><trkpt lat="42.97197047830006" lon="11.053460372183167"><ele>54.66666666666667</ele><time>2026-04-30T15:55:26Z</time></trkpt><trkpt lat="42.97186402016893" lon="11.053245731960695"><ele>55.333333333333336</ele><time>2026-04-30T15:55:27Z</time></trkpt><trkpt lat="42.971752611829" lon="11.053029135620006"><ele>56.0</ele><time>2026-04-30T15:55:28Z</time></trkpt><trkpt lat="42.971641154568694" lon="11.052807869138896"><ele>56.0</ele><time>2026-04-30T15:55:29Z</time></trkpt><trkpt lat="42.97152535356326" lon="11.052574591556503"><ele>56.0</ele><time>2026-04-30T15:55:30Z</time></trkpt><trkpt lat="42.97141128555087" lon="11.05233386443633"><ele>56.0</ele><time>2026-04-30T15:55:31Z</time></trkpt><trkpt lat="42.97130853299936" lon="11.052084477669109"><ele>57.333333333333336</ele><time>2026-04-30T15:55:32Z</time></trkpt><trkpt lat="42.9712256884812" lon="11.051817603933497"><ele>58.66666666666667</ele><time>2026-04-30T15:55:33Z</time></trkpt><trkpt lat="42.971134979211776" lon="11.051552697720311"><ele>60.0</ele><time>2026-04-30T15:55:34Z</time></trkpt><trkpt lat="42.971028071354695" lon="11.05127509423634"><ele>60.0</ele><time>2026-04-30T15:55:35Z</time></trkpt><trkpt lat="42.97092807619996" lon="11.050997304372103"><ele>60.0</ele><time>2026-04-30T15:55:36Z</time></trkpt><trkpt lat="42.97082898004062" lon="11.05072359590156"><ele>58.0</ele><time>2026-04-30T15:55:37Z</time></trkpt><trkpt lat="42.97072646006307" lon="11.050454589039502"><ele>56.0</ele><time>2026-04-30T15:55:38Z</time></trkpt><trkpt lat="42.97062441453403" lon="11.050184439037817"><ele>54.0</ele><time>2026-04-30T15:55:39Z</time></trkpt><trkpt lat="42.970523385901906" lon="11.04992130249639"><ele>54.0</ele><time>2026-04-30T15:55:40Z</time></trkpt><trkpt lat="42.970427221709016" lon="11.049657920034551"><ele>54.0</ele><time>2026-04-30T15:55:41Z</time></trkpt><trkpt lat="42.97033674471446" lon="11.049384132006452"><ele>54.0</ele><time>2026-04-30T15:55:42Z</time></trkpt><trkpt lat="42.97025696630546" lon="11.049110490282395"><ele>54.66666666666667</ele><time>2026-04-30T15:55:43Z</time></trkpt><trkpt lat="42.97019342508169" lon="11.048834434839227"><ele>55.333333333333336</ele><time>2026-04-30T15:55:44Z</time></trkpt><trkpt lat="42.97014470931726" lon="11.048554157281004"><ele>56.0</ele><time>2026-04-30T15:55:45Z</time></trkpt><trkpt lat="42.97010090550667" lon="11.04825362307873"><ele>58.0</ele><time>2026-04-30T15:55:46Z</time></trkpt><trkpt lat="42.9700672118739" lon="11.04794192375697"><ele>60.0</ele><time>2026-04-30T15:55:47Z</time></trkpt><trkpt lat="42.97004969781349" lon="11.047624442763508"><ele>61.0</ele><time>2026-04-30T15:55:48Z</time></trkpt><trkpt lat="42.97005098020121" lon="11.047297650702255"><ele>62.0</ele><time>2026-04-30T15:55:49Z</time></trkpt><trkpt lat="42.97006800166798" lon="11.046970740820504"><ele>62.0</ele><time>2026-04-30T15:55:50Z</time></trkpt><trkpt lat="42.970083417472" lon="11.046652491545931"><ele>62.0</ele><time>2026-04-30T15:55:51Z</time></trkpt><trkpt lat="42.97009769720208" lon="11.046356834563465"><ele>62.333333333333336</ele><time>2026-04-30T15:55:52Z</time></trkpt><trkpt lat="42.97010922317565" lon="11.046075732553541"><ele>62.66666666666667</ele><time>2026-04-30T15:55:53Z</time></trkpt><trkpt lat="42.97011501764513" lon="11.045802796113435"><ele>63.0</ele><time>2026-04-30T15:55:54Z</time></trkpt><trkpt lat="42.97012394046638" lon="11.045548681843712"><ele>63.0</ele><time>2026-04-30T15:55:55Z</time></trkpt><trkpt lat="42.970133024237725" lon="11.045321346730056"><ele>63.0</ele><time>2026-04-30T15:55:56Z</time></trkpt><trkpt lat="42.97013995505133" lon="11.045113842189753"><ele>63.0</ele><time>2026-04-30T15:55:57Z</time></trkpt><trkpt lat="42.97014093658406" lon="11.04492848949118"><ele>63.0</ele><time>2026-04-30T15:55:58Z</time></trkpt><trkpt lat="42.9701391254734" lon="11.044757640329994"><ele>63.0</ele><time>2026-04-30T15:55:59Z</time></trkpt><trkpt lat="42.97012941496695" lon="11.044592040696157"><ele>63.0</ele><time>2026-04-30T15:56:00Z</time></trkpt><trkpt lat="42.97010104617641" lon="11.044424719715249"><ele>63.0</ele><time>2026-04-30T15:56:01Z</time></trkpt><trkpt lat="42.970057213064294" lon="11.044257315390313"><ele>62.75</ele><time>2026-04-30T15:56:02Z</time></trkpt><trkpt lat="42.97001135466516" lon="11.044100359126114"><ele>62.5</ele><time>2026-04-30T15:56:03Z</time></trkpt><trkpt lat="42.96996845094864" lon="11.043938205388082"><ele>62.25</ele><time>2026-04-30T15:56:04Z</time></trkpt><trkpt lat="42.969924902926444" lon="11.043777050705058"><ele>62.0</ele><time>2026-04-30T15:56:05Z</time></trkpt><trkpt lat="42.96988209831572" lon="11.043616509363147"><ele>62.0</ele><time>2026-04-30T15:56:06Z</time></trkpt><trkpt lat="42.96983593469952" lon="11.043456654023508"><ele>62.0</ele><time>2026-04-30T15:56:07Z</time></trkpt><trkpt lat="42.969788804431275" lon="11.043295979375381"><ele>62.0</ele><time>2026-04-30T15:56:08Z</time></trkpt><trkpt lat="42.96975094099504" lon="11.043139923164645"><ele>62.0</ele><time>2026-04-30T15:56:09Z</time></trkpt><trkpt lat="42.96972094956635" lon="11.042975438194171"><ele>62.0</ele><time>2026-04-30T15:56:10Z</time></trkpt><trkpt lat="42.96970011394213" lon="11.042814045772092"><ele>62.0</ele><time>2026-04-30T15:56:11Z</time></trkpt><trkpt lat="42.96969134189693" lon="11.042645958761842"><ele>62.0</ele><time>2026-04-30T15:56:12Z</time></trkpt><trkpt lat="42.969699618536666" lon="11.0424805046759"><ele>62.0</ele><time>2026-04-30T15:56:13Z</time></trkpt><trkpt lat="42.969721298704606" lon="11.042315882432117"><ele>61.75</ele><time>2026-04-30T15:56:14Z</time></trkpt><trkpt lat="42.969754149420986" lon="11.042150864839956"><ele>61.5</ele><time>2026-04-30T15:56:15Z</time></trkpt><trkpt lat="42.969796864729254" lon="11.041991798981085"><ele>61.25</ele><time>2026-04-30T15:56:16Z</time></trkpt><trkpt lat="42.969833002627254" lon="11.041828294221949"><ele>61.0</ele><time>2026-04-30T15:56:17Z</time></trkpt><trkpt lat="42.96987015604963" lon="11.041659138985947"><ele>60.75</ele><time>2026-04-30T15:56:18Z</time></trkpt><trkpt lat="42.969903731677235" lon="11.04148983738845"><ele>60.5</ele><time>2026-04-30T15:56:19Z</time></trkpt><trkpt lat="42.96993423634617" lon="11.041324219088335"><ele>60.25</ele><time>2026-04-30T15:56:20Z</time></trkpt><trkpt lat="42.96996595055591" lon="11.041160383909668"><ele>60.0</ele><time>2026-04-30T15:56:21Z</time></trkpt><trkpt lat="42.970007879798615" lon="11.041003805684865"><ele>60.25</ele><time>2026-04-30T15:56:22Z</time></trkpt><trkpt lat="42.970044166358015" lon="11.040847552232847"><ele>60.5</ele><time>2026-04-30T15:56:23Z</time></trkpt><trkpt lat="42.97007279778592" lon="11.0406900571461"><ele>60.75</ele><time>2026-04-30T15:56:24Z</time></trkpt><trkpt lat="42.97010159471995" lon="11.040528018558986"><ele>61.0</ele><time>2026-04-30T15:56:25Z</time></trkpt><trkpt lat="42.970132213565606" lon="11.040367309874833"><ele>61.0</ele><time>2026-04-30T15:56:26Z</time></trkpt><trkpt lat="42.97016448796365" lon="11.040204202922268"><ele>61.0</ele><time>2026-04-30T15:56:27Z</time></trkpt><trkpt lat="42.97019721725938" lon="11.040036261368408"><ele>61.0</ele><time>2026-04-30T15:56:28Z</time></trkpt><trkpt lat="42.97023029967363" lon="11.039866754733405"><ele>61.0</ele><time>2026-04-30T15:56:29Z</time></trkpt><trkpt lat="42.97026289505246" lon="11.039693206972688"><ele>61.0</ele><time>2026-04-30T15:56:30Z</time></trkpt><trkpt lat="42.970301495919365" lon="11.039520466562495"><ele>61.0</ele><time>2026-04-30T15:56:31Z</time></trkpt><trkpt lat="42.970334764608396" lon="11.039345587760847"><ele>61.0</ele><time>2026-04-30T15:56:32Z</time></trkpt><trkpt lat="42.970371297636106" lon="11.039171994262354"><ele>61.0</ele><time>2026-04-30T15:56:33Z</time></trkpt><trkpt lat="42.970407939141474" lon="11.038999245246348"><ele>61.0</ele><time>2026-04-30T15:56:34Z</time></trkpt><trkpt lat="42.97044286572343" lon="11.038830739855296"><ele>61.0</ele><time>2026-04-30T15:56:35Z</time></trkpt><trkpt lat="42.97048001640056" lon="11.038659884293365"><ele>61.0</ele><time>2026-04-30T15:56:36Z</time></trkpt><trkpt lat="42.97051548300202" lon="11.038493511080995"><ele>61.0</ele><time>2026-04-30T15:56:37Z</time></trkpt><trkpt lat="42.970548574847314" lon="11.038325506335006"><ele>61.75</ele><time>2026-04-30T15:56:38Z</time></trkpt><trkpt lat="42.97058104758842" lon="11.038163326161039"><ele>62.5</ele><time>2026-04-30T15:56:39Z</time></trkpt><trkpt lat="42.97060267759133" lon="11.037997289364041"><ele>63.25</ele><time>2026-04-30T15:56:40Z</time></trkpt><trkpt lat="42.970641611418685" lon="11.037828401796139"><ele>64.0</ele><time>2026-04-30T15:56:41Z</time></trkpt><trkpt lat="42.97068427249156" lon="11.037664058026609"><ele>64.0</ele><time>2026-04-30T15:56:42Z</time></trkpt><trkpt lat="42.970719790652" lon="11.03751126281935"><ele>64.0</ele><time>2026-04-30T15:56:43Z</time></trkpt><trkpt lat="42.97074365636861" lon="11.037358339727678"><ele>64.0</ele><time>2026-04-30T15:56:44Z</time></trkpt><trkpt lat="42.97077855372207" lon="11.037209724776643"><ele>64.0</ele><time>2026-04-30T15:56:45Z</time></trkpt><trkpt lat="42.97082011729437" lon="11.037057037225129"><ele>64.5</ele><time>2026-04-30T15:56:46Z</time></trkpt><trkpt lat="42.97086860604394" lon="11.036898943667177"><ele>65.0</ele><time>2026-04-30T15:56:47Z</time></trkpt><trkpt lat="42.970923381296785" lon="11.036754008345225"><ele>65.5</ele><time>2026-04-30T15:56:48Z</time></trkpt><trkpt lat="42.970972856179614" lon="11.036599875471616"><ele>66.0</ele><time>2026-04-30T15:56:49Z</time></trkpt><trkpt lat="42.97102265796756" lon="11.036441472599195"><ele>65.2</ele><time>2026-04-30T15:56:50Z</time></trkpt><trkpt lat="42.97107328481108" lon="11.036291344920963"><ele>64.39999999999999</ele><time>2026-04-30T15:56:51Z</time></trkpt><trkpt lat="42.97112915921815" lon="11.036155087548908"><ele>63.6</ele><time>2026-04-30T15:56:52Z</time></trkpt><trkpt lat="42.97117512999122" lon="11.036030504952997"><ele>62.8</ele><time>2026-04-30T15:56:53Z</time></trkpt><trkpt lat="42.97121372979108" lon="11.035904448514492"><ele>62.0</ele><time>2026-04-30T15:56:54Z</time></trkpt><trkpt lat="42.97125346423708" lon="11.035789090729242"><ele>61.8</ele><time>2026-04-30T15:56:55Z</time></trkpt><trkpt lat="42.97128449884502" lon="11.035683894064459"><ele>61.6</ele><time>2026-04-30T15:56:56Z</time></trkpt><trkpt lat="42.97132021868907" lon="11.035586479413688"><ele>61.39999999999999</ele><time>2026-04-30T15:56:57Z</time></trkpt><trkpt lat="42.971367902880516" lon="11.035481499626618"><ele>61.199999999999996</ele><time>2026-04-30T15:56:58Z</time></trkpt><trkpt lat="42.97141055438813" lon="11.03535685127393"><ele>61.0</ele><time>2026-04-30T15:56:59Z</time></trkpt><trkpt lat="42.971455804701755" lon="11.0352242100026"><ele>61.0</ele><time>2026-04-30T15:57:00Z</time></trkpt><trkpt lat="42.97149799885824" lon="11.035100676186898"><ele>60.99999999999999</ele><time>2026-04-30T15:57:01Z</time></trkpt><trkpt lat="42.97153900155322" lon="11.03498063067145"><ele>60.99999999999999</ele><time>2026-04-30T15:57:02Z</time></trkpt><trkpt lat="42.97157771065383" lon="11.034867300215044"><ele>61.0</ele><time>2026-04-30T15:57:03Z</time></trkpt><trkpt lat="42.97160834781374" lon="11.034733697901698"><ele>61.0</ele><time>2026-04-30T15:57:04Z</time></trkpt><trkpt lat="42.97165770955387" lon="11.034596240784408"><ele>60.75</ele><time>2026-04-30T15:57:05Z</time></trkpt><trkpt lat="42.9717127963064" lon="11.034452804243408"><ele>60.5</ele><time>2026-04-30T15:57:06Z</time></trkpt><trkpt lat="42.971763218571986" lon="11.03429605586406"><ele>60.25</ele><time>2026-04-30T15:57:07Z</time></trkpt><trkpt lat="42.97181701384208" lon="11.03413461918566"><ele>60.0</ele><time>2026-04-30T15:57:08Z</time></trkpt><trkpt lat="42.971877356070166" lon="11.033974854257156"><ele>59.5</ele><time>2026-04-30T15:57:09Z</time></trkpt><trkpt lat="42.97193926828708" lon="11.03381541119269"><ele>59.0</ele><time>2026-04-30T15:57:10Z</time></trkpt><trkpt lat="42.97199603185344" lon="11.033647314133752"><ele>58.5</ele><time>2026-04-30T15:57:11Z</time></trkpt><trkpt lat="42.972054942167645" lon="11.033484596376923"><ele>58.0</ele><time>2026-04-30T15:57:12Z</time></trkpt><trkpt lat="42.97211287026003" lon="11.033319828639678"><ele>57.5</ele><time>2026-04-30T15:57:13Z</time></trkpt><trkpt lat="42.97216905849565" lon="11.03315386486638"><ele>57.0</ele><time>2026-04-30T15:57:14Z</time></trkpt><trkpt lat="42.972229750271424" lon="11.032981348757646"><ele>56.5</ele><time>2026-04-30T15:57:15Z</time></trkpt><trkpt lat="42.97229100190653" lon="11.032803499858964"><ele>56.0</ele><time>2026-04-30T15:57:16Z</time></trkpt><trkpt lat="42.97234591631982" lon="11.032627947432632"><ele>56.0</ele><time>2026-04-30T15:57:17Z</time></trkpt><trkpt lat="42.972404968124295" lon="11.03245715171247"><ele>56.0</ele><time>2026-04-30T15:57:18Z</time></trkpt><trkpt lat="42.97246275703833" lon="11.032283808064681"><ele>56.0</ele><time>2026-04-30T15:57:19Z</time></trkpt><trkpt lat="42.97251681301306" lon="11.03210874216051"><ele>56.0</ele><time>2026-04-30T15:57:20Z</time></trkpt><trkpt lat="42.9725717800359" lon="11.031928546261259"><ele>56.25</ele><time>2026-04-30T15:57:21Z</time></trkpt><trkpt lat="42.9726341378208" lon="11.03175093079066"><ele>56.5</ele><time>2026-04-30T15:57:22Z</time></trkpt><trkpt lat="42.97269614878144" lon="11.031570801043205"><ele>56.75</ele><time>2026-04-30T15:57:23Z</time></trkpt><trkpt lat="42.972756937881464" lon="11.031388830709655"><ele>57.0</ele><time>2026-04-30T15:57:24Z</time></trkpt><trkpt lat="42.9728198369162" lon="11.031213537029997"><ele>57.0</ele><time>2026-04-30T15:57:25Z</time></trkpt><trkpt lat="42.972880184404794" lon="11.031035793650497"><ele>57.0</ele><time>2026-04-30T15:57:26Z</time></trkpt><trkpt lat="42.97294055601194" lon="11.030857047718579"><ele>57.0</ele><time>2026-04-30T15:57:27Z</time></trkpt><trkpt lat="42.972996695759484" lon="11.030675730383066"><ele>57.0</ele><time>2026-04-30T15:57:28Z</time></trkpt><trkpt lat="42.973061894467705" lon="11.030499468359757"><ele>57.0</ele><time>2026-04-30T15:57:29Z</time></trkpt><trkpt lat="42.9731223828209" lon="11.03031945368876"><ele>57.0</ele><time>2026-04-30T15:57:30Z</time></trkpt><trkpt lat="42.973184575509904" lon="11.030140299521698"><ele>57.0</ele><time>2026-04-30T15:57:31Z</time></trkpt><trkpt lat="42.973244461322494" lon="11.029958027638623"><ele>57.0</ele><time>2026-04-30T15:57:32Z</time></trkpt><trkpt lat="42.973303257813306" lon="11.029776737126205"><ele>56.5</ele><time>2026-04-30T15:57:33Z</time></trkpt><trkpt lat="42.97336564461653" lon="11.029593164283755"><ele>56.0</ele><time>2026-04-30T15:57:34Z</time></trkpt><trkpt lat="42.97342917977102" lon="11.0294060661397"><ele>55.5</ele><time>2026-04-30T15:57:35Z</time></trkpt><trkpt lat="42.973492603909136" lon="11.029221092990005"><ele>55.0</ele><time>2026-04-30T15:57:36Z</time></trkpt><trkpt lat="42.9735567413164" lon="11.029039886568958"><ele>56.5</ele><time>2026-04-30T15:57:37Z</time></trkpt><trkpt lat="42.973617961462516" lon="11.028861751177017"><ele>58.0</ele><time>2026-04-30T15:57:38Z</time></trkpt><trkpt lat="42.9736788005303" lon="11.028681652451247"><ele>59.5</ele><time>2026-04-30T15:57:39Z</time></trkpt><trkpt lat="42.973742273215436" lon="11.02850430662597"><ele>61.0</ele><time>2026-04-30T15:57:40Z</time></trkpt><trkpt lat="42.97380467703293" lon="11.028328199095288"><ele>61.5</ele><time>2026-04-30T15:57:41Z</time></trkpt><trkpt lat="42.97387073132818" lon="11.028151546662132"><ele>62.0</ele><time>2026-04-30T15:57:42Z</time></trkpt><trkpt lat="42.97393314468995" lon="11.027974252031598"><ele>62.5</ele><time>2026-04-30T15:57:43Z</time></trkpt><trkpt lat="42.973998043462935" lon="11.027796021687152"><ele>63.0</ele><time>2026-04-30T15:57:44Z</time></trkpt><trkpt lat="42.97405901236766" lon="11.027619109983526"><ele>62.5</ele><time>2026-04-30T15:57:45Z</time></trkpt><trkpt lat="42.974122893441724" lon="11.027440139831556"><ele>62.0</ele><time>2026-04-30T15:57:46Z</time></trkpt><trkpt lat="42.974199444746844" lon="11.027271775686023"><ele>61.5</ele><time>2026-04-30T15:57:47Z</time></trkpt><trkpt lat="42.97428285179269" lon="11.02711006211247"><ele>61.0</ele><time>2026-04-30T15:57:48Z</time></trkpt><trkpt lat="42.9743798703084" lon="11.026971569922074"><ele>61.0</ele><time>2026-04-30T15:57:49Z</time></trkpt><trkpt lat="42.97449380696489" lon="11.026830332885902"><ele>61.0</ele><time>2026-04-30T15:57:50Z</time></trkpt><trkpt lat="42.97460100516836" lon="11.026679570897949"><ele>61.0</ele><time>2026-04-30T15:57:51Z</time></trkpt><trkpt lat="42.97471378043377" lon="11.026554672557863"><ele>61.0</ele><time>2026-04-30T15:57:52Z</time></trkpt><trkpt lat="42.97484046619898" lon="11.02645481969223"><ele>61.0</ele><time>2026-04-30T15:57:53Z</time></trkpt><trkpt lat="42.97495216534099" lon="11.026324579344614"><ele>61.0</ele><time>2026-04-30T15:57:54Z</time></trkpt><trkpt lat="42.97507650500303" lon="11.026215360156218"><ele>61.0</ele><time>2026-04-30T15:57:55Z</time></trkpt><trkpt lat="42.97519503537856" lon="11.026101201729023"><ele>61.25</ele><time>2026-04-30T15:57:56Z</time></trkpt><trkpt lat="42.97531533996056" lon="11.02599558662749"><ele>61.5</ele><time>2026-04-30T15:57:57Z</time></trkpt><trkpt lat="42.975432021361016" lon="11.025889344148714"><ele>61.75</ele><time>2026-04-30T15:57:58Z</time></trkpt><trkpt lat="42.97554961853321" lon="11.02578050285318"><ele>62.0</ele><time>2026-04-30T15:57:59Z</time></trkpt><trkpt lat="42.97566526998456" lon="11.02566730225662"><ele>62.0</ele><time>2026-04-30T15:58:00Z</time></trkpt><trkpt lat="42.97578175677742" lon="11.025557019322367"><ele>62.0</ele><time>2026-04-30T15:58:01Z</time></trkpt><trkpt lat="42.975904164854256" lon="11.025452181497524"><ele>62.0</ele><time>2026-04-30T15:58:02Z</time></trkpt><trkpt lat="42.97601913875512" lon="11.025334664641637"><ele>62.0</ele><time>2026-04-30T15:58:03Z</time></trkpt><trkpt lat="42.976123317103934" lon="11.0251989526586"><ele>62.333333333333336</ele><time>2026-04-30T15:58:04Z</time></trkpt><trkpt lat="42.97622096262353" lon="11.02504807026406"><ele>62.66666666666667</ele><time>2026-04-30T15:58:05Z</time></trkpt><trkpt lat="42.97630166848048" lon="11.02486943983114"><ele>63.0</ele><time>2026-04-30T15:58:06Z</time></trkpt><trkpt lat="42.97636268425952" lon="11.024675822135118"><ele>63.0</ele><time>2026-04-30T15:58:07Z</time></trkpt><trkpt lat="42.97640691591266" lon="11.024462001450631"><ele>63.0</ele><time>2026-04-30T15:58:08Z</time></trkpt><trkpt lat="42.97643741308515" lon="11.024236005298595"><ele>63.0</ele><time>2026-04-30T15:58:09Z</time></trkpt><trkpt lat="42.97646022992974" lon="11.023990087889693"><ele>63.0</ele><time>2026-04-30T15:58:10Z</time></trkpt><trkpt lat="42.97648105636702" lon="11.023736305254086"><ele>63.0</ele><time>2026-04-30T15:58:11Z</time></trkpt><trkpt lat="42.97650031693038" lon="11.023481711584859"><ele>63.0</ele><time>2026-04-30T15:58:12Z</time></trkpt><trkpt lat="42.976529967277614" lon="11.023224940657236"><ele>63.33333333333333</ele><time>2026-04-30T15:58:13Z</time></trkpt><trkpt lat="42.97655928727675" lon="11.02297547238472"><ele>63.666666666666664</ele><time>2026-04-30T15:58:14Z</time></trkpt><trkpt lat="42.97658869803138" lon="11.022729850753059"><ele>64.0</ele><time>2026-04-30T15:58:15Z</time></trkpt><trkpt lat="42.976614909087345" lon="11.022484389441157"><ele>64.66666666666666</ele><time>2026-04-30T15:58:16Z</time></trkpt><trkpt lat="42.97663996695466" lon="11.022237309761843"><ele>65.33333333333333</ele><time>2026-04-30T15:58:17Z</time></trkpt><trkpt lat="42.97666422708033" lon="11.021988829312"><ele>66.0</ele><time>2026-04-30T15:58:18Z</time></trkpt><trkpt lat="42.97669118233669" lon="11.021739204187893"><ele>67.0</ele><time>2026-04-30T15:58:19Z</time></trkpt><trkpt lat="42.97671697007271" lon="11.021489290498605"><ele>68.0</ele><time>2026-04-30T15:58:20Z</time></trkpt><trkpt lat="42.97674361872225" lon="11.02123993136623"><ele>69.0</ele><time>2026-04-30T15:58:21Z</time></trkpt><trkpt lat="42.976772117924774" lon="11.020994147018046"><ele>69.66666666666667</ele><time>2026-04-30T15:58:22Z</time></trkpt><trkpt lat="42.97679940184592" lon="11.020747069484843"><ele>70.33333333333334</ele><time>2026-04-30T15:58:23Z</time></trkpt><trkpt lat="42.9768211421908" lon="11.020498764346943"><ele>71.0</ele><time>2026-04-30T15:58:24Z</time></trkpt><trkpt lat="42.976843812866186" lon="11.020249190161595"><ele>71.0</ele><time>2026-04-30T15:58:25Z</time></trkpt><trkpt lat="42.97686787449568" lon="11.020001677479867"><ele>71.0</ele><time>2026-04-30T15:58:26Z</time></trkpt><trkpt lat="42.97689418046834" lon="11.019752961395916"><ele>71.0</ele><time>2026-04-30T15:58:27Z</time></trkpt><trkpt lat="42.97692193302684" lon="11.019506660793004"><ele>71.66666666666667</ele><time>2026-04-30T15:58:28Z</time></trkpt><trkpt lat="42.97694911281517" lon="11.019262495769349"><ele>72.33333333333333</ele><time>2026-04-30T15:58:29Z</time></trkpt><trkpt lat="42.97697299220354" lon="11.019023716967553"><ele>73.0</ele><time>2026-04-30T15:58:30Z</time></trkpt><trkpt lat="42.97699618066175" lon="11.01878497361704"><ele>73.33333333333333</ele><time>2026-04-30T15:58:31Z</time></trkpt><trkpt lat="42.97701861233288" lon="11.018547201319203"><ele>73.66666666666667</ele><time>2026-04-30T15:58:32Z</time></trkpt><trkpt lat="42.97704336042871" lon="11.018307715303246"><ele>74.0</ele><time>2026-04-30T15:58:33Z</time></trkpt><trkpt lat="42.977079927354" lon="11.018063814882236"><ele>75.0</ele><time>2026-04-30T15:58:34Z</time></trkpt><trkpt lat="42.97713338349901" lon="11.017821977201166"><ele>76.0</ele><time>2026-04-30T15:58:35Z</time></trkpt><trkpt lat="42.97720302604139" lon="11.017586479657597"><ele>77.0</ele><time>2026-04-30T15:58:36Z</time></trkpt><trkpt lat="42.97728537877265" lon="11.017355879451998"><ele>78.0</ele><time>2026-04-30T15:58:37Z</time></trkpt><trkpt lat="42.97737724687284" lon="11.01713166223732"><ele>79.0</ele><time>2026-04-30T15:58:38Z</time></trkpt><trkpt lat="42.97748021893828" lon="11.016919572660745"><ele>80.0</ele><time>2026-04-30T15:58:39Z</time></trkpt><trkpt lat="42.9775950239499" lon="11.016716429786502"><ele>80.66666666666667</ele><time>2026-04-30T15:58:40Z</time></trkpt><trkpt lat="42.97771260438691" lon="11.01652074069861"><ele>81.33333333333333</ele><time>2026-04-30T15:58:41Z</time></trkpt><trkpt lat="42.977826323315846" lon="11.01632392206077"><ele>82.0</ele><time>2026-04-30T15:58:42Z</time></trkpt><trkpt lat="42.9779361058492" lon="11.016124793189288"><ele>82.0</ele><time>2026-04-30T15:58:43Z</time></trkpt><trkpt lat="42.97804205997754" lon="11.015928222111407"><ele>82.0</ele><time>2026-04-30T15:58:44Z</time></trkpt><trkpt lat="42.9781469459995" lon="11.015731609291162"><ele>82.0</ele><time>2026-04-30T15:58:45Z</time></trkpt><trkpt lat="42.97825085198657" lon="11.015539859055789"><ele>83.33333333333333</ele><time>2026-04-30T15:58:46Z</time></trkpt><trkpt lat="42.978349516535644" lon="11.015350214734296"><ele>84.66666666666667</ele><time>2026-04-30T15:58:47Z</time></trkpt><trkpt lat="42.97844045021378" lon="11.015163007821158"><ele>86.0</ele><time>2026-04-30T15:58:48Z</time></trkpt><trkpt lat="42.978532763865324" lon="11.01498954096966"><ele>86.33333333333334</ele><time>2026-04-30T15:58:49Z</time></trkpt><trkpt lat="42.97862660926261" lon="11.014820329170691"><ele>86.66666666666667</ele><time>2026-04-30T15:58:50Z</time></trkpt><trkpt lat="42.978724040784805" lon="11.014650914825866"><ele>87.0</ele><time>2026-04-30T15:58:51Z</time></trkpt><trkpt lat="42.97882043704765" lon="11.014479831381378"><ele>87.0</ele><time>2026-04-30T15:58:52Z</time></trkpt><trkpt lat="42.978913908768135" lon="11.014301198319163"><ele>87.0</ele><time>2026-04-30T15:58:53Z</time></trkpt><trkpt lat="42.97900895962107" lon="11.014110372801687"><ele>87.0</ele><time>2026-04-30T15:58:54Z</time></trkpt><trkpt lat="42.97910217670468" lon="11.013920751381942"><ele>87.0</ele><time>2026-04-30T15:58:55Z</time></trkpt><trkpt lat="42.979200296704335" lon="11.01372167301776"><ele>87.0</ele><time>2026-04-30T15:58:56Z</time></trkpt><trkpt lat="42.97930329366811" lon="11.013524985055628"><ele>87.0</ele><time>2026-04-30T15:58:57Z</time></trkpt><trkpt lat="42.97940330268287" lon="11.013322629620314"><ele>82.33333333333333</ele><time>2026-04-30T15:58:58Z</time></trkpt><trkpt lat="42.97950731800672" lon="11.013123294140344"><ele>77.66666666666666</ele><time>2026-04-30T15:58:59Z</time></trkpt><trkpt lat="42.979605960222514" lon="11.012921388748165"><ele>73.0</ele><time>2026-04-30T15:59:00Z</time></trkpt><trkpt lat="42.979705063426564" lon="11.012715727373514"><ele>73.0</ele><time>2026-04-30T15:59:01Z</time></trkpt><trkpt lat="42.97980839054707" lon="11.012513628687888"><ele>73.0</ele><time>2026-04-30T15:59:02Z</time></trkpt><trkpt lat="42.97990962468239" lon="11.012311222161149"><ele>73.0</ele><time>2026-04-30T15:59:03Z</time></trkpt><trkpt lat="42.9800092789819" lon="11.012105133965404"><ele>74.0</ele><time>2026-04-30T15:59:04Z</time></trkpt><trkpt lat="42.98010688124202" lon="11.011899000177808"><ele>75.0</ele><time>2026-04-30T15:59:05Z</time></trkpt><trkpt lat="42.9802074620842" lon="11.011698422670161"><ele>76.0</ele><time>2026-04-30T15:59:06Z</time></trkpt><trkpt lat="42.98031031924803" lon="11.011495622535875"><ele>73.66666666666666</ele><time>2026-04-30T15:59:07Z</time></trkpt><trkpt lat="42.98040726070881" lon="11.011294101894542"><ele>71.33333333333333</ele><time>2026-04-30T15:59:08Z</time></trkpt><trkpt lat="42.9805001608271" lon="11.011062473818908"><ele>69.0</ele><time>2026-04-30T15:59:09Z</time></trkpt><trkpt lat="42.98058313168691" lon="11.010824526730644"><ele>68.0</ele><time>2026-04-30T15:59:10Z</time></trkpt><trkpt lat="42.980645933578806" lon="11.010571701422206"><ele>67.0</ele><time>2026-04-30T15:59:11Z</time></trkpt><trkpt lat="42.98069291651952" lon="11.010292940136702"><ele>66.0</ele><time>2026-04-30T15:59:12Z</time></trkpt><trkpt lat="42.9807329871153" lon="11.010002943217417"><ele>66.0</ele><time>2026-04-30T15:59:13Z</time></trkpt><trkpt lat="42.98077575375025" lon="11.009670929248564"><ele>66.0</ele><time>2026-04-30T15:59:14Z</time></trkpt><trkpt lat="42.98081768736272" lon="11.009340215844986"><ele>66.5</ele><time>2026-04-30T15:59:15Z</time></trkpt><trkpt lat="42.9808614716374" lon="11.00898920384184"><ele>67.0</ele><time>2026-04-30T15:59:16Z</time></trkpt><trkpt lat="42.980905545424726" lon="11.008642277461059"><ele>66.5</ele><time>2026-04-30T15:59:17Z</time></trkpt><trkpt lat="42.980946498529384" lon="11.008290035482355"><ele>66.0</ele><time>2026-04-30T15:59:18Z</time></trkpt><trkpt lat="42.98098979948531" lon="11.007937033725707"><ele>66.0</ele><time>2026-04-30T15:59:19Z</time></trkpt><trkpt lat="42.981034282977255" lon="11.007588470684967"><ele>66.0</ele><time>2026-04-30T15:59:20Z</time></trkpt><trkpt lat="42.981082309996005" lon="11.007250728292595"><ele>66.0</ele><time>2026-04-30T15:59:21Z</time></trkpt><trkpt lat="42.98112617709644" lon="11.006928536792943"><ele>66.0</ele><time>2026-04-30T15:59:22Z</time></trkpt><trkpt lat="42.98116057900736" lon="11.006627468885945"><ele>65.33333333333333</ele><time>2026-04-30T15:59:23Z</time></trkpt><trkpt lat="42.981200183969435" lon="11.0063388788946"><ele>64.66666666666666</ele><time>2026-04-30T15:59:24Z</time></trkpt><trkpt lat="42.98123374369785" lon="11.006066644795059"><ele>64.0</ele><time>2026-04-30T15:59:25Z</time></trkpt><trkpt lat="42.98126934014216" lon="11.00580070341732"><ele>63.33333333333333</ele><time>2026-04-30T15:59:26Z</time></trkpt><trkpt lat="42.98129952588531" lon="11.005538522207862"><ele>62.66666666666667</ele><time>2026-04-30T15:59:27Z</time></trkpt><trkpt lat="42.98133046145598" lon="11.005276959888484"><ele>62.0</ele><time>2026-04-30T15:59:28Z</time></trkpt><trkpt lat="42.98134197419984" lon="11.005008612016026"><ele>62.0</ele><time>2026-04-30T15:59:29Z</time></trkpt><trkpt lat="42.98133513277815" lon="11.004730410473732"><ele>62.0</ele><time>2026-04-30T15:59:30Z</time></trkpt><trkpt lat="42.981313617318825" lon="11.004450202380953"><ele>62.0</ele><time>2026-04-30T15:59:31Z</time></trkpt><trkpt lat="42.9812762061948" lon="11.00416626118572"><ele>61.0</ele><time>2026-04-30T15:59:32Z</time></trkpt><trkpt lat="42.98122550878912" lon="11.00390228093108"><ele>60.0</ele><time>2026-04-30T15:59:33Z</time></trkpt><trkpt lat="42.98115719212659" lon="11.003643983260288"><ele>59.0</ele><time>2026-04-30T15:59:34Z</time></trkpt><trkpt lat="42.98108575295926" lon="11.003376598328481"><ele>58.66666666666667</ele><time>2026-04-30T15:59:35Z</time></trkpt><trkpt lat="42.98102179318208" lon="11.00310483956617"><ele>58.33333333333333</ele><time>2026-04-30T15:59:36Z</time></trkpt><trkpt lat="42.98095618528297" lon="11.00284274308436"><ele>58.0</ele><time>2026-04-30T15:59:37Z</time></trkpt><trkpt lat="42.98088471433301" lon="11.002587559494447"><ele>58.0</ele><time>2026-04-30T15:59:38Z</time></trkpt><trkpt lat="42.9808098161256" lon="11.002334985707105"><ele>58.0</ele><time>2026-04-30T15:59:39Z</time></trkpt><trkpt lat="42.98073336457065" lon="11.002085389761211"><ele>58.0</ele><time>2026-04-30T15:59:40Z</time></trkpt><trkpt lat="42.98065197382322" lon="11.001842158131312"><ele>59.33333333333333</ele><time>2026-04-30T15:59:41Z</time></trkpt><trkpt lat="42.980554437393124" lon="11.001609348250593"><ele>60.66666666666667</ele><time>2026-04-30T15:59:42Z</time></trkpt><trkpt lat="42.98043921799241" lon="11.00138833509759"><ele>62.0</ele><time>2026-04-30T15:59:43Z</time></trkpt><trkpt lat="42.98031777569454" lon="11.001174482660451"><ele>62.0</ele><time>2026-04-30T15:59:44Z</time></trkpt><trkpt lat="42.980191106598454" lon="11.00094821405689"><ele>62.0</ele><time>2026-04-30T15:59:45Z</time></trkpt><trkpt lat="42.98005642771462" lon="11.000706758373422"><ele>62.0</ele><time>2026-04-30T15:59:46Z</time></trkpt><trkpt lat="42.97992867846061" lon="11.000458384628127"><ele>61.0</ele><time>2026-04-30T15:59:47Z</time></trkpt><trkpt lat="42.97981441617623" lon="11.000190094939091"><ele>60.0</ele><time>2026-04-30T15:59:48Z</time></trkpt><trkpt lat="42.97971855812379" lon="10.999905286535707"><ele>60.0</ele><time>2026-04-30T15:59:49Z</time></trkpt><trkpt lat="42.97963380608085" lon="10.999599142004287"><ele>60.0</ele><time>2026-04-30T15:59:50Z</time></trkpt><trkpt lat="42.97957731758281" lon="10.999273841756471"><ele>60.0</ele><time>2026-04-30T15:59:51Z</time></trkpt><trkpt lat="42.979541266609175" lon="10.998919081681478"><ele>60.0</ele><time>2026-04-30T15:59:52Z</time></trkpt><trkpt lat="42.97949673159606" lon="10.998580791263239"><ele>58.0</ele><time>2026-04-30T15:59:53Z</time></trkpt><trkpt lat="42.979539800355006" lon="10.998204414631472"><ele>56.0</ele><time>2026-04-30T15:59:54Z</time></trkpt><trkpt lat="42.97957322881418" lon="10.997850140221324"><ele>54.5</ele><time>2026-04-30T15:59:55Z</time></trkpt><trkpt lat="42.979635681950015" lon="10.99750182770383"><ele>53.0</ele><time>2026-04-30T15:59:56Z</time></trkpt><trkpt lat="42.97971343418481" lon="10.997157808683351"><ele>53.0</ele><time>2026-04-30T15:59:57Z</time></trkpt><trkpt lat="42.97979017560425" lon="10.996813414207539"><ele>53.0</ele><time>2026-04-30T15:59:58Z</time></trkpt><trkpt lat="42.979865628487985" lon="10.996472631213505"><ele>53.0</ele><time>2026-04-30T15:59:59Z</time></trkpt><trkpt lat="42.97994155598573" lon="10.996138162744547"><ele>53.0</ele><time>2026-04-30T16:00:00Z</time></trkpt><trkpt lat="42.98001669748364" lon="10.99580668785022"><ele>53.0</ele><time>2026-04-30T16:00:01Z</time></trkpt><trkpt lat="42.98008829797508" lon="10.995485211156193"><ele>53.0</ele><time>2026-04-30T16:00:02Z</time></trkpt><trkpt lat="42.98015932509253" lon="10.995165651912563"><ele>53.5</ele><time>2026-04-30T16:00:03Z</time></trkpt><trkpt lat="42.98022844844192" lon="10.994850067301003"><ele>54.0</ele><time>2026-04-30T16:00:04Z</time></trkpt><trkpt lat="42.98030060145019" lon="10.994533859188417"><ele>54.0</ele><time>2026-04-30T16:00:05Z</time></trkpt><trkpt lat="42.980370685542724" lon="10.99421865285823"><ele>54.0</ele><time>2026-04-30T16:00:06Z</time></trkpt><trkpt lat="42.980435396487714" lon="10.993902160637782"><ele>55.5</ele><time>2026-04-30T16:00:07Z</time></trkpt><trkpt lat="42.98050085439303" lon="10.993585776875207"><ele>57.0</ele><time>2026-04-30T16:00:08Z</time></trkpt><trkpt lat="42.98056376263626" lon="10.993266698030679"><ele>58.5</ele><time>2026-04-30T16:00:09Z</time></trkpt><trkpt lat="42.98062170984255" lon="10.992947066506723"><ele>60.0</ele><time>2026-04-30T16:00:10Z</time></trkpt><trkpt lat="42.98068546228833" lon="10.99261476050803"><ele>59.5</ele><time>2026-04-30T16:00:11Z</time></trkpt><trkpt lat="42.98075559882689" lon="10.992258952554682"><ele>59.0</ele><time>2026-04-30T16:00:12Z</time></trkpt><trkpt lat="42.98082459242664" lon="10.991900393070111"><ele>59.0</ele><time>2026-04-30T16:00:13Z</time></trkpt><trkpt lat="42.980891170163595" lon="10.991543494007473"><ele>59.0</ele><time>2026-04-30T16:00:14Z</time></trkpt><trkpt lat="42.98095564566366" lon="10.991190928926793"><ele>59.0</ele><time>2026-04-30T16:00:15Z</time></trkpt><trkpt lat="42.981020921749305" lon="10.9908469797852"><ele>59.0</ele><time>2026-04-30T16:00:16Z</time></trkpt><trkpt lat="42.98108484767908" lon="10.990509652346857"><ele>59.0</ele><time>2026-04-30T16:00:17Z</time></trkpt><trkpt lat="42.9811501134615" lon="10.990179327694188"><ele>59.0</ele><time>2026-04-30T16:00:18Z</time></trkpt><trkpt lat="42.98121215295539" lon="10.989856177405464"><ele>59.0</ele><time>2026-04-30T16:00:19Z</time></trkpt><trkpt lat="42.98127126406208" lon="10.989537058655937"><ele>59.0</ele><time>2026-04-30T16:00:20Z</time></trkpt><trkpt lat="42.98133039477817" lon="10.98921778818655"><ele>58.5</ele><time>2026-04-30T16:00:21Z</time></trkpt><trkpt lat="42.98138970329844" lon="10.988895959192927"><ele>58.0</ele><time>2026-04-30T16:00:22Z</time></trkpt><trkpt lat="42.98145103026982" lon="10.988572466777795"><ele>58.0</ele><time>2026-04-30T16:00:23Z</time></trkpt><trkpt lat="42.981512788516596" lon="10.988260594582169"><ele>58.0</ele><time>2026-04-30T16:00:24Z</time></trkpt><trkpt lat="42.98157606378627" lon="10.987953192004232"><ele>58.0</ele><time>2026-04-30T16:00:25Z</time></trkpt><trkpt lat="42.98163601362343" lon="10.987644998629202"><ele>58.0</ele><time>2026-04-30T16:00:26Z</time></trkpt><trkpt lat="42.98169637599257" lon="10.987339321628845"><ele>58.0</ele><time>2026-04-30T16:00:27Z</time></trkpt><trkpt lat="42.98175329507352" lon="10.987043266244974"><ele>58.0</ele><time>2026-04-30T16:00:28Z</time></trkpt><trkpt lat="42.98180928087011" lon="10.986745735605487"><ele>58.0</ele><time>2026-04-30T16:00:29Z</time></trkpt><trkpt lat="42.98186712599108" lon="10.986451954099367"><ele>58.0</ele><time>2026-04-30T16:00:30Z</time></trkpt><trkpt lat="42.981927361927646" lon="10.986154914936483"><ele>58.0</ele><time>2026-04-30T16:00:31Z</time></trkpt><trkpt lat="42.981985305437846" lon="10.985865435427979"><ele>58.0</ele><time>2026-04-30T16:00:32Z</time></trkpt><trkpt lat="42.982041570385334" lon="10.985570523496353"><ele>58.0</ele><time>2026-04-30T16:00:33Z</time></trkpt><trkpt lat="42.98208721997975" lon="10.985270191327531"><ele>58.0</ele><time>2026-04-30T16:00:34Z</time></trkpt><trkpt lat="42.98211106391101" lon="10.984949040709045"><ele>59.5</ele><time>2026-04-30T16:00:35Z</time></trkpt><trkpt lat="42.98210148463745" lon="10.984625032533785"><ele>61.0</ele><time>2026-04-30T16:00:36Z</time></trkpt><trkpt lat="42.98209206502973" lon="10.984312961257025"><ele>61.0</ele><time>2026-04-30T16:00:37Z</time></trkpt><trkpt lat="42.98206584991245" lon="10.983992422114799"><ele>61.0</ele><time>2026-04-30T16:00:38Z</time></trkpt><trkpt lat="42.982019453233555" lon="10.983671254285392"><ele>61.0</ele><time>2026-04-30T16:00:39Z</time></trkpt><trkpt lat="42.98195516581664" lon="10.983355186599344"><ele>61.0</ele><time>2026-04-30T16:00:40Z</time></trkpt><trkpt lat="42.98188029666434" lon="10.983045455196468"><ele>60.0</ele><time>2026-04-30T16:00:41Z</time></trkpt><trkpt lat="42.981798646196964" lon="10.982727137297559"><ele>59.0</ele><time>2026-04-30T16:00:42Z</time></trkpt><trkpt lat="42.98172042691111" lon="10.982408294619109"><ele>58.5</ele><time>2026-04-30T16:00:43Z</time></trkpt><trkpt lat="42.98164199289167" lon="10.982089306851506"><ele>58.0</ele><time>2026-04-30T16:00:44Z</time></trkpt><trkpt lat="42.981566183288045" lon="10.981774892826937"><ele>58.5</ele><time>2026-04-30T16:00:45Z</time></trkpt><trkpt lat="42.9814918540997" lon="10.981469814080972"><ele>59.0</ele><time>2026-04-30T16:00:46Z</time></trkpt><trkpt lat="42.98141739336225" lon="10.981171249884436"><ele>59.0</ele><time>2026-04-30T16:00:47Z</time></trkpt><trkpt lat="42.98134397620607" lon="10.980883813074835"><ele>59.0</ele><time>2026-04-30T16:00:48Z</time></trkpt><trkpt lat="42.98127545457759" lon="10.980614827868303"><ele>59.0</ele><time>2026-04-30T16:00:49Z</time></trkpt><trkpt lat="42.98121648293837" lon="10.980354417599246"><ele>59.0</ele><time>2026-04-30T16:00:50Z</time></trkpt><trkpt lat="42.98116957775984" lon="10.980099116813788"><ele>59.0</ele><time>2026-04-30T16:00:51Z</time></trkpt><trkpt lat="42.98113773536942" lon="10.97980924905338"><ele>59.0</ele><time>2026-04-30T16:00:52Z</time></trkpt><trkpt lat="42.98111095488219" lon="10.97950758464587"><ele>58.66666666666667</ele><time>2026-04-30T16:00:53Z</time></trkpt><trkpt lat="42.98109072877781" lon="10.9792179755846"><ele>58.33333333333333</ele><time>2026-04-30T16:00:54Z</time></trkpt><trkpt lat="42.981076891636306" lon="10.978960598195384"><ele>58.0</ele><time>2026-04-30T16:00:55Z</time></trkpt><trkpt lat="42.98106850449186" lon="10.978721802801775"><ele>58.0</ele><time>2026-04-30T16:00:56Z</time></trkpt><trkpt lat="42.9810557988881" lon="10.9784960829973"><ele>58.0</ele><time>2026-04-30T16:00:57Z</time></trkpt><trkpt lat="42.98103795595893" lon="10.978275696236436"><ele>58.0</ele><time>2026-04-30T16:00:58Z</time></trkpt><trkpt lat="42.98101948954255" lon="10.978011908885058"><ele>57.666666666666664</ele><time>2026-04-30T16:00:59Z</time></trkpt><trkpt lat="42.98100177522744" lon="10.977746307049774"><ele>57.33333333333333</ele><time>2026-04-30T16:01:00Z</time></trkpt><trkpt lat="42.98098635449216" lon="10.977513134246372"><ele>57.0</ele><time>2026-04-30T16:01:01Z</time></trkpt><trkpt lat="42.98097207336239" lon="10.977307197738225"><ele>56.66666666666667</ele><time>2026-04-30T16:01:02Z</time></trkpt><trkpt lat="42.98095700747649" lon="10.977098617120236"><ele>56.333333333333336</ele><time>2026-04-30T16:01:03Z</time></trkpt><trkpt lat="42.98094512676539" lon="10.976877390594337"><ele>56.0</ele><time>2026-04-30T16:01:04Z</time></trkpt><trkpt lat="42.98093768252849" lon="10.97665846106653"><ele>55.66666666666667</ele><time>2026-04-30T16:01:05Z</time></trkpt><trkpt lat="42.98092734933081" lon="10.976438140196088"><ele>55.33333333333333</ele><time>2026-04-30T16:01:06Z</time></trkpt><trkpt lat="42.98091865433763" lon="10.976212547216804"><ele>55.0</ele><time>2026-04-30T16:01:07Z</time></trkpt><trkpt lat="42.980908424103255" lon="10.975994696998656"><ele>54.666666666666664</ele><time>2026-04-30T16:01:08Z</time></trkpt><trkpt lat="42.980895805829284" lon="10.975766744259674"><ele>54.33333333333333</ele><time>2026-04-30T16:01:09Z</time></trkpt><trkpt lat="42.98088242230557" lon="10.97554008298047"><ele>54.0</ele><time>2026-04-30T16:01:10Z</time></trkpt><trkpt lat="42.98086644334589" lon="10.975310521509053"><ele>54.0</ele><time>2026-04-30T16:01:11Z</time></trkpt><trkpt lat="42.980849094060154" lon="10.975092468935001"><ele>54.0</ele><time>2026-04-30T16:01:12Z</time></trkpt><trkpt lat="42.980824385727864" lon="10.974878983673225"><ele>54.0</ele><time>2026-04-30T16:01:13Z</time></trkpt><trkpt lat="42.98076258743248" lon="10.974670169955017"><ele>54.0</ele><time>2026-04-30T16:01:14Z</time></trkpt><trkpt lat="42.98066002297522" lon="10.974483065954056"><ele>54.0</ele><time>2026-04-30T16:01:15Z</time></trkpt><trkpt lat="42.98052736142699" lon="10.974327224936086"><ele>54.0</ele><time>2026-04-30T16:01:16Z</time></trkpt><trkpt lat="42.98037775211745" lon="10.974190068078368"><ele>54.0</ele><time>2026-04-30T16:01:17Z</time></trkpt><trkpt lat="42.980222005762265" lon="10.974063872935076"><ele>54.0</ele><time>2026-04-30T16:01:18Z</time></trkpt><trkpt lat="42.98005406141804" lon="10.973935970426142"><ele>54.0</ele><time>2026-04-30T16:01:19Z</time></trkpt><trkpt lat="42.97986768869173" lon="10.973783151203017"><ele>54.0</ele><time>2026-04-30T16:01:20Z</time></trkpt><trkpt lat="42.979671749779726" lon="10.973612846863954"><ele>54.0</ele><time>2026-04-30T16:01:21Z</time></trkpt><trkpt lat="42.97946371583026" lon="10.97344134885298"><ele>54.0</ele><time>2026-04-30T16:01:22Z</time></trkpt><trkpt lat="42.97925161624982" lon="10.973274466757275"><ele>54.0</ele><time>2026-04-30T16:01:23Z</time></trkpt><trkpt lat="42.979043250622965" lon="10.97310413561827"><ele>53.0</ele><time>2026-04-30T16:01:24Z</time></trkpt><trkpt lat="42.97884497242494" lon="10.972944911265913"><ele>52.0</ele><time>2026-04-30T16:01:25Z</time></trkpt><trkpt lat="42.97863890806755" lon="10.972775423193955"><ele>52.0</ele><time>2026-04-30T16:01:26Z</time></trkpt><trkpt lat="42.978434446662014" lon="10.972605721038635"><ele>52.0</ele><time>2026-04-30T16:01:27Z</time></trkpt><trkpt lat="42.97823510075989" lon="10.972439573477848"><ele>52.5</ele><time>2026-04-30T16:01:28Z</time></trkpt><trkpt lat="42.97804050015485" lon="10.972281002147724"><ele>53.0</ele><time>2026-04-30T16:01:29Z</time></trkpt><trkpt lat="42.97784847350749" lon="10.972125914041921"><ele>53.0</ele><time>2026-04-30T16:01:30Z</time></trkpt><trkpt lat="42.977665898189294" lon="10.97197515950113"><ele>53.0</ele><time>2026-04-30T16:01:31Z</time></trkpt><trkpt lat="42.977496842306024" lon="10.971832911511228"><ele>53.0</ele><time>2026-04-30T16:01:32Z</time></trkpt><trkpt lat="42.977336619986204" lon="10.971700019670562"><ele>53.0</ele><time>2026-04-30T16:01:33Z</time></trkpt><trkpt lat="42.977185391185955" lon="10.971574990971629"><ele>53.0</ele><time>2026-04-30T16:01:34Z</time></trkpt><trkpt lat="42.97702805261866" lon="10.97144379341038"><ele>53.0</ele><time>2026-04-30T16:01:35Z</time></trkpt><trkpt lat="42.9768649740178" lon="10.971309993893367"><ele>53.0</ele><time>2026-04-30T16:01:36Z</time></trkpt><trkpt lat="42.97670004174508" lon="10.971174050101068"><ele>53.0</ele><time>2026-04-30T16:01:37Z</time></trkpt><trkpt lat="42.97653255087183" lon="10.971032661892052"><ele>53.0</ele><time>2026-04-30T16:01:38Z</time></trkpt><trkpt lat="42.97636299828333" lon="10.970890251517654"><ele>53.0</ele><time>2026-04-30T16:01:39Z</time></trkpt><trkpt lat="42.976189166903296" lon="10.970743570276438"><ele>53.0</ele><time>2026-04-30T16:01:40Z</time></trkpt><trkpt lat="42.97601448385198" lon="10.970601165295953"><ele>53.0</ele><time>2026-04-30T16:01:41Z</time></trkpt><trkpt lat="42.97583989886051" lon="10.970455901986101"><ele>53.0</ele><time>2026-04-30T16:01:42Z</time></trkpt><trkpt lat="42.975666581168724" lon="10.970307581771886"><ele>53.0</ele><time>2026-04-30T16:01:43Z</time></trkpt><trkpt lat="42.97549473786841" lon="10.970158903729038"><ele>53.0</ele><time>2026-04-30T16:01:44Z</time></trkpt><trkpt lat="42.97532385688758" lon="10.970013275514145"><ele>52.66666666666667</ele><time>2026-04-30T16:01:45Z</time></trkpt><trkpt lat="42.9751509986648" lon="10.969875669349104"><ele>52.33333333333333</ele><time>2026-04-30T16:01:46Z</time></trkpt><trkpt lat="42.974968646306465" lon="10.96973202935884"><ele>52.0</ele><time>2026-04-30T16:01:47Z</time></trkpt><trkpt lat="42.97478198987656" lon="10.969573416761651"><ele>52.0</ele><time>2026-04-30T16:01:48Z</time></trkpt><trkpt lat="42.97460734770683" lon="10.969417034113036"><ele>52.0</ele><time>2026-04-30T16:01:49Z</time></trkpt><trkpt lat="42.97444850129607" lon="10.96926232369164"><ele>52.0</ele><time>2026-04-30T16:01:50Z</time></trkpt><trkpt lat="42.97430823165873" lon="10.969090760867308"><ele>52.0</ele><time>2026-04-30T16:01:51Z</time></trkpt><trkpt lat="42.97417398180239" lon="10.968903437867922"><ele>52.0</ele><time>2026-04-30T16:01:52Z</time></trkpt><trkpt lat="42.97404593288076" lon="10.968704018608285"><ele>52.0</ele><time>2026-04-30T16:01:53Z</time></trkpt><trkpt lat="42.9739214271482" lon="10.968501433856398"><ele>52.666666666666664</ele><time>2026-04-30T16:01:54Z</time></trkpt><trkpt lat="42.973799659269524" lon="10.968293810030255"><ele>53.33333333333333</ele><time>2026-04-30T16:01:55Z</time></trkpt><trkpt lat="42.97368424807438" lon="10.968080450415844"><ele>54.0</ele><time>2026-04-30T16:01:56Z</time></trkpt><trkpt lat="42.9735714581871" lon="10.967873195345057"><ele>54.0</ele><time>2026-04-30T16:01:57Z</time></trkpt><trkpt lat="42.973465092143535" lon="10.96767900066026"><ele>54.0</ele><time>2026-04-30T16:01:58Z</time></trkpt><trkpt lat="42.97336099989167" lon="10.967485563086864"><ele>54.0</ele><time>2026-04-30T16:01:59Z</time></trkpt><trkpt lat="42.97325527968234" lon="10.967293032441505"><ele>54.0</ele><time>2026-04-30T16:02:00Z</time></trkpt><trkpt lat="42.973147460529056" lon="10.967093255987551"><ele>54.0</ele><time>2026-04-30T16:02:01Z</time></trkpt><trkpt lat="42.9730373756103" lon="10.966887314741594"><ele>54.0</ele><time>2026-04-30T16:02:02Z</time></trkpt><trkpt lat="42.972925634011084" lon="10.966683186228163"><ele>54.0</ele><time>2026-04-30T16:02:03Z</time></trkpt><trkpt lat="42.97281662958043" lon="10.966474931347605"><ele>54.0</ele><time>2026-04-30T16:02:04Z</time></trkpt><trkpt lat="42.9727043243859" lon="10.966265775913476"><ele>54.0</ele><time>2026-04-30T16:02:05Z</time></trkpt><trkpt lat="42.97258900832088" lon="10.966052217994344"><ele>54.33333333333333</ele><time>2026-04-30T16:02:06Z</time></trkpt><trkpt lat="42.972475885969466" lon="10.965838859711527"><ele>54.666666666666664</ele><time>2026-04-30T16:02:07Z</time></trkpt><trkpt lat="42.97236387855304" lon="10.965627658083816"><ele>55.0</ele><time>2026-04-30T16:02:08Z</time></trkpt><trkpt lat="42.97224860205149" lon="10.965419962540647"><ele>55.0</ele><time>2026-04-30T16:02:09Z</time></trkpt><trkpt lat="42.97213119077545" lon="10.965216161836652"><ele>55.0</ele><time>2026-04-30T16:02:10Z</time></trkpt><trkpt lat="42.972019215725396" lon="10.965010978257103"><ele>55.0</ele><time>2026-04-30T16:02:11Z</time></trkpt><trkpt lat="42.97190701612004" lon="10.96480663340425"><ele>55.0</ele><time>2026-04-30T16:02:12Z</time></trkpt><trkpt lat="42.97179607738462" lon="10.964608433664651"><ele>55.0</ele><time>2026-04-30T16:02:13Z</time></trkpt><trkpt lat="42.97168443415212" lon="10.96441132926716"><ele>55.0</ele><time>2026-04-30T16:02:14Z</time></trkpt><trkpt lat="42.971560935869256" lon="10.964191353444358"><ele>56.666666666666664</ele><time>2026-04-30T16:02:15Z</time></trkpt><trkpt lat="42.97143526683084" lon="10.96395848897903"><ele>58.33333333333333</ele><time>2026-04-30T16:02:16Z</time></trkpt><trkpt lat="42.971305620606316" lon="10.963717728843147"><ele>60.0</ele><time>2026-04-30T16:02:17Z</time></trkpt><trkpt lat="42.971178430816074" lon="10.963460705987549"><ele>58.0</ele><time>2026-04-30T16:02:18Z</time></trkpt><trkpt lat="42.97105281092542" lon="10.963194941603046"><ele>56.0</ele><time>2026-04-30T16:02:19Z</time></trkpt><trkpt lat="42.970932569434424" lon="10.962925276483492"><ele>61.5</ele><time>2026-04-30T16:02:20Z</time></trkpt><trkpt lat="42.97082062945262" lon="10.962649397448724"><ele>67.0</ele><time>2026-04-30T16:02:21Z</time></trkpt><trkpt lat="42.97070981792274" lon="10.962370767793557"><ele>67.0</ele><time>2026-04-30T16:02:22Z</time></trkpt><trkpt lat="42.97060434962107" lon="10.962107068625699"><ele>67.0</ele><time>2026-04-30T16:02:23Z</time></trkpt><trkpt lat="42.970499038770875" lon="10.961862956772938"><ele>67.0</ele><time>2026-04-30T16:02:24Z</time></trkpt><trkpt lat="42.97039234634677" lon="10.961627942452"><ele>64.33333333333333</ele><time>2026-04-30T16:02:25Z</time></trkpt><trkpt lat="42.97029598929766" lon="10.961401813459089"><ele>61.66666666666667</ele><time>2026-04-30T16:02:26Z</time></trkpt><trkpt lat="42.97020920219402" lon="10.961183607497214"><ele>59.0</ele><time>2026-04-30T16:02:27Z</time></trkpt><trkpt lat="42.97013022872936" lon="10.960968225336293"><ele>58.66666666666667</ele><time>2026-04-30T16:02:28Z</time></trkpt><trkpt lat="42.97004594083278" lon="10.960757873825344"><ele>58.33333333333333</ele><time>2026-04-30T16:02:29Z</time></trkpt><trkpt lat="42.96996313877896" lon="10.960559937953017"><ele>58.0</ele><time>2026-04-30T16:02:30Z</time></trkpt><trkpt lat="42.969881109567325" lon="10.960369478768422"><ele>59.33333333333333</ele><time>2026-04-30T16:02:31Z</time></trkpt><trkpt lat="42.96980913431552" lon="10.960172355896177"><ele>60.66666666666667</ele><time>2026-04-30T16:02:32Z</time></trkpt><trkpt lat="42.96975126418036" lon="10.959970688575183"><ele>62.0</ele><time>2026-04-30T16:02:33Z</time></trkpt><trkpt lat="42.96972328232203" lon="10.959751900177013"><ele>62.0</ele><time>2026-04-30T16:02:34Z</time></trkpt><trkpt lat="42.96972082848574" lon="10.959501834781317"><ele>62.0</ele><time>2026-04-30T16:02:35Z</time></trkpt><trkpt lat="42.96973207194473" lon="10.95922124369156"><ele>62.0</ele><time>2026-04-30T16:02:36Z</time></trkpt><trkpt lat="42.969733966143444" lon="10.958940368539805"><ele>62.0</ele><time>2026-04-30T16:02:37Z</time></trkpt><trkpt lat="42.969712878116496" lon="10.95864384410048"><ele>62.0</ele><time>2026-04-30T16:02:38Z</time></trkpt><trkpt lat="42.96969048076367" lon="10.958357739074842"><ele>62.0</ele><time>2026-04-30T16:02:39Z</time></trkpt><trkpt lat="42.96966446736244" lon="10.958059942025965"><ele>61.66666666666667</ele><time>2026-04-30T16:02:40Z</time></trkpt><trkpt lat="42.969631830538056" lon="10.9577770348774"><ele>61.33333333333333</ele><time>2026-04-30T16:02:41Z</time></trkpt><trkpt lat="42.96959958229988" lon="10.957495836794418"><ele>61.0</ele><time>2026-04-30T16:02:42Z</time></trkpt><trkpt lat="42.96957366703677" lon="10.95722317910545"><ele>61.33333333333333</ele><time>2026-04-30T16:02:43Z</time></trkpt><trkpt lat="42.969545780795755" lon="10.956961974489442"><ele>61.66666666666667</ele><time>2026-04-30T16:02:44Z</time></trkpt><trkpt lat="42.96951714778185" lon="10.956709802941774"><ele>62.0</ele><time>2026-04-30T16:02:45Z</time></trkpt><trkpt lat="42.9694907907853" lon="10.956463663278692"><ele>62.0</ele><time>2026-04-30T16:02:46Z</time></trkpt><trkpt lat="42.9694717367485" lon="10.956213442273501"><ele>62.0</ele><time>2026-04-30T16:02:47Z</time></trkpt><trkpt lat="42.969470179810585" lon="10.955949725101366"><ele>62.0</ele><time>2026-04-30T16:02:48Z</time></trkpt><trkpt lat="42.96948183050314" lon="10.955687053865114"><ele>62.0</ele><time>2026-04-30T16:02:49Z</time></trkpt><trkpt lat="42.96950262053752" lon="10.955433032781372"><ele>62.0</ele><time>2026-04-30T16:02:50Z</time></trkpt><trkpt lat="42.96953944105634" lon="10.955182710948039"><ele>62.0</ele><time>2026-04-30T16:02:51Z</time></trkpt><trkpt lat="42.969575572128775" lon="10.954937079429863"><ele>62.0</ele><time>2026-04-30T16:02:52Z</time></trkpt><trkpt lat="42.96960507914871" lon="10.95469889078503"><ele>62.0</ele><time>2026-04-30T16:02:53Z</time></trkpt><trkpt lat="42.96963631425794" lon="10.954463833711722"><ele>62.0</ele><time>2026-04-30T16:02:54Z</time></trkpt><trkpt lat="42.96966814046361" lon="10.954214620027281"><ele>62.66666666666667</ele><time>2026-04-30T16:02:55Z</time></trkpt><trkpt lat="42.96969765678006" lon="10.953975448166005"><ele>63.33333333333333</ele><time>2026-04-30T16:02:56Z</time></trkpt><trkpt lat="42.969733434977655" lon="10.95373721286869"><ele>64.0</ele><time>2026-04-30T16:02:57Z</time></trkpt><trkpt lat="42.96976712493581" lon="10.953493626576162"><ele>64.33333333333333</ele><time>2026-04-30T16:02:58Z</time></trkpt><trkpt lat="42.96978896745597" lon="10.953247615855231"><ele>64.66666666666667</ele><time>2026-04-30T16:02:59Z</time></trkpt><trkpt lat="42.9698050039143" lon="10.952995875180026"><ele>65.0</ele><time>2026-04-30T16:03:00Z</time></trkpt><trkpt lat="42.96981324094268" lon="10.952747198093537"><ele>65.0</ele><time>2026-04-30T16:03:01Z</time></trkpt><trkpt lat="42.9698010682003" lon="10.952495172112412"><ele>65.0</ele><time>2026-04-30T16:03:02Z</time></trkpt><trkpt lat="42.96978280741592" lon="10.952238633764033"><ele>65.0</ele><time>2026-04-30T16:03:03Z</time></trkpt><trkpt lat="42.96976963982414" lon="10.951983292842511"><ele>65.0</ele><time>2026-04-30T16:03:04Z</time></trkpt><trkpt lat="42.96975575432428" lon="10.951726579585305"><ele>65.0</ele><time>2026-04-30T16:03:05Z</time></trkpt><trkpt lat="42.969739447592374" lon="10.951459664512859"><ele>65.0</ele><time>2026-04-30T16:03:06Z</time></trkpt><trkpt lat="42.969721221321436" lon="10.951162054050133"><ele>65.0</ele><time>2026-04-30T16:03:07Z</time></trkpt><trkpt lat="42.969715904084715" lon="10.950833698166896"><ele>65.0</ele><time>2026-04-30T16:03:08Z</time></trkpt><trkpt lat="42.9696803160814" lon="10.950493107926322"><ele>65.0</ele><time>2026-04-30T16:03:09Z</time></trkpt><trkpt lat="42.96967005926443" lon="10.950142050438545"><ele>65.0</ele><time>2026-04-30T16:03:10Z</time></trkpt><trkpt lat="42.9696600668166" lon="10.94978010459156"><ele>65.0</ele><time>2026-04-30T16:03:11Z</time></trkpt><trkpt lat="42.96964286123406" lon="10.949441619645564"><ele>65.0</ele><time>2026-04-30T16:03:12Z</time></trkpt><trkpt lat="42.96963003339266" lon="10.949127402522942"><ele>65.0</ele><time>2026-04-30T16:03:13Z</time></trkpt><trkpt lat="42.96961808859054" lon="10.948826467322405"><ele>65.0</ele><time>2026-04-30T16:03:14Z</time></trkpt><trkpt lat="42.96960602417224" lon="10.948537561849331"><ele>65.0</ele><time>2026-04-30T16:03:15Z</time></trkpt><trkpt lat="42.96959207850844" lon="10.948263838343367"><ele>65.0</ele><time>2026-04-30T16:03:16Z</time></trkpt><trkpt lat="42.96958164042276" lon="10.94798500258831"><ele>65.0</ele><time>2026-04-30T16:03:17Z</time></trkpt><trkpt lat="42.96956859258392" lon="10.947701032503636"><ele>65.0</ele><time>2026-04-30T16:03:18Z</time></trkpt><trkpt lat="42.969552980051716" lon="10.947395448179705"><ele>65.0</ele><time>2026-04-30T16:03:19Z</time></trkpt><trkpt lat="42.96953347490997" lon="10.94710655000328"><ele>65.0</ele><time>2026-04-30T16:03:20Z</time></trkpt><trkpt lat="42.9695172083318" lon="10.94683950037384"><ele>65.0</ele><time>2026-04-30T16:03:21Z</time></trkpt><trkpt lat="42.969503595432435" lon="10.946592278287524"><ele>65.0</ele><time>2026-04-30T16:03:22Z</time></trkpt><trkpt lat="42.96948347380105" lon="10.94636407543644"><ele>65.0</ele><time>2026-04-30T16:03:23Z</time></trkpt><trkpt lat="42.969448493102476" lon="10.946143923653176"><ele>65.0</ele><time>2026-04-30T16:03:24Z</time></trkpt><trkpt lat="42.969407339459536" lon="10.945926951059546"><ele>65.66666666666667</ele><time>2026-04-30T16:03:25Z</time></trkpt><trkpt lat="42.96935796196752" lon="10.945712394035313"><ele>66.33333333333333</ele><time>2026-04-30T16:03:26Z</time></trkpt><trkpt lat="42.969294718294464" lon="10.945503439155353"><ele>67.0</ele><time>2026-04-30T16:03:27Z</time></trkpt><trkpt lat="42.96921837304434" lon="10.945299315039493"><ele>67.33333333333333</ele><time>2026-04-30T16:03:28Z</time></trkpt><trkpt lat="42.969125721008346" lon="10.945097624235066"><ele>67.66666666666667</ele><time>2026-04-30T16:03:29Z</time></trkpt><trkpt lat="42.96901615626325" lon="10.944903432701452"><ele>68.0</ele><time>2026-04-30T16:03:30Z</time></trkpt><trkpt lat="42.96889365502198" lon="10.944730104206188"><ele>68.0</ele><time>2026-04-30T16:03:31Z</time></trkpt><trkpt lat="42.96876139497092" lon="10.944577691184751"><ele>68.0</ele><time>2026-04-30T16:03:32Z</time></trkpt><trkpt lat="42.968618908236266" lon="10.944438957806915"><ele>68.0</ele><time>2026-04-30T16:03:33Z</time></trkpt><trkpt lat="42.96845993897623" lon="10.944321637416559"><ele>68.66666666666667</ele><time>2026-04-30T16:03:34Z</time></trkpt><trkpt lat="42.96828787033648" lon="10.944221915497781"><ele>69.33333333333333</ele><time>2026-04-30T16:03:35Z</time></trkpt><trkpt lat="42.96811362048624" lon="10.944132326578126"><ele>70.0</ele><time>2026-04-30T16:03:36Z</time></trkpt><trkpt lat="42.967928164531095" lon="10.94403013517634"><ele>70.0</ele><time>2026-04-30T16:03:37Z</time></trkpt><trkpt lat="42.967707020917544" lon="10.943935023503064"><ele>70.0</ele><time>2026-04-30T16:03:38Z</time></trkpt><trkpt lat="42.967465092703506" lon="10.94383894037769"><ele>72.0</ele><time>2026-04-30T16:03:39Z</time></trkpt><trkpt lat="42.96720347481086" lon="10.943755775329526"><ele>74.0</ele><time>2026-04-30T16:03:40Z</time></trkpt><trkpt lat="42.96693386250565" lon="10.943637552566255"><ele>75.0</ele><time>2026-04-30T16:03:41Z</time></trkpt><trkpt lat="42.96667961146279" lon="10.94353835882372"><ele>76.0</ele><time>2026-04-30T16:03:42Z</time></trkpt><trkpt lat="42.96643931299891" lon="10.943450529417518"><ele>75.5</ele><time>2026-04-30T16:03:43Z</time></trkpt><trkpt lat="42.96621498069402" lon="10.943368841089036"><ele>75.0</ele><time>2026-04-30T16:03:44Z</time></trkpt><trkpt lat="42.96600213895964" lon="10.943286396766478"><ele>76.33333333333333</ele><time>2026-04-30T16:03:45Z</time></trkpt><trkpt lat="42.9657951670898" lon="10.943206994724767"><ele>77.66666666666666</ele><time>2026-04-30T16:03:46Z</time></trkpt><trkpt lat="42.965593826418605" lon="10.943131909839895"><ele>79.0</ele><time>2026-04-30T16:03:47Z</time></trkpt><trkpt lat="42.96539301162981" lon="10.943053603902904"><ele>79.0</ele><time>2026-04-30T16:03:48Z</time></trkpt><trkpt lat="42.96519525536118" lon="10.942973735285314"><ele>79.0</ele><time>2026-04-30T16:03:49Z</time></trkpt><trkpt lat="42.965003203308754" lon="10.942888983788372"><ele>79.0</ele><time>2026-04-30T16:03:50Z</time></trkpt><trkpt lat="42.964806517517445" lon="10.94280120484213"><ele>78.66666666666666</ele><time>2026-04-30T16:03:51Z</time></trkpt><trkpt lat="42.96461136895703" lon="10.942705600756813"><ele>78.33333333333333</ele><time>2026-04-30T16:03:52Z</time></trkpt><trkpt lat="42.964426324680026" lon="10.942599732157099"><ele>78.0</ele><time>2026-04-30T16:03:53Z</time></trkpt><trkpt lat="42.96424983325453" lon="10.94248416725063"><ele>80.33333333333333</ele><time>2026-04-30T16:03:54Z</time></trkpt><trkpt lat="42.96407518186755" lon="10.942366977162848"><ele>82.66666666666666</ele><time>2026-04-30T16:03:55Z</time></trkpt><trkpt lat="42.96390339643534" lon="10.942253816041703"><ele>85.0</ele><time>2026-04-30T16:03:56Z</time></trkpt><trkpt lat="42.96373388987656" lon="10.942145613062507"><ele>85.0</ele><time>2026-04-30T16:03:57Z</time></trkpt><trkpt lat="42.963564068388045" lon="10.9420297748866"><ele>85.0</ele><time>2026-04-30T16:03:58Z</time></trkpt><trkpt lat="42.96338924907931" lon="10.941916956379208"><ele>85.0</ele><time>2026-04-30T16:03:59Z</time></trkpt><trkpt lat="42.963214696198314" lon="10.941801069060254"><ele>86.0</ele><time>2026-04-30T16:04:00Z</time></trkpt><trkpt lat="42.963036288012034" lon="10.941684413706907"><ele>87.0</ele><time>2026-04-30T16:04:01Z</time></trkpt><trkpt lat="42.96285412585448" lon="10.94157672146531"><ele>88.0</ele><time>2026-04-30T16:04:02Z</time></trkpt><trkpt lat="42.96267018736934" lon="10.941458834784632"><ele>87.33333333333333</ele><time>2026-04-30T16:04:03Z</time></trkpt><trkpt lat="42.96248682872195" lon="10.941335366175277"><ele>86.66666666666667</ele><time>2026-04-30T16:04:04Z</time></trkpt><trkpt lat="42.96229154695484" lon="10.941216974132896"><ele>86.0</ele><time>2026-04-30T16:04:05Z</time></trkpt><trkpt lat="42.96207804899193" lon="10.941122393609739"><ele>86.0</ele><time>2026-04-30T16:04:06Z</time></trkpt><trkpt lat="42.96185779380254" lon="10.941062652395985"><ele>86.0</ele><time>2026-04-30T16:04:07Z</time></trkpt><trkpt lat="42.9616262700659" lon="10.941044013389424"><ele>89.0</ele><time>2026-04-30T16:04:08Z</time></trkpt><trkpt lat="42.96138950531869" lon="10.941010714017956"><ele>92.0</ele><time>2026-04-30T16:04:09Z</time></trkpt><trkpt lat="42.9611486267405" lon="10.940987261506404"><ele>92.0</ele><time>2026-04-30T16:04:10Z</time></trkpt><trkpt lat="42.960897265107405" lon="10.940977887197679"><ele>92.0</ele><time>2026-04-30T16:04:11Z</time></trkpt><trkpt lat="42.96064314207054" lon="10.940951340544418"><ele>97.5</ele><time>2026-04-30T16:04:12Z</time></trkpt><trkpt lat="42.96040243253428" lon="10.940929553836796"><ele>103.0</ele><time>2026-04-30T16:04:13Z</time></trkpt><trkpt lat="42.96016947854653" lon="10.940909041978832"><ele>101.66666666666667</ele><time>2026-04-30T16:04:14Z</time></trkpt><trkpt lat="42.95994512037085" lon="10.940887860339467"><ele>100.33333333333334</ele><time>2026-04-30T16:04:15Z</time></trkpt><trkpt lat="42.95972972274413" lon="10.940868880633127"><ele>99.0</ele><time>2026-04-30T16:04:16Z</time></trkpt><trkpt lat="42.95952298140427" lon="10.94084250325249"><ele>99.0</ele><time>2026-04-30T16:04:17Z</time></trkpt><trkpt lat="42.959334164325085" lon="10.940803584548974"><ele>99.0</ele><time>2026-04-30T16:04:18Z</time></trkpt><trkpt lat="42.95916276368406" lon="10.94073671759246"><ele>99.0</ele><time>2026-04-30T16:04:19Z</time></trkpt><trkpt lat="42.959007924644524" lon="10.940631854013558"><ele>100.66666666666666</ele><time>2026-04-30T16:04:20.001Z</time></trkpt><trkpt lat="42.958877352389315" lon="10.940492112330734"><ele>102.33333333333333</ele><time>2026-04-30T16:04:21.001Z</time></trkpt><trkpt lat="42.958768094179106" lon="10.940320712231589"><ele>104.0</ele><time>2026-04-30T16:04:22.001Z</time></trkpt><trkpt lat="42.95865237378908" lon="10.940135675350925"><ele>103.33333333333333</ele><time>2026-04-30T16:04:23.001Z</time></trkpt><trkpt lat="42.95852255185453" lon="10.939923906429705"><ele>102.66666666666666</ele><time>2026-04-30T16:04:24.001Z</time></trkpt><trkpt lat="42.95838837903939" lon="10.939693322552362"><ele>102.0</ele><time>2026-04-30T16:04:25.001Z</time></trkpt><trkpt lat="42.958249609632055" lon="10.939456127320193"><ele>104.5</ele><time>2026-04-30T16:04:26.001Z</time></trkpt><trkpt lat="42.95810985951422" lon="10.939216079299655"><ele>107.0</ele><time>2026-04-30T16:04:27.001Z</time></trkpt><trkpt lat="42.95796533885802" lon="10.938975870204695"><ele>107.0</ele><time>2026-04-30T16:04:28.001Z</time></trkpt><trkpt lat="42.95781834823044" lon="10.938741860265143"><ele>107.0</ele><time>2026-04-30T16:04:29.001Z</time></trkpt><trkpt lat="42.95768915307935" lon="10.938526741400546"><ele>107.0</ele><time>2026-04-30T16:04:30.001Z</time></trkpt><trkpt lat="42.957556220068156" lon="10.938343008399498"><ele>109.66666666666666</ele><time>2026-04-30T16:04:31.001Z</time></trkpt><trkpt lat="42.957407028310584" lon="10.938186907946802"><ele>112.33333333333334</ele><time>2026-04-30T16:04:32.001Z</time></trkpt><trkpt lat="42.95723427499353" lon="10.938040007586466"><ele>115.0</ele><time>2026-04-30T16:04:33.001Z</time></trkpt><trkpt lat="42.95704281374402" lon="10.937897979789627"><ele>115.0</ele><time>2026-04-30T16:04:34Z</time></trkpt><trkpt lat="42.956854161632535" lon="10.937765961488715"><ele>115.0</ele><time>2026-04-30T16:04:35Z</time></trkpt><trkpt lat="42.95667827149454" lon="10.937634373282085"><ele>115.0</ele><time>2026-04-30T16:04:36Z</time></trkpt><trkpt lat="42.956532323758324" lon="10.937488479503056"><ele>115.33333333333334</ele><time>2026-04-30T16:04:37Z</time></trkpt><trkpt lat="42.95639777879876" lon="10.937342916712213"><ele>115.66666666666666</ele><time>2026-04-30T16:04:38Z</time></trkpt><trkpt lat="42.9563299435452" lon="10.937064418652996"><ele>116.0</ele><time>2026-04-30T16:04:39Z</time></trkpt><trkpt lat="42.95628147186951" lon="10.936774482842667"><ele>119.5</ele><time>2026-04-30T16:04:40Z</time></trkpt><trkpt lat="42.956235799019026" lon="10.936465939791399"><ele>123.0</ele><time>2026-04-30T16:04:41Z</time></trkpt><trkpt lat="42.95618580233931" lon="10.936153774873274"><ele>123.0</ele><time>2026-04-30T16:04:42Z</time></trkpt><trkpt lat="42.956142689911474" lon="10.935860672422123"><ele>123.0</ele><time>2026-04-30T16:04:43Z</time></trkpt><trkpt lat="42.95610374530397" lon="10.935580281371708"><ele>123.0</ele><time>2026-04-30T16:04:44Z</time></trkpt><trkpt lat="42.95606329110926" lon="10.935322412936106"><ele>123.0</ele><time>2026-04-30T16:04:45Z</time></trkpt><trkpt lat="42.956015390512455" lon="10.93509371272835"><ele>123.0</ele><time>2026-04-30T16:04:46Z</time></trkpt><trkpt lat="42.95594363421462" lon="10.934874175367698"><ele>123.0</ele><time>2026-04-30T16:04:47Z</time></trkpt><trkpt lat="42.955825319454476" lon="10.934662262773093"><ele>115.5</ele><time>2026-04-30T16:04:48Z</time></trkpt><trkpt lat="42.95566042181478" lon="10.934447710192607"><ele>108.0</ele><time>2026-04-30T16:04:49Z</time></trkpt><trkpt lat="42.95547474018473" lon="10.934228428639747"><ele>107.0</ele><time>2026-04-30T16:04:50Z</time></trkpt><trkpt lat="42.95527971074951" lon="10.933999843131055"><ele>106.0</ele><time>2026-04-30T16:04:51Z</time></trkpt><trkpt lat="42.95509941958447" lon="10.933776955159606"><ele>105.5</ele><time>2026-04-30T16:04:52Z</time></trkpt><trkpt lat="42.95491792466478" lon="10.933567203157128"><ele>105.0</ele><time>2026-04-30T16:04:53Z</time></trkpt><trkpt lat="42.95474291381744" lon="10.933349102584256"><ele>105.0</ele><time>2026-04-30T16:04:54Z</time></trkpt><trkpt lat="42.954572834575934" lon="10.933140332082713"><ele>105.0</ele><time>2026-04-30T16:04:55Z</time></trkpt><trkpt lat="42.95441255815149" lon="10.932943352424438"><ele>105.0</ele><time>2026-04-30T16:04:56Z</time></trkpt><trkpt lat="42.95425784062028" lon="10.93275560516658"><ele>101.66666666666667</ele><time>2026-04-30T16:04:57Z</time></trkpt><trkpt lat="42.95410382683159" lon="10.932566755018524"><ele>98.33333333333334</ele><time>2026-04-30T16:04:58Z</time></trkpt><trkpt lat="42.95395232882874" lon="10.932380752590783"><ele>95.0</ele><time>2026-04-30T16:04:59Z</time></trkpt><trkpt lat="42.95380331552607" lon="10.932194942967262"><ele>95.0</ele><time>2026-04-30T16:05:00Z</time></trkpt><trkpt lat="42.953652193717566" lon="10.932011730546284"><ele>95.0</ele><time>2026-04-30T16:05:01Z</time></trkpt><trkpt lat="42.95350087263803" lon="10.931830966704837"><ele>95.0</ele><time>2026-04-30T16:05:02Z</time></trkpt><trkpt lat="42.953346185068526" lon="10.931654547996427"><ele>92.66666666666667</ele><time>2026-04-30T16:05:03Z</time></trkpt><trkpt lat="42.95318679275976" lon="10.931482969750352"><ele>90.33333333333333</ele><time>2026-04-30T16:05:04Z</time></trkpt><trkpt lat="42.95302037622774" lon="10.931323469670346"><ele>88.0</ele><time>2026-04-30T16:05:05Z</time></trkpt><trkpt lat="42.95286447088547" lon="10.931185243650816"><ele>88.0</ele><time>2026-04-30T16:05:06Z</time></trkpt><trkpt lat="42.95271523260858" lon="10.931056927674586"><ele>88.0</ele><time>2026-04-30T16:05:07Z</time></trkpt><trkpt lat="42.9525741836664" lon="10.930933396629076"><ele>88.0</ele><time>2026-04-30T16:05:08Z</time></trkpt><trkpt lat="42.952437344695596" lon="10.930814301678666"><ele>86.75</ele><time>2026-04-30T16:05:09Z</time></trkpt><trkpt lat="42.952312670146654" lon="10.930708025056566"><ele>85.5</ele><time>2026-04-30T16:05:10Z</time></trkpt><trkpt lat="42.952199408138476" lon="10.930610364129715"><ele>84.25</ele><time>2026-04-30T16:05:11Z</time></trkpt><trkpt lat="42.95209357773138" lon="10.930522060565913"><ele>83.0</ele><time>2026-04-30T16:05:12Z</time></trkpt><trkpt lat="42.95198610647659" lon="10.930443617906905"><ele>83.0</ele><time>2026-04-30T16:05:13Z</time></trkpt><trkpt lat="42.9518820135869" lon="10.930351208887513"><ele>83.0</ele><time>2026-04-30T16:05:14Z</time></trkpt><trkpt lat="42.951792724304084" lon="10.930250297350065"><ele>83.0</ele><time>2026-04-30T16:05:15Z</time></trkpt><trkpt lat="42.95169171271648" lon="10.930181296148664"><ele>83.0</ele><time>2026-04-30T16:05:16Z</time></trkpt><trkpt lat="42.95159854293157" lon="10.930167885585824"><ele>83.0</ele><time>2026-04-30T16:05:17Z</time></trkpt><trkpt lat="42.95150772338568" lon="10.93019868158084"><ele>82.0</ele><time>2026-04-30T16:05:18Z</time></trkpt><trkpt lat="42.951401997007004" lon="10.930253983200267"><ele>81.0</ele><time>2026-04-30T16:05:19Z</time></trkpt><trkpt lat="42.951299333971455" lon="10.930316390829844"><ele>80.0</ele><time>2026-04-30T16:05:20Z</time></trkpt><trkpt lat="42.95119771235776" lon="10.930379684867617"><ele>79.0</ele><time>2026-04-30T16:05:21Z</time></trkpt><trkpt lat="42.95109498774836" lon="10.930444332043937"><ele>79.0</ele><time>2026-04-30T16:05:22Z</time></trkpt><trkpt lat="42.95099533784539" lon="10.930511268961597"><ele>79.0</ele><time>2026-04-30T16:05:23Z</time></trkpt><trkpt lat="42.95088029189347" lon="10.930534572306696"><ele>79.0</ele><time>2026-04-30T16:05:24Z</time></trkpt><trkpt lat="42.95076374564025" lon="10.930496680377146"><ele>79.0</ele><time>2026-04-30T16:05:25Z</time></trkpt><trkpt lat="42.95066561698472" lon="10.930431039513051"><ele>79.2</ele><time>2026-04-30T16:05:26Z</time></trkpt><trkpt lat="42.95057963491618" lon="10.930368595554613"><ele>79.4</ele><time>2026-04-30T16:05:27Z</time></trkpt><trkpt lat="42.95049389456629" lon="10.93031298818164"><ele>79.6</ele><time>2026-04-30T16:05:28Z</time></trkpt><trkpt lat="42.95041411543335" lon="10.930241521611418"><ele>79.8</ele><time>2026-04-30T16:05:29Z</time></trkpt><trkpt lat="42.950352387598066" lon="10.930161881926683"><ele>80.0</ele><time>2026-04-30T16:05:30Z</time></trkpt><trkpt lat="42.950305408420476" lon="10.93006914837536"><ele>79.6</ele><time>2026-04-30T16:05:31Z</time></trkpt><trkpt lat="42.950264790924265" lon="10.92997657929154"><ele>79.2</ele><time>2026-04-30T16:05:32Z</time></trkpt><trkpt lat="42.950224060259956" lon="10.929860947518135"><ele>78.8</ele><time>2026-04-30T16:05:33Z</time></trkpt><trkpt lat="42.95019065130451" lon="10.929724177497642"><ele>78.4</ele><time>2026-04-30T16:05:34Z</time></trkpt><trkpt lat="42.95017373515506" lon="10.929579112912009"><ele>78.0</ele><time>2026-04-30T16:05:35Z</time></trkpt><trkpt lat="42.95017630332993" lon="10.92941974772754"><ele>78.0</ele><time>2026-04-30T16:05:36Z</time></trkpt><trkpt lat="42.95020212435069" lon="10.929250569645133"><ele>78.0</ele><time>2026-04-30T16:05:37Z</time></trkpt><trkpt lat="42.95023021396963" lon="10.929060055125012"><ele>78.0</ele><time>2026-04-30T16:05:38Z</time></trkpt><trkpt lat="42.95025967861437" lon="10.928840377376803"><ele>78.0</ele><time>2026-04-30T16:05:39Z</time></trkpt><trkpt lat="42.9502833986426" lon="10.928598735466304"><ele>80.33333333333333</ele><time>2026-04-30T16:05:40Z</time></trkpt><trkpt lat="42.950305049827385" lon="10.928315046742421"><ele>82.66666666666666</ele><time>2026-04-30T16:05:41Z</time></trkpt><trkpt lat="42.95032786344245" lon="10.928009152261899"><ele>85.0</ele><time>2026-04-30T16:05:42Z</time></trkpt><trkpt lat="42.95035286956346" lon="10.927719269968438"><ele>84.5</ele><time>2026-04-30T16:05:43Z</time></trkpt><trkpt lat="42.95037797812624" lon="10.927388005927206"><ele>84.0</ele><time>2026-04-30T16:05:44Z</time></trkpt><trkpt lat="42.950399678198856" lon="10.92706378432346"><ele>84.0</ele><time>2026-04-30T16:05:45Z</time></trkpt><trkpt lat="42.95041712025611" lon="10.926733996720445"><ele>84.0</ele><time>2026-04-30T16:05:46Z</time></trkpt><trkpt lat="42.95043927767667" lon="10.926398053000913"><ele>83.0</ele><time>2026-04-30T16:05:47Z</time></trkpt><trkpt lat="42.9504573341471" lon="10.926065474022014"><ele>82.0</ele><time>2026-04-30T16:05:48Z</time></trkpt><trkpt lat="42.950474782461725" lon="10.92573983601534"><ele>82.0</ele><time>2026-04-30T16:05:49Z</time></trkpt><trkpt lat="42.95049654166214" lon="10.92543017750952"><ele>82.0</ele><time>2026-04-30T16:05:50Z</time></trkpt><trkpt lat="42.950524146256356" lon="10.925131572298245"><ele>82.0</ele><time>2026-04-30T16:05:51Z</time></trkpt><trkpt lat="42.950552729349454" lon="10.924837611331437"><ele>81.66666666666666</ele><time>2026-04-30T16:05:52Z</time></trkpt><trkpt lat="42.950576870901344" lon="10.924546595769684"><ele>81.33333333333333</ele><time>2026-04-30T16:05:53Z</time></trkpt><trkpt lat="42.95059605805306" lon="10.92425801389724"><ele>81.0</ele><time>2026-04-30T16:05:54Z</time></trkpt><trkpt lat="42.950613692968396" lon="10.92396378192612"><ele>80.33333333333333</ele><time>2026-04-30T16:05:55Z</time></trkpt><trkpt lat="42.95063057231449" lon="10.92366762987994"><ele>79.66666666666666</ele><time>2026-04-30T16:05:56Z</time></trkpt><trkpt lat="42.950647715316215" lon="10.92336730521807"><ele>79.0</ele><time>2026-04-30T16:05:57Z</time></trkpt><trkpt lat="42.950662567803995" lon="10.923060124018217"><ele>79.0</ele><time>2026-04-30T16:05:58Z</time></trkpt><trkpt lat="42.95068006735826" lon="10.922745447577567"><ele>79.0</ele><time>2026-04-30T16:05:59Z</time></trkpt><trkpt lat="42.95069791286662" lon="10.922424578663222"><ele>79.0</ele><time>2026-04-30T16:06:00Z</time></trkpt><trkpt lat="42.950717639903694" lon="10.922090730125435"><ele>79.0</ele><time>2026-04-30T16:06:01Z</time></trkpt><trkpt lat="42.95073840846369" lon="10.921740013316889"><ele>76.5</ele><time>2026-04-30T16:06:02Z</time></trkpt><trkpt lat="42.95075769199967" lon="10.921395100964293"><ele>74.0</ele><time>2026-04-30T16:06:03Z</time></trkpt><trkpt lat="42.950780730128116" lon="10.921051485862257"><ele>71.0</ele><time>2026-04-30T16:06:04Z</time></trkpt><trkpt lat="42.950802029511" lon="10.920705097941612"><ele>68.0</ele><time>2026-04-30T16:06:05Z</time></trkpt><trkpt lat="42.95082226402995" lon="10.920355588630315"><ele>67.0</ele><time>2026-04-30T16:06:06Z</time></trkpt><trkpt lat="42.95084117826623" lon="10.920010993136"><ele>66.0</ele><time>2026-04-30T16:06:07Z</time></trkpt><trkpt lat="42.950858762998806" lon="10.919664506886194"><ele>69.5</ele><time>2026-04-30T16:06:08Z</time></trkpt><trkpt lat="42.95087661957724" lon="10.919315208962624"><ele>73.0</ele><time>2026-04-30T16:06:09Z</time></trkpt><trkpt lat="42.95089883856605" lon="10.918966094334744"><ele>73.0</ele><time>2026-04-30T16:06:10.001Z</time></trkpt><trkpt lat="42.95091874652107" lon="10.918615443096252"><ele>73.0</ele><time>2026-04-30T16:06:11.001Z</time></trkpt><trkpt lat="42.950937385539596" lon="10.918278158154747"><ele>72.0</ele><time>2026-04-30T16:06:12.001Z</time></trkpt><trkpt lat="42.95095769629649" lon="10.91795640823014"><ele>71.0</ele><time>2026-04-30T16:06:13.001Z</time></trkpt><trkpt lat="42.95097540959774" lon="10.917636300798742"><ele>69.5</ele><time>2026-04-30T16:06:14.001Z</time></trkpt><trkpt lat="42.950996189486645" lon="10.917312819560866"><ele>68.0</ele><time>2026-04-30T16:06:15.001Z</time></trkpt><trkpt lat="42.95101564703662" lon="10.916985821743346"><ele>68.0</ele><time>2026-04-30T16:06:16.001Z</time></trkpt><trkpt lat="42.951039233521186" lon="10.916658466497296"><ele>68.0</ele><time>2026-04-30T16:06:17.001Z</time></trkpt><trkpt lat="42.95106177490274" lon="10.916324514006634"><ele>68.0</ele><time>2026-04-30T16:06:18.001Z</time></trkpt><trkpt lat="42.951079064732966" lon="10.915984581326365"><ele>68.0</ele><time>2026-04-30T16:06:19.001Z</time></trkpt><trkpt lat="42.9510964150154" lon="10.915643452042074"><ele>66.5</ele><time>2026-04-30T16:06:20.001Z</time></trkpt><trkpt lat="42.95111313428534" lon="10.91530176418263"><ele>65.0</ele><time>2026-04-30T16:06:21.001Z</time></trkpt><trkpt lat="42.95112693274823" lon="10.914953090252848"><ele>64.5</ele><time>2026-04-30T16:06:22.001Z</time></trkpt><trkpt lat="42.95113943660665" lon="10.914605151883526"><ele>64.0</ele><time>2026-04-30T16:06:23.001Z</time></trkpt><trkpt lat="42.95115116402054" lon="10.914254484283104"><ele>64.0</ele><time>2026-04-30T16:06:24.001Z</time></trkpt><trkpt lat="42.95115986383709" lon="10.913910070218337"><ele>64.0</ele><time>2026-04-30T16:06:25.001Z</time></trkpt><trkpt lat="42.95116510039633" lon="10.913562880392403"><ele>63.5</ele><time>2026-04-30T16:06:26.001Z</time></trkpt><trkpt lat="42.95117159498283" lon="10.913222615700999"><ele>63.0</ele><time>2026-04-30T16:06:27.001Z</time></trkpt><trkpt lat="42.951161002551316" lon="10.91291146191865"><ele>62.5</ele><time>2026-04-30T16:06:28.001Z</time></trkpt><trkpt lat="42.95117387847931" lon="10.912570598370188"><ele>62.0</ele><time>2026-04-30T16:06:29.001Z</time></trkpt><trkpt lat="42.95117763123883" lon="10.912237136072404"><ele>62.0</ele><time>2026-04-30T16:06:30.001Z</time></trkpt><trkpt lat="42.95117955915439" lon="10.911924942405607"><ele>62.0</ele><time>2026-04-30T16:06:31.001Z</time></trkpt><trkpt lat="42.95118244304437" lon="10.911627133701769"><ele>62.0</ele><time>2026-04-30T16:06:32.001Z</time></trkpt><trkpt lat="42.95117791541501" lon="10.911345763122638"><ele>61.333333333333336</ele><time>2026-04-30T16:06:33.001Z</time></trkpt><trkpt lat="42.95116950808096" lon="10.91107604682886"><ele>60.66666666666667</ele><time>2026-04-30T16:06:34.001Z</time></trkpt><trkpt lat="42.95116442413368" lon="10.910810015806018"><ele>60.0</ele><time>2026-04-30T16:06:35.001Z</time></trkpt><trkpt lat="42.95116151372937" lon="10.910558206124202"><ele>60.0</ele><time>2026-04-30T16:06:36.001Z</time></trkpt><trkpt lat="42.9511563324756" lon="10.910324537115333"><ele>60.0</ele><time>2026-04-30T16:06:37.001Z</time></trkpt><trkpt lat="42.951154755920406" lon="10.910111165706153"><ele>60.0</ele><time>2026-04-30T16:06:38.001Z</time></trkpt><trkpt lat="42.95115012574972" lon="10.909909311670704"><ele>59.5</ele><time>2026-04-30T16:06:39.001Z</time></trkpt><trkpt lat="42.951148433790884" lon="10.909726791974823"><ele>59.0</ele><time>2026-04-30T16:06:39.999Z</time></trkpt><trkpt lat="42.951154190307655" lon="10.909556424169548"><ele>58.5</ele><time>2026-04-30T16:06:40.999Z</time></trkpt><trkpt lat="42.951174975269716" lon="10.909409305821782"><ele>58.0</ele><time>2026-04-30T16:06:41.999Z</time></trkpt><trkpt lat="42.95120814451182" lon="10.909280445162727"><ele>57.83333333333333</ele><time>2026-04-30T16:06:42.999Z</time></trkpt><trkpt lat="42.95125327574033" lon="10.909176274600837"><ele>57.666666666666664</ele><time>2026-04-30T16:06:43.999Z</time></trkpt><trkpt lat="42.95123940099899" lon="10.909078539472345"><ele>57.5</ele><time>2026-04-30T16:06:44.999Z</time></trkpt><trkpt lat="42.95125918559578" lon="10.908978203800384"><ele>57.33333333333333</ele><time>2026-04-30T16:06:46.999Z</time></trkpt><trkpt lat="42.9513944504781" lon="10.908980490125009"><ele>57.166666666666664</ele><time>2026-04-30T16:06:47.999Z</time></trkpt><trkpt lat="42.951364550395816" lon="10.908892026186827"><ele>57.0</ele><time>2026-04-30T16:06:50.999Z</time></trkpt><trkpt lat="42.95130469755393" lon="10.908834022602791"><ele>57.0</ele><time>2026-04-30T16:06:53.999Z</time></trkpt><trkpt lat="42.95139390782324" lon="10.908821607695144"><ele>57.0</ele><time>2026-04-30T16:09:17Z</time></trkpt><trkpt lat="42.95145945412987" lon="10.908840790133908"><ele>57.0</ele><time>2026-04-30T16:09:24Z</time></trkpt><trkpt lat="42.95139688622787" lon="10.908976871668287"><ele>57.0</ele><time>2026-04-30T16:09:37.001Z</time></trkpt><trkpt lat="42.95144350216837" lon="10.908907157222771"><ele>57.0</ele><time>2026-04-30T16:09:39.001Z</time></trkpt><trkpt lat="42.95151977555924" lon="10.908901567379969"><ele>57.0</ele><time>2026-04-30T16:09:42.001Z</time></trkpt><trkpt lat="42.95157519647903" lon="10.908845937226754"><ele>57.0</ele><time>2026-04-30T16:09:51.001Z</time></trkpt><trkpt lat="42.95159582724876" lon="10.90872534022764"><ele>56.99999999999999</ele><time>2026-04-30T16:10:50.001Z</time></trkpt><trkpt lat="42.951590849511575" lon="10.90881161593633"><ele>57.0</ele><time>2026-04-30T16:11:24.001Z</time></trkpt><trkpt lat="42.95154203966224" lon="10.908897511233706"><ele>57.0</ele><time>2026-04-30T16:11:31.001Z</time></trkpt><trkpt lat="42.95147658973876" lon="10.908878448727208"><ele>56.99999999999999</ele><time>2026-04-30T16:11:53.001Z</time></trkpt><trkpt lat="42.951409578391186" lon="10.908868752322869"><ele>57.0</ele><time>2026-04-30T16:11:58.001Z</time></trkpt><trkpt lat="42.95134756593062" lon="10.908804888875126"><ele>57.0</ele><time>2026-04-30T16:12:04.001Z</time></trkpt><trkpt lat="42.95127696342315" lon="10.90875972539808"><ele>57.0</ele><time>2026-04-30T16:15:33.001Z</time></trkpt><trkpt lat="42.95129013366781" lon="10.90866976786977"><ele>57.0</ele><time>2026-04-30T16:28:27Z</time></trkpt><trkpt lat="42.951224653582045" lon="10.908589549942887"><ele>57.0</ele><time>2026-04-30T16:28:29Z</time></trkpt><trkpt lat="42.951144914045365" lon="10.908501960120436"><ele>57.0</ele><time>2026-04-30T16:28:31Z</time></trkpt><trkpt lat="42.95111302613165" lon="10.90836587181452"><ele>57.0</ele><time>2026-04-30T16:28:33Z</time></trkpt><trkpt lat="42.951103862517684" lon="10.908239044389802"><ele>56.8</ele><time>2026-04-30T16:28:34Z</time></trkpt><trkpt lat="42.95110771422997" lon="10.908111672242573"><ele>56.6</ele><time>2026-04-30T16:28:35Z</time></trkpt><trkpt lat="42.95110402956154" lon="10.907999001954392"><ele>56.39999999999999</ele><time>2026-04-30T16:28:36Z</time></trkpt><trkpt lat="42.95110175051024" lon="10.907887234388653"><ele>56.199999999999996</ele><time>2026-04-30T16:28:37Z</time></trkpt><trkpt lat="42.95109333924532" lon="10.907743429119938"><ele>56.0</ele><time>2026-04-30T16:28:38Z</time></trkpt><trkpt lat="42.951070879617305" lon="10.907545406542278"><ele>55.333333333333336</ele><time>2026-04-30T16:28:39Z</time></trkpt><trkpt lat="42.95105083526298" lon="10.907323931387623"><ele>54.66666666666667</ele><time>2026-04-30T16:28:40Z</time></trkpt><trkpt lat="42.951042320289886" lon="10.907074689182627"><ele>54.0</ele><time>2026-04-30T16:28:41Z</time></trkpt><trkpt lat="42.951036047850124" lon="10.9068568173666"><ele>54.0</ele><time>2026-04-30T16:28:42Z</time></trkpt><trkpt lat="42.95102807742314" lon="10.90664271790908"><ele>54.0</ele><time>2026-04-30T16:28:43Z</time></trkpt><trkpt lat="42.95102046593453" lon="10.906416852171338"><ele>54.0</ele><time>2026-04-30T16:28:44Z</time></trkpt><trkpt lat="42.95101230317924" lon="10.906194016828955"><ele>54.0</ele><time>2026-04-30T16:28:45Z</time></trkpt><trkpt lat="42.95100558448248" lon="10.905953593890095"><ele>54.0</ele><time>2026-04-30T16:28:46Z</time></trkpt><trkpt lat="42.95100065804515" lon="10.90571358158768"><ele>54.0</ele><time>2026-04-30T16:28:47Z</time></trkpt><trkpt lat="42.950995207960105" lon="10.905465134681938"><ele>54.0</ele><time>2026-04-30T16:28:48Z</time></trkpt><trkpt lat="42.95098630675664" lon="10.905202655159469"><ele>54.0</ele><time>2026-04-30T16:28:49Z</time></trkpt><trkpt lat="42.95097293357334" lon="10.904929139331328"><ele>54.0</ele><time>2026-04-30T16:28:50Z</time></trkpt><trkpt lat="42.95095846051554" lon="10.904648317481342"><ele>54.0</ele><time>2026-04-30T16:28:51Z</time></trkpt><trkpt lat="42.95094932096116" lon="10.904366572596185"><ele>54.0</ele><time>2026-04-30T16:28:52Z</time></trkpt><trkpt lat="42.950942576990734" lon="10.904084115510724"><ele>54.0</ele><time>2026-04-30T16:28:53Z</time></trkpt><trkpt lat="42.95093788649867" lon="10.903808011899246"><ele>53.33333333333333</ele><time>2026-04-30T16:28:54Z</time></trkpt><trkpt lat="42.950931063819446" lon="10.9035221094584"><ele>52.666666666666664</ele><time>2026-04-30T16:28:55Z</time></trkpt><trkpt lat="42.95091985418114" lon="10.903217275694143"><ele>52.0</ele><time>2026-04-30T16:28:56Z</time></trkpt><trkpt lat="42.950906853144346" lon="10.902901358756909"><ele>51.5</ele><time>2026-04-30T16:28:57Z</time></trkpt><trkpt lat="42.95089783430291" lon="10.902586633292724"><ele>51.0</ele><time>2026-04-30T16:28:58Z</time></trkpt><trkpt lat="42.9508880778073" lon="10.902273240080435"><ele>50.5</ele><time>2026-04-30T16:28:59Z</time></trkpt><trkpt lat="42.95087806030947" lon="10.901963135000056"><ele>50.0</ele><time>2026-04-30T16:29:00Z</time></trkpt><trkpt lat="42.950869294605845" lon="10.901647573702745"><ele>48.5</ele><time>2026-04-30T16:29:01Z</time></trkpt><trkpt lat="42.95085759136917" lon="10.901329373327822"><ele>47.0</ele><time>2026-04-30T16:29:02Z</time></trkpt><trkpt lat="42.95084719645867" lon="10.90101000510846"><ele>47.5</ele><time>2026-04-30T16:29:03Z</time></trkpt><trkpt lat="42.95083264222366" lon="10.900690359871527"><ele>48.0</ele><time>2026-04-30T16:29:04Z</time></trkpt><trkpt lat="42.95082112498483" lon="10.900372679070314"><ele>48.0</ele><time>2026-04-30T16:29:05Z</time></trkpt><trkpt lat="42.950807828217144" lon="10.90005825641808"><ele>48.0</ele><time>2026-04-30T16:29:06Z</time></trkpt><trkpt lat="42.950797156918064" lon="10.899751573893768"><ele>48.0</ele><time>2026-04-30T16:29:07Z</time></trkpt><trkpt lat="42.950791424769264" lon="10.899443862823873"><ele>48.0</ele><time>2026-04-30T16:29:08Z</time></trkpt><trkpt lat="42.95078301271167" lon="10.899142785916906"><ele>48.0</ele><time>2026-04-30T16:29:09Z</time></trkpt><trkpt lat="42.95076847136179" lon="10.898847893594743"><ele>47.0</ele><time>2026-04-30T16:29:10Z</time></trkpt><trkpt lat="42.95075906562729" lon="10.898551933582034"><ele>46.0</ele><time>2026-04-30T16:29:11Z</time></trkpt><trkpt lat="42.950751020229426" lon="10.898254006401702"><ele>45.0</ele><time>2026-04-30T16:29:12Z</time></trkpt><trkpt lat="42.95074488009044" lon="10.89795270097053"><ele>45.0</ele><time>2026-04-30T16:29:13Z</time></trkpt><trkpt lat="42.95073867152185" lon="10.897641393717123"><ele>45.0</ele><time>2026-04-30T16:29:14Z</time></trkpt><trkpt lat="42.95072588154059" lon="10.897322765611506"><ele>45.0</ele><time>2026-04-30T16:29:15Z</time></trkpt><trkpt lat="42.95071181343504" lon="10.896996380470586"><ele>45.0</ele><time>2026-04-30T16:29:16Z</time></trkpt><trkpt lat="42.95068483575928" lon="10.896644454476974"><ele>44.5</ele><time>2026-04-30T16:29:17Z</time></trkpt><trkpt lat="42.95065803078952" lon="10.89632872666518"><ele>44.0</ele><time>2026-04-30T16:29:18Z</time></trkpt><trkpt lat="42.95066848638381" lon="10.895990671698266"><ele>43.5</ele><time>2026-04-30T16:29:19Z</time></trkpt><trkpt lat="42.950659373150465" lon="10.895659702005672"><ele>43.0</ele><time>2026-04-30T16:29:20Z</time></trkpt><trkpt lat="42.95064734436796" lon="10.895325970211813"><ele>43.0</ele><time>2026-04-30T16:29:21Z</time></trkpt><trkpt lat="42.950636846112026" lon="10.894984119963251"><ele>43.0</ele><time>2026-04-30T16:29:22Z</time></trkpt><trkpt lat="42.9506272411183" lon="10.894645670133066"><ele>43.0</ele><time>2026-04-30T16:29:23Z</time></trkpt><trkpt lat="42.950617451995065" lon="10.894295551423768"><ele>43.0</ele><time>2026-04-30T16:29:24Z</time></trkpt><trkpt lat="42.95060466557638" lon="10.89393387266021"><ele>41.5</ele><time>2026-04-30T16:29:25Z</time></trkpt><trkpt lat="42.950592283246955" lon="10.893556587187833"><ele>40.0</ele><time>2026-04-30T16:29:26Z</time></trkpt><trkpt lat="42.950582421796355" lon="10.893179978362783"><ele>39.5</ele><time>2026-04-30T16:29:27Z</time></trkpt><trkpt lat="42.95057041420884" lon="10.892809277954939"><ele>39.0</ele><time>2026-04-30T16:29:28Z</time></trkpt><trkpt lat="42.95055858684375" lon="10.89242946873384"><ele>39.0</ele><time>2026-04-30T16:29:29Z</time></trkpt><trkpt lat="42.95054445636912" lon="10.892065633737293"><ele>39.0</ele><time>2026-04-30T16:29:30Z</time></trkpt><trkpt lat="42.95052927598829" lon="10.891686352599976"><ele>39.5</ele><time>2026-04-30T16:29:31Z</time></trkpt><trkpt lat="42.95051677041383" lon="10.891345536940051"><ele>40.0</ele><time>2026-04-30T16:29:32Z</time></trkpt><trkpt lat="42.950507024164494" lon="10.891028489399071"><ele>40.0</ele><time>2026-04-30T16:29:33Z</time></trkpt><trkpt lat="42.950498865861135" lon="10.890712524109023"><ele>40.0</ele><time>2026-04-30T16:29:34Z</time></trkpt><trkpt lat="42.95048632364341" lon="10.890407044642048"><ele>40.0</ele><time>2026-04-30T16:29:35Z</time></trkpt><trkpt lat="42.95047682637019" lon="10.890104652807038"><ele>40.0</ele><time>2026-04-30T16:29:36Z</time></trkpt><trkpt lat="42.95046679898932" lon="10.889811164186032"><ele>40.0</ele><time>2026-04-30T16:29:37Z</time></trkpt><trkpt lat="42.95045662202176" lon="10.889526833800995"><ele>40.333333333333336</ele><time>2026-04-30T16:29:38Z</time></trkpt><trkpt lat="42.95044726015529" lon="10.889229174145916"><ele>40.666666666666664</ele><time>2026-04-30T16:29:39Z</time></trkpt><trkpt lat="42.95044380978419" lon="10.888957851200017"><ele>41.0</ele><time>2026-04-30T16:29:40Z</time></trkpt><trkpt lat="42.950435908414995" lon="10.888670272796196"><ele>42.0</ele><time>2026-04-30T16:29:41Z</time></trkpt><trkpt lat="42.9504250092224" lon="10.888358144050676"><ele>43.0</ele><time>2026-04-30T16:29:42Z</time></trkpt><trkpt lat="42.95041252744382" lon="10.88803964310685"><ele>43.0</ele><time>2026-04-30T16:29:43Z</time></trkpt><trkpt lat="42.950402170683084" lon="10.887712813865331"><ele>43.0</ele><time>2026-04-30T16:29:44Z</time></trkpt><trkpt lat="42.950389243849834" lon="10.887383540857057"><ele>44.0</ele><time>2026-04-30T16:29:45Z</time></trkpt><trkpt lat="42.95037918317415" lon="10.88705547700975"><ele>45.0</ele><time>2026-04-30T16:29:45.999Z</time></trkpt><trkpt lat="42.95036017721906" lon="10.886719699696682"><ele>46.0</ele><time>2026-04-30T16:29:46.999Z</time></trkpt><trkpt lat="42.95034121764851" lon="10.88638054686592"><ele>47.0</ele><time>2026-04-30T16:29:47.999Z</time></trkpt><trkpt lat="42.95033049134017" lon="10.886048404154971"><ele>45.0</ele><time>2026-04-30T16:29:48.999Z</time></trkpt><trkpt lat="42.95032410537027" lon="10.885716470152314"><ele>43.0</ele><time>2026-04-30T16:29:49.999Z</time></trkpt><trkpt lat="42.95032065680728" lon="10.885373785741802"><ele>41.5</ele><time>2026-04-30T16:29:50.999Z</time></trkpt><trkpt lat="42.95031960841985" lon="10.885032110989718"><ele>40.0</ele><time>2026-04-30T16:29:51.999Z</time></trkpt><trkpt lat="42.95032258466003" lon="10.884684200206427"><ele>40.0</ele><time>2026-04-30T16:29:52.999Z</time></trkpt><trkpt lat="42.95032891683678" lon="10.884342859423583"><ele>40.0</ele><time>2026-04-30T16:29:53.999Z</time></trkpt><trkpt lat="42.95034441382006" lon="10.884003980220426"><ele>39.5</ele><time>2026-04-30T16:29:54.999Z</time></trkpt><trkpt lat="42.95037066128893" lon="10.883651674285181"><ele>39.0</ele><time>2026-04-30T16:29:55.999Z</time></trkpt><trkpt lat="42.95040456334738" lon="10.883321383640007"><ele>39.0</ele><time>2026-04-30T16:29:56.999Z</time></trkpt><trkpt lat="42.950448900432015" lon="10.88297348470605"><ele>39.0</ele><time>2026-04-30T16:29:57.999Z</time></trkpt><trkpt lat="42.950505400700735" lon="10.882628878201531"><ele>40.0</ele><time>2026-04-30T16:29:58.999Z</time></trkpt><trkpt lat="42.95056939638582" lon="10.882287755854563"><ele>41.0</ele><time>2026-04-30T16:29:59.999Z</time></trkpt><trkpt lat="42.950638460426624" lon="10.88195053312755"><ele>41.5</ele><time>2026-04-30T16:30:00.999Z</time></trkpt><trkpt lat="42.950722620470586" lon="10.88159672869434"><ele>42.0</ele><time>2026-04-30T16:30:01.999Z</time></trkpt><trkpt lat="42.9508030994205" lon="10.881254946191618"><ele>43.5</ele><time>2026-04-30T16:30:02.999Z</time></trkpt><trkpt lat="42.9508917442847" lon="10.880920984751636"><ele>45.0</ele><time>2026-04-30T16:30:03.999Z</time></trkpt><trkpt lat="42.95098577930545" lon="10.880595948431658"><ele>45.0</ele><time>2026-04-30T16:30:04.999Z</time></trkpt><trkpt lat="42.95108370639343" lon="10.880279525199981"><ele>45.0</ele><time>2026-04-30T16:30:05.999Z</time></trkpt><trkpt lat="42.95118481690888" lon="10.879973101399917"><ele>43.5</ele><time>2026-04-30T16:30:06.999Z</time></trkpt><trkpt lat="42.95127774053926" lon="10.87966249054368"><ele>42.0</ele><time>2026-04-30T16:30:08Z</time></trkpt><trkpt lat="42.95136698087775" lon="10.879353518269385"><ele>40.0</ele><time>2026-04-30T16:30:09Z</time></trkpt><trkpt lat="42.95145784727072" lon="10.879043918681633"><ele>38.0</ele><time>2026-04-30T16:30:10Z</time></trkpt><trkpt lat="42.95155143608602" lon="10.878731160179195"><ele>38.5</ele><time>2026-04-30T16:30:11Z</time></trkpt><trkpt lat="42.95163850085419" lon="10.878430871284792"><ele>39.0</ele><time>2026-04-30T16:30:12Z</time></trkpt><trkpt lat="42.951725888960375" lon="10.87813442538541"><ele>39.0</ele><time>2026-04-30T16:30:13Z</time></trkpt><trkpt lat="42.951814577406154" lon="10.87782308007082"><ele>39.0</ele><time>2026-04-30T16:30:14Z</time></trkpt><trkpt lat="42.95190463319062" lon="10.877522027794042"><ele>37.5</ele><time>2026-04-30T16:30:15Z</time></trkpt><trkpt lat="42.951998413043576" lon="10.877221649106353"><ele>36.0</ele><time>2026-04-30T16:30:16Z</time></trkpt><trkpt lat="42.95208774500512" lon="10.876928193133343"><ele>35.0</ele><time>2026-04-30T16:30:17Z</time></trkpt><trkpt lat="42.95218588190139" lon="10.876612235210532"><ele>34.0</ele><time>2026-04-30T16:30:18Z</time></trkpt><trkpt lat="42.95226856855879" lon="10.876300496175734"><ele>34.0</ele><time>2026-04-30T16:30:19Z</time></trkpt><trkpt lat="42.952359424998214" lon="10.875984894549198"><ele>34.0</ele><time>2026-04-30T16:30:20Z</time></trkpt><trkpt lat="42.95245677173144" lon="10.875668680294467"><ele>37.0</ele><time>2026-04-30T16:30:21Z</time></trkpt><trkpt lat="42.95255249334773" lon="10.8753548461206"><ele>40.0</ele><time>2026-04-30T16:30:22Z</time></trkpt><trkpt lat="42.952652117729386" lon="10.87503831056261"><ele>40.5</ele><time>2026-04-30T16:30:23Z</time></trkpt><trkpt lat="42.952745316523966" lon="10.874718557935092"><ele>41.0</ele><time>2026-04-30T16:30:24Z</time></trkpt><trkpt lat="42.95283450702133" lon="10.874403390943746"><ele>42.5</ele><time>2026-04-30T16:30:25Z</time></trkpt><trkpt lat="42.95292635273248" lon="10.874086807684323"><ele>44.0</ele><time>2026-04-30T16:30:26Z</time></trkpt><trkpt lat="42.95302112427467" lon="10.87377537316292"><ele>44.0</ele><time>2026-04-30T16:30:27Z</time></trkpt><trkpt lat="42.95311546513282" lon="10.873451474470587"><ele>44.0</ele><time>2026-04-30T16:30:28Z</time></trkpt><trkpt lat="42.95321018123159" lon="10.873122004308657"><ele>44.5</ele><time>2026-04-30T16:30:29Z</time></trkpt><trkpt lat="42.953306597001095" lon="10.87280151482304"><ele>45.0</ele><time>2026-04-30T16:30:30Z</time></trkpt><trkpt lat="42.953402904855224" lon="10.872480989823751"><ele>45.0</ele><time>2026-04-30T16:30:31Z</time></trkpt><trkpt lat="42.95349713980356" lon="10.872165227399819"><ele>45.0</ele><time>2026-04-30T16:30:32Z</time></trkpt><trkpt lat="42.95359420767828" lon="10.871845120608489"><ele>42.0</ele><time>2026-04-30T16:30:33Z</time></trkpt><trkpt lat="42.95368559366143" lon="10.871525270271125"><ele>39.0</ele><time>2026-04-30T16:30:34Z</time></trkpt><trkpt lat="42.95377865693436" lon="10.871213309461297"><ele>38.5</ele><time>2026-04-30T16:30:35Z</time></trkpt><trkpt lat="42.95387071645122" lon="10.870892743569808"><ele>38.0</ele><time>2026-04-30T16:30:36Z</time></trkpt><trkpt lat="42.953967484410896" lon="10.870578705140353"><ele>38.0</ele><time>2026-04-30T16:30:37Z</time></trkpt><trkpt lat="42.9540657766786" lon="10.870262339150024"><ele>38.0</ele><time>2026-04-30T16:30:38Z</time></trkpt><trkpt lat="42.95416201336574" lon="10.869956778587847"><ele>41.5</ele><time>2026-04-30T16:30:39Z</time></trkpt><trkpt lat="42.95425618573613" lon="10.869637564307656"><ele>45.0</ele><time>2026-04-30T16:30:40Z</time></trkpt><trkpt lat="42.95434859754013" lon="10.869309924511795"><ele>47.5</ele><time>2026-04-30T16:30:41Z</time></trkpt><trkpt lat="42.95444086828051" lon="10.868987835347328"><ele>50.0</ele><time>2026-04-30T16:30:42Z</time></trkpt><trkpt lat="42.954537046040706" lon="10.868660069901944"><ele>52.0</ele><time>2026-04-30T16:30:43Z</time></trkpt><trkpt lat="42.95463296319953" lon="10.868336314837899"><ele>54.0</ele><time>2026-04-30T16:30:44Z</time></trkpt><trkpt lat="42.954731992139685" lon="10.86802001928506"><ele>54.0</ele><time>2026-04-30T16:30:45Z</time></trkpt><trkpt lat="42.954830315694984" lon="10.867694662734007"><ele>54.0</ele><time>2026-04-30T16:30:46Z</time></trkpt><trkpt lat="42.954926248915925" lon="10.867375815614032"><ele>52.0</ele><time>2026-04-30T16:30:47Z</time></trkpt><trkpt lat="42.95502512516543" lon="10.867047902904401"><ele>50.0</ele><time>2026-04-30T16:30:48Z</time></trkpt><trkpt lat="42.955120861809974" lon="10.866720772884895"><ele>49.0</ele><time>2026-04-30T16:30:49Z</time></trkpt><trkpt lat="42.955222231543594" lon="10.866392869192405"><ele>48.0</ele><time>2026-04-30T16:30:50Z</time></trkpt><trkpt lat="42.955324778687114" lon="10.866069567234605"><ele>46.0</ele><time>2026-04-30T16:30:51Z</time></trkpt><trkpt lat="42.95542725241551" lon="10.865756600671023"><ele>44.0</ele><time>2026-04-30T16:30:52Z</time></trkpt><trkpt lat="42.95552730468905" lon="10.865435529985907"><ele>42.5</ele><time>2026-04-30T16:30:53Z</time></trkpt><trkpt lat="42.95563314545524" lon="10.865109580425495"><ele>41.0</ele><time>2026-04-30T16:30:54Z</time></trkpt><trkpt lat="42.95574324425793" lon="10.86478650627817"><ele>41.0</ele><time>2026-04-30T16:30:55Z</time></trkpt><trkpt lat="42.95586275132761" lon="10.864476248389979"><ele>41.0</ele><time>2026-04-30T16:30:56Z</time></trkpt><trkpt lat="42.95598866503578" lon="10.864170811848428"><ele>39.0</ele><time>2026-04-30T16:30:57Z</time></trkpt><trkpt lat="42.956116140309256" lon="10.863869719122231"><ele>37.0</ele><time>2026-04-30T16:30:58Z</time></trkpt><trkpt lat="42.95624138722354" lon="10.863567110373406"><ele>36.0</ele><time>2026-04-30T16:30:59Z</time></trkpt><trkpt lat="42.95637407329058" lon="10.863263441133585"><ele>35.0</ele><time>2026-04-30T16:31:00Z</time></trkpt><trkpt lat="42.9565086704298" lon="10.862966746955319"><ele>35.0</ele><time>2026-04-30T16:31:01Z</time></trkpt><trkpt lat="42.95664983610864" lon="10.862667087699393"><ele>35.0</ele><time>2026-04-30T16:31:02Z</time></trkpt><trkpt lat="42.95679340983459" lon="10.862369134781861"><ele>35.5</ele><time>2026-04-30T16:31:03Z</time></trkpt><trkpt lat="42.956938828348434" lon="10.862068201537976"><ele>36.0</ele><time>2026-04-30T16:31:04Z</time></trkpt><trkpt lat="42.9570953334784" lon="10.861782055672402"><ele>36.0</ele><time>2026-04-30T16:31:05Z</time></trkpt><trkpt lat="42.95724669973856" lon="10.861503454735805"><ele>36.0</ele><time>2026-04-30T16:31:06Z</time></trkpt><trkpt lat="42.95738870873317" lon="10.861209515638317"><ele>36.5</ele><time>2026-04-30T16:31:07Z</time></trkpt><trkpt lat="42.957554911995594" lon="10.860939702830336"><ele>37.0</ele><time>2026-04-30T16:31:08Z</time></trkpt><trkpt lat="42.95773692761953" lon="10.860668263412077"><ele>37.0</ele><time>2026-04-30T16:31:09Z</time></trkpt><trkpt lat="42.95790926333899" lon="10.86040329961237"><ele>37.0</ele><time>2026-04-30T16:31:10Z</time></trkpt><trkpt lat="42.958080879582866" lon="10.860135593596338"><ele>37.0</ele><time>2026-04-30T16:31:11Z</time></trkpt><trkpt lat="42.958255033887376" lon="10.859873380670841"><ele>37.0</ele><time>2026-04-30T16:31:12Z</time></trkpt><trkpt lat="42.95843239016941" lon="10.859612430690994"><ele>38.0</ele><time>2026-04-30T16:31:13Z</time></trkpt><trkpt lat="42.95861316247924" lon="10.859343746427944"><ele>39.0</ele><time>2026-04-30T16:31:14Z</time></trkpt><trkpt lat="42.958794507696965" lon="10.859086648270152"><ele>39.0</ele><time>2026-04-30T16:31:15Z</time></trkpt><trkpt lat="42.95897888492733" lon="10.858837032350683"><ele>39.0</ele><time>2026-04-30T16:31:16Z</time></trkpt><trkpt lat="42.95916958511059" lon="10.858600676406812"><ele>40.5</ele><time>2026-04-30T16:31:17Z</time></trkpt><trkpt lat="42.95936114876357" lon="10.858367374107493"><ele>42.0</ele><time>2026-04-30T16:31:18Z</time></trkpt><trkpt lat="42.95954774352034" lon="10.858141689662515"><ele>42.0</ele><time>2026-04-30T16:31:19Z</time></trkpt><trkpt lat="42.95973492946152" lon="10.857909369287025"><ele>42.0</ele><time>2026-04-30T16:31:20Z</time></trkpt><trkpt lat="42.959932936594896" lon="10.857671645409951"><ele>40.0</ele><time>2026-04-30T16:31:21Z</time></trkpt><trkpt lat="42.96010463218592" lon="10.857459948206118"><ele>38.0</ele><time>2026-04-30T16:31:22Z</time></trkpt><trkpt lat="42.96028162131165" lon="10.85723848125184"><ele>38.0</ele><time>2026-04-30T16:31:23Z</time></trkpt><trkpt lat="42.960464384878634" lon="10.857001124964038"><ele>38.0</ele><time>2026-04-30T16:31:24Z</time></trkpt><trkpt lat="42.96064858000367" lon="10.856763174334425"><ele>38.0</ele><time>2026-04-30T16:31:25Z</time></trkpt><trkpt lat="42.96083351823204" lon="10.856539870132746"><ele>38.0</ele><time>2026-04-30T16:31:26Z</time></trkpt><trkpt lat="42.9610125962703" lon="10.856316083940674"><ele>38.0</ele><time>2026-04-30T16:31:27Z</time></trkpt><trkpt lat="42.961193333648104" lon="10.856093556707458"><ele>38.0</ele><time>2026-04-30T16:31:28Z</time></trkpt><trkpt lat="42.961374086516884" lon="10.85587335326663"><ele>38.0</ele><time>2026-04-30T16:31:29Z</time></trkpt><trkpt lat="42.96155021183476" lon="10.855656826010112"><ele>38.0</ele><time>2026-04-30T16:31:30Z</time></trkpt><trkpt lat="42.96172547435166" lon="10.855437687166255"><ele>39.0</ele><time>2026-04-30T16:31:31Z</time></trkpt><trkpt lat="42.96189918541383" lon="10.855218940093229"><ele>40.0</ele><time>2026-04-30T16:31:32Z</time></trkpt><trkpt lat="42.96207123696283" lon="10.85499964556836"><ele>40.0</ele><time>2026-04-30T16:31:33Z</time></trkpt><trkpt lat="42.96222785053216" lon="10.854763050927195"><ele>40.0</ele><time>2026-04-30T16:31:34Z</time></trkpt><trkpt lat="42.962375669217465" lon="10.854495790648722"><ele>39.5</ele><time>2026-04-30T16:31:35Z</time></trkpt><trkpt lat="42.96252417126121" lon="10.854222938245183"><ele>39.0</ele><time>2026-04-30T16:31:36Z</time></trkpt><trkpt lat="42.96266602648225" lon="10.853952079902294"><ele>39.0</ele><time>2026-04-30T16:31:37Z</time></trkpt><trkpt lat="42.96280295098184" lon="10.853675503766839"><ele>39.0</ele><time>2026-04-30T16:31:38Z</time></trkpt><trkpt lat="42.96293519648323" lon="10.853385694716088"><ele>41.0</ele><time>2026-04-30T16:31:39Z</time></trkpt><trkpt lat="42.963060887960964" lon="10.853082989073085"><ele>43.0</ele><time>2026-04-30T16:31:40Z</time></trkpt><trkpt lat="42.96317107400687" lon="10.85278039160739"><ele>43.5</ele><time>2026-04-30T16:31:41Z</time></trkpt><trkpt lat="42.96327508232857" lon="10.852469156869574"><ele>44.0</ele><time>2026-04-30T16:31:42Z</time></trkpt><trkpt lat="42.96337248797548" lon="10.85215840704434"><ele>45.5</ele><time>2026-04-30T16:31:43Z</time></trkpt><trkpt lat="42.96346724088536" lon="10.851836976648697"><ele>47.0</ele><time>2026-04-30T16:31:44Z</time></trkpt><trkpt lat="42.96354568239604" lon="10.851519536944828"><ele>47.0</ele><time>2026-04-30T16:31:45Z</time></trkpt><trkpt lat="42.96361868621039" lon="10.851180459617995"><ele>47.0</ele><time>2026-04-30T16:31:46Z</time></trkpt><trkpt lat="42.96367999584388" lon="10.85082892964914"><ele>47.5</ele><time>2026-04-30T16:31:47Z</time></trkpt><trkpt lat="42.96373360022638" lon="10.850489585671474"><ele>48.0</ele><time>2026-04-30T16:31:48Z</time></trkpt><trkpt lat="42.96377919728389" lon="10.850138625669109"><ele>48.5</ele><time>2026-04-30T16:31:49Z</time></trkpt><trkpt lat="42.963812385138276" lon="10.849783719065426"><ele>49.0</ele><time>2026-04-30T16:31:50Z</time></trkpt><trkpt lat="42.963835867291124" lon="10.849432710964443"><ele>48.5</ele><time>2026-04-30T16:31:51Z</time></trkpt><trkpt lat="42.963847248121894" lon="10.849088069838094"><ele>48.0</ele><time>2026-04-30T16:31:51.999Z</time></trkpt><trkpt lat="42.96383092944751" lon="10.848740620666904"><ele>45.5</ele><time>2026-04-30T16:31:52.999Z</time></trkpt><trkpt lat="42.96382380529726" lon="10.848390102203254"><ele>43.0</ele><time>2026-04-30T16:31:53.999Z</time></trkpt><trkpt lat="42.963806426716346" lon="10.84803080381223"><ele>43.0</ele><time>2026-04-30T16:31:54.999Z</time></trkpt><trkpt lat="42.963777615105926" lon="10.8476826523394"><ele>43.0</ele><time>2026-04-30T16:31:55.999Z</time></trkpt><trkpt lat="42.9637362556638" lon="10.84732916774341"><ele>42.0</ele><time>2026-04-30T16:31:56.999Z</time></trkpt><trkpt lat="42.963690194044" lon="10.846987066739821"><ele>41.0</ele><time>2026-04-30T16:31:57.999Z</time></trkpt><trkpt lat="42.963635770401496" lon="10.846644105374839"><ele>40.5</ele><time>2026-04-30T16:31:58.999Z</time></trkpt><trkpt lat="42.96357898930347" lon="10.846294430068763"><ele>40.0</ele><time>2026-04-30T16:31:59.999Z</time></trkpt><trkpt lat="42.96352320362905" lon="10.845940222463236"><ele>39.5</ele><time>2026-04-30T16:32:00.999Z</time></trkpt><trkpt lat="42.9634648995367" lon="10.84559476862228"><ele>39.0</ele><time>2026-04-30T16:32:01.999Z</time></trkpt><trkpt lat="42.9634090426827" lon="10.845238068914098"><ele>39.0</ele><time>2026-04-30T16:32:02.999Z</time></trkpt><trkpt lat="42.96335342292045" lon="10.844885277699525"><ele>39.0</ele><time>2026-04-30T16:32:03.999Z</time></trkpt><trkpt lat="42.96329854280445" lon="10.844522237518525"><ele>38.5</ele><time>2026-04-30T16:32:04.999Z</time></trkpt><trkpt lat="42.96324502129931" lon="10.844166920596825"><ele>38.0</ele><time>2026-04-30T16:32:05.999Z</time></trkpt><trkpt lat="42.96319093117185" lon="10.843815921941935"><ele>39.0</ele><time>2026-04-30T16:32:06.999Z</time></trkpt><trkpt lat="42.963134873035834" lon="10.84345103095773"><ele>40.0</ele><time>2026-04-30T16:32:07.999Z</time></trkpt><trkpt lat="42.96307817234587" lon="10.843093078746469"><ele>40.0</ele><time>2026-04-30T16:32:08.999Z</time></trkpt><trkpt lat="42.96301906037939" lon="10.842733336678581"><ele>40.0</ele><time>2026-04-30T16:32:09.999Z</time></trkpt><trkpt lat="42.96296349640031" lon="10.842376308889877"><ele>40.0</ele><time>2026-04-30T16:32:10.999Z</time></trkpt><trkpt lat="42.9629038233296" lon="10.84201610702132"><ele>40.0</ele><time>2026-04-30T16:32:11.999Z</time></trkpt><trkpt lat="42.962849664076785" lon="10.841649707090928"><ele>40.0</ele><time>2026-04-30T16:32:12.999Z</time></trkpt><trkpt lat="42.96279453287216" lon="10.841295237716825"><ele>40.0</ele><time>2026-04-30T16:32:13.999Z</time></trkpt><trkpt lat="42.96273334853674" lon="10.840939430874068"><ele>41.0</ele><time>2026-04-30T16:32:14.999Z</time></trkpt><trkpt lat="42.962675205770815" lon="10.84058942603545"><ele>42.0</ele><time>2026-04-30T16:32:15.999Z</time></trkpt><trkpt lat="42.96261570790054" lon="10.840230082190512"><ele>42.0</ele><time>2026-04-30T16:32:16.999Z</time></trkpt><trkpt lat="42.962548381255594" lon="10.839889215108398"><ele>42.0</ele><time>2026-04-30T16:32:17.999Z</time></trkpt><trkpt lat="42.962472010439036" lon="10.83954283850541"><ele>41.0</ele><time>2026-04-30T16:32:18.999Z</time></trkpt><trkpt lat="42.9623919396967" lon="10.83920332109574"><ele>40.0</ele><time>2026-04-30T16:32:19.999Z</time></trkpt><trkpt lat="42.96231267587859" lon="10.83885749521703"><ele>40.0</ele><time>2026-04-30T16:32:21Z</time></trkpt><trkpt lat="42.96223328075956" lon="10.838518340294467"><ele>40.0</ele><time>2026-04-30T16:32:22Z</time></trkpt><trkpt lat="42.96214903153744" lon="10.838160212717833"><ele>39.0</ele><time>2026-04-30T16:32:23Z</time></trkpt><trkpt lat="42.96206499173398" lon="10.837813867718983"><ele>38.0</ele><time>2026-04-30T16:32:24Z</time></trkpt><trkpt lat="42.961984753361115" lon="10.837474954484948"><ele>36.0</ele><time>2026-04-30T16:32:25Z</time></trkpt><trkpt lat="42.961897036874475" lon="10.837119662178397"><ele>34.0</ele><time>2026-04-30T16:32:26Z</time></trkpt><trkpt lat="42.961816189652495" lon="10.83677709455125"><ele>33.0</ele><time>2026-04-30T16:32:27Z</time></trkpt><trkpt lat="42.96173488201204" lon="10.83643619596722"><ele>32.0</ele><time>2026-04-30T16:32:28Z</time></trkpt><trkpt lat="42.96165005599027" lon="10.836084686281135"><ele>30.5</ele><time>2026-04-30T16:32:29Z</time></trkpt><trkpt lat="42.96157137316858" lon="10.835752970482934"><ele>29.0</ele><time>2026-04-30T16:32:30Z</time></trkpt><trkpt lat="42.961484740629345" lon="10.835410565391365"><ele>29.5</ele><time>2026-04-30T16:32:31Z</time></trkpt><trkpt lat="42.9614055507247" lon="10.835075504727868"><ele>30.0</ele><time>2026-04-30T16:32:32Z</time></trkpt><trkpt lat="42.96132122858097" lon="10.834733354654764"><ele>30.0</ele><time>2026-04-30T16:32:33Z</time></trkpt><trkpt lat="42.96124016959768" lon="10.834402103885365"><ele>30.0</ele><time>2026-04-30T16:32:34Z</time></trkpt><trkpt lat="42.961164520049735" lon="10.834074632214655"><ele>30.5</ele><time>2026-04-30T16:32:35Z</time></trkpt><trkpt lat="42.96108739656263" lon="10.833747223703455"><ele>31.0</ele><time>2026-04-30T16:32:36Z</time></trkpt><trkpt lat="42.9610112546578" lon="10.833421293422049"><ele>29.0</ele><time>2026-04-30T16:32:37Z</time></trkpt><trkpt lat="42.9609384044353" lon="10.83309732275767"><ele>27.0</ele><time>2026-04-30T16:32:38Z</time></trkpt><trkpt lat="42.96086286588826" lon="10.83276924445797"><ele>25.5</ele><time>2026-04-30T16:32:39Z</time></trkpt><trkpt lat="42.96078330587274" lon="10.832436028986239"><ele>24.0</ele><time>2026-04-30T16:32:40Z</time></trkpt><trkpt lat="42.96070282275049" lon="10.832101634125133"><ele>23.5</ele><time>2026-04-30T16:32:41Z</time></trkpt><trkpt lat="42.96061937532375" lon="10.831768405510577"><ele>23.0</ele><time>2026-04-30T16:32:42Z</time></trkpt><trkpt lat="42.96055362500757" lon="10.831419009721737"><ele>23.0</ele><time>2026-04-30T16:32:43Z</time></trkpt><trkpt lat="42.96046063108673" lon="10.831090252592166"><ele>23.0</ele><time>2026-04-30T16:32:44Z</time></trkpt><trkpt lat="42.96038086715923" lon="10.8307583638793"><ele>22.0</ele><time>2026-04-30T16:32:45Z</time></trkpt><trkpt lat="42.960295614227014" lon="10.83042219654713"><ele>21.0</ele><time>2026-04-30T16:32:46Z</time></trkpt><trkpt lat="42.960221958800226" lon="10.830101690752285"><ele>20.5</ele><time>2026-04-30T16:32:47Z</time></trkpt><trkpt lat="42.96014470260178" lon="10.82977046659702"><ele>20.0</ele><time>2026-04-30T16:32:48Z</time></trkpt><trkpt lat="42.96006758434044" lon="10.829442461380925"><ele>21.0</ele><time>2026-04-30T16:32:49Z</time></trkpt><trkpt lat="42.95999122600331" lon="10.829112336979815"><ele>22.0</ele><time>2026-04-30T16:32:50Z</time></trkpt><trkpt lat="42.95991277096238" lon="10.828784231210543"><ele>22.5</ele><time>2026-04-30T16:32:51Z</time></trkpt><trkpt lat="42.95983273172469" lon="10.828460350875533"><ele>23.0</ele><time>2026-04-30T16:32:52Z</time></trkpt><trkpt lat="42.9597550120529" lon="10.828142946661975"><ele>23.0</ele><time>2026-04-30T16:32:53Z</time></trkpt><trkpt lat="42.959671914101804" lon="10.827818173670686"><ele>23.0</ele><time>2026-04-30T16:32:54Z</time></trkpt><trkpt lat="42.959596688121444" lon="10.827489421399536"><ele>23.0</ele><time>2026-04-30T16:32:55Z</time></trkpt><trkpt lat="42.95952390071672" lon="10.827147320936552"><ele>23.0</ele><time>2026-04-30T16:32:56Z</time></trkpt><trkpt lat="42.95945553810426" lon="10.826809611833676"><ele>23.0</ele><time>2026-04-30T16:32:57Z</time></trkpt><trkpt lat="42.95938953086207" lon="10.826482490519043"><ele>23.0</ele><time>2026-04-30T16:32:58Z</time></trkpt><trkpt lat="42.95932402501233" lon="10.826167757653472"><ele>22.0</ele><time>2026-04-30T16:32:59Z</time></trkpt><trkpt lat="42.95926887019769" lon="10.825861333600022"><ele>21.0</ele><time>2026-04-30T16:33:00Z</time></trkpt><trkpt lat="42.959224082568" lon="10.825556642205788"><ele>21.0</ele><time>2026-04-30T16:33:01Z</time></trkpt><trkpt lat="42.95917802875876" lon="10.825234512917568"><ele>21.0</ele><time>2026-04-30T16:33:02Z</time></trkpt><trkpt lat="42.95913404074869" lon="10.824899742900048"><ele>21.0</ele><time>2026-04-30T16:33:03Z</time></trkpt><trkpt lat="42.95908602977653" lon="10.824539671083736"><ele>21.0</ele><time>2026-04-30T16:33:04Z</time></trkpt><trkpt lat="42.95904185763512" lon="10.824176283986981"><ele>21.0</ele><time>2026-04-30T16:33:05Z</time></trkpt><trkpt lat="42.9590032328375" lon="10.823816830093175"><ele>21.0</ele><time>2026-04-30T16:33:06Z</time></trkpt><trkpt lat="42.958975951344804" lon="10.823467057003"><ele>21.0</ele><time>2026-04-30T16:33:07Z</time></trkpt><trkpt lat="42.95896026342374" lon="10.82311829893834"><ele>21.0</ele><time>2026-04-30T16:33:08Z</time></trkpt><trkpt lat="42.95894958908303" lon="10.822761434802567"><ele>21.0</ele><time>2026-04-30T16:33:09Z</time></trkpt><trkpt lat="42.958940583704766" lon="10.822399947905208"><ele>21.0</ele><time>2026-04-30T16:33:10Z</time></trkpt><trkpt lat="42.95893685705073" lon="10.82203386380994"><ele>21.5</ele><time>2026-04-30T16:33:11Z</time></trkpt><trkpt lat="42.95893108337751" lon="10.821679928340346"><ele>22.0</ele><time>2026-04-30T16:33:12Z</time></trkpt><trkpt lat="42.958921859501885" lon="10.821347048163542"><ele>22.0</ele><time>2026-04-30T16:33:13Z</time></trkpt><trkpt lat="42.95891644787479" lon="10.82100176557321"><ele>22.0</ele><time>2026-04-30T16:33:14Z</time></trkpt><trkpt lat="42.95892052762107" lon="10.820657135852397"><ele>22.0</ele><time>2026-04-30T16:33:15Z</time></trkpt><trkpt lat="42.958928443537715" lon="10.82030727995029"><ele>22.0</ele><time>2026-04-30T16:33:16Z</time></trkpt><trkpt lat="42.95893857742623" lon="10.81995970848704"><ele>21.0</ele><time>2026-04-30T16:33:17Z</time></trkpt><trkpt lat="42.958952894166615" lon="10.819613537285381"><ele>20.0</ele><time>2026-04-30T16:33:18Z</time></trkpt><trkpt lat="42.95897247474863" lon="10.819253851008614"><ele>20.0</ele><time>2026-04-30T16:33:19Z</time></trkpt><trkpt lat="42.95899503167983" lon="10.818905983779102"><ele>20.0</ele><time>2026-04-30T16:33:20Z</time></trkpt><trkpt lat="42.959014055089526" lon="10.818553309589387"><ele>19.5</ele><time>2026-04-30T16:33:21Z</time></trkpt><trkpt lat="42.959031575144785" lon="10.818208154583871"><ele>19.0</ele><time>2026-04-30T16:33:22Z</time></trkpt><trkpt lat="42.959047213654024" lon="10.817859398187638"><ele>19.5</ele><time>2026-04-30T16:33:23Z</time></trkpt><trkpt lat="42.959063630988375" lon="10.817515212714369"><ele>20.0</ele><time>2026-04-30T16:33:24Z</time></trkpt><trkpt lat="42.95907833007739" lon="10.817168773316173"><ele>20.0</ele><time>2026-04-30T16:33:25Z</time></trkpt><trkpt lat="42.95909539138098" lon="10.816830140895867"><ele>20.0</ele><time>2026-04-30T16:33:26Z</time></trkpt><trkpt lat="42.959114945796806" lon="10.816494812607035"><ele>19.5</ele><time>2026-04-30T16:33:27Z</time></trkpt><trkpt lat="42.95913307414567" lon="10.816160923602265"><ele>19.0</ele><time>2026-04-30T16:33:28Z</time></trkpt><trkpt lat="42.95915032115846" lon="10.815827445683793"><ele>19.0</ele><time>2026-04-30T16:33:29Z</time></trkpt><trkpt lat="42.959168200894446" lon="10.815493606465457"><ele>19.0</ele><time>2026-04-30T16:33:30Z</time></trkpt><trkpt lat="42.959189644651914" lon="10.815149322412822"><ele>20.0</ele><time>2026-04-30T16:33:31Z</time></trkpt><trkpt lat="42.959212601420774" lon="10.814802687242242"><ele>21.0</ele><time>2026-04-30T16:33:32Z</time></trkpt><trkpt lat="42.95923914262528" lon="10.814460372776976"><ele>22.0</ele><time>2026-04-30T16:33:33Z</time></trkpt><trkpt lat="42.9592684201711" lon="10.81410877652553"><ele>23.0</ele><time>2026-04-30T16:33:34Z</time></trkpt><trkpt lat="42.959307210536245" lon="10.813770304555542"><ele>22.0</ele><time>2026-04-30T16:33:35Z</time></trkpt><trkpt lat="42.95933740890719" lon="10.813440539695984"><ele>21.0</ele><time>2026-04-30T16:33:36Z</time></trkpt><trkpt lat="42.95937011045961" lon="10.813121160841938"><ele>21.0</ele><time>2026-04-30T16:33:37Z</time></trkpt><trkpt lat="42.95940022247719" lon="10.81280289657133"><ele>21.0</ele><time>2026-04-30T16:33:38Z</time></trkpt><trkpt lat="42.959431468724404" lon="10.812482538509908"><ele>21.0</ele><time>2026-04-30T16:33:39Z</time></trkpt><trkpt lat="42.959459753412425" lon="10.81215633513745"><ele>21.0</ele><time>2026-04-30T16:33:40Z</time></trkpt><trkpt lat="42.95949047592773" lon="10.81182734032118"><ele>21.0</ele><time>2026-04-30T16:33:41Z</time></trkpt><trkpt lat="42.95951549536334" lon="10.811503455822292"><ele>21.0</ele><time>2026-04-30T16:33:42Z</time></trkpt><trkpt lat="42.959544485940484" lon="10.811178291385392"><ele>21.5</ele><time>2026-04-30T16:33:43Z</time></trkpt><trkpt lat="42.95956090678832" lon="10.810859664353691"><ele>22.0</ele><time>2026-04-30T16:33:44Z</time></trkpt><trkpt lat="42.95960252112207" lon="10.81053586549527"><ele>22.0</ele><time>2026-04-30T16:33:45Z</time></trkpt><trkpt lat="42.95962545939458" lon="10.810209581940322"><ele>22.0</ele><time>2026-04-30T16:33:46Z</time></trkpt><trkpt lat="42.959642822119925" lon="10.809881061220876"><ele>21.5</ele><time>2026-04-30T16:33:47Z</time></trkpt><trkpt lat="42.959648054383145" lon="10.809551058562509"><ele>21.0</ele><time>2026-04-30T16:33:48.001Z</time></trkpt><trkpt lat="42.95964149663412" lon="10.809194709902814"><ele>20.5</ele><time>2026-04-30T16:33:49.001Z</time></trkpt><trkpt lat="42.95963291086146" lon="10.808844574348448"><ele>20.0</ele><time>2026-04-30T16:33:50.001Z</time></trkpt><trkpt lat="42.959627290179675" lon="10.80849634841833"><ele>19.5</ele><time>2026-04-30T16:33:51.001Z</time></trkpt><trkpt lat="42.95961903096825" lon="10.808149339563764"><ele>19.0</ele><time>2026-04-30T16:33:52.001Z</time></trkpt><trkpt lat="42.95960663164576" lon="10.807802963621054"><ele>19.5</ele><time>2026-04-30T16:33:53.001Z</time></trkpt><trkpt lat="42.95958896921948" lon="10.807454072045175"><ele>20.0</ele><time>2026-04-30T16:33:54.001Z</time></trkpt><trkpt lat="42.95956296434293" lon="10.807102519920784"><ele>19.0</ele><time>2026-04-30T16:33:55.001Z</time></trkpt><trkpt lat="42.959530158861234" lon="10.806750555641548"><ele>18.0</ele><time>2026-04-30T16:33:56.001Z</time></trkpt><trkpt lat="42.9594961376497" lon="10.806401495189725"><ele>18.0</ele><time>2026-04-30T16:33:57.001Z</time></trkpt><trkpt lat="42.95945113755959" lon="10.806047026638508"><ele>18.0</ele><time>2026-04-30T16:33:57.999Z</time></trkpt><trkpt lat="42.9594043724209" lon="10.805701760064467"><ele>17.5</ele><time>2026-04-30T16:33:58.999Z</time></trkpt><trkpt lat="42.959353228586075" lon="10.805361968174076"><ele>17.0</ele><time>2026-04-30T16:33:59.999Z</time></trkpt><trkpt lat="42.95929818539047" lon="10.805018049570684"><ele>17.5</ele><time>2026-04-30T16:34:00.999Z</time></trkpt><trkpt lat="42.95924261018492" lon="10.804674228233235"><ele>18.0</ele><time>2026-04-30T16:34:01.999Z</time></trkpt><trkpt lat="42.95918444344279" lon="10.804330045823765"><ele>18.5</ele><time>2026-04-30T16:34:02.999Z</time></trkpt><trkpt lat="42.95913279391697" lon="10.803979187803927"><ele>19.0</ele><time>2026-04-30T16:34:03.999Z</time></trkpt><trkpt lat="42.9590781126675" lon="10.803633937365047"><ele>19.0</ele><time>2026-04-30T16:34:04.999Z</time></trkpt><trkpt lat="42.959026596198115" lon="10.803295145873285"><ele>19.0</ele><time>2026-04-30T16:34:05.999Z</time></trkpt><trkpt lat="42.95896927060393" lon="10.802948353165068"><ele>19.5</ele><time>2026-04-30T16:34:06.999Z</time></trkpt><trkpt lat="42.958912197138325" lon="10.802605999804314"><ele>20.0</ele><time>2026-04-30T16:34:07.999Z</time></trkpt><trkpt lat="42.9588554462112" lon="10.802261425038896"><ele>20.0</ele><time>2026-04-30T16:34:08.999Z</time></trkpt><trkpt lat="42.958799712783" lon="10.801915052443364"><ele>20.0</ele><time>2026-04-30T16:34:09.999Z</time></trkpt><trkpt lat="42.95873890734237" lon="10.80157168927119"><ele>19.5</ele><time>2026-04-30T16:34:10.999Z</time></trkpt><trkpt lat="42.958676962263226" lon="10.801224485985443"><ele>19.0</ele><time>2026-04-30T16:34:11.999Z</time></trkpt><trkpt lat="42.95862240099751" lon="10.800882219854952"><ele>19.0</ele><time>2026-04-30T16:34:12.999Z</time></trkpt><trkpt lat="42.95856768619256" lon="10.800536946106835"><ele>19.0</ele><time>2026-04-30T16:34:14Z</time></trkpt><trkpt lat="42.95851252789501" lon="10.80019202930274"><ele>19.5</ele><time>2026-04-30T16:34:15Z</time></trkpt><trkpt lat="42.9584598131795" lon="10.799853113024117"><ele>20.0</ele><time>2026-04-30T16:34:16Z</time></trkpt><trkpt lat="42.958401231423" lon="10.79950784064047"><ele>20.0</ele><time>2026-04-30T16:34:17Z</time></trkpt><trkpt lat="42.9583466471879" lon="10.799170726368624"><ele>20.0</ele><time>2026-04-30T16:34:18Z</time></trkpt><trkpt lat="42.95828955005465" lon="10.798830559408131"><ele>21.0</ele><time>2026-04-30T16:34:19Z</time></trkpt><trkpt lat="42.95823499140843" lon="10.798493736924685"><ele>22.0</ele><time>2026-04-30T16:34:20Z</time></trkpt><trkpt lat="42.95817959322847" lon="10.798158508037345"><ele>22.0</ele><time>2026-04-30T16:34:21Z</time></trkpt><trkpt lat="42.958118130783895" lon="10.797816360004017"><ele>22.0</ele><time>2026-04-30T16:34:22Z</time></trkpt><trkpt lat="42.95805959596019" lon="10.797479820314935"><ele>23.5</ele><time>2026-04-30T16:34:23Z</time></trkpt><trkpt lat="42.958000386031344" lon="10.797145360211367"><ele>25.0</ele><time>2026-04-30T16:34:24Z</time></trkpt><trkpt lat="42.95794848337743" lon="10.796812078310397"><ele>26.0</ele><time>2026-04-30T16:34:25Z</time></trkpt><trkpt lat="42.95789196464613" lon="10.79647078315791"><ele>27.0</ele><time>2026-04-30T16:34:26Z</time></trkpt><trkpt lat="42.95783153853686" lon="10.796124317922294"><ele>28.5</ele><time>2026-04-30T16:34:27Z</time></trkpt><trkpt lat="42.95777790932694" lon="10.795787233856341"><ele>30.0</ele><time>2026-04-30T16:34:28Z</time></trkpt><trkpt lat="42.957718743559376" lon="10.795436072959111"><ele>31.0</ele><time>2026-04-30T16:34:29Z</time></trkpt><trkpt lat="42.957663330331805" lon="10.79509740825774"><ele>32.0</ele><time>2026-04-30T16:34:30Z</time></trkpt><trkpt lat="42.957603656989654" lon="10.794745989589384"><ele>32.0</ele><time>2026-04-30T16:34:31Z</time></trkpt><trkpt lat="42.9575465770354" lon="10.794403213006067"><ele>32.0</ele><time>2026-04-30T16:34:32Z</time></trkpt><trkpt lat="42.95749737591401" lon="10.794054851468303"><ele>32.0</ele><time>2026-04-30T16:34:33Z</time></trkpt><trkpt lat="42.957437603555775" lon="10.793702604175865"><ele>32.0</ele><time>2026-04-30T16:34:34Z</time></trkpt><trkpt lat="42.95738148597005" lon="10.793373264117779"><ele>32.5</ele><time>2026-04-30T16:34:35Z</time></trkpt><trkpt lat="42.95732380026904" lon="10.793046798702994"><ele>33.0</ele><time>2026-04-30T16:34:36Z</time></trkpt><trkpt lat="42.957274187086846" lon="10.79271729135191"><ele>33.5</ele><time>2026-04-30T16:34:37Z</time></trkpt><trkpt lat="42.95722030540336" lon="10.79238505996821"><ele>34.0</ele><time>2026-04-30T16:34:38Z</time></trkpt><trkpt lat="42.95716229144842" lon="10.792057347590044"><ele>34.5</ele><time>2026-04-30T16:34:39Z</time></trkpt><trkpt lat="42.957103010969654" lon="10.791724675880593"><ele>35.0</ele><time>2026-04-30T16:34:40Z</time></trkpt><trkpt lat="42.957040154849416" lon="10.791390494394253"><ele>35.0</ele><time>2026-04-30T16:34:41Z</time></trkpt><trkpt lat="42.956977508668984" lon="10.791061333786162"><ele>35.0</ele><time>2026-04-30T16:34:42Z</time></trkpt><trkpt lat="42.956902120358784" lon="10.790729714909123"><ele>35.5</ele><time>2026-04-30T16:34:43Z</time></trkpt><trkpt lat="42.9568334800736" lon="10.790401565296994"><ele>36.0</ele><time>2026-04-30T16:34:44Z</time></trkpt><trkpt lat="42.95676094303548" lon="10.79007893646623"><ele>37.0</ele><time>2026-04-30T16:34:45Z</time></trkpt><trkpt lat="42.95668783169072" lon="10.7897666405835"><ele>38.0</ele><time>2026-04-30T16:34:46Z</time></trkpt><trkpt lat="42.95659451335679" lon="10.789460294718378"><ele>39.5</ele><time>2026-04-30T16:34:47Z</time></trkpt><trkpt lat="42.95651685000413" lon="10.78916846135328"><ele>41.0</ele><time>2026-04-30T16:34:48Z</time></trkpt><trkpt lat="42.95643176530481" lon="10.78885220951995"><ele>41.0</ele><time>2026-04-30T16:34:49Z</time></trkpt><trkpt lat="42.95631761708489" lon="10.788526678555401"><ele>41.0</ele><time>2026-04-30T16:34:50Z</time></trkpt><trkpt lat="42.956208843124905" lon="10.78823166175941"><ele>40.0</ele><time>2026-04-30T16:34:51Z</time></trkpt><trkpt lat="42.95610300447511" lon="10.787937301931628"><ele>39.0</ele><time>2026-04-30T16:34:52Z</time></trkpt><trkpt lat="42.9559857909318" lon="10.787631303497623"><ele>35.5</ele><time>2026-04-30T16:34:53Z</time></trkpt><trkpt lat="42.955865567454154" lon="10.7873264541436"><ele>32.0</ele><time>2026-04-30T16:34:54Z</time></trkpt><trkpt lat="42.95574280867133" lon="10.78703074146783"><ele>34.5</ele><time>2026-04-30T16:34:55Z</time></trkpt><trkpt lat="42.95561285744489" lon="10.786738005370575"><ele>37.0</ele><time>2026-04-30T16:34:56Z</time></trkpt><trkpt lat="42.955489796928575" lon="10.786431613917667"><ele>37.0</ele><time>2026-04-30T16:34:57Z</time></trkpt><trkpt lat="42.95536138118529" lon="10.786136270400693"><ele>37.0</ele><time>2026-04-30T16:34:58Z</time></trkpt><trkpt lat="42.955223948648225" lon="10.78585306481557"><ele>37.5</ele><time>2026-04-30T16:34:59Z</time></trkpt><trkpt lat="42.955096435488585" lon="10.785551697174673"><ele>38.0</ele><time>2026-04-30T16:35:00Z</time></trkpt><trkpt lat="42.954962638985585" lon="10.785247652640447"><ele>36.5</ele><time>2026-04-30T16:35:01Z</time></trkpt><trkpt lat="42.95483174946165" lon="10.784946662257907"><ele>35.0</ele><time>2026-04-30T16:35:02Z</time></trkpt><trkpt lat="42.95469940773733" lon="10.784647452098165"><ele>36.5</ele><time>2026-04-30T16:35:03Z</time></trkpt><trkpt lat="42.95457079742274" lon="10.784339375844338"><ele>38.0</ele><time>2026-04-30T16:35:04Z</time></trkpt><trkpt lat="42.95443489070553" lon="10.784039196518032"><ele>38.0</ele><time>2026-04-30T16:35:05Z</time></trkpt><trkpt lat="42.954297811491216" lon="10.783736263922673"><ele>38.0</ele><time>2026-04-30T16:35:06Z</time></trkpt><trkpt lat="42.954166604291466" lon="10.78343496791996"><ele>38.0</ele><time>2026-04-30T16:35:07Z</time></trkpt><trkpt lat="42.95403381740006" lon="10.78312868330334"><ele>38.0</ele><time>2026-04-30T16:35:08Z</time></trkpt><trkpt lat="42.95390276379194" lon="10.782831052759333"><ele>39.0</ele><time>2026-04-30T16:35:09Z</time></trkpt><trkpt lat="42.95377118079537" lon="10.78253248319902"><ele>40.0</ele><time>2026-04-30T16:35:10Z</time></trkpt><trkpt lat="42.95364141747395" lon="10.782234004067272"><ele>40.0</ele><time>2026-04-30T16:35:11Z</time></trkpt><trkpt lat="42.953512805299184" lon="10.781942643266044"><ele>40.0</ele><time>2026-04-30T16:35:12Z</time></trkpt><trkpt lat="42.95337910683506" lon="10.781647840217628"><ele>39.0</ele><time>2026-04-30T16:35:13Z</time></trkpt><trkpt lat="42.9532482822428" lon="10.781354690607488"><ele>38.0</ele><time>2026-04-30T16:35:14Z</time></trkpt><trkpt lat="42.95311435596838" lon="10.781063708701282"><ele>38.5</ele><time>2026-04-30T16:35:15Z</time></trkpt><trkpt lat="42.952982000575496" lon="10.780766462432771"><ele>39.0</ele><time>2026-04-30T16:35:16.001Z</time></trkpt><trkpt lat="42.952847700551075" lon="10.780476580268916"><ele>40.0</ele><time>2026-04-30T16:35:17.001Z</time></trkpt><trkpt lat="42.95271794184451" lon="10.78016948587387"><ele>41.0</ele><time>2026-04-30T16:35:18.001Z</time></trkpt><trkpt lat="42.95258587854539" lon="10.779865624806645"><ele>41.0</ele><time>2026-04-30T16:35:19.001Z</time></trkpt><trkpt lat="42.9524533346833" lon="10.779562395084703"><ele>41.0</ele><time>2026-04-30T16:35:20.001Z</time></trkpt><trkpt lat="42.952320431443724" lon="10.779253518400331"><ele>41.0</ele><time>2026-04-30T16:35:21.001Z</time></trkpt><trkpt lat="42.952185896569134" lon="10.778958593754703"><ele>41.0</ele><time>2026-04-30T16:35:22.001Z</time></trkpt><trkpt lat="42.952054079356344" lon="10.778660284477912"><ele>42.5</ele><time>2026-04-30T16:35:23.001Z</time></trkpt><trkpt lat="42.951922354613046" lon="10.77836505842522"><ele>44.0</ele><time>2026-04-30T16:35:24.001Z</time></trkpt><trkpt lat="42.95179573556667" lon="10.778075848450078"><ele>44.5</ele><time>2026-04-30T16:35:25.001Z</time></trkpt><trkpt lat="42.951675994432556" lon="10.777785287148086"><ele>45.0</ele><time>2026-04-30T16:35:26.001Z</time></trkpt><trkpt lat="42.9515479836038" lon="10.77750185255953"><ele>46.5</ele><time>2026-04-30T16:35:27.001Z</time></trkpt><trkpt lat="42.95142339277336" lon="10.777218718694481"><ele>48.0</ele><time>2026-04-30T16:35:28.001Z</time></trkpt><trkpt lat="42.95129795638344" lon="10.776927068070734"><ele>48.5</ele><time>2026-04-30T16:35:29.001Z</time></trkpt><trkpt lat="42.95116960616598" lon="10.776633664770781"><ele>49.0</ele><time>2026-04-30T16:35:30.001Z</time></trkpt><trkpt lat="42.95104255139337" lon="10.776337569573538"><ele>49.0</ele><time>2026-04-30T16:35:31.001Z</time></trkpt><trkpt lat="42.950912626633524" lon="10.776038423746597"><ele>49.0</ele><time>2026-04-30T16:35:32.001Z</time></trkpt><trkpt lat="42.95077915407281" lon="10.775733364409351"><ele>49.0</ele><time>2026-04-30T16:35:33.001Z</time></trkpt><trkpt lat="42.950646453921685" lon="10.775428135496789"><ele>49.0</ele><time>2026-04-30T16:35:34.001Z</time></trkpt><trkpt lat="42.95052195948783" lon="10.7751281372551"><ele>53.0</ele><time>2026-04-30T16:35:35.001Z</time></trkpt><trkpt lat="42.95039257949258" lon="10.774821692150077"><ele>57.0</ele><time>2026-04-30T16:35:36.001Z</time></trkpt><trkpt lat="42.95027202452054" lon="10.774515556595276"><ele>55.5</ele><time>2026-04-30T16:35:37.001Z</time></trkpt><trkpt lat="42.95015316743072" lon="10.774208367762524"><ele>54.0</ele><time>2026-04-30T16:35:38.001Z</time></trkpt><trkpt lat="42.950030725010144" lon="10.773894739909286"><ele>54.0</ele><time>2026-04-30T16:35:39.001Z</time></trkpt><trkpt lat="42.94991757087617" lon="10.77358240046844"><ele>54.0</ele><time>2026-04-30T16:35:40.001Z</time></trkpt><trkpt lat="42.949809017056744" lon="10.773264568112683"><ele>54.5</ele><time>2026-04-30T16:35:41.001Z</time></trkpt><trkpt lat="42.94970787835266" lon="10.772944903573338"><ele>55.0</ele><time>2026-04-30T16:35:42.001Z</time></trkpt><trkpt lat="42.94961242958063" lon="10.772624518261278"><ele>56.5</ele><time>2026-04-30T16:35:43.001Z</time></trkpt><trkpt lat="42.94951387101609" lon="10.772299960128304"><ele>58.0</ele><time>2026-04-30T16:35:44.001Z</time></trkpt><trkpt lat="42.94942287355402" lon="10.771972293671157"><ele>59.0</ele><time>2026-04-30T16:35:45.001Z</time></trkpt><trkpt lat="42.94933192758028" lon="10.771645983377338"><ele>60.0</ele><time>2026-04-30T16:35:46.001Z</time></trkpt><trkpt lat="42.94924126708367" lon="10.771310167906451"><ele>58.5</ele><time>2026-04-30T16:35:47.001Z</time></trkpt><trkpt lat="42.949163569683016" lon="10.770980882737936"><ele>57.0</ele><time>2026-04-30T16:35:48.001Z</time></trkpt><trkpt lat="42.94909274103014" lon="10.770645653086916"><ele>57.0</ele><time>2026-04-30T16:35:49.001Z</time></trkpt><trkpt lat="42.949021550824" lon="10.770310370355197"><ele>57.0</ele><time>2026-04-30T16:35:50.001Z</time></trkpt><trkpt lat="42.948956018773444" lon="10.769978008344767"><ele>58.5</ele><time>2026-04-30T16:35:51.001Z</time></trkpt><trkpt lat="42.948899181229514" lon="10.769648801572092"><ele>60.0</ele><time>2026-04-30T16:35:52.001Z</time></trkpt><trkpt lat="42.948839267944265" lon="10.769312578805826"><ele>62.0</ele><time>2026-04-30T16:35:53.001Z</time></trkpt><trkpt lat="42.94878694049842" lon="10.76898436045355"><ele>64.0</ele><time>2026-04-30T16:35:54.001Z</time></trkpt><trkpt lat="42.948743364864335" lon="10.768658279100912"><ele>67.0</ele><time>2026-04-30T16:35:55.001Z</time></trkpt><trkpt lat="42.948693595855204" lon="10.768322588266498"><ele>70.0</ele><time>2026-04-30T16:35:56.001Z</time></trkpt><trkpt lat="42.94865394622482" lon="10.767989663849395"><ele>73.5</ele><time>2026-04-30T16:35:57.001Z</time></trkpt><trkpt lat="42.94861655863439" lon="10.767657454838337"><ele>77.0</ele><time>2026-04-30T16:35:58.001Z</time></trkpt><trkpt lat="42.94859209653035" lon="10.767326088989494"><ele>77.0</ele><time>2026-04-30T16:35:59.001Z</time></trkpt><trkpt lat="42.94855919520876" lon="10.766988245141357"><ele>77.0</ele><time>2026-04-30T16:36:00.001Z</time></trkpt><trkpt lat="42.94852957284246" lon="10.766653624927804"><ele>80.0</ele><time>2026-04-30T16:36:01.001Z</time></trkpt><trkpt lat="42.94850265245644" lon="10.766319544847743"><ele>83.0</ele><time>2026-04-30T16:36:02.001Z</time></trkpt><trkpt lat="42.948488096491005" lon="10.76596758439056"><ele>84.0</ele><time>2026-04-30T16:36:03.001Z</time></trkpt><trkpt lat="42.948472007603876" lon="10.765616845158931"><ele>85.0</ele><time>2026-04-30T16:36:04Z</time></trkpt><trkpt lat="42.94845534283779" lon="10.765259822529123"><ele>82.0</ele><time>2026-04-30T16:36:05.015Z</time></trkpt><trkpt lat="42.94843991892399" lon="10.764910021671591"><ele>79.0</ele><time>2026-04-30T16:36:06.016Z</time></trkpt><trkpt lat="42.94842660173711" lon="10.764564114325015"><ele>74.66666666666666</ele><time>2026-04-30T16:36:07Z</time></trkpt><trkpt lat="42.94837555648408" lon="10.764309295424013"><ele>70.33333333333333</ele><time>2026-04-30T16:36:08Z</time></trkpt><trkpt lat="42.94834974075879" lon="10.763988067767324"><ele>66.0</ele><time>2026-04-30T16:36:09Z</time></trkpt><trkpt lat="42.948327668539534" lon="10.763654130548403"><ele>65.0</ele><time>2026-04-30T16:36:10Z</time></trkpt><trkpt lat="42.948295939906146" lon="10.763313969913037"><ele>64.0</ele><time>2026-04-30T16:36:11Z</time></trkpt><trkpt lat="42.94827191588364" lon="10.762978478366504"><ele>67.5</ele><time>2026-04-30T16:36:12Z</time></trkpt><trkpt lat="42.948244536069915" lon="10.76264051969893"><ele>71.0</ele><time>2026-04-30T16:36:13Z</time></trkpt><trkpt lat="42.94822139266702" lon="10.762306667997018"><ele>71.0</ele><time>2026-04-30T16:36:14Z</time></trkpt><trkpt lat="42.94818734335428" lon="10.761937774257136"><ele>71.0</ele><time>2026-04-30T16:36:15Z</time></trkpt><trkpt lat="42.94816996665522" lon="10.761601765235673"><ele>73.0</ele><time>2026-04-30T16:36:16Z</time></trkpt><trkpt lat="42.94814575659568" lon="10.761257491012689"><ele>75.0</ele><time>2026-04-30T16:36:17Z</time></trkpt><trkpt lat="42.94812116785618" lon="10.760918661382807"><ele>75.0</ele><time>2026-04-30T16:36:18Z</time></trkpt><trkpt lat="42.94809476581518" lon="10.76057296422953"><ele>75.0</ele><time>2026-04-30T16:36:19Z</time></trkpt><trkpt lat="42.94806969527182" lon="10.760233015281974"><ele>70.0</ele><time>2026-04-30T16:36:20Z</time></trkpt><trkpt lat="42.948042067985234" lon="10.759886386105096"><ele>65.0</ele><time>2026-04-30T16:36:21Z</time></trkpt><trkpt lat="42.94802186396861" lon="10.759557527883857"><ele>61.5</ele><time>2026-04-30T16:36:22Z</time></trkpt><trkpt lat="42.94799007121456" lon="10.759217276373166"><ele>58.0</ele><time>2026-04-30T16:36:23Z</time></trkpt><trkpt lat="42.947958901123776" lon="10.758879430152517"><ele>58.0</ele><time>2026-04-30T16:36:24Z</time></trkpt><trkpt lat="42.94792221357323" lon="10.758541273305495"><ele>58.0</ele><time>2026-04-30T16:36:25Z</time></trkpt><trkpt lat="42.94788366576689" lon="10.758204278899647"><ele>59.5</ele><time>2026-04-30T16:36:26Z</time></trkpt><trkpt lat="42.947840060157745" lon="10.757870134863847"><ele>61.0</ele><time>2026-04-30T16:36:27Z</time></trkpt><trkpt lat="42.947792367569726" lon="10.757536487752992"><ele>65.5</ele><time>2026-04-30T16:36:28Z</time></trkpt><trkpt lat="42.94773072802781" lon="10.757196488250484"><ele>70.0</ele><time>2026-04-30T16:36:29Z</time></trkpt><trkpt lat="42.94766383040019" lon="10.756848249942564"><ele>75.5</ele><time>2026-04-30T16:36:30Z</time></trkpt><trkpt lat="42.947584054604135" lon="10.75649751602747"><ele>81.0</ele><time>2026-04-30T16:36:31Z</time></trkpt><trkpt lat="42.94748934641576" lon="10.756134892201157"><ele>93.5</ele><time>2026-04-30T16:36:32.019Z</time></trkpt><trkpt lat="42.94738287331159" lon="10.755774513943779"><ele>106.0</ele><time>2026-04-30T16:36:33.016Z</time></trkpt><trkpt lat="42.94726028995548" lon="10.755403738070166"><ele>111.5</ele><time>2026-04-30T16:36:34.018Z</time></trkpt><trkpt lat="42.9471303856942" lon="10.755024572434538"><ele>117.0</ele><time>2026-04-30T16:36:35.016Z</time></trkpt><trkpt lat="42.9469877218195" lon="10.754634744546077"><ele>117.0</ele><time>2026-04-30T16:36:36.016Z</time></trkpt><trkpt lat="42.94683247085376" lon="10.754239326172186"><ele>117.0</ele><time>2026-04-30T16:36:37.016Z</time></trkpt><trkpt lat="42.946676220292126" lon="10.753831293936848"><ele>104.5</ele><time>2026-04-30T16:36:38.015Z</time></trkpt><trkpt lat="42.946480208484274" lon="10.753422612931502"><ele>92.0</ele><time>2026-04-30T16:36:39.016Z</time></trkpt><trkpt lat="42.94551783245331" lon="10.750514762486098"><ele>63.5</ele><time>2026-04-30T16:36:50Z</time></trkpt><trkpt lat="42.94539074663335" lon="10.750200463255988"><ele>35.0</ele><time>2026-04-30T16:36:51Z</time></trkpt><trkpt lat="42.94525792968221" lon="10.749892547120709"><ele>35.0</ele><time>2026-04-30T16:36:52Z</time></trkpt><trkpt lat="42.94514960661109" lon="10.749583900973251"><ele>35.0</ele><time>2026-04-30T16:36:53Z</time></trkpt><trkpt lat="42.94502396189174" lon="10.749268574444674"><ele>33.0</ele><time>2026-04-30T16:36:54Z</time></trkpt><trkpt lat="42.94489998442733" lon="10.748953871049398"><ele>31.0</ele><time>2026-04-30T16:36:55Z</time></trkpt><trkpt lat="42.94477535320708" lon="10.748648399503336"><ele>35.0</ele><time>2026-04-30T16:36:56Z</time></trkpt><trkpt lat="42.94466331205339" lon="10.748349975388775"><ele>39.0</ele><time>2026-04-30T16:36:57Z</time></trkpt><trkpt lat="42.94454056722377" lon="10.748043007639268"><ele>39.0</ele><time>2026-04-30T16:36:58Z</time></trkpt><trkpt lat="42.9444234332573" lon="10.747736466575338"><ele>39.0</ele><time>2026-04-30T16:36:59Z</time></trkpt><trkpt lat="42.94430214246103" lon="10.747423922430093"><ele>41.0</ele><time>2026-04-30T16:37:00Z</time></trkpt><trkpt lat="42.9441780203974" lon="10.747112448897614"><ele>43.0</ele><time>2026-04-30T16:37:01Z</time></trkpt><trkpt lat="42.944052338396695" lon="10.746803472911857"><ele>45.5</ele><time>2026-04-30T16:37:02Z</time></trkpt><trkpt lat="42.94392511652326" lon="10.746494736068477"><ele>48.0</ele><time>2026-04-30T16:37:03Z</time></trkpt><trkpt lat="42.94380338159344" lon="10.746189133932951"><ele>57.0</ele><time>2026-04-30T16:37:04Z</time></trkpt><trkpt lat="42.94367915637132" lon="10.745882468483934"><ele>66.0</ele><time>2026-04-30T16:37:05Z</time></trkpt><trkpt lat="42.94355311385452" lon="10.745570734266156"><ele>66.0</ele><time>2026-04-30T16:37:06.016Z</time></trkpt><trkpt lat="42.943428902489785" lon="10.745264099574255"><ele>66.0</ele><time>2026-04-30T16:37:07.016Z</time></trkpt><trkpt lat="42.94330424405283" lon="10.744956287733416"><ele>75.5</ele><time>2026-04-30T16:37:08.02Z</time></trkpt><trkpt lat="42.94318065378596" lon="10.744649979872863"><ele>85.0</ele><time>2026-04-30T16:37:09.017Z</time></trkpt><trkpt lat="42.943055939201464" lon="10.744342827467783"><ele>83.5</ele><time>2026-04-30T16:37:10.02Z</time></trkpt><trkpt lat="42.94293214775092" lon="10.744036926101453"><ele>82.0</ele><time>2026-04-30T16:37:11.017Z</time></trkpt><trkpt lat="42.94245223671955" lon="10.741359722274845"><ele>65.0</ele><time>2026-04-30T16:37:14.674Z</time></trkpt><trkpt lat="42.94247101065045" lon="10.740307616079916"><ele>62.0</ele><time>2026-04-30T16:37:22.001Z</time></trkpt><trkpt lat="42.94246482916986" lon="10.739964903540207"><ele>59.0</ele><time>2026-04-30T16:37:23.001Z</time></trkpt><trkpt lat="42.94244199405764" lon="10.7395934499369"><ele>59.0</ele><time>2026-04-30T16:37:24.001Z</time></trkpt><trkpt lat="42.942450907791226" lon="10.739251478391715"><ele>59.0</ele><time>2026-04-30T16:37:25.001Z</time></trkpt><trkpt lat="42.94247386902504" lon="10.73892896166431"><ele>59.0</ele><time>2026-04-30T16:37:26.001Z</time></trkpt><trkpt lat="42.94250241809301" lon="10.738580949679495"><ele>59.0</ele><time>2026-04-30T16:37:27.001Z</time></trkpt><trkpt lat="42.94254275215363" lon="10.738230225827817"><ele>62.0</ele><time>2026-04-30T16:37:28.001Z</time></trkpt><trkpt lat="42.942589174216614" lon="10.737882618252348"><ele>65.0</ele><time>2026-04-30T16:37:29.001Z</time></trkpt><trkpt lat="42.942653736575735" lon="10.737534148888997"><ele>58.5</ele><time>2026-04-30T16:37:30.001Z</time></trkpt><trkpt lat="42.94273267758901" lon="10.737190236308953"><ele>52.0</ele><time>2026-04-30T16:37:31.001Z</time></trkpt><trkpt lat="42.942836897625966" lon="10.736867273238143"><ele>52.0</ele><time>2026-04-30T16:37:32.001Z</time></trkpt><trkpt lat="42.94293424892632" lon="10.736529019993768"><ele>52.0</ele><time>2026-04-30T16:37:33.001Z</time></trkpt><trkpt lat="42.943031390307794" lon="10.736184982847403"><ele>52.5</ele><time>2026-04-30T16:37:34.001Z</time></trkpt><trkpt lat="42.94314567112435" lon="10.735857835826002"><ele>53.0</ele><time>2026-04-30T16:37:35.001Z</time></trkpt><trkpt lat="42.94326478700595" lon="10.735542570328585"><ele>61.5</ele><time>2026-04-30T16:37:36.001Z</time></trkpt><trkpt lat="42.943391068028625" lon="10.735226763235742"><ele>70.0</ele><time>2026-04-30T16:37:37.001Z</time></trkpt><trkpt lat="42.943534720527595" lon="10.734916117363335"><ele>70.0</ele><time>2026-04-30T16:37:38.001Z</time></trkpt><trkpt lat="42.94367633017137" lon="10.734586558571433"><ele>70.0</ele><time>2026-04-30T16:37:39.001Z</time></trkpt><trkpt lat="42.94382465188033" lon="10.73425082881748"><ele>65.0</ele><time>2026-04-30T16:37:40.001Z</time></trkpt><trkpt lat="42.943979636084684" lon="10.73392443872091"><ele>60.0</ele><time>2026-04-30T16:37:41.001Z</time></trkpt><trkpt lat="42.94418085782337" lon="10.733657277107255"><ele>60.5</ele><time>2026-04-30T16:37:42.001Z</time></trkpt><trkpt lat="42.94435927879814" lon="10.733349281269147"><ele>61.0</ele><time>2026-04-30T16:37:43.001Z</time></trkpt><trkpt lat="42.944536153395575" lon="10.733044659010162"><ele>61.0</ele><time>2026-04-30T16:37:44.001Z</time></trkpt><trkpt lat="42.9447153060757" lon="10.732730244578853"><ele>61.0</ele><time>2026-04-30T16:37:45.001Z</time></trkpt><trkpt lat="42.9448989026898" lon="10.732420989641339"><ele>62.5</ele><time>2026-04-30T16:37:46.001Z</time></trkpt><trkpt lat="42.945086398467055" lon="10.732113767410068"><ele>64.0</ele><time>2026-04-30T16:37:47.001Z</time></trkpt><trkpt lat="42.94527279374784" lon="10.731811931715018"><ele>56.5</ele><time>2026-04-30T16:37:48.001Z</time></trkpt><trkpt lat="42.9454585528813" lon="10.731498882156766"><ele>49.0</ele><time>2026-04-30T16:37:49.001Z</time></trkpt><trkpt lat="42.94564369893302" lon="10.73119028669685"><ele>49.0</ele><time>2026-04-30T16:37:50.001Z</time></trkpt><trkpt lat="42.94582895253145" lon="10.73088352753209"><ele>49.0</ele><time>2026-04-30T16:37:51.001Z</time></trkpt><trkpt lat="42.94601399278484" lon="10.730571914754334"><ele>49.0</ele><time>2026-04-30T16:37:52.001Z</time></trkpt><trkpt lat="42.946192813781835" lon="10.730259805630803"><ele>49.0</ele><time>2026-04-30T16:37:53.001Z</time></trkpt><trkpt lat="42.94636568917785" lon="10.729942800112003"><ele>48.5</ele><time>2026-04-30T16:37:54.001Z</time></trkpt><trkpt lat="42.94652847637734" lon="10.729617786481983"><ele>48.0</ele><time>2026-04-30T16:37:55.001Z</time></trkpt><trkpt lat="42.94668460722253" lon="10.729284228978766"><ele>49.0</ele><time>2026-04-30T16:37:56.001Z</time></trkpt><trkpt lat="42.94683054299445" lon="10.728944457222251"><ele>50.0</ele><time>2026-04-30T16:37:57.001Z</time></trkpt><trkpt lat="42.94696257935743" lon="10.728600103724634"><ele>46.0</ele><time>2026-04-30T16:37:58.001Z</time></trkpt><trkpt lat="42.947086501520985" lon="10.72825273567024"><ele>42.0</ele><time>2026-04-30T16:37:59.001Z</time></trkpt><trkpt lat="42.94720035265548" lon="10.727901657269928"><ele>39.0</ele><time>2026-04-30T16:38:00.001Z</time></trkpt><trkpt lat="42.94730622571203" lon="10.727548719968446"><ele>36.0</ele><time>2026-04-30T16:38:01.001Z</time></trkpt><trkpt lat="42.94739823724171" lon="10.72719885621016"><ele>36.5</ele><time>2026-04-30T16:38:02.001Z</time></trkpt><trkpt lat="42.94747733684381" lon="10.726838989051446"><ele>37.0</ele><time>2026-04-30T16:38:03.001Z</time></trkpt><trkpt lat="42.947549488119094" lon="10.726452978058138"><ele>35.0</ele><time>2026-04-30T16:38:04.001Z</time></trkpt><trkpt lat="42.9476172682171" lon="10.72604046867642"><ele>33.0</ele><time>2026-04-30T16:38:05.001Z</time></trkpt><trkpt lat="42.947666488394844" lon="10.725655138138912"><ele>33.0</ele><time>2026-04-30T16:38:06.001Z</time></trkpt><trkpt lat="42.94770619974962" lon="10.7252699391215"><ele>33.0</ele><time>2026-04-30T16:38:07.001Z</time></trkpt><trkpt lat="42.947733880460426" lon="10.724890564126515"><ele>34.0</ele><time>2026-04-30T16:38:08.001Z</time></trkpt><trkpt lat="42.94774574705423" lon="10.724537853988947"><ele>35.0</ele><time>2026-04-30T16:38:09.001Z</time></trkpt><trkpt lat="42.94775442524199" lon="10.724198834297713"><ele>38.0</ele><time>2026-04-30T16:38:10Z</time></trkpt><trkpt lat="42.947758086429765" lon="10.7238576317176"><ele>41.0</ele><time>2026-04-30T16:38:11Z</time></trkpt><trkpt lat="42.94774868950045" lon="10.723498881331432"><ele>44.0</ele><time>2026-04-30T16:38:12Z</time></trkpt><trkpt lat="42.94772902254973" lon="10.723139648029608"><ele>47.0</ele><time>2026-04-30T16:38:13Z</time></trkpt><trkpt lat="42.947702123766724" lon="10.722781264200718"><ele>47.0</ele><time>2026-04-30T16:38:14.019Z</time></trkpt><trkpt lat="42.94767765195436" lon="10.722435973121513"><ele>47.0</ele><time>2026-04-30T16:38:15.017Z</time></trkpt><trkpt lat="42.947638062070055" lon="10.722043906932818"><ele>45.5</ele><time>2026-04-30T16:38:16Z</time></trkpt><trkpt lat="42.94758704253555" lon="10.72162114811676"><ele>44.0</ele><time>2026-04-30T16:38:17Z</time></trkpt><trkpt lat="42.94755677494794" lon="10.721247748939515"><ele>38.0</ele><time>2026-04-30T16:38:18Z</time></trkpt><trkpt lat="42.94752625694558" lon="10.720882940396223"><ele>32.0</ele><time>2026-04-30T16:38:19Z</time></trkpt><trkpt lat="42.947492562940084" lon="10.720522745633128"><ele>32.5</ele><time>2026-04-30T16:38:20Z</time></trkpt><trkpt lat="42.947461978587434" lon="10.720166444504034"><ele>33.0</ele><time>2026-04-30T16:38:21Z</time></trkpt><trkpt lat="42.94743057037451" lon="10.71980925287487"><ele>33.0</ele><time>2026-04-30T16:38:22Z</time></trkpt><trkpt lat="42.9473948374274" lon="10.719453632007523"><ele>33.0</ele><time>2026-04-30T16:38:23Z</time></trkpt><trkpt lat="42.947359969136976" lon="10.719087362021746"><ele>31.0</ele><time>2026-04-30T16:38:24Z</time></trkpt><trkpt lat="42.94732263675237" lon="10.718718287684414"><ele>29.0</ele><time>2026-04-30T16:38:25Z</time></trkpt><trkpt lat="42.947281789520964" lon="10.718340525258824"><ele>27.0</ele><time>2026-04-30T16:38:26Z</time></trkpt><trkpt lat="42.94724009717186" lon="10.717963175143735"><ele>25.0</ele><time>2026-04-30T16:38:27Z</time></trkpt><trkpt lat="42.9472003935034" lon="10.717596770907432"><ele>25.0</ele><time>2026-04-30T16:38:28Z</time></trkpt><trkpt lat="42.947159836212734" lon="10.717240896286325"><ele>25.0</ele><time>2026-04-30T16:38:29Z</time></trkpt><trkpt lat="42.94712148411464" lon="10.716896230844908"><ele>23.5</ele><time>2026-04-30T16:38:30Z</time></trkpt><trkpt lat="42.94708332107996" lon="10.716552148477584"><ele>22.0</ele><time>2026-04-30T16:38:31Z</time></trkpt><trkpt lat="42.94705055067896" lon="10.716209020165591"><ele>22.0</ele><time>2026-04-30T16:38:32Z</time></trkpt><trkpt lat="42.94702067627645" lon="10.715861404613912"><ele>22.0</ele><time>2026-04-30T16:38:33Z</time></trkpt><trkpt lat="42.946987748854525" lon="10.7155111449069"><ele>21.5</ele><time>2026-04-30T16:38:34Z</time></trkpt><trkpt lat="42.94695208003902" lon="10.715152420936896"><ele>21.0</ele><time>2026-04-30T16:38:35Z</time></trkpt><trkpt lat="42.946917209814295" lon="10.714793543608415"><ele>21.0</ele><time>2026-04-30T16:38:36Z</time></trkpt><trkpt lat="42.946883122555086" lon="10.714426607071562"><ele>21.0</ele><time>2026-04-30T16:38:37Z</time></trkpt><trkpt lat="42.94685372379232" lon="10.714041871622724"><ele>19.5</ele><time>2026-04-30T16:38:38Z</time></trkpt><trkpt lat="42.9468244659552" lon="10.71365930677888"><ele>18.0</ele><time>2026-04-30T16:38:39Z</time></trkpt><trkpt lat="42.94679135498672" lon="10.713284817102533"><ele>17.0</ele><time>2026-04-30T16:38:40Z</time></trkpt><trkpt lat="42.94676056407424" lon="10.712918001559288"><ele>16.0</ele><time>2026-04-30T16:38:41Z</time></trkpt><trkpt lat="42.94672185323632" lon="10.712545866875024"><ele>14.0</ele><time>2026-04-30T16:38:42Z</time></trkpt><trkpt lat="42.94668497586413" lon="10.712176643619266"><ele>12.0</ele><time>2026-04-30T16:38:43Z</time></trkpt><trkpt lat="42.946648068179485" lon="10.711804409042218"><ele>11.5</ele><time>2026-04-30T16:38:44Z</time></trkpt><trkpt lat="42.946610517623554" lon="10.711434203534317"><ele>11.0</ele><time>2026-04-30T16:38:45Z</time></trkpt><trkpt lat="42.94657330951588" lon="10.71106439326989"><ele>10.5</ele><time>2026-04-30T16:38:46Z</time></trkpt><trkpt lat="42.94653545544553" lon="10.710696049635873"><ele>10.0</ele><time>2026-04-30T16:38:47Z</time></trkpt><trkpt lat="42.94649912391732" lon="10.710328775611334"><ele>10.0</ele><time>2026-04-30T16:38:48Z</time></trkpt><trkpt lat="42.94646474576084" lon="10.7099587788024"><ele>10.0</ele><time>2026-04-30T16:38:49Z</time></trkpt><trkpt lat="42.94643047769705" lon="10.709594896766289"><ele>9.0</ele><time>2026-04-30T16:38:50Z</time></trkpt><trkpt lat="42.94639779366627" lon="10.709247092473136"><ele>8.0</ele><time>2026-04-30T16:38:51Z</time></trkpt><trkpt lat="42.94636559000268" lon="10.708902708145326"><ele>8.0</ele><time>2026-04-30T16:38:52Z</time></trkpt><trkpt lat="42.94634231145564" lon="10.708566137936995"><ele>8.0</ele><time>2026-04-30T16:38:53Z</time></trkpt><trkpt lat="42.94631865948099" lon="10.708212310444193"><ele>8.0</ele><time>2026-04-30T16:38:54Z</time></trkpt><trkpt lat="42.946298372902405" lon="10.707863867561812"><ele>8.0</ele><time>2026-04-30T16:38:55Z</time></trkpt><trkpt lat="42.94627763096277" lon="10.707507111569825"><ele>8.0</ele><time>2026-04-30T16:38:56Z</time></trkpt><trkpt lat="42.94626324332267" lon="10.707153776557549"><ele>8.0</ele><time>2026-04-30T16:38:57Z</time></trkpt><trkpt lat="42.946256103179195" lon="10.706792452316176"><ele>7.5</ele><time>2026-04-30T16:38:58Z</time></trkpt><trkpt lat="42.94626475767255" lon="10.706434758329262"><ele>7.0</ele><time>2026-04-30T16:38:59Z</time></trkpt><trkpt lat="42.94627846841288" lon="10.706061856724034"><ele>6.5</ele><time>2026-04-30T16:39:00Z</time></trkpt><trkpt lat="42.94630070446148" lon="10.705699642829673"><ele>6.0</ele><time>2026-04-30T16:39:01Z</time></trkpt><trkpt lat="42.94632478888622" lon="10.705327542322983"><ele>6.5</ele><time>2026-04-30T16:39:02.001Z</time></trkpt><trkpt lat="42.94636060752361" lon="10.704954071561255"><ele>7.0</ele><time>2026-04-30T16:39:03.001Z</time></trkpt><trkpt lat="42.94641076924965" lon="10.704586339436942"><ele>6.0</ele><time>2026-04-30T16:39:04.001Z</time></trkpt><trkpt lat="42.94648389198054" lon="10.704221851596007"><ele>5.0</ele><time>2026-04-30T16:39:05.001Z</time></trkpt><trkpt lat="42.94656672743282" lon="10.703861346095346"><ele>5.5</ele><time>2026-04-30T16:39:06.001Z</time></trkpt><trkpt lat="42.946659662100764" lon="10.703504766872397"><ele>6.0</ele><time>2026-04-30T16:39:07.001Z</time></trkpt><trkpt lat="42.946757793599524" lon="10.703148499497933"><ele>6.5</ele><time>2026-04-30T16:39:08.001Z</time></trkpt><trkpt lat="42.94685824961246" lon="10.702802050163719"><ele>7.0</ele><time>2026-04-30T16:39:09.001Z</time></trkpt><trkpt lat="42.94697098374567" lon="10.702442959491483"><ele>7.0</ele><time>2026-04-30T16:39:10.001Z</time></trkpt><trkpt lat="42.9470980357793" lon="10.702098320112025"><ele>7.0</ele><time>2026-04-30T16:39:11.001Z</time></trkpt><trkpt lat="42.94723661835396" lon="10.7017677292129"><ele>5.5</ele><time>2026-04-30T16:39:12.001Z</time></trkpt><trkpt lat="42.94737900558538" lon="10.701443309499115"><ele>4.0</ele><time>2026-04-30T16:39:13.001Z</time></trkpt><trkpt lat="42.947526365812244" lon="10.701120827378844"><ele>4.5</ele><time>2026-04-30T16:39:14.001Z</time></trkpt><trkpt lat="42.94767962701524" lon="10.700814587800053"><ele>5.0</ele><time>2026-04-30T16:39:15.001Z</time></trkpt><trkpt lat="42.94784421357251" lon="10.70051237162783"><ele>4.5</ele><time>2026-04-30T16:39:16.001Z</time></trkpt><trkpt lat="42.94801486002093" lon="10.700226751962003"><ele>4.0</ele><time>2026-04-30T16:39:17.001Z</time></trkpt><trkpt lat="42.94818747279279" lon="10.699938861196717"><ele>4.0</ele><time>2026-04-30T16:39:18.001Z</time></trkpt><trkpt lat="42.94836025147841" lon="10.69965699008846"><ele>4.0</ele><time>2026-04-30T16:39:19.001Z</time></trkpt><trkpt lat="42.948533351235" lon="10.699376981729383"><ele>3.5</ele><time>2026-04-30T16:39:20.001Z</time></trkpt><trkpt lat="42.948712147464995" lon="10.699094587406153"><ele>3.0</ele><time>2026-04-30T16:39:21.001Z</time></trkpt><trkpt lat="42.94888576496463" lon="10.698819862980908"><ele>2.5</ele><time>2026-04-30T16:39:22.001Z</time></trkpt><trkpt lat="42.94905931219774" lon="10.698546540517718"><ele>2.0</ele><time>2026-04-30T16:39:23.001Z</time></trkpt><trkpt lat="42.949230810734434" lon="10.698267490620141"><ele>3.0</ele><time>2026-04-30T16:39:24.001Z</time></trkpt><trkpt lat="42.94940248933383" lon="10.69799138193538"><ele>4.0</ele><time>2026-04-30T16:39:25.001Z</time></trkpt><trkpt lat="42.94957347200805" lon="10.697712134607006"><ele>4.5</ele><time>2026-04-30T16:39:26.001Z</time></trkpt><trkpt lat="42.94974605943866" lon="10.697432266158259"><ele>5.0</ele><time>2026-04-30T16:39:27.001Z</time></trkpt><trkpt lat="42.94991861308941" lon="10.697145118153886"><ele>4.5</ele><time>2026-04-30T16:39:28.001Z</time></trkpt><trkpt lat="42.95008815511901" lon="10.696861623887632"><ele>4.0</ele><time>2026-04-30T16:39:29.001Z</time></trkpt><trkpt lat="42.950257700069024" lon="10.696574584432321"><ele>4.0</ele><time>2026-04-30T16:39:30.001Z</time></trkpt><trkpt lat="42.9504251837905" lon="10.6962954008808"><ele>4.0</ele><time>2026-04-30T16:39:31.001Z</time></trkpt><trkpt lat="42.95059215169468" lon="10.696027355569418"><ele>3.5</ele><time>2026-04-30T16:39:32.001Z</time></trkpt><trkpt lat="42.95075779511758" lon="10.695764257270238"><ele>3.0</ele><time>2026-04-30T16:39:33.001Z</time></trkpt><trkpt lat="42.95092627018004" lon="10.695500141107157"><ele>4.5</ele><time>2026-04-30T16:39:34.001Z</time></trkpt><trkpt lat="42.95109144625052" lon="10.695233829073299"><ele>6.0</ele><time>2026-04-30T16:39:35.001Z</time></trkpt><trkpt lat="42.951253676292794" lon="10.694968585895875"><ele>6.0</ele><time>2026-04-30T16:39:36.001Z</time></trkpt><trkpt lat="42.95142006267132" lon="10.694710655023892"><ele>6.0</ele><time>2026-04-30T16:39:37.001Z</time></trkpt><trkpt lat="42.95158805971634" lon="10.694459641428837"><ele>5.5</ele><time>2026-04-30T16:39:38.001Z</time></trkpt><trkpt lat="42.951760308592675" lon="10.69421312856641"><ele>5.0</ele><time>2026-04-30T16:39:39.001Z</time></trkpt><trkpt lat="42.95192718455601" lon="10.693962348417317"><ele>5.0</ele><time>2026-04-30T16:39:40.001Z</time></trkpt><trkpt lat="42.952100741252615" lon="10.693694685440267"><ele>5.0</ele><time>2026-04-30T16:39:41.001Z</time></trkpt><trkpt lat="42.95226450832471" lon="10.693422557255367"><ele>5.5</ele><time>2026-04-30T16:39:42.001Z</time></trkpt><trkpt lat="42.952424428276316" lon="10.693163001413868"><ele>6.0</ele><time>2026-04-30T16:39:43.001Z</time></trkpt><trkpt lat="42.952590606073166" lon="10.692887228633111"><ele>6.5</ele><time>2026-04-30T16:39:44.001Z</time></trkpt><trkpt lat="42.95275244342626" lon="10.692622056429268"><ele>7.0</ele><time>2026-04-30T16:39:45.001Z</time></trkpt><trkpt lat="42.952916736162635" lon="10.692356559558123"><ele>7.0</ele><time>2026-04-30T16:39:46.001Z</time></trkpt><trkpt lat="42.95308369415694" lon="10.692093393014765"><ele>7.0</ele><time>2026-04-30T16:39:47.001Z</time></trkpt><trkpt lat="42.953247588717794" lon="10.691830192900188"><ele>7.0</ele><time>2026-04-30T16:39:48.001Z</time></trkpt><trkpt lat="42.953414299257965" lon="10.691565462190006"><ele>7.0</ele><time>2026-04-30T16:39:49.001Z</time></trkpt><trkpt lat="42.95357606232424" lon="10.691303488138292"><ele>7.5</ele><time>2026-04-30T16:39:50.001Z</time></trkpt><trkpt lat="42.9537419939846" lon="10.691039955414338"><ele>8.0</ele><time>2026-04-30T16:39:51.001Z</time></trkpt><trkpt lat="42.953912565185654" lon="10.69076263636299"><ele>8.0</ele><time>2026-04-30T16:39:52.001Z</time></trkpt><trkpt lat="42.95407950207619" lon="10.690496505876688"><ele>8.0</ele><time>2026-04-30T16:39:53.001Z</time></trkpt><trkpt lat="42.9542483269247" lon="10.690236040779467"><ele>9.0</ele><time>2026-04-30T16:39:54.001Z</time></trkpt><trkpt lat="42.95441429374158" lon="10.689973776163708"><ele>10.0</ele><time>2026-04-30T16:39:55.001Z</time></trkpt><trkpt lat="42.954579143905285" lon="10.689716350147949"><ele>10.0</ele><time>2026-04-30T16:39:56.001Z</time></trkpt><trkpt lat="42.95474420619273" lon="10.689450947083984"><ele>10.0</ele><time>2026-04-30T16:39:57.001Z</time></trkpt><trkpt lat="42.954908977750584" lon="10.68917939254008"><ele>10.0</ele><time>2026-04-30T16:39:58.001Z</time></trkpt><trkpt lat="42.95507464867439" lon="10.688909646754064"><ele>10.0</ele><time>2026-04-30T16:39:59.001Z</time></trkpt><trkpt lat="42.95524195117394" lon="10.688647482677656"><ele>9.5</ele><time>2026-04-30T16:40:00.001Z</time></trkpt><trkpt lat="42.95541090108637" lon="10.688383297257706"><ele>9.0</ele><time>2026-04-30T16:40:01.001Z</time></trkpt><trkpt lat="42.955579528788014" lon="10.688116622507755"><ele>9.0</ele><time>2026-04-30T16:40:02.001Z</time></trkpt><trkpt lat="42.95574580600924" lon="10.687852175848876"><ele>9.0</ele><time>2026-04-30T16:40:03.001Z</time></trkpt><trkpt lat="42.95591371470914" lon="10.68758833088527"><ele>9.5</ele><time>2026-04-30T16:40:04.001Z</time></trkpt><trkpt lat="42.95608020899698" lon="10.687320882942332"><ele>10.0</ele><time>2026-04-30T16:40:05.001Z</time></trkpt><trkpt lat="42.95624797391006" lon="10.68704426315385"><ele>10.5</ele><time>2026-04-30T16:40:06.001Z</time></trkpt><trkpt lat="42.95641508209005" lon="10.686773644021617"><ele>11.0</ele><time>2026-04-30T16:40:07.001Z</time></trkpt><trkpt lat="42.95658347188602" lon="10.686504771080983"><ele>11.5</ele><time>2026-04-30T16:40:08.001Z</time></trkpt><trkpt lat="42.95675267385745" lon="10.686235680198278"><ele>12.0</ele><time>2026-04-30T16:40:09.001Z</time></trkpt><trkpt lat="42.9569230003801" lon="10.685965624983588"><ele>11.0</ele><time>2026-04-30T16:40:10.001Z</time></trkpt><trkpt lat="42.95709406159104" lon="10.685697313875849"><ele>10.0</ele><time>2026-04-30T16:40:11.001Z</time></trkpt><trkpt lat="42.95726317117637" lon="10.685430889199017"><ele>10.0</ele><time>2026-04-30T16:40:12.001Z</time></trkpt><trkpt lat="42.95743290800648" lon="10.685156399384"><ele>10.0</ele><time>2026-04-30T16:40:13.001Z</time></trkpt><trkpt lat="42.9575986092469" lon="10.684884159029565"><ele>10.0</ele><time>2026-04-30T16:40:14.001Z</time></trkpt><trkpt lat="42.95776874940005" lon="10.684609207596953"><ele>10.0</ele><time>2026-04-30T16:40:15.001Z</time></trkpt><trkpt lat="42.95793464334414" lon="10.684344261628935"><ele>10.0</ele><time>2026-04-30T16:40:16Z</time></trkpt><trkpt lat="42.95810034662198" lon="10.684079953433177"><ele>10.0</ele><time>2026-04-30T16:40:17Z</time></trkpt><trkpt lat="42.95826298941078" lon="10.68381594010389"><ele>9.5</ele><time>2026-04-30T16:40:18Z</time></trkpt><trkpt lat="42.95842686620598" lon="10.683556643105948"><ele>9.0</ele><time>2026-04-30T16:40:19Z</time></trkpt><trkpt lat="42.958589025424644" lon="10.683288193396026"><ele>9.0</ele><time>2026-04-30T16:40:20Z</time></trkpt><trkpt lat="42.95875376982954" lon="10.683024569083257"><ele>9.0</ele><time>2026-04-30T16:40:21Z</time></trkpt><trkpt lat="42.95892090182909" lon="10.68276025584775"><ele>9.0</ele><time>2026-04-30T16:40:22Z</time></trkpt><trkpt lat="42.95908711340623" lon="10.68249104191141"><ele>9.0</ele><time>2026-04-30T16:40:23Z</time></trkpt><trkpt lat="42.95925501589183" lon="10.68223129694143"><ele>8.5</ele><time>2026-04-30T16:40:24Z</time></trkpt><trkpt lat="42.95942067113867" lon="10.681962743032742"><ele>8.0</ele><time>2026-04-30T16:40:25Z</time></trkpt><trkpt lat="42.95959287567329" lon="10.68167681382346"><ele>8.0</ele><time>2026-04-30T16:40:26Z</time></trkpt><trkpt lat="42.959762798030006" lon="10.681396624801199"><ele>8.0</ele><time>2026-04-30T16:40:27Z</time></trkpt><trkpt lat="42.95994308947694" lon="10.68111220500529"><ele>7.5</ele><time>2026-04-30T16:40:28Z</time></trkpt><trkpt lat="42.960119291833415" lon="10.680829499777698"><ele>7.0</ele><time>2026-04-30T16:40:29Z</time></trkpt><trkpt lat="42.960294973385025" lon="10.680554422354003"><ele>7.0</ele><time>2026-04-30T16:40:30Z</time></trkpt><trkpt lat="42.96046859989786" lon="10.680282596445338"><ele>7.0</ele><time>2026-04-30T16:40:31Z</time></trkpt><trkpt lat="42.96063723388708" lon="10.6800110554318"><ele>7.0</ele><time>2026-04-30T16:40:32Z</time></trkpt><trkpt lat="42.960803707797034" lon="10.679745477582157"><ele>7.0</ele><time>2026-04-30T16:40:33Z</time></trkpt><trkpt lat="42.960969359967805" lon="10.679480875945677"><ele>6.0</ele><time>2026-04-30T16:40:34Z</time></trkpt><trkpt lat="42.96113537168911" lon="10.679218086601425"><ele>5.0</ele><time>2026-04-30T16:40:35Z</time></trkpt><trkpt lat="42.96130225031394" lon="10.678952261321733"><ele>5.0</ele><time>2026-04-30T16:40:36Z</time></trkpt><trkpt lat="42.96146643602866" lon="10.678690626333845"><ele>5.0</ele><time>2026-04-30T16:40:37Z</time></trkpt><trkpt lat="42.96163371734598" lon="10.678415868394328"><ele>5.0</ele><time>2026-04-30T16:40:38Z</time></trkpt><trkpt lat="42.96179970586083" lon="10.67814757705564"><ele>5.0</ele><time>2026-04-30T16:40:39Z</time></trkpt><trkpt lat="42.96196994540222" lon="10.677874463187484"><ele>5.0</ele><time>2026-04-30T16:40:40Z</time></trkpt><trkpt lat="42.96214490758011" lon="10.677597281689108"><ele>5.0</ele><time>2026-04-30T16:40:41Z</time></trkpt><trkpt lat="42.962310909452036" lon="10.677333077939297"><ele>5.0</ele><time>2026-04-30T16:40:42Z</time></trkpt><trkpt lat="42.96247813450642" lon="10.677068182406908"><ele>5.0</ele><time>2026-04-30T16:40:43Z</time></trkpt><trkpt lat="42.962648383554985" lon="10.676794154422256"><ele>5.5</ele><time>2026-04-30T16:40:44Z</time></trkpt><trkpt lat="42.9628197539931" lon="10.676522389637684"><ele>6.0</ele><time>2026-04-30T16:40:45Z</time></trkpt><trkpt lat="42.96299232303328" lon="10.676251197919289"><ele>5.5</ele><time>2026-04-30T16:40:46Z</time></trkpt><trkpt lat="42.96316735666142" lon="10.675981922084665"><ele>5.0</ele><time>2026-04-30T16:40:47Z</time></trkpt><trkpt lat="42.96334460050494" lon="10.675714894922065"><ele>5.0</ele><time>2026-04-30T16:40:48Z</time></trkpt><trkpt lat="42.96352249873114" lon="10.675448670191416"><ele>5.0</ele><time>2026-04-30T16:40:49Z</time></trkpt><trkpt lat="42.963702562336714" lon="10.675191839226674"><ele>4.0</ele><time>2026-04-30T16:40:50Z</time></trkpt><trkpt lat="42.96388811796305" lon="10.674937373672694"><ele>3.0</ele><time>2026-04-30T16:40:51Z</time></trkpt><trkpt lat="42.9640771575067" lon="10.674686285392488"><ele>3.5</ele><time>2026-04-30T16:40:52Z</time></trkpt><trkpt lat="42.96426723607983" lon="10.674437183284732"><ele>4.0</ele><time>2026-04-30T16:40:53Z</time></trkpt><trkpt lat="42.96446139049176" lon="10.674188840108052"><ele>4.0</ele><time>2026-04-30T16:40:54Z</time></trkpt><trkpt lat="42.9646524627634" lon="10.673957033951007"><ele>4.0</ele><time>2026-04-30T16:40:55Z</time></trkpt><trkpt lat="42.96484765543859" lon="10.67372053992841"><ele>4.5</ele><time>2026-04-30T16:40:56Z</time></trkpt><trkpt lat="42.96504419746039" lon="10.67348863335023"><ele>5.0</ele><time>2026-04-30T16:40:57Z</time></trkpt><trkpt lat="42.965240543019554" lon="10.673262700438915"><ele>5.0</ele><time>2026-04-30T16:40:58Z</time></trkpt><trkpt lat="42.96544178307398" lon="10.673035170429955"><ele>5.0</ele><time>2026-04-30T16:40:59Z</time></trkpt><trkpt lat="42.965642153333484" lon="10.672819819437285"><ele>5.5</ele><time>2026-04-30T16:41:00Z</time></trkpt><trkpt lat="42.965842679649484" lon="10.672604499562961"><ele>6.0</ele><time>2026-04-30T16:41:01Z</time></trkpt><trkpt lat="42.96604163471718" lon="10.672397462911714"><ele>6.0</ele><time>2026-04-30T16:41:02Z</time></trkpt><trkpt lat="42.96623988609303" lon="10.672184289509339"><ele>6.0</ele><time>2026-04-30T16:41:03Z</time></trkpt><trkpt lat="42.96644090705933" lon="10.671980422495794"><ele>6.5</ele><time>2026-04-30T16:41:04Z</time></trkpt><trkpt lat="42.96664068222319" lon="10.671772000678494"><ele>7.0</ele><time>2026-04-30T16:41:05Z</time></trkpt><trkpt lat="42.96684115629388" lon="10.67158333941228"><ele>7.0</ele><time>2026-04-30T16:41:06Z</time></trkpt><trkpt lat="42.96704259350879" lon="10.671382987049784"><ele>7.0</ele><time>2026-04-30T16:41:07Z</time></trkpt><trkpt lat="42.96723815831591" lon="10.67117940488513"><ele>7.5</ele><time>2026-04-30T16:41:08Z</time></trkpt><trkpt lat="42.96743729203681" lon="10.670968585766804"><ele>8.0</ele><time>2026-04-30T16:41:09Z</time></trkpt><trkpt lat="42.96763962764104" lon="10.670753834195356"><ele>6.5</ele><time>2026-04-30T16:41:10Z</time></trkpt><trkpt lat="42.96784188172814" lon="10.6705433011479"><ele>5.0</ele><time>2026-04-30T16:41:11Z</time></trkpt><trkpt lat="42.96804415594362" lon="10.670333135795024"><ele>6.5</ele><time>2026-04-30T16:41:12.001Z</time></trkpt><trkpt lat="42.968246464618396" lon="10.670123301742496"><ele>8.0</ele><time>2026-04-30T16:41:13.001Z</time></trkpt><trkpt lat="42.96844729212911" lon="10.669912514034088"><ele>8.5</ele><time>2026-04-30T16:41:14.001Z</time></trkpt><trkpt lat="42.968645030296564" lon="10.669703542209158"><ele>9.0</ele><time>2026-04-30T16:41:15.001Z</time></trkpt><trkpt lat="42.96883342746352" lon="10.669512424564966"><ele>9.0</ele><time>2026-04-30T16:41:16.001Z</time></trkpt><trkpt lat="42.96901833940756" lon="10.669316368029518"><ele>9.0</ele><time>2026-04-30T16:41:17.001Z</time></trkpt><trkpt lat="42.9691977470444" lon="10.669126190428145"><ele>9.0</ele><time>2026-04-30T16:41:18.001Z</time></trkpt><trkpt lat="42.96937994842797" lon="10.668924178595343"><ele>9.0</ele><time>2026-04-30T16:41:19.001Z</time></trkpt><trkpt lat="42.96956888316016" lon="10.668717918022386"><ele>9.5</ele><time>2026-04-30T16:41:20.001Z</time></trkpt><trkpt lat="42.9697610973211" lon="10.668481763022202"><ele>10.0</ele><time>2026-04-30T16:41:21.001Z</time></trkpt><trkpt lat="42.969969013193115" lon="10.668242272685022"><ele>10.0</ele><time>2026-04-30T16:41:22.001Z</time></trkpt><trkpt lat="42.97015506810057" lon="10.66801220261054"><ele>10.0</ele><time>2026-04-30T16:41:23.001Z</time></trkpt><trkpt lat="42.97033878989982" lon="10.667779572229012"><ele>10.0</ele><time>2026-04-30T16:41:24.001Z</time></trkpt><trkpt lat="42.9705066554183" lon="10.667556093883501"><ele>10.0</ele><time>2026-04-30T16:41:25.001Z</time></trkpt><trkpt lat="42.970669713699436" lon="10.667317930372798"><ele>10.0</ele><time>2026-04-30T16:41:26.001Z</time></trkpt><trkpt lat="42.97082785479734" lon="10.667080919006827"><ele>10.0</ele><time>2026-04-30T16:41:27.001Z</time></trkpt><trkpt lat="42.97098514080026" lon="10.666824400226531"><ele>10.0</ele><time>2026-04-30T16:41:28.001Z</time></trkpt><trkpt lat="42.97113810552729" lon="10.666551685663867"><ele>10.0</ele><time>2026-04-30T16:41:29.001Z</time></trkpt><trkpt lat="42.971299170481316" lon="10.66626911383967"><ele>9.5</ele><time>2026-04-30T16:41:30.001Z</time></trkpt><trkpt lat="42.971455615969234" lon="10.665986056879287"><ele>9.0</ele><time>2026-04-30T16:41:31.001Z</time></trkpt><trkpt lat="42.971615755497616" lon="10.665705812972726"><ele>8.5</ele><time>2026-04-30T16:41:32.001Z</time></trkpt><trkpt lat="42.9717654313781" lon="10.665419198838066"><ele>8.0</ele><time>2026-04-30T16:41:33.001Z</time></trkpt><trkpt lat="42.971910845506116" lon="10.66512177260505"><ele>8.0</ele><time>2026-04-30T16:41:34.001Z</time></trkpt><trkpt lat="42.9720496361443" lon="10.664814946123732"><ele>8.0</ele><time>2026-04-30T16:41:35.001Z</time></trkpt><trkpt lat="42.97218281640952" lon="10.664496384046553"><ele>8.5</ele><time>2026-04-30T16:41:36.001Z</time></trkpt><trkpt lat="42.97231397660483" lon="10.664173540556684"><ele>9.0</ele><time>2026-04-30T16:41:37.001Z</time></trkpt><trkpt lat="42.972438811686466" lon="10.663854159735678"><ele>8.0</ele><time>2026-04-30T16:41:38.001Z</time></trkpt><trkpt lat="42.972553040867105" lon="10.663528731304906"><ele>7.0</ele><time>2026-04-30T16:41:39.001Z</time></trkpt><trkpt lat="42.97266910784551" lon="10.66320842575264"><ele>7.0</ele><time>2026-04-30T16:41:40.001Z</time></trkpt><trkpt lat="42.97278071591508" lon="10.662887152968079"><ele>7.0</ele><time>2026-04-30T16:41:41.001Z</time></trkpt><trkpt lat="42.97288978720847" lon="10.662574676411563"><ele>7.0</ele><time>2026-04-30T16:41:42.001Z</time></trkpt><trkpt lat="42.97299826218747" lon="10.66225784197528"><ele>7.0</ele><time>2026-04-30T16:41:43.001Z</time></trkpt><trkpt lat="42.97310742599036" lon="10.6619463664571"><ele>7.0</ele><time>2026-04-30T16:41:44.001Z</time></trkpt><trkpt lat="42.973214217647964" lon="10.661636990630265"><ele>7.0</ele><time>2026-04-30T16:41:45.001Z</time></trkpt><trkpt lat="42.97331700827248" lon="10.661324989464326"><ele>7.0</ele><time>2026-04-30T16:41:46.001Z</time></trkpt><trkpt lat="42.973420330577234" lon="10.661017253608499"><ele>7.0</ele><time>2026-04-30T16:41:47.001Z</time></trkpt><trkpt lat="42.97352378587343" lon="10.660711354578677"><ele>7.0</ele><time>2026-04-30T16:41:48.001Z</time></trkpt><trkpt lat="42.97362935596975" lon="10.660414660151833"><ele>7.0</ele><time>2026-04-30T16:41:49.001Z</time></trkpt><trkpt lat="42.973737830580546" lon="10.660115055767266"><ele>7.0</ele><time>2026-04-30T16:41:50.001Z</time></trkpt><trkpt lat="42.97384707362878" lon="10.659809129288584"><ele>7.0</ele><time>2026-04-30T16:41:51.001Z</time></trkpt><trkpt lat="42.97395726944768" lon="10.6595008607035"><ele>6.0</ele><time>2026-04-30T16:41:52.001Z</time></trkpt><trkpt lat="42.97406966802929" lon="10.659195004538674"><ele>5.0</ele><time>2026-04-30T16:41:53.001Z</time></trkpt><trkpt lat="42.97418035792476" lon="10.658887290617237"><ele>4.5</ele><time>2026-04-30T16:41:54.001Z</time></trkpt><trkpt lat="42.974293347315204" lon="10.658583256216952"><ele>4.0</ele><time>2026-04-30T16:41:55.001Z</time></trkpt><trkpt lat="42.97440978850472" lon="10.658271617825026"><ele>4.0</ele><time>2026-04-30T16:41:56.001Z</time></trkpt><trkpt lat="42.974529930502136" lon="10.657964069848795"><ele>4.0</ele><time>2026-04-30T16:41:57.001Z</time></trkpt><trkpt lat="42.9746559017418" lon="10.657651150868322"><ele>4.0</ele><time>2026-04-30T16:41:58.001Z</time></trkpt><trkpt lat="42.974786518227766" lon="10.657337908767358"><ele>4.0</ele><time>2026-04-30T16:41:59.001Z</time></trkpt><trkpt lat="42.97491968589694" lon="10.657032432338656"><ele>5.0</ele><time>2026-04-30T16:42:00.001Z</time></trkpt><trkpt lat="42.975058719358955" lon="10.656719774961772"><ele>6.0</ele><time>2026-04-30T16:42:01.001Z</time></trkpt><trkpt lat="42.97520062944096" lon="10.65640970182343"><ele>6.5</ele><time>2026-04-30T16:42:02.001Z</time></trkpt><trkpt lat="42.97534568928975" lon="10.656098731300157"><ele>7.0</ele><time>2026-04-30T16:42:03.001Z</time></trkpt><trkpt lat="42.97549692594212" lon="10.655801430585347"><ele>7.0</ele><time>2026-04-30T16:42:04.001Z</time></trkpt><trkpt lat="42.9756519020606" lon="10.655500576584371"><ele>7.0</ele><time>2026-04-30T16:42:05.001Z</time></trkpt><trkpt lat="42.975812717131966" lon="10.655199028694676"><ele>6.5</ele><time>2026-04-30T16:42:06.001Z</time></trkpt><trkpt lat="42.97597553707983" lon="10.654899542726675"><ele>6.0</ele><time>2026-04-30T16:42:07.001Z</time></trkpt><trkpt lat="42.976141373769565" lon="10.65459922714801"><ele>6.5</ele><time>2026-04-30T16:42:08.001Z</time></trkpt><trkpt lat="42.97630716684051" lon="10.654305171818995"><ele>7.0</ele><time>2026-04-30T16:42:09.001Z</time></trkpt><trkpt lat="42.976475357989514" lon="10.654016478587316"><ele>7.0</ele><time>2026-04-30T16:42:10.001Z</time></trkpt><trkpt lat="42.97664835372935" lon="10.653728416722773"><ele>7.0</ele><time>2026-04-30T16:42:11.001Z</time></trkpt><trkpt lat="42.97682762400415" lon="10.653441925178564"><ele>6.5</ele><time>2026-04-30T16:42:12.001Z</time></trkpt><trkpt lat="42.97700368908825" lon="10.653159166487283"><ele>6.0</ele><time>2026-04-30T16:42:13.001Z</time></trkpt><trkpt lat="42.97717771631225" lon="10.652879479936916"><ele>6.0</ele><time>2026-04-30T16:42:14.001Z</time></trkpt><trkpt lat="42.97735392140456" lon="10.65259842067105"><ele>6.0</ele><time>2026-04-30T16:42:15.001Z</time></trkpt><trkpt lat="42.97752824389921" lon="10.652320956521082"><ele>6.0</ele><time>2026-04-30T16:42:16.001Z</time></trkpt><trkpt lat="42.97770067499799" lon="10.652045487166607"><ele>6.0</ele><time>2026-04-30T16:42:17.001Z</time></trkpt><trkpt lat="42.97787200779602" lon="10.65176931675457"><ele>6.0</ele><time>2026-04-30T16:42:18.001Z</time></trkpt><trkpt lat="42.978048827629145" lon="10.651488641512833"><ele>6.0</ele><time>2026-04-30T16:42:19.001Z</time></trkpt><trkpt lat="42.978222741007215" lon="10.65120877243764"><ele>5.5</ele><time>2026-04-30T16:42:20.001Z</time></trkpt><trkpt lat="42.97839207621703" lon="10.650929069992296"><ele>5.0</ele><time>2026-04-30T16:42:21.001Z</time></trkpt><trkpt lat="42.97856067303822" lon="10.65065189468016"><ele>5.0</ele><time>2026-04-30T16:42:22Z</time></trkpt><trkpt lat="42.97873145591131" lon="10.650377015404748"><ele>5.0</ele><time>2026-04-30T16:42:23Z</time></trkpt><trkpt lat="42.97889956036531" lon="10.65010403912806"><ele>5.0</ele><time>2026-04-30T16:42:24Z</time></trkpt><trkpt lat="42.97906466742652" lon="10.649835047494966"><ele>5.0</ele><time>2026-04-30T16:42:25Z</time></trkpt><trkpt lat="42.97922702223209" lon="10.649569298400086"><ele>5.5</ele><time>2026-04-30T16:42:26Z</time></trkpt><trkpt lat="42.979393333345506" lon="10.649307924981539"><ele>6.0</ele><time>2026-04-30T16:42:27Z</time></trkpt><trkpt lat="42.979557713166486" lon="10.649047882469809"><ele>6.0</ele><time>2026-04-30T16:42:28Z</time></trkpt><trkpt lat="42.97971982595986" lon="10.648788405106233"><ele>6.0</ele><time>2026-04-30T16:42:29Z</time></trkpt><trkpt lat="42.97988280439674" lon="10.64852833380943"><ele>6.0</ele><time>2026-04-30T16:42:30Z</time></trkpt><trkpt lat="42.980042072804075" lon="10.648270551452796"><ele>6.0</ele><time>2026-04-30T16:42:31Z</time></trkpt><trkpt lat="42.98020514667402" lon="10.648010965576164"><ele>6.0</ele><time>2026-04-30T16:42:32Z</time></trkpt><trkpt lat="42.980368823880205" lon="10.64774757913142"><ele>6.0</ele><time>2026-04-30T16:42:33Z</time></trkpt><trkpt lat="42.980532237979936" lon="10.647481839921792"><ele>6.0</ele><time>2026-04-30T16:42:34Z</time></trkpt><trkpt lat="42.980695842401886" lon="10.647218074140186"><ele>6.0</ele><time>2026-04-30T16:42:35Z</time></trkpt><trkpt lat="42.980856997845976" lon="10.646954234113299"><ele>6.0</ele><time>2026-04-30T16:42:36Z</time></trkpt><trkpt lat="42.98102553305734" lon="10.646683068809276"><ele>6.0</ele><time>2026-04-30T16:42:37Z</time></trkpt><trkpt lat="42.98119219152842" lon="10.646399482785075"><ele>5.5</ele><time>2026-04-30T16:42:38Z</time></trkpt><trkpt lat="42.98135367662166" lon="10.646122829210588"><ele>5.0</ele><time>2026-04-30T16:42:39Z</time></trkpt><trkpt lat="42.9815123908088" lon="10.64585511004267"><ele>5.0</ele><time>2026-04-30T16:42:40Z</time></trkpt><trkpt lat="42.981672516709786" lon="10.645593061281758"><ele>5.0</ele><time>2026-04-30T16:42:41Z</time></trkpt><trkpt lat="42.98182997312581" lon="10.645337626212465"><ele>5.0</ele><time>2026-04-30T16:42:42Z</time></trkpt><trkpt lat="42.98199191416687" lon="10.645084939102453"><ele>5.0</ele><time>2026-04-30T16:42:43Z</time></trkpt><trkpt lat="42.98215911864171" lon="10.64482296774102"><ele>5.0</ele><time>2026-04-30T16:42:44Z</time></trkpt><trkpt lat="42.982326935024325" lon="10.644557652032155"><ele>5.0</ele><time>2026-04-30T16:42:45Z</time></trkpt><trkpt lat="42.982493725911425" lon="10.644287517929866"><ele>5.0</ele><time>2026-04-30T16:42:46Z</time></trkpt><trkpt lat="42.982659107326555" lon="10.644015111747242"><ele>5.0</ele><time>2026-04-30T16:42:47Z</time></trkpt><trkpt lat="42.982819341439615" lon="10.643752361737091"><ele>5.5</ele><time>2026-04-30T16:42:48Z</time></trkpt><trkpt lat="42.98298147188451" lon="10.643493297527462"><ele>6.0</ele><time>2026-04-30T16:42:49Z</time></trkpt><trkpt lat="42.983145642638256" lon="10.643234009723377"><ele>6.0</ele><time>2026-04-30T16:42:50Z</time></trkpt><trkpt lat="42.9833062471187" lon="10.642975838585558"><ele>6.0</ele><time>2026-04-30T16:42:51Z</time></trkpt><trkpt lat="42.98346631366561" lon="10.642718277381594"><ele>5.5</ele><time>2026-04-30T16:42:52Z</time></trkpt><trkpt lat="42.98362454802134" lon="10.642461375189672"><ele>5.0</ele><time>2026-04-30T16:42:53Z</time></trkpt><trkpt lat="42.98378409694014" lon="10.642206569058992"><ele>5.5</ele><time>2026-04-30T16:42:54Z</time></trkpt><trkpt lat="42.98394418757348" lon="10.641950815576921"><ele>6.0</ele><time>2026-04-30T16:42:55Z</time></trkpt><trkpt lat="42.98410046486005" lon="10.64169826733014"><ele>5.5</ele><time>2026-04-30T16:42:56Z</time></trkpt><trkpt lat="42.984258223772436" lon="10.641442481576371"><ele>5.0</ele><time>2026-04-30T16:42:57Z</time></trkpt><trkpt lat="42.984416042961385" lon="10.641191090843066"><ele>5.0</ele><time>2026-04-30T16:42:58Z</time></trkpt><trkpt lat="42.98457565000611" lon="10.640942578901395"><ele>5.0</ele><time>2026-04-30T16:42:59Z</time></trkpt><trkpt lat="42.984738959640396" lon="10.6406951763879"><ele>5.0</ele><time>2026-04-30T16:43:00Z</time></trkpt><trkpt lat="42.98489808061294" lon="10.640442972147824"><ele>5.0</ele><time>2026-04-30T16:43:01Z</time></trkpt><trkpt lat="42.985057067802984" lon="10.64019193220959"><ele>5.0</ele><time>2026-04-30T16:43:02Z</time></trkpt><trkpt lat="42.985219578867905" lon="10.639938599151188"><ele>5.0</ele><time>2026-04-30T16:43:03Z</time></trkpt><trkpt lat="42.98537785278852" lon="10.639678630928515"><ele>5.5</ele><time>2026-04-30T16:43:04Z</time></trkpt><trkpt lat="42.985544576280596" lon="10.639414040188647"><ele>6.0</ele><time>2026-04-30T16:43:05Z</time></trkpt><trkpt lat="42.98571592241836" lon="10.63914658883384"><ele>6.0</ele><time>2026-04-30T16:43:06Z</time></trkpt><trkpt lat="42.98588597259251" lon="10.638874314149785"><ele>6.0</ele><time>2026-04-30T16:43:07Z</time></trkpt><trkpt lat="42.98605464392837" lon="10.638611919549309"><ele>6.0</ele><time>2026-04-30T16:43:08.001Z</time></trkpt><trkpt lat="42.98622365752097" lon="10.63834685296953"><ele>6.0</ele><time>2026-04-30T16:43:09.001Z</time></trkpt><trkpt lat="42.98639355404874" lon="10.638073493814789"><ele>5.5</ele><time>2026-04-30T16:43:10.001Z</time></trkpt><trkpt lat="42.98656455312391" lon="10.637796979773105"><ele>5.0</ele><time>2026-04-30T16:43:11.001Z</time></trkpt><trkpt lat="42.98672988287101" lon="10.637524482196183"><ele>5.0</ele><time>2026-04-30T16:43:12.001Z</time></trkpt><trkpt lat="42.98689728653329" lon="10.637252975548176"><ele>5.0</ele><time>2026-04-30T16:43:13.001Z</time></trkpt><trkpt lat="42.987055333937576" lon="10.636979810738206"><ele>5.5</ele><time>2026-04-30T16:43:14.001Z</time></trkpt><trkpt lat="42.98721949174532" lon="10.636714009409376"><ele>6.0</ele><time>2026-04-30T16:43:15.001Z</time></trkpt><trkpt lat="42.98738371092863" lon="10.636454380855517"><ele>5.5</ele><time>2026-04-30T16:43:16.001Z</time></trkpt><trkpt lat="42.98755217668614" lon="10.636193588492201"><ele>5.0</ele><time>2026-04-30T16:43:17.001Z</time></trkpt><trkpt lat="42.987720756021496" lon="10.635928789014155"><ele>6.0</ele><time>2026-04-30T16:43:18.001Z</time></trkpt><trkpt lat="42.987888579023604" lon="10.635663118073172"><ele>7.0</ele><time>2026-04-30T16:43:19.001Z</time></trkpt><trkpt lat="42.98805467439487" lon="10.635397223809532"><ele>7.0</ele><time>2026-04-30T16:43:20.001Z</time></trkpt><trkpt lat="42.98821866608567" lon="10.635129597449936"><ele>7.0</ele><time>2026-04-30T16:43:21.001Z</time></trkpt><trkpt lat="42.9883808663427" lon="10.634865108401668"><ele>6.5</ele><time>2026-04-30T16:43:22.001Z</time></trkpt><trkpt lat="42.988548599911766" lon="10.634604472734491"><ele>6.0</ele><time>2026-04-30T16:43:23.001Z</time></trkpt><trkpt lat="42.98872605764273" lon="10.634320987818008"><ele>6.0</ele><time>2026-04-30T16:43:24.001Z</time></trkpt><trkpt lat="42.98891648778815" lon="10.63401504413948"><ele>6.0</ele><time>2026-04-30T16:43:25.001Z</time></trkpt><trkpt lat="42.989114431973306" lon="10.633673130146116"><ele>5.5</ele><time>2026-04-30T16:43:26.001Z</time></trkpt><trkpt lat="42.98931271424407" lon="10.633317354421036"><ele>5.0</ele><time>2026-04-30T16:43:27.001Z</time></trkpt><trkpt lat="42.98951473367746" lon="10.632973540494385"><ele>5.5</ele><time>2026-04-30T16:43:28.001Z</time></trkpt><trkpt lat="42.98970353585253" lon="10.632660223050532"><ele>6.0</ele><time>2026-04-30T16:43:29.001Z</time></trkpt><trkpt lat="42.98988716033676" lon="10.632374585838322"><ele>5.5</ele><time>2026-04-30T16:43:30.001Z</time></trkpt><trkpt lat="42.99007192464576" lon="10.63211512710991"><ele>5.0</ele><time>2026-04-30T16:43:31.001Z</time></trkpt><trkpt lat="42.990242817642816" lon="10.631849898537771"><ele>5.0</ele><time>2026-04-30T16:43:32.001Z</time></trkpt><trkpt lat="42.990410046618294" lon="10.631595228295868"><ele>5.0</ele><time>2026-04-30T16:43:33.001Z</time></trkpt><trkpt lat="42.9905748345505" lon="10.631336018673816"><ele>5.0</ele><time>2026-04-30T16:43:34.001Z</time></trkpt><trkpt lat="42.99073820678346" lon="10.631081835738268"><ele>5.0</ele><time>2026-04-30T16:43:35.001Z</time></trkpt><trkpt lat="42.990903157513316" lon="10.630823286224722"><ele>5.5</ele><time>2026-04-30T16:43:36.001Z</time></trkpt><trkpt lat="42.99106403329317" lon="10.630566220993279"><ele>6.0</ele><time>2026-04-30T16:43:37.001Z</time></trkpt><trkpt lat="42.99122025478148" lon="10.630305503146955"><ele>6.0</ele><time>2026-04-30T16:43:38.001Z</time></trkpt><trkpt lat="42.99137847198302" lon="10.630045435580904"><ele>6.0</ele><time>2026-04-30T16:43:39.001Z</time></trkpt><trkpt lat="42.99153652513456" lon="10.629782176173581"><ele>6.0</ele><time>2026-04-30T16:43:40.001Z</time></trkpt><trkpt lat="42.99169955478065" lon="10.62951968065612"><ele>6.0</ele><time>2026-04-30T16:43:41.001Z</time></trkpt><trkpt lat="42.99186499591897" lon="10.629253724634063"><ele>6.0</ele><time>2026-04-30T16:43:42.001Z</time></trkpt><trkpt lat="42.99202974909318" lon="10.628995700007282"><ele>6.0</ele><time>2026-04-30T16:43:43.001Z</time></trkpt><trkpt lat="42.99219503886984" lon="10.628732845222283"><ele>6.0</ele><time>2026-04-30T16:43:44.001Z</time></trkpt><trkpt lat="42.99235906347801" lon="10.628467081477284"><ele>6.0</ele><time>2026-04-30T16:43:45.001Z</time></trkpt><trkpt lat="42.99252057658724" lon="10.628206406230351"><ele>6.0</ele><time>2026-04-30T16:43:46.001Z</time></trkpt><trkpt lat="42.992683361811835" lon="10.627944003378309"><ele>6.0</ele><time>2026-04-30T16:43:47.001Z</time></trkpt><trkpt lat="42.992846621459826" lon="10.627688702287323"><ele>6.0</ele><time>2026-04-30T16:43:48.001Z</time></trkpt><trkpt lat="42.99301253269422" lon="10.627425344529518"><ele>6.0</ele><time>2026-04-30T16:43:49.001Z</time></trkpt><trkpt lat="42.993174074727335" lon="10.62716735269054"><ele>6.0</ele><time>2026-04-30T16:43:50.001Z</time></trkpt><trkpt lat="42.99333511027934" lon="10.626904985839696"><ele>6.0</ele><time>2026-04-30T16:43:51.001Z</time></trkpt><trkpt lat="42.99349547836162" lon="10.626644221413425"><ele>6.0</ele><time>2026-04-30T16:43:52.001Z</time></trkpt><trkpt lat="42.99365828301058" lon="10.626373341666211"><ele>6.0</ele><time>2026-04-30T16:43:53.001Z</time></trkpt><trkpt lat="42.99381856607939" lon="10.62610522535379"><ele>6.0</ele><time>2026-04-30T16:43:54.001Z</time></trkpt><trkpt lat="42.99398182825399" lon="10.625835738739353"><ele>6.0</ele><time>2026-04-30T16:43:55.001Z</time></trkpt><trkpt lat="42.99414071304284" lon="10.625573242401643"><ele>6.5</ele><time>2026-04-30T16:43:56.001Z</time></trkpt><trkpt lat="42.994311171715886" lon="10.625311833784925"><ele>7.0</ele><time>2026-04-30T16:43:57.001Z</time></trkpt><trkpt lat="42.994477699796" lon="10.625055555011157"><ele>7.0</ele><time>2026-04-30T16:43:58.001Z</time></trkpt><trkpt lat="42.994642557361345" lon="10.624799942742714"><ele>7.0</ele><time>2026-04-30T16:43:59.001Z</time></trkpt><trkpt lat="42.99480558940782" lon="10.624539933401346"><ele>7.0</ele><time>2026-04-30T16:44:00.001Z</time></trkpt><trkpt lat="42.99497114655091" lon="10.624284608107896"><ele>7.0</ele><time>2026-04-30T16:44:01.001Z</time></trkpt><trkpt lat="42.99513494416033" lon="10.624032171325936"><ele>7.0</ele><time>2026-04-30T16:44:02.001Z</time></trkpt><trkpt lat="42.995304807318725" lon="10.623764944084666"><ele>7.0</ele><time>2026-04-30T16:44:03.001Z</time></trkpt><trkpt lat="42.99548121015105" lon="10.623498348627708"><ele>7.0</ele><time>2026-04-30T16:44:04.001Z</time></trkpt><trkpt lat="42.99565644526419" lon="10.623239555574964"><ele>7.0</ele><time>2026-04-30T16:44:05.001Z</time></trkpt><trkpt lat="42.9958272310146" lon="10.62297997094804"><ele>7.0</ele><time>2026-04-30T16:44:06.001Z</time></trkpt><trkpt lat="42.99600273713237" lon="10.622716169453794"><ele>7.0</ele><time>2026-04-30T16:44:07.001Z</time></trkpt><trkpt lat="42.99618391369022" lon="10.622433945540728"><ele>7.0</ele><time>2026-04-30T16:44:08.001Z</time></trkpt><trkpt lat="42.9963622036691" lon="10.622151900503406"><ele>7.0</ele><time>2026-04-30T16:44:09.001Z</time></trkpt><trkpt lat="42.996540183256926" lon="10.621869032564677"><ele>5.5</ele><time>2026-04-30T16:44:10.001Z</time></trkpt><trkpt lat="42.99671286287852" lon="10.621594453171634"><ele>4.0</ele><time>2026-04-30T16:44:11.001Z</time></trkpt><trkpt lat="42.996881124536166" lon="10.62132129176309"><ele>5.5</ele><time>2026-04-30T16:44:12.001Z</time></trkpt><trkpt lat="42.99704675462379" lon="10.621048211841435"><ele>7.0</ele><time>2026-04-30T16:44:13.001Z</time></trkpt><trkpt lat="42.9972160544528" lon="10.620783476265485"><ele>7.0</ele><time>2026-04-30T16:44:14.001Z</time></trkpt><trkpt lat="42.99738620923349" lon="10.620523014278852"><ele>7.0</ele><time>2026-04-30T16:44:15.001Z</time></trkpt><trkpt lat="42.997553297261625" lon="10.620264354042227"><ele>6.5</ele><time>2026-04-30T16:44:16.001Z</time></trkpt><trkpt lat="42.99772196352645" lon="10.620002716847692"><ele>6.0</ele><time>2026-04-30T16:44:17.001Z</time></trkpt><trkpt lat="42.9978874844208" lon="10.61974696585102"><ele>6.0</ele><time>2026-04-30T16:44:18.001Z</time></trkpt><trkpt lat="42.99805232007515" lon="10.619491887822617"><ele>6.0</ele><time>2026-04-30T16:44:19.001Z</time></trkpt><trkpt lat="42.998216984629224" lon="10.619233018504309"><ele>6.5</ele><time>2026-04-30T16:44:20.001Z</time></trkpt><trkpt lat="42.99837905584567" lon="10.61897227948875"><ele>7.0</ele><time>2026-04-30T16:44:21.001Z</time></trkpt><trkpt lat="42.99853935770051" lon="10.618709577177691"><ele>8.0</ele><time>2026-04-30T16:44:22.001Z</time></trkpt><trkpt lat="42.99869938187143" lon="10.618447449528006"><ele>9.0</ele><time>2026-04-30T16:44:23.001Z</time></trkpt><trkpt lat="42.998857260532986" lon="10.61818420704683"><ele>9.0</ele><time>2026-04-30T16:44:24.001Z</time></trkpt><trkpt lat="42.999013178820626" lon="10.617919284998093"><ele>9.0</ele><time>2026-04-30T16:44:25.001Z</time></trkpt><trkpt lat="42.999169642849296" lon="10.61765414100537"><ele>7.0</ele><time>2026-04-30T16:44:26.001Z</time></trkpt><trkpt lat="42.99932170666125" lon="10.61738829785255"><ele>5.0</ele><time>2026-04-30T16:44:27.001Z</time></trkpt><trkpt lat="42.99947612216226" lon="10.617119058653998"><ele>5.5</ele><time>2026-04-30T16:44:28.001Z</time></trkpt><trkpt lat="42.99962595959068" lon="10.616856479034514"><ele>6.0</ele><time>2026-04-30T16:44:29.001Z</time></trkpt><trkpt lat="42.999778201058525" lon="10.616593837301792"><ele>6.0</ele><time>2026-04-30T16:44:30.001Z</time></trkpt><trkpt lat="42.99993138649927" lon="10.6163295599901"><ele>6.0</ele><time>2026-04-30T16:44:31.001Z</time></trkpt><trkpt lat="43.00008289445988" lon="10.616064585921803"><ele>7.0</ele><time>2026-04-30T16:44:32.001Z</time></trkpt><trkpt lat="43.00023422441264" lon="10.615796461487108"><ele>8.0</ele><time>2026-04-30T16:44:33.001Z</time></trkpt><trkpt lat="43.000387316000804" lon="10.615531162257106"><ele>7.5</ele><time>2026-04-30T16:44:34.001Z</time></trkpt><trkpt lat="43.00053969073928" lon="10.615264501709404"><ele>7.0</ele><time>2026-04-30T16:44:35.001Z</time></trkpt><trkpt lat="43.00068938377725" lon="10.614996662821468"><ele>6.5</ele><time>2026-04-30T16:44:36.001Z</time></trkpt><trkpt lat="43.00084134275516" lon="10.614729209888335"><ele>6.0</ele><time>2026-04-30T16:44:37.001Z</time></trkpt><trkpt lat="43.00099389649434" lon="10.614458498874118"><ele>6.0</ele><time>2026-04-30T16:44:38.001Z</time></trkpt><trkpt lat="43.001145850061164" lon="10.61418869078062"><ele>6.0</ele><time>2026-04-30T16:44:39.001Z</time></trkpt><trkpt lat="43.00129514917817" lon="10.613922567610157"><ele>6.0</ele><time>2026-04-30T16:44:40.001Z</time></trkpt><trkpt lat="43.00144741840548" lon="10.613653522169127"><ele>6.0</ele><time>2026-04-30T16:44:41.001Z</time></trkpt><trkpt lat="43.001597521864674" lon="10.613386505123062"><ele>6.0</ele><time>2026-04-30T16:44:42.001Z</time></trkpt><trkpt lat="43.00174431570221" lon="10.613125340501009"><ele>6.0</ele><time>2026-04-30T16:44:43.001Z</time></trkpt><trkpt lat="43.00188787435253" lon="10.612865162416831"><ele>6.0</ele><time>2026-04-30T16:44:44.001Z</time></trkpt><trkpt lat="43.00203151733024" lon="10.612605880481398"><ele>6.0</ele><time>2026-04-30T16:44:45.001Z</time></trkpt><trkpt lat="43.00217198652611" lon="10.612360027500738"><ele>6.0</ele><time>2026-04-30T16:44:46.001Z</time></trkpt><trkpt lat="43.00230916133509" lon="10.6121231375366"><ele>6.0</ele><time>2026-04-30T16:44:47.001Z</time></trkpt><trkpt lat="43.00244385989317" lon="10.611875886393586"><ele>6.0</ele><time>2026-04-30T16:44:48.001Z</time></trkpt><trkpt lat="43.00259860649323" lon="10.611603994780724"><ele>6.0</ele><time>2026-04-30T16:44:49.001Z</time></trkpt><trkpt lat="43.00275598732137" lon="10.611329221628536"><ele>6.0</ele><time>2026-04-30T16:44:50.001Z</time></trkpt><trkpt lat="43.00292059313937" lon="10.611039749469782"><ele>6.0</ele><time>2026-04-30T16:44:51.001Z</time></trkpt><trkpt lat="43.00308791001901" lon="10.610741491794323"><ele>6.0</ele><time>2026-04-30T16:44:52.001Z</time></trkpt><trkpt lat="43.003260039307634" lon="10.610432986266847"><ele>5.0</ele><time>2026-04-30T16:44:53.001Z</time></trkpt><trkpt lat="43.00342492506704" lon="10.610139443402153"><ele>4.0</ele><time>2026-04-30T16:44:54.001Z</time></trkpt><trkpt lat="43.00360044406548" lon="10.609822545363773"><ele>5.5</ele><time>2026-04-30T16:44:55.001Z</time></trkpt><trkpt lat="43.003785471661665" lon="10.609491003001482"><ele>7.0</ele><time>2026-04-30T16:44:56.001Z</time></trkpt><trkpt lat="43.00397778567067" lon="10.609152685667638"><ele>7.5</ele><time>2026-04-30T16:44:57.001Z</time></trkpt><trkpt lat="43.00417206844736" lon="10.608812776726866"><ele>8.0</ele><time>2026-04-30T16:44:58.001Z</time></trkpt><trkpt lat="43.00436289517192" lon="10.6084802441467"><ele>8.0</ele><time>2026-04-30T16:44:59.001Z</time></trkpt><trkpt lat="43.004550135424545" lon="10.608155595905691"><ele>8.0</ele><time>2026-04-30T16:45:00.001Z</time></trkpt><trkpt lat="43.004735639406775" lon="10.607837339779401"><ele>8.0</ele><time>2026-04-30T16:45:01.001Z</time></trkpt><trkpt lat="43.00492120362851" lon="10.607528615601565"><ele>8.0</ele><time>2026-04-30T16:45:02.001Z</time></trkpt><trkpt lat="43.005104907448455" lon="10.607225378516484"><ele>8.0</ele><time>2026-04-30T16:45:03.001Z</time></trkpt><trkpt lat="43.00528764106271" lon="10.606932762025508"><ele>8.0</ele><time>2026-04-30T16:45:04.001Z</time></trkpt><trkpt lat="43.005472706799885" lon="10.606644862099303"><ele>8.0</ele><time>2026-04-30T16:45:05.001Z</time></trkpt><trkpt lat="43.00565765353072" lon="10.60636671277423"><ele>8.0</ele><time>2026-04-30T16:45:06.001Z</time></trkpt><trkpt lat="43.0058436873859" lon="10.606095852530622"><ele>7.5</ele><time>2026-04-30T16:45:07.001Z</time></trkpt><trkpt lat="43.00602983889003" lon="10.605834427617829"><ele>7.0</ele><time>2026-04-30T16:45:08.001Z</time></trkpt><trkpt lat="43.00622147515833" lon="10.605568667111903"><ele>7.0</ele><time>2026-04-30T16:45:09.001Z</time></trkpt><trkpt lat="43.006419980573796" lon="10.605301446112446"><ele>7.0</ele><time>2026-04-30T16:45:10.001Z</time></trkpt><trkpt lat="43.0066226554201" lon="10.605040708123177"><ele>7.0</ele><time>2026-04-30T16:45:11.001Z</time></trkpt><trkpt lat="43.006830716329304" lon="10.604780941757605"><ele>7.0</ele><time>2026-04-30T16:45:12.001Z</time></trkpt><trkpt lat="43.00703963819748" lon="10.604530804237134"><ele>7.0</ele><time>2026-04-30T16:45:13.001Z</time></trkpt><trkpt lat="43.0072478364419" lon="10.604286971611637"><ele>7.0</ele><time>2026-04-30T16:45:14.001Z</time></trkpt><trkpt lat="43.0074505386331" lon="10.604053044474838"><ele>7.0</ele><time>2026-04-30T16:45:15.001Z</time></trkpt><trkpt lat="43.00765013727608" lon="10.603826242519311"><ele>7.0</ele><time>2026-04-30T16:45:16.001Z</time></trkpt><trkpt lat="43.00785525720148" lon="10.603600407364299"><ele>7.0</ele><time>2026-04-30T16:45:17.001Z</time></trkpt><trkpt lat="43.008063936341216" lon="10.603370792815872"><ele>7.0</ele><time>2026-04-30T16:45:18.001Z</time></trkpt><trkpt lat="43.00828454068535" lon="10.603133385001453"><ele>7.0</ele><time>2026-04-30T16:45:19.001Z</time></trkpt><trkpt lat="43.00851444362838" lon="10.602882339662417"><ele>7.0</ele><time>2026-04-30T16:45:20.001Z</time></trkpt><trkpt lat="43.00875078034625" lon="10.602620235375932"><ele>7.0</ele><time>2026-04-30T16:45:21.001Z</time></trkpt><trkpt lat="43.00899167900722" lon="10.602359479403507"><ele>7.0</ele><time>2026-04-30T16:45:22.001Z</time></trkpt><trkpt lat="43.00923011554568" lon="10.602114200798201"><ele>6.5</ele><time>2026-04-30T16:45:23.001Z</time></trkpt><trkpt lat="43.00946577855684" lon="10.601874696954212"><ele>6.0</ele><time>2026-04-30T16:45:24.001Z</time></trkpt><trkpt lat="43.00969642596664" lon="10.60163616748734"><ele>6.0</ele><time>2026-04-30T16:45:25.001Z</time></trkpt><trkpt lat="43.009921815863045" lon="10.60139102901803"><ele>6.0</ele><time>2026-04-30T16:45:26.001Z</time></trkpt><trkpt lat="43.01013978847345" lon="10.601154250467093"><ele>8.0</ele><time>2026-04-30T16:45:27.001Z</time></trkpt><trkpt lat="43.010347121536654" lon="10.600926695235536"><ele>10.0</ele><time>2026-04-30T16:45:28.001Z</time></trkpt><trkpt lat="43.01054832450808" lon="10.600712061584469"><ele>10.0</ele><time>2026-04-30T16:45:29.001Z</time></trkpt><trkpt lat="43.01074646128788" lon="10.600502650346625"><ele>10.0</ele><time>2026-04-30T16:45:30.001Z</time></trkpt><trkpt lat="43.01094781729089" lon="10.600286638728091"><ele>10.5</ele><time>2026-04-30T16:45:31.001Z</time></trkpt><trkpt lat="43.011142060852265" lon="10.60007898535681"><ele>11.0</ele><time>2026-04-30T16:45:32.001Z</time></trkpt><trkpt lat="43.01133553266333" lon="10.599872778908773"><ele>11.0</ele><time>2026-04-30T16:45:33.001Z</time></trkpt><trkpt lat="43.01152845096411" lon="10.599663550772766"><ele>11.0</ele><time>2026-04-30T16:45:34.001Z</time></trkpt><trkpt lat="43.01171464300391" lon="10.599450394207585"><ele>11.5</ele><time>2026-04-30T16:45:35.001Z</time></trkpt><trkpt lat="43.01191084397077" lon="10.599233475640366"><ele>12.0</ele><time>2026-04-30T16:45:36.001Z</time></trkpt><trkpt lat="43.012109880110295" lon="10.599025803753754"><ele>12.0</ele><time>2026-04-30T16:45:37.001Z</time></trkpt><trkpt lat="43.01230494655704" lon="10.598814441373142"><ele>12.0</ele><time>2026-04-30T16:45:38.001Z</time></trkpt><trkpt lat="43.01249925036797" lon="10.598593617596386"><ele>10.5</ele><time>2026-04-30T16:45:39.001Z</time></trkpt><trkpt lat="43.01268499326929" lon="10.598371578282494"><ele>9.0</ele><time>2026-04-30T16:45:40.001Z</time></trkpt><trkpt lat="43.01286989650178" lon="10.598145373574157"><ele>9.0</ele><time>2026-04-30T16:45:41.001Z</time></trkpt><trkpt lat="43.01305463375611" lon="10.597914394170695"><ele>9.0</ele><time>2026-04-30T16:45:42.001Z</time></trkpt><trkpt lat="43.01323801136949" lon="10.59768256041785"><ele>9.5</ele><time>2026-04-30T16:45:43.001Z</time></trkpt><trkpt lat="43.01342408517995" lon="10.597451215744918"><ele>10.0</ele><time>2026-04-30T16:45:44.001Z</time></trkpt><trkpt lat="43.01361083673624" lon="10.597222375691455"><ele>10.0</ele><time>2026-04-30T16:45:45.001Z</time></trkpt><trkpt lat="43.013801673936" lon="10.596989070853017"><ele>10.0</ele><time>2026-04-30T16:45:46.001Z</time></trkpt><trkpt lat="43.013991186292344" lon="10.596749582665614"><ele>10.5</ele><time>2026-04-30T16:45:47.001Z</time></trkpt><trkpt lat="43.014174053448166" lon="10.596503051814825"><ele>11.0</ele><time>2026-04-30T16:45:48.001Z</time></trkpt><trkpt lat="43.01436651176834" lon="10.596250903483956"><ele>9.5</ele><time>2026-04-30T16:45:49.001Z</time></trkpt><trkpt lat="43.01454057311215" lon="10.595973598467504"><ele>8.0</ele><time>2026-04-30T16:45:50.001Z</time></trkpt><trkpt lat="43.01471983139244" lon="10.595688653787349"><ele>8.0</ele><time>2026-04-30T16:45:51.001Z</time></trkpt><trkpt lat="43.01489999856567" lon="10.595414206176912"><ele>8.0</ele><time>2026-04-30T16:45:52.001Z</time></trkpt><trkpt lat="43.015081773317554" lon="10.595139370303162"><ele>8.5</ele><time>2026-04-30T16:45:53.001Z</time></trkpt><trkpt lat="43.0152653607962" lon="10.594872060476721"><ele>9.0</ele><time>2026-04-30T16:45:54.001Z</time></trkpt><trkpt lat="43.015449529822945" lon="10.5946070129893"><ele>10.0</ele><time>2026-04-30T16:45:55.001Z</time></trkpt><trkpt lat="43.015633840887446" lon="10.59433874941691"><ele>11.0</ele><time>2026-04-30T16:45:56.001Z</time></trkpt><trkpt lat="43.0158173353678" lon="10.59407343661062"><ele>10.0</ele><time>2026-04-30T16:45:57.001Z</time></trkpt><trkpt lat="43.01600253685673" lon="10.593813425773243"><ele>9.0</ele><time>2026-04-30T16:45:58.001Z</time></trkpt><trkpt lat="43.0161831569233" lon="10.59355669620612"><ele>8.0</ele><time>2026-04-30T16:45:59.001Z</time></trkpt><trkpt lat="43.016366257351486" lon="10.593293886220577"><ele>7.0</ele><time>2026-04-30T16:46:00.001Z</time></trkpt><trkpt lat="43.0165458371119" lon="10.593032083506346"><ele>6.0</ele><time>2026-04-30T16:46:01.001Z</time></trkpt><trkpt lat="43.0167264953702" lon="10.592774677154315"><ele>5.0</ele><time>2026-04-30T16:46:02.001Z</time></trkpt><trkpt lat="43.01691030464695" lon="10.592512465632735"><ele>5.0</ele><time>2026-04-30T16:46:03.001Z</time></trkpt><trkpt lat="43.01709011145051" lon="10.592249430245172"><ele>5.0</ele><time>2026-04-30T16:46:04.001Z</time></trkpt><trkpt lat="43.017264672611134" lon="10.591992150995845"><ele>5.5</ele><time>2026-04-30T16:46:05.001Z</time></trkpt><trkpt lat="43.0174372870873" lon="10.59173280373218"><ele>6.0</ele><time>2026-04-30T16:46:06.001Z</time></trkpt><trkpt lat="43.017613516973064" lon="10.591468819517583"><ele>6.0</ele><time>2026-04-30T16:46:07.001Z</time></trkpt><trkpt lat="43.017789892335344" lon="10.591216136738785"><ele>6.0</ele><time>2026-04-30T16:46:08.001Z</time></trkpt><trkpt lat="43.01796442432116" lon="10.590962604663337"><ele>6.0</ele><time>2026-04-30T16:46:09.001Z</time></trkpt><trkpt lat="43.01813860696586" lon="10.590715790457324"><ele>6.0</ele><time>2026-04-30T16:46:10.001Z</time></trkpt><trkpt lat="43.0183138047546" lon="10.590459547319814"><ele>6.0</ele><time>2026-04-30T16:46:11.001Z</time></trkpt><trkpt lat="43.01848991061418" lon="10.59020235874557"><ele>6.0</ele><time>2026-04-30T16:46:12.001Z</time></trkpt><trkpt lat="43.01866399566605" lon="10.58995067446979"><ele>6.0</ele><time>2026-04-30T16:46:13.001Z</time></trkpt><trkpt lat="43.01883274736712" lon="10.589702420856781"><ele>6.0</ele><time>2026-04-30T16:46:14.001Z</time></trkpt><trkpt lat="43.01900676947456" lon="10.58944340035633"><ele>4.5</ele><time>2026-04-30T16:46:15.001Z</time></trkpt><trkpt lat="43.019172509296816" lon="10.589191699181841"><ele>3.0</ele><time>2026-04-30T16:46:16.001Z</time></trkpt><trkpt lat="43.01934063547485" lon="10.588939525815892"><ele>3.0</ele><time>2026-04-30T16:46:17.001Z</time></trkpt><trkpt lat="43.019507588368434" lon="10.588680537059673"><ele>3.0</ele><time>2026-04-30T16:46:18.001Z</time></trkpt><trkpt lat="43.01966637005119" lon="10.588399072871427"><ele>4.0</ele><time>2026-04-30T16:46:19.002Z</time></trkpt><trkpt lat="43.019828275328564" lon="10.588136842929305"><ele>5.0</ele><time>2026-04-30T16:46:20.002Z</time></trkpt><trkpt lat="43.01998994348689" lon="10.587868462983979"><ele>4.5</ele><time>2026-04-30T16:46:21.002Z</time></trkpt><trkpt lat="43.02014862392056" lon="10.587595979163138"><ele>4.0</ele><time>2026-04-30T16:46:22.002Z</time></trkpt><trkpt lat="43.02030717571236" lon="10.58731874703818"><ele>4.0</ele><time>2026-04-30T16:46:23.002Z</time></trkpt><trkpt lat="43.02046689744208" lon="10.587036631538805"><ele>4.0</ele><time>2026-04-30T16:46:24.002Z</time></trkpt><trkpt lat="43.020625273552085" lon="10.586750040351069"><ele>4.5</ele><time>2026-04-30T16:46:25.002Z</time></trkpt><trkpt lat="43.02078311933029" lon="10.586450835781841"><ele>5.0</ele><time>2026-04-30T16:46:26.002Z</time></trkpt><trkpt lat="43.02093585167958" lon="10.586155849833421"><ele>5.0</ele><time>2026-04-30T16:46:27.002Z</time></trkpt><trkpt lat="43.02108753202115" lon="10.58585476104761"><ele>5.0</ele><time>2026-04-30T16:46:28.002Z</time></trkpt><trkpt lat="43.021237241633415" lon="10.585555492734029"><ele>5.5</ele><time>2026-04-30T16:46:29.002Z</time></trkpt><trkpt lat="43.02138855484814" lon="10.585255632988817"><ele>6.0</ele><time>2026-04-30T16:46:30.002Z</time></trkpt><trkpt lat="43.02154005374113" lon="10.584957526891738"><ele>6.0</ele><time>2026-04-30T16:46:31.002Z</time></trkpt><trkpt lat="43.02169054292535" lon="10.584659520603454"><ele>6.0</ele><time>2026-04-30T16:46:32.002Z</time></trkpt><trkpt lat="43.02184237542129" lon="10.584359477990281"><ele>6.5</ele><time>2026-04-30T16:46:33.002Z</time></trkpt><trkpt lat="43.02199272298898" lon="10.584056948342635"><ele>7.0</ele><time>2026-04-30T16:46:34.002Z</time></trkpt><trkpt lat="43.02214038598285" lon="10.583751481748756"><ele>5.5</ele><time>2026-04-30T16:46:35.002Z</time></trkpt><trkpt lat="43.022285729681535" lon="10.583443455834823"><ele>4.0</ele><time>2026-04-30T16:46:36.002Z</time></trkpt><trkpt lat="43.02243238644179" lon="10.583143044078302"><ele>4.5</ele><time>2026-04-30T16:46:37.002Z</time></trkpt><trkpt lat="43.0225753453603" lon="10.582848806453253"><ele>5.0</ele><time>2026-04-30T16:46:38.002Z</time></trkpt><trkpt lat="43.02271598899596" lon="10.582554505749286"><ele>5.0</ele><time>2026-04-30T16:46:39.002Z</time></trkpt><trkpt lat="43.02285855606487" lon="10.582261092978273"><ele>5.0</ele><time>2026-04-30T16:46:40.002Z</time></trkpt><trkpt lat="43.0230000290093" lon="10.581970675136036"><ele>5.0</ele><time>2026-04-30T16:46:41.002Z</time></trkpt><trkpt lat="43.023145719855926" lon="10.58167985034307"><ele>5.0</ele><time>2026-04-30T16:46:42.002Z</time></trkpt><trkpt lat="43.02329564446001" lon="10.581389283181913"><ele>6.0</ele><time>2026-04-30T16:46:43.002Z</time></trkpt><trkpt lat="43.023442652222215" lon="10.581097094771465"><ele>7.0</ele><time>2026-04-30T16:46:44.002Z</time></trkpt><trkpt lat="43.023581970641715" lon="10.580794913626372"><ele>7.0</ele><time>2026-04-30T16:46:45.002Z</time></trkpt><trkpt lat="43.02372713064576" lon="10.580491348803047"><ele>7.0</ele><time>2026-04-30T16:46:46.002Z</time></trkpt><trkpt lat="43.02387657685323" lon="10.58018396033908"><ele>7.0</ele><time>2026-04-30T16:46:47.002Z</time></trkpt><trkpt lat="43.024027578147276" lon="10.57986748435203"><ele>7.0</ele><time>2026-04-30T16:46:48.002Z</time></trkpt><trkpt lat="43.02417814361657" lon="10.57956006412821"><ele>9.5</ele><time>2026-04-30T16:46:49.002Z</time></trkpt><trkpt lat="43.02433189515774" lon="10.57924603135161"><ele>12.0</ele><time>2026-04-30T16:46:50.001Z</time></trkpt><trkpt lat="43.024481512841874" lon="10.578923232900399"><ele>10.5</ele><time>2026-04-30T16:46:51.001Z</time></trkpt><trkpt lat="43.02463156432746" lon="10.578611135806295"><ele>9.0</ele><time>2026-04-30T16:46:52.001Z</time></trkpt><trkpt lat="43.024782743688576" lon="10.5782967385604"><ele>9.0</ele><time>2026-04-30T16:46:53.001Z</time></trkpt><trkpt lat="43.02493476124153" lon="10.57798238996532"><ele>9.0</ele><time>2026-04-30T16:46:54.001Z</time></trkpt><trkpt lat="43.02508796245612" lon="10.577682259646059"><ele>9.5</ele><time>2026-04-30T16:46:55.001Z</time></trkpt><trkpt lat="43.02523930709243" lon="10.577372634223547"><ele>10.0</ele><time>2026-04-30T16:46:56.001Z</time></trkpt><trkpt lat="43.025393050385745" lon="10.57706874910363"><ele>10.0</ele><time>2026-04-30T16:46:57.001Z</time></trkpt><trkpt lat="43.02554798903083" lon="10.57676638745453"><ele>10.0</ele><time>2026-04-30T16:46:58.001Z</time></trkpt><trkpt lat="43.025703803766056" lon="10.576465754315265"><ele>9.5</ele><time>2026-04-30T16:46:59.001Z</time></trkpt><trkpt lat="43.02586393178911" lon="10.57616812169608"><ele>9.0</ele><time>2026-04-30T16:47:00.001Z</time></trkpt><trkpt lat="43.02603490271122" lon="10.575865656729636"><ele>9.0</ele><time>2026-04-30T16:47:01.001Z</time></trkpt><trkpt lat="43.026199424739126" lon="10.575560716969614"><ele>9.0</ele><time>2026-04-30T16:47:02.001Z</time></trkpt><trkpt lat="43.02637050784492" lon="10.575256678806443"><ele>9.0</ele><time>2026-04-30T16:47:03.001Z</time></trkpt><trkpt lat="43.026538712306774" lon="10.574964137769415"><ele>9.0</ele><time>2026-04-30T16:47:04.001Z</time></trkpt><trkpt lat="43.02671106510009" lon="10.57467834436753"><ele>9.0</ele><time>2026-04-30T16:47:05.001Z</time></trkpt><trkpt lat="43.0268875715212" lon="10.574387879245567"><ele>9.0</ele><time>2026-04-30T16:47:06.001Z</time></trkpt><trkpt lat="43.02706731892218" lon="10.574095599183293"><ele>9.0</ele><time>2026-04-30T16:47:07.001Z</time></trkpt><trkpt lat="43.0272547617697" lon="10.573806323365996"><ele>9.0</ele><time>2026-04-30T16:47:08.001Z</time></trkpt><trkpt lat="43.027445079234404" lon="10.573526187240168"><ele>9.0</ele><time>2026-04-30T16:47:09.001Z</time></trkpt><trkpt lat="43.027639581936555" lon="10.573251715486267"><ele>9.0</ele><time>2026-04-30T16:47:10.001Z</time></trkpt><trkpt lat="43.027835494025226" lon="10.572983527503803"><ele>8.5</ele><time>2026-04-30T16:47:11.001Z</time></trkpt><trkpt lat="43.02803904844604" lon="10.572723557820558"><ele>8.0</ele><time>2026-04-30T16:47:12.001Z</time></trkpt><trkpt lat="43.02825330454226" lon="10.57247081511213"><ele>8.0</ele><time>2026-04-30T16:47:13.001Z</time></trkpt><trkpt lat="43.02847270803799" lon="10.572219920427106"><ele>8.0</ele><time>2026-04-30T16:47:14.001Z</time></trkpt><trkpt lat="43.028696197119174" lon="10.571977012938685"><ele>8.0</ele><time>2026-04-30T16:47:15.001Z</time></trkpt><trkpt lat="43.02891821457779" lon="10.571741843097012"><ele>8.0</ele><time>2026-04-30T16:47:16.001Z</time></trkpt><trkpt lat="43.0291403475696" lon="10.571517711110193"><ele>7.5</ele><time>2026-04-30T16:47:17.001Z</time></trkpt><trkpt lat="43.02936218307687" lon="10.571295863338147"><ele>7.0</ele><time>2026-04-30T16:47:18.001Z</time></trkpt><trkpt lat="43.029585853143494" lon="10.571075353866158"><ele>7.0</ele><time>2026-04-30T16:47:19.001Z</time></trkpt><trkpt lat="43.02981181440906" lon="10.570860968077918"><ele>7.0</ele><time>2026-04-30T16:47:20.001Z</time></trkpt><trkpt lat="43.03003632626117" lon="10.570656322185846"><ele>7.5</ele><time>2026-04-30T16:47:21.001Z</time></trkpt><trkpt lat="43.03026469694886" lon="10.57046251863507"><ele>8.0</ele><time>2026-04-30T16:47:22.001Z</time></trkpt><trkpt lat="43.03049406574487" lon="10.570285547200774"><ele>8.0</ele><time>2026-04-30T16:47:23.001Z</time></trkpt><trkpt lat="43.030731798315635" lon="10.570104035007951"><ele>8.0</ele><time>2026-04-30T16:47:24.001Z</time></trkpt><trkpt lat="43.030972852861865" lon="10.569925288639947"><ele>8.5</ele><time>2026-04-30T16:47:25.001Z</time></trkpt><trkpt lat="43.031212296342375" lon="10.569768038235987"><ele>9.0</ele><time>2026-04-30T16:47:26.001Z</time></trkpt><trkpt lat="43.03145880093396" lon="10.56960772373402"><ele>9.0</ele><time>2026-04-30T16:47:27.001Z</time></trkpt><trkpt lat="43.03171054616983" lon="10.56945608161278"><ele>9.0</ele><time>2026-04-30T16:47:28.001Z</time></trkpt><trkpt lat="43.03196106341634" lon="10.569315210523538"><ele>9.0</ele><time>2026-04-30T16:47:29.001Z</time></trkpt><trkpt lat="43.03221365113165" lon="10.569170608303692"><ele>9.0</ele><time>2026-04-30T16:47:30.001Z</time></trkpt><trkpt lat="43.032467873786175" lon="10.569031212946161"><ele>9.0</ele><time>2026-04-30T16:47:31.001Z</time></trkpt><trkpt lat="43.032725232900134" lon="10.568901507281442"><ele>9.0</ele><time>2026-04-30T16:47:32.001Z</time></trkpt><trkpt lat="43.03298151621953" lon="10.568782346999177"><ele>9.0</ele><time>2026-04-30T16:47:33.001Z</time></trkpt><trkpt lat="43.033236999431644" lon="10.568669651373721"><ele>9.0</ele><time>2026-04-30T16:47:34.001Z</time></trkpt><trkpt lat="43.03349132182206" lon="10.568567248539729"><ele>9.0</ele><time>2026-04-30T16:47:35.001Z</time></trkpt><trkpt lat="43.03374688586173" lon="10.568473911269662"><ele>9.0</ele><time>2026-04-30T16:47:36.001Z</time></trkpt><trkpt lat="43.033997342310684" lon="10.568391005711065"><ele>9.0</ele><time>2026-04-30T16:47:37.001Z</time></trkpt><trkpt lat="43.03425019913774" lon="10.568311086568501"><ele>9.0</ele><time>2026-04-30T16:47:38.001Z</time></trkpt><trkpt lat="43.0345051779473" lon="10.568232479184164"><ele>9.0</ele><time>2026-04-30T16:47:39.001Z</time></trkpt><trkpt lat="43.03475910173078" lon="10.568163335327677"><ele>9.0</ele><time>2026-04-30T16:47:40.001Z</time></trkpt><trkpt lat="43.0350094399738" lon="10.568110524424712"><ele>10.0</ele><time>2026-04-30T16:47:41.001Z</time></trkpt><trkpt lat="43.03525255170932" lon="10.568061576548859"><ele>11.0</ele><time>2026-04-30T16:47:42.001Z</time></trkpt><trkpt lat="43.035511351823125" lon="10.567994291415049"><ele>11.0</ele><time>2026-04-30T16:47:43.001Z</time></trkpt><trkpt lat="43.03576432883288" lon="10.567944341629177"><ele>11.0</ele><time>2026-04-30T16:47:44.001Z</time></trkpt><trkpt lat="43.03601737890304" lon="10.567900355401674"><ele>10.0</ele><time>2026-04-30T16:47:45.001Z</time></trkpt><trkpt lat="43.03627612231678" lon="10.567859880260782"><ele>9.0</ele><time>2026-04-30T16:47:46.001Z</time></trkpt><trkpt lat="43.03653940539114" lon="10.567820781133738"><ele>9.0</ele><time>2026-04-30T16:47:47.001Z</time></trkpt><trkpt lat="43.03680521076251" lon="10.567787241582332"><ele>9.0</ele><time>2026-04-30T16:47:48.001Z</time></trkpt><trkpt lat="43.03707250072112" lon="10.567753551612537"><ele>9.0</ele><time>2026-04-30T16:47:49.001Z</time></trkpt><trkpt lat="43.03734316026403" lon="10.567724013533493"><ele>9.0</ele><time>2026-04-30T16:47:50.001Z</time></trkpt><trkpt lat="43.03761239021789" lon="10.567704277262735"><ele>9.5</ele><time>2026-04-30T16:47:51.001Z</time></trkpt><trkpt lat="43.03787752586026" lon="10.567676822330606"><ele>10.0</ele><time>2026-04-30T16:47:52.001Z</time></trkpt><trkpt lat="43.03814373914748" lon="10.567659744289692"><ele>11.0</ele><time>2026-04-30T16:47:53.001Z</time></trkpt><trkpt lat="43.03840888529251" lon="10.567643089050197"><ele>12.0</ele><time>2026-04-30T16:47:54.001Z</time></trkpt><trkpt lat="43.03866009550355" lon="10.567625403278205"><ele>12.0</ele><time>2026-04-30T16:47:55.001Z</time></trkpt><trkpt lat="43.03889775461001" lon="10.56761028970485"><ele>12.0</ele><time>2026-04-30T16:47:56.001Z</time></trkpt><trkpt lat="43.03913244374567" lon="10.567595898739583"><ele>12.5</ele><time>2026-04-30T16:47:57.001Z</time></trkpt><trkpt lat="43.0393837688563" lon="10.567580338459358"><ele>13.0</ele><time>2026-04-30T16:47:58.001Z</time></trkpt><trkpt lat="43.03962831908854" lon="10.567571997191585"><ele>13.0</ele><time>2026-04-30T16:47:59.001Z</time></trkpt><trkpt lat="43.03986868141898" lon="10.567571336576222"><ele>13.0</ele><time>2026-04-30T16:48:00.001Z</time></trkpt><trkpt lat="43.040114143869616" lon="10.567558079322191"><ele>13.0</ele><time>2026-04-30T16:48:01.001Z</time></trkpt><trkpt lat="43.040365313295254" lon="10.567542727207824"><ele>13.0</ele><time>2026-04-30T16:48:02.001Z</time></trkpt><trkpt lat="43.04061592883061" lon="10.567522528094875"><ele>12.5</ele><time>2026-04-30T16:48:03.001Z</time></trkpt><trkpt lat="43.04086576922086" lon="10.56750189826134"><ele>12.0</ele><time>2026-04-30T16:48:04.001Z</time></trkpt><trkpt lat="43.04111495318764" lon="10.567486665113087"><ele>12.0</ele><time>2026-04-30T16:48:05.001Z</time></trkpt><trkpt lat="43.04136231720794" lon="10.567478975588822"><ele>12.0</ele><time>2026-04-30T16:48:06.001Z</time></trkpt><trkpt lat="43.041608572510754" lon="10.567470710645699"><ele>12.0</ele><time>2026-04-30T16:48:07.001Z</time></trkpt><trkpt lat="43.041854828164446" lon="10.567466900525078"><ele>12.0</ele><time>2026-04-30T16:48:08.001Z</time></trkpt><trkpt lat="43.04210004060762" lon="10.56746652105995"><ele>12.0</ele><time>2026-04-30T16:48:09.001Z</time></trkpt><trkpt lat="43.04234391131402" lon="10.56747365115307"><ele>12.0</ele><time>2026-04-30T16:48:10.001Z</time></trkpt><trkpt lat="43.04258146913744" lon="10.567477275475875"><ele>11.5</ele><time>2026-04-30T16:48:11.001Z</time></trkpt><trkpt lat="43.042816639273006" lon="10.567475225033974"><ele>11.0</ele><time>2026-04-30T16:48:12.001Z</time></trkpt><trkpt lat="43.04306211238862" lon="10.567483393216369"><ele>11.5</ele><time>2026-04-30T16:48:13.001Z</time></trkpt><trkpt lat="43.04330951536822" lon="10.567496061079396"><ele>12.0</ele><time>2026-04-30T16:48:14.001Z</time></trkpt><trkpt lat="43.043567224271584" lon="10.567499778463986"><ele>12.0</ele><time>2026-04-30T16:48:15.001Z</time></trkpt><trkpt lat="43.0438294937011" lon="10.567511592100018"><ele>12.0</ele><time>2026-04-30T16:48:16.001Z</time></trkpt><trkpt lat="43.04409437077526" lon="10.567521991790231"><ele>13.0</ele><time>2026-04-30T16:48:17.001Z</time></trkpt><trkpt lat="43.04436087153555" lon="10.567536883850725"><ele>14.0</ele><time>2026-04-30T16:48:18.001Z</time></trkpt><trkpt lat="43.04463287077879" lon="10.567554785419325"><ele>14.0</ele><time>2026-04-30T16:48:19.001Z</time></trkpt><trkpt lat="43.044898229278125" lon="10.567571806833056"><ele>14.0</ele><time>2026-04-30T16:48:20.001Z</time></trkpt><trkpt lat="43.045163542127185" lon="10.567595676428073"><ele>13.5</ele><time>2026-04-30T16:48:21.001Z</time></trkpt><trkpt lat="43.04542595517639" lon="10.567624839985005"><ele>13.0</ele><time>2026-04-30T16:48:22.001Z</time></trkpt><trkpt lat="43.04569004035358" lon="10.567653232869247"><ele>14.0</ele><time>2026-04-30T16:48:23.001Z</time></trkpt><trkpt lat="43.04595518043204" lon="10.567682110857533"><ele>15.0</ele><time>2026-04-30T16:48:24.001Z</time></trkpt><trkpt lat="43.04621620807706" lon="10.567708052236691"><ele>15.0</ele><time>2026-04-30T16:48:25.001Z</time></trkpt><trkpt lat="43.04649213117951" lon="10.56773534988589"><ele>15.0</ele><time>2026-04-30T16:48:26.001Z</time></trkpt><trkpt lat="43.04675738702966" lon="10.567771099513571"><ele>15.5</ele><time>2026-04-30T16:48:27.001Z</time></trkpt><trkpt lat="43.04702543780652" lon="10.567804052449366"><ele>16.0</ele><time>2026-04-30T16:48:28.001Z</time></trkpt><trkpt lat="43.04728893379232" lon="10.56784032856105"><ele>17.0</ele><time>2026-04-30T16:48:29.001Z</time></trkpt><trkpt lat="43.047552830502454" lon="10.567876363928566"><ele>18.0</ele><time>2026-04-30T16:48:30.001Z</time></trkpt><trkpt lat="43.0478227186295" lon="10.567911450636375"><ele>18.0</ele><time>2026-04-30T16:48:31.001Z</time></trkpt><trkpt lat="43.04808732932649" lon="10.567948379103102"><ele>18.0</ele><time>2026-04-30T16:48:32.001Z</time></trkpt><trkpt lat="43.04835533774062" lon="10.567985144195237"><ele>19.5</ele><time>2026-04-30T16:48:33.001Z</time></trkpt><trkpt lat="43.04862539112842" lon="10.568018811942212"><ele>21.0</ele><time>2026-04-30T16:48:34.001Z</time></trkpt><trkpt lat="43.04889251044013" lon="10.568055001804371"><ele>23.0</ele><time>2026-04-30T16:48:35.001Z</time></trkpt><trkpt lat="43.04916371652106" lon="10.568082910922877"><ele>25.0</ele><time>2026-04-30T16:48:36.001Z</time></trkpt><trkpt lat="43.04942927795735" lon="10.568111417914166"><ele>25.0</ele><time>2026-04-30T16:48:37.001Z</time></trkpt><trkpt lat="43.04969033737886" lon="10.568144370104886"><ele>25.0</ele><time>2026-04-30T16:48:38.001Z</time></trkpt><trkpt lat="43.04995344753806" lon="10.568171064230897"><ele>26.0</ele><time>2026-04-30T16:48:39.001Z</time></trkpt><trkpt lat="43.05021914812974" lon="10.56819176363441"><ele>27.0</ele><time>2026-04-30T16:48:40.002Z</time></trkpt><trkpt lat="43.05049131838425" lon="10.568209074177695"><ele>27.0</ele><time>2026-04-30T16:48:41.002Z</time></trkpt><trkpt lat="43.050751835424066" lon="10.56821801208856"><ele>27.0</ele><time>2026-04-30T16:48:42.002Z</time></trkpt><trkpt lat="43.05101596932835" lon="10.568217350732898"><ele>28.0</ele><time>2026-04-30T16:48:43.002Z</time></trkpt><trkpt lat="43.05127940163012" lon="10.568206437104323"><ele>29.0</ele><time>2026-04-30T16:48:44.002Z</time></trkpt><trkpt lat="43.0515409351341" lon="10.568184843586588"><ele>29.0</ele><time>2026-04-30T16:48:45.002Z</time></trkpt><trkpt lat="43.05180310261156" lon="10.568151040422297"><ele>29.0</ele><time>2026-04-30T16:48:46.002Z</time></trkpt><trkpt lat="43.052069081620374" lon="10.568106341581652"><ele>29.0</ele><time>2026-04-30T16:48:47.002Z</time></trkpt><trkpt lat="43.0523346644019" lon="10.568049433785513"><ele>29.0</ele><time>2026-04-30T16:48:48.002Z</time></trkpt><trkpt lat="43.05259759108174" lon="10.56798754880125"><ele>30.0</ele><time>2026-04-30T16:48:49.002Z</time></trkpt><trkpt lat="43.05285906579552" lon="10.567913818779255"><ele>31.0</ele><time>2026-04-30T16:48:50.002Z</time></trkpt><trkpt lat="43.053119689081875" lon="10.567832413759113"><ele>31.5</ele><time>2026-04-30T16:48:51.002Z</time></trkpt><trkpt lat="43.053370964598734" lon="10.56774267889934"><ele>32.0</ele><time>2026-04-30T16:48:52.001Z</time></trkpt><trkpt lat="43.05359922477821" lon="10.56765040509512"><ele>32.0</ele><time>2026-04-30T16:48:53.001Z</time></trkpt><trkpt lat="43.05381128964495" lon="10.567544880442828"><ele>32.0</ele><time>2026-04-30T16:48:54.001Z</time></trkpt><trkpt lat="43.0540155487797" lon="10.56742709192397"><ele>32.0</ele><time>2026-04-30T16:48:55.001Z</time></trkpt><trkpt lat="43.05421835682556" lon="10.56729918702729"><ele>34.0</ele><time>2026-04-30T16:48:56.001Z</time></trkpt><trkpt lat="43.05442258761845" lon="10.567172439718323"><ele>36.0</ele><time>2026-04-30T16:48:57.001Z</time></trkpt><trkpt lat="43.0546325001297" lon="10.567045441174553"><ele>35.333333333333336</ele><time>2026-04-30T16:48:58.001Z</time></trkpt><trkpt lat="43.05483904846666" lon="10.566921329325107"><ele>34.66666666666667</ele><time>2026-04-30T16:48:59.001Z</time></trkpt><trkpt lat="43.055033716844136" lon="10.566795158291951"><ele>34.0</ele><time>2026-04-30T16:49:00.001Z</time></trkpt><trkpt lat="43.055219192800884" lon="10.566667624036544"><ele>35.66666666666667</ele><time>2026-04-30T16:49:01.001Z</time></trkpt><trkpt lat="43.05539435839001" lon="10.566542984781975"><ele>37.333333333333336</ele><time>2026-04-30T16:49:02.001Z</time></trkpt><trkpt lat="43.055563366429425" lon="10.566417174995578"><ele>39.0</ele><time>2026-04-30T16:49:03.001Z</time></trkpt><trkpt lat="43.05574181497925" lon="10.566286685132715"><ele>38.333333333333336</ele><time>2026-04-30T16:49:04.001Z</time></trkpt><trkpt lat="43.05593344881297" lon="10.566149641056407"><ele>37.66666666666667</ele><time>2026-04-30T16:49:05.001Z</time></trkpt><trkpt lat="43.05613553320881" lon="10.566002385605977"><ele>37.0</ele><time>2026-04-30T16:49:06.001Z</time></trkpt><trkpt lat="43.05635246198162" lon="10.56583149863753"><ele>37.0</ele><time>2026-04-30T16:49:07.001Z</time></trkpt><trkpt lat="43.05657542211127" lon="10.565655349025395"><ele>37.0</ele><time>2026-04-30T16:49:08.001Z</time></trkpt><trkpt lat="43.05679614388844" lon="10.565489550752504"><ele>37.0</ele><time>2026-04-30T16:49:09.001Z</time></trkpt><trkpt lat="43.05701888576952" lon="10.565328279870778"><ele>37.0</ele><time>2026-04-30T16:49:10.001Z</time></trkpt><trkpt lat="43.05724674802993" lon="10.565167244127398"><ele>36.0</ele><time>2026-04-30T16:49:11.001Z</time></trkpt><trkpt lat="43.05747455072739" lon="10.564994207775856"><ele>35.0</ele><time>2026-04-30T16:49:12.001Z</time></trkpt><trkpt lat="43.05769812939885" lon="10.564817137900913"><ele>35.0</ele><time>2026-04-30T16:49:13.001Z</time></trkpt><trkpt lat="43.057931997410876" lon="10.564630053501775"><ele>35.0</ele><time>2026-04-30T16:49:14.001Z</time></trkpt><trkpt lat="43.05818148716601" lon="10.564440936671351"><ele>34.5</ele><time>2026-04-30T16:49:15.001Z</time></trkpt><trkpt lat="43.058433875297126" lon="10.564253654186908"><ele>34.0</ele><time>2026-04-30T16:49:16.001Z</time></trkpt><trkpt lat="43.05867631646191" lon="10.564084852779619"><ele>34.0</ele><time>2026-04-30T16:49:17.001Z</time></trkpt><trkpt lat="43.05891592040584" lon="10.563921850254918"><ele>34.0</ele><time>2026-04-30T16:49:18.001Z</time></trkpt><trkpt lat="43.059160763282044" lon="10.563756503944688"><ele>34.0</ele><time>2026-04-30T16:49:19.001Z</time></trkpt><trkpt lat="43.0594100910781" lon="10.56358205341756"><ele>34.0</ele><time>2026-04-30T16:49:20.001Z</time></trkpt><trkpt lat="43.05967084314766" lon="10.563401739214223"><ele>34.0</ele><time>2026-04-30T16:49:21.001Z</time></trkpt><trkpt lat="43.059938577531376" lon="10.563215222607468"><ele>34.0</ele><time>2026-04-30T16:49:22.001Z</time></trkpt><trkpt lat="43.06021805344497" lon="10.563024278192016"><ele>32.5</ele><time>2026-04-30T16:49:23.001Z</time></trkpt><trkpt lat="43.0604937523116" lon="10.5628431557703"><ele>31.0</ele><time>2026-04-30T16:49:24.001Z</time></trkpt><trkpt lat="43.06076897217266" lon="10.562674237666853"><ele>32.0</ele><time>2026-04-30T16:49:25.001Z</time></trkpt><trkpt lat="43.06104869787086" lon="10.562522244414609"><ele>33.0</ele><time>2026-04-30T16:49:26.001Z</time></trkpt><trkpt lat="43.06133576068552" lon="10.562371156144037"><ele>31.5</ele><time>2026-04-30T16:49:27.001Z</time></trkpt><trkpt lat="43.06163172958359" lon="10.562237590868465"><ele>30.0</ele><time>2026-04-30T16:49:28.001Z</time></trkpt><trkpt lat="43.0619236690915" lon="10.56210802069275"><ele>28.5</ele><time>2026-04-30T16:49:29.001Z</time></trkpt><trkpt lat="43.06221829398272" lon="10.561988528809643"><ele>27.0</ele><time>2026-04-30T16:49:30.001Z</time></trkpt><trkpt lat="43.0625079523212" lon="10.561874219680902"><ele>27.0</ele><time>2026-04-30T16:49:31.001Z</time></trkpt><trkpt lat="43.06280267412859" lon="10.56176380727862"><ele>27.0</ele><time>2026-04-30T16:49:32.001Z</time></trkpt><trkpt lat="43.063093661635556" lon="10.561669028887813"><ele>27.5</ele><time>2026-04-30T16:49:33.001Z</time></trkpt><trkpt lat="43.06338592731969" lon="10.56158244999"><ele>28.0</ele><time>2026-04-30T16:49:34.001Z</time></trkpt><trkpt lat="43.06367614323731" lon="10.56150633361868"><ele>28.0</ele><time>2026-04-30T16:49:35.001Z</time></trkpt><trkpt lat="43.06396053078917" lon="10.561439071337642"><ele>28.0</ele><time>2026-04-30T16:49:36.001Z</time></trkpt><trkpt lat="43.064246829998844" lon="10.561379157787863"><ele>28.5</ele><time>2026-04-30T16:49:37.001Z</time></trkpt><trkpt lat="43.064517169813755" lon="10.561317392483186"><ele>29.0</ele><time>2026-04-30T16:49:38.001Z</time></trkpt><trkpt lat="43.06480984756819" lon="10.561259640890809"><ele>29.0</ele><time>2026-04-30T16:49:39.001Z</time></trkpt><trkpt lat="43.065087837839265" lon="10.561203592193992"><ele>29.0</ele><time>2026-04-30T16:49:40.001Z</time></trkpt><trkpt lat="43.065367534416005" lon="10.56114575406994"><ele>28.5</ele><time>2026-04-30T16:49:41.001Z</time></trkpt><trkpt lat="43.06564310575289" lon="10.561086419770207"><ele>28.0</ele><time>2026-04-30T16:49:42.001Z</time></trkpt><trkpt lat="43.06591896133759" lon="10.561023776330536"><ele>28.0</ele><time>2026-04-30T16:49:43.001Z</time></trkpt><trkpt lat="43.06619798882443" lon="10.560966194993036"><ele>28.0</ele><time>2026-04-30T16:49:44.001Z</time></trkpt><trkpt lat="43.066483186410416" lon="10.560914022623988"><ele>30.0</ele><time>2026-04-30T16:49:45.001Z</time></trkpt><trkpt lat="43.06676672993129" lon="10.560861073507047"><ele>32.0</ele><time>2026-04-30T16:49:46.001Z</time></trkpt><trkpt lat="43.06704546961679" lon="10.560806876766389"><ele>32.0</ele><time>2026-04-30T16:49:47.001Z</time></trkpt><trkpt lat="43.06732619818897" lon="10.560749082083753"><ele>32.0</ele><time>2026-04-30T16:49:48.001Z</time></trkpt><trkpt lat="43.06760407902831" lon="10.560691725120435"><ele>32.5</ele><time>2026-04-30T16:49:49.001Z</time></trkpt><trkpt lat="43.0678837399271" lon="10.56063543026996"><ele>33.0</ele><time>2026-04-30T16:49:50.001Z</time></trkpt><trkpt lat="43.068168272774514" lon="10.560576249991083"><ele>32.5</ele><time>2026-04-30T16:49:51.001Z</time></trkpt><trkpt lat="43.06844661840465" lon="10.56052044492138"><ele>32.0</ele><time>2026-04-30T16:49:52.001Z</time></trkpt><trkpt lat="43.0687257442612" lon="10.560460998972392"><ele>32.0</ele><time>2026-04-30T16:49:53.001Z</time></trkpt><trkpt lat="43.06901004335895" lon="10.560405458932406"><ele>32.0</ele><time>2026-04-30T16:49:54.001Z</time></trkpt><trkpt lat="43.06929649069718" lon="10.560348202653628"><ele>33.5</ele><time>2026-04-30T16:49:55.001Z</time></trkpt><trkpt lat="43.06958132479454" lon="10.560288923174657"><ele>35.0</ele><time>2026-04-30T16:49:56.001Z</time></trkpt><trkpt lat="43.069865262777355" lon="10.560225297384845"><ele>35.5</ele><time>2026-04-30T16:49:57.001Z</time></trkpt><trkpt lat="43.07014544543459" lon="10.560163790776594"><ele>36.0</ele><time>2026-04-30T16:49:58.001Z</time></trkpt><trkpt lat="43.07042181193341" lon="10.560106448951856"><ele>36.0</ele><time>2026-04-30T16:49:59.001Z</time></trkpt><trkpt lat="43.0706915686083" lon="10.560049801536247"><ele>36.0</ele><time>2026-04-30T16:50:00.001Z</time></trkpt><trkpt lat="43.070947972590446" lon="10.560002238512016"><ele>36.5</ele><time>2026-04-30T16:50:01.001Z</time></trkpt><trkpt lat="43.071188242285274" lon="10.559956739730369"><ele>37.0</ele><time>2026-04-30T16:50:02.001Z</time></trkpt><trkpt lat="43.07142040633114" lon="10.559911599356367"><ele>37.0</ele><time>2026-04-30T16:50:03.001Z</time></trkpt><trkpt lat="43.071650177866346" lon="10.559864147828375"><ele>37.0</ele><time>2026-04-30T16:50:04.001Z</time></trkpt><trkpt lat="43.071875832338876" lon="10.559816217934612"><ele>37.0</ele><time>2026-04-30T16:50:05.001Z</time></trkpt><trkpt lat="43.07210112198557" lon="10.559766795730305"><ele>37.0</ele><time>2026-04-30T16:50:06.001Z</time></trkpt><trkpt lat="43.07233285980729" lon="10.559721053880061"><ele>38.5</ele><time>2026-04-30T16:50:07.001Z</time></trkpt><trkpt lat="43.072562508258116" lon="10.559684383619759"><ele>40.0</ele><time>2026-04-30T16:50:08.001Z</time></trkpt><trkpt lat="43.07279796506674" lon="10.559641161506889"><ele>40.0</ele><time>2026-04-30T16:50:09.001Z</time></trkpt><trkpt lat="43.073034204893915" lon="10.55959278320354"><ele>40.0</ele><time>2026-04-30T16:50:10.001Z</time></trkpt><trkpt lat="43.0732751565217" lon="10.559538616349109"><ele>39.5</ele><time>2026-04-30T16:50:11.001Z</time></trkpt><trkpt lat="43.07352066388991" lon="10.559484821133205"><ele>39.0</ele><time>2026-04-30T16:50:12.001Z</time></trkpt><trkpt lat="43.073765891800925" lon="10.55943639127984"><ele>39.0</ele><time>2026-04-30T16:50:13.001Z</time></trkpt><trkpt lat="43.074014929832536" lon="10.559389354881612"><ele>39.0</ele><time>2026-04-30T16:50:14.001Z</time></trkpt><trkpt lat="43.07426673890757" lon="10.559339378976608"><ele>39.0</ele><time>2026-04-30T16:50:15.001Z</time></trkpt><trkpt lat="43.07452217075036" lon="10.559286909321331"><ele>39.0</ele><time>2026-04-30T16:50:16.001Z</time></trkpt><trkpt lat="43.07477589736319" lon="10.559235876101011"><ele>40.0</ele><time>2026-04-30T16:50:17.001Z</time></trkpt><trkpt lat="43.07502750462822" lon="10.5591798989269"><ele>41.0</ele><time>2026-04-30T16:50:18.001Z</time></trkpt><trkpt lat="43.075273623132325" lon="10.5591301277166"><ele>41.0</ele><time>2026-04-30T16:50:19.001Z</time></trkpt><trkpt lat="43.07551964728981" lon="10.559081587152853"><ele>41.0</ele><time>2026-04-30T16:50:20.001Z</time></trkpt><trkpt lat="43.07576352787786" lon="10.559032509505036"><ele>40.5</ele><time>2026-04-30T16:50:21.001Z</time></trkpt><trkpt lat="43.07599746274908" lon="10.558987767046236"><ele>40.0</ele><time>2026-04-30T16:50:22.001Z</time></trkpt><trkpt lat="43.07622801239532" lon="10.55894521899522"><ele>40.0</ele><time>2026-04-30T16:50:23.001Z</time></trkpt><trkpt lat="43.076456804497894" lon="10.558911667879809"><ele>40.0</ele><time>2026-04-30T16:50:24.001Z</time></trkpt><trkpt lat="43.07669708415433" lon="10.558879875241061"><ele>40.0</ele><time>2026-04-30T16:50:25.001Z</time></trkpt><trkpt lat="43.076929334046994" lon="10.558841637196553"><ele>40.0</ele><time>2026-04-30T16:50:26.001Z</time></trkpt><trkpt lat="43.07715518237003" lon="10.5587959475542"><ele>40.0</ele><time>2026-04-30T16:50:27.001Z</time></trkpt><trkpt lat="43.077363963134886" lon="10.558747666089626"><ele>40.0</ele><time>2026-04-30T16:50:28.001Z</time></trkpt><trkpt lat="43.077562351751894" lon="10.558709416932661"><ele>40.0</ele><time>2026-04-30T16:50:29.001Z</time></trkpt><trkpt lat="43.07773810886696" lon="10.558683156347257"><ele>39.333333333333336</ele><time>2026-04-30T16:50:30.001Z</time></trkpt><trkpt lat="43.077913589921465" lon="10.558687852637998"><ele>38.666666666666664</ele><time>2026-04-30T16:50:31.001Z</time></trkpt><trkpt lat="43.078084635584524" lon="10.558744623538821"><ele>38.0</ele><time>2026-04-30T16:50:32.001Z</time></trkpt><trkpt lat="43.07826167745136" lon="10.558843226832147"><ele>38.33333333333333</ele><time>2026-04-30T16:50:33.001Z</time></trkpt><trkpt lat="43.07843752454229" lon="10.558972801140353"><ele>38.666666666666664</ele><time>2026-04-30T16:50:34.001Z</time></trkpt><trkpt lat="43.078605473145906" lon="10.559128765277626"><ele>39.0</ele><time>2026-04-30T16:50:35.001Z</time></trkpt><trkpt lat="43.07878931564591" lon="10.559273485897767"><ele>39.0</ele><time>2026-04-30T16:50:36.001Z</time></trkpt><trkpt lat="43.07898621371584" lon="10.559391166683467"><ele>39.0</ele><time>2026-04-30T16:50:37.001Z</time></trkpt><trkpt lat="43.079193517600494" lon="10.559488858326096"><ele>39.0</ele><time>2026-04-30T16:50:38.001Z</time></trkpt><trkpt lat="43.079388249291206" lon="10.559553924968911"><ele>39.666666666666664</ele><time>2026-04-30T16:50:39.001Z</time></trkpt><trkpt lat="43.079566624451" lon="10.559609502225362"><ele>40.33333333333333</ele><time>2026-04-30T16:50:40.001Z</time></trkpt><trkpt lat="43.079732223224525" lon="10.559657947014754"><ele>41.0</ele><time>2026-04-30T16:50:41.001Z</time></trkpt><trkpt lat="43.0798930845782" lon="10.559708080045056"><ele>41.5</ele><time>2026-04-30T16:50:42.001Z</time></trkpt><trkpt lat="43.08003507450995" lon="10.559756510011521"><ele>42.0</ele><time>2026-04-30T16:50:43.001Z</time></trkpt><trkpt lat="43.08016953085815" lon="10.55980060563227"><ele>42.5</ele><time>2026-04-30T16:50:44.001Z</time></trkpt><trkpt lat="43.08028960120889" lon="10.55984490422799"><ele>43.0</ele><time>2026-04-30T16:50:45.001Z</time></trkpt><trkpt lat="43.08039741112365" lon="10.559886706347191"><ele>43.0</ele><time>2026-04-30T16:50:46.001Z</time></trkpt><trkpt lat="43.08047811810262" lon="10.559913094108797"><ele>43.0</ele><time>2026-04-30T16:50:47.001Z</time></trkpt><trkpt lat="43.08055750722117" lon="10.559906759049877"><ele>43.0</ele><time>2026-04-30T16:50:49.001Z</time></trkpt><trkpt lat="43.08068767275452" lon="10.559734524612457"><ele>43.0</ele><time>2026-04-30T16:50:52.001Z</time></trkpt><trkpt lat="43.080714498739425" lon="10.559571032846232"><ele>42.333333333333336</ele><time>2026-04-30T16:50:53.001Z</time></trkpt><trkpt lat="43.08076745064557" lon="10.559368889471244"><ele>41.666666666666664</ele><time>2026-04-30T16:50:54.001Z</time></trkpt><trkpt lat="43.080825387174194" lon="10.55912370969555"><ele>41.0</ele><time>2026-04-30T16:50:55.001Z</time></trkpt><trkpt lat="43.08086547159597" lon="10.558892603392863"><ele>41.0</ele><time>2026-04-30T16:50:56.001Z</time></trkpt><trkpt lat="43.080887025172935" lon="10.558682311287104"><ele>41.0</ele><time>2026-04-30T16:50:57.001Z</time></trkpt><trkpt lat="43.080886955912554" lon="10.558470622235921"><ele>41.0</ele><time>2026-04-30T16:50:58.001Z</time></trkpt><trkpt lat="43.08086813458127" lon="10.558239885715919"><ele>41.0</ele><time>2026-04-30T16:50:59.001Z</time></trkpt><trkpt lat="43.08083468651293" lon="10.558029555794082"><ele>41.0</ele><time>2026-04-30T16:51:00.001Z</time></trkpt><trkpt lat="43.080787526533" lon="10.557828942201118"><ele>41.0</ele><time>2026-04-30T16:51:01.001Z</time></trkpt><trkpt lat="43.08074743932755" lon="10.55764455934596"><ele>39.75</ele><time>2026-04-30T16:51:02.001Z</time></trkpt><trkpt lat="43.08070972940664" lon="10.557454158936764"><ele>38.5</ele><time>2026-04-30T16:51:03.001Z</time></trkpt><trkpt lat="43.08066907508592" lon="10.557254235855012"><ele>37.25</ele><time>2026-04-30T16:51:04.001Z</time></trkpt><trkpt lat="43.080630996417405" lon="10.557051961028497"><ele>36.0</ele><time>2026-04-30T16:51:05.001Z</time></trkpt><trkpt lat="43.08060447557764" lon="10.556838891910687"><ele>35.333333333333336</ele><time>2026-04-30T16:51:06.001Z</time></trkpt><trkpt lat="43.08059099795209" lon="10.556625169651047"><ele>34.66666666666667</ele><time>2026-04-30T16:51:07.001Z</time></trkpt><trkpt lat="43.080582149429155" lon="10.556414841182862"><ele>34.0</ele><time>2026-04-30T16:51:08.001Z</time></trkpt><trkpt lat="43.080580564225635" lon="10.556199486383322"><ele>33.66666666666667</ele><time>2026-04-30T16:51:09.001Z</time></trkpt><trkpt lat="43.08058765117175" lon="10.555980156089433"><ele>33.333333333333336</ele><time>2026-04-30T16:51:10.001Z</time></trkpt><trkpt lat="43.0806090586948" lon="10.555753605272043"><ele>33.0</ele><time>2026-04-30T16:51:11.001Z</time></trkpt><trkpt lat="43.08063124952496" lon="10.555530727508858"><ele>32.333333333333336</ele><time>2026-04-30T16:51:12.001Z</time></trkpt><trkpt lat="43.08065806464729" lon="10.555309770533146"><ele>31.666666666666668</ele><time>2026-04-30T16:51:13.001Z</time></trkpt><trkpt lat="43.08068414021814" lon="10.555090047830639"><ele>31.0</ele><time>2026-04-30T16:51:14.001Z</time></trkpt><trkpt lat="43.08070965368637" lon="10.554877872006712"><ele>31.0</ele><time>2026-04-30T16:51:15.001Z</time></trkpt><trkpt lat="43.08073222662188" lon="10.554675849440565"><ele>31.0</ele><time>2026-04-30T16:51:16Z</time></trkpt><trkpt lat="43.080763618061475" lon="10.554491778535178"><ele>31.0</ele><time>2026-04-30T16:51:17Z</time></trkpt><trkpt lat="43.08079044607235" lon="10.554309474153579"><ele>31.0</ele><time>2026-04-30T16:51:18Z</time></trkpt><trkpt lat="43.08082755147068" lon="10.554144750654688"><ele>31.0</ele><time>2026-04-30T16:51:19Z</time></trkpt><trkpt lat="43.080858321672586" lon="10.554025685251673"><ele>31.0</ele><time>2026-04-30T16:51:20Z</time></trkpt><trkpt lat="43.08088429900453" lon="10.553927238393287"><ele>31.0</ele><time>2026-04-30T16:51:21Z</time></trkpt><trkpt lat="43.080925550397374" lon="10.553776384618384"><ele>31.0</ele><time>2026-04-30T16:51:23Z</time></trkpt><trkpt lat="43.08095909283845" lon="10.553672482900199"><ele>31.0</ele><time>2026-04-30T16:51:25Z</time></trkpt><trkpt lat="43.080986718117465" lon="10.553561555411637"><ele>30.666666666666668</ele><time>2026-04-30T16:51:27Z</time></trkpt><trkpt lat="43.081014830140596" lon="10.553454197259661"><ele>30.333333333333336</ele><time>2026-04-30T16:51:29Z</time></trkpt><trkpt lat="43.08104419620296" lon="10.553367128238023"><ele>30.0</ele><time>2026-04-30T16:51:31Z</time></trkpt><trkpt lat="43.08105934153939" lon="10.55325650493195"><ele>29.666666666666664</ele><time>2026-04-30T16:51:33Z</time></trkpt><trkpt lat="43.08110630831786" lon="10.553093429885385"><ele>29.333333333333332</ele><time>2026-04-30T16:51:35Z</time></trkpt><trkpt lat="43.081122313112765" lon="10.553003790283865"><ele>29.0</ele><time>2026-04-30T16:51:36Z</time></trkpt><trkpt lat="43.081129932994806" lon="10.55291441622521"><ele>28.5</ele><time>2026-04-30T16:51:37Z</time></trkpt><trkpt lat="43.081151265592474" lon="10.55281188721873"><ele>28.0</ele><time>2026-04-30T16:51:38Z</time></trkpt><trkpt lat="43.08117584646459" lon="10.55268474845689"><ele>27.5</ele><time>2026-04-30T16:51:39Z</time></trkpt><trkpt lat="43.08119613171754" lon="10.55250342420619"><ele>27.0</ele><time>2026-04-30T16:51:40Z</time></trkpt><trkpt lat="43.0811998102508" lon="10.552308113102027"><ele>27.0</ele><time>2026-04-30T16:51:41Z</time></trkpt><trkpt lat="43.081211115312236" lon="10.552140129685506"><ele>27.0</ele><time>2026-04-30T16:51:42Z</time></trkpt><trkpt lat="43.08122340283338" lon="10.551982736518289"><ele>27.0</ele><time>2026-04-30T16:51:43Z</time></trkpt><trkpt lat="43.08122906839989" lon="10.551831125309162"><ele>27.0</ele><time>2026-04-30T16:51:44Z</time></trkpt><trkpt lat="43.08124126910229" lon="10.551671308639712"><ele>27.0</ele><time>2026-04-30T16:51:45Z</time></trkpt><trkpt lat="43.08125005320187" lon="10.551511161305466"><ele>27.0</ele><time>2026-04-30T16:51:46Z</time></trkpt><trkpt lat="43.08126433058292" lon="10.551354295439475"><ele>27.0</ele><time>2026-04-30T16:51:47Z</time></trkpt><trkpt lat="43.081279121979065" lon="10.551201149626888"><ele>27.0</ele><time>2026-04-30T16:51:48Z</time></trkpt><trkpt lat="43.08129421772482" lon="10.55104605788018"><ele>26.400000000000002</ele><time>2026-04-30T16:51:49Z</time></trkpt><trkpt lat="43.08131870085625" lon="10.550922833516283"><ele>25.800000000000004</ele><time>2026-04-30T16:51:50Z</time></trkpt><trkpt lat="43.08135311666863" lon="10.550845279122758"><ele>25.2</ele><time>2026-04-30T16:51:51Z</time></trkpt><trkpt lat="43.08140674403076" lon="10.550751098288716"><ele>24.6</ele><time>2026-04-30T16:51:53Z</time></trkpt><trkpt lat="43.08148482284675" lon="10.550645128051267"><ele>24.0</ele><time>2026-04-30T16:51:56Z</time></trkpt><trkpt lat="43.08157088511081" lon="10.550575660093566"><ele>24.0</ele><time>2026-04-30T16:51:57Z</time></trkpt><trkpt lat="43.081691063071695" lon="10.550495637425051"><ele>24.0</ele><time>2026-04-30T16:51:58Z</time></trkpt><trkpt lat="43.08183151956521" lon="10.550404500528646"><ele>24.0</ele><time>2026-04-30T16:51:59Z</time></trkpt><trkpt lat="43.081968398982205" lon="10.550320039999253"><ele>24.0</ele><time>2026-04-30T16:52:00Z</time></trkpt><trkpt lat="43.082105589587" lon="10.550225648930631"><ele>23.5</ele><time>2026-04-30T16:52:01Z</time></trkpt><trkpt lat="43.08223281689396" lon="10.550139623899156"><ele>23.0</ele><time>2026-04-30T16:52:02Z</time></trkpt><trkpt lat="43.08235770680576" lon="10.550053277281371"><ele>22.5</ele><time>2026-04-30T16:52:03Z</time></trkpt><trkpt lat="43.08248333723853" lon="10.54996912914764"><ele>22.0</ele><time>2026-04-30T16:52:04Z</time></trkpt><trkpt lat="43.08260713784774" lon="10.549886063104026"><ele>22.0</ele><time>2026-04-30T16:52:05Z</time></trkpt><trkpt lat="43.08272891224615" lon="10.549798594251452"><ele>22.0</ele><time>2026-04-30T16:52:06Z</time></trkpt><trkpt lat="43.082875763707364" lon="10.549688655603783"><ele>22.0</ele><time>2026-04-30T16:52:07Z</time></trkpt><trkpt lat="43.08302051620849" lon="10.54959100005748"><ele>21.333333333333332</ele><time>2026-04-30T16:52:08Z</time></trkpt><trkpt lat="43.083154084147246" lon="10.54949720388667"><ele>20.666666666666668</ele><time>2026-04-30T16:52:09Z</time></trkpt><trkpt lat="43.08332653974084" lon="10.549405721405485"><ele>20.0</ele><time>2026-04-30T16:52:10Z</time></trkpt><trkpt lat="43.083531422214364" lon="10.549268025844645"><ele>20.0</ele><time>2026-04-30T16:52:11Z</time></trkpt><trkpt lat="43.08371435237827" lon="10.549145083784689"><ele>20.0</ele><time>2026-04-30T16:52:12Z</time></trkpt><trkpt lat="43.08388469932546" lon="10.549018226440229"><ele>20.0</ele><time>2026-04-30T16:52:13Z</time></trkpt><trkpt lat="43.084054399457" lon="10.548907069490715"><ele>19.666666666666668</ele><time>2026-04-30T16:52:14Z</time></trkpt><trkpt lat="43.08421365593859" lon="10.548804481523142"><ele>19.333333333333332</ele><time>2026-04-30T16:52:15Z</time></trkpt><trkpt lat="43.08435521256001" lon="10.548708106178534"><ele>19.0</ele><time>2026-04-30T16:52:16Z</time></trkpt><trkpt lat="43.08448824426626" lon="10.548613318377338"><ele>19.0</ele><time>2026-04-30T16:52:17Z</time></trkpt><trkpt lat="43.084625555428296" lon="10.548525168633972"><ele>19.0</ele><time>2026-04-30T16:52:18Z</time></trkpt><trkpt lat="43.084747357559095" lon="10.548444924809733"><ele>19.0</ele><time>2026-04-30T16:52:19Z</time></trkpt><trkpt lat="43.08486581601151" lon="10.54836468424274"><ele>19.0</ele><time>2026-04-30T16:52:20Z</time></trkpt><trkpt lat="43.08498990444159" lon="10.548282467165809"><ele>19.0</ele><time>2026-04-30T16:52:21Z</time></trkpt><trkpt lat="43.085111979064756" lon="10.548201606155837"><ele>19.0</ele><time>2026-04-30T16:52:22Z</time></trkpt><trkpt lat="43.085229381606716" lon="10.548123783507425"><ele>19.0</ele><time>2026-04-30T16:52:23Z</time></trkpt><trkpt lat="43.08533993368828" lon="10.548046088087528"><ele>19.0</ele><time>2026-04-30T16:52:24Z</time></trkpt><trkpt lat="43.085438923818096" lon="10.547977439228108"><ele>19.0</ele><time>2026-04-30T16:52:25Z</time></trkpt><trkpt lat="43.085523935502145" lon="10.547918986336203"><ele>19.0</ele><time>2026-04-30T16:52:26Z</time></trkpt><trkpt lat="43.08560235195083" lon="10.54790336934283"><ele>19.0</ele><time>2026-04-30T16:52:27Z</time></trkpt><trkpt lat="43.08568223687411" lon="10.547902798364564"><ele>19.0</ele><time>2026-04-30T16:52:28Z</time></trkpt><trkpt lat="43.08576638447005" lon="10.54784119660294"><ele>19.0</ele><time>2026-04-30T16:52:29Z</time></trkpt><trkpt lat="43.085849559048484" lon="10.547725698869824"><ele>18.599999999999998</ele><time>2026-04-30T16:52:30Z</time></trkpt><trkpt lat="43.085953242700704" lon="10.547630556463268"><ele>18.2</ele><time>2026-04-30T16:52:31Z</time></trkpt><trkpt lat="43.08604503979185" lon="10.547564613906564"><ele>17.799999999999997</ele><time>2026-04-30T16:52:32Z</time></trkpt><trkpt lat="43.08613582609399" lon="10.547501700018554"><ele>17.4</ele><time>2026-04-30T16:52:33Z</time></trkpt><trkpt lat="43.08622001478519" lon="10.547446456282751"><ele>17.0</ele><time>2026-04-30T16:52:34Z</time></trkpt><trkpt lat="43.086299456950435" lon="10.547389902237724"><ele>17.0</ele><time>2026-04-30T16:52:35Z</time></trkpt><trkpt lat="43.08637503449795" lon="10.547345302316222"><ele>17.0</ele><time>2026-04-30T16:52:36Z</time></trkpt><trkpt lat="43.08645644647293" lon="10.547289619505092"><ele>17.0</ele><time>2026-04-30T16:52:37Z</time></trkpt><trkpt lat="43.08654876843628" lon="10.547224580710957"><ele>17.0</ele><time>2026-04-30T16:52:38Z</time></trkpt><trkpt lat="43.086640700385885" lon="10.547168623036114"><ele>17.0</ele><time>2026-04-30T16:52:39Z</time></trkpt><trkpt lat="43.086732899424774" lon="10.547104802614605"><ele>16.8</ele><time>2026-04-30T16:52:40Z</time></trkpt><trkpt lat="43.08681825238587" lon="10.547046273526249"><ele>16.6</ele><time>2026-04-30T16:52:41Z</time></trkpt><trkpt lat="43.08690892364545" lon="10.546990479795879"><ele>16.400000000000002</ele><time>2026-04-30T16:52:42Z</time></trkpt><trkpt lat="43.08699684484826" lon="10.546931515329616"><ele>16.2</ele><time>2026-04-30T16:52:43Z</time></trkpt><trkpt lat="43.087088487232464" lon="10.546870918215863"><ele>16.0</ele><time>2026-04-30T16:52:44Z</time></trkpt><trkpt lat="43.08717828031969" lon="10.546806715443108"><ele>15.600000000000001</ele><time>2026-04-30T16:52:45Z</time></trkpt><trkpt lat="43.08727107842858" lon="10.54675084395773"><ele>15.200000000000001</ele><time>2026-04-30T16:52:46Z</time></trkpt><trkpt lat="43.087363468453155" lon="10.546692649138883"><ele>14.799999999999999</ele><time>2026-04-30T16:52:47Z</time></trkpt><trkpt lat="43.087450063372096" lon="10.546632702684203"><ele>14.399999999999999</ele><time>2026-04-30T16:52:48Z</time></trkpt><trkpt lat="43.087548110648186" lon="10.546575993087748"><ele>14.0</ele><time>2026-04-30T16:52:49Z</time></trkpt><trkpt lat="43.08764898376986" lon="10.546510306550918"><ele>14.0</ele><time>2026-04-30T16:52:50Z</time></trkpt><trkpt lat="43.08774979219504" lon="10.546439185819644"><ele>14.0</ele><time>2026-04-30T16:52:51Z</time></trkpt><trkpt lat="43.08784986451206" lon="10.546362405770333"><ele>14.0</ele><time>2026-04-30T16:52:52Z</time></trkpt><trkpt lat="43.08794155816089" lon="10.546299727955898"><ele>14.0</ele><time>2026-04-30T16:52:53Z</time></trkpt><trkpt lat="43.088063258591845" lon="10.546219925387483"><ele>13.0</ele><time>2026-04-30T16:52:54Z</time></trkpt><trkpt lat="43.08819149407138" lon="10.546135734389864"><ele>12.0</ele><time>2026-04-30T16:52:55Z</time></trkpt><trkpt lat="43.08829352649311" lon="10.546061003526642"><ele>11.0</ele><time>2026-04-30T16:52:56Z</time></trkpt><trkpt lat="43.088406460398154" lon="10.545995827329305"><ele>10.0</ele><time>2026-04-30T16:52:57Z</time></trkpt><trkpt lat="43.08851055633859" lon="10.545932022701775"><ele>10.0</ele><time>2026-04-30T16:52:58Z</time></trkpt><trkpt lat="43.08860579542471" lon="10.545863208645986"><ele>10.0</ele><time>2026-04-30T16:52:59Z</time></trkpt><trkpt lat="43.088697989648026" lon="10.54579412336028"><ele>10.0</ele><time>2026-04-30T16:53:00Z</time></trkpt><trkpt lat="43.08878096762053" lon="10.545739733112027"><ele>10.0</ele><time>2026-04-30T16:53:01Z</time></trkpt><trkpt lat="43.08886560331077" lon="10.54568107954481"><ele>10.0</ele><time>2026-04-30T16:53:02Z</time></trkpt><trkpt lat="43.08894290223306" lon="10.5456311233874"><ele>10.0</ele><time>2026-04-30T16:53:03Z</time></trkpt><trkpt lat="43.089012985024354" lon="10.545586647798551"><ele>10.0</ele><time>2026-04-30T16:53:04Z</time></trkpt><trkpt lat="43.089104952454115" lon="10.545522777271373"><ele>10.0</ele><time>2026-04-30T16:53:06Z</time></trkpt><trkpt lat="43.08919128487855" lon="10.545485630304704"><ele>10.0</ele><time>2026-04-30T16:53:08Z</time></trkpt><trkpt lat="43.08925351408187" lon="10.545502818490215"><ele>10.0</ele><time>2026-04-30T16:53:09Z</time></trkpt><trkpt lat="43.089321582906635" lon="10.545495351658895"><ele>10.0</ele><time>2026-04-30T16:53:10Z</time></trkpt><trkpt lat="43.08938162047086" lon="10.54539924126663"><ele>10.25</ele><time>2026-04-30T16:53:11Z</time></trkpt><trkpt lat="43.08945640866159" lon="10.545295533427717"><ele>10.5</ele><time>2026-04-30T16:53:12Z</time></trkpt><trkpt lat="43.0895593716908" lon="10.54520403151931"><ele>10.75</ele><time>2026-04-30T16:53:13Z</time></trkpt><trkpt lat="43.08966103171641" lon="10.545137038968225"><ele>11.0</ele><time>2026-04-30T16:53:14Z</time></trkpt><trkpt lat="43.089762983125965" lon="10.545070591578247"><ele>11.0</ele><time>2026-04-30T16:53:15Z</time></trkpt><trkpt lat="43.089867577228205" lon="10.544999863248906"><ele>11.0</ele><time>2026-04-30T16:53:16Z</time></trkpt><trkpt lat="43.089963219866036" lon="10.544934896288344"><ele>11.0</ele><time>2026-04-30T16:53:17Z</time></trkpt><trkpt lat="43.0900524837219" lon="10.544877070030337"><ele>11.0</ele><time>2026-04-30T16:53:18Z</time></trkpt><trkpt lat="43.090151608303124" lon="10.544817704888908"><ele>11.0</ele><time>2026-04-30T16:53:19Z</time></trkpt><trkpt lat="43.09027281891415" lon="10.544737433470738"><ele>10.8</ele><time>2026-04-30T16:53:20Z</time></trkpt><trkpt lat="43.09037382773249" lon="10.544661930631197"><ele>10.600000000000001</ele><time>2026-04-30T16:53:21Z</time></trkpt><trkpt lat="43.09046139494632" lon="10.544597792633507"><ele>10.4</ele><time>2026-04-30T16:53:22Z</time></trkpt><trkpt lat="43.09054585103022" lon="10.544541032629116"><ele>10.2</ele><time>2026-04-30T16:53:23Z</time></trkpt><trkpt lat="43.09066205108513" lon="10.544462640824815"><ele>10.0</ele><time>2026-04-30T16:53:24Z</time></trkpt><trkpt lat="43.09080536187811" lon="10.544386492564032"><ele>10.0</ele><time>2026-04-30T16:53:25Z</time></trkpt><trkpt lat="43.09093904993215" lon="10.544275390201534"><ele>10.0</ele><time>2026-04-30T16:53:26Z</time></trkpt><trkpt lat="43.09108717102915" lon="10.544192374520229"><ele>10.0</ele><time>2026-04-30T16:53:27Z</time></trkpt><trkpt lat="43.09124434644322" lon="10.54409211122104"><ele>10.0</ele><time>2026-04-30T16:53:28Z</time></trkpt><trkpt lat="43.09138789266536" lon="10.54400016565589"><ele>10.0</ele><time>2026-04-30T16:53:29Z</time></trkpt><trkpt lat="43.091524765278194" lon="10.543909392278739"><ele>10.0</ele><time>2026-04-30T16:53:30Z</time></trkpt><trkpt lat="43.0916578957425" lon="10.543817561733592"><ele>10.75</ele><time>2026-04-30T16:53:31Z</time></trkpt><trkpt lat="43.09178700321635" lon="10.543724406790343"><ele>11.5</ele><time>2026-04-30T16:53:32Z</time></trkpt><trkpt lat="43.09191115760879" lon="10.543636965748203"><ele>12.25</ele><time>2026-04-30T16:53:33Z</time></trkpt><trkpt lat="43.09203333333983" lon="10.543550999897322"><ele>13.0</ele><time>2026-04-30T16:53:34Z</time></trkpt><trkpt lat="43.09215239461067" lon="10.543470768351046"><ele>13.25</ele><time>2026-04-30T16:53:35Z</time></trkpt><trkpt lat="43.09226824699564" lon="10.54339032284609"><ele>13.5</ele><time>2026-04-30T16:53:36Z</time></trkpt><trkpt lat="43.09238719596674" lon="10.543308899261469"><ele>13.75</ele><time>2026-04-30T16:53:37Z</time></trkpt><trkpt lat="43.09250082237741" lon="10.543231043881875"><ele>14.0</ele><time>2026-04-30T16:53:38Z</time></trkpt><trkpt lat="43.09260779583487" lon="10.543155190218625"><ele>14.0</ele><time>2026-04-30T16:53:39Z</time></trkpt><trkpt lat="43.092714548495" lon="10.5430798986247"><ele>13.999999999999998</ele><time>2026-04-30T16:53:40Z</time></trkpt><trkpt lat="43.09282173576156" lon="10.543030421279823"><ele>13.999999999999998</ele><time>2026-04-30T16:53:41Z</time></trkpt><trkpt lat="43.0929187754091" lon="10.542964703203246"><ele>14.0</ele><time>2026-04-30T16:53:42Z</time></trkpt><trkpt lat="43.093008380681" lon="10.542892118301218"><ele>14.0</ele><time>2026-04-30T16:53:43Z</time></trkpt><trkpt lat="43.09309966238053" lon="10.542837076030104"><ele>13.5</ele><time>2026-04-30T16:53:44Z</time></trkpt><trkpt lat="43.09321705325998" lon="10.542763764615197"><ele>13.0</ele><time>2026-04-30T16:53:45Z</time></trkpt><trkpt lat="43.09334750456835" lon="10.542678480805938"><ele>12.5</ele><time>2026-04-30T16:53:46Z</time></trkpt><trkpt lat="43.09346418818082" lon="10.542599960771366"><ele>12.0</ele><time>2026-04-30T16:53:47Z</time></trkpt><trkpt lat="43.093545948521275" lon="10.542547540107071"><ele>11.6</ele><time>2026-04-30T16:53:48Z</time></trkpt><trkpt lat="43.09364620705355" lon="10.542492839468208"><ele>11.2</ele><time>2026-04-30T16:53:50Z</time></trkpt><trkpt lat="43.09370429020882" lon="10.54244984717528"><ele>10.8</ele><time>2026-04-30T16:53:52Z</time></trkpt><trkpt lat="43.093778885158294" lon="10.54240315465368"><ele>10.4</ele><time>2026-04-30T16:53:53Z</time></trkpt><trkpt lat="43.09386971993279" lon="10.542326900834425"><ele>10.0</ele><time>2026-04-30T16:53:54Z</time></trkpt><trkpt lat="43.09398992492145" lon="10.542238904825457"><ele>10.0</ele><time>2026-04-30T16:53:55Z</time></trkpt><trkpt lat="43.09412012576352" lon="10.542156970507536"><ele>10.0</ele><time>2026-04-30T16:53:56Z</time></trkpt><trkpt lat="43.094227475710966" lon="10.542089684599027"><ele>10.0</ele><time>2026-04-30T16:53:57Z</time></trkpt><trkpt lat="43.09431799757137" lon="10.542028199039025"><ele>10.0</ele><time>2026-04-30T16:53:58Z</time></trkpt><trkpt lat="43.0944100864123" lon="10.541958884063346"><ele>9.666666666666668</ele><time>2026-04-30T16:53:59Z</time></trkpt><trkpt lat="43.09449319433298" lon="10.541902448688102"><ele>9.333333333333334</ele><time>2026-04-30T16:54:00Z</time></trkpt><trkpt lat="43.09456918415572" lon="10.541852986456918"><ele>9.0</ele><time>2026-04-30T16:54:01Z</time></trkpt><trkpt lat="43.094637079836374" lon="10.541809470054005"><ele>8.666666666666666</ele><time>2026-04-30T16:54:02Z</time></trkpt><trkpt lat="43.094696552067944" lon="10.54177242078835"><ele>8.333333333333332</ele><time>2026-04-30T16:54:03Z</time></trkpt><trkpt lat="43.09480101583097" lon="10.541689834000882"><ele>8.0</ele><time>2026-04-30T16:54:05Z</time></trkpt><trkpt lat="43.09487413993719" lon="10.541635415257776"><ele>8.166666666666666</ele><time>2026-04-30T16:54:07Z</time></trkpt><trkpt lat="43.09492652467128" lon="10.541587186340669"><ele>8.333333333333332</ele><time>2026-04-30T16:54:09Z</time></trkpt><trkpt lat="43.095005778549435" lon="10.541542453943707"><ele>8.5</ele><time>2026-04-30T16:54:12Z</time></trkpt><trkpt lat="43.095067891224645" lon="10.541514537015095"><ele>8.666666666666666</ele><time>2026-04-30T16:54:14Z</time></trkpt><trkpt lat="43.095132586975865" lon="10.541462122478503"><ele>8.833333333333334</ele><time>2026-04-30T16:54:19Z</time></trkpt><trkpt lat="43.095245471550335" lon="10.54137869219566"><ele>9.0</ele><time>2026-04-30T16:54:21Z</time></trkpt><trkpt lat="43.09530885089892" lon="10.541334704239041"><ele>9.000000000000002</ele><time>2026-04-30T16:54:22Z</time></trkpt><trkpt lat="43.09537063373228" lon="10.541294019667701"><ele>9.0</ele><time>2026-04-30T16:54:23Z</time></trkpt><trkpt lat="43.09543062951727" lon="10.541260674269887"><ele>9.0</ele><time>2026-04-30T16:54:24Z</time></trkpt><trkpt lat="43.095487481372565" lon="10.541212464488874"><ele>9.0</ele><time>2026-04-30T16:54:25Z</time></trkpt><trkpt lat="43.095557779602025" lon="10.54117124199211"><ele>9.0</ele><time>2026-04-30T16:54:26Z</time></trkpt><trkpt lat="43.09563166270707" lon="10.541120988400808"><ele>9.000000000000002</ele><time>2026-04-30T16:54:27Z</time></trkpt><trkpt lat="43.09570949537872" lon="10.541071659915653"><ele>9.0</ele><time>2026-04-30T16:54:28Z</time></trkpt><trkpt lat="43.095799385342055" lon="10.541010739338185"><ele>8.8</ele><time>2026-04-30T16:54:29Z</time></trkpt><trkpt lat="43.095900719986396" lon="10.540938974791663"><ele>8.600000000000001</ele><time>2026-04-30T16:54:30Z</time></trkpt><trkpt lat="43.09599931776141" lon="10.540893891182252"><ele>8.4</ele><time>2026-04-30T16:54:31Z</time></trkpt><trkpt lat="43.09608920899142" lon="10.540834407712422"><ele>8.200000000000001</ele><time>2026-04-30T16:54:32Z</time></trkpt><trkpt lat="43.09618174476002" lon="10.540752884185231"><ele>8.0</ele><time>2026-04-30T16:54:33Z</time></trkpt><trkpt lat="43.09628595875807" lon="10.540698488884006"><ele>8.0</ele><time>2026-04-30T16:54:34Z</time></trkpt><trkpt lat="43.0963955733963" lon="10.540635244782187"><ele>8.0</ele><time>2026-04-30T16:54:35Z</time></trkpt><trkpt lat="43.09651981844734" lon="10.540574856995152"><ele>8.0</ele><time>2026-04-30T16:54:36Z</time></trkpt><trkpt lat="43.09665922247684" lon="10.540514162776356"><ele>8.0</ele><time>2026-04-30T16:54:37Z</time></trkpt><trkpt lat="43.096818523655074" lon="10.54046003513897"><ele>9.0</ele><time>2026-04-30T16:54:38Z</time></trkpt><trkpt lat="43.09696450110719" lon="10.540425629146716"><ele>10.0</ele><time>2026-04-30T16:54:39Z</time></trkpt><trkpt lat="43.097091082723885" lon="10.54040070931389"><ele>11.0</ele><time>2026-04-30T16:54:40Z</time></trkpt><trkpt lat="43.09719195243994" lon="10.540388460824671"><ele>12.0</ele><time>2026-04-30T16:54:41Z</time></trkpt><trkpt lat="43.097278389857244" lon="10.540398009862871"><ele>12.0</ele><time>2026-04-30T16:54:42Z</time></trkpt><trkpt lat="43.097356352829166" lon="10.540450392706196"><ele>12.0</ele><time>2026-04-30T16:54:43Z</time></trkpt><trkpt lat="43.09741096465966" lon="10.540522969614619"><ele>12.0</ele><time>2026-04-30T16:54:44Z</time></trkpt><trkpt lat="43.09748907171663" lon="10.54053355921664"><ele>12.0</ele><time>2026-04-30T16:54:45Z</time></trkpt><trkpt lat="43.09758709611743" lon="10.540595643165172"><ele>12.0</ele><time>2026-04-30T16:54:46Z</time></trkpt><trkpt lat="43.09768218439164" lon="10.540671710974845"><ele>12.5</ele><time>2026-04-30T16:54:47Z</time></trkpt><trkpt lat="43.097805232518105" lon="10.540692546180932"><ele>13.0</ele><time>2026-04-30T16:54:48Z</time></trkpt><trkpt lat="43.09795566781339" lon="10.540738775691063"><ele>13.5</ele><time>2026-04-30T16:54:49Z</time></trkpt><trkpt lat="43.09809485223418" lon="10.54069444597042"><ele>14.0</ele><time>2026-04-30T16:54:50Z</time></trkpt><trkpt lat="43.09820716606069" lon="10.540721892762077"><ele>15.0</ele><time>2026-04-30T16:54:51Z</time></trkpt><trkpt lat="43.09830082476039" lon="10.540767620594293"><ele>16.0</ele><time>2026-04-30T16:54:52Z</time></trkpt><trkpt lat="43.0983746267985" lon="10.540835575394924"><ele>17.0</ele><time>2026-04-30T16:54:53Z</time></trkpt><trkpt lat="43.09851120461094" lon="10.54096067142603"><ele>18.0</ele><time>2026-04-30T16:54:54Z</time></trkpt><trkpt lat="43.09860095051811" lon="10.541067980571043"><ele>18.0</ele><time>2026-04-30T16:54:55Z</time></trkpt><trkpt lat="43.098676055486564" lon="10.54117378105483"><ele>18.0</ele><time>2026-04-30T16:54:56Z</time></trkpt><trkpt lat="43.09874722637297" lon="10.541287152516105"><ele>18.0</ele><time>2026-04-30T16:54:57Z</time></trkpt><trkpt lat="43.09880034226138" lon="10.541417391946826"><ele>18.0</ele><time>2026-04-30T16:54:58Z</time></trkpt><trkpt lat="43.09884548706938" lon="10.541539648530208"><ele>18.0</ele><time>2026-04-30T16:54:59Z</time></trkpt><trkpt lat="43.09888850491122" lon="10.54166281377536"><ele>19.333333333333332</ele><time>2026-04-30T16:55:00Z</time></trkpt><trkpt lat="43.0989291964774" lon="10.5417879030549"><ele>20.666666666666664</ele><time>2026-04-30T16:55:01Z</time></trkpt><trkpt lat="43.09896909486803" lon="10.541903592448191"><ele>22.0</ele><time>2026-04-30T16:55:02Z</time></trkpt><trkpt lat="43.09900156609537" lon="10.542007993197233"><ele>23.333333333333332</ele><time>2026-04-30T16:55:03Z</time></trkpt><trkpt lat="43.099037655342386" lon="10.54211560575545"><ele>24.666666666666664</ele><time>2026-04-30T16:55:04Z</time></trkpt><trkpt lat="43.09907512431895" lon="10.542217006437399"><ele>26.0</ele><time>2026-04-30T16:55:05Z</time></trkpt><trkpt lat="43.09911096732825" lon="10.542312159110955"><ele>27.6</ele><time>2026-04-30T16:55:06Z</time></trkpt><trkpt lat="43.09915008528021" lon="10.542392868922798"><ele>29.200000000000003</ele><time>2026-04-30T16:55:07Z</time></trkpt><trkpt lat="43.099203042714585" lon="10.542535064604065"><ele>30.799999999999997</ele><time>2026-04-30T16:55:09Z</time></trkpt><trkpt lat="43.099242548582" lon="10.542646158349601"><ele>32.4</ele><time>2026-04-30T16:55:11Z</time></trkpt><trkpt lat="43.09927156272435" lon="10.542737812709003"><ele>34.0</ele><time>2026-04-30T16:55:13Z</time></trkpt><trkpt lat="43.09944756410513" lon="10.542679970467487"><ele>34.0</ele><time>2026-04-30T16:55:16Z</time></trkpt><trkpt lat="43.09952117100477" lon="10.542639810832206"><ele>34.0</ele><time>2026-04-30T16:55:17Z</time></trkpt><trkpt lat="43.099595174252514" lon="10.542586089568486"><ele>34.0</ele><time>2026-04-30T16:55:18Z</time></trkpt><trkpt lat="43.09966753010443" lon="10.54251109047839"><ele>34.0</ele><time>2026-04-30T16:55:19Z</time></trkpt><trkpt lat="43.09975508913737" lon="10.542455465647283"><ele>34.0</ele><time>2026-04-30T16:55:20Z</time></trkpt><trkpt lat="43.099843393349744" lon="10.542390221970859"><ele>35.2</ele><time>2026-04-30T16:55:21Z</time></trkpt><trkpt lat="43.09994063389367" lon="10.542349850531387"><ele>36.4</ele><time>2026-04-30T16:55:22Z</time></trkpt><trkpt lat="43.10003041664586" lon="10.542294245935778"><ele>37.6</ele><time>2026-04-30T16:55:23Z</time></trkpt><trkpt lat="43.10012359200999" lon="10.542239101537987"><ele>38.8</ele><time>2026-04-30T16:55:24Z</time></trkpt><trkpt lat="43.10022045196902" lon="10.542196606750185"><ele>40.0</ele><time>2026-04-30T16:55:25Z</time></trkpt><trkpt lat="43.100318200030216" lon="10.542150030386695"><ele>40.0</ele><time>2026-04-30T16:55:26Z</time></trkpt><trkpt lat="43.10042610411735" lon="10.542149043888024"><ele>40.0</ele><time>2026-04-30T16:55:27Z</time></trkpt><trkpt lat="43.100528176510174" lon="10.542174665724247"><ele>40.0</ele><time>2026-04-30T16:55:28Z</time></trkpt><trkpt lat="43.1006078058466" lon="10.54221030821353"><ele>40.0</ele><time>2026-04-30T16:55:29Z</time></trkpt><trkpt lat="43.10067596588254" lon="10.542241095385362"><ele>40.0</ele><time>2026-04-30T16:55:30Z</time></trkpt><trkpt lat="43.100733359297465" lon="10.542290762970561"><ele>40.0</ele><time>2026-04-30T16:55:31Z</time></trkpt><trkpt lat="43.10080336073029" lon="10.542329656587544"><ele>40.4</ele><time>2026-04-30T16:55:33Z</time></trkpt><trkpt lat="43.100866114401654" lon="10.542374356999893"><ele>40.8</ele><time>2026-04-30T16:55:35Z</time></trkpt><trkpt lat="43.10086014614799" lon="10.542638128280203"><ele>41.2</ele><time>2026-04-30T16:55:40Z</time></trkpt><trkpt lat="43.10083808981238" lon="10.542725887401186"><ele>41.6</ele><time>2026-04-30T16:55:43Z</time></trkpt><trkpt lat="43.100797684804455" lon="10.542821457257451"><ele>42.0</ele><time>2026-04-30T16:55:48Z</time></trkpt><trkpt lat="43.10087467446123" lon="10.54282443196633"><ele>42.0</ele><time>2026-04-30T16:55:51Z</time></trkpt><trkpt lat="43.100881037056425" lon="10.542717214061147"><ele>42.0</ele><time>2026-04-30T16:55:53Z</time></trkpt><trkpt lat="43.10086406055708" lon="10.542616118764233"><ele>42.0</ele><time>2026-04-30T16:55:56Z</time></trkpt><trkpt lat="43.10084464153679" lon="10.54253282956746"><ele>42.0</ele><time>2026-04-30T16:55:59Z</time></trkpt></trkseg></trk></gpx>